<?xml version="1.0" encoding="UTF-8" standalone="no" ?>
<gpx xmlns="http://www.topografix.com/GPX/1/1" xmlns:xsi="http://www.w3.org/2001/XMLSchema-instance" xsi:schemaLocation="http://www.topografix.com/GPX/1/1 http://www.topografix.com/GPX/1/1/gpx.xsd" version="1.1" creator="VisuGPX - https://www.visugpx.com">
  <metadata>
    <name>La Morte par Sechilienne, </name>
    <desc><![CDATA[
Bus à Grenoble
Sechilienne, Nantes en Rattier, col de Malissol, Pierre Châtel, la Motte d\' Aveillan, Retour maison. 
Températures agréables le matin, chaudes au retour. ]]></desc>
  </metadata>
  <trk>
    <name><![CDATA[Sortie à vélo sur route]]></name>
    <trkseg>
      <trkpt lat="45.05348" lon="5.8306">
        <ele>360.204525</ele>
        <time>2026-08-29T07:36:00.000Z</time>
      </trkpt>
      <trkpt lat="45.05348" lon="5.83065">
        <ele>360.204525</ele>
        <time>2026-08-29T07:36:02.000Z</time>
      </trkpt>
      <trkpt lat="45.05348" lon="5.83071">
        <ele>360.204525</ele>
        <time>2026-08-29T07:36:03.000Z</time>
      </trkpt>
      <trkpt lat="45.05348" lon="5.83076">
        <ele>360.204525</ele>
        <time>2026-08-29T07:36:04.000Z</time>
      </trkpt>
      <trkpt lat="45.05348" lon="5.8308">
        <ele>360.204525</ele>
        <time>2026-08-29T07:36:05.000Z</time>
      </trkpt>
      <trkpt lat="45.05348" lon="5.83085">
        <ele>360.204525</ele>
        <time>2026-08-29T07:36:06.000Z</time>
      </trkpt>
      <trkpt lat="45.05348" lon="5.8309">
        <ele>360.204525</ele>
        <time>2026-08-29T07:36:07.000Z</time>
      </trkpt>
      <trkpt lat="45.05349" lon="5.83094">
        <ele>360.204525</ele>
        <time>2026-08-29T07:36:08.000Z</time>
      </trkpt>
      <trkpt lat="45.05349" lon="5.83099">
        <ele>360.204525</ele>
        <time>2026-08-29T07:36:09.000Z</time>
      </trkpt>
      <trkpt lat="45.05349" lon="5.83104">
        <ele>360.204525</ele>
        <time>2026-08-29T07:36:10.000Z</time>
      </trkpt>
      <trkpt lat="45.0535" lon="5.83109">
        <ele>360.204525</ele>
        <time>2026-08-29T07:36:11.000Z</time>
      </trkpt>
      <trkpt lat="45.0535" lon="5.83114">
        <ele>360.204525</ele>
        <time>2026-08-29T07:36:12.000Z</time>
      </trkpt>
      <trkpt lat="45.0535" lon="5.83119">
        <ele>360.204525</ele>
        <time>2026-08-29T07:36:13.000Z</time>
      </trkpt>
      <trkpt lat="45.0535" lon="5.83124">
        <ele>360.204525</ele>
        <time>2026-08-29T07:36:14.000Z</time>
      </trkpt>
      <trkpt lat="45.05351" lon="5.83129">
        <ele>360.204525</ele>
        <time>2026-08-29T07:36:15.000Z</time>
      </trkpt>
      <trkpt lat="45.05351" lon="5.83134">
        <ele>360.204525</ele>
        <time>2026-08-29T07:36:16.000Z</time>
      </trkpt>
      <trkpt lat="45.05351" lon="5.83139">
        <ele>360.204525</ele>
        <time>2026-08-29T07:36:17.000Z</time>
      </trkpt>
      <trkpt lat="45.05351" lon="5.83144">
        <ele>360.204525</ele>
        <time>2026-08-29T07:36:18.000Z</time>
      </trkpt>
      <trkpt lat="45.05351" lon="5.83149">
        <ele>360.204525</ele>
        <time>2026-08-29T07:36:19.000Z</time>
      </trkpt>
      <trkpt lat="45.05352" lon="5.83154">
        <ele>360.204525</ele>
        <time>2026-08-29T07:36:20.000Z</time>
      </trkpt>
      <trkpt lat="45.05352" lon="5.83159">
        <ele>360.204525</ele>
        <time>2026-08-29T07:36:21.000Z</time>
      </trkpt>
      <trkpt lat="45.05352" lon="5.83164">
        <ele>360.204525</ele>
        <time>2026-08-29T07:36:22.000Z</time>
      </trkpt>
      <trkpt lat="45.05352" lon="5.8317">
        <ele>360.204525</ele>
        <time>2026-08-29T07:36:23.000Z</time>
      </trkpt>
      <trkpt lat="45.05352" lon="5.83175">
        <ele>360.204525</ele>
        <time>2026-08-29T07:36:24.000Z</time>
      </trkpt>
      <trkpt lat="45.05352" lon="5.8318">
        <ele>360.204525</ele>
        <time>2026-08-29T07:36:25.000Z</time>
      </trkpt>
      <trkpt lat="45.05352" lon="5.83186">
        <ele>360.204525</ele>
        <time>2026-08-29T07:36:26.000Z</time>
      </trkpt>
      <trkpt lat="45.05352" lon="5.83191">
        <ele>360.254046</ele>
        <time>2026-08-29T07:36:27.000Z</time>
      </trkpt>
      <trkpt lat="45.05352" lon="5.83196">
        <ele>360.33504</ele>
        <time>2026-08-29T07:36:28.000Z</time>
      </trkpt>
      <trkpt lat="45.05352" lon="5.83202">
        <ele>360.41309</ele>
        <time>2026-08-29T07:36:29.000Z</time>
      </trkpt>
      <trkpt lat="45.05352" lon="5.83207">
        <ele>360.486814</ele>
        <time>2026-08-29T07:36:30.000Z</time>
      </trkpt>
      <trkpt lat="45.05353" lon="5.83212">
        <ele>360.563619</ele>
        <time>2026-08-29T07:36:31.000Z</time>
      </trkpt>
      <trkpt lat="45.05353" lon="5.83217">
        <ele>360.637695</ele>
        <time>2026-08-29T07:36:32.000Z</time>
      </trkpt>
      <trkpt lat="45.05353" lon="5.83222">
        <ele>360.7145</ele>
        <time>2026-08-29T07:36:33.000Z</time>
      </trkpt>
      <trkpt lat="45.05354" lon="5.83227">
        <ele>360.792967</ele>
        <time>2026-08-29T07:36:34.000Z</time>
      </trkpt>
      <trkpt lat="45.05354" lon="5.83233">
        <ele>360.86963</ele>
        <time>2026-08-29T07:36:35.000Z</time>
      </trkpt>
      <trkpt lat="45.05355" lon="5.83238">
        <ele>360.950102</ele>
        <time>2026-08-29T07:36:36.000Z</time>
      </trkpt>
      <trkpt lat="45.05355" lon="5.83243">
        <ele>361.018107</ele>
        <time>2026-08-29T07:36:37.000Z</time>
      </trkpt>
      <trkpt lat="45.05355" lon="5.83248">
        <ele>361.096241</ele>
        <time>2026-08-29T07:36:38.000Z</time>
      </trkpt>
      <trkpt lat="45.05355" lon="5.83253">
        <ele>361.174513</ele>
        <time>2026-08-29T07:36:39.000Z</time>
      </trkpt>
      <trkpt lat="45.05355" lon="5.83258">
        <ele>361.252563</ele>
        <time>2026-08-29T07:36:40.000Z</time>
      </trkpt>
      <trkpt lat="45.05356" lon="5.83264">
        <ele>361.329227</ele>
        <time>2026-08-29T07:36:41.000Z</time>
      </trkpt>
      <trkpt lat="45.05356" lon="5.83269">
        <ele>361.40623</ele>
        <time>2026-08-29T07:36:42.000Z</time>
      </trkpt>
      <trkpt lat="45.05356" lon="5.83274">
        <ele>361.478634</ele>
        <time>2026-08-29T07:36:43.000Z</time>
      </trkpt>
      <trkpt lat="45.05357" lon="5.83279">
        <ele>361.5571</ele>
        <time>2026-08-29T07:36:44.000Z</time>
      </trkpt>
      <trkpt lat="45.05357" lon="5.83284">
        <ele>361.63515</ele>
        <time>2026-08-29T07:36:45.000Z</time>
      </trkpt>
      <trkpt lat="45.05357" lon="5.8329">
        <ele>361.711729</ele>
        <time>2026-08-29T07:36:46.000Z</time>
      </trkpt>
      <trkpt lat="45.05357" lon="5.83295">
        <ele>361.792802</ele>
        <time>2026-08-29T07:36:47.000Z</time>
      </trkpt>
      <trkpt lat="45.05357" lon="5.833">
        <ele>361.869381</ele>
        <time>2026-08-29T07:36:48.000Z</time>
      </trkpt>
      <trkpt lat="45.05357" lon="5.83306">
        <ele>361.950374</ele>
        <time>2026-08-29T07:36:49.000Z</time>
      </trkpt>
      <trkpt lat="45.05357" lon="5.83311">
        <ele>362.02401</ele>
        <time>2026-08-29T07:36:50.000Z</time>
      </trkpt>
      <trkpt lat="45.05358" lon="5.83316">
        <ele>362.10394</ele>
        <time>2026-08-29T07:36:51.000Z</time>
      </trkpt>
      <trkpt lat="45.05358" lon="5.83321">
        <ele>362.180745</ele>
        <time>2026-08-29T07:36:52.000Z</time>
      </trkpt>
      <trkpt lat="45.05358" lon="5.83326">
        <ele>362.252909</ele>
        <time>2026-08-29T07:36:53.000Z</time>
      </trkpt>
      <trkpt lat="45.05358" lon="5.83332">
        <ele>362.331042</ele>
        <time>2026-08-29T07:36:54.000Z</time>
      </trkpt>
      <trkpt lat="45.05358" lon="5.83337">
        <ele>362.409092</ele>
        <time>2026-08-29T07:36:55.000Z</time>
      </trkpt>
      <trkpt lat="45.05358" lon="5.83342">
        <ele>362.490059</ele>
        <time>2026-08-29T07:36:56.000Z</time>
      </trkpt>
      <trkpt lat="45.05358" lon="5.83347">
        <ele>362.565137</ele>
        <time>2026-08-29T07:36:57.000Z</time>
      </trkpt>
      <trkpt lat="45.05359" lon="5.83353">
        <ele>362.64327</ele>
        <time>2026-08-29T07:36:58.000Z</time>
      </trkpt>
      <trkpt lat="45.05359" lon="5.83358">
        <ele>362.716994</ele>
        <time>2026-08-29T07:36:59.000Z</time>
      </trkpt>
      <trkpt lat="45.05359" lon="5.83363">
        <ele>362.790718</ele>
        <time>2026-08-29T07:37:00.000Z</time>
      </trkpt>
      <trkpt lat="45.05359" lon="5.83368">
        <ele>362.866257</ele>
        <time>2026-08-29T07:37:01.000Z</time>
      </trkpt>
      <trkpt lat="45.0536" lon="5.83373">
        <ele>362.94453</ele>
        <time>2026-08-29T07:37:02.000Z</time>
      </trkpt>
      <trkpt lat="45.0536" lon="5.83378">
        <ele>363.022996</ele>
        <time>2026-08-29T07:37:03.000Z</time>
      </trkpt>
      <trkpt lat="45.0536" lon="5.83384">
        <ele>363.099659</ele>
        <time>2026-08-29T07:37:04.000Z</time>
      </trkpt>
      <trkpt lat="45.0536" lon="5.83389">
        <ele>363.176323</ele>
        <time>2026-08-29T07:37:05.000Z</time>
      </trkpt>
      <trkpt lat="45.05361" lon="5.83394">
        <ele>363.258998</ele>
        <time>2026-08-29T07:37:06.000Z</time>
      </trkpt>
      <trkpt lat="45.05361" lon="5.834">
        <ele>363.338928</ele>
        <time>2026-08-29T07:37:07.000Z</time>
      </trkpt>
      <trkpt lat="45.05361" lon="5.83405">
        <ele>363.420136</ele>
        <time>2026-08-29T07:37:08.000Z</time>
      </trkpt>
      <trkpt lat="45.05362" lon="5.83411">
        <ele>363.502062</ele>
        <time>2026-08-29T07:37:09.000Z</time>
      </trkpt>
      <trkpt lat="45.05363" lon="5.83416">
        <ele>363.578174</ele>
        <time>2026-08-29T07:37:10.000Z</time>
      </trkpt>
      <trkpt lat="45.05363" lon="5.83421">
        <ele>363.647864</ele>
        <time>2026-08-29T07:37:11.000Z</time>
      </trkpt>
      <trkpt lat="45.05363" lon="5.83426">
        <ele>363.723057</ele>
        <time>2026-08-29T07:37:12.000Z</time>
      </trkpt>
      <trkpt lat="45.05364" lon="5.83431">
        <ele>363.80006</ele>
        <time>2026-08-29T07:37:13.000Z</time>
      </trkpt>
      <trkpt lat="45.05364" lon="5.83436">
        <ele>363.87811</ele>
        <time>2026-08-29T07:37:14.000Z</time>
      </trkpt>
      <trkpt lat="45.05364" lon="5.83441">
        <ele>363.954796</ele>
        <time>2026-08-29T07:37:15.000Z</time>
      </trkpt>
      <trkpt lat="45.05364" lon="5.83447">
        <ele>364.036843</ele>
        <time>2026-08-29T07:37:16.000Z</time>
      </trkpt>
      <trkpt lat="45.05364" lon="5.83452">
        <ele>364.117372</ele>
        <time>2026-08-29T07:37:17.000Z</time>
      </trkpt>
      <trkpt lat="45.05364" lon="5.83457">
        <ele>364.199537</ele>
        <time>2026-08-29T07:37:18.000Z</time>
      </trkpt>
      <trkpt lat="45.05364" lon="5.83462">
        <ele>364.277219</ele>
        <time>2026-08-29T07:37:19.000Z</time>
      </trkpt>
      <trkpt lat="45.05365" lon="5.83467">
        <ele>364.356443</ele>
        <time>2026-08-29T07:37:20.000Z</time>
      </trkpt>
      <trkpt lat="45.05365" lon="5.83472">
        <ele>364.431554</ele>
        <time>2026-08-29T07:37:21.000Z</time>
      </trkpt>
      <trkpt lat="45.05366" lon="5.83477">
        <ele>364.512428</ele>
        <time>2026-08-29T07:37:22.000Z</time>
      </trkpt>
      <trkpt lat="45.05367" lon="5.83482">
        <ele>364.587269</ele>
        <time>2026-08-29T07:37:23.000Z</time>
      </trkpt>
      <trkpt lat="45.05368" lon="5.83487">
        <ele>364.672193</ele>
        <time>2026-08-29T07:37:24.000Z</time>
      </trkpt>
      <trkpt lat="45.05369" lon="5.83492">
        <ele>364.75057</ele>
        <time>2026-08-29T07:37:25.000Z</time>
      </trkpt>
      <trkpt lat="45.05369" lon="5.83496">
        <ele>364.818881</ele>
        <time>2026-08-29T07:37:26.000Z</time>
      </trkpt>
      <trkpt lat="45.0537" lon="5.835">
        <ele>364.876141</ele>
        <time>2026-08-29T07:37:27.000Z</time>
      </trkpt>
      <trkpt lat="45.0537" lon="5.83504">
        <ele>364.937502</ele>
        <time>2026-08-29T07:37:28.000Z</time>
      </trkpt>
      <trkpt lat="45.05371" lon="5.83507">
        <ele>364.989335</ele>
        <time>2026-08-29T07:37:29.000Z</time>
      </trkpt>
      <trkpt lat="45.0537" lon="5.83511">
        <ele>365.043914</ele>
        <time>2026-08-29T07:37:30.000Z</time>
      </trkpt>
      <trkpt lat="45.0537" lon="5.83513">
        <ele>365.086257</ele>
        <time>2026-08-29T07:37:31.000Z</time>
      </trkpt>
      <trkpt lat="45.05369" lon="5.83515">
        <ele>365.120563</ele>
        <time>2026-08-29T07:37:32.000Z</time>
      </trkpt>
      <trkpt lat="45.05369" lon="5.83517">
        <ele>365.151602</ele>
        <time>2026-08-29T07:37:33.000Z</time>
      </trkpt>
      <trkpt lat="45.05369" lon="5.83519">
        <ele>365.176468</ele>
        <time>2026-08-29T07:37:34.000Z</time>
      </trkpt>
      <trkpt lat="45.05369" lon="5.8352">
        <ele>365.193286</ele>
        <time>2026-08-29T07:37:35.000Z</time>
      </trkpt>
      <trkpt lat="45.05369" lon="5.83521">
        <ele>365.203557</ele>
        <time>2026-08-29T07:37:36.000Z</time>
      </trkpt>
      <trkpt lat="45.05362" lon="5.83531">
        <ele>365.420669</ele>
        <time>2026-08-29T07:38:01.000Z</time>
      </trkpt>
      <trkpt lat="45.05359" lon="5.83532">
        <ele>365.485742</ele>
        <time>2026-08-29T07:38:02.000Z</time>
      </trkpt>
      <trkpt lat="45.05356" lon="5.83534">
        <ele>365.553786</ele>
        <time>2026-08-29T07:38:03.000Z</time>
      </trkpt>
      <trkpt lat="45.05354" lon="5.83535">
        <ele>365.620445</ele>
        <time>2026-08-29T07:38:04.000Z</time>
      </trkpt>
      <trkpt lat="45.0535" lon="5.83536">
        <ele>365.691653</ele>
        <time>2026-08-29T07:38:05.000Z</time>
      </trkpt>
      <trkpt lat="45.05347" lon="5.83537">
        <ele>365.761687</ele>
        <time>2026-08-29T07:38:06.000Z</time>
      </trkpt>
      <trkpt lat="45.05344" lon="5.83539">
        <ele>365.832537</ele>
        <time>2026-08-29T07:38:07.000Z</time>
      </trkpt>
      <trkpt lat="45.05341" lon="5.8354">
        <ele>365.897945</ele>
        <time>2026-08-29T07:38:08.000Z</time>
      </trkpt>
      <trkpt lat="45.05338" lon="5.83541">
        <ele>365.962053</ele>
        <time>2026-08-29T07:38:09.000Z</time>
      </trkpt>
      <trkpt lat="45.05336" lon="5.83542">
        <ele>366.02198</ele>
        <time>2026-08-29T07:38:10.000Z</time>
      </trkpt>
      <trkpt lat="45.05334" lon="5.83543">
        <ele>366.068224</ele>
        <time>2026-08-29T07:38:11.000Z</time>
      </trkpt>
      <trkpt lat="45.05332" lon="5.83544">
        <ele>366.119353</ele>
        <time>2026-08-29T07:38:12.000Z</time>
      </trkpt>
      <trkpt lat="45.05329" lon="5.83545">
        <ele>366.171254</ele>
        <time>2026-08-29T07:38:13.000Z</time>
      </trkpt>
      <trkpt lat="45.05327" lon="5.83546">
        <ele>366.228623</ele>
        <time>2026-08-29T07:38:14.000Z</time>
      </trkpt>
      <trkpt lat="45.05324" lon="5.83547">
        <ele>366.293367</ele>
        <time>2026-08-29T07:38:15.000Z</time>
      </trkpt>
      <trkpt lat="45.05322" lon="5.83548">
        <ele>366.351731</ele>
        <time>2026-08-29T07:38:16.000Z</time>
      </trkpt>
      <trkpt lat="45.05319" lon="5.8355">
        <ele>366.415873</ele>
        <time>2026-08-29T07:38:17.000Z</time>
      </trkpt>
      <trkpt lat="45.05316" lon="5.83552">
        <ele>366.486685</ele>
        <time>2026-08-29T07:38:18.000Z</time>
      </trkpt>
      <trkpt lat="45.05313" lon="5.83554">
        <ele>366.56011</ele>
        <time>2026-08-29T07:38:19.000Z</time>
      </trkpt>
      <trkpt lat="45.0531" lon="5.83555">
        <ele>366.633535</ele>
        <time>2026-08-29T07:38:20.000Z</time>
      </trkpt>
      <trkpt lat="45.05307" lon="5.83557">
        <ele>366.700924</ele>
        <time>2026-08-29T07:38:21.000Z</time>
      </trkpt>
      <trkpt lat="45.05304" lon="5.8356">
        <ele>366.768943</ele>
        <time>2026-08-29T07:38:22.000Z</time>
      </trkpt>
      <trkpt lat="45.05301" lon="5.83562">
        <ele>366.844067</ele>
        <time>2026-08-29T07:38:23.000Z</time>
      </trkpt>
      <trkpt lat="45.05298" lon="5.83565">
        <ele>366.923028</ele>
        <time>2026-08-29T07:38:24.000Z</time>
      </trkpt>
      <trkpt lat="45.05295" lon="5.83567">
        <ele>367.005047</ele>
        <time>2026-08-29T07:38:25.000Z</time>
      </trkpt>
      <trkpt lat="45.05292" lon="5.8357">
        <ele>367.08234</ele>
        <time>2026-08-29T07:38:26.000Z</time>
      </trkpt>
      <trkpt lat="45.05289" lon="5.83572">
        <ele>367.164779</ele>
        <time>2026-08-29T07:38:27.000Z</time>
      </trkpt>
      <trkpt lat="45.05285" lon="5.83575">
        <ele>367.24909</ele>
        <time>2026-08-29T07:38:28.000Z</time>
      </trkpt>
      <trkpt lat="45.05282" lon="5.83578">
        <ele>367.329673</ele>
        <time>2026-08-29T07:38:29.000Z</time>
      </trkpt>
      <trkpt lat="45.05279" lon="5.83581">
        <ele>367.415616</ele>
        <time>2026-08-29T07:38:30.000Z</time>
      </trkpt>
      <trkpt lat="45.05276" lon="5.83584">
        <ele>367.503412</ele>
        <time>2026-08-29T07:38:31.000Z</time>
      </trkpt>
      <trkpt lat="45.05272" lon="5.83586">
        <ele>367.592599</ele>
        <time>2026-08-29T07:38:32.000Z</time>
      </trkpt>
      <trkpt lat="45.05268" lon="5.83589">
        <ele>367.682442</ele>
        <time>2026-08-29T07:38:33.000Z</time>
      </trkpt>
      <trkpt lat="45.05265" lon="5.83591">
        <ele>367.76906</ele>
        <time>2026-08-29T07:38:34.000Z</time>
      </trkpt>
      <trkpt lat="45.05261" lon="5.83595">
        <ele>367.854916</ele>
        <time>2026-08-29T07:38:35.000Z</time>
      </trkpt>
      <trkpt lat="45.05258" lon="5.83598">
        <ele>367.903072</ele>
        <time>2026-08-29T07:38:36.000Z</time>
      </trkpt>
      <trkpt lat="45.05255" lon="5.83601">
        <ele>367.92101</ele>
        <time>2026-08-29T07:38:37.000Z</time>
      </trkpt>
      <trkpt lat="45.05252" lon="5.83603">
        <ele>367.938314</ele>
        <time>2026-08-29T07:38:38.000Z</time>
      </trkpt>
      <trkpt lat="45.05248" lon="5.83606">
        <ele>367.955353</ele>
        <time>2026-08-29T07:38:39.000Z</time>
      </trkpt>
      <trkpt lat="45.05245" lon="5.83609">
        <ele>367.972446</ele>
        <time>2026-08-29T07:38:40.000Z</time>
      </trkpt>
      <trkpt lat="45.05242" lon="5.83612">
        <ele>367.988768</ele>
        <time>2026-08-29T07:38:41.000Z</time>
      </trkpt>
      <trkpt lat="45.05239" lon="5.83614">
        <ele>368.005091</ele>
        <time>2026-08-29T07:38:42.000Z</time>
      </trkpt>
      <trkpt lat="45.05236" lon="5.83617">
        <ele>368.020936</ele>
        <time>2026-08-29T07:38:43.000Z</time>
      </trkpt>
      <trkpt lat="45.05233" lon="5.83619">
        <ele>368.036309</ele>
        <time>2026-08-29T07:38:44.000Z</time>
      </trkpt>
      <trkpt lat="45.0523" lon="5.83622">
        <ele>368.051868</ele>
        <time>2026-08-29T07:38:45.000Z</time>
      </trkpt>
      <trkpt lat="45.05227" lon="5.83625">
        <ele>368.067321</ele>
        <time>2026-08-29T07:38:46.000Z</time>
      </trkpt>
      <trkpt lat="45.05224" lon="5.83628">
        <ele>368.083428</ele>
        <time>2026-08-29T07:38:47.000Z</time>
      </trkpt>
      <trkpt lat="45.05221" lon="5.83631">
        <ele>368.099919</ele>
        <time>2026-08-29T07:38:48.000Z</time>
      </trkpt>
      <trkpt lat="45.05218" lon="5.83633">
        <ele>368.116582</ele>
        <time>2026-08-29T07:38:49.000Z</time>
      </trkpt>
      <trkpt lat="45.05215" lon="5.83636">
        <ele>368.133245</ele>
        <time>2026-08-29T07:38:50.000Z</time>
      </trkpt>
      <trkpt lat="45.05212" lon="5.83639">
        <ele>368.149908</ele>
        <time>2026-08-29T07:38:51.000Z</time>
      </trkpt>
      <trkpt lat="45.05209" lon="5.83642">
        <ele>368.167297</ele>
        <time>2026-08-29T07:38:52.000Z</time>
      </trkpt>
      <trkpt lat="45.05205" lon="5.83645">
        <ele>368.184686</ele>
        <time>2026-08-29T07:38:53.000Z</time>
      </trkpt>
      <trkpt lat="45.05202" lon="5.83648">
        <ele>368.201556</ele>
        <time>2026-08-29T07:38:54.000Z</time>
      </trkpt>
      <trkpt lat="45.05199" lon="5.83651">
        <ele>368.219523</ele>
        <time>2026-08-29T07:38:55.000Z</time>
      </trkpt>
      <trkpt lat="45.05195" lon="5.83654">
        <ele>368.237005</ele>
        <time>2026-08-29T07:38:56.000Z</time>
      </trkpt>
      <trkpt lat="45.05192" lon="5.83657">
        <ele>368.25552</ele>
        <time>2026-08-29T07:38:57.000Z</time>
      </trkpt>
      <trkpt lat="45.05188" lon="5.8366">
        <ele>368.275131</ele>
        <time>2026-08-29T07:38:58.000Z</time>
      </trkpt>
      <trkpt lat="45.05185" lon="5.83664">
        <ele>368.295081</ele>
        <time>2026-08-29T07:38:59.000Z</time>
      </trkpt>
      <trkpt lat="45.05181" lon="5.83667">
        <ele>368.312669</ele>
        <time>2026-08-29T07:39:00.000Z</time>
      </trkpt>
      <trkpt lat="45.05178" lon="5.8367">
        <ele>368.33179</ele>
        <time>2026-08-29T07:39:01.000Z</time>
      </trkpt>
      <trkpt lat="45.05174" lon="5.83673">
        <ele>368.350458</ele>
        <time>2026-08-29T07:39:02.000Z</time>
      </trkpt>
      <trkpt lat="45.0517" lon="5.83676">
        <ele>368.369272</ele>
        <time>2026-08-29T07:39:03.000Z</time>
      </trkpt>
      <trkpt lat="45.05167" lon="5.83679">
        <ele>368.387957</ele>
        <time>2026-08-29T07:39:04.000Z</time>
      </trkpt>
      <trkpt lat="45.05163" lon="5.83682">
        <ele>368.405596</ele>
        <time>2026-08-29T07:39:05.000Z</time>
      </trkpt>
      <trkpt lat="45.0516" lon="5.83685">
        <ele>368.425023</ele>
        <time>2026-08-29T07:39:06.000Z</time>
      </trkpt>
      <trkpt lat="45.05157" lon="5.83689">
        <ele>368.443707</ele>
        <time>2026-08-29T07:39:07.000Z</time>
      </trkpt>
      <trkpt lat="45.05153" lon="5.83692">
        <ele>368.460919</ele>
        <time>2026-08-29T07:39:08.000Z</time>
      </trkpt>
      <trkpt lat="45.0515" lon="5.83695">
        <ele>368.47872</ele>
        <time>2026-08-29T07:39:09.000Z</time>
      </trkpt>
      <trkpt lat="45.05146" lon="5.83697">
        <ele>368.497244</ele>
        <time>2026-08-29T07:39:10.000Z</time>
      </trkpt>
      <trkpt lat="45.05142" lon="5.837">
        <ele>368.51607</ele>
        <time>2026-08-29T07:39:11.000Z</time>
      </trkpt>
      <trkpt lat="45.05138" lon="5.83701">
        <ele>368.536091</ele>
        <time>2026-08-29T07:39:12.000Z</time>
      </trkpt>
      <trkpt lat="45.05134" lon="5.83703">
        <ele>368.556544</ele>
        <time>2026-08-29T07:39:13.000Z</time>
      </trkpt>
      <trkpt lat="45.05129" lon="5.83704">
        <ele>368.577414</ele>
        <time>2026-08-29T07:39:14.000Z</time>
      </trkpt>
      <trkpt lat="45.05124" lon="5.83705">
        <ele>368.599892</ele>
        <time>2026-08-29T07:39:15.000Z</time>
      </trkpt>
      <trkpt lat="45.05119" lon="5.83704">
        <ele>368.62237</ele>
        <time>2026-08-29T07:39:16.000Z</time>
      </trkpt>
      <trkpt lat="45.05114" lon="5.83703">
        <ele>368.645226</ele>
        <time>2026-08-29T07:39:17.000Z</time>
      </trkpt>
      <trkpt lat="45.05109" lon="5.83701">
        <ele>368.667494</ele>
        <time>2026-08-29T07:39:18.000Z</time>
      </trkpt>
      <trkpt lat="45.05105" lon="5.83698">
        <ele>368.69043</ele>
        <time>2026-08-29T07:39:19.000Z</time>
      </trkpt>
      <trkpt lat="45.051" lon="5.83695">
        <ele>368.727571</ele>
        <time>2026-08-29T07:39:20.000Z</time>
      </trkpt>
      <trkpt lat="45.05095" lon="5.83692">
        <ele>368.773053</ele>
        <time>2026-08-29T07:39:21.000Z</time>
      </trkpt>
      <trkpt lat="45.0509" lon="5.83688">
        <ele>368.823866</ele>
        <time>2026-08-29T07:39:22.000Z</time>
      </trkpt>
      <trkpt lat="45.05084" lon="5.83684">
        <ele>368.879229</ele>
        <time>2026-08-29T07:39:23.000Z</time>
      </trkpt>
      <trkpt lat="45.0508" lon="5.83679">
        <ele>368.928313</ele>
        <time>2026-08-29T07:39:24.000Z</time>
      </trkpt>
      <trkpt lat="45.05075" lon="5.83674">
        <ele>368.983818</ele>
        <time>2026-08-29T07:39:25.000Z</time>
      </trkpt>
      <trkpt lat="45.0507" lon="5.8367">
        <ele>369.032589</ele>
        <time>2026-08-29T07:39:26.000Z</time>
      </trkpt>
      <trkpt lat="45.05066" lon="5.83666">
        <ele>369.073495</ele>
        <time>2026-08-29T07:39:27.000Z</time>
      </trkpt>
      <trkpt lat="45.05062" lon="5.83661">
        <ele>369.119196</ele>
        <time>2026-08-29T07:39:28.000Z</time>
      </trkpt>
      <trkpt lat="45.05058" lon="5.83655">
        <ele>369.169948</ele>
        <time>2026-08-29T07:39:29.000Z</time>
      </trkpt>
      <trkpt lat="45.05053" lon="5.83651">
        <ele>369.218057</ele>
        <time>2026-08-29T07:39:30.000Z</time>
      </trkpt>
      <trkpt lat="45.05049" lon="5.83645">
        <ele>369.267618</ele>
        <time>2026-08-29T07:39:31.000Z</time>
      </trkpt>
      <trkpt lat="45.05045" lon="5.83641">
        <ele>369.312089</ele>
        <time>2026-08-29T07:39:32.000Z</time>
      </trkpt>
      <trkpt lat="45.05041" lon="5.83637">
        <ele>369.351974</ele>
        <time>2026-08-29T07:39:33.000Z</time>
      </trkpt>
      <trkpt lat="45.05037" lon="5.83634">
        <ele>369.39414</ele>
        <time>2026-08-29T07:39:34.000Z</time>
      </trkpt>
      <trkpt lat="45.05034" lon="5.83631">
        <ele>369.426867</ele>
        <time>2026-08-29T07:39:35.000Z</time>
      </trkpt>
      <trkpt lat="45.0503" lon="5.83626">
        <ele>369.469968</ele>
        <time>2026-08-29T07:39:36.000Z</time>
      </trkpt>
      <trkpt lat="45.05027" lon="5.83621">
        <ele>369.509715</ele>
        <time>2026-08-29T07:39:37.000Z</time>
      </trkpt>
      <trkpt lat="45.05024" lon="5.83616">
        <ele>369.550799</ele>
        <time>2026-08-29T07:39:38.000Z</time>
      </trkpt>
      <trkpt lat="45.0502" lon="5.83612">
        <ele>369.590392</ele>
        <time>2026-08-29T07:39:39.000Z</time>
      </trkpt>
      <trkpt lat="45.05018" lon="5.83609">
        <ele>369.621775</ele>
        <time>2026-08-29T07:39:40.000Z</time>
      </trkpt>
      <trkpt lat="45.05016" lon="5.83603">
        <ele>369.660017</ele>
        <time>2026-08-29T07:39:41.000Z</time>
      </trkpt>
      <trkpt lat="45.05013" lon="5.836">
        <ele>369.694457</ele>
        <time>2026-08-29T07:39:42.000Z</time>
      </trkpt>
      <trkpt lat="45.05008" lon="5.83595">
        <ele>369.74287</ele>
        <time>2026-08-29T07:39:43.000Z</time>
      </trkpt>
      <trkpt lat="45.05005" lon="5.8359">
        <ele>369.784408</ele>
        <time>2026-08-29T07:39:44.000Z</time>
      </trkpt>
      <trkpt lat="45.05001" lon="5.83585">
        <ele>369.829714</ele>
        <time>2026-08-29T07:39:45.000Z</time>
      </trkpt>
      <trkpt lat="45.04997" lon="5.8358">
        <ele>369.881795</ele>
        <time>2026-08-29T07:39:46.000Z</time>
      </trkpt>
      <trkpt lat="45.04994" lon="5.83575">
        <ele>369.914984</ele>
        <time>2026-08-29T07:39:47.000Z</time>
      </trkpt>
      <trkpt lat="45.04992" lon="5.83571">
        <ele>369.948167</ele>
        <time>2026-08-29T07:39:48.000Z</time>
      </trkpt>
      <trkpt lat="45.04989" lon="5.83568">
        <ele>369.983251</ele>
        <time>2026-08-29T07:39:49.000Z</time>
      </trkpt>
      <trkpt lat="45.04987" lon="5.83565">
        <ele>370.008394</ele>
        <time>2026-08-29T07:39:50.000Z</time>
      </trkpt>
      <trkpt lat="45.04984" lon="5.83562">
        <ele>370.036177</ele>
        <time>2026-08-29T07:39:51.000Z</time>
      </trkpt>
      <trkpt lat="45.04981" lon="5.83558">
        <ele>370.073793</ele>
        <time>2026-08-29T07:39:52.000Z</time>
      </trkpt>
      <trkpt lat="45.04976" lon="5.83552">
        <ele>370.127333</ele>
        <time>2026-08-29T07:39:53.000Z</time>
      </trkpt>
      <trkpt lat="45.04971" lon="5.83548">
        <ele>370.177131</ele>
        <time>2026-08-29T07:39:54.000Z</time>
      </trkpt>
      <trkpt lat="45.04967" lon="5.83544">
        <ele>370.221238</ele>
        <time>2026-08-29T07:39:55.000Z</time>
      </trkpt>
      <trkpt lat="45.04964" lon="5.8354">
        <ele>370.258312</ele>
        <time>2026-08-29T07:39:56.000Z</time>
      </trkpt>
      <trkpt lat="45.04961" lon="5.83537">
        <ele>370.401258</ele>
        <time>2026-08-29T07:39:57.000Z</time>
      </trkpt>
      <trkpt lat="45.04958" lon="5.83534">
        <ele>370.588335</ele>
        <time>2026-08-29T07:39:58.000Z</time>
      </trkpt>
      <trkpt lat="45.04955" lon="5.83531">
        <ele>370.767616</ele>
        <time>2026-08-29T07:39:59.000Z</time>
      </trkpt>
      <trkpt lat="45.04952" lon="5.83528">
        <ele>370.950812</ele>
        <time>2026-08-29T07:40:00.000Z</time>
      </trkpt>
      <trkpt lat="45.04949" lon="5.83527">
        <ele>371.111881</ele>
        <time>2026-08-29T07:40:01.000Z</time>
      </trkpt>
      <trkpt lat="45.04946" lon="5.83524">
        <ele>371.282893</ele>
        <time>2026-08-29T07:40:02.000Z</time>
      </trkpt>
      <trkpt lat="45.04943" lon="5.8352">
        <ele>371.472751</ele>
        <time>2026-08-29T07:40:03.000Z</time>
      </trkpt>
      <trkpt lat="45.0494" lon="5.83518">
        <ele>371.638353</ele>
        <time>2026-08-29T07:40:04.000Z</time>
      </trkpt>
      <trkpt lat="45.04937" lon="5.83515">
        <ele>371.821536</ele>
        <time>2026-08-29T07:40:05.000Z</time>
      </trkpt>
      <trkpt lat="45.04934" lon="5.83512">
        <ele>372.00472</ele>
        <time>2026-08-29T07:40:06.000Z</time>
      </trkpt>
      <trkpt lat="45.04931" lon="5.83509">
        <ele>372.18181</ele>
        <time>2026-08-29T07:40:07.000Z</time>
      </trkpt>
      <trkpt lat="45.0493" lon="5.83506">
        <ele>372.318451</ele>
        <time>2026-08-29T07:40:08.000Z</time>
      </trkpt>
      <trkpt lat="45.04927" lon="5.83502">
        <ele>372.493624</ele>
        <time>2026-08-29T07:40:09.000Z</time>
      </trkpt>
      <trkpt lat="45.04924" lon="5.83499">
        <ele>372.684451</ele>
        <time>2026-08-29T07:40:10.000Z</time>
      </trkpt>
      <trkpt lat="45.04922" lon="5.83495">
        <ele>372.846721</ele>
        <time>2026-08-29T07:40:11.000Z</time>
      </trkpt>
      <trkpt lat="45.0492" lon="5.83492">
        <ele>373.013408</ele>
        <time>2026-08-29T07:40:12.000Z</time>
      </trkpt>
      <trkpt lat="45.04917" lon="5.83489">
        <ele>373.176559</ele>
        <time>2026-08-29T07:40:13.000Z</time>
      </trkpt>
      <trkpt lat="45.04915" lon="5.83485">
        <ele>373.332874</ele>
        <time>2026-08-29T07:40:14.000Z</time>
      </trkpt>
      <trkpt lat="45.04913" lon="5.83482">
        <ele>373.488588</ele>
        <time>2026-08-29T07:40:15.000Z</time>
      </trkpt>
      <trkpt lat="45.04911" lon="5.83478">
        <ele>373.652555</ele>
        <time>2026-08-29T07:40:16.000Z</time>
      </trkpt>
      <trkpt lat="45.04909" lon="5.83475">
        <ele>373.807781</ele>
        <time>2026-08-29T07:40:17.000Z</time>
      </trkpt>
      <trkpt lat="45.04908" lon="5.83471">
        <ele>373.965892</ele>
        <time>2026-08-29T07:40:18.000Z</time>
      </trkpt>
      <trkpt lat="45.04906" lon="5.83467">
        <ele>374.130205</ele>
        <time>2026-08-29T07:40:19.000Z</time>
      </trkpt>
      <trkpt lat="45.04904" lon="5.83464">
        <ele>374.288317</ele>
        <time>2026-08-29T07:40:20.000Z</time>
      </trkpt>
      <trkpt lat="45.04902" lon="5.8346">
        <ele>374.426823</ele>
        <time>2026-08-29T07:40:21.000Z</time>
      </trkpt>
      <trkpt lat="45.04901" lon="5.83456">
        <ele>374.588605</ele>
        <time>2026-08-29T07:40:22.000Z</time>
      </trkpt>
      <trkpt lat="45.04899" lon="5.83452">
        <ele>374.778325</ele>
        <time>2026-08-29T07:40:23.000Z</time>
      </trkpt>
      <trkpt lat="45.04897" lon="5.83448">
        <ele>374.939612</ele>
        <time>2026-08-29T07:40:24.000Z</time>
      </trkpt>
      <trkpt lat="45.04895" lon="5.83444">
        <ele>375.115525</ele>
        <time>2026-08-29T07:40:25.000Z</time>
      </trkpt>
      <trkpt lat="45.04894" lon="5.83439">
        <ele>375.304821</ele>
        <time>2026-08-29T07:40:26.000Z</time>
      </trkpt>
      <trkpt lat="45.04892" lon="5.83435">
        <ele>375.45192</ele>
        <time>2026-08-29T07:40:27.000Z</time>
      </trkpt>
      <trkpt lat="45.04891" lon="5.83431">
        <ele>375.616537</ele>
        <time>2026-08-29T07:40:28.000Z</time>
      </trkpt>
      <trkpt lat="45.0489" lon="5.83427">
        <ele>375.774706</ele>
        <time>2026-08-29T07:40:29.000Z</time>
      </trkpt>
      <trkpt lat="45.04889" lon="5.83423">
        <ele>375.922072</ele>
        <time>2026-08-29T07:40:30.000Z</time>
      </trkpt>
      <trkpt lat="45.04888" lon="5.83418">
        <ele>376.071778</ele>
        <time>2026-08-29T07:40:31.000Z</time>
      </trkpt>
      <trkpt lat="45.04888" lon="5.83414">
        <ele>376.221685</ele>
        <time>2026-08-29T07:40:32.000Z</time>
      </trkpt>
      <trkpt lat="45.04886" lon="5.83411">
        <ele>376.368287</ele>
        <time>2026-08-29T07:40:33.000Z</time>
      </trkpt>
      <trkpt lat="45.04884" lon="5.83408">
        <ele>376.509515</ele>
        <time>2026-08-29T07:40:34.000Z</time>
      </trkpt>
      <trkpt lat="45.04882" lon="5.83405">
        <ele>376.64487</ele>
        <time>2026-08-29T07:40:35.000Z</time>
      </trkpt>
      <trkpt lat="45.0488" lon="5.83403">
        <ele>376.790638</ele>
        <time>2026-08-29T07:40:36.000Z</time>
      </trkpt>
      <trkpt lat="45.04877" lon="5.83403">
        <ele>376.920354</ele>
        <time>2026-08-29T07:40:37.000Z</time>
      </trkpt>
      <trkpt lat="45.04875" lon="5.83403">
        <ele>377.025206</ele>
        <time>2026-08-29T07:40:38.000Z</time>
      </trkpt>
      <trkpt lat="45.04873" lon="5.83403">
        <ele>377.110187</ele>
        <time>2026-08-29T07:40:39.000Z</time>
      </trkpt>
      <trkpt lat="45.04872" lon="5.83403">
        <ele>377.165099</ele>
        <time>2026-08-29T07:40:40.000Z</time>
      </trkpt>
      <trkpt lat="45.04872" lon="5.83402">
        <ele>377.183398</ele>
        <time>2026-08-29T07:40:41.000Z</time>
      </trkpt>
      <trkpt lat="45.04873" lon="5.83403">
        <ele>377.210452</ele>
        <time>2026-08-29T07:40:42.000Z</time>
      </trkpt>
      <trkpt lat="45.04873" lon="5.83403">
        <ele>377.242128</ele>
        <time>2026-08-29T07:40:43.000Z</time>
      </trkpt>
      <trkpt lat="45.04873" lon="5.83404">
        <ele>377.250752</ele>
        <time>2026-08-29T07:40:44.000Z</time>
      </trkpt>
      <trkpt lat="45.04877" lon="5.83403">
        <ele>377.490107</ele>
        <time>2026-08-29T07:43:27.000Z</time>
      </trkpt>
      <trkpt lat="45.04879" lon="5.834">
        <ele>377.645458</ele>
        <time>2026-08-29T07:43:28.000Z</time>
      </trkpt>
      <trkpt lat="45.04881" lon="5.83397">
        <ele>377.783436</ele>
        <time>2026-08-29T07:43:29.000Z</time>
      </trkpt>
      <trkpt lat="45.04882" lon="5.83393">
        <ele>377.921484</ele>
        <time>2026-08-29T07:43:30.000Z</time>
      </trkpt>
      <trkpt lat="45.04883" lon="5.83389">
        <ele>378.079328</ele>
        <time>2026-08-29T07:43:31.000Z</time>
      </trkpt>
      <trkpt lat="45.04884" lon="5.83385">
        <ele>378.209512</ele>
        <time>2026-08-29T07:43:32.000Z</time>
      </trkpt>
      <trkpt lat="45.04885" lon="5.83382">
        <ele>378.32178</ele>
        <time>2026-08-29T07:43:33.000Z</time>
      </trkpt>
      <trkpt lat="45.04885" lon="5.83379">
        <ele>378.445067</ele>
        <time>2026-08-29T07:43:34.000Z</time>
      </trkpt>
      <trkpt lat="45.04885" lon="5.83375">
        <ele>378.57265</ele>
        <time>2026-08-29T07:43:35.000Z</time>
      </trkpt>
      <trkpt lat="45.04884" lon="5.83372">
        <ele>378.683562</ele>
        <time>2026-08-29T07:43:36.000Z</time>
      </trkpt>
      <trkpt lat="45.04883" lon="5.8337">
        <ele>378.781629</ele>
        <time>2026-08-29T07:43:37.000Z</time>
      </trkpt>
      <trkpt lat="45.04882" lon="5.83367">
        <ele>378.900589</ele>
        <time>2026-08-29T07:43:38.000Z</time>
      </trkpt>
      <trkpt lat="45.04881" lon="5.83365">
        <ele>378.992941</ele>
        <time>2026-08-29T07:43:39.000Z</time>
      </trkpt>
      <trkpt lat="45.0488" lon="5.83362">
        <ele>379.091695</ele>
        <time>2026-08-29T07:43:40.000Z</time>
      </trkpt>
      <trkpt lat="45.04879" lon="5.83358">
        <ele>379.259982</ele>
        <time>2026-08-29T07:43:41.000Z</time>
      </trkpt>
      <trkpt lat="45.04878" lon="5.83355">
        <ele>379.468992</ele>
        <time>2026-08-29T07:43:42.000Z</time>
      </trkpt>
      <trkpt lat="45.04877" lon="5.83351">
        <ele>379.705691</ele>
        <time>2026-08-29T07:43:43.000Z</time>
      </trkpt>
      <trkpt lat="45.04876" lon="5.83346">
        <ele>379.986916</ele>
        <time>2026-08-29T07:43:44.000Z</time>
      </trkpt>
      <trkpt lat="45.04876" lon="5.83343">
        <ele>380.194699</ele>
        <time>2026-08-29T07:43:45.000Z</time>
      </trkpt>
      <trkpt lat="45.04875" lon="5.83339">
        <ele>380.407172</ele>
        <time>2026-08-29T07:43:46.000Z</time>
      </trkpt>
      <trkpt lat="45.04873" lon="5.83337">
        <ele>380.567521</ele>
        <time>2026-08-29T07:43:47.000Z</time>
      </trkpt>
      <trkpt lat="45.04873" lon="5.83334">
        <ele>380.749326</ele>
        <time>2026-08-29T07:43:48.000Z</time>
      </trkpt>
      <trkpt lat="45.04872" lon="5.83331">
        <ele>380.918131</ele>
        <time>2026-08-29T07:43:49.000Z</time>
      </trkpt>
      <trkpt lat="45.04871" lon="5.83329">
        <ele>381.069054</ele>
        <time>2026-08-29T07:43:50.000Z</time>
      </trkpt>
      <trkpt lat="45.04871" lon="5.83326">
        <ele>381.271638</ele>
        <time>2026-08-29T07:43:51.000Z</time>
      </trkpt>
      <trkpt lat="45.04871" lon="5.83323">
        <ele>381.448441</ele>
        <time>2026-08-29T07:43:52.000Z</time>
      </trkpt>
      <trkpt lat="45.0487" lon="5.83319">
        <ele>381.669424</ele>
        <time>2026-08-29T07:43:53.000Z</time>
      </trkpt>
      <trkpt lat="45.04869" lon="5.83315">
        <ele>381.905338</ele>
        <time>2026-08-29T07:43:54.000Z</time>
      </trkpt>
      <trkpt lat="45.04869" lon="5.83311">
        <ele>382.162448</ele>
        <time>2026-08-29T07:43:55.000Z</time>
      </trkpt>
      <trkpt lat="45.04868" lon="5.83306">
        <ele>382.435563</ele>
        <time>2026-08-29T07:43:56.000Z</time>
      </trkpt>
      <trkpt lat="45.04868" lon="5.83301">
        <ele>382.701398</ele>
        <time>2026-08-29T07:43:57.000Z</time>
      </trkpt>
      <trkpt lat="45.04867" lon="5.83298">
        <ele>382.897987</ele>
        <time>2026-08-29T07:43:58.000Z</time>
      </trkpt>
      <trkpt lat="45.04866" lon="5.83295">
        <ele>383.094576</ele>
        <time>2026-08-29T07:43:59.000Z</time>
      </trkpt>
      <trkpt lat="45.04866" lon="5.83291">
        <ele>383.334613</ele>
        <time>2026-08-29T07:44:00.000Z</time>
      </trkpt>
      <trkpt lat="45.04865" lon="5.83288">
        <ele>383.508862</ele>
        <time>2026-08-29T07:44:01.000Z</time>
      </trkpt>
      <trkpt lat="45.04864" lon="5.83285">
        <ele>383.702125</ele>
        <time>2026-08-29T07:44:02.000Z</time>
      </trkpt>
      <trkpt lat="45.04863" lon="5.83282">
        <ele>383.893499</ele>
        <time>2026-08-29T07:44:03.000Z</time>
      </trkpt>
      <trkpt lat="45.04863" lon="5.83279">
        <ele>384.067748</ele>
        <time>2026-08-29T07:44:04.000Z</time>
      </trkpt>
      <trkpt lat="45.04862" lon="5.83276">
        <ele>384.245576</ele>
        <time>2026-08-29T07:44:05.000Z</time>
      </trkpt>
      <trkpt lat="45.04861" lon="5.83273">
        <ele>384.454587</ele>
        <time>2026-08-29T07:44:06.000Z</time>
      </trkpt>
      <trkpt lat="45.0486" lon="5.83269">
        <ele>384.692989</ele>
        <time>2026-08-29T07:44:07.000Z</time>
      </trkpt>
      <trkpt lat="45.04859" lon="5.83265">
        <ele>384.900772</ele>
        <time>2026-08-29T07:44:08.000Z</time>
      </trkpt>
      <trkpt lat="45.04858" lon="5.83261">
        <ele>385.142333</ele>
        <time>2026-08-29T07:44:09.000Z</time>
      </trkpt>
      <trkpt lat="45.04858" lon="5.83258">
        <ele>385.346411</ele>
        <time>2026-08-29T07:44:10.000Z</time>
      </trkpt>
      <trkpt lat="45.04857" lon="5.83255">
        <ele>385.523883</ele>
        <time>2026-08-29T07:44:11.000Z</time>
      </trkpt>
      <trkpt lat="45.04856" lon="5.83252">
        <ele>385.72402</ele>
        <time>2026-08-29T07:44:12.000Z</time>
      </trkpt>
      <trkpt lat="45.04855" lon="5.83249">
        <ele>385.920628</ele>
        <time>2026-08-29T07:44:13.000Z</time>
      </trkpt>
      <trkpt lat="45.04854" lon="5.83246">
        <ele>386.081151</ele>
        <time>2026-08-29T07:44:14.000Z</time>
      </trkpt>
      <trkpt lat="45.04853" lon="5.83244">
        <ele>386.2554</ele>
        <time>2026-08-29T07:44:15.000Z</time>
      </trkpt>
      <trkpt lat="45.04852" lon="5.83241">
        <ele>386.444</ele>
        <time>2026-08-29T07:44:16.000Z</time>
      </trkpt>
      <trkpt lat="45.04851" lon="5.83238">
        <ele>386.639834</ele>
        <time>2026-08-29T07:44:17.000Z</time>
      </trkpt>
      <trkpt lat="45.0485" lon="5.83235">
        <ele>386.852795</ele>
        <time>2026-08-29T07:44:18.000Z</time>
      </trkpt>
      <trkpt lat="45.04848" lon="5.83232">
        <ele>387.041395</ele>
        <time>2026-08-29T07:44:19.000Z</time>
      </trkpt>
      <trkpt lat="45.04847" lon="5.83229">
        <ele>387.220567</ele>
        <time>2026-08-29T07:44:20.000Z</time>
      </trkpt>
      <trkpt lat="45.04846" lon="5.83227">
        <ele>387.399654</ele>
        <time>2026-08-29T07:44:21.000Z</time>
      </trkpt>
      <trkpt lat="45.04844" lon="5.83224">
        <ele>387.583419</ele>
        <time>2026-08-29T07:44:22.000Z</time>
      </trkpt>
      <trkpt lat="45.04843" lon="5.83222">
        <ele>387.773794</ele>
        <time>2026-08-29T07:44:23.000Z</time>
      </trkpt>
      <trkpt lat="45.04841" lon="5.8322">
        <ele>387.942071</ele>
        <time>2026-08-29T07:44:24.000Z</time>
      </trkpt>
      <trkpt lat="45.0484" lon="5.83218">
        <ele>388.11846</ele>
        <time>2026-08-29T07:44:25.000Z</time>
      </trkpt>
      <trkpt lat="45.04838" lon="5.83216">
        <ele>388.29485</ele>
        <time>2026-08-29T07:44:26.000Z</time>
      </trkpt>
      <trkpt lat="45.04837" lon="5.83213">
        <ele>388.499231</ele>
        <time>2026-08-29T07:44:27.000Z</time>
      </trkpt>
      <trkpt lat="45.04835" lon="5.8321">
        <ele>388.698155</ele>
        <time>2026-08-29T07:44:28.000Z</time>
      </trkpt>
      <trkpt lat="45.04833" lon="5.83208">
        <ele>388.887381</ele>
        <time>2026-08-29T07:44:29.000Z</time>
      </trkpt>
      <trkpt lat="45.04832" lon="5.83206">
        <ele>389.057928</ele>
        <time>2026-08-29T07:44:30.000Z</time>
      </trkpt>
      <trkpt lat="45.0483" lon="5.83205">
        <ele>389.2549</ele>
        <time>2026-08-29T07:44:31.000Z</time>
      </trkpt>
      <trkpt lat="45.04828" lon="5.83203">
        <ele>389.444453</ele>
        <time>2026-08-29T07:44:32.000Z</time>
      </trkpt>
      <trkpt lat="45.04826" lon="5.83202">
        <ele>389.618021</ele>
        <time>2026-08-29T07:44:33.000Z</time>
      </trkpt>
      <trkpt lat="45.04824" lon="5.832">
        <ele>389.8227</ele>
        <time>2026-08-29T07:44:34.000Z</time>
      </trkpt>
      <trkpt lat="45.04821" lon="5.83198">
        <ele>390.032665</ele>
        <time>2026-08-29T07:44:35.000Z</time>
      </trkpt>
      <trkpt lat="45.0482" lon="5.83196">
        <ele>390.213201</ele>
        <time>2026-08-29T07:44:36.000Z</time>
      </trkpt>
      <trkpt lat="45.04817" lon="5.83195">
        <ele>390.402754</ele>
        <time>2026-08-29T07:44:37.000Z</time>
      </trkpt>
      <trkpt lat="45.04815" lon="5.83193">
        <ele>390.596292</ele>
        <time>2026-08-29T07:44:38.000Z</time>
      </trkpt>
      <trkpt lat="45.04813" lon="5.83191">
        <ele>390.788375</ele>
        <time>2026-08-29T07:44:39.000Z</time>
      </trkpt>
      <trkpt lat="45.04811" lon="5.8319">
        <ele>390.992822</ele>
        <time>2026-08-29T07:44:40.000Z</time>
      </trkpt>
      <trkpt lat="45.04809" lon="5.83189">
        <ele>391.182376</ele>
        <time>2026-08-29T07:44:41.000Z</time>
      </trkpt>
      <trkpt lat="45.04807" lon="5.83187">
        <ele>391.37193</ele>
        <time>2026-08-29T07:44:42.000Z</time>
      </trkpt>
      <trkpt lat="45.04805" lon="5.83186">
        <ele>391.573907</ele>
        <time>2026-08-29T07:44:43.000Z</time>
      </trkpt>
      <trkpt lat="45.04803" lon="5.83184">
        <ele>391.768658</ele>
        <time>2026-08-29T07:44:44.000Z</time>
      </trkpt>
      <trkpt lat="45.048" lon="5.83183">
        <ele>391.976508</ele>
        <time>2026-08-29T07:44:45.000Z</time>
      </trkpt>
      <trkpt lat="45.04798" lon="5.83181">
        <ele>392.157044</ele>
        <time>2026-08-29T07:44:46.000Z</time>
      </trkpt>
      <trkpt lat="45.04796" lon="5.8318">
        <ele>392.351721</ele>
        <time>2026-08-29T07:44:47.000Z</time>
      </trkpt>
      <trkpt lat="45.04794" lon="5.83178">
        <ele>392.546472</ele>
        <time>2026-08-29T07:44:48.000Z</time>
      </trkpt>
      <trkpt lat="45.04792" lon="5.83177">
        <ele>392.731301</ele>
        <time>2026-08-29T07:44:49.000Z</time>
      </trkpt>
      <trkpt lat="45.0479" lon="5.83175">
        <ele>392.940575</ele>
        <time>2026-08-29T07:44:50.000Z</time>
      </trkpt>
      <trkpt lat="45.04787" lon="5.83174">
        <ele>393.139983</ele>
        <time>2026-08-29T07:44:51.000Z</time>
      </trkpt>
      <trkpt lat="45.04785" lon="5.83172">
        <ele>393.322182</ele>
        <time>2026-08-29T07:44:52.000Z</time>
      </trkpt>
      <trkpt lat="45.04783" lon="5.83171">
        <ele>393.505032</ele>
        <time>2026-08-29T07:44:53.000Z</time>
      </trkpt>
      <trkpt lat="45.04781" lon="5.8317">
        <ele>393.684749</ele>
        <time>2026-08-29T07:44:54.000Z</time>
      </trkpt>
      <trkpt lat="45.04779" lon="5.83169">
        <ele>393.873435</ele>
        <time>2026-08-29T07:44:55.000Z</time>
      </trkpt>
      <trkpt lat="45.04777" lon="5.83168">
        <ele>394.080702</ele>
        <time>2026-08-29T07:44:56.000Z</time>
      </trkpt>
      <trkpt lat="45.04775" lon="5.83167">
        <ele>394.268363</ele>
        <time>2026-08-29T07:44:57.000Z</time>
      </trkpt>
      <trkpt lat="45.04773" lon="5.83166">
        <ele>394.457915</ele>
        <time>2026-08-29T07:44:58.000Z</time>
      </trkpt>
      <trkpt lat="45.0477" lon="5.83165">
        <ele>394.662522</ele>
        <time>2026-08-29T07:44:59.000Z</time>
      </trkpt>
      <trkpt lat="45.04768" lon="5.83164">
        <ele>394.885371</ele>
        <time>2026-08-29T07:45:00.000Z</time>
      </trkpt>
      <trkpt lat="45.04766" lon="5.83163">
        <ele>395.103305</ele>
        <time>2026-08-29T07:45:01.000Z</time>
      </trkpt>
      <trkpt lat="45.04763" lon="5.83162">
        <ele>395.319436</ele>
        <time>2026-08-29T07:45:02.000Z</time>
      </trkpt>
      <trkpt lat="45.04761" lon="5.83161">
        <ele>395.515664</ele>
        <time>2026-08-29T07:45:03.000Z</time>
      </trkpt>
      <trkpt lat="45.04759" lon="5.8316">
        <ele>395.718901</ele>
        <time>2026-08-29T07:45:04.000Z</time>
      </trkpt>
      <trkpt lat="45.04756" lon="5.8316">
        <ele>395.919926</ele>
        <time>2026-08-29T07:45:05.000Z</time>
      </trkpt>
      <trkpt lat="45.04754" lon="5.8316">
        <ele>396.118996</ele>
        <time>2026-08-29T07:45:06.000Z</time>
      </trkpt>
      <trkpt lat="45.04752" lon="5.8316">
        <ele>396.309052</ele>
        <time>2026-08-29T07:45:07.000Z</time>
      </trkpt>
      <trkpt lat="45.04749" lon="5.8316">
        <ele>396.5258</ele>
        <time>2026-08-29T07:45:08.000Z</time>
      </trkpt>
      <trkpt lat="45.04747" lon="5.83161">
        <ele>396.735368</ele>
        <time>2026-08-29T07:45:09.000Z</time>
      </trkpt>
      <trkpt lat="45.04745" lon="5.83161">
        <ele>396.936393</ele>
        <time>2026-08-29T07:45:10.000Z</time>
      </trkpt>
      <trkpt lat="45.04742" lon="5.83162">
        <ele>397.155449</ele>
        <time>2026-08-29T07:45:11.000Z</time>
      </trkpt>
      <trkpt lat="45.0474" lon="5.83163">
        <ele>397.38668</ele>
        <time>2026-08-29T07:45:12.000Z</time>
      </trkpt>
      <trkpt lat="45.04737" lon="5.83163">
        <ele>397.59837</ele>
        <time>2026-08-29T07:45:13.000Z</time>
      </trkpt>
      <trkpt lat="45.04735" lon="5.83164">
        <ele>397.816489</ele>
        <time>2026-08-29T07:45:14.000Z</time>
      </trkpt>
      <trkpt lat="45.04732" lon="5.83163">
        <ele>398.034607</ele>
        <time>2026-08-29T07:45:15.000Z</time>
      </trkpt>
      <trkpt lat="45.0473" lon="5.83164">
        <ele>398.244175</ele>
        <time>2026-08-29T07:45:16.000Z</time>
      </trkpt>
      <trkpt lat="45.04727" lon="5.83164">
        <ele>398.460235</ele>
        <time>2026-08-29T07:45:17.000Z</time>
      </trkpt>
      <trkpt lat="45.04725" lon="5.83164">
        <ele>398.652725</ele>
        <time>2026-08-29T07:45:18.000Z</time>
      </trkpt>
      <trkpt lat="45.04723" lon="5.83165">
        <ele>398.846278</ele>
        <time>2026-08-29T07:45:19.000Z</time>
      </trkpt>
      <trkpt lat="45.0472" lon="5.83166">
        <ele>399.056821</ele>
        <time>2026-08-29T07:45:20.000Z</time>
      </trkpt>
      <trkpt lat="45.04718" lon="5.83166">
        <ele>399.264155</ele>
        <time>2026-08-29T07:45:21.000Z</time>
      </trkpt>
      <trkpt lat="45.04716" lon="5.83166">
        <ele>399.487005</ele>
        <time>2026-08-29T07:45:22.000Z</time>
      </trkpt>
      <trkpt lat="45.04713" lon="5.83167">
        <ele>399.679495</ele>
        <time>2026-08-29T07:45:23.000Z</time>
      </trkpt>
      <trkpt lat="45.04711" lon="5.83167">
        <ele>399.869943</ele>
        <time>2026-08-29T07:45:24.000Z</time>
      </trkpt>
      <trkpt lat="45.04709" lon="5.83167">
        <ele>400.068638</ele>
        <time>2026-08-29T07:45:25.000Z</time>
      </trkpt>
      <trkpt lat="45.04707" lon="5.83167">
        <ele>400.259086</ele>
        <time>2026-08-29T07:45:26.000Z</time>
      </trkpt>
      <trkpt lat="45.04704" lon="5.83168">
        <ele>400.458156</ele>
        <time>2026-08-29T07:45:27.000Z</time>
      </trkpt>
      <trkpt lat="45.04702" lon="5.83168">
        <ele>400.66558</ele>
        <time>2026-08-29T07:45:28.000Z</time>
      </trkpt>
      <trkpt lat="45.04699" lon="5.83168">
        <ele>400.890274</ele>
        <time>2026-08-29T07:45:29.000Z</time>
      </trkpt>
      <trkpt lat="45.04697" lon="5.83168">
        <ele>401.106334</ele>
        <time>2026-08-29T07:45:30.000Z</time>
      </trkpt>
      <trkpt lat="45.04695" lon="5.83168">
        <ele>401.305029</ele>
        <time>2026-08-29T07:45:31.000Z</time>
      </trkpt>
      <trkpt lat="45.04692" lon="5.83168">
        <ele>401.504566</ele>
        <time>2026-08-29T07:45:32.000Z</time>
      </trkpt>
      <trkpt lat="45.0469" lon="5.83167">
        <ele>401.685866</ele>
        <time>2026-08-29T07:45:33.000Z</time>
      </trkpt>
      <trkpt lat="45.04688" lon="5.83164">
        <ele>401.925681</ele>
        <time>2026-08-29T07:45:34.000Z</time>
      </trkpt>
      <trkpt lat="45.04686" lon="5.83163">
        <ele>402.142217</ele>
        <time>2026-08-29T07:45:35.000Z</time>
      </trkpt>
      <trkpt lat="45.04684" lon="5.83161">
        <ele>402.330164</ele>
        <time>2026-08-29T07:45:36.000Z</time>
      </trkpt>
      <trkpt lat="45.04682" lon="5.8316">
        <ele>402.500076</ele>
        <time>2026-08-29T07:45:37.000Z</time>
      </trkpt>
      <trkpt lat="45.0468" lon="5.83158">
        <ele>402.701594</ele>
        <time>2026-08-29T07:45:38.000Z</time>
      </trkpt>
      <trkpt lat="45.04679" lon="5.83156">
        <ele>402.86303</ele>
        <time>2026-08-29T07:45:39.000Z</time>
      </trkpt>
      <trkpt lat="45.04678" lon="5.83154">
        <ele>403.023182</ele>
        <time>2026-08-29T07:45:40.000Z</time>
      </trkpt>
      <trkpt lat="45.04677" lon="5.83151">
        <ele>403.218727</ele>
        <time>2026-08-29T07:45:41.000Z</time>
      </trkpt>
      <trkpt lat="45.04676" lon="5.83148">
        <ele>403.437457</ele>
        <time>2026-08-29T07:45:42.000Z</time>
      </trkpt>
      <trkpt lat="45.04676" lon="5.83145">
        <ele>403.617804</ele>
        <time>2026-08-29T07:45:43.000Z</time>
      </trkpt>
      <trkpt lat="45.04675" lon="5.83142">
        <ele>403.782829</ele>
        <time>2026-08-29T07:45:44.000Z</time>
      </trkpt>
      <trkpt lat="45.04676" lon="5.83139">
        <ele>403.951211</ele>
        <time>2026-08-29T07:45:45.000Z</time>
      </trkpt>
      <trkpt lat="45.04676" lon="5.83137">
        <ele>404.116913</ele>
        <time>2026-08-29T07:45:46.000Z</time>
      </trkpt>
      <trkpt lat="45.04675" lon="5.83134">
        <ele>404.318353</ele>
        <time>2026-08-29T07:45:47.000Z</time>
      </trkpt>
      <trkpt lat="45.04674" lon="5.83131">
        <ele>404.514071</ele>
        <time>2026-08-29T07:45:48.000Z</time>
      </trkpt>
      <trkpt lat="45.04674" lon="5.83128">
        <ele>404.713003</ele>
        <time>2026-08-29T07:45:49.000Z</time>
      </trkpt>
      <trkpt lat="45.04673" lon="5.83124">
        <ele>404.937532</ele>
        <time>2026-08-29T07:45:50.000Z</time>
      </trkpt>
      <trkpt lat="45.04672" lon="5.83121">
        <ele>405.171342</ele>
        <time>2026-08-29T07:45:51.000Z</time>
      </trkpt>
      <trkpt lat="45.04671" lon="5.83117">
        <ele>405.375706</ele>
        <time>2026-08-29T07:45:52.000Z</time>
      </trkpt>
      <trkpt lat="45.0467" lon="5.83114">
        <ele>405.592913</ele>
        <time>2026-08-29T07:45:53.000Z</time>
      </trkpt>
      <trkpt lat="45.04669" lon="5.83111">
        <ele>405.805861</ele>
        <time>2026-08-29T07:45:54.000Z</time>
      </trkpt>
      <trkpt lat="45.04669" lon="5.83107">
        <ele>406.022016</ele>
        <time>2026-08-29T07:45:55.000Z</time>
      </trkpt>
      <trkpt lat="45.04668" lon="5.83104">
        <ele>406.228316</ele>
        <time>2026-08-29T07:45:56.000Z</time>
      </trkpt>
      <trkpt lat="45.04666" lon="5.83101">
        <ele>406.437944</ele>
        <time>2026-08-29T07:45:57.000Z</time>
      </trkpt>
      <trkpt lat="45.04665" lon="5.83099">
        <ele>406.634906</ele>
        <time>2026-08-29T07:45:58.000Z</time>
      </trkpt>
      <trkpt lat="45.04664" lon="5.83095">
        <ele>406.852114</ele>
        <time>2026-08-29T07:45:59.000Z</time>
      </trkpt>
      <trkpt lat="45.04663" lon="5.83092">
        <ele>407.051047</ele>
        <time>2026-08-29T07:46:00.000Z</time>
      </trkpt>
      <trkpt lat="45.04663" lon="5.83089">
        <ele>407.235486</ele>
        <time>2026-08-29T07:46:01.000Z</time>
      </trkpt>
      <trkpt lat="45.04662" lon="5.83086">
        <ele>407.441786</ele>
        <time>2026-08-29T07:46:02.000Z</time>
      </trkpt>
      <trkpt lat="45.04661" lon="5.83083">
        <ele>407.655356</ele>
        <time>2026-08-29T07:46:03.000Z</time>
      </trkpt>
      <trkpt lat="45.0466" lon="5.8308">
        <ele>407.874521</ele>
        <time>2026-08-29T07:46:04.000Z</time>
      </trkpt>
      <trkpt lat="45.04659" lon="5.83077">
        <ele>408.062657</ele>
        <time>2026-08-29T07:46:05.000Z</time>
      </trkpt>
      <trkpt lat="45.04658" lon="5.83074">
        <ele>408.248726</ele>
        <time>2026-08-29T07:46:06.000Z</time>
      </trkpt>
      <trkpt lat="45.04657" lon="5.83071">
        <ele>408.438746</ele>
        <time>2026-08-29T07:46:07.000Z</time>
      </trkpt>
      <trkpt lat="45.04657" lon="5.83068">
        <ele>408.63109</ele>
        <time>2026-08-29T07:46:08.000Z</time>
      </trkpt>
      <trkpt lat="45.04657" lon="5.83065">
        <ele>408.821091</ele>
        <time>2026-08-29T07:46:09.000Z</time>
      </trkpt>
      <trkpt lat="45.04656" lon="5.83062">
        <ele>409.036286</ele>
        <time>2026-08-29T07:46:10.000Z</time>
      </trkpt>
      <trkpt lat="45.04656" lon="5.83059">
        <ele>409.201311</ele>
        <time>2026-08-29T07:46:11.000Z</time>
      </trkpt>
      <trkpt lat="45.04656" lon="5.83056">
        <ele>409.378528</ele>
        <time>2026-08-29T07:46:12.000Z</time>
      </trkpt>
      <trkpt lat="45.04657" lon="5.83052">
        <ele>409.607216</ele>
        <time>2026-08-29T07:46:13.000Z</time>
      </trkpt>
      <trkpt lat="45.04658" lon="5.83049">
        <ele>409.837725</ele>
        <time>2026-08-29T07:46:14.000Z</time>
      </trkpt>
      <trkpt lat="45.04659" lon="5.83045">
        <ele>410.051774</ele>
        <time>2026-08-29T07:46:15.000Z</time>
      </trkpt>
      <trkpt lat="45.0466" lon="5.83041">
        <ele>410.290504</ele>
        <time>2026-08-29T07:46:16.000Z</time>
      </trkpt>
      <trkpt lat="45.0466" lon="5.83038">
        <ele>410.49442</ele>
        <time>2026-08-29T07:46:17.000Z</time>
      </trkpt>
      <trkpt lat="45.04661" lon="5.83035">
        <ele>410.682252</ele>
        <time>2026-08-29T07:46:18.000Z</time>
      </trkpt>
      <trkpt lat="45.04661" lon="5.83032">
        <ele>410.848475</ele>
        <time>2026-08-29T07:46:19.000Z</time>
      </trkpt>
      <trkpt lat="45.04661" lon="5.83029">
        <ele>411.019018</ele>
        <time>2026-08-29T07:46:20.000Z</time>
      </trkpt>
      <trkpt lat="45.04662" lon="5.83025">
        <ele>411.240284</ele>
        <time>2026-08-29T07:46:21.000Z</time>
      </trkpt>
      <trkpt lat="45.04662" lon="5.83022">
        <ele>411.426667</ele>
        <time>2026-08-29T07:46:22.000Z</time>
      </trkpt>
      <trkpt lat="45.04662" lon="5.83019">
        <ele>411.61305</ele>
        <time>2026-08-29T07:46:23.000Z</time>
      </trkpt>
      <trkpt lat="45.04661" lon="5.83015">
        <ele>411.823172</ele>
        <time>2026-08-29T07:46:24.000Z</time>
      </trkpt>
      <trkpt lat="45.04661" lon="5.83012">
        <ele>412.036656</ele>
        <time>2026-08-29T07:46:25.000Z</time>
      </trkpt>
      <trkpt lat="45.04661" lon="5.83008">
        <ele>412.228852</ele>
        <time>2026-08-29T07:46:26.000Z</time>
      </trkpt>
      <trkpt lat="45.04661" lon="5.83005">
        <ele>412.42669</ele>
        <time>2026-08-29T07:46:27.000Z</time>
      </trkpt>
      <trkpt lat="45.04661" lon="5.83001">
        <ele>412.625213</ele>
        <time>2026-08-29T07:46:28.000Z</time>
      </trkpt>
      <trkpt lat="45.0466" lon="5.82998">
        <ele>412.811595</ele>
        <time>2026-08-29T07:46:29.000Z</time>
      </trkpt>
      <trkpt lat="45.0466" lon="5.82995">
        <ele>412.999428</ele>
        <time>2026-08-29T07:46:30.000Z</time>
      </trkpt>
      <trkpt lat="45.0466" lon="5.82992">
        <ele>413.203251</ele>
        <time>2026-08-29T07:46:31.000Z</time>
      </trkpt>
      <trkpt lat="45.0466" lon="5.82988">
        <ele>413.419174</ele>
        <time>2026-08-29T07:46:32.000Z</time>
      </trkpt>
      <trkpt lat="45.0466" lon="5.82984">
        <ele>413.635882</ele>
        <time>2026-08-29T07:46:33.000Z</time>
      </trkpt>
      <trkpt lat="45.0466" lon="5.8298">
        <ele>413.862814</ele>
        <time>2026-08-29T07:46:34.000Z</time>
      </trkpt>
      <trkpt lat="45.04659" lon="5.82977">
        <ele>414.080614</ele>
        <time>2026-08-29T07:46:35.000Z</time>
      </trkpt>
      <trkpt lat="45.04659" lon="5.82973">
        <ele>414.303103</ele>
        <time>2026-08-29T07:46:36.000Z</time>
      </trkpt>
      <trkpt lat="45.04659" lon="5.82969">
        <ele>414.518555</ele>
        <time>2026-08-29T07:46:37.000Z</time>
      </trkpt>
      <trkpt lat="45.04659" lon="5.82965">
        <ele>414.728192</ele>
        <time>2026-08-29T07:46:38.000Z</time>
      </trkpt>
      <trkpt lat="45.04659" lon="5.82962">
        <ele>414.944116</ele>
        <time>2026-08-29T07:46:39.000Z</time>
      </trkpt>
      <trkpt lat="45.04659" lon="5.82958">
        <ele>415.171197</ele>
        <time>2026-08-29T07:46:40.000Z</time>
      </trkpt>
      <trkpt lat="45.04659" lon="5.82954">
        <ele>415.374854</ele>
        <time>2026-08-29T07:46:41.000Z</time>
      </trkpt>
      <trkpt lat="45.04659" lon="5.82951">
        <ele>415.561782</ele>
        <time>2026-08-29T07:46:42.000Z</time>
      </trkpt>
      <trkpt lat="45.04659" lon="5.82948">
        <ele>415.760304</ele>
        <time>2026-08-29T07:46:43.000Z</time>
      </trkpt>
      <trkpt lat="45.04659" lon="5.82944">
        <ele>415.964626</ele>
        <time>2026-08-29T07:46:44.000Z</time>
      </trkpt>
      <trkpt lat="45.0466" lon="5.8294">
        <ele>416.199697</ele>
        <time>2026-08-29T07:46:45.000Z</time>
      </trkpt>
      <trkpt lat="45.0466" lon="5.82937">
        <ele>416.418894</ele>
        <time>2026-08-29T07:46:46.000Z</time>
      </trkpt>
      <trkpt lat="45.04661" lon="5.82933">
        <ele>416.62496</ele>
        <time>2026-08-29T07:46:47.000Z</time>
      </trkpt>
      <trkpt lat="45.04662" lon="5.82929">
        <ele>416.861263</ele>
        <time>2026-08-29T07:46:48.000Z</time>
      </trkpt>
      <trkpt lat="45.04662" lon="5.82927">
        <ele>417.031625</ele>
        <time>2026-08-29T07:46:49.000Z</time>
      </trkpt>
      <trkpt lat="45.04663" lon="5.82924">
        <ele>417.193751</ele>
        <time>2026-08-29T07:46:50.000Z</time>
      </trkpt>
      <trkpt lat="45.04664" lon="5.82921">
        <ele>417.359974</ele>
        <time>2026-08-29T07:46:51.000Z</time>
      </trkpt>
      <trkpt lat="45.04664" lon="5.82918">
        <ele>417.538294</ele>
        <time>2026-08-29T07:46:52.000Z</time>
      </trkpt>
      <trkpt lat="45.04665" lon="5.82915">
        <ele>417.738705</ele>
        <time>2026-08-29T07:46:53.000Z</time>
      </trkpt>
      <trkpt lat="45.04666" lon="5.82912">
        <ele>417.966401</ele>
        <time>2026-08-29T07:46:54.000Z</time>
      </trkpt>
      <trkpt lat="45.04667" lon="5.82908">
        <ele>418.177668</ele>
        <time>2026-08-29T07:46:55.000Z</time>
      </trkpt>
      <trkpt lat="45.04668" lon="5.82906">
        <ele>418.30754</ele>
        <time>2026-08-29T07:46:56.000Z</time>
      </trkpt>
      <trkpt lat="45.04668" lon="5.82904">
        <ele>418.435817</ele>
        <time>2026-08-29T07:46:57.000Z</time>
      </trkpt>
      <trkpt lat="45.04669" lon="5.829">
        <ele>418.658696</ele>
        <time>2026-08-29T07:46:58.000Z</time>
      </trkpt>
      <trkpt lat="45.04669" lon="5.82897">
        <ele>418.860774</ele>
        <time>2026-08-29T07:46:59.000Z</time>
      </trkpt>
      <trkpt lat="45.04669" lon="5.82894">
        <ele>419.037076</ele>
        <time>2026-08-29T07:47:00.000Z</time>
      </trkpt>
      <trkpt lat="45.0467" lon="5.8289">
        <ele>419.246642</ele>
        <time>2026-08-29T07:47:01.000Z</time>
      </trkpt>
      <trkpt lat="45.04671" lon="5.82887">
        <ele>419.473209</ele>
        <time>2026-08-29T07:47:02.000Z</time>
      </trkpt>
      <trkpt lat="45.04671" lon="5.82883">
        <ele>419.672583</ele>
        <time>2026-08-29T07:47:03.000Z</time>
      </trkpt>
      <trkpt lat="45.04671" lon="5.8288">
        <ele>419.882058</ele>
        <time>2026-08-29T07:47:04.000Z</time>
      </trkpt>
      <trkpt lat="45.04671" lon="5.82876">
        <ele>420.099858</ele>
        <time>2026-08-29T07:47:05.000Z</time>
      </trkpt>
      <trkpt lat="45.04671" lon="5.82873">
        <ele>420.292053</ele>
        <time>2026-08-29T07:47:06.000Z</time>
      </trkpt>
      <trkpt lat="45.04671" lon="5.82869">
        <ele>420.479886</ele>
        <time>2026-08-29T07:47:07.000Z</time>
      </trkpt>
      <trkpt lat="45.04671" lon="5.82866">
        <ele>420.689361</ele>
        <time>2026-08-29T07:47:08.000Z</time>
      </trkpt>
      <trkpt lat="45.04671" lon="5.82862">
        <ele>420.89451</ele>
        <time>2026-08-29T07:47:09.000Z</time>
      </trkpt>
      <trkpt lat="45.0467" lon="5.82859">
        <ele>421.111774</ele>
        <time>2026-08-29T07:47:10.000Z</time>
      </trkpt>
      <trkpt lat="45.04669" lon="5.82855">
        <ele>421.31784</ele>
        <time>2026-08-29T07:47:11.000Z</time>
      </trkpt>
      <trkpt lat="45.04668" lon="5.82852">
        <ele>421.532135</ele>
        <time>2026-08-29T07:47:12.000Z</time>
      </trkpt>
      <trkpt lat="45.04668" lon="5.82848">
        <ele>421.770865</ele>
        <time>2026-08-29T07:47:13.000Z</time>
      </trkpt>
      <trkpt lat="45.04667" lon="5.82844">
        <ele>421.995948</ele>
        <time>2026-08-29T07:47:14.000Z</time>
      </trkpt>
      <trkpt lat="45.04665" lon="5.82841">
        <ele>422.222317</ele>
        <time>2026-08-29T07:47:15.000Z</time>
      </trkpt>
      <trkpt lat="45.04664" lon="5.82838">
        <ele>422.446294</ele>
        <time>2026-08-29T07:47:16.000Z</time>
      </trkpt>
      <trkpt lat="45.04663" lon="5.82834">
        <ele>422.649894</ele>
        <time>2026-08-29T07:47:17.000Z</time>
      </trkpt>
      <trkpt lat="45.04662" lon="5.82831">
        <ele>422.847407</ele>
        <time>2026-08-29T07:47:18.000Z</time>
      </trkpt>
      <trkpt lat="45.04661" lon="5.82828">
        <ele>423.05717</ele>
        <time>2026-08-29T07:47:19.000Z</time>
      </trkpt>
      <trkpt lat="45.0466" lon="5.82825">
        <ele>423.257013</ele>
        <time>2026-08-29T07:47:20.000Z</time>
      </trkpt>
      <trkpt lat="45.04658" lon="5.82822">
        <ele>423.45761</ele>
        <time>2026-08-29T07:47:21.000Z</time>
      </trkpt>
      <trkpt lat="45.04657" lon="5.82819">
        <ele>423.666741</ele>
        <time>2026-08-29T07:47:22.000Z</time>
      </trkpt>
      <trkpt lat="45.04656" lon="5.82816">
        <ele>423.853159</ele>
        <time>2026-08-29T07:47:23.000Z</time>
      </trkpt>
      <trkpt lat="45.04655" lon="5.82813">
        <ele>424.055012</ele>
        <time>2026-08-29T07:47:24.000Z</time>
      </trkpt>
      <trkpt lat="45.04654" lon="5.8281">
        <ele>424.252525</ele>
        <time>2026-08-29T07:47:25.000Z</time>
      </trkpt>
      <trkpt lat="45.04653" lon="5.82807">
        <ele>424.410555</ele>
        <time>2026-08-29T07:47:26.000Z</time>
      </trkpt>
      <trkpt lat="45.04653" lon="5.82804">
        <ele>424.574369</ele>
        <time>2026-08-29T07:47:27.000Z</time>
      </trkpt>
      <trkpt lat="45.04652" lon="5.82801">
        <ele>424.738183</ele>
        <time>2026-08-29T07:47:28.000Z</time>
      </trkpt>
      <trkpt lat="45.04652" lon="5.82797">
        <ele>424.927993</ele>
        <time>2026-08-29T07:47:29.000Z</time>
      </trkpt>
      <trkpt lat="45.04651" lon="5.82794">
        <ele>425.103662</ele>
        <time>2026-08-29T07:47:30.000Z</time>
      </trkpt>
      <trkpt lat="45.04651" lon="5.82791">
        <ele>425.267388</ele>
        <time>2026-08-29T07:47:31.000Z</time>
      </trkpt>
      <trkpt lat="45.04651" lon="5.82788">
        <ele>425.425546</ele>
        <time>2026-08-29T07:47:32.000Z</time>
      </trkpt>
      <trkpt lat="45.04651" lon="5.82785">
        <ele>425.578613</ele>
        <time>2026-08-29T07:47:33.000Z</time>
      </trkpt>
      <trkpt lat="45.04651" lon="5.82781">
        <ele>425.752495</ele>
        <time>2026-08-29T07:47:34.000Z</time>
      </trkpt>
      <trkpt lat="45.04651" lon="5.82778">
        <ele>425.922068</ele>
        <time>2026-08-29T07:47:35.000Z</time>
      </trkpt>
      <trkpt lat="45.04651" lon="5.82775">
        <ele>426.070044</ele>
        <time>2026-08-29T07:47:36.000Z</time>
      </trkpt>
      <trkpt lat="45.04651" lon="5.82772">
        <ele>426.234563</ele>
        <time>2026-08-29T07:47:37.000Z</time>
      </trkpt>
      <trkpt lat="45.0465" lon="5.82769">
        <ele>426.406573</ele>
        <time>2026-08-29T07:47:38.000Z</time>
      </trkpt>
      <trkpt lat="45.0465" lon="5.82766">
        <ele>426.552164</ele>
        <time>2026-08-29T07:47:39.000Z</time>
      </trkpt>
      <trkpt lat="45.04649" lon="5.82763">
        <ele>426.725846</ele>
        <time>2026-08-29T07:47:40.000Z</time>
      </trkpt>
      <trkpt lat="45.04647" lon="5.8276">
        <ele>426.892367</ele>
        <time>2026-08-29T07:47:41.000Z</time>
      </trkpt>
      <trkpt lat="45.04646" lon="5.82757">
        <ele>427.063125</ele>
        <time>2026-08-29T07:47:42.000Z</time>
      </trkpt>
      <trkpt lat="45.04644" lon="5.82755">
        <ele>427.236879</ele>
        <time>2026-08-29T07:47:43.000Z</time>
      </trkpt>
      <trkpt lat="45.04642" lon="5.82753">
        <ele>427.420183</ele>
        <time>2026-08-29T07:47:44.000Z</time>
      </trkpt>
      <trkpt lat="45.04639" lon="5.82752">
        <ele>427.607434</ele>
        <time>2026-08-29T07:47:45.000Z</time>
      </trkpt>
      <trkpt lat="45.04637" lon="5.82751">
        <ele>427.801786</ele>
        <time>2026-08-29T07:47:46.000Z</time>
      </trkpt>
      <trkpt lat="45.04634" lon="5.8275">
        <ele>427.978547</ele>
        <time>2026-08-29T07:47:47.000Z</time>
      </trkpt>
      <trkpt lat="45.04632" lon="5.8275">
        <ele>428.144535</ele>
        <time>2026-08-29T07:47:48.000Z</time>
      </trkpt>
      <trkpt lat="45.0463" lon="5.82751">
        <ele>428.328367</ele>
        <time>2026-08-29T07:47:49.000Z</time>
      </trkpt>
      <trkpt lat="45.04627" lon="5.82752">
        <ele>428.507463</ele>
        <time>2026-08-29T07:47:50.000Z</time>
      </trkpt>
      <trkpt lat="45.04625" lon="5.82753">
        <ele>428.677166</ele>
        <time>2026-08-29T07:47:51.000Z</time>
      </trkpt>
      <trkpt lat="45.04622" lon="5.82753">
        <ele>428.860998</ele>
        <time>2026-08-29T07:47:52.000Z</time>
      </trkpt>
      <trkpt lat="45.0462" lon="5.82754">
        <ele>429.051423</ele>
        <time>2026-08-29T07:47:53.000Z</time>
      </trkpt>
      <trkpt lat="45.04618" lon="5.82756">
        <ele>429.23629</ele>
        <time>2026-08-29T07:47:54.000Z</time>
      </trkpt>
      <trkpt lat="45.04615" lon="5.82758">
        <ele>429.425873</ele>
        <time>2026-08-29T07:47:55.000Z</time>
      </trkpt>
      <trkpt lat="45.04613" lon="5.8276">
        <ele>429.606681</ele>
        <time>2026-08-29T07:47:56.000Z</time>
      </trkpt>
      <trkpt lat="45.04611" lon="5.82761">
        <ele>429.785331</ele>
        <time>2026-08-29T07:47:57.000Z</time>
      </trkpt>
      <trkpt lat="45.04609" lon="5.82762">
        <ele>429.955404</ele>
        <time>2026-08-29T07:47:58.000Z</time>
      </trkpt>
      <trkpt lat="45.04606" lon="5.82763">
        <ele>430.127376</ele>
        <time>2026-08-29T07:47:59.000Z</time>
      </trkpt>
      <trkpt lat="45.04604" lon="5.82765">
        <ele>430.29745</ele>
        <time>2026-08-29T07:48:00.000Z</time>
      </trkpt>
      <trkpt lat="45.04602" lon="5.82766">
        <ele>430.474273</ele>
        <time>2026-08-29T07:48:01.000Z</time>
      </trkpt>
      <trkpt lat="45.04599" lon="5.82767">
        <ele>430.674344</ele>
        <time>2026-08-29T07:48:02.000Z</time>
      </trkpt>
      <trkpt lat="45.04597" lon="5.82769">
        <ele>430.870216</ele>
        <time>2026-08-29T07:48:03.000Z</time>
      </trkpt>
      <trkpt lat="45.04595" lon="5.8277">
        <ele>431.048866</ele>
        <time>2026-08-29T07:48:04.000Z</time>
      </trkpt>
      <trkpt lat="45.04592" lon="5.82771">
        <ele>431.221</ele>
        <time>2026-08-29T07:48:05.000Z</time>
      </trkpt>
      <trkpt lat="45.0459" lon="5.82772">
        <ele>431.397761</ele>
        <time>2026-08-29T07:48:06.000Z</time>
      </trkpt>
      <trkpt lat="45.04588" lon="5.82773">
        <ele>431.569895</ele>
        <time>2026-08-29T07:48:07.000Z</time>
      </trkpt>
      <trkpt lat="45.04585" lon="5.82774">
        <ele>431.736574</ele>
        <time>2026-08-29T07:48:08.000Z</time>
      </trkpt>
      <trkpt lat="45.04583" lon="5.82775">
        <ele>431.927</ele>
        <time>2026-08-29T07:48:09.000Z</time>
      </trkpt>
      <trkpt lat="45.04581" lon="5.82776">
        <ele>432.103823</ele>
        <time>2026-08-29T07:48:10.000Z</time>
      </trkpt>
      <trkpt lat="45.04578" lon="5.82777">
        <ele>432.280647</ele>
        <time>2026-08-29T07:48:11.000Z</time>
      </trkpt>
      <trkpt lat="45.04576" lon="5.82778">
        <ele>432.447326</ele>
        <time>2026-08-29T07:48:12.000Z</time>
      </trkpt>
      <trkpt lat="45.04574" lon="5.8278">
        <ele>432.61069</ele>
        <time>2026-08-29T07:48:13.000Z</time>
      </trkpt>
      <trkpt lat="45.04572" lon="5.8278">
        <ele>432.77454</ele>
        <time>2026-08-29T07:48:14.000Z</time>
      </trkpt>
      <trkpt lat="45.04569" lon="5.82781">
        <ele>432.956515</ele>
        <time>2026-08-29T07:48:15.000Z</time>
      </trkpt>
      <trkpt lat="45.04567" lon="5.82783">
        <ele>433.132665</ele>
        <time>2026-08-29T07:48:16.000Z</time>
      </trkpt>
      <trkpt lat="45.04565" lon="5.82784">
        <ele>433.313135</ele>
        <time>2026-08-29T07:48:17.000Z</time>
      </trkpt>
      <trkpt lat="45.04563" lon="5.82785">
        <ele>433.486696</ele>
        <time>2026-08-29T07:48:18.000Z</time>
      </trkpt>
      <trkpt lat="45.0456" lon="5.82786">
        <ele>433.687361</ele>
        <time>2026-08-29T07:48:19.000Z</time>
      </trkpt>
      <trkpt lat="45.04558" lon="5.82787">
        <ele>433.846384</ele>
        <time>2026-08-29T07:48:20.000Z</time>
      </trkpt>
      <trkpt lat="45.04555" lon="5.82788">
        <ele>434.021511</ele>
        <time>2026-08-29T07:48:21.000Z</time>
      </trkpt>
      <trkpt lat="45.04553" lon="5.82789">
        <ele>434.230741</ele>
        <time>2026-08-29T07:48:22.000Z</time>
      </trkpt>
      <trkpt lat="45.0455" lon="5.82791">
        <ele>434.435252</ele>
        <time>2026-08-29T07:48:23.000Z</time>
      </trkpt>
      <trkpt lat="45.04548" lon="5.82792">
        <ele>434.62662</ele>
        <time>2026-08-29T07:48:24.000Z</time>
      </trkpt>
      <trkpt lat="45.04545" lon="5.82794">
        <ele>434.813791</ele>
        <time>2026-08-29T07:48:25.000Z</time>
      </trkpt>
      <trkpt lat="45.04543" lon="5.82796">
        <ele>435.023022</ele>
        <time>2026-08-29T07:48:26.000Z</time>
      </trkpt>
      <trkpt lat="45.0454" lon="5.82796">
        <ele>435.20791</ele>
        <time>2026-08-29T07:48:27.000Z</time>
      </trkpt>
      <trkpt lat="45.04538" lon="5.82797">
        <ele>435.38838</ele>
        <time>2026-08-29T07:48:28.000Z</time>
      </trkpt>
      <trkpt lat="45.04536" lon="5.82798">
        <ele>435.553573</ele>
        <time>2026-08-29T07:48:29.000Z</time>
      </trkpt>
      <trkpt lat="45.04533" lon="5.828">
        <ele>435.749501</ele>
        <time>2026-08-29T07:48:30.000Z</time>
      </trkpt>
      <trkpt lat="45.04531" lon="5.82801">
        <ele>435.943441</ele>
        <time>2026-08-29T07:48:31.000Z</time>
      </trkpt>
      <trkpt lat="45.04529" lon="5.82803">
        <ele>436.106804</ele>
        <time>2026-08-29T07:48:32.000Z</time>
      </trkpt>
      <trkpt lat="45.04526" lon="5.82804">
        <ele>436.285455</ele>
        <time>2026-08-29T07:48:33.000Z</time>
      </trkpt>
      <trkpt lat="45.04524" lon="5.82805">
        <ele>436.468131</ele>
        <time>2026-08-29T07:48:34.000Z</time>
      </trkpt>
      <trkpt lat="45.04522" lon="5.82807">
        <ele>436.638205</ele>
        <time>2026-08-29T07:48:35.000Z</time>
      </trkpt>
      <trkpt lat="45.0452" lon="5.82808">
        <ele>436.812204</ele>
        <time>2026-08-29T07:48:36.000Z</time>
      </trkpt>
      <trkpt lat="45.04517" lon="5.82809">
        <ele>436.976055</ele>
        <time>2026-08-29T07:48:37.000Z</time>
      </trkpt>
      <trkpt lat="45.04515" lon="5.8281">
        <ele>437.156524</ele>
        <time>2026-08-29T07:48:38.000Z</time>
      </trkpt>
      <trkpt lat="45.04513" lon="5.82811">
        <ele>437.325077</ele>
        <time>2026-08-29T07:48:39.000Z</time>
      </trkpt>
      <trkpt lat="45.0451" lon="5.82812">
        <ele>437.502799</ele>
        <time>2026-08-29T07:48:40.000Z</time>
      </trkpt>
      <trkpt lat="45.04508" lon="5.82813">
        <ele>437.670701</ele>
        <time>2026-08-29T07:48:41.000Z</time>
      </trkpt>
      <trkpt lat="45.04506" lon="5.82815">
        <ele>437.845842</ele>
        <time>2026-08-29T07:48:42.000Z</time>
      </trkpt>
      <trkpt lat="45.04503" lon="5.82817">
        <ele>438.038457</ele>
        <time>2026-08-29T07:48:43.000Z</time>
      </trkpt>
      <trkpt lat="45.04501" lon="5.82818">
        <ele>438.217908</ele>
        <time>2026-08-29T07:48:44.000Z</time>
      </trkpt>
      <trkpt lat="45.04499" lon="5.8282">
        <ele>438.387699</ele>
        <time>2026-08-29T07:48:45.000Z</time>
      </trkpt>
      <trkpt lat="45.04497" lon="5.82823">
        <ele>438.577479</ele>
        <time>2026-08-29T07:48:46.000Z</time>
      </trkpt>
      <trkpt lat="45.04495" lon="5.82825">
        <ele>438.76529</ele>
        <time>2026-08-29T07:48:47.000Z</time>
      </trkpt>
      <trkpt lat="45.04493" lon="5.82828">
        <ele>438.945082</ele>
        <time>2026-08-29T07:48:48.000Z</time>
      </trkpt>
      <trkpt lat="45.04492" lon="5.82831">
        <ele>439.132731</ele>
        <time>2026-08-29T07:48:49.000Z</time>
      </trkpt>
      <trkpt lat="45.0449" lon="5.82835">
        <ele>439.337823</ele>
        <time>2026-08-29T07:48:50.000Z</time>
      </trkpt>
      <trkpt lat="45.04489" lon="5.82838">
        <ele>439.515239</ele>
        <time>2026-08-29T07:48:51.000Z</time>
      </trkpt>
      <trkpt lat="45.04489" lon="5.82842">
        <ele>439.697239</ele>
        <time>2026-08-29T07:48:52.000Z</time>
      </trkpt>
      <trkpt lat="45.04488" lon="5.82845">
        <ele>439.879239</ele>
        <time>2026-08-29T07:48:53.000Z</time>
      </trkpt>
      <trkpt lat="45.04487" lon="5.82849">
        <ele>440.061692</ele>
        <time>2026-08-29T07:48:54.000Z</time>
      </trkpt>
      <trkpt lat="45.04486" lon="5.82852">
        <ele>440.222959</ele>
        <time>2026-08-29T07:48:55.000Z</time>
      </trkpt>
      <trkpt lat="45.04486" lon="5.82856">
        <ele>440.398947</ele>
        <time>2026-08-29T07:48:56.000Z</time>
      </trkpt>
      <trkpt lat="45.04485" lon="5.82859">
        <ele>440.588022</ele>
        <time>2026-08-29T07:48:57.000Z</time>
      </trkpt>
      <trkpt lat="45.04484" lon="5.82863">
        <ele>440.783059</ele>
        <time>2026-08-29T07:48:58.000Z</time>
      </trkpt>
      <trkpt lat="45.04483" lon="5.82867">
        <ele>440.965511</ele>
        <time>2026-08-29T07:48:59.000Z</time>
      </trkpt>
      <trkpt lat="45.04483" lon="5.82871">
        <ele>441.155777</ele>
        <time>2026-08-29T07:49:00.000Z</time>
      </trkpt>
      <trkpt lat="45.04481" lon="5.82874">
        <ele>441.356575</ele>
        <time>2026-08-29T07:49:01.000Z</time>
      </trkpt>
      <trkpt lat="45.04479" lon="5.82877">
        <ele>441.549536</ele>
        <time>2026-08-29T07:49:02.000Z</time>
      </trkpt>
      <trkpt lat="45.04477" lon="5.82879">
        <ele>441.742152</ele>
        <time>2026-08-29T07:49:03.000Z</time>
      </trkpt>
      <trkpt lat="45.04474" lon="5.8288">
        <ele>441.92635</ele>
        <time>2026-08-29T07:49:04.000Z</time>
      </trkpt>
      <trkpt lat="45.04472" lon="5.8288">
        <ele>442.113654</ele>
        <time>2026-08-29T07:49:05.000Z</time>
      </trkpt>
      <trkpt lat="45.04469" lon="5.8288">
        <ele>442.293733</ele>
        <time>2026-08-29T07:49:06.000Z</time>
      </trkpt>
      <trkpt lat="45.04467" lon="5.82879">
        <ele>442.470974</ele>
        <time>2026-08-29T07:49:07.000Z</time>
      </trkpt>
      <trkpt lat="45.04465" lon="5.82877">
        <ele>442.657664</ele>
        <time>2026-08-29T07:49:08.000Z</time>
      </trkpt>
      <trkpt lat="45.04463" lon="5.82874">
        <ele>442.85453</ele>
        <time>2026-08-29T07:49:09.000Z</time>
      </trkpt>
      <trkpt lat="45.04461" lon="5.8287">
        <ele>443.055329</ele>
        <time>2026-08-29T07:49:10.000Z</time>
      </trkpt>
      <trkpt lat="45.0446" lon="5.82866">
        <ele>443.239737</ele>
        <time>2026-08-29T07:49:11.000Z</time>
      </trkpt>
      <trkpt lat="45.0446" lon="5.82863">
        <ele>443.416193</ele>
        <time>2026-08-29T07:49:12.000Z</time>
      </trkpt>
      <trkpt lat="45.0446" lon="5.8286">
        <ele>443.549749</ele>
        <time>2026-08-29T07:49:13.000Z</time>
      </trkpt>
      <trkpt lat="45.0446" lon="5.82857">
        <ele>443.70123</ele>
        <time>2026-08-29T07:49:14.000Z</time>
      </trkpt>
      <trkpt lat="45.0446" lon="5.82854">
        <ele>443.863813</ele>
        <time>2026-08-29T07:49:15.000Z</time>
      </trkpt>
      <trkpt lat="45.0446" lon="5.82851">
        <ele>444.01057</ele>
        <time>2026-08-29T07:49:16.000Z</time>
      </trkpt>
      <trkpt lat="45.0446" lon="5.82847">
        <ele>444.182155</ele>
        <time>2026-08-29T07:49:17.000Z</time>
      </trkpt>
      <trkpt lat="45.0446" lon="5.82843">
        <ele>444.368356</ele>
        <time>2026-08-29T07:49:18.000Z</time>
      </trkpt>
      <trkpt lat="45.0446" lon="5.8284">
        <ele>444.549684</ele>
        <time>2026-08-29T07:49:19.000Z</time>
      </trkpt>
      <trkpt lat="45.04459" lon="5.82835">
        <ele>444.772278</ele>
        <time>2026-08-29T07:49:20.000Z</time>
      </trkpt>
      <trkpt lat="45.04459" lon="5.82831">
        <ele>444.959119</ele>
        <time>2026-08-29T07:49:21.000Z</time>
      </trkpt>
      <trkpt lat="45.04459" lon="5.82828">
        <ele>445.140447</ele>
        <time>2026-08-29T07:49:22.000Z</time>
      </trkpt>
      <trkpt lat="45.04458" lon="5.82824">
        <ele>445.312032</ele>
        <time>2026-08-29T07:49:23.000Z</time>
      </trkpt>
      <trkpt lat="45.04458" lon="5.8282">
        <ele>445.513397</ele>
        <time>2026-08-29T07:49:24.000Z</time>
      </trkpt>
      <trkpt lat="45.04457" lon="5.82817">
        <ele>445.683098</ele>
        <time>2026-08-29T07:49:25.000Z</time>
      </trkpt>
      <trkpt lat="45.04457" lon="5.82814">
        <ele>445.846707</ele>
        <time>2026-08-29T07:49:26.000Z</time>
      </trkpt>
      <trkpt lat="45.04456" lon="5.8281">
        <ele>446.029611</ele>
        <time>2026-08-29T07:49:27.000Z</time>
      </trkpt>
      <trkpt lat="45.04456" lon="5.82806">
        <ele>446.204099</ele>
        <time>2026-08-29T07:49:28.000Z</time>
      </trkpt>
      <trkpt lat="45.04455" lon="5.82803">
        <ele>446.370606</ele>
        <time>2026-08-29T07:49:29.000Z</time>
      </trkpt>
      <trkpt lat="45.04455" lon="5.82799">
        <ele>446.558342</ele>
        <time>2026-08-29T07:49:30.000Z</time>
      </trkpt>
      <trkpt lat="45.04455" lon="5.82796">
        <ele>446.730622</ele>
        <time>2026-08-29T07:49:31.000Z</time>
      </trkpt>
      <trkpt lat="45.04454" lon="5.82792">
        <ele>446.89905</ele>
        <time>2026-08-29T07:49:32.000Z</time>
      </trkpt>
      <trkpt lat="45.04453" lon="5.82789">
        <ele>447.088126</ele>
        <time>2026-08-29T07:49:33.000Z</time>
      </trkpt>
      <trkpt lat="45.04453" lon="5.82786">
        <ele>447.227716</ele>
        <time>2026-08-29T07:49:34.000Z</time>
      </trkpt>
      <trkpt lat="45.04452" lon="5.82782">
        <ele>447.403705</ele>
        <time>2026-08-29T07:49:35.000Z</time>
      </trkpt>
      <trkpt lat="45.04452" lon="5.82779">
        <ele>447.584446</ele>
        <time>2026-08-29T07:49:36.000Z</time>
      </trkpt>
      <trkpt lat="45.0445" lon="5.82776">
        <ele>447.772038</ele>
        <time>2026-08-29T07:49:37.000Z</time>
      </trkpt>
      <trkpt lat="45.0445" lon="5.82772">
        <ele>447.952779</ele>
        <time>2026-08-29T07:49:38.000Z</time>
      </trkpt>
      <trkpt lat="45.04449" lon="5.82769">
        <ele>448.13726</ele>
        <time>2026-08-29T07:49:39.000Z</time>
      </trkpt>
      <trkpt lat="45.04448" lon="5.82765">
        <ele>448.305561</ele>
        <time>2026-08-29T07:49:40.000Z</time>
      </trkpt>
      <trkpt lat="45.04447" lon="5.82762">
        <ele>448.483307</ele>
        <time>2026-08-29T07:49:41.000Z</time>
      </trkpt>
      <trkpt lat="45.04446" lon="5.82758">
        <ele>448.674521</ele>
        <time>2026-08-29T07:49:42.000Z</time>
      </trkpt>
      <trkpt lat="45.04444" lon="5.82755">
        <ele>448.862114</ele>
        <time>2026-08-29T07:49:43.000Z</time>
      </trkpt>
      <trkpt lat="45.04444" lon="5.82752">
        <ele>449.038103</ele>
        <time>2026-08-29T07:49:44.000Z</time>
      </trkpt>
      <trkpt lat="45.04443" lon="5.82748">
        <ele>449.213562</ele>
        <time>2026-08-29T07:49:45.000Z</time>
      </trkpt>
      <trkpt lat="45.04442" lon="5.82745">
        <ele>449.399063</ele>
        <time>2026-08-29T07:49:46.000Z</time>
      </trkpt>
      <trkpt lat="45.04442" lon="5.82741">
        <ele>449.590762</ele>
        <time>2026-08-29T07:49:47.000Z</time>
      </trkpt>
      <trkpt lat="45.04441" lon="5.82737">
        <ele>449.756728</ele>
        <time>2026-08-29T07:49:48.000Z</time>
      </trkpt>
      <trkpt lat="45.04441" lon="5.82733">
        <ele>449.878315</ele>
        <time>2026-08-29T07:49:49.000Z</time>
      </trkpt>
      <trkpt lat="45.0444" lon="5.8273">
        <ele>449.999902</ele>
        <time>2026-08-29T07:49:50.000Z</time>
      </trkpt>
      <trkpt lat="45.0444" lon="5.82726">
        <ele>450.131353</ele>
        <time>2026-08-29T07:49:51.000Z</time>
      </trkpt>
      <trkpt lat="45.04439" lon="5.82722">
        <ele>450.253263</ele>
        <time>2026-08-29T07:49:52.000Z</time>
      </trkpt>
      <trkpt lat="45.04439" lon="5.82719">
        <ele>450.374798</ele>
        <time>2026-08-29T07:49:53.000Z</time>
      </trkpt>
      <trkpt lat="45.04439" lon="5.82715">
        <ele>450.4998</ele>
        <time>2026-08-29T07:49:54.000Z</time>
      </trkpt>
      <trkpt lat="45.04439" lon="5.82711">
        <ele>450.621335</ele>
        <time>2026-08-29T07:49:55.000Z</time>
      </trkpt>
      <trkpt lat="45.04439" lon="5.82707">
        <ele>450.753776</ele>
        <time>2026-08-29T07:49:56.000Z</time>
      </trkpt>
      <trkpt lat="45.04439" lon="5.82704">
        <ele>450.86945</ele>
        <time>2026-08-29T07:49:57.000Z</time>
      </trkpt>
      <trkpt lat="45.0444" lon="5.82701">
        <ele>450.986693</ele>
        <time>2026-08-29T07:49:58.000Z</time>
      </trkpt>
      <trkpt lat="45.0444" lon="5.82697">
        <ele>451.103056</ele>
        <time>2026-08-29T07:49:59.000Z</time>
      </trkpt>
      <trkpt lat="45.0444" lon="5.82694">
        <ele>451.227967</ele>
        <time>2026-08-29T07:50:00.000Z</time>
      </trkpt>
      <trkpt lat="45.0444" lon="5.8269">
        <ele>451.346126</ele>
        <time>2026-08-29T07:50:01.000Z</time>
      </trkpt>
      <trkpt lat="45.04441" lon="5.82686">
        <ele>451.476618</ele>
        <time>2026-08-29T07:50:02.000Z</time>
      </trkpt>
      <trkpt lat="45.04441" lon="5.82683">
        <ele>451.595643</ele>
        <time>2026-08-29T07:50:03.000Z</time>
      </trkpt>
      <trkpt lat="45.04441" lon="5.8268">
        <ele>451.704096</ele>
        <time>2026-08-29T07:50:04.000Z</time>
      </trkpt>
      <trkpt lat="45.04441" lon="5.82676">
        <ele>451.815503</ele>
        <time>2026-08-29T07:50:05.000Z</time>
      </trkpt>
      <trkpt lat="45.04441" lon="5.82673">
        <ele>451.923534</ele>
        <time>2026-08-29T07:50:06.000Z</time>
      </trkpt>
      <trkpt lat="45.04441" lon="5.8267">
        <ele>452.035044</ele>
        <time>2026-08-29T07:50:07.000Z</time>
      </trkpt>
      <trkpt lat="45.04441" lon="5.82666">
        <ele>452.153299</ele>
        <time>2026-08-29T07:50:08.000Z</time>
      </trkpt>
      <trkpt lat="45.04442" lon="5.82663">
        <ele>452.272994</ele>
        <time>2026-08-29T07:50:09.000Z</time>
      </trkpt>
      <trkpt lat="45.04442" lon="5.82659">
        <ele>452.38481</ele>
        <time>2026-08-29T07:50:10.000Z</time>
      </trkpt>
      <trkpt lat="45.04442" lon="5.82657">
        <ele>452.482829</ele>
        <time>2026-08-29T07:50:11.000Z</time>
      </trkpt>
      <trkpt lat="45.04442" lon="5.82654">
        <ele>452.584108</ele>
        <time>2026-08-29T07:50:12.000Z</time>
      </trkpt>
      <trkpt lat="45.04442" lon="5.8265">
        <ele>452.695515</ele>
        <time>2026-08-29T07:50:13.000Z</time>
      </trkpt>
      <trkpt lat="45.04442" lon="5.82646">
        <ele>452.830638</ele>
        <time>2026-08-29T07:50:14.000Z</time>
      </trkpt>
      <trkpt lat="45.04442" lon="5.82642">
        <ele>452.973152</ele>
        <time>2026-08-29T07:50:15.000Z</time>
      </trkpt>
      <trkpt lat="45.04442" lon="5.82638">
        <ele>453.095062</ele>
        <time>2026-08-29T07:50:16.000Z</time>
      </trkpt>
      <trkpt lat="45.04443" lon="5.82634">
        <ele>453.240542</ele>
        <time>2026-08-29T07:50:17.000Z</time>
      </trkpt>
      <trkpt lat="45.04443" lon="5.8263">
        <ele>453.372292</ele>
        <time>2026-08-29T07:50:18.000Z</time>
      </trkpt>
      <trkpt lat="45.04443" lon="5.82627">
        <ele>453.49392</ele>
        <time>2026-08-29T07:50:19.000Z</time>
      </trkpt>
      <trkpt lat="45.04444" lon="5.82623">
        <ele>453.621325</ele>
        <time>2026-08-29T07:50:20.000Z</time>
      </trkpt>
      <trkpt lat="45.04445" lon="5.82619">
        <ele>453.768031</ele>
        <time>2026-08-29T07:50:21.000Z</time>
      </trkpt>
      <trkpt lat="45.04446" lon="5.82615">
        <ele>453.904927</ele>
        <time>2026-08-29T07:50:22.000Z</time>
      </trkpt>
      <trkpt lat="45.04447" lon="5.82611">
        <ele>454.040772</ele>
        <time>2026-08-29T07:50:23.000Z</time>
      </trkpt>
      <trkpt lat="45.04447" lon="5.82607">
        <ele>454.192173</ele>
        <time>2026-08-29T07:50:24.000Z</time>
      </trkpt>
      <trkpt lat="45.04449" lon="5.82603">
        <ele>454.329615</ele>
        <time>2026-08-29T07:50:25.000Z</time>
      </trkpt>
      <trkpt lat="45.0445" lon="5.826">
        <ele>454.463352</ele>
        <time>2026-08-29T07:50:26.000Z</time>
      </trkpt>
      <trkpt lat="45.04451" lon="5.82596">
        <ele>454.603869</ele>
        <time>2026-08-29T07:50:27.000Z</time>
      </trkpt>
      <trkpt lat="45.04452" lon="5.82592">
        <ele>454.753207</ele>
        <time>2026-08-29T07:50:28.000Z</time>
      </trkpt>
      <trkpt lat="45.04454" lon="5.82588">
        <ele>454.913133</ele>
        <time>2026-08-29T07:50:29.000Z</time>
      </trkpt>
      <trkpt lat="45.04457" lon="5.82584">
        <ele>455.092879</ele>
        <time>2026-08-29T07:50:30.000Z</time>
      </trkpt>
      <trkpt lat="45.04459" lon="5.8258">
        <ele>455.268167</ele>
        <time>2026-08-29T07:50:31.000Z</time>
      </trkpt>
      <trkpt lat="45.04462" lon="5.82576">
        <ele>455.445941</ele>
        <time>2026-08-29T07:50:32.000Z</time>
      </trkpt>
      <trkpt lat="45.04464" lon="5.82572">
        <ele>455.62943</ele>
        <time>2026-08-29T07:50:33.000Z</time>
      </trkpt>
      <trkpt lat="45.04467" lon="5.82568">
        <ele>455.812919</ele>
        <time>2026-08-29T07:50:34.000Z</time>
      </trkpt>
      <trkpt lat="45.0447" lon="5.82564">
        <ele>455.998906</ele>
        <time>2026-08-29T07:50:35.000Z</time>
      </trkpt>
      <trkpt lat="45.04472" lon="5.8256">
        <ele>456.182395</ele>
        <time>2026-08-29T07:50:36.000Z</time>
      </trkpt>
      <trkpt lat="45.04476" lon="5.82557">
        <ele>456.393177</ele>
        <time>2026-08-29T07:50:37.000Z</time>
      </trkpt>
      <trkpt lat="45.04479" lon="5.82554">
        <ele>456.576507</ele>
        <time>2026-08-29T07:50:38.000Z</time>
      </trkpt>
      <trkpt lat="45.04482" lon="5.82551">
        <ele>456.765753</ele>
        <time>2026-08-29T07:50:39.000Z</time>
      </trkpt>
      <trkpt lat="45.04486" lon="5.82548">
        <ele>456.949592</ele>
        <time>2026-08-29T07:50:40.000Z</time>
      </trkpt>
      <trkpt lat="45.04489" lon="5.82546">
        <ele>457.141347</ele>
        <time>2026-08-29T07:50:41.000Z</time>
      </trkpt>
      <trkpt lat="45.04494" lon="5.82544">
        <ele>457.363887</ele>
        <time>2026-08-29T07:50:42.000Z</time>
      </trkpt>
      <trkpt lat="45.04498" lon="5.82543">
        <ele>457.562674</ele>
        <time>2026-08-29T07:50:43.000Z</time>
      </trkpt>
      <trkpt lat="45.04503" lon="5.82542">
        <ele>457.788482</ele>
        <time>2026-08-29T07:50:44.000Z</time>
      </trkpt>
      <trkpt lat="45.04507" lon="5.82542">
        <ele>457.989614</ele>
        <time>2026-08-29T07:50:45.000Z</time>
      </trkpt>
      <trkpt lat="45.04511" lon="5.82541">
        <ele>458.173177</ele>
        <time>2026-08-29T07:50:46.000Z</time>
      </trkpt>
      <trkpt lat="45.04514" lon="5.82541">
        <ele>458.371973</ele>
        <time>2026-08-29T07:50:47.000Z</time>
      </trkpt>
      <trkpt lat="45.04518" lon="5.8254">
        <ele>458.611784</ele>
        <time>2026-08-29T07:50:48.000Z</time>
      </trkpt>
      <trkpt lat="45.04522" lon="5.8254">
        <ele>458.865346</ele>
        <time>2026-08-29T07:50:49.000Z</time>
      </trkpt>
      <trkpt lat="45.04526" lon="5.82538">
        <ele>459.091476</ele>
        <time>2026-08-29T07:50:50.000Z</time>
      </trkpt>
      <trkpt lat="45.0453" lon="5.82538">
        <ele>459.331561</ele>
        <time>2026-08-29T07:50:51.000Z</time>
      </trkpt>
      <trkpt lat="45.04533" lon="5.82538">
        <ele>459.546503</ele>
        <time>2026-08-29T07:50:52.000Z</time>
      </trkpt>
      <trkpt lat="45.04536" lon="5.82538">
        <ele>459.737038</ele>
        <time>2026-08-29T07:50:53.000Z</time>
      </trkpt>
      <trkpt lat="45.0454" lon="5.82537">
        <ele>459.959138</ele>
        <time>2026-08-29T07:50:54.000Z</time>
      </trkpt>
      <trkpt lat="45.04544" lon="5.82537">
        <ele>460.180345</ele>
        <time>2026-08-29T07:50:55.000Z</time>
      </trkpt>
      <trkpt lat="45.04546" lon="5.82539">
        <ele>460.371454</ele>
        <time>2026-08-29T07:50:56.000Z</time>
      </trkpt>
      <trkpt lat="45.0455" lon="5.82539">
        <ele>460.580257</ele>
        <time>2026-08-29T07:50:57.000Z</time>
      </trkpt>
      <trkpt lat="45.04553" lon="5.82539">
        <ele>460.776926</ele>
        <time>2026-08-29T07:50:58.000Z</time>
      </trkpt>
      <trkpt lat="45.04556" lon="5.82538">
        <ele>460.978136</ele>
        <time>2026-08-29T07:50:59.000Z</time>
      </trkpt>
      <trkpt lat="45.04559" lon="5.82537">
        <ele>461.172088</ele>
        <time>2026-08-29T07:51:00.000Z</time>
      </trkpt>
      <trkpt lat="45.04562" lon="5.82535">
        <ele>461.359198</ele>
        <time>2026-08-29T07:51:01.000Z</time>
      </trkpt>
      <trkpt lat="45.04565" lon="5.82533">
        <ele>461.570785</ele>
        <time>2026-08-29T07:51:02.000Z</time>
      </trkpt>
      <trkpt lat="45.04567" lon="5.82531">
        <ele>461.739247</ele>
        <time>2026-08-29T07:51:03.000Z</time>
      </trkpt>
      <trkpt lat="45.0457" lon="5.82531">
        <ele>461.92426</ele>
        <time>2026-08-29T07:51:04.000Z</time>
      </trkpt>
      <trkpt lat="45.04574" lon="5.82528">
        <ele>462.142691</ele>
        <time>2026-08-29T07:51:05.000Z</time>
      </trkpt>
      <trkpt lat="45.04577" lon="5.82527">
        <ele>462.365575</ele>
        <time>2026-08-29T07:51:06.000Z</time>
      </trkpt>
      <trkpt lat="45.0458" lon="5.82524">
        <ele>462.554736</ele>
        <time>2026-08-29T07:51:07.000Z</time>
      </trkpt>
      <trkpt lat="45.04583" lon="5.82522">
        <ele>462.765235</ele>
        <time>2026-08-29T07:51:08.000Z</time>
      </trkpt>
      <trkpt lat="45.04586" lon="5.82519">
        <ele>462.97899</ele>
        <time>2026-08-29T07:51:09.000Z</time>
      </trkpt>
      <trkpt lat="45.04588" lon="5.82516">
        <ele>463.189489</ele>
        <time>2026-08-29T07:51:10.000Z</time>
      </trkpt>
      <trkpt lat="45.04591" lon="5.82514">
        <ele>463.374627</ele>
        <time>2026-08-29T07:51:11.000Z</time>
      </trkpt>
      <trkpt lat="45.04593" lon="5.82511">
        <ele>463.570536</ele>
        <time>2026-08-29T07:51:12.000Z</time>
      </trkpt>
      <trkpt lat="45.04595" lon="5.82508">
        <ele>463.715822</ele>
        <time>2026-08-29T07:51:13.000Z</time>
      </trkpt>
      <trkpt lat="45.04596" lon="5.82506">
        <ele>463.880043</ele>
        <time>2026-08-29T07:51:14.000Z</time>
      </trkpt>
      <trkpt lat="45.04598" lon="5.82501">
        <ele>464.108157</ele>
        <time>2026-08-29T07:51:15.000Z</time>
      </trkpt>
      <trkpt lat="45.04599" lon="5.82497">
        <ele>464.292223</ele>
        <time>2026-08-29T07:51:16.000Z</time>
      </trkpt>
      <trkpt lat="45.046" lon="5.82493">
        <ele>464.458401</ele>
        <time>2026-08-29T07:51:17.000Z</time>
      </trkpt>
      <trkpt lat="45.04601" lon="5.82489">
        <ele>464.652716</ele>
        <time>2026-08-29T07:51:18.000Z</time>
      </trkpt>
      <trkpt lat="45.04602" lon="5.82485">
        <ele>464.824726</ele>
        <time>2026-08-29T07:51:19.000Z</time>
      </trkpt>
      <trkpt lat="45.04603" lon="5.82482">
        <ele>464.980186</ele>
        <time>2026-08-29T07:51:20.000Z</time>
      </trkpt>
      <trkpt lat="45.04604" lon="5.82478">
        <ele>465.173833</ele>
        <time>2026-08-29T07:51:21.000Z</time>
      </trkpt>
      <trkpt lat="45.04606" lon="5.82474">
        <ele>465.376332</ele>
        <time>2026-08-29T07:51:22.000Z</time>
      </trkpt>
      <trkpt lat="45.04607" lon="5.82472">
        <ele>465.501584</ele>
        <time>2026-08-29T07:51:23.000Z</time>
      </trkpt>
      <trkpt lat="45.04609" lon="5.8247">
        <ele>465.607361</ele>
        <time>2026-08-29T07:51:24.000Z</time>
      </trkpt>
      <trkpt lat="45.0461" lon="5.82469">
        <ele>465.732711</ele>
        <time>2026-08-29T07:51:25.000Z</time>
      </trkpt>
      <trkpt lat="45.04613" lon="5.82468">
        <ele>465.871762</ele>
        <time>2026-08-29T07:51:26.000Z</time>
      </trkpt>
      <trkpt lat="45.04616" lon="5.82466">
        <ele>466.082081</ele>
        <time>2026-08-29T07:51:27.000Z</time>
      </trkpt>
      <trkpt lat="45.04619" lon="5.82466">
        <ele>466.262032</ele>
        <time>2026-08-29T07:51:28.000Z</time>
      </trkpt>
      <trkpt lat="45.0462" lon="5.82462">
        <ele>466.460825</ele>
        <time>2026-08-29T07:51:29.000Z</time>
      </trkpt>
      <trkpt lat="45.04623" lon="5.82459">
        <ele>466.651432</ele>
        <time>2026-08-29T07:51:30.000Z</time>
      </trkpt>
      <trkpt lat="45.04625" lon="5.82455">
        <ele>466.873327</ele>
        <time>2026-08-29T07:51:31.000Z</time>
      </trkpt>
      <trkpt lat="45.04628" lon="5.82452">
        <ele>467.083221</ele>
        <time>2026-08-29T07:51:32.000Z</time>
      </trkpt>
      <trkpt lat="45.0463" lon="5.82448">
        <ele>467.306561</ele>
        <time>2026-08-29T07:51:33.000Z</time>
      </trkpt>
      <trkpt lat="45.04633" lon="5.82444">
        <ele>467.535002</ele>
        <time>2026-08-29T07:51:34.000Z</time>
      </trkpt>
      <trkpt lat="45.04634" lon="5.82437">
        <ele>467.847913</ele>
        <time>2026-08-29T07:51:35.000Z</time>
      </trkpt>
      <trkpt lat="45.04636" lon="5.82432">
        <ele>468.096528</ele>
        <time>2026-08-29T07:51:36.000Z</time>
      </trkpt>
      <trkpt lat="45.04639" lon="5.82428">
        <ele>468.346633</ele>
        <time>2026-08-29T07:51:37.000Z</time>
      </trkpt>
      <trkpt lat="45.04641" lon="5.82424">
        <ele>468.570335</ele>
        <time>2026-08-29T07:51:38.000Z</time>
      </trkpt>
      <trkpt lat="45.04643" lon="5.8242">
        <ele>468.790053</ele>
        <time>2026-08-29T07:51:39.000Z</time>
      </trkpt>
      <trkpt lat="45.04645" lon="5.82416">
        <ele>468.985003</ele>
        <time>2026-08-29T07:51:40.000Z</time>
      </trkpt>
      <trkpt lat="45.04646" lon="5.82412">
        <ele>469.156854</ele>
        <time>2026-08-29T07:51:41.000Z</time>
      </trkpt>
      <trkpt lat="45.04647" lon="5.82408">
        <ele>469.349878</ele>
        <time>2026-08-29T07:51:42.000Z</time>
      </trkpt>
      <trkpt lat="45.04648" lon="5.82404">
        <ele>469.544855</ele>
        <time>2026-08-29T07:51:43.000Z</time>
      </trkpt>
      <trkpt lat="45.04648" lon="5.824">
        <ele>469.723686</ele>
        <time>2026-08-29T07:51:44.000Z</time>
      </trkpt>
      <trkpt lat="45.04648" lon="5.82395">
        <ele>469.910516</ele>
        <time>2026-08-29T07:51:45.000Z</time>
      </trkpt>
      <trkpt lat="45.04649" lon="5.82391">
        <ele>470.099872</ele>
        <time>2026-08-29T07:51:46.000Z</time>
      </trkpt>
      <trkpt lat="45.04649" lon="5.82387">
        <ele>470.278149</ele>
        <time>2026-08-29T07:51:47.000Z</time>
      </trkpt>
      <trkpt lat="45.0465" lon="5.82384">
        <ele>470.450123</ele>
        <time>2026-08-29T07:51:48.000Z</time>
      </trkpt>
      <trkpt lat="45.04651" lon="5.82379">
        <ele>470.643513</ele>
        <time>2026-08-29T07:51:49.000Z</time>
      </trkpt>
      <trkpt lat="45.04651" lon="5.82375">
        <ele>470.8412</ele>
        <time>2026-08-29T07:51:50.000Z</time>
      </trkpt>
      <trkpt lat="45.04651" lon="5.82372">
        <ele>470.997311</ele>
        <time>2026-08-29T07:51:51.000Z</time>
      </trkpt>
      <trkpt lat="45.04651" lon="5.82368">
        <ele>471.144157</ele>
        <time>2026-08-29T07:51:52.000Z</time>
      </trkpt>
      <trkpt lat="45.04651" lon="5.82365">
        <ele>471.296489</ele>
        <time>2026-08-29T07:51:53.000Z</time>
      </trkpt>
      <trkpt lat="45.04651" lon="5.8236">
        <ele>471.523101</ele>
        <time>2026-08-29T07:51:54.000Z</time>
      </trkpt>
      <trkpt lat="45.04652" lon="5.82356">
        <ele>471.70128</ele>
        <time>2026-08-29T07:51:55.000Z</time>
      </trkpt>
      <trkpt lat="45.04652" lon="5.82354">
        <ele>471.806122</ele>
        <time>2026-08-29T07:51:56.000Z</time>
      </trkpt>
      <trkpt lat="45.04653" lon="5.82351">
        <ele>471.943157</ele>
        <time>2026-08-29T07:51:57.000Z</time>
      </trkpt>
      <trkpt lat="45.04655" lon="5.82348">
        <ele>472.169611</ele>
        <time>2026-08-29T07:51:58.000Z</time>
      </trkpt>
      <trkpt lat="45.04657" lon="5.82345">
        <ele>472.33318</ele>
        <time>2026-08-29T07:51:59.000Z</time>
      </trkpt>
      <trkpt lat="45.04657" lon="5.82341">
        <ele>472.486419</ele>
        <time>2026-08-29T07:52:00.000Z</time>
      </trkpt>
      <trkpt lat="45.04658" lon="5.82338">
        <ele>472.631318</ele>
        <time>2026-08-29T07:52:01.000Z</time>
      </trkpt>
      <trkpt lat="45.04659" lon="5.82335">
        <ele>472.793537</ele>
        <time>2026-08-29T07:52:02.000Z</time>
      </trkpt>
      <trkpt lat="45.0466" lon="5.82332">
        <ele>472.943802</ele>
        <time>2026-08-29T07:52:03.000Z</time>
      </trkpt>
      <trkpt lat="45.04662" lon="5.82329">
        <ele>473.110099</ele>
        <time>2026-08-29T07:52:04.000Z</time>
      </trkpt>
      <trkpt lat="45.04663" lon="5.82327">
        <ele>473.237211</ele>
        <time>2026-08-29T07:52:05.000Z</time>
      </trkpt>
      <trkpt lat="45.04665" lon="5.82324">
        <ele>473.393361</ele>
        <time>2026-08-29T07:52:06.000Z</time>
      </trkpt>
      <trkpt lat="45.04666" lon="5.82321">
        <ele>473.536825</ele>
        <time>2026-08-29T07:52:07.000Z</time>
      </trkpt>
      <trkpt lat="45.04667" lon="5.82318">
        <ele>473.707115</ele>
        <time>2026-08-29T07:52:08.000Z</time>
      </trkpt>
      <trkpt lat="45.04668" lon="5.82315">
        <ele>473.86038</ele>
        <time>2026-08-29T07:52:09.000Z</time>
      </trkpt>
      <trkpt lat="45.04668" lon="5.82312">
        <ele>473.977762</ele>
        <time>2026-08-29T07:52:10.000Z</time>
      </trkpt>
      <trkpt lat="45.0467" lon="5.82309">
        <ele>474.146729</ele>
        <time>2026-08-29T07:52:11.000Z</time>
      </trkpt>
      <trkpt lat="45.04671" lon="5.82306">
        <ele>474.30657</ele>
        <time>2026-08-29T07:52:12.000Z</time>
      </trkpt>
      <trkpt lat="45.04673" lon="5.82302">
        <ele>474.508282</ele>
        <time>2026-08-29T07:52:13.000Z</time>
      </trkpt>
      <trkpt lat="45.04675" lon="5.823">
        <ele>474.689823</ele>
        <time>2026-08-29T07:52:14.000Z</time>
      </trkpt>
      <trkpt lat="45.04677" lon="5.82297">
        <ele>474.859241</ele>
        <time>2026-08-29T07:52:15.000Z</time>
      </trkpt>
      <trkpt lat="45.04679" lon="5.82294">
        <ele>475.040781</ele>
        <time>2026-08-29T07:52:16.000Z</time>
      </trkpt>
      <trkpt lat="45.04681" lon="5.82291">
        <ele>475.227414</ele>
        <time>2026-08-29T07:52:17.000Z</time>
      </trkpt>
      <trkpt lat="45.04683" lon="5.82288">
        <ele>475.395316</ele>
        <time>2026-08-29T07:52:18.000Z</time>
      </trkpt>
      <trkpt lat="45.04685" lon="5.82286">
        <ele>475.550922</ele>
        <time>2026-08-29T07:52:19.000Z</time>
      </trkpt>
      <trkpt lat="45.04687" lon="5.82284">
        <ele>475.718823</ele>
        <time>2026-08-29T07:52:20.000Z</time>
      </trkpt>
      <trkpt lat="45.04688" lon="5.82281">
        <ele>475.853791</ele>
        <time>2026-08-29T07:52:21.000Z</time>
      </trkpt>
      <trkpt lat="45.0469" lon="5.82278">
        <ele>476.02962</ele>
        <time>2026-08-29T07:52:22.000Z</time>
      </trkpt>
      <trkpt lat="45.04692" lon="5.82275">
        <ele>476.20407</ele>
        <time>2026-08-29T07:52:23.000Z</time>
      </trkpt>
      <trkpt lat="45.04693" lon="5.82272">
        <ele>476.382275</ele>
        <time>2026-08-29T07:52:24.000Z</time>
      </trkpt>
      <trkpt lat="45.04694" lon="5.82267">
        <ele>476.577396</ele>
        <time>2026-08-29T07:52:25.000Z</time>
      </trkpt>
      <trkpt lat="45.04695" lon="5.82264">
        <ele>476.740507</ele>
        <time>2026-08-29T07:52:26.000Z</time>
      </trkpt>
      <trkpt lat="45.04694" lon="5.82261">
        <ele>476.876234</ele>
        <time>2026-08-29T07:52:27.000Z</time>
      </trkpt>
      <trkpt lat="45.04694" lon="5.82258">
        <ele>477.018791</ele>
        <time>2026-08-29T07:52:28.000Z</time>
      </trkpt>
      <trkpt lat="45.04692" lon="5.82256">
        <ele>477.142919</ele>
        <time>2026-08-29T07:52:29.000Z</time>
      </trkpt>
      <trkpt lat="45.04691" lon="5.82253">
        <ele>477.289619</ele>
        <time>2026-08-29T07:52:30.000Z</time>
      </trkpt>
      <trkpt lat="45.04689" lon="5.82251">
        <ele>477.420566</ele>
        <time>2026-08-29T07:52:31.000Z</time>
      </trkpt>
      <trkpt lat="45.04687" lon="5.82251">
        <ele>477.56638</ele>
        <time>2026-08-29T07:52:32.000Z</time>
      </trkpt>
      <trkpt lat="45.04685" lon="5.82249">
        <ele>477.695618</ele>
        <time>2026-08-29T07:52:33.000Z</time>
      </trkpt>
      <trkpt lat="45.04682" lon="5.82252">
        <ele>477.910306</ele>
        <time>2026-08-29T07:52:34.000Z</time>
      </trkpt>
      <trkpt lat="45.0468" lon="5.82254">
        <ele>478.10413</ele>
        <time>2026-08-29T07:52:35.000Z</time>
      </trkpt>
      <trkpt lat="45.04678" lon="5.82257">
        <ele>478.273971</ele>
        <time>2026-08-29T07:52:36.000Z</time>
      </trkpt>
      <trkpt lat="45.04676" lon="5.82259">
        <ele>478.438371</ele>
        <time>2026-08-29T07:52:37.000Z</time>
      </trkpt>
      <trkpt lat="45.04673" lon="5.82263">
        <ele>478.667241</ele>
        <time>2026-08-29T07:52:38.000Z</time>
      </trkpt>
      <trkpt lat="45.04671" lon="5.82267">
        <ele>478.881485</ele>
        <time>2026-08-29T07:52:39.000Z</time>
      </trkpt>
      <trkpt lat="45.0467" lon="5.82271">
        <ele>479.082812</ele>
        <time>2026-08-29T07:52:40.000Z</time>
      </trkpt>
      <trkpt lat="45.04668" lon="5.82274">
        <ele>479.278884</ele>
        <time>2026-08-29T07:52:41.000Z</time>
      </trkpt>
      <trkpt lat="45.04666" lon="5.82276">
        <ele>479.453561</ele>
        <time>2026-08-29T07:52:42.000Z</time>
      </trkpt>
      <trkpt lat="45.04664" lon="5.82278">
        <ele>479.597556</ele>
        <time>2026-08-29T07:52:43.000Z</time>
      </trkpt>
      <trkpt lat="45.04662" lon="5.82281">
        <ele>479.765083</ele>
        <time>2026-08-29T07:52:44.000Z</time>
      </trkpt>
      <trkpt lat="45.04661" lon="5.82285">
        <ele>479.939533</ele>
        <time>2026-08-29T07:52:45.000Z</time>
      </trkpt>
      <trkpt lat="45.04659" lon="5.82288">
        <ele>480.113819</ele>
        <time>2026-08-29T07:52:46.000Z</time>
      </trkpt>
      <trkpt lat="45.04657" lon="5.82291">
        <ele>480.2774</ele>
        <time>2026-08-29T07:52:47.000Z</time>
      </trkpt>
      <trkpt lat="45.04656" lon="5.82294">
        <ele>480.427665</ele>
        <time>2026-08-29T07:52:48.000Z</time>
      </trkpt>
      <trkpt lat="45.04655" lon="5.82296">
        <ele>480.540252</ele>
        <time>2026-08-29T07:52:49.000Z</time>
      </trkpt>
      <trkpt lat="45.04654" lon="5.82299">
        <ele>480.732223</ele>
        <time>2026-08-29T07:52:50.000Z</time>
      </trkpt>
      <trkpt lat="45.04652" lon="5.82302">
        <ele>480.950449</ele>
        <time>2026-08-29T07:52:51.000Z</time>
      </trkpt>
      <trkpt lat="45.04651" lon="5.82305">
        <ele>481.151717</ele>
        <time>2026-08-29T07:52:52.000Z</time>
      </trkpt>
      <trkpt lat="45.04649" lon="5.82308">
        <ele>481.348071</ele>
        <time>2026-08-29T07:52:53.000Z</time>
      </trkpt>
      <trkpt lat="45.04648" lon="5.82311">
        <ele>481.531995</ele>
        <time>2026-08-29T07:52:54.000Z</time>
      </trkpt>
      <trkpt lat="45.04646" lon="5.82313">
        <ele>481.717296</ele>
        <time>2026-08-29T07:52:55.000Z</time>
      </trkpt>
      <trkpt lat="45.04644" lon="5.82316">
        <ele>481.90122</ele>
        <time>2026-08-29T07:52:56.000Z</time>
      </trkpt>
      <trkpt lat="45.04643" lon="5.82319">
        <ele>482.110546</ele>
        <time>2026-08-29T07:52:57.000Z</time>
      </trkpt>
      <trkpt lat="45.04641" lon="5.82322">
        <ele>482.302437</ele>
        <time>2026-08-29T07:52:58.000Z</time>
      </trkpt>
      <trkpt lat="45.0464" lon="5.82325">
        <ele>482.511827</ele>
        <time>2026-08-29T07:52:59.000Z</time>
      </trkpt>
      <trkpt lat="45.04638" lon="5.82327">
        <ele>482.685765</ele>
        <time>2026-08-29T07:53:00.000Z</time>
      </trkpt>
      <trkpt lat="45.04637" lon="5.82331">
        <ele>482.891779</ele>
        <time>2026-08-29T07:53:01.000Z</time>
      </trkpt>
      <trkpt lat="45.04635" lon="5.82334">
        <ele>483.093076</ele>
        <time>2026-08-29T07:53:02.000Z</time>
      </trkpt>
      <trkpt lat="45.04633" lon="5.82336">
        <ele>483.314042</ele>
        <time>2026-08-29T07:53:03.000Z</time>
      </trkpt>
      <trkpt lat="45.04632" lon="5.82339">
        <ele>483.516452</ele>
        <time>2026-08-29T07:53:04.000Z</time>
      </trkpt>
      <trkpt lat="45.0463" lon="5.82342">
        <ele>483.712983</ele>
        <time>2026-08-29T07:53:05.000Z</time>
      </trkpt>
      <trkpt lat="45.04628" lon="5.82343">
        <ele>483.861282</ele>
        <time>2026-08-29T07:53:06.000Z</time>
      </trkpt>
      <trkpt lat="45.04627" lon="5.82346">
        <ele>484.061891</ele>
        <time>2026-08-29T07:53:07.000Z</time>
      </trkpt>
      <trkpt lat="45.04626" lon="5.82347">
        <ele>484.131325</ele>
        <time>2026-08-29T07:53:08.000Z</time>
      </trkpt>
      <trkpt lat="45.04625" lon="5.82349">
        <ele>484.301993</ele>
        <time>2026-08-29T07:53:09.000Z</time>
      </trkpt>
      <trkpt lat="45.04624" lon="5.8235">
        <ele>484.402886</ele>
        <time>2026-08-29T07:53:10.000Z</time>
      </trkpt>
      <trkpt lat="45.04622" lon="5.82352">
        <ele>484.551185</ele>
        <time>2026-08-29T07:53:11.000Z</time>
      </trkpt>
      <trkpt lat="45.0462" lon="5.82354">
        <ele>484.76226</ele>
        <time>2026-08-29T07:53:12.000Z</time>
      </trkpt>
      <trkpt lat="45.04618" lon="5.82356">
        <ele>484.914027</ele>
        <time>2026-08-29T07:53:13.000Z</time>
      </trkpt>
      <trkpt lat="45.04616" lon="5.8236">
        <ele>485.173558</ele>
        <time>2026-08-29T07:53:14.000Z</time>
      </trkpt>
      <trkpt lat="45.04614" lon="5.82362">
        <ele>485.364401</ele>
        <time>2026-08-29T07:53:15.000Z</time>
      </trkpt>
      <trkpt lat="45.04612" lon="5.82365">
        <ele>485.587052</ele>
        <time>2026-08-29T07:53:16.000Z</time>
      </trkpt>
      <trkpt lat="45.04611" lon="5.82368">
        <ele>485.801007</ele>
        <time>2026-08-29T07:53:17.000Z</time>
      </trkpt>
      <trkpt lat="45.04609" lon="5.82372">
        <ele>486.007021</ele>
        <time>2026-08-29T07:53:18.000Z</time>
      </trkpt>
      <trkpt lat="45.04608" lon="5.82375">
        <ele>486.225324</ele>
        <time>2026-08-29T07:53:19.000Z</time>
      </trkpt>
      <trkpt lat="45.04606" lon="5.82378">
        <ele>486.439077</ele>
        <time>2026-08-29T07:53:20.000Z</time>
      </trkpt>
      <trkpt lat="45.04604" lon="5.82381">
        <ele>486.679106</ele>
        <time>2026-08-29T07:53:21.000Z</time>
      </trkpt>
      <trkpt lat="45.04602" lon="5.82383">
        <ele>486.869949</ele>
        <time>2026-08-29T07:53:22.000Z</time>
      </trkpt>
      <trkpt lat="45.046" lon="5.82386">
        <ele>487.074869</ele>
        <time>2026-08-29T07:53:23.000Z</time>
      </trkpt>
      <trkpt lat="45.04598" lon="5.82388">
        <ele>487.28923</ele>
        <time>2026-08-29T07:53:24.000Z</time>
      </trkpt>
      <trkpt lat="45.04596" lon="5.8239">
        <ele>487.497531</ele>
        <time>2026-08-29T07:53:25.000Z</time>
      </trkpt>
      <trkpt lat="45.04593" lon="5.82393">
        <ele>487.705833</ele>
        <time>2026-08-29T07:53:26.000Z</time>
      </trkpt>
      <trkpt lat="45.04591" lon="5.82395">
        <ele>487.901941</ele>
        <time>2026-08-29T07:53:27.000Z</time>
      </trkpt>
      <trkpt lat="45.04589" lon="5.82396">
        <ele>488.092825</ele>
        <time>2026-08-29T07:53:28.000Z</time>
      </trkpt>
      <trkpt lat="45.04587" lon="5.82398">
        <ele>488.260722</ele>
        <time>2026-08-29T07:53:29.000Z</time>
      </trkpt>
      <trkpt lat="45.04585" lon="5.82399">
        <ele>488.44808</ele>
        <time>2026-08-29T07:53:30.000Z</time>
      </trkpt>
      <trkpt lat="45.04583" lon="5.82399">
        <ele>488.618647</ele>
        <time>2026-08-29T07:53:31.000Z</time>
      </trkpt>
      <trkpt lat="45.04581" lon="5.824">
        <ele>488.767789</ele>
        <time>2026-08-29T07:53:32.000Z</time>
      </trkpt>
      <trkpt lat="45.04578" lon="5.824">
        <ele>488.953325</ele>
        <time>2026-08-29T07:53:33.000Z</time>
      </trkpt>
      <trkpt lat="45.04576" lon="5.824">
        <ele>489.139821</ele>
        <time>2026-08-29T07:53:34.000Z</time>
      </trkpt>
      <trkpt lat="45.04574" lon="5.824">
        <ele>489.317403</ele>
        <time>2026-08-29T07:53:35.000Z</time>
      </trkpt>
      <trkpt lat="45.04571" lon="5.824">
        <ele>489.526411</ele>
        <time>2026-08-29T07:53:36.000Z</time>
      </trkpt>
      <trkpt lat="45.04568" lon="5.824">
        <ele>489.720573</ele>
        <time>2026-08-29T07:53:37.000Z</time>
      </trkpt>
      <trkpt lat="45.04566" lon="5.82399">
        <ele>489.909681</ele>
        <time>2026-08-29T07:53:38.000Z</time>
      </trkpt>
      <trkpt lat="45.04564" lon="5.82398">
        <ele>490.09246</ele>
        <time>2026-08-29T07:53:39.000Z</time>
      </trkpt>
      <trkpt lat="45.04561" lon="5.82397">
        <ele>490.281568</ele>
        <time>2026-08-29T07:53:40.000Z</time>
      </trkpt>
      <trkpt lat="45.04559" lon="5.82396">
        <ele>490.458299</ele>
        <time>2026-08-29T07:53:41.000Z</time>
      </trkpt>
      <trkpt lat="45.04557" lon="5.82396">
        <ele>490.624796</ele>
        <time>2026-08-29T07:53:42.000Z</time>
      </trkpt>
      <trkpt lat="45.04555" lon="5.82395">
        <ele>490.810481</ele>
        <time>2026-08-29T07:53:43.000Z</time>
      </trkpt>
      <trkpt lat="45.04552" lon="5.82394">
        <ele>491.006168</ele>
        <time>2026-08-29T07:53:44.000Z</time>
      </trkpt>
      <trkpt lat="45.0455" lon="5.82393">
        <ele>491.17836</ele>
        <time>2026-08-29T07:53:45.000Z</time>
      </trkpt>
      <trkpt lat="45.04548" lon="5.82392">
        <ele>491.365718</ele>
        <time>2026-08-29T07:53:46.000Z</time>
      </trkpt>
      <trkpt lat="45.04546" lon="5.82391">
        <ele>491.524714</ele>
        <time>2026-08-29T07:53:47.000Z</time>
      </trkpt>
      <trkpt lat="45.04543" lon="5.8239">
        <ele>491.722516</ele>
        <time>2026-08-29T07:53:48.000Z</time>
      </trkpt>
      <trkpt lat="45.04541" lon="5.82389">
        <ele>491.904072</ele>
        <time>2026-08-29T07:53:49.000Z</time>
      </trkpt>
      <trkpt lat="45.04539" lon="5.82389">
        <ele>492.089608</ele>
        <time>2026-08-29T07:53:50.000Z</time>
      </trkpt>
      <trkpt lat="45.04537" lon="5.82389">
        <ele>492.253949</ele>
        <time>2026-08-29T07:53:51.000Z</time>
      </trkpt>
      <trkpt lat="45.04535" lon="5.82388">
        <ele>492.392205</ele>
        <time>2026-08-29T07:53:52.000Z</time>
      </trkpt>
      <trkpt lat="45.04533" lon="5.82388">
        <ele>492.532077</ele>
        <time>2026-08-29T07:53:53.000Z</time>
      </trkpt>
      <trkpt lat="45.04531" lon="5.82389">
        <ele>492.725152</ele>
        <time>2026-08-29T07:53:54.000Z</time>
      </trkpt>
      <trkpt lat="45.04528" lon="5.8239">
        <ele>492.934575</ele>
        <time>2026-08-29T07:53:55.000Z</time>
      </trkpt>
      <trkpt lat="45.04526" lon="5.82392">
        <ele>493.146316</ele>
        <time>2026-08-29T07:53:56.000Z</time>
      </trkpt>
      <trkpt lat="45.04523" lon="5.82393">
        <ele>493.344633</ele>
        <time>2026-08-29T07:53:57.000Z</time>
      </trkpt>
      <trkpt lat="45.04521" lon="5.82395">
        <ele>493.547459</ele>
        <time>2026-08-29T07:53:58.000Z</time>
      </trkpt>
      <trkpt lat="45.04519" lon="5.82397">
        <ele>493.739807</ele>
        <time>2026-08-29T07:53:59.000Z</time>
      </trkpt>
      <trkpt lat="45.04517" lon="5.82399">
        <ele>493.923861</ele>
        <time>2026-08-29T07:54:00.000Z</time>
      </trkpt>
      <trkpt lat="45.04515" lon="5.82401">
        <ele>494.106598</ele>
        <time>2026-08-29T07:54:01.000Z</time>
      </trkpt>
      <trkpt lat="45.04513" lon="5.82403">
        <ele>494.302079</ele>
        <time>2026-08-29T07:54:02.000Z</time>
      </trkpt>
      <trkpt lat="45.04511" lon="5.82405">
        <ele>494.482001</ele>
        <time>2026-08-29T07:54:03.000Z</time>
      </trkpt>
      <trkpt lat="45.04509" lon="5.82407">
        <ele>494.682009</ele>
        <time>2026-08-29T07:54:04.000Z</time>
      </trkpt>
      <trkpt lat="45.04507" lon="5.8241">
        <ele>494.870729</ele>
        <time>2026-08-29T07:54:05.000Z</time>
      </trkpt>
      <trkpt lat="45.04505" lon="5.82411">
        <ele>495.061869</ele>
        <time>2026-08-29T07:54:06.000Z</time>
      </trkpt>
      <trkpt lat="45.04504" lon="5.82413">
        <ele>495.246473</ele>
        <time>2026-08-29T07:54:07.000Z</time>
      </trkpt>
      <trkpt lat="45.04502" lon="5.82416">
        <ele>495.456189</ele>
        <time>2026-08-29T07:54:08.000Z</time>
      </trkpt>
      <trkpt lat="45.045" lon="5.82418">
        <ele>495.647329</ele>
        <time>2026-08-29T07:54:09.000Z</time>
      </trkpt>
      <trkpt lat="45.04498" lon="5.82419">
        <ele>495.822766</ele>
        <time>2026-08-29T07:54:10.000Z</time>
      </trkpt>
      <trkpt lat="45.04496" lon="5.82421">
        <ele>496.014737</ele>
        <time>2026-08-29T07:54:11.000Z</time>
      </trkpt>
      <trkpt lat="45.04494" lon="5.82423">
        <ele>496.20281</ele>
        <time>2026-08-29T07:54:12.000Z</time>
      </trkpt>
      <trkpt lat="45.04491" lon="5.82425">
        <ele>496.411363</ele>
        <time>2026-08-29T07:54:13.000Z</time>
      </trkpt>
      <trkpt lat="45.04489" lon="5.82427">
        <ele>496.615872</ele>
        <time>2026-08-29T07:54:14.000Z</time>
      </trkpt>
      <trkpt lat="45.04487" lon="5.82428">
        <ele>496.827217</ele>
        <time>2026-08-29T07:54:15.000Z</time>
      </trkpt>
      <trkpt lat="45.04484" lon="5.82428">
        <ele>497.018402</ele>
        <time>2026-08-29T07:54:16.000Z</time>
      </trkpt>
      <trkpt lat="45.04482" lon="5.82428">
        <ele>497.200912</ele>
        <time>2026-08-29T07:54:17.000Z</time>
      </trkpt>
      <trkpt lat="45.04479" lon="5.82429">
        <ele>497.400555</ele>
        <time>2026-08-29T07:54:18.000Z</time>
      </trkpt>
      <trkpt lat="45.04477" lon="5.82429">
        <ele>497.587236</ele>
        <time>2026-08-29T07:54:19.000Z</time>
      </trkpt>
      <trkpt lat="45.04475" lon="5.82429">
        <ele>497.753969</ele>
        <time>2026-08-29T07:54:20.000Z</time>
      </trkpt>
      <trkpt lat="45.04472" lon="5.82429">
        <ele>497.968292</ele>
        <time>2026-08-29T07:54:21.000Z</time>
      </trkpt>
      <trkpt lat="45.0447" lon="5.82429">
        <ele>498.145102</ele>
        <time>2026-08-29T07:54:22.000Z</time>
      </trkpt>
      <trkpt lat="45.04468" lon="5.82429">
        <ele>498.335876</ele>
        <time>2026-08-29T07:54:23.000Z</time>
      </trkpt>
      <trkpt lat="45.04466" lon="5.82428">
        <ele>498.519233</ele>
        <time>2026-08-29T07:54:24.000Z</time>
      </trkpt>
      <trkpt lat="45.04463" lon="5.82427">
        <ele>498.734568</ele>
        <time>2026-08-29T07:54:25.000Z</time>
      </trkpt>
      <trkpt lat="45.04461" lon="5.82426">
        <ele>498.925495</ele>
        <time>2026-08-29T07:54:26.000Z</time>
      </trkpt>
      <trkpt lat="45.04458" lon="5.82425">
        <ele>499.122511</ele>
        <time>2026-08-29T07:54:27.000Z</time>
      </trkpt>
      <trkpt lat="45.04456" lon="5.82424">
        <ele>499.321036</ele>
        <time>2026-08-29T07:54:28.000Z</time>
      </trkpt>
      <trkpt lat="45.04454" lon="5.82423">
        <ele>499.498722</ele>
        <time>2026-08-29T07:54:29.000Z</time>
      </trkpt>
      <trkpt lat="45.04452" lon="5.82422">
        <ele>499.676407</ele>
        <time>2026-08-29T07:54:30.000Z</time>
      </trkpt>
      <trkpt lat="45.0445" lon="5.82421">
        <ele>499.8322</ele>
        <time>2026-08-29T07:54:31.000Z</time>
      </trkpt>
      <trkpt lat="45.04448" lon="5.8242">
        <ele>499.999662</ele>
        <time>2026-08-29T07:54:32.000Z</time>
      </trkpt>
      <trkpt lat="45.04446" lon="5.82419">
        <ele>500.183018</ele>
        <time>2026-08-29T07:54:33.000Z</time>
      </trkpt>
      <trkpt lat="45.04443" lon="5.82417">
        <ele>500.396771</ele>
        <time>2026-08-29T07:54:34.000Z</time>
      </trkpt>
      <trkpt lat="45.04441" lon="5.82415">
        <ele>500.578653</ele>
        <time>2026-08-29T07:54:35.000Z</time>
      </trkpt>
      <trkpt lat="45.04439" lon="5.82414">
        <ele>500.758361</ele>
        <time>2026-08-29T07:54:36.000Z</time>
      </trkpt>
      <trkpt lat="45.04437" lon="5.82413">
        <ele>500.940082</ele>
        <time>2026-08-29T07:54:37.000Z</time>
      </trkpt>
      <trkpt lat="45.04435" lon="5.82412">
        <ele>501.117767</ele>
        <time>2026-08-29T07:54:38.000Z</time>
      </trkpt>
      <trkpt lat="45.04433" lon="5.82411">
        <ele>501.307123</ele>
        <time>2026-08-29T07:54:39.000Z</time>
      </trkpt>
      <trkpt lat="45.04431" lon="5.8241">
        <ele>501.489005</ele>
        <time>2026-08-29T07:54:40.000Z</time>
      </trkpt>
      <trkpt lat="45.04428" lon="5.82409">
        <ele>501.687678</ele>
        <time>2026-08-29T07:54:41.000Z</time>
      </trkpt>
      <trkpt lat="45.04426" lon="5.82408">
        <ele>501.870531</ele>
        <time>2026-08-29T07:54:42.000Z</time>
      </trkpt>
      <trkpt lat="45.04424" lon="5.82407">
        <ele>502.052251</ele>
        <time>2026-08-29T07:54:43.000Z</time>
      </trkpt>
      <trkpt lat="45.04422" lon="5.82405">
        <ele>502.240148</ele>
        <time>2026-08-29T07:54:44.000Z</time>
      </trkpt>
      <trkpt lat="45.04421" lon="5.82402">
        <ele>502.448234</ele>
        <time>2026-08-29T07:54:45.000Z</time>
      </trkpt>
      <trkpt lat="45.04419" lon="5.824">
        <ele>502.646628</ele>
        <time>2026-08-29T07:54:46.000Z</time>
      </trkpt>
      <trkpt lat="45.04417" lon="5.82398">
        <ele>502.8386</ele>
        <time>2026-08-29T07:54:47.000Z</time>
      </trkpt>
      <trkpt lat="45.04414" lon="5.82397">
        <ele>503.035616</ele>
        <time>2026-08-29T07:54:48.000Z</time>
      </trkpt>
      <trkpt lat="45.04412" lon="5.82396">
        <ele>503.208185</ele>
        <time>2026-08-29T07:54:49.000Z</time>
      </trkpt>
      <trkpt lat="45.0441" lon="5.82396">
        <ele>503.405201</ele>
        <time>2026-08-29T07:54:50.000Z</time>
      </trkpt>
      <trkpt lat="45.04408" lon="5.82394">
        <ele>503.606056</ele>
        <time>2026-08-29T07:54:51.000Z</time>
      </trkpt>
      <trkpt lat="45.04406" lon="5.82392">
        <ele>503.790256</ele>
        <time>2026-08-29T07:54:52.000Z</time>
      </trkpt>
      <trkpt lat="45.04404" lon="5.82392">
        <ele>503.943609</ele>
        <time>2026-08-29T07:54:53.000Z</time>
      </trkpt>
      <trkpt lat="45.04402" lon="5.82391">
        <ele>504.104464</ele>
        <time>2026-08-29T07:54:54.000Z</time>
      </trkpt>
      <trkpt lat="45.044" lon="5.8239">
        <ele>504.260044</ele>
        <time>2026-08-29T07:54:55.000Z</time>
      </trkpt>
      <trkpt lat="45.04398" lon="5.82388">
        <ele>504.431759</ele>
        <time>2026-08-29T07:54:56.000Z</time>
      </trkpt>
      <trkpt lat="45.04396" lon="5.82386">
        <ele>504.6229</ele>
        <time>2026-08-29T07:54:57.000Z</time>
      </trkpt>
      <trkpt lat="45.04394" lon="5.82384">
        <ele>504.795539</ele>
        <time>2026-08-29T07:54:58.000Z</time>
      </trkpt>
      <trkpt lat="45.04393" lon="5.82381">
        <ele>505.005201</ele>
        <time>2026-08-29T07:54:59.000Z</time>
      </trkpt>
      <trkpt lat="45.04391" lon="5.82378">
        <ele>505.254202</ele>
        <time>2026-08-29T07:55:00.000Z</time>
      </trkpt>
      <trkpt lat="45.04389" lon="5.82376">
        <ele>505.442098</ele>
        <time>2026-08-29T07:55:01.000Z</time>
      </trkpt>
      <trkpt lat="45.04387" lon="5.82373">
        <ele>505.646588</ele>
        <time>2026-08-29T07:55:02.000Z</time>
      </trkpt>
      <trkpt lat="45.04385" lon="5.82372">
        <ele>505.824958</ele>
        <time>2026-08-29T07:55:03.000Z</time>
      </trkpt>
      <trkpt lat="45.04383" lon="5.82369">
        <ele>506.055082</ele>
        <time>2026-08-29T07:55:04.000Z</time>
      </trkpt>
      <trkpt lat="45.04381" lon="5.82368">
        <ele>506.244333</ele>
        <time>2026-08-29T07:55:05.000Z</time>
      </trkpt>
      <trkpt lat="45.04379" lon="5.82366">
        <ele>506.422703</ele>
        <time>2026-08-29T07:55:06.000Z</time>
      </trkpt>
      <trkpt lat="45.04377" lon="5.82364">
        <ele>506.602313</ele>
        <time>2026-08-29T07:55:07.000Z</time>
      </trkpt>
      <trkpt lat="45.04375" lon="5.82362">
        <ele>506.809798</ele>
        <time>2026-08-29T07:55:08.000Z</time>
      </trkpt>
      <trkpt lat="45.04373" lon="5.82361">
        <ele>507.00094</ele>
        <time>2026-08-29T07:55:09.000Z</time>
      </trkpt>
      <trkpt lat="45.0437" lon="5.82359">
        <ele>507.215145</ele>
        <time>2026-08-29T07:55:10.000Z</time>
      </trkpt>
      <trkpt lat="45.04368" lon="5.82357">
        <ele>507.423699</ele>
        <time>2026-08-29T07:55:11.000Z</time>
      </trkpt>
      <trkpt lat="45.04367" lon="5.82354">
        <ele>507.616271</ele>
        <time>2026-08-29T07:55:12.000Z</time>
      </trkpt>
      <trkpt lat="45.04364" lon="5.82353">
        <ele>507.829615</ele>
        <time>2026-08-29T07:55:13.000Z</time>
      </trkpt>
      <trkpt lat="45.04362" lon="5.82352">
        <ele>508.03963</ele>
        <time>2026-08-29T07:55:14.000Z</time>
      </trkpt>
      <trkpt lat="45.04359" lon="5.82351">
        <ele>508.239811</ele>
        <time>2026-08-29T07:55:15.000Z</time>
      </trkpt>
      <trkpt lat="45.04357" lon="5.8235">
        <ele>508.436827</ele>
        <time>2026-08-29T07:55:16.000Z</time>
      </trkpt>
      <trkpt lat="45.04354" lon="5.82349">
        <ele>508.629475</ele>
        <time>2026-08-29T07:55:17.000Z</time>
      </trkpt>
      <trkpt lat="45.04352" lon="5.82347">
        <ele>508.825828</ele>
        <time>2026-08-29T07:55:18.000Z</time>
      </trkpt>
      <trkpt lat="45.0435" lon="5.82345">
        <ele>509.047089</ele>
        <time>2026-08-29T07:55:19.000Z</time>
      </trkpt>
      <trkpt lat="45.04348" lon="5.82342">
        <ele>509.243424</ele>
        <time>2026-08-29T07:55:20.000Z</time>
      </trkpt>
      <trkpt lat="45.04346" lon="5.82338">
        <ele>509.481477</ele>
        <time>2026-08-29T07:55:21.000Z</time>
      </trkpt>
      <trkpt lat="45.04346" lon="5.82336">
        <ele>509.631551</ele>
        <time>2026-08-29T07:55:22.000Z</time>
      </trkpt>
      <trkpt lat="45.04345" lon="5.82334">
        <ele>509.773074</ele>
        <time>2026-08-29T07:55:23.000Z</time>
      </trkpt>
      <trkpt lat="45.04343" lon="5.82332">
        <ele>509.932513</ele>
        <time>2026-08-29T07:55:24.000Z</time>
      </trkpt>
      <trkpt lat="45.04342" lon="5.8233">
        <ele>510.078189</ele>
        <time>2026-08-29T07:55:25.000Z</time>
      </trkpt>
      <trkpt lat="45.04341" lon="5.82327">
        <ele>510.259458</ele>
        <time>2026-08-29T07:55:26.000Z</time>
      </trkpt>
      <trkpt lat="45.04339" lon="5.82324">
        <ele>510.435778</ele>
        <time>2026-08-29T07:55:27.000Z</time>
      </trkpt>
      <trkpt lat="45.04338" lon="5.82322">
        <ele>510.600205</ele>
        <time>2026-08-29T07:55:28.000Z</time>
      </trkpt>
      <trkpt lat="45.04337" lon="5.82319">
        <ele>510.7599</ele>
        <time>2026-08-29T07:55:29.000Z</time>
      </trkpt>
      <trkpt lat="45.04336" lon="5.82317">
        <ele>510.902312</ele>
        <time>2026-08-29T07:55:30.000Z</time>
      </trkpt>
      <trkpt lat="45.04335" lon="5.82313">
        <ele>511.103208</ele>
        <time>2026-08-29T07:55:31.000Z</time>
      </trkpt>
      <trkpt lat="45.04334" lon="5.82311">
        <ele>511.279527</ele>
        <time>2026-08-29T07:55:32.000Z</time>
      </trkpt>
      <trkpt lat="45.04333" lon="5.82308">
        <ele>511.453581</ele>
        <time>2026-08-29T07:55:33.000Z</time>
      </trkpt>
      <trkpt lat="45.04332" lon="5.82305">
        <ele>511.636668</ele>
        <time>2026-08-29T07:55:34.000Z</time>
      </trkpt>
      <trkpt lat="45.04331" lon="5.82301">
        <ele>511.842641</ele>
        <time>2026-08-29T07:55:35.000Z</time>
      </trkpt>
      <trkpt lat="45.0433" lon="5.82298">
        <ele>512.027885</ele>
        <time>2026-08-29T07:55:36.000Z</time>
      </trkpt>
      <trkpt lat="45.04328" lon="5.82295">
        <ele>512.221807</ele>
        <time>2026-08-29T07:55:37.000Z</time>
      </trkpt>
      <trkpt lat="45.04327" lon="5.82292">
        <ele>512.420904</ele>
        <time>2026-08-29T07:55:38.000Z</time>
      </trkpt>
      <trkpt lat="45.04325" lon="5.8229">
        <ele>512.630353</ele>
        <time>2026-08-29T07:55:39.000Z</time>
      </trkpt>
      <trkpt lat="45.04323" lon="5.82288">
        <ele>512.795256</ele>
        <time>2026-08-29T07:55:40.000Z</time>
      </trkpt>
      <trkpt lat="45.04322" lon="5.82285">
        <ele>512.984783</ele>
        <time>2026-08-29T07:55:41.000Z</time>
      </trkpt>
      <trkpt lat="45.0432" lon="5.82282">
        <ele>513.207255</ele>
        <time>2026-08-29T07:55:42.000Z</time>
      </trkpt>
      <trkpt lat="45.04318" lon="5.82279">
        <ele>513.427536</ele>
        <time>2026-08-29T07:55:43.000Z</time>
      </trkpt>
      <trkpt lat="45.04316" lon="5.82276">
        <ele>513.618607</ele>
        <time>2026-08-29T07:55:44.000Z</time>
      </trkpt>
      <trkpt lat="45.04315" lon="5.82274">
        <ele>513.799656</ele>
        <time>2026-08-29T07:55:45.000Z</time>
      </trkpt>
      <trkpt lat="45.04313" lon="5.82272">
        <ele>513.968481</ele>
        <time>2026-08-29T07:55:46.000Z</time>
      </trkpt>
      <trkpt lat="45.04311" lon="5.8227">
        <ele>514.145685</ele>
        <time>2026-08-29T07:55:47.000Z</time>
      </trkpt>
      <trkpt lat="45.0431" lon="5.82268">
        <ele>514.273474</ele>
        <time>2026-08-29T07:55:48.000Z</time>
      </trkpt>
      <trkpt lat="45.04308" lon="5.82269">
        <ele>514.449795</ele>
        <time>2026-08-29T07:55:49.000Z</time>
      </trkpt>
      <trkpt lat="45.04307" lon="5.82266">
        <ele>514.609465</ele>
        <time>2026-08-29T07:55:50.000Z</time>
      </trkpt>
      <trkpt lat="45.04305" lon="5.82267">
        <ele>514.72113</ele>
        <time>2026-08-29T07:55:51.000Z</time>
      </trkpt>
      <trkpt lat="45.04304" lon="5.82264">
        <ele>514.870935</ele>
        <time>2026-08-29T07:55:52.000Z</time>
      </trkpt>
      <trkpt lat="45.04303" lon="5.82262">
        <ele>515.025626</ele>
        <time>2026-08-29T07:55:53.000Z</time>
      </trkpt>
      <trkpt lat="45.04302" lon="5.82259">
        <ele>515.190054</ele>
        <time>2026-08-29T07:55:54.000Z</time>
      </trkpt>
      <trkpt lat="45.04301" lon="5.82257">
        <ele>515.332711</ele>
        <time>2026-08-29T07:55:55.000Z</time>
      </trkpt>
      <trkpt lat="45.043" lon="5.82255">
        <ele>515.482516</ele>
        <time>2026-08-29T07:55:56.000Z</time>
      </trkpt>
      <trkpt lat="45.04298" lon="5.82253">
        <ele>515.654317</ele>
        <time>2026-08-29T07:55:57.000Z</time>
      </trkpt>
      <trkpt lat="45.04296" lon="5.82247">
        <ele>516.004047</ele>
        <time>2026-08-29T07:55:58.000Z</time>
      </trkpt>
      <trkpt lat="45.04295" lon="5.82241">
        <ele>516.314529</ele>
        <time>2026-08-29T07:55:59.000Z</time>
      </trkpt>
      <trkpt lat="45.04294" lon="5.82237">
        <ele>516.581443</ele>
        <time>2026-08-29T07:56:00.000Z</time>
      </trkpt>
      <trkpt lat="45.04292" lon="5.82233">
        <ele>516.816225</ele>
        <time>2026-08-29T07:56:01.000Z</time>
      </trkpt>
      <trkpt lat="45.0429" lon="5.82231">
        <ele>517.016504</ele>
        <time>2026-08-29T07:56:02.000Z</time>
      </trkpt>
      <trkpt lat="45.04288" lon="5.8223">
        <ele>517.201185</ele>
        <time>2026-08-29T07:56:03.000Z</time>
      </trkpt>
      <trkpt lat="45.04286" lon="5.82227">
        <ele>517.382234</ele>
        <time>2026-08-29T07:56:04.000Z</time>
      </trkpt>
      <trkpt lat="45.04285" lon="5.82224">
        <ele>517.584893</ele>
        <time>2026-08-29T07:56:05.000Z</time>
      </trkpt>
      <trkpt lat="45.04283" lon="5.82221">
        <ele>517.774715</ele>
        <time>2026-08-29T07:56:06.000Z</time>
      </trkpt>
      <trkpt lat="45.04282" lon="5.82217">
        <ele>518.008267</ele>
        <time>2026-08-29T07:56:07.000Z</time>
      </trkpt>
      <trkpt lat="45.0428" lon="5.82214">
        <ele>518.210926</ele>
        <time>2026-08-29T07:56:08.000Z</time>
      </trkpt>
      <trkpt lat="45.04278" lon="5.82211">
        <ele>518.414172</ele>
        <time>2026-08-29T07:56:09.000Z</time>
      </trkpt>
      <trkpt lat="45.04277" lon="5.82209">
        <ele>518.586974</ele>
        <time>2026-08-29T07:56:10.000Z</time>
      </trkpt>
      <trkpt lat="45.04275" lon="5.82207">
        <ele>518.777242</ele>
        <time>2026-08-29T07:56:11.000Z</time>
      </trkpt>
      <trkpt lat="45.04273" lon="5.82205">
        <ele>518.966061</ele>
        <time>2026-08-29T07:56:12.000Z</time>
      </trkpt>
      <trkpt lat="45.04271" lon="5.82204">
        <ele>519.165915</ele>
        <time>2026-08-29T07:56:13.000Z</time>
      </trkpt>
      <trkpt lat="45.04268" lon="5.82203">
        <ele>519.33061</ele>
        <time>2026-08-29T07:56:14.000Z</time>
      </trkpt>
      <trkpt lat="45.04266" lon="5.82203">
        <ele>519.529746</ele>
        <time>2026-08-29T07:56:15.000Z</time>
      </trkpt>
      <trkpt lat="45.04263" lon="5.82203">
        <ele>519.728517</ele>
        <time>2026-08-29T07:56:16.000Z</time>
      </trkpt>
      <trkpt lat="45.04261" lon="5.82202">
        <ele>519.92306</ele>
        <time>2026-08-29T07:56:17.000Z</time>
      </trkpt>
      <trkpt lat="45.04259" lon="5.82201">
        <ele>520.103044</ele>
        <time>2026-08-29T07:56:18.000Z</time>
      </trkpt>
      <trkpt lat="45.04256" lon="5.822">
        <ele>520.283845</ele>
        <time>2026-08-29T07:56:19.000Z</time>
      </trkpt>
      <trkpt lat="45.04255" lon="5.82198">
        <ele>520.439872</ele>
        <time>2026-08-29T07:56:20.000Z</time>
      </trkpt>
      <trkpt lat="45.04253" lon="5.82197">
        <ele>520.605701</ele>
        <time>2026-08-29T07:56:21.000Z</time>
      </trkpt>
      <trkpt lat="45.0425" lon="5.82196">
        <ele>520.787865</ele>
        <time>2026-08-29T07:56:22.000Z</time>
      </trkpt>
      <trkpt lat="45.04248" lon="5.82196">
        <ele>520.988964</ele>
        <time>2026-08-29T07:56:23.000Z</time>
      </trkpt>
      <trkpt lat="45.04245" lon="5.82194">
        <ele>521.183271</ele>
        <time>2026-08-29T07:56:24.000Z</time>
      </trkpt>
      <trkpt lat="45.04243" lon="5.82193">
        <ele>521.379442</ele>
        <time>2026-08-29T07:56:25.000Z</time>
      </trkpt>
      <trkpt lat="45.04241" lon="5.82192">
        <ele>521.543241</ele>
        <time>2026-08-29T07:56:26.000Z</time>
      </trkpt>
      <trkpt lat="45.04238" lon="5.82191">
        <ele>521.757576</ele>
        <time>2026-08-29T07:56:27.000Z</time>
      </trkpt>
      <trkpt lat="45.04236" lon="5.8219">
        <ele>521.920137</ele>
        <time>2026-08-29T07:56:28.000Z</time>
      </trkpt>
      <trkpt lat="45.04233" lon="5.82189">
        <ele>522.163022</ele>
        <time>2026-08-29T07:56:29.000Z</time>
      </trkpt>
      <trkpt lat="45.04231" lon="5.82188">
        <ele>522.335156</ele>
        <time>2026-08-29T07:56:30.000Z</time>
      </trkpt>
      <trkpt lat="45.04229" lon="5.82186">
        <ele>522.528713</ele>
        <time>2026-08-29T07:56:31.000Z</time>
      </trkpt>
      <trkpt lat="45.04227" lon="5.82184">
        <ele>522.73697</ele>
        <time>2026-08-29T07:56:32.000Z</time>
      </trkpt>
      <trkpt lat="45.04225" lon="5.82183">
        <ele>522.920064</ele>
        <time>2026-08-29T07:56:33.000Z</time>
      </trkpt>
      <trkpt lat="45.04223" lon="5.82181">
        <ele>523.097702</ele>
        <time>2026-08-29T07:56:34.000Z</time>
      </trkpt>
      <trkpt lat="45.0422" lon="5.82179">
        <ele>523.322112</ele>
        <time>2026-08-29T07:56:35.000Z</time>
      </trkpt>
      <trkpt lat="45.04218" lon="5.82179">
        <ele>523.487758</ele>
        <time>2026-08-29T07:56:36.000Z</time>
      </trkpt>
      <trkpt lat="45.04216" lon="5.82177">
        <ele>523.65776</ele>
        <time>2026-08-29T07:56:37.000Z</time>
      </trkpt>
      <trkpt lat="45.04214" lon="5.82176">
        <ele>523.837485</ele>
        <time>2026-08-29T07:56:38.000Z</time>
      </trkpt>
      <trkpt lat="45.04212" lon="5.82175">
        <ele>524.026571</ele>
        <time>2026-08-29T07:56:39.000Z</time>
      </trkpt>
      <trkpt lat="45.0421" lon="5.82172">
        <ele>524.231259</ele>
        <time>2026-08-29T07:56:40.000Z</time>
      </trkpt>
      <trkpt lat="45.04208" lon="5.82172">
        <ele>524.427538</ele>
        <time>2026-08-29T07:56:41.000Z</time>
      </trkpt>
      <trkpt lat="45.04206" lon="5.82171">
        <ele>524.627299</ele>
        <time>2026-08-29T07:56:42.000Z</time>
      </trkpt>
      <trkpt lat="45.04203" lon="5.82169">
        <ele>524.844972</ele>
        <time>2026-08-29T07:56:43.000Z</time>
      </trkpt>
      <trkpt lat="45.04201" lon="5.82167">
        <ele>525.059781</ele>
        <time>2026-08-29T07:56:44.000Z</time>
      </trkpt>
      <trkpt lat="45.04199" lon="5.82165">
        <ele>525.259213</ele>
        <time>2026-08-29T07:56:45.000Z</time>
      </trkpt>
      <trkpt lat="45.04196" lon="5.82164">
        <ele>525.455929</ele>
        <time>2026-08-29T07:56:46.000Z</time>
      </trkpt>
      <trkpt lat="45.04194" lon="5.82163">
        <ele>525.661393</ele>
        <time>2026-08-29T07:56:47.000Z</time>
      </trkpt>
      <trkpt lat="45.04191" lon="5.82161">
        <ele>525.866857</ele>
        <time>2026-08-29T07:56:48.000Z</time>
      </trkpt>
      <trkpt lat="45.04189" lon="5.8216">
        <ele>526.041967</ele>
        <time>2026-08-29T07:56:49.000Z</time>
      </trkpt>
      <trkpt lat="45.04187" lon="5.82159">
        <ele>526.229069</ele>
        <time>2026-08-29T07:56:50.000Z</time>
      </trkpt>
      <trkpt lat="45.04185" lon="5.82158">
        <ele>526.417899</ele>
        <time>2026-08-29T07:56:51.000Z</time>
      </trkpt>
      <trkpt lat="45.04183" lon="5.82157">
        <ele>526.581009</ele>
        <time>2026-08-29T07:56:52.000Z</time>
      </trkpt>
      <trkpt lat="45.04181" lon="5.82157">
        <ele>526.761598</ele>
        <time>2026-08-29T07:56:53.000Z</time>
      </trkpt>
      <trkpt lat="45.04179" lon="5.82154">
        <ele>526.94347</ele>
        <time>2026-08-29T07:56:54.000Z</time>
      </trkpt>
      <trkpt lat="45.04176" lon="5.82153">
        <ele>527.165569</ele>
        <time>2026-08-29T07:56:55.000Z</time>
      </trkpt>
      <trkpt lat="45.04174" lon="5.82152">
        <ele>527.369294</ele>
        <time>2026-08-29T07:56:56.000Z</time>
      </trkpt>
      <trkpt lat="45.04172" lon="5.82151">
        <ele>527.569056</ele>
        <time>2026-08-29T07:56:57.000Z</time>
      </trkpt>
      <trkpt lat="45.0417" lon="5.82148">
        <ele>527.755708</ele>
        <time>2026-08-29T07:56:58.000Z</time>
      </trkpt>
      <trkpt lat="45.04168" lon="5.82147">
        <ele>527.942881</ele>
        <time>2026-08-29T07:56:59.000Z</time>
      </trkpt>
      <trkpt lat="45.04165" lon="5.82146">
        <ele>528.125996</ele>
        <time>2026-08-29T07:57:00.000Z</time>
      </trkpt>
      <trkpt lat="45.04163" lon="5.82146">
        <ele>528.33012</ele>
        <time>2026-08-29T07:57:01.000Z</time>
      </trkpt>
      <trkpt lat="45.0416" lon="5.82146">
        <ele>528.55778</ele>
        <time>2026-08-29T07:57:02.000Z</time>
      </trkpt>
      <trkpt lat="45.04157" lon="5.82145">
        <ele>528.763244</ele>
        <time>2026-08-29T07:57:03.000Z</time>
      </trkpt>
      <trkpt lat="45.04155" lon="5.82143">
        <ele>528.946359</ele>
        <time>2026-08-29T07:57:04.000Z</time>
      </trkpt>
      <trkpt lat="45.04153" lon="5.82143">
        <ele>529.132235</ele>
        <time>2026-08-29T07:57:05.000Z</time>
      </trkpt>
      <trkpt lat="45.04151" lon="5.82142">
        <ele>529.313504</ele>
        <time>2026-08-29T07:57:06.000Z</time>
      </trkpt>
      <trkpt lat="45.04148" lon="5.82143">
        <ele>529.519428</ele>
        <time>2026-08-29T07:57:07.000Z</time>
      </trkpt>
      <trkpt lat="45.04145" lon="5.82145">
        <ele>529.768122</ele>
        <time>2026-08-29T07:57:08.000Z</time>
      </trkpt>
      <trkpt lat="45.04143" lon="5.82148">
        <ele>530.024418</ele>
        <time>2026-08-29T07:57:09.000Z</time>
      </trkpt>
      <trkpt lat="45.0414" lon="5.82148">
        <ele>530.212852</ele>
        <time>2026-08-29T07:57:10.000Z</time>
      </trkpt>
      <trkpt lat="45.04137" lon="5.82148">
        <ele>530.424821</ele>
        <time>2026-08-29T07:57:11.000Z</time>
      </trkpt>
      <trkpt lat="45.04135" lon="5.82148">
        <ele>530.617132</ele>
        <time>2026-08-29T07:57:12.000Z</time>
      </trkpt>
      <trkpt lat="45.04133" lon="5.82149">
        <ele>530.817135</ele>
        <time>2026-08-29T07:57:13.000Z</time>
      </trkpt>
      <trkpt lat="45.0413" lon="5.8215">
        <ele>531.011988</ele>
        <time>2026-08-29T07:57:14.000Z</time>
      </trkpt>
      <trkpt lat="45.04128" lon="5.82151">
        <ele>531.201296</ele>
        <time>2026-08-29T07:57:15.000Z</time>
      </trkpt>
      <trkpt lat="45.04126" lon="5.82153">
        <ele>531.384411</ele>
        <time>2026-08-29T07:57:16.000Z</time>
      </trkpt>
      <trkpt lat="45.04123" lon="5.82154">
        <ele>531.573241</ele>
        <time>2026-08-29T07:57:17.000Z</time>
      </trkpt>
      <trkpt lat="45.04121" lon="5.82153">
        <ele>531.738887</ele>
        <time>2026-08-29T07:57:18.000Z</time>
      </trkpt>
      <trkpt lat="45.04119" lon="5.82155">
        <ele>531.945152</ele>
        <time>2026-08-29T07:57:19.000Z</time>
      </trkpt>
      <trkpt lat="45.04117" lon="5.82156">
        <ele>532.120985</ele>
        <time>2026-08-29T07:57:20.000Z</time>
      </trkpt>
      <trkpt lat="45.04115" lon="5.82156">
        <ele>532.305616</ele>
        <time>2026-08-29T07:57:21.000Z</time>
      </trkpt>
      <trkpt lat="45.04112" lon="5.82157">
        <ele>532.490247</ele>
        <time>2026-08-29T07:57:22.000Z</time>
      </trkpt>
      <trkpt lat="45.04109" lon="5.82161">
        <ele>532.815766</ele>
        <time>2026-08-29T07:57:23.000Z</time>
      </trkpt>
      <trkpt lat="45.04107" lon="5.82162">
        <ele>533.003043</ele>
        <time>2026-08-29T07:57:24.000Z</time>
      </trkpt>
      <trkpt lat="45.04105" lon="5.82164">
        <ele>533.206682</ele>
        <time>2026-08-29T07:57:25.000Z</time>
      </trkpt>
      <trkpt lat="45.04102" lon="5.82165">
        <ele>533.39599</ele>
        <time>2026-08-29T07:57:26.000Z</time>
      </trkpt>
      <trkpt lat="45.041" lon="5.82166">
        <ele>533.592482</ele>
        <time>2026-08-29T07:57:27.000Z</time>
      </trkpt>
      <trkpt lat="45.04098" lon="5.82167">
        <ele>533.779759</ele>
        <time>2026-08-29T07:57:28.000Z</time>
      </trkpt>
      <trkpt lat="45.04095" lon="5.82169">
        <ele>533.978508</ele>
        <time>2026-08-29T07:57:29.000Z</time>
      </trkpt>
      <trkpt lat="45.04093" lon="5.82169">
        <ele>534.144802</ele>
        <time>2026-08-29T07:57:30.000Z</time>
      </trkpt>
      <trkpt lat="45.04091" lon="5.82169">
        <ele>534.341002</ele>
        <time>2026-08-29T07:57:31.000Z</time>
      </trkpt>
      <trkpt lat="45.04088" lon="5.82171">
        <ele>534.568641</ele>
        <time>2026-08-29T07:57:32.000Z</time>
      </trkpt>
      <trkpt lat="45.04086" lon="5.8217">
        <ele>534.751262</ele>
        <time>2026-08-29T07:57:33.000Z</time>
      </trkpt>
      <trkpt lat="45.04083" lon="5.82168">
        <ele>534.964429</ele>
        <time>2026-08-29T07:57:34.000Z</time>
      </trkpt>
      <trkpt lat="45.04081" lon="5.82168">
        <ele>535.18092</ele>
        <time>2026-08-29T07:57:35.000Z</time>
      </trkpt>
      <trkpt lat="45.04078" lon="5.82168">
        <ele>535.37712</ele>
        <time>2026-08-29T07:57:36.000Z</time>
      </trkpt>
      <trkpt lat="45.04076" lon="5.82167">
        <ele>535.573399</ele>
        <time>2026-08-29T07:57:37.000Z</time>
      </trkpt>
      <trkpt lat="45.04073" lon="5.82168">
        <ele>535.780142</ele>
        <time>2026-08-29T07:57:38.000Z</time>
      </trkpt>
      <trkpt lat="45.0407" lon="5.8217">
        <ele>536.046492</ele>
        <time>2026-08-29T07:57:39.000Z</time>
      </trkpt>
      <trkpt lat="45.04068" lon="5.82169">
        <ele>536.22136</ele>
        <time>2026-08-29T07:57:40.000Z</time>
      </trkpt>
      <trkpt lat="45.04065" lon="5.82168">
        <ele>536.407236</ele>
        <time>2026-08-29T07:57:41.000Z</time>
      </trkpt>
      <trkpt lat="45.04063" lon="5.82168">
        <ele>536.595915</ele>
        <time>2026-08-29T07:57:42.000Z</time>
      </trkpt>
      <trkpt lat="45.04061" lon="5.82168">
        <ele>536.772398</ele>
        <time>2026-08-29T07:57:43.000Z</time>
      </trkpt>
      <trkpt lat="45.04059" lon="5.82168">
        <ele>536.95807</ele>
        <time>2026-08-29T07:57:44.000Z</time>
      </trkpt>
      <trkpt lat="45.04057" lon="5.82167">
        <ele>537.103054</ele>
        <time>2026-08-29T07:57:45.000Z</time>
      </trkpt>
      <trkpt lat="45.04055" lon="5.82166">
        <ele>537.289426</ele>
        <time>2026-08-29T07:57:46.000Z</time>
      </trkpt>
      <trkpt lat="45.04053" lon="5.82166">
        <ele>537.462291</ele>
        <time>2026-08-29T07:57:47.000Z</time>
      </trkpt>
      <trkpt lat="45.0405" lon="5.82165">
        <ele>537.665299</ele>
        <time>2026-08-29T07:57:48.000Z</time>
      </trkpt>
      <trkpt lat="45.04047" lon="5.82166">
        <ele>537.903701</ele>
        <time>2026-08-29T07:57:49.000Z</time>
      </trkpt>
      <trkpt lat="45.04045" lon="5.82166">
        <ele>538.113802</ele>
        <time>2026-08-29T07:57:50.000Z</time>
      </trkpt>
      <trkpt lat="45.04042" lon="5.82166">
        <ele>538.323671</ele>
        <time>2026-08-29T07:57:51.000Z</time>
      </trkpt>
      <trkpt lat="45.0404" lon="5.82166">
        <ele>538.510651</ele>
        <time>2026-08-29T07:57:52.000Z</time>
      </trkpt>
      <trkpt lat="45.04037" lon="5.82166">
        <ele>538.729182</ele>
        <time>2026-08-29T07:57:53.000Z</time>
      </trkpt>
      <trkpt lat="45.04035" lon="5.82165">
        <ele>538.892163</ele>
        <time>2026-08-29T07:57:54.000Z</time>
      </trkpt>
      <trkpt lat="45.04033" lon="5.82166">
        <ele>539.071138</ele>
        <time>2026-08-29T07:57:55.000Z</time>
      </trkpt>
      <trkpt lat="45.04031" lon="5.82165">
        <ele>539.258119</ele>
        <time>2026-08-29T07:57:56.000Z</time>
      </trkpt>
      <trkpt lat="45.04028" lon="5.82165">
        <ele>539.459841</ele>
        <time>2026-08-29T07:57:57.000Z</time>
      </trkpt>
      <trkpt lat="45.04026" lon="5.82166">
        <ele>539.662287</ele>
        <time>2026-08-29T07:57:58.000Z</time>
      </trkpt>
      <trkpt lat="45.04023" lon="5.82168">
        <ele>539.884182</ele>
        <time>2026-08-29T07:57:59.000Z</time>
      </trkpt>
      <trkpt lat="45.04021" lon="5.82169">
        <ele>540.080077</ele>
        <time>2026-08-29T07:58:00.000Z</time>
      </trkpt>
      <trkpt lat="45.04019" lon="5.8217">
        <ele>540.277872</ele>
        <time>2026-08-29T07:58:01.000Z</time>
      </trkpt>
      <trkpt lat="45.04016" lon="5.8217">
        <ele>540.464243</ele>
        <time>2026-08-29T07:58:02.000Z</time>
      </trkpt>
      <trkpt lat="45.04014" lon="5.8217">
        <ele>540.642125</ele>
        <time>2026-08-29T07:58:03.000Z</time>
      </trkpt>
      <trkpt lat="45.04012" lon="5.82171">
        <ele>540.812433</ele>
        <time>2026-08-29T07:58:04.000Z</time>
      </trkpt>
      <trkpt lat="45.0401" lon="5.8217">
        <ele>540.961647</ele>
        <time>2026-08-29T07:58:05.000Z</time>
      </trkpt>
      <trkpt lat="45.04007" lon="5.82172">
        <ele>541.217162</ele>
        <time>2026-08-29T07:58:06.000Z</time>
      </trkpt>
      <trkpt lat="45.04005" lon="5.82172">
        <ele>541.428881</ele>
        <time>2026-08-29T07:58:07.000Z</time>
      </trkpt>
      <trkpt lat="45.04002" lon="5.82173">
        <ele>541.635696</ele>
        <time>2026-08-29T07:58:08.000Z</time>
      </trkpt>
      <trkpt lat="45.04" lon="5.82174">
        <ele>541.839423</ele>
        <time>2026-08-29T07:58:09.000Z</time>
      </trkpt>
      <trkpt lat="45.03997" lon="5.82174">
        <ele>542.033412</ele>
        <time>2026-08-29T07:58:10.000Z</time>
      </trkpt>
      <trkpt lat="45.03995" lon="5.82174">
        <ele>542.211019</ele>
        <time>2026-08-29T07:58:11.000Z</time>
      </trkpt>
      <trkpt lat="45.03993" lon="5.82174">
        <ele>542.405427</ele>
        <time>2026-08-29T07:58:12.000Z</time>
      </trkpt>
      <trkpt lat="45.0399" lon="5.82174">
        <ele>542.591099</ele>
        <time>2026-08-29T07:58:13.000Z</time>
      </trkpt>
      <trkpt lat="45.03988" lon="5.82174">
        <ele>542.768706</ele>
        <time>2026-08-29T07:58:14.000Z</time>
      </trkpt>
      <trkpt lat="45.03986" lon="5.82174">
        <ele>542.954291</ele>
        <time>2026-08-29T07:58:15.000Z</time>
      </trkpt>
      <trkpt lat="45.03984" lon="5.82172">
        <ele>543.144097</ele>
        <time>2026-08-29T07:58:16.000Z</time>
      </trkpt>
      <trkpt lat="45.03981" lon="5.82173">
        <ele>543.395853</ele>
        <time>2026-08-29T07:58:17.000Z</time>
      </trkpt>
      <trkpt lat="45.03978" lon="5.82173">
        <ele>543.590844</ele>
        <time>2026-08-29T07:58:18.000Z</time>
      </trkpt>
      <trkpt lat="45.03976" lon="5.82172">
        <ele>543.781952</ele>
        <time>2026-08-29T07:58:19.000Z</time>
      </trkpt>
      <trkpt lat="45.03974" lon="5.82171">
        <ele>543.970221</ele>
        <time>2026-08-29T07:58:20.000Z</time>
      </trkpt>
      <trkpt lat="45.03972" lon="5.8217">
        <ele>544.135863</ele>
        <time>2026-08-29T07:58:21.000Z</time>
      </trkpt>
      <trkpt lat="45.0397" lon="5.82168">
        <ele>544.308708</ele>
        <time>2026-08-29T07:58:22.000Z</time>
      </trkpt>
      <trkpt lat="45.03967" lon="5.82169">
        <ele>544.519735</ele>
        <time>2026-08-29T07:58:23.000Z</time>
      </trkpt>
      <trkpt lat="45.03965" lon="5.82168">
        <ele>544.703017</ele>
        <time>2026-08-29T07:58:24.000Z</time>
      </trkpt>
      <trkpt lat="45.03963" lon="5.82168">
        <ele>544.880625</ele>
        <time>2026-08-29T07:58:25.000Z</time>
      </trkpt>
      <trkpt lat="45.0396" lon="5.82167">
        <ele>545.083071</ele>
        <time>2026-08-29T07:58:26.000Z</time>
      </trkpt>
      <trkpt lat="45.03958" lon="5.82167">
        <ele>545.260678</ele>
        <time>2026-08-29T07:58:27.000Z</time>
      </trkpt>
      <trkpt lat="45.03956" lon="5.82168">
        <ele>545.464405</ele>
        <time>2026-08-29T07:58:28.000Z</time>
      </trkpt>
      <trkpt lat="45.03954" lon="5.82168">
        <ele>545.634235</ele>
        <time>2026-08-29T07:58:29.000Z</time>
      </trkpt>
      <trkpt lat="45.03952" lon="5.82168">
        <ele>545.803778</ele>
        <time>2026-08-29T07:58:30.000Z</time>
      </trkpt>
      <trkpt lat="45.03949" lon="5.82167">
        <ele>545.976644</ele>
        <time>2026-08-29T07:58:31.000Z</time>
      </trkpt>
      <trkpt lat="45.03948" lon="5.82167">
        <ele>546.122888</ele>
        <time>2026-08-29T07:58:32.000Z</time>
      </trkpt>
      <trkpt lat="45.03946" lon="5.82167">
        <ele>546.235852</ele>
        <time>2026-08-29T07:58:33.000Z</time>
      </trkpt>
      <trkpt lat="45.03945" lon="5.82168">
        <ele>546.377225</ele>
        <time>2026-08-29T07:58:34.000Z</time>
      </trkpt>
      <trkpt lat="45.03943" lon="5.82168">
        <ele>546.533162</ele>
        <time>2026-08-29T07:58:35.000Z</time>
      </trkpt>
      <trkpt lat="45.0394" lon="5.82169">
        <ele>546.713944</ele>
        <time>2026-08-29T07:58:36.000Z</time>
      </trkpt>
      <trkpt lat="45.03938" lon="5.82171">
        <ele>546.959844</ele>
        <time>2026-08-29T07:58:37.000Z</time>
      </trkpt>
      <trkpt lat="45.03936" lon="5.82172">
        <ele>547.126084</ele>
        <time>2026-08-29T07:58:38.000Z</time>
      </trkpt>
      <trkpt lat="45.03934" lon="5.82173">
        <ele>547.304866</ele>
        <time>2026-08-29T07:58:39.000Z</time>
      </trkpt>
      <trkpt lat="45.03931" lon="5.82175">
        <ele>547.577502</ele>
        <time>2026-08-29T07:58:40.000Z</time>
      </trkpt>
      <trkpt lat="45.03928" lon="5.82177">
        <ele>547.837717</ele>
        <time>2026-08-29T07:58:41.000Z</time>
      </trkpt>
      <trkpt lat="45.03926" lon="5.82179">
        <ele>548.055536</ele>
        <time>2026-08-29T07:58:42.000Z</time>
      </trkpt>
      <trkpt lat="45.03924" lon="5.82182">
        <ele>548.283198</ele>
        <time>2026-08-29T07:58:43.000Z</time>
      </trkpt>
      <trkpt lat="45.03922" lon="5.82183">
        <ele>548.458481</ele>
        <time>2026-08-29T07:58:44.000Z</time>
      </trkpt>
      <trkpt lat="45.03919" lon="5.82184">
        <ele>548.643264</ele>
        <time>2026-08-29T07:58:45.000Z</time>
      </trkpt>
      <trkpt lat="45.03917" lon="5.82187">
        <ele>548.862397</ele>
        <time>2026-08-29T07:58:46.000Z</time>
      </trkpt>
      <trkpt lat="45.03916" lon="5.8219">
        <ele>549.077236</ele>
        <time>2026-08-29T07:58:47.000Z</time>
      </trkpt>
      <trkpt lat="45.03913" lon="5.82192">
        <ele>549.316017</ele>
        <time>2026-08-29T07:58:48.000Z</time>
      </trkpt>
      <trkpt lat="45.0391" lon="5.82193">
        <ele>549.554466</ele>
        <time>2026-08-29T07:58:49.000Z</time>
      </trkpt>
      <trkpt lat="45.03908" lon="5.82195">
        <ele>549.773634</ele>
        <time>2026-08-29T07:58:50.000Z</time>
      </trkpt>
      <trkpt lat="45.03905" lon="5.82197">
        <ele>550.011177</ele>
        <time>2026-08-29T07:58:51.000Z</time>
      </trkpt>
      <trkpt lat="45.03903" lon="5.82199">
        <ele>550.249626</ele>
        <time>2026-08-29T07:58:52.000Z</time>
      </trkpt>
      <trkpt lat="45.039" lon="5.82201">
        <ele>550.500185</ele>
        <time>2026-08-29T07:58:53.000Z</time>
      </trkpt>
      <trkpt lat="45.03897" lon="5.82204">
        <ele>550.770278</ele>
        <time>2026-08-29T07:58:54.000Z</time>
      </trkpt>
      <trkpt lat="45.03895" lon="5.82205">
        <ele>550.968074</ele>
        <time>2026-08-29T07:58:55.000Z</time>
      </trkpt>
      <trkpt lat="45.03893" lon="5.82206">
        <ele>551.157428</ele>
        <time>2026-08-29T07:58:56.000Z</time>
      </trkpt>
      <trkpt lat="45.03891" lon="5.82208">
        <ele>551.312114</ele>
        <time>2026-08-29T07:58:57.000Z</time>
      </trkpt>
      <trkpt lat="45.03888" lon="5.8221">
        <ele>551.472649</ele>
        <time>2026-08-29T07:58:58.000Z</time>
      </trkpt>
      <trkpt lat="45.03886" lon="5.82212">
        <ele>551.639574</ele>
        <time>2026-08-29T07:58:59.000Z</time>
      </trkpt>
      <trkpt lat="45.03884" lon="5.82213">
        <ele>551.759122</ele>
        <time>2026-08-29T07:59:00.000Z</time>
      </trkpt>
      <trkpt lat="45.03882" lon="5.82212">
        <ele>551.895817</ele>
        <time>2026-08-29T07:59:01.000Z</time>
      </trkpt>
      <trkpt lat="45.03879" lon="5.82212">
        <ele>552.032136</ele>
        <time>2026-08-29T07:59:02.000Z</time>
      </trkpt>
      <trkpt lat="45.03878" lon="5.82213">
        <ele>552.14507</ele>
        <time>2026-08-29T07:59:03.000Z</time>
      </trkpt>
      <trkpt lat="45.03875" lon="5.82212">
        <ele>552.296697</ele>
        <time>2026-08-29T07:59:04.000Z</time>
      </trkpt>
      <trkpt lat="45.03873" lon="5.82211">
        <ele>552.449301</ele>
        <time>2026-08-29T07:59:05.000Z</time>
      </trkpt>
      <trkpt lat="45.0387" lon="5.82211">
        <ele>552.621315</ele>
        <time>2026-08-29T07:59:06.000Z</time>
      </trkpt>
      <trkpt lat="45.03868" lon="5.8221">
        <ele>552.75864</ele>
        <time>2026-08-29T07:59:07.000Z</time>
      </trkpt>
      <trkpt lat="45.03865" lon="5.82208">
        <ele>552.910663</ele>
        <time>2026-08-29T07:59:08.000Z</time>
      </trkpt>
      <trkpt lat="45.03863" lon="5.82207">
        <ele>553.07523</ele>
        <time>2026-08-29T07:59:09.000Z</time>
      </trkpt>
      <trkpt lat="45.0386" lon="5.82206">
        <ele>553.222107</ele>
        <time>2026-08-29T07:59:10.000Z</time>
      </trkpt>
      <trkpt lat="45.03858" lon="5.82205">
        <ele>553.354575</ele>
        <time>2026-08-29T07:59:11.000Z</time>
      </trkpt>
      <trkpt lat="45.03856" lon="5.82204">
        <ele>553.501453</ele>
        <time>2026-08-29T07:59:12.000Z</time>
      </trkpt>
      <trkpt lat="45.03854" lon="5.82202">
        <ele>553.62337</ele>
        <time>2026-08-29T07:59:13.000Z</time>
      </trkpt>
      <trkpt lat="45.03852" lon="5.822">
        <ele>553.744148</ele>
        <time>2026-08-29T07:59:14.000Z</time>
      </trkpt>
      <trkpt lat="45.0385" lon="5.82199">
        <ele>553.876146</ele>
        <time>2026-08-29T07:59:15.000Z</time>
      </trkpt>
      <trkpt lat="45.03848" lon="5.82198">
        <ele>554.006344</ele>
        <time>2026-08-29T07:59:16.000Z</time>
      </trkpt>
      <trkpt lat="45.03847" lon="5.82196">
        <ele>554.129486</ele>
        <time>2026-08-29T07:59:17.000Z</time>
      </trkpt>
      <trkpt lat="45.03845" lon="5.82195">
        <ele>554.268965</ele>
        <time>2026-08-29T07:59:18.000Z</time>
      </trkpt>
      <trkpt lat="45.03842" lon="5.82195">
        <ele>554.423284</ele>
        <time>2026-08-29T07:59:19.000Z</time>
      </trkpt>
      <trkpt lat="45.0384" lon="5.82195">
        <ele>554.565324</ele>
        <time>2026-08-29T07:59:20.000Z</time>
      </trkpt>
      <trkpt lat="45.03837" lon="5.82194">
        <ele>554.715329</ele>
        <time>2026-08-29T07:59:21.000Z</time>
      </trkpt>
      <trkpt lat="45.03834" lon="5.82194">
        <ele>554.894027</ele>
        <time>2026-08-29T07:59:22.000Z</time>
      </trkpt>
      <trkpt lat="45.03831" lon="5.82193">
        <ele>555.055114</ele>
        <time>2026-08-29T07:59:23.000Z</time>
      </trkpt>
      <trkpt lat="45.03829" lon="5.82192">
        <ele>555.211682</ele>
        <time>2026-08-29T07:59:24.000Z</time>
      </trkpt>
      <trkpt lat="45.03826" lon="5.82192">
        <ele>555.377797</ele>
        <time>2026-08-29T07:59:25.000Z</time>
      </trkpt>
      <trkpt lat="45.03823" lon="5.82191">
        <ele>555.529424</ele>
        <time>2026-08-29T07:59:26.000Z</time>
      </trkpt>
      <trkpt lat="45.03821" lon="5.8219">
        <ele>555.686986</ele>
        <time>2026-08-29T07:59:27.000Z</time>
      </trkpt>
      <trkpt lat="45.03818" lon="5.82189">
        <ele>555.848668</ele>
        <time>2026-08-29T07:59:28.000Z</time>
      </trkpt>
      <trkpt lat="45.03815" lon="5.8219">
        <ele>556.01452</ele>
        <time>2026-08-29T07:59:29.000Z</time>
      </trkpt>
      <trkpt lat="45.03814" lon="5.82189">
        <ele>556.128845</ele>
        <time>2026-08-29T07:59:30.000Z</time>
      </trkpt>
      <trkpt lat="45.03811" lon="5.82189">
        <ele>556.278209</ele>
        <time>2026-08-29T07:59:31.000Z</time>
      </trkpt>
      <trkpt lat="45.03809" lon="5.82187">
        <ele>556.419245</ele>
        <time>2026-08-29T07:59:32.000Z</time>
      </trkpt>
      <trkpt lat="45.03806" lon="5.82186">
        <ele>556.589354</ele>
        <time>2026-08-29T07:59:33.000Z</time>
      </trkpt>
      <trkpt lat="45.03804" lon="5.82184">
        <ele>556.733818</ele>
        <time>2026-08-29T07:59:34.000Z</time>
      </trkpt>
      <trkpt lat="45.03802" lon="5.82182">
        <ele>556.890908</ele>
        <time>2026-08-29T07:59:35.000Z</time>
      </trkpt>
      <trkpt lat="45.038" lon="5.82179">
        <ele>557.056226</ele>
        <time>2026-08-29T07:59:36.000Z</time>
      </trkpt>
      <trkpt lat="45.03798" lon="5.82177">
        <ele>557.20035</ele>
        <time>2026-08-29T07:59:37.000Z</time>
      </trkpt>
      <trkpt lat="45.03796" lon="5.82174">
        <ele>557.365668</ele>
        <time>2026-08-29T07:59:38.000Z</time>
      </trkpt>
      <trkpt lat="45.03794" lon="5.82172">
        <ele>557.520354</ele>
        <time>2026-08-29T07:59:39.000Z</time>
      </trkpt>
      <trkpt lat="45.03792" lon="5.8217">
        <ele>557.697452</ele>
        <time>2026-08-29T07:59:40.000Z</time>
      </trkpt>
      <trkpt lat="45.03789" lon="5.82169">
        <ele>557.88316</ele>
        <time>2026-08-29T07:59:41.000Z</time>
      </trkpt>
      <trkpt lat="45.03786" lon="5.82169">
        <ele>558.049012</ele>
        <time>2026-08-29T07:59:42.000Z</time>
      </trkpt>
      <trkpt lat="45.03783" lon="5.82169">
        <ele>558.226926</ele>
        <time>2026-08-29T07:59:43.000Z</time>
      </trkpt>
      <trkpt lat="45.0378" lon="5.8217">
        <ele>558.401712</ele>
        <time>2026-08-29T07:59:44.000Z</time>
      </trkpt>
      <trkpt lat="45.03776" lon="5.82171">
        <ele>558.611188</ele>
        <time>2026-08-29T07:59:45.000Z</time>
      </trkpt>
      <trkpt lat="45.03773" lon="5.82173">
        <ele>558.807368</ele>
        <time>2026-08-29T07:59:46.000Z</time>
      </trkpt>
      <trkpt lat="45.03771" lon="5.82176">
        <ele>559.005483</ele>
        <time>2026-08-29T07:59:47.000Z</time>
      </trkpt>
      <trkpt lat="45.03768" lon="5.82179">
        <ele>559.20212</ele>
        <time>2026-08-29T07:59:48.000Z</time>
      </trkpt>
      <trkpt lat="45.03766" lon="5.82182">
        <ele>559.39588</ele>
        <time>2026-08-29T07:59:49.000Z</time>
      </trkpt>
      <trkpt lat="45.03763" lon="5.82186">
        <ele>559.632547</ele>
        <time>2026-08-29T07:59:50.000Z</time>
      </trkpt>
      <trkpt lat="45.0376" lon="5.8219">
        <ele>559.854888</ele>
        <time>2026-08-29T07:59:51.000Z</time>
      </trkpt>
      <trkpt lat="45.03757" lon="5.82193">
        <ele>560.081515</ele>
        <time>2026-08-29T07:59:52.000Z</time>
      </trkpt>
      <trkpt lat="45.03755" lon="5.82197">
        <ele>560.278152</ele>
        <time>2026-08-29T07:59:53.000Z</time>
      </trkpt>
      <trkpt lat="45.03753" lon="5.82199">
        <ele>560.452296</ele>
        <time>2026-08-29T07:59:54.000Z</time>
      </trkpt>
      <trkpt lat="45.0375" lon="5.82202">
        <ele>560.636301</ele>
        <time>2026-08-29T07:59:55.000Z</time>
      </trkpt>
      <trkpt lat="45.03747" lon="5.82205">
        <ele>560.846612</ele>
        <time>2026-08-29T07:59:56.000Z</time>
      </trkpt>
      <trkpt lat="45.03744" lon="5.82209">
        <ele>561.087601</ele>
        <time>2026-08-29T07:59:57.000Z</time>
      </trkpt>
      <trkpt lat="45.03742" lon="5.82213">
        <ele>561.304642</ele>
        <time>2026-08-29T07:59:58.000Z</time>
      </trkpt>
      <trkpt lat="45.0374" lon="5.82216">
        <ele>561.511536</ele>
        <time>2026-08-29T07:59:59.000Z</time>
      </trkpt>
      <trkpt lat="45.03737" lon="5.8222">
        <ele>561.738731</ele>
        <time>2026-08-29T08:00:00.000Z</time>
      </trkpt>
      <trkpt lat="45.03735" lon="5.82224">
        <ele>562.00497</ele>
        <time>2026-08-29T08:00:01.000Z</time>
      </trkpt>
      <trkpt lat="45.03733" lon="5.82228">
        <ele>562.281621</ele>
        <time>2026-08-29T08:00:02.000Z</time>
      </trkpt>
      <trkpt lat="45.03731" lon="5.82233">
        <ele>562.542303</ele>
        <time>2026-08-29T08:00:03.000Z</time>
      </trkpt>
      <trkpt lat="45.0373" lon="5.82237">
        <ele>562.799974</ele>
        <time>2026-08-29T08:00:04.000Z</time>
      </trkpt>
      <trkpt lat="45.0373" lon="5.82242">
        <ele>563.068126</ele>
        <time>2026-08-29T08:00:05.000Z</time>
      </trkpt>
      <trkpt lat="45.03729" lon="5.82247">
        <ele>563.31956</ele>
        <time>2026-08-29T08:00:06.000Z</time>
      </trkpt>
      <trkpt lat="45.03731" lon="5.82249">
        <ele>563.502599</ele>
        <time>2026-08-29T08:00:07.000Z</time>
      </trkpt>
      <trkpt lat="45.03731" lon="5.82253">
        <ele>563.727735</ele>
        <time>2026-08-29T08:00:08.000Z</time>
      </trkpt>
      <trkpt lat="45.03732" lon="5.82257">
        <ele>563.946694</ele>
        <time>2026-08-29T08:00:09.000Z</time>
      </trkpt>
      <trkpt lat="45.03733" lon="5.82261">
        <ele>564.171046</ele>
        <time>2026-08-29T08:00:10.000Z</time>
      </trkpt>
      <trkpt lat="45.03735" lon="5.82263">
        <ele>564.356701</ele>
        <time>2026-08-29T08:00:11.000Z</time>
      </trkpt>
      <trkpt lat="45.03737" lon="5.82265">
        <ele>564.531703</ele>
        <time>2026-08-29T08:00:12.000Z</time>
      </trkpt>
      <trkpt lat="45.03739" lon="5.82266">
        <ele>564.693206</ele>
        <time>2026-08-29T08:00:13.000Z</time>
      </trkpt>
      <trkpt lat="45.03741" lon="5.82267">
        <ele>564.826322</ele>
        <time>2026-08-29T08:00:14.000Z</time>
      </trkpt>
      <trkpt lat="45.03742" lon="5.82268">
        <ele>564.970844</ele>
        <time>2026-08-29T08:00:15.000Z</time>
      </trkpt>
      <trkpt lat="45.03744" lon="5.82269">
        <ele>565.089989</ele>
        <time>2026-08-29T08:00:16.000Z</time>
      </trkpt>
      <trkpt lat="45.03746" lon="5.82272">
        <ele>565.292786</ele>
        <time>2026-08-29T08:00:17.000Z</time>
      </trkpt>
      <trkpt lat="45.03747" lon="5.82274">
        <ele>565.463057</ele>
        <time>2026-08-29T08:00:18.000Z</time>
      </trkpt>
      <trkpt lat="45.03748" lon="5.82276">
        <ele>565.614893</ele>
        <time>2026-08-29T08:00:19.000Z</time>
      </trkpt>
      <trkpt lat="45.0375" lon="5.82278">
        <ele>565.785053</ele>
        <time>2026-08-29T08:00:20.000Z</time>
      </trkpt>
      <trkpt lat="45.03752" lon="5.82279">
        <ele>565.964527</ele>
        <time>2026-08-29T08:00:21.000Z</time>
      </trkpt>
      <trkpt lat="45.03754" lon="5.82279">
        <ele>566.111829</ele>
        <time>2026-08-29T08:00:22.000Z</time>
      </trkpt>
      <trkpt lat="45.03756" lon="5.8228">
        <ele>566.258707</ele>
        <time>2026-08-29T08:00:23.000Z</time>
      </trkpt>
      <trkpt lat="45.03757" lon="5.82282">
        <ele>566.429645</ele>
        <time>2026-08-29T08:00:24.000Z</time>
      </trkpt>
      <trkpt lat="45.03759" lon="5.82282">
        <ele>566.579061</ele>
        <time>2026-08-29T08:00:25.000Z</time>
      </trkpt>
      <trkpt lat="45.03761" lon="5.82283">
        <ele>566.693858</ele>
        <time>2026-08-29T08:00:26.000Z</time>
      </trkpt>
      <trkpt lat="45.03762" lon="5.82288">
        <ele>566.977466</ele>
        <time>2026-08-29T08:00:27.000Z</time>
      </trkpt>
      <trkpt lat="45.03765" lon="5.82287">
        <ele>567.196414</ele>
        <time>2026-08-29T08:00:28.000Z</time>
      </trkpt>
      <trkpt lat="45.03768" lon="5.82289">
        <ele>567.411047</ele>
        <time>2026-08-29T08:00:29.000Z</time>
      </trkpt>
      <trkpt lat="45.03772" lon="5.82291">
        <ele>567.755439</ele>
        <time>2026-08-29T08:00:30.000Z</time>
      </trkpt>
      <trkpt lat="45.03775" lon="5.82294">
        <ele>568.067921</ele>
        <time>2026-08-29T08:00:31.000Z</time>
      </trkpt>
      <trkpt lat="45.03779" lon="5.82296">
        <ele>568.359749</ele>
        <time>2026-08-29T08:00:32.000Z</time>
      </trkpt>
      <trkpt lat="45.03782" lon="5.82298">
        <ele>568.648793</ele>
        <time>2026-08-29T08:00:33.000Z</time>
      </trkpt>
      <trkpt lat="45.03785" lon="5.823">
        <ele>568.858795</ele>
        <time>2026-08-29T08:00:34.000Z</time>
      </trkpt>
      <trkpt lat="45.03787" lon="5.82301">
        <ele>569.074574</ele>
        <time>2026-08-29T08:00:35.000Z</time>
      </trkpt>
      <trkpt lat="45.0379" lon="5.82302">
        <ele>569.266056</ele>
        <time>2026-08-29T08:00:36.000Z</time>
      </trkpt>
      <trkpt lat="45.03792" lon="5.82303">
        <ele>569.42412</ele>
        <time>2026-08-29T08:00:37.000Z</time>
      </trkpt>
      <trkpt lat="45.03794" lon="5.82305">
        <ele>569.603992</ele>
        <time>2026-08-29T08:00:38.000Z</time>
      </trkpt>
      <trkpt lat="45.03795" lon="5.82305">
        <ele>569.744863</ele>
        <time>2026-08-29T08:00:39.000Z</time>
      </trkpt>
      <trkpt lat="45.03799" lon="5.82306">
        <ele>570.016838</ele>
        <time>2026-08-29T08:00:40.000Z</time>
      </trkpt>
      <trkpt lat="45.03801" lon="5.82307">
        <ele>570.204541</ele>
        <time>2026-08-29T08:00:41.000Z</time>
      </trkpt>
      <trkpt lat="45.03804" lon="5.82308">
        <ele>570.414481</ele>
        <time>2026-08-29T08:00:42.000Z</time>
      </trkpt>
      <trkpt lat="45.03806" lon="5.8231">
        <ele>570.600978</ele>
        <time>2026-08-29T08:00:43.000Z</time>
      </trkpt>
      <trkpt lat="45.03808" lon="5.82309">
        <ele>570.787255</ele>
        <time>2026-08-29T08:00:44.000Z</time>
      </trkpt>
      <trkpt lat="45.03812" lon="5.82311">
        <ele>571.084313</ele>
        <time>2026-08-29T08:00:45.000Z</time>
      </trkpt>
      <trkpt lat="45.03815" lon="5.82313">
        <ele>571.389694</ele>
        <time>2026-08-29T08:00:46.000Z</time>
      </trkpt>
      <trkpt lat="45.03818" lon="5.82315">
        <ele>571.577397</ele>
        <time>2026-08-29T08:00:47.000Z</time>
      </trkpt>
      <trkpt lat="45.03822" lon="5.82315">
        <ele>571.871647</ele>
        <time>2026-08-29T08:00:48.000Z</time>
      </trkpt>
      <trkpt lat="45.03824" lon="5.82315">
        <ele>572.082175</ele>
        <time>2026-08-29T08:00:49.000Z</time>
      </trkpt>
      <trkpt lat="45.03829" lon="5.82316">
        <ele>572.441992</ele>
        <time>2026-08-29T08:00:50.000Z</time>
      </trkpt>
      <trkpt lat="45.03832" lon="5.82317">
        <ele>572.686658</ele>
        <time>2026-08-29T08:00:51.000Z</time>
      </trkpt>
      <trkpt lat="45.03835" lon="5.82318">
        <ele>572.937002</ele>
        <time>2026-08-29T08:00:52.000Z</time>
      </trkpt>
      <trkpt lat="45.03839" lon="5.82318">
        <ele>573.215386</ele>
        <time>2026-08-29T08:00:53.000Z</time>
      </trkpt>
      <trkpt lat="45.03843" lon="5.8232">
        <ele>573.565579</ele>
        <time>2026-08-29T08:00:54.000Z</time>
      </trkpt>
      <trkpt lat="45.03847" lon="5.82322">
        <ele>573.895813</ele>
        <time>2026-08-29T08:00:55.000Z</time>
      </trkpt>
      <trkpt lat="45.0385" lon="5.82324">
        <ele>574.18669</ele>
        <time>2026-08-29T08:00:56.000Z</time>
      </trkpt>
      <trkpt lat="45.03854" lon="5.82325">
        <ele>574.44129</ele>
        <time>2026-08-29T08:00:57.000Z</time>
      </trkpt>
      <trkpt lat="45.03856" lon="5.82328">
        <ele>574.675498</ele>
        <time>2026-08-29T08:00:58.000Z</time>
      </trkpt>
      <trkpt lat="45.0386" lon="5.82329">
        <ele>574.970691</ele>
        <time>2026-08-29T08:00:59.000Z</time>
      </trkpt>
      <trkpt lat="45.03863" lon="5.82332">
        <ele>575.28426</ele>
        <time>2026-08-29T08:01:00.000Z</time>
      </trkpt>
      <trkpt lat="45.03867" lon="5.82335">
        <ele>575.603797</ele>
        <time>2026-08-29T08:01:01.000Z</time>
      </trkpt>
      <trkpt lat="45.03869" lon="5.82337">
        <ele>575.815005</ele>
        <time>2026-08-29T08:01:02.000Z</time>
      </trkpt>
      <trkpt lat="45.03872" lon="5.82339">
        <ele>576.042664</ele>
        <time>2026-08-29T08:01:03.000Z</time>
      </trkpt>
      <trkpt lat="45.03875" lon="5.8234">
        <ele>576.258345</ele>
        <time>2026-08-29T08:01:04.000Z</time>
      </trkpt>
      <trkpt lat="45.03878" lon="5.82341">
        <ele>576.479728</ele>
        <time>2026-08-29T08:01:05.000Z</time>
      </trkpt>
      <trkpt lat="45.0388" lon="5.82343">
        <ele>576.683677</ele>
        <time>2026-08-29T08:01:06.000Z</time>
      </trkpt>
      <trkpt lat="45.03883" lon="5.82344">
        <ele>576.899723</ele>
        <time>2026-08-29T08:01:07.000Z</time>
      </trkpt>
      <trkpt lat="45.03885" lon="5.82345">
        <ele>577.052096</ele>
        <time>2026-08-29T08:01:08.000Z</time>
      </trkpt>
      <trkpt lat="45.03887" lon="5.82346">
        <ele>577.211358</ele>
        <time>2026-08-29T08:01:09.000Z</time>
      </trkpt>
      <trkpt lat="45.0389" lon="5.82347">
        <ele>577.405859</ele>
        <time>2026-08-29T08:01:10.000Z</time>
      </trkpt>
      <trkpt lat="45.03892" lon="5.82349">
        <ele>577.603771</ele>
        <time>2026-08-29T08:01:11.000Z</time>
      </trkpt>
      <trkpt lat="45.03894" lon="5.82351">
        <ele>577.811814</ele>
        <time>2026-08-29T08:01:12.000Z</time>
      </trkpt>
      <trkpt lat="45.03896" lon="5.82353">
        <ele>577.977251</ele>
        <time>2026-08-29T08:01:13.000Z</time>
      </trkpt>
      <trkpt lat="45.03899" lon="5.82354">
        <ele>578.165164</ele>
        <time>2026-08-29T08:01:14.000Z</time>
      </trkpt>
      <trkpt lat="45.03901" lon="5.82355">
        <ele>578.315051</ele>
        <time>2026-08-29T08:01:15.000Z</time>
      </trkpt>
      <trkpt lat="45.03902" lon="5.82355">
        <ele>578.439793</ele>
        <time>2026-08-29T08:01:16.000Z</time>
      </trkpt>
      <trkpt lat="45.03904" lon="5.82355">
        <ele>578.59384</ele>
        <time>2026-08-29T08:01:17.000Z</time>
      </trkpt>
      <trkpt lat="45.03907" lon="5.82355">
        <ele>578.756457</ele>
        <time>2026-08-29T08:01:18.000Z</time>
      </trkpt>
      <trkpt lat="45.03908" lon="5.82356">
        <ele>578.860267</ele>
        <time>2026-08-29T08:01:19.000Z</time>
      </trkpt>
      <trkpt lat="45.0391" lon="5.82356">
        <ele>578.999564</ele>
        <time>2026-08-29T08:01:20.000Z</time>
      </trkpt>
      <trkpt lat="45.03911" lon="5.82355">
        <ele>579.104275</ele>
        <time>2026-08-29T08:01:21.000Z</time>
      </trkpt>
      <trkpt lat="45.03913" lon="5.82355">
        <ele>579.239851</ele>
        <time>2026-08-29T08:01:22.000Z</time>
      </trkpt>
      <trkpt lat="45.03915" lon="5.82354">
        <ele>579.402468</ele>
        <time>2026-08-29T08:01:23.000Z</time>
      </trkpt>
      <trkpt lat="45.03917" lon="5.82355">
        <ele>579.513514</ele>
        <time>2026-08-29T08:01:24.000Z</time>
      </trkpt>
      <trkpt lat="45.03918" lon="5.82356">
        <ele>579.619372</ele>
        <time>2026-08-29T08:01:25.000Z</time>
      </trkpt>
      <trkpt lat="45.0392" lon="5.82355">
        <ele>579.752955</ele>
        <time>2026-08-29T08:01:26.000Z</time>
      </trkpt>
      <trkpt lat="45.03922" lon="5.82355">
        <ele>579.899675</ele>
        <time>2026-08-29T08:01:27.000Z</time>
      </trkpt>
      <trkpt lat="45.03924" lon="5.82355">
        <ele>580.025274</ele>
        <time>2026-08-29T08:01:28.000Z</time>
      </trkpt>
      <trkpt lat="45.03925" lon="5.82354">
        <ele>580.152571</ele>
        <time>2026-08-29T08:01:29.000Z</time>
      </trkpt>
      <trkpt lat="45.03927" lon="5.82353">
        <ele>580.30119</ele>
        <time>2026-08-29T08:01:30.000Z</time>
      </trkpt>
      <trkpt lat="45.03929" lon="5.82353">
        <ele>580.44864</ele>
        <time>2026-08-29T08:01:31.000Z</time>
      </trkpt>
      <trkpt lat="45.03931" lon="5.82353">
        <ele>580.595268</ele>
        <time>2026-08-29T08:01:32.000Z</time>
      </trkpt>
      <trkpt lat="45.03933" lon="5.82354">
        <ele>580.737991</ele>
        <time>2026-08-29T08:01:33.000Z</time>
      </trkpt>
      <trkpt lat="45.03935" lon="5.82354">
        <ele>580.893339</ele>
        <time>2026-08-29T08:01:34.000Z</time>
      </trkpt>
      <trkpt lat="45.03937" lon="5.82354">
        <ele>581.055377</ele>
        <time>2026-08-29T08:01:35.000Z</time>
      </trkpt>
      <trkpt lat="45.0394" lon="5.82355">
        <ele>581.219637</ele>
        <time>2026-08-29T08:01:36.000Z</time>
      </trkpt>
      <trkpt lat="45.03942" lon="5.82356">
        <ele>581.383896</ele>
        <time>2026-08-29T08:01:37.000Z</time>
      </trkpt>
      <trkpt lat="45.03944" lon="5.82357">
        <ele>581.565922</ele>
        <time>2026-08-29T08:01:38.000Z</time>
      </trkpt>
      <trkpt lat="45.03947" lon="5.82357">
        <ele>581.755045</ele>
        <time>2026-08-29T08:01:39.000Z</time>
      </trkpt>
      <trkpt lat="45.03948" lon="5.82359">
        <ele>581.905628</ele>
        <time>2026-08-29T08:01:40.000Z</time>
      </trkpt>
      <trkpt lat="45.0395" lon="5.82359">
        <ele>582.048351</ele>
        <time>2026-08-29T08:01:41.000Z</time>
      </trkpt>
      <trkpt lat="45.03953" lon="5.82361">
        <ele>582.236244</ele>
        <time>2026-08-29T08:01:42.000Z</time>
      </trkpt>
      <trkpt lat="45.03955" lon="5.82363">
        <ele>582.442092</ele>
        <time>2026-08-29T08:01:43.000Z</time>
      </trkpt>
      <trkpt lat="45.03958" lon="5.82365">
        <ele>582.646286</ele>
        <time>2026-08-29T08:01:44.000Z</time>
      </trkpt>
      <trkpt lat="45.0396" lon="5.82368">
        <ele>582.910145</ele>
        <time>2026-08-29T08:01:45.000Z</time>
      </trkpt>
      <trkpt lat="45.03963" lon="5.82371">
        <ele>583.160784</ele>
        <time>2026-08-29T08:01:46.000Z</time>
      </trkpt>
      <trkpt lat="45.03965" lon="5.82376">
        <ele>583.431051</ele>
        <time>2026-08-29T08:01:47.000Z</time>
      </trkpt>
      <trkpt lat="45.03966" lon="5.8238">
        <ele>583.688811</ele>
        <time>2026-08-29T08:01:48.000Z</time>
      </trkpt>
      <trkpt lat="45.03966" lon="5.82385">
        <ele>583.939198</ele>
        <time>2026-08-29T08:01:49.000Z</time>
      </trkpt>
      <trkpt lat="45.03966" lon="5.8239">
        <ele>584.176435</ele>
        <time>2026-08-29T08:01:50.000Z</time>
      </trkpt>
      <trkpt lat="45.03965" lon="5.82393">
        <ele>584.387339</ele>
        <time>2026-08-29T08:01:51.000Z</time>
      </trkpt>
      <trkpt lat="45.03963" lon="5.82396">
        <ele>584.60387</ele>
        <time>2026-08-29T08:01:52.000Z</time>
      </trkpt>
      <trkpt lat="45.0396" lon="5.82399">
        <ele>584.819701</ele>
        <time>2026-08-29T08:01:53.000Z</time>
      </trkpt>
      <trkpt lat="45.03958" lon="5.82401">
        <ele>585.027744</ele>
        <time>2026-08-29T08:01:54.000Z</time>
      </trkpt>
      <trkpt lat="45.03956" lon="5.82402">
        <ele>585.191912</ele>
        <time>2026-08-29T08:01:55.000Z</time>
      </trkpt>
      <trkpt lat="45.03953" lon="5.82403">
        <ele>585.382228</ele>
        <time>2026-08-29T08:01:56.000Z</time>
      </trkpt>
      <trkpt lat="45.03951" lon="5.82404">
        <ele>585.55329</ele>
        <time>2026-08-29T08:01:57.000Z</time>
      </trkpt>
      <trkpt lat="45.03949" lon="5.82405">
        <ele>585.728077</ele>
        <time>2026-08-29T08:01:58.000Z</time>
      </trkpt>
      <trkpt lat="45.03946" lon="5.82407">
        <ele>585.929233</ele>
        <time>2026-08-29T08:01:59.000Z</time>
      </trkpt>
      <trkpt lat="45.03944" lon="5.82408">
        <ele>586.108951</ele>
        <time>2026-08-29T08:02:00.000Z</time>
      </trkpt>
      <trkpt lat="45.03942" lon="5.8241">
        <ele>586.297353</ele>
        <time>2026-08-29T08:02:01.000Z</time>
      </trkpt>
      <trkpt lat="45.03939" lon="5.82411">
        <ele>586.499517</ele>
        <time>2026-08-29T08:02:02.000Z</time>
      </trkpt>
      <trkpt lat="45.03937" lon="5.82412">
        <ele>586.686131</ele>
        <time>2026-08-29T08:02:03.000Z</time>
      </trkpt>
      <trkpt lat="45.03934" lon="5.82413">
        <ele>586.874533</ele>
        <time>2026-08-29T08:02:04.000Z</time>
      </trkpt>
      <trkpt lat="45.03932" lon="5.82415">
        <ele>587.042579</ele>
        <time>2026-08-29T08:02:05.000Z</time>
      </trkpt>
      <trkpt lat="45.0393" lon="5.82416">
        <ele>587.222576</ele>
        <time>2026-08-29T08:02:06.000Z</time>
      </trkpt>
      <trkpt lat="45.03928" lon="5.82419">
        <ele>587.43607</ele>
        <time>2026-08-29T08:02:07.000Z</time>
      </trkpt>
      <trkpt lat="45.03926" lon="5.82421">
        <ele>587.631319</ele>
        <time>2026-08-29T08:02:08.000Z</time>
      </trkpt>
      <trkpt lat="45.03924" lon="5.82423">
        <ele>587.813899</ele>
        <time>2026-08-29T08:02:09.000Z</time>
      </trkpt>
      <trkpt lat="45.03922" lon="5.82425">
        <ele>587.999613</ele>
        <time>2026-08-29T08:02:10.000Z</time>
      </trkpt>
      <trkpt lat="45.0392" lon="5.82427">
        <ele>588.182193</ele>
        <time>2026-08-29T08:02:11.000Z</time>
      </trkpt>
      <trkpt lat="45.03917" lon="5.82429">
        <ele>588.36777</ele>
        <time>2026-08-29T08:02:12.000Z</time>
      </trkpt>
      <trkpt lat="45.03916" lon="5.82431">
        <ele>588.535398</ele>
        <time>2026-08-29T08:02:13.000Z</time>
      </trkpt>
      <trkpt lat="45.03914" lon="5.82433">
        <ele>588.698984</ele>
        <time>2026-08-29T08:02:14.000Z</time>
      </trkpt>
      <trkpt lat="45.03912" lon="5.82434">
        <ele>588.858246</ele>
        <time>2026-08-29T08:02:15.000Z</time>
      </trkpt>
      <trkpt lat="45.0391" lon="5.82435">
        <ele>589.023613</ele>
        <time>2026-08-29T08:02:16.000Z</time>
      </trkpt>
      <trkpt lat="45.03907" lon="5.82436">
        <ele>589.261147</ele>
        <time>2026-08-29T08:02:17.000Z</time>
      </trkpt>
      <trkpt lat="45.03905" lon="5.82438">
        <ele>589.482515</ele>
        <time>2026-08-29T08:02:18.000Z</time>
      </trkpt>
      <trkpt lat="45.03903" lon="5.82439">
        <ele>589.69087</ele>
        <time>2026-08-29T08:02:19.000Z</time>
      </trkpt>
      <trkpt lat="45.03901" lon="5.82441">
        <ele>589.899838</ele>
        <time>2026-08-29T08:02:20.000Z</time>
      </trkpt>
      <trkpt lat="45.03899" lon="5.82443">
        <ele>590.100346</ele>
        <time>2026-08-29T08:02:21.000Z</time>
      </trkpt>
      <trkpt lat="45.03897" lon="5.82444">
        <ele>590.301298</ele>
        <time>2026-08-29T08:02:22.000Z</time>
      </trkpt>
      <trkpt lat="45.03895" lon="5.82446">
        <ele>590.478708</ele>
        <time>2026-08-29T08:02:23.000Z</time>
      </trkpt>
      <trkpt lat="45.03893" lon="5.82448">
        <ele>590.680225</ele>
        <time>2026-08-29T08:02:24.000Z</time>
      </trkpt>
      <trkpt lat="45.03891" lon="5.82449">
        <ele>590.881742</ele>
        <time>2026-08-29T08:02:25.000Z</time>
      </trkpt>
      <trkpt lat="45.03889" lon="5.82451">
        <ele>591.118165</ele>
        <time>2026-08-29T08:02:26.000Z</time>
      </trkpt>
      <trkpt lat="45.03886" lon="5.82453">
        <ele>591.333456</ele>
        <time>2026-08-29T08:02:27.000Z</time>
      </trkpt>
      <trkpt lat="45.03884" lon="5.82455">
        <ele>591.534973</ele>
        <time>2026-08-29T08:02:28.000Z</time>
      </trkpt>
      <trkpt lat="45.03882" lon="5.82457">
        <ele>591.753613</ele>
        <time>2026-08-29T08:02:29.000Z</time>
      </trkpt>
      <trkpt lat="45.0388" lon="5.82459">
        <ele>591.962582</ele>
        <time>2026-08-29T08:02:30.000Z</time>
      </trkpt>
      <trkpt lat="45.03878" lon="5.82461">
        <ele>592.195263</ele>
        <time>2026-08-29T08:02:31.000Z</time>
      </trkpt>
      <trkpt lat="45.03876" lon="5.82463">
        <ele>592.419353</ele>
        <time>2026-08-29T08:02:32.000Z</time>
      </trkpt>
      <trkpt lat="45.03874" lon="5.82465">
        <ele>592.614865</ele>
        <time>2026-08-29T08:02:33.000Z</time>
      </trkpt>
      <trkpt lat="45.03872" lon="5.82467">
        <ele>592.830156</ele>
        <time>2026-08-29T08:02:34.000Z</time>
      </trkpt>
      <trkpt lat="45.0387" lon="5.82469">
        <ele>593.057175</ele>
        <time>2026-08-29T08:02:35.000Z</time>
      </trkpt>
      <trkpt lat="45.03868" lon="5.8247">
        <ele>593.266144</ele>
        <time>2026-08-29T08:02:36.000Z</time>
      </trkpt>
      <trkpt lat="45.03866" lon="5.82472">
        <ele>593.469328</ele>
        <time>2026-08-29T08:02:37.000Z</time>
      </trkpt>
      <trkpt lat="45.03864" lon="5.82474">
        <ele>593.678803</ele>
        <time>2026-08-29T08:02:38.000Z</time>
      </trkpt>
      <trkpt lat="45.03862" lon="5.82476">
        <ele>593.88353</ele>
        <time>2026-08-29T08:02:39.000Z</time>
      </trkpt>
      <trkpt lat="45.0386" lon="5.82477">
        <ele>594.081514</ele>
        <time>2026-08-29T08:02:40.000Z</time>
      </trkpt>
      <trkpt lat="45.03858" lon="5.82479">
        <ele>594.261314</ele>
        <time>2026-08-29T08:02:41.000Z</time>
      </trkpt>
      <trkpt lat="45.03856" lon="5.82481">
        <ele>594.473361</ele>
        <time>2026-08-29T08:02:42.000Z</time>
      </trkpt>
      <trkpt lat="45.03854" lon="5.82482">
        <ele>594.677014</ele>
        <time>2026-08-29T08:02:43.000Z</time>
      </trkpt>
      <trkpt lat="45.03852" lon="5.82484">
        <ele>594.859302</ele>
        <time>2026-08-29T08:02:44.000Z</time>
      </trkpt>
      <trkpt lat="45.0385" lon="5.82485">
        <ele>595.078802</ele>
        <time>2026-08-29T08:02:45.000Z</time>
      </trkpt>
      <trkpt lat="45.03848" lon="5.82487">
        <ele>595.251844</ele>
        <time>2026-08-29T08:02:46.000Z</time>
      </trkpt>
      <trkpt lat="45.03846" lon="5.82489">
        <ele>595.475935</ele>
        <time>2026-08-29T08:02:47.000Z</time>
      </trkpt>
      <trkpt lat="45.03845" lon="5.82491">
        <ele>595.664425</ele>
        <time>2026-08-29T08:02:48.000Z</time>
      </trkpt>
      <trkpt lat="45.03843" lon="5.82494">
        <ele>595.876472</ele>
        <time>2026-08-29T08:02:49.000Z</time>
      </trkpt>
      <trkpt lat="45.03841" lon="5.82495">
        <ele>596.038718</ele>
        <time>2026-08-29T08:02:50.000Z</time>
      </trkpt>
      <trkpt lat="45.03839" lon="5.82498">
        <ele>596.275657</ele>
        <time>2026-08-29T08:02:51.000Z</time>
      </trkpt>
      <trkpt lat="45.03838" lon="5.825">
        <ele>596.46669</ele>
        <time>2026-08-29T08:02:52.000Z</time>
      </trkpt>
      <trkpt lat="45.03836" lon="5.82503">
        <ele>596.666866</ele>
        <time>2026-08-29T08:02:53.000Z</time>
      </trkpt>
      <trkpt lat="45.03835" lon="5.82505">
        <ele>596.831693</ele>
        <time>2026-08-29T08:02:54.000Z</time>
      </trkpt>
      <trkpt lat="45.03834" lon="5.82508">
        <ele>597.032586</ele>
        <time>2026-08-29T08:02:55.000Z</time>
      </trkpt>
      <trkpt lat="45.03833" lon="5.8251">
        <ele>597.212997</ele>
        <time>2026-08-29T08:02:56.000Z</time>
      </trkpt>
      <trkpt lat="45.03832" lon="5.82514">
        <ele>597.469218</ele>
        <time>2026-08-29T08:02:57.000Z</time>
      </trkpt>
      <trkpt lat="45.03831" lon="5.82515">
        <ele>597.570447</ele>
        <time>2026-08-29T08:02:58.000Z</time>
      </trkpt>
      <trkpt lat="45.0383" lon="5.82518">
        <ele>597.776738</ele>
        <time>2026-08-29T08:02:59.000Z</time>
      </trkpt>
      <trkpt lat="45.0383" lon="5.82521">
        <ele>597.927243</ele>
        <time>2026-08-29T08:03:00.000Z</time>
      </trkpt>
      <trkpt lat="45.03829" lon="5.82523">
        <ele>598.091376</ele>
        <time>2026-08-29T08:03:01.000Z</time>
      </trkpt>
      <trkpt lat="45.03828" lon="5.82526">
        <ele>598.261006</ele>
        <time>2026-08-29T08:03:02.000Z</time>
      </trkpt>
      <trkpt lat="45.03827" lon="5.82529">
        <ele>598.46308</ele>
        <time>2026-08-29T08:03:03.000Z</time>
      </trkpt>
      <trkpt lat="45.03826" lon="5.8253">
        <ele>598.580368</ele>
        <time>2026-08-29T08:03:04.000Z</time>
      </trkpt>
      <trkpt lat="45.03826" lon="5.82532">
        <ele>598.685558</ele>
        <time>2026-08-29T08:03:05.000Z</time>
      </trkpt>
      <trkpt lat="45.03826" lon="5.82534">
        <ele>598.839122</ele>
        <time>2026-08-29T08:03:06.000Z</time>
      </trkpt>
      <trkpt lat="45.03825" lon="5.82537">
        <ele>599.015396</ele>
        <time>2026-08-29T08:03:07.000Z</time>
      </trkpt>
      <trkpt lat="45.03825" lon="5.8254">
        <ele>599.19574</ele>
        <time>2026-08-29T08:03:08.000Z</time>
      </trkpt>
      <trkpt lat="45.03825" lon="5.82543">
        <ele>599.356536</ele>
        <time>2026-08-29T08:03:09.000Z</time>
      </trkpt>
      <trkpt lat="45.03824" lon="5.82545">
        <ele>599.517331</ele>
        <time>2026-08-29T08:03:10.000Z</time>
      </trkpt>
      <trkpt lat="45.03823" lon="5.82549">
        <ele>599.78873</ele>
        <time>2026-08-29T08:03:11.000Z</time>
      </trkpt>
      <trkpt lat="45.03823" lon="5.82553">
        <ele>600.026927</ele>
        <time>2026-08-29T08:03:12.000Z</time>
      </trkpt>
      <trkpt lat="45.03823" lon="5.82557">
        <ele>600.26285</ele>
        <time>2026-08-29T08:03:13.000Z</time>
      </trkpt>
      <trkpt lat="45.03822" lon="5.82561">
        <ele>600.473229</ele>
        <time>2026-08-29T08:03:14.000Z</time>
      </trkpt>
      <trkpt lat="45.03822" lon="5.82564">
        <ele>600.665569</ele>
        <time>2026-08-29T08:03:15.000Z</time>
      </trkpt>
      <trkpt lat="45.03822" lon="5.82567">
        <ele>600.87937</ele>
        <time>2026-08-29T08:03:16.000Z</time>
      </trkpt>
      <trkpt lat="45.03822" lon="5.8257">
        <ele>601.062478</ele>
        <time>2026-08-29T08:03:17.000Z</time>
      </trkpt>
      <trkpt lat="45.03822" lon="5.82573">
        <ele>601.257793</ele>
        <time>2026-08-29T08:03:18.000Z</time>
      </trkpt>
      <trkpt lat="45.03822" lon="5.82576">
        <ele>601.396446</ele>
        <time>2026-08-29T08:03:19.000Z</time>
      </trkpt>
      <trkpt lat="45.03822" lon="5.82579">
        <ele>601.636134</ele>
        <time>2026-08-29T08:03:20.000Z</time>
      </trkpt>
      <trkpt lat="45.03823" lon="5.82583">
        <ele>601.854082</ele>
        <time>2026-08-29T08:03:21.000Z</time>
      </trkpt>
      <trkpt lat="45.03823" lon="5.82587">
        <ele>602.087869</ele>
        <time>2026-08-29T08:03:22.000Z</time>
      </trkpt>
      <trkpt lat="45.03824" lon="5.8259">
        <ele>602.335367</ele>
        <time>2026-08-29T08:03:23.000Z</time>
      </trkpt>
      <trkpt lat="45.03825" lon="5.82594">
        <ele>602.549263</ele>
        <time>2026-08-29T08:03:24.000Z</time>
      </trkpt>
      <trkpt lat="45.03826" lon="5.82597">
        <ele>602.783065</ele>
        <time>2026-08-29T08:03:25.000Z</time>
      </trkpt>
      <trkpt lat="45.03827" lon="5.82601">
        <ele>603.019019</ele>
        <time>2026-08-29T08:03:26.000Z</time>
      </trkpt>
      <trkpt lat="45.03829" lon="5.82604">
        <ele>603.270756</ele>
        <time>2026-08-29T08:03:27.000Z</time>
      </trkpt>
      <trkpt lat="45.03832" lon="5.82607">
        <ele>603.560415</ele>
        <time>2026-08-29T08:03:28.000Z</time>
      </trkpt>
      <trkpt lat="45.03833" lon="5.8261">
        <ele>603.78114</ele>
        <time>2026-08-29T08:03:29.000Z</time>
      </trkpt>
      <trkpt lat="45.03835" lon="5.82612">
        <ele>603.957689</ele>
        <time>2026-08-29T08:03:30.000Z</time>
      </trkpt>
      <trkpt lat="45.03836" lon="5.82614">
        <ele>604.148723</ele>
        <time>2026-08-29T08:03:31.000Z</time>
      </trkpt>
      <trkpt lat="45.03838" lon="5.82616">
        <ele>604.339676</ele>
        <time>2026-08-29T08:03:32.000Z</time>
      </trkpt>
      <trkpt lat="45.03839" lon="5.82617">
        <ele>604.430464</ele>
        <time>2026-08-29T08:03:33.000Z</time>
      </trkpt>
      <trkpt lat="45.03841" lon="5.82619">
        <ele>604.643912</ele>
        <time>2026-08-29T08:03:34.000Z</time>
      </trkpt>
      <trkpt lat="45.03843" lon="5.82621">
        <ele>604.901842</ele>
        <time>2026-08-29T08:03:35.000Z</time>
      </trkpt>
      <trkpt lat="45.03845" lon="5.82623">
        <ele>605.136884</ele>
        <time>2026-08-29T08:03:36.000Z</time>
      </trkpt>
      <trkpt lat="45.03847" lon="5.82625">
        <ele>605.370135</ele>
        <time>2026-08-29T08:03:37.000Z</time>
      </trkpt>
      <trkpt lat="45.0385" lon="5.82626">
        <ele>605.619075</ele>
        <time>2026-08-29T08:03:38.000Z</time>
      </trkpt>
      <trkpt lat="45.03852" lon="5.82628">
        <ele>605.881717</ele>
        <time>2026-08-29T08:03:39.000Z</time>
      </trkpt>
      <trkpt lat="45.03854" lon="5.82629">
        <ele>606.07792</ele>
        <time>2026-08-29T08:03:40.000Z</time>
      </trkpt>
      <trkpt lat="45.03856" lon="5.82631">
        <ele>606.324496</ele>
        <time>2026-08-29T08:03:41.000Z</time>
      </trkpt>
      <trkpt lat="45.03858" lon="5.82634">
        <ele>606.599102</ele>
        <time>2026-08-29T08:03:42.000Z</time>
      </trkpt>
      <trkpt lat="45.03861" lon="5.82636">
        <ele>606.876713</ele>
        <time>2026-08-29T08:03:43.000Z</time>
      </trkpt>
      <trkpt lat="45.03863" lon="5.82638">
        <ele>607.131254</ele>
        <time>2026-08-29T08:03:44.000Z</time>
      </trkpt>
      <trkpt lat="45.03865" lon="5.82641">
        <ele>607.37642</ele>
        <time>2026-08-29T08:03:45.000Z</time>
      </trkpt>
      <trkpt lat="45.03866" lon="5.82644">
        <ele>607.600355</ele>
        <time>2026-08-29T08:03:46.000Z</time>
      </trkpt>
      <trkpt lat="45.03867" lon="5.82648">
        <ele>607.874169</ele>
        <time>2026-08-29T08:03:47.000Z</time>
      </trkpt>
      <trkpt lat="45.03868" lon="5.8265">
        <ele>608.034941</ele>
        <time>2026-08-29T08:03:48.000Z</time>
      </trkpt>
      <trkpt lat="45.03868" lon="5.82652">
        <ele>608.176139</ele>
        <time>2026-08-29T08:03:49.000Z</time>
      </trkpt>
      <trkpt lat="45.03869" lon="5.82653">
        <ele>608.322502</ele>
        <time>2026-08-29T08:03:50.000Z</time>
      </trkpt>
      <trkpt lat="45.0387" lon="5.82654">
        <ele>608.39583</ele>
        <time>2026-08-29T08:03:51.000Z</time>
      </trkpt>
      <trkpt lat="45.03871" lon="5.82656">
        <ele>608.54825</ele>
        <time>2026-08-29T08:03:52.000Z</time>
      </trkpt>
      <trkpt lat="45.03872" lon="5.82659">
        <ele>608.789647</ele>
        <time>2026-08-29T08:03:53.000Z</time>
      </trkpt>
      <trkpt lat="45.03874" lon="5.82661">
        <ele>608.993358</ele>
        <time>2026-08-29T08:03:54.000Z</time>
      </trkpt>
      <trkpt lat="45.03875" lon="5.82664">
        <ele>609.179013</ele>
        <time>2026-08-29T08:03:55.000Z</time>
      </trkpt>
      <trkpt lat="45.03876" lon="5.82665">
        <ele>609.326405</ele>
        <time>2026-08-29T08:03:56.000Z</time>
      </trkpt>
      <trkpt lat="45.03877" lon="5.82667">
        <ele>609.501236</ele>
        <time>2026-08-29T08:03:57.000Z</time>
      </trkpt>
      <trkpt lat="45.03878" lon="5.82669">
        <ele>609.709706</ele>
        <time>2026-08-29T08:03:58.000Z</time>
      </trkpt>
      <trkpt lat="45.0388" lon="5.82672">
        <ele>609.945745</ele>
        <time>2026-08-29T08:03:59.000Z</time>
      </trkpt>
      <trkpt lat="45.03882" lon="5.82674">
        <ele>610.176678</ele>
        <time>2026-08-29T08:04:00.000Z</time>
      </trkpt>
      <trkpt lat="45.03884" lon="5.82676">
        <ele>610.361425</ele>
        <time>2026-08-29T08:04:01.000Z</time>
      </trkpt>
      <trkpt lat="45.03885" lon="5.82677">
        <ele>610.542643</ele>
        <time>2026-08-29T08:04:02.000Z</time>
      </trkpt>
      <trkpt lat="45.03887" lon="5.82679">
        <ele>610.712336</ele>
        <time>2026-08-29T08:04:03.000Z</time>
      </trkpt>
      <trkpt lat="45.03889" lon="5.8268">
        <ele>610.919877</ele>
        <time>2026-08-29T08:04:04.000Z</time>
      </trkpt>
      <trkpt lat="45.03891" lon="5.82681">
        <ele>611.136024</ele>
        <time>2026-08-29T08:04:05.000Z</time>
      </trkpt>
      <trkpt lat="45.03893" lon="5.82682">
        <ele>611.333928</ele>
        <time>2026-08-29T08:04:06.000Z</time>
      </trkpt>
      <trkpt lat="45.03894" lon="5.82682">
        <ele>611.447283</ele>
        <time>2026-08-29T08:04:07.000Z</time>
      </trkpt>
      <trkpt lat="45.03895" lon="5.82683">
        <ele>611.570053</ele>
        <time>2026-08-29T08:04:08.000Z</time>
      </trkpt>
      <trkpt lat="45.03897" lon="5.82683">
        <ele>611.766041</ele>
        <time>2026-08-29T08:04:09.000Z</time>
      </trkpt>
      <trkpt lat="45.03899" lon="5.82683">
        <ele>611.94521</ele>
        <time>2026-08-29T08:04:10.000Z</time>
      </trkpt>
      <trkpt lat="45.03901" lon="5.82684">
        <ele>612.110429</ele>
        <time>2026-08-29T08:04:11.000Z</time>
      </trkpt>
      <trkpt lat="45.03903" lon="5.82684">
        <ele>612.283407</ele>
        <time>2026-08-29T08:04:12.000Z</time>
      </trkpt>
      <trkpt lat="45.03905" lon="5.82686">
        <ele>612.479609</ele>
        <time>2026-08-29T08:04:13.000Z</time>
      </trkpt>
      <trkpt lat="45.03906" lon="5.82687">
        <ele>612.64197</ele>
        <time>2026-08-29T08:04:14.000Z</time>
      </trkpt>
      <trkpt lat="45.03908" lon="5.82688">
        <ele>612.872251</ele>
        <time>2026-08-29T08:04:15.000Z</time>
      </trkpt>
      <trkpt lat="45.0391" lon="5.82689">
        <ele>613.049641</ele>
        <time>2026-08-29T08:04:16.000Z</time>
      </trkpt>
      <trkpt lat="45.03912" lon="5.82691">
        <ele>613.243223</ele>
        <time>2026-08-29T08:04:17.000Z</time>
      </trkpt>
      <trkpt lat="45.03914" lon="5.82692">
        <ele>613.451713</ele>
        <time>2026-08-29T08:04:18.000Z</time>
      </trkpt>
      <trkpt lat="45.03916" lon="5.82694">
        <ele>613.652158</ele>
        <time>2026-08-29T08:04:19.000Z</time>
      </trkpt>
      <trkpt lat="45.03917" lon="5.82696">
        <ele>613.871544</ele>
        <time>2026-08-29T08:04:20.000Z</time>
      </trkpt>
      <trkpt lat="45.03919" lon="5.82697">
        <ele>614.071989</ele>
        <time>2026-08-29T08:04:21.000Z</time>
      </trkpt>
      <trkpt lat="45.03921" lon="5.827">
        <ele>614.325898</ele>
        <time>2026-08-29T08:04:22.000Z</time>
      </trkpt>
      <trkpt lat="45.03923" lon="5.82702">
        <ele>614.541703</ele>
        <time>2026-08-29T08:04:23.000Z</time>
      </trkpt>
      <trkpt lat="45.03925" lon="5.82704">
        <ele>614.777477</ele>
        <time>2026-08-29T08:04:24.000Z</time>
      </trkpt>
      <trkpt lat="45.03926" lon="5.82707">
        <ele>615.001411</ele>
        <time>2026-08-29T08:04:25.000Z</time>
      </trkpt>
      <trkpt lat="45.03927" lon="5.82709">
        <ele>615.180993</ele>
        <time>2026-08-29T08:04:26.000Z</time>
      </trkpt>
      <trkpt lat="45.03928" lon="5.82711">
        <ele>615.317899</ele>
        <time>2026-08-29T08:04:27.000Z</time>
      </trkpt>
      <trkpt lat="45.03929" lon="5.82713">
        <ele>615.47867</ele>
        <time>2026-08-29T08:04:28.000Z</time>
      </trkpt>
      <trkpt lat="45.03929" lon="5.82716">
        <ele>615.665628</ele>
        <time>2026-08-29T08:04:29.000Z</time>
      </trkpt>
      <trkpt lat="45.0393" lon="5.82719">
        <ele>615.851616</ele>
        <time>2026-08-29T08:04:30.000Z</time>
      </trkpt>
      <trkpt lat="45.03929" lon="5.82722">
        <ele>616.085129</ele>
        <time>2026-08-29T08:04:31.000Z</time>
      </trkpt>
      <trkpt lat="45.03929" lon="5.82725">
        <ele>616.306834</ele>
        <time>2026-08-29T08:04:32.000Z</time>
      </trkpt>
      <trkpt lat="45.03929" lon="5.82728">
        <ele>616.502132</ele>
        <time>2026-08-29T08:04:33.000Z</time>
      </trkpt>
      <trkpt lat="45.03927" lon="5.82729">
        <ele>616.650015</ele>
        <time>2026-08-29T08:04:34.000Z</time>
      </trkpt>
      <trkpt lat="45.03927" lon="5.82732">
        <ele>616.812419</ele>
        <time>2026-08-29T08:04:35.000Z</time>
      </trkpt>
      <trkpt lat="45.03926" lon="5.82734">
        <ele>617.005339</ele>
        <time>2026-08-29T08:04:36.000Z</time>
      </trkpt>
      <trkpt lat="45.03925" lon="5.82736">
        <ele>617.195846</ele>
        <time>2026-08-29T08:04:37.000Z</time>
      </trkpt>
      <trkpt lat="45.03924" lon="5.82739">
        <ele>617.368855</ele>
        <time>2026-08-29T08:04:38.000Z</time>
      </trkpt>
      <trkpt lat="45.03924" lon="5.82742">
        <ele>617.561296</ele>
        <time>2026-08-29T08:04:39.000Z</time>
      </trkpt>
      <trkpt lat="45.03923" lon="5.82744">
        <ele>617.737228</ele>
        <time>2026-08-29T08:04:40.000Z</time>
      </trkpt>
      <trkpt lat="45.03923" lon="5.82747">
        <ele>617.923216</ele>
        <time>2026-08-29T08:04:41.000Z</time>
      </trkpt>
      <trkpt lat="45.03922" lon="5.8275">
        <ele>618.113566</ele>
        <time>2026-08-29T08:04:42.000Z</time>
      </trkpt>
      <trkpt lat="45.03922" lon="5.82752">
        <ele>618.301092</ele>
        <time>2026-08-29T08:04:43.000Z</time>
      </trkpt>
      <trkpt lat="45.03922" lon="5.82755">
        <ele>618.497978</ele>
        <time>2026-08-29T08:04:44.000Z</time>
      </trkpt>
      <trkpt lat="45.03921" lon="5.82758">
        <ele>618.689617</ele>
        <time>2026-08-29T08:04:45.000Z</time>
      </trkpt>
      <trkpt lat="45.03921" lon="5.82761">
        <ele>618.910317</ele>
        <time>2026-08-29T08:04:46.000Z</time>
      </trkpt>
      <trkpt lat="45.03921" lon="5.82765">
        <ele>619.123546</ele>
        <time>2026-08-29T08:04:47.000Z</time>
      </trkpt>
      <trkpt lat="45.0392" lon="5.82768">
        <ele>619.334065</ele>
        <time>2026-08-29T08:04:48.000Z</time>
      </trkpt>
      <trkpt lat="45.03919" lon="5.8277">
        <ele>619.494836</ele>
        <time>2026-08-29T08:04:49.000Z</time>
      </trkpt>
      <trkpt lat="45.03919" lon="5.82773">
        <ele>619.706715</ele>
        <time>2026-08-29T08:04:50.000Z</time>
      </trkpt>
      <trkpt lat="45.03918" lon="5.82776">
        <ele>619.918593</ele>
        <time>2026-08-29T08:04:51.000Z</time>
      </trkpt>
      <trkpt lat="45.03918" lon="5.82778">
        <ele>620.078793</ele>
        <time>2026-08-29T08:04:52.000Z</time>
      </trkpt>
      <trkpt lat="45.03918" lon="5.8278">
        <ele>620.185625</ele>
        <time>2026-08-29T08:04:53.000Z</time>
      </trkpt>
      <trkpt lat="45.03918" lon="5.82783">
        <ele>620.367748</ele>
        <time>2026-08-29T08:04:54.000Z</time>
      </trkpt>
      <trkpt lat="45.03918" lon="5.82785">
        <ele>620.561217</ele>
        <time>2026-08-29T08:04:55.000Z</time>
      </trkpt>
      <trkpt lat="45.03919" lon="5.82788">
        <ele>620.763111</ele>
        <time>2026-08-29T08:04:56.000Z</time>
      </trkpt>
      <trkpt lat="45.03919" lon="5.82791">
        <ele>620.916369</ele>
        <time>2026-08-29T08:04:57.000Z</time>
      </trkpt>
      <trkpt lat="45.03919" lon="5.82793">
        <ele>621.097267</ele>
        <time>2026-08-29T08:04:58.000Z</time>
      </trkpt>
      <trkpt lat="45.03919" lon="5.82796">
        <ele>621.278165</ele>
        <time>2026-08-29T08:04:59.000Z</time>
      </trkpt>
      <trkpt lat="45.03919" lon="5.82799">
        <ele>621.461666</ele>
        <time>2026-08-29T08:05:00.000Z</time>
      </trkpt>
      <trkpt lat="45.0392" lon="5.82803">
        <ele>621.75256</ele>
        <time>2026-08-29T08:05:01.000Z</time>
      </trkpt>
      <trkpt lat="45.0392" lon="5.82806">
        <ele>621.943948</ele>
        <time>2026-08-29T08:05:02.000Z</time>
      </trkpt>
      <trkpt lat="45.03921" lon="5.82809">
        <ele>622.133381</ele>
        <time>2026-08-29T08:05:03.000Z</time>
      </trkpt>
      <trkpt lat="45.03921" lon="5.82812">
        <ele>622.292349</ele>
        <time>2026-08-29T08:05:04.000Z</time>
      </trkpt>
      <trkpt lat="45.03922" lon="5.82815">
        <ele>622.487805</ele>
        <time>2026-08-29T08:05:05.000Z</time>
      </trkpt>
      <trkpt lat="45.03923" lon="5.82818">
        <ele>622.720467</ele>
        <time>2026-08-29T08:05:06.000Z</time>
      </trkpt>
      <trkpt lat="45.03924" lon="5.82821">
        <ele>622.932045</ele>
        <time>2026-08-29T08:05:07.000Z</time>
      </trkpt>
      <trkpt lat="45.03925" lon="5.82825">
        <ele>623.151394</ele>
        <time>2026-08-29T08:05:08.000Z</time>
      </trkpt>
      <trkpt lat="45.03926" lon="5.82828">
        <ele>623.35571</ele>
        <time>2026-08-29T08:05:09.000Z</time>
      </trkpt>
      <trkpt lat="45.03926" lon="5.8283">
        <ele>623.499784</ele>
        <time>2026-08-29T08:05:10.000Z</time>
      </trkpt>
      <trkpt lat="45.03927" lon="5.82832">
        <ele>623.636131</ele>
        <time>2026-08-29T08:05:11.000Z</time>
      </trkpt>
      <trkpt lat="45.03928" lon="5.82834">
        <ele>623.789723</ele>
        <time>2026-08-29T08:05:12.000Z</time>
      </trkpt>
      <trkpt lat="45.03929" lon="5.82836">
        <ele>623.994646</ele>
        <time>2026-08-29T08:05:13.000Z</time>
      </trkpt>
      <trkpt lat="45.0393" lon="5.82838">
        <ele>624.148615</ele>
        <time>2026-08-29T08:05:14.000Z</time>
      </trkpt>
      <trkpt lat="45.03931" lon="5.82841">
        <ele>624.3284</ele>
        <time>2026-08-29T08:05:15.000Z</time>
      </trkpt>
      <trkpt lat="45.03933" lon="5.82843">
        <ele>624.524612</ele>
        <time>2026-08-29T08:05:16.000Z</time>
      </trkpt>
      <trkpt lat="45.03935" lon="5.82845">
        <ele>624.738317</ele>
        <time>2026-08-29T08:05:17.000Z</time>
      </trkpt>
      <trkpt lat="45.03936" lon="5.82847">
        <ele>624.876984</ele>
        <time>2026-08-29T08:05:18.000Z</time>
      </trkpt>
      <trkpt lat="45.03936" lon="5.82848">
        <ele>624.962716</ele>
        <time>2026-08-29T08:05:19.000Z</time>
      </trkpt>
      <trkpt lat="45.03937" lon="5.8285">
        <ele>625.111361</ele>
        <time>2026-08-29T08:05:20.000Z</time>
      </trkpt>
      <trkpt lat="45.03939" lon="5.82852">
        <ele>625.320013</ele>
        <time>2026-08-29T08:05:21.000Z</time>
      </trkpt>
      <trkpt lat="45.03941" lon="5.82855">
        <ele>625.571726</ele>
        <time>2026-08-29T08:05:22.000Z</time>
      </trkpt>
      <trkpt lat="45.03942" lon="5.82857">
        <ele>625.735385</ele>
        <time>2026-08-29T08:05:23.000Z</time>
      </trkpt>
      <trkpt lat="45.03944" lon="5.82859">
        <ele>625.982926</ele>
        <time>2026-08-29T08:05:24.000Z</time>
      </trkpt>
      <trkpt lat="45.03946" lon="5.82862">
        <ele>626.219665</ele>
        <time>2026-08-29T08:05:25.000Z</time>
      </trkpt>
      <trkpt lat="45.03948" lon="5.82864">
        <ele>626.437171</ele>
        <time>2026-08-29T08:05:26.000Z</time>
      </trkpt>
      <trkpt lat="45.0395" lon="5.82866">
        <ele>626.65811</ele>
        <time>2026-08-29T08:05:27.000Z</time>
      </trkpt>
      <trkpt lat="45.03952" lon="5.82868">
        <ele>626.879237</ele>
        <time>2026-08-29T08:05:28.000Z</time>
      </trkpt>
      <trkpt lat="45.03954" lon="5.82871">
        <ele>627.074335</ele>
        <time>2026-08-29T08:05:29.000Z</time>
      </trkpt>
      <trkpt lat="45.03955" lon="5.82873">
        <ele>627.292129</ele>
        <time>2026-08-29T08:05:30.000Z</time>
      </trkpt>
      <trkpt lat="45.03957" lon="5.82876">
        <ele>627.492963</ele>
        <time>2026-08-29T08:05:31.000Z</time>
      </trkpt>
      <trkpt lat="45.03957" lon="5.82878">
        <ele>627.624909</ele>
        <time>2026-08-29T08:05:32.000Z</time>
      </trkpt>
      <trkpt lat="45.03958" lon="5.8288">
        <ele>627.848658</ele>
        <time>2026-08-29T08:05:33.000Z</time>
      </trkpt>
      <trkpt lat="45.0396" lon="5.82883">
        <ele>628.043755</ele>
        <time>2026-08-29T08:05:34.000Z</time>
      </trkpt>
      <trkpt lat="45.03961" lon="5.82885">
        <ele>628.238435</ele>
        <time>2026-08-29T08:05:35.000Z</time>
      </trkpt>
      <trkpt lat="45.03962" lon="5.82888">
        <ele>628.443357</ele>
        <time>2026-08-29T08:05:36.000Z</time>
      </trkpt>
      <trkpt lat="45.03964" lon="5.8289">
        <ele>628.639568</ele>
        <time>2026-08-29T08:05:37.000Z</time>
      </trkpt>
      <trkpt lat="45.03965" lon="5.82893">
        <ele>628.844859</ele>
        <time>2026-08-29T08:05:38.000Z</time>
      </trkpt>
      <trkpt lat="45.03966" lon="5.82895">
        <ele>629.026357</ele>
        <time>2026-08-29T08:05:39.000Z</time>
      </trkpt>
      <trkpt lat="45.03967" lon="5.82899">
        <ele>629.278485</ele>
        <time>2026-08-29T08:05:40.000Z</time>
      </trkpt>
      <trkpt lat="45.03969" lon="5.82902">
        <ele>629.515336</ele>
        <time>2026-08-29T08:05:41.000Z</time>
      </trkpt>
      <trkpt lat="45.0397" lon="5.82905">
        <ele>629.695427</ele>
        <time>2026-08-29T08:05:42.000Z</time>
      </trkpt>
      <trkpt lat="45.03971" lon="5.82907">
        <ele>629.910737</ele>
        <time>2026-08-29T08:05:43.000Z</time>
      </trkpt>
      <trkpt lat="45.03972" lon="5.82909">
        <ele>630.023608</ele>
        <time>2026-08-29T08:05:44.000Z</time>
      </trkpt>
      <trkpt lat="45.03973" lon="5.8291">
        <ele>630.151811</ele>
        <time>2026-08-29T08:05:45.000Z</time>
      </trkpt>
      <trkpt lat="45.03975" lon="5.82914">
        <ele>630.418663</ele>
        <time>2026-08-29T08:05:46.000Z</time>
      </trkpt>
      <trkpt lat="45.03976" lon="5.82917">
        <ele>630.640249</ele>
        <time>2026-08-29T08:05:47.000Z</time>
      </trkpt>
      <trkpt lat="45.03977" lon="5.82919">
        <ele>630.839919</ele>
        <time>2026-08-29T08:05:48.000Z</time>
      </trkpt>
      <trkpt lat="45.03979" lon="5.82922">
        <ele>631.087459</ele>
        <time>2026-08-29T08:05:49.000Z</time>
      </trkpt>
      <trkpt lat="45.03982" lon="5.82926">
        <ele>631.385831</ele>
        <time>2026-08-29T08:05:50.000Z</time>
      </trkpt>
      <trkpt lat="45.03983" lon="5.82928">
        <ele>631.596248</ele>
        <time>2026-08-29T08:05:51.000Z</time>
      </trkpt>
      <trkpt lat="45.03985" lon="5.8293">
        <ele>631.785639</ele>
        <time>2026-08-29T08:05:52.000Z</time>
      </trkpt>
      <trkpt lat="45.03986" lon="5.82933">
        <ele>631.961529</ele>
        <time>2026-08-29T08:05:53.000Z</time>
      </trkpt>
      <trkpt lat="45.03987" lon="5.82934">
        <ele>632.146201</ele>
        <time>2026-08-29T08:05:54.000Z</time>
      </trkpt>
      <trkpt lat="45.03989" lon="5.82937">
        <ele>632.371943</ele>
        <time>2026-08-29T08:05:55.000Z</time>
      </trkpt>
      <trkpt lat="45.0399" lon="5.82939">
        <ele>632.531695</ele>
        <time>2026-08-29T08:05:56.000Z</time>
      </trkpt>
      <trkpt lat="45.03992" lon="5.82942">
        <ele>632.741637</ele>
        <time>2026-08-29T08:05:57.000Z</time>
      </trkpt>
      <trkpt lat="45.03993" lon="5.82944">
        <ele>632.937847</ele>
        <time>2026-08-29T08:05:58.000Z</time>
      </trkpt>
      <trkpt lat="45.03994" lon="5.82946">
        <ele>633.112868</ele>
        <time>2026-08-29T08:05:59.000Z</time>
      </trkpt>
      <trkpt lat="45.03996" lon="5.82949">
        <ele>633.338167</ele>
        <time>2026-08-29T08:06:00.000Z</time>
      </trkpt>
      <trkpt lat="45.03997" lon="5.82952">
        <ele>633.565271</ele>
        <time>2026-08-29T08:06:01.000Z</time>
      </trkpt>
      <trkpt lat="45.03998" lon="5.82955">
        <ele>633.74116</ele>
        <time>2026-08-29T08:06:02.000Z</time>
      </trkpt>
      <trkpt lat="45.04" lon="5.82958">
        <ele>633.97181</ele>
        <time>2026-08-29T08:06:03.000Z</time>
      </trkpt>
      <trkpt lat="45.04" lon="5.82961">
        <ele>634.148233</ele>
        <time>2026-08-29T08:06:04.000Z</time>
      </trkpt>
      <trkpt lat="45.04001" lon="5.82963">
        <ele>634.349066</ele>
        <time>2026-08-29T08:06:05.000Z</time>
      </trkpt>
      <trkpt lat="45.04002" lon="5.82966">
        <ele>634.565203</ele>
        <time>2026-08-29T08:06:06.000Z</time>
      </trkpt>
      <trkpt lat="45.04004" lon="5.82968">
        <ele>634.7603</ele>
        <time>2026-08-29T08:06:07.000Z</time>
      </trkpt>
      <trkpt lat="45.04006" lon="5.8297">
        <ele>634.974179</ele>
        <time>2026-08-29T08:06:08.000Z</time>
      </trkpt>
      <trkpt lat="45.04007" lon="5.82972">
        <ele>635.13553</ele>
        <time>2026-08-29T08:06:09.000Z</time>
      </trkpt>
      <trkpt lat="45.04008" lon="5.82975">
        <ele>635.305858</ele>
        <time>2026-08-29T08:06:10.000Z</time>
      </trkpt>
      <trkpt lat="45.04009" lon="5.82977">
        <ele>635.464607</ele>
        <time>2026-08-29T08:06:11.000Z</time>
      </trkpt>
      <trkpt lat="45.0401" lon="5.82979">
        <ele>635.655708</ele>
        <time>2026-08-29T08:06:12.000Z</time>
      </trkpt>
      <trkpt lat="45.0401" lon="5.8298">
        <ele>635.732504</ele>
        <time>2026-08-29T08:06:13.000Z</time>
      </trkpt>
      <trkpt lat="45.04012" lon="5.82982">
        <ele>635.891384</ele>
        <time>2026-08-29T08:06:14.000Z</time>
      </trkpt>
      <trkpt lat="45.04013" lon="5.82985">
        <ele>636.060676</ele>
        <time>2026-08-29T08:06:15.000Z</time>
      </trkpt>
      <trkpt lat="45.04013" lon="5.82986">
        <ele>636.188878</ele>
        <time>2026-08-29T08:06:16.000Z</time>
      </trkpt>
      <trkpt lat="45.04015" lon="5.82988">
        <ele>636.369868</ele>
        <time>2026-08-29T08:06:17.000Z</time>
      </trkpt>
      <trkpt lat="45.04016" lon="5.82991">
        <ele>636.560172</ele>
        <time>2026-08-29T08:06:18.000Z</time>
      </trkpt>
      <trkpt lat="45.04017" lon="5.82994">
        <ele>636.77205</ele>
        <time>2026-08-29T08:06:19.000Z</time>
      </trkpt>
      <trkpt lat="45.04018" lon="5.82996">
        <ele>636.931411</ele>
        <time>2026-08-29T08:06:20.000Z</time>
      </trkpt>
      <trkpt lat="45.0402" lon="5.82999">
        <ele>637.178129</ele>
        <time>2026-08-29T08:06:21.000Z</time>
      </trkpt>
      <trkpt lat="45.04021" lon="5.83002">
        <ele>637.372376</ele>
        <time>2026-08-29T08:06:22.000Z</time>
      </trkpt>
      <trkpt lat="45.04023" lon="5.83005">
        <ele>637.627899</ele>
        <time>2026-08-29T08:06:23.000Z</time>
      </trkpt>
      <trkpt lat="45.04025" lon="5.83008">
        <ele>637.865805</ele>
        <time>2026-08-29T08:06:24.000Z</time>
      </trkpt>
      <trkpt lat="45.04025" lon="5.8301">
        <ele>638.017697</ele>
        <time>2026-08-29T08:06:25.000Z</time>
      </trkpt>
      <trkpt lat="45.04027" lon="5.83012">
        <ele>638.236911</ele>
        <time>2026-08-29T08:06:26.000Z</time>
      </trkpt>
      <trkpt lat="45.04028" lon="5.83015">
        <ele>638.451821</ele>
        <time>2026-08-29T08:06:27.000Z</time>
      </trkpt>
      <trkpt lat="45.0403" lon="5.83019">
        <ele>638.694683</ele>
        <time>2026-08-29T08:06:28.000Z</time>
      </trkpt>
      <trkpt lat="45.04032" lon="5.83021">
        <ele>638.926408</ele>
        <time>2026-08-29T08:06:29.000Z</time>
      </trkpt>
      <trkpt lat="45.04033" lon="5.83024">
        <ele>639.08929</ele>
        <time>2026-08-29T08:06:30.000Z</time>
      </trkpt>
      <trkpt lat="45.04034" lon="5.83025">
        <ele>639.21494</ele>
        <time>2026-08-29T08:06:31.000Z</time>
      </trkpt>
      <trkpt lat="45.04035" lon="5.83027">
        <ele>639.374398</ele>
        <time>2026-08-29T08:06:32.000Z</time>
      </trkpt>
      <trkpt lat="45.04037" lon="5.83028">
        <ele>639.546301</ele>
        <time>2026-08-29T08:06:33.000Z</time>
      </trkpt>
      <trkpt lat="45.04039" lon="5.83029">
        <ele>639.750851</ele>
        <time>2026-08-29T08:06:34.000Z</time>
      </trkpt>
      <trkpt lat="45.04041" lon="5.83031">
        <ele>639.962049</ele>
        <time>2026-08-29T08:06:35.000Z</time>
      </trkpt>
      <trkpt lat="45.04043" lon="5.83033">
        <ele>640.148198</ele>
        <time>2026-08-29T08:06:36.000Z</time>
      </trkpt>
      <trkpt lat="45.04045" lon="5.83035">
        <ele>640.352174</ele>
        <time>2026-08-29T08:06:37.000Z</time>
      </trkpt>
      <trkpt lat="45.04046" lon="5.83037">
        <ele>640.499236</ele>
        <time>2026-08-29T08:06:38.000Z</time>
      </trkpt>
      <trkpt lat="45.04048" lon="5.83039">
        <ele>640.746155</ele>
        <time>2026-08-29T08:06:39.000Z</time>
      </trkpt>
      <trkpt lat="45.0405" lon="5.8304">
        <ele>640.934284</ele>
        <time>2026-08-29T08:06:40.000Z</time>
      </trkpt>
      <trkpt lat="45.04053" lon="5.83041">
        <ele>641.157454</ele>
        <time>2026-08-29T08:06:41.000Z</time>
      </trkpt>
      <trkpt lat="45.04054" lon="5.83043">
        <ele>641.337535</ele>
        <time>2026-08-29T08:06:42.000Z</time>
      </trkpt>
      <trkpt lat="45.04056" lon="5.83044">
        <ele>641.5239</ele>
        <time>2026-08-29T08:06:43.000Z</time>
      </trkpt>
      <trkpt lat="45.04057" lon="5.83046">
        <ele>641.670962</ele>
        <time>2026-08-29T08:06:44.000Z</time>
      </trkpt>
      <trkpt lat="45.04059" lon="5.83047">
        <ele>641.857111</ele>
        <time>2026-08-29T08:06:45.000Z</time>
      </trkpt>
      <trkpt lat="45.04061" lon="5.83049">
        <ele>642.039616</ele>
        <time>2026-08-29T08:06:46.000Z</time>
      </trkpt>
      <trkpt lat="45.04062" lon="5.83051">
        <ele>642.215033</ele>
        <time>2026-08-29T08:06:47.000Z</time>
      </trkpt>
      <trkpt lat="45.04064" lon="5.83053">
        <ele>642.363901</ele>
        <time>2026-08-29T08:06:48.000Z</time>
      </trkpt>
      <trkpt lat="45.04066" lon="5.83054">
        <ele>642.564366</ele>
        <time>2026-08-29T08:06:49.000Z</time>
      </trkpt>
      <trkpt lat="45.04067" lon="5.83056">
        <ele>642.755118</ele>
        <time>2026-08-29T08:06:50.000Z</time>
      </trkpt>
      <trkpt lat="45.04069" lon="5.83058">
        <ele>642.959668</ele>
        <time>2026-08-29T08:06:51.000Z</time>
      </trkpt>
      <trkpt lat="45.04072" lon="5.83059">
        <ele>643.158231</ele>
        <time>2026-08-29T08:06:52.000Z</time>
      </trkpt>
      <trkpt lat="45.04073" lon="5.8306">
        <ele>643.335411</ele>
        <time>2026-08-29T08:06:53.000Z</time>
      </trkpt>
      <trkpt lat="45.04075" lon="5.83062">
        <ele>643.526164</ele>
        <time>2026-08-29T08:06:54.000Z</time>
      </trkpt>
      <trkpt lat="45.04078" lon="5.83065">
        <ele>643.889827</ele>
        <time>2026-08-29T08:06:55.000Z</time>
      </trkpt>
      <trkpt lat="45.0408" lon="5.83067">
        <ele>644.064238</ele>
        <time>2026-08-29T08:06:56.000Z</time>
      </trkpt>
      <trkpt lat="45.04082" lon="5.8307">
        <ele>644.307781</ele>
        <time>2026-08-29T08:06:57.000Z</time>
      </trkpt>
      <trkpt lat="45.04084" lon="5.83072">
        <ele>644.521381</ele>
        <time>2026-08-29T08:06:58.000Z</time>
      </trkpt>
      <trkpt lat="45.04085" lon="5.83076">
        <ele>644.749308</ele>
        <time>2026-08-29T08:06:59.000Z</time>
      </trkpt>
      <trkpt lat="45.04086" lon="5.83078">
        <ele>644.952493</ele>
        <time>2026-08-29T08:07:00.000Z</time>
      </trkpt>
      <trkpt lat="45.04088" lon="5.8308">
        <ele>645.137485</ele>
        <time>2026-08-29T08:07:01.000Z</time>
      </trkpt>
      <trkpt lat="45.04089" lon="5.83082">
        <ele>645.305841</ele>
        <time>2026-08-29T08:07:02.000Z</time>
      </trkpt>
      <trkpt lat="45.04091" lon="5.83085">
        <ele>645.523864</ele>
        <time>2026-08-29T08:07:03.000Z</time>
      </trkpt>
      <trkpt lat="45.04092" lon="5.83088">
        <ele>645.73181</ele>
        <time>2026-08-29T08:07:04.000Z</time>
      </trkpt>
      <trkpt lat="45.04093" lon="5.8309">
        <ele>645.924616</ele>
        <time>2026-08-29T08:07:05.000Z</time>
      </trkpt>
      <trkpt lat="45.04095" lon="5.83093">
        <ele>646.153322</ele>
        <time>2026-08-29T08:07:06.000Z</time>
      </trkpt>
      <trkpt lat="45.04096" lon="5.83096">
        <ele>646.342179</ele>
        <time>2026-08-29T08:07:07.000Z</time>
      </trkpt>
      <trkpt lat="45.04097" lon="5.83098">
        <ele>646.532749</ele>
        <time>2026-08-29T08:07:08.000Z</time>
      </trkpt>
      <trkpt lat="45.04098" lon="5.831">
        <ele>646.684923</ele>
        <time>2026-08-29T08:07:09.000Z</time>
      </trkpt>
      <trkpt lat="45.041" lon="5.83104">
        <ele>646.932866</ele>
        <time>2026-08-29T08:07:10.000Z</time>
      </trkpt>
      <trkpt lat="45.04101" lon="5.83107">
        <ele>647.146436</ele>
        <time>2026-08-29T08:07:11.000Z</time>
      </trkpt>
      <trkpt lat="45.04102" lon="5.83109">
        <ele>647.325802</ele>
        <time>2026-08-29T08:07:12.000Z</time>
      </trkpt>
      <trkpt lat="45.04102" lon="5.83112">
        <ele>647.513006</ele>
        <time>2026-08-29T08:07:13.000Z</time>
      </trkpt>
      <trkpt lat="45.04104" lon="5.83115">
        <ele>647.69546</ele>
        <time>2026-08-29T08:07:14.000Z</time>
      </trkpt>
      <trkpt lat="45.04105" lon="5.83118">
        <ele>647.908226</ele>
        <time>2026-08-29T08:07:15.000Z</time>
      </trkpt>
      <trkpt lat="45.04106" lon="5.8312">
        <ele>648.090371</ele>
        <time>2026-08-29T08:07:16.000Z</time>
      </trkpt>
      <trkpt lat="45.04107" lon="5.83122">
        <ele>648.202589</ele>
        <time>2026-08-29T08:07:17.000Z</time>
      </trkpt>
      <trkpt lat="45.04108" lon="5.83124">
        <ele>648.410065</ele>
        <time>2026-08-29T08:07:18.000Z</time>
      </trkpt>
      <trkpt lat="45.04109" lon="5.83127">
        <ele>648.597301</ele>
        <time>2026-08-29T08:07:19.000Z</time>
      </trkpt>
      <trkpt lat="45.0411" lon="5.83129">
        <ele>648.769912</ele>
        <time>2026-08-29T08:07:20.000Z</time>
      </trkpt>
      <trkpt lat="45.04111" lon="5.83132">
        <ele>648.962995</ele>
        <time>2026-08-29T08:07:21.000Z</time>
      </trkpt>
      <trkpt lat="45.04112" lon="5.83134">
        <ele>649.150736</ele>
        <time>2026-08-29T08:07:22.000Z</time>
      </trkpt>
      <trkpt lat="45.04114" lon="5.83137">
        <ele>649.348358</ele>
        <time>2026-08-29T08:07:23.000Z</time>
      </trkpt>
      <trkpt lat="45.04116" lon="5.83139">
        <ele>649.575819</ele>
        <time>2026-08-29T08:07:24.000Z</time>
      </trkpt>
      <trkpt lat="45.04117" lon="5.83143">
        <ele>649.789193</ele>
        <time>2026-08-29T08:07:25.000Z</time>
      </trkpt>
      <trkpt lat="45.04118" lon="5.83145">
        <ele>649.986516</ele>
        <time>2026-08-29T08:07:26.000Z</time>
      </trkpt>
      <trkpt lat="45.04119" lon="5.83147">
        <ele>650.169936</ele>
        <time>2026-08-29T08:07:27.000Z</time>
      </trkpt>
      <trkpt lat="45.04121" lon="5.8315">
        <ele>650.362236</ele>
        <time>2026-08-29T08:07:28.000Z</time>
      </trkpt>
      <trkpt lat="45.04122" lon="5.83152">
        <ele>650.551636</ele>
        <time>2026-08-29T08:07:29.000Z</time>
      </trkpt>
      <trkpt lat="45.04124" lon="5.83154">
        <ele>650.751591</ele>
        <time>2026-08-29T08:07:30.000Z</time>
      </trkpt>
      <trkpt lat="45.04125" lon="5.83157">
        <ele>650.960558</ele>
        <time>2026-08-29T08:07:31.000Z</time>
      </trkpt>
      <trkpt lat="45.04127" lon="5.83159">
        <ele>651.143978</ele>
        <time>2026-08-29T08:07:32.000Z</time>
      </trkpt>
      <trkpt lat="45.04128" lon="5.83162">
        <ele>651.347162</ele>
        <time>2026-08-29T08:07:33.000Z</time>
      </trkpt>
      <trkpt lat="45.0413" lon="5.83164">
        <ele>651.555686</ele>
        <time>2026-08-29T08:07:34.000Z</time>
      </trkpt>
      <trkpt lat="45.04131" lon="5.83166">
        <ele>651.75301</ele>
        <time>2026-08-29T08:07:35.000Z</time>
      </trkpt>
      <trkpt lat="45.04132" lon="5.83168">
        <ele>651.899907</ele>
        <time>2026-08-29T08:07:36.000Z</time>
      </trkpt>
      <trkpt lat="45.04133" lon="5.83171">
        <ele>652.082051</ele>
        <time>2026-08-29T08:07:37.000Z</time>
      </trkpt>
      <trkpt lat="45.04135" lon="5.83174">
        <ele>652.289526</ele>
        <time>2026-08-29T08:07:38.000Z</time>
      </trkpt>
      <trkpt lat="45.04136" lon="5.83176">
        <ele>652.474518</ele>
        <time>2026-08-29T08:07:39.000Z</time>
      </trkpt>
      <trkpt lat="45.04137" lon="5.83177">
        <ele>652.601214</ele>
        <time>2026-08-29T08:07:40.000Z</time>
      </trkpt>
      <trkpt lat="45.04139" lon="5.83179">
        <ele>652.784634</ele>
        <time>2026-08-29T08:07:41.000Z</time>
      </trkpt>
      <trkpt lat="45.0414" lon="5.83182">
        <ele>652.990835</ele>
        <time>2026-08-29T08:07:42.000Z</time>
      </trkpt>
      <trkpt lat="45.04142" lon="5.83184">
        <ele>653.184025</ele>
        <time>2026-08-29T08:07:43.000Z</time>
      </trkpt>
      <trkpt lat="45.04143" lon="5.83186">
        <ele>653.366351</ele>
        <time>2026-08-29T08:07:44.000Z</time>
      </trkpt>
      <trkpt lat="45.04144" lon="5.83189">
        <ele>653.537399</ele>
        <time>2026-08-29T08:07:45.000Z</time>
      </trkpt>
      <trkpt lat="45.04145" lon="5.8319">
        <ele>653.67908</ele>
        <time>2026-08-29T08:07:46.000Z</time>
      </trkpt>
      <trkpt lat="45.04147" lon="5.83193">
        <ele>653.928128</ele>
        <time>2026-08-29T08:07:47.000Z</time>
      </trkpt>
      <trkpt lat="45.04148" lon="5.83196">
        <ele>654.156915</ele>
        <time>2026-08-29T08:07:48.000Z</time>
      </trkpt>
      <trkpt lat="45.0415" lon="5.83199">
        <ele>654.386436</ele>
        <time>2026-08-29T08:07:49.000Z</time>
      </trkpt>
      <trkpt lat="45.04151" lon="5.83201">
        <ele>654.562824</ele>
        <time>2026-08-29T08:07:50.000Z</time>
      </trkpt>
      <trkpt lat="45.04153" lon="5.83204">
        <ele>654.791572</ele>
        <time>2026-08-29T08:07:51.000Z</time>
      </trkpt>
      <trkpt lat="45.04154" lon="5.83205">
        <ele>654.957263</ele>
        <time>2026-08-29T08:07:52.000Z</time>
      </trkpt>
      <trkpt lat="45.04155" lon="5.83208">
        <ele>655.171771</ele>
        <time>2026-08-29T08:07:53.000Z</time>
      </trkpt>
      <trkpt lat="45.04157" lon="5.8321">
        <ele>655.318068</ele>
        <time>2026-08-29T08:07:54.000Z</time>
      </trkpt>
      <trkpt lat="45.04157" lon="5.83213">
        <ele>655.498047</ele>
        <time>2026-08-29T08:07:55.000Z</time>
      </trkpt>
      <trkpt lat="45.04158" lon="5.83215">
        <ele>655.67612</ele>
        <time>2026-08-29T08:07:56.000Z</time>
      </trkpt>
      <trkpt lat="45.04159" lon="5.83218">
        <ele>655.867804</ele>
        <time>2026-08-29T08:07:57.000Z</time>
      </trkpt>
      <trkpt lat="45.0416" lon="5.83221">
        <ele>656.092139</ele>
        <time>2026-08-29T08:07:58.000Z</time>
      </trkpt>
      <trkpt lat="45.04161" lon="5.83224">
        <ele>656.277837</ele>
        <time>2026-08-29T08:07:59.000Z</time>
      </trkpt>
      <trkpt lat="45.04161" lon="5.83227">
        <ele>656.492037</ele>
        <time>2026-08-29T08:08:00.000Z</time>
      </trkpt>
      <trkpt lat="45.04162" lon="5.8323">
        <ele>656.702559</ele>
        <time>2026-08-29T08:08:01.000Z</time>
      </trkpt>
      <trkpt lat="45.04163" lon="5.83233">
        <ele>656.905884</ele>
        <time>2026-08-29T08:08:02.000Z</time>
      </trkpt>
      <trkpt lat="45.04164" lon="5.83236">
        <ele>657.106907</ele>
        <time>2026-08-29T08:08:03.000Z</time>
      </trkpt>
      <trkpt lat="45.04165" lon="5.83239">
        <ele>657.292722</ele>
        <time>2026-08-29T08:08:04.000Z</time>
      </trkpt>
      <trkpt lat="45.04166" lon="5.83241">
        <ele>657.44321</ele>
        <time>2026-08-29T08:08:05.000Z</time>
      </trkpt>
      <trkpt lat="45.04166" lon="5.83244">
        <ele>657.643209</ele>
        <time>2026-08-29T08:08:06.000Z</time>
      </trkpt>
      <trkpt lat="45.04167" lon="5.83246">
        <ele>657.821281</ele>
        <time>2026-08-29T08:08:07.000Z</time>
      </trkpt>
      <trkpt lat="45.04168" lon="5.83248">
        <ele>657.983981</ele>
        <time>2026-08-29T08:08:08.000Z</time>
      </trkpt>
      <trkpt lat="45.04169" lon="5.83252">
        <ele>658.202654</ele>
        <time>2026-08-29T08:08:09.000Z</time>
      </trkpt>
      <trkpt lat="45.0417" lon="5.83254">
        <ele>658.380726</ele>
        <time>2026-08-29T08:08:10.000Z</time>
      </trkpt>
      <trkpt lat="45.0417" lon="5.83257">
        <ele>658.545625</ele>
        <time>2026-08-29T08:08:11.000Z</time>
      </trkpt>
      <trkpt lat="45.04172" lon="5.83259">
        <ele>658.763607</ele>
        <time>2026-08-29T08:08:12.000Z</time>
      </trkpt>
      <trkpt lat="45.04173" lon="5.83262">
        <ele>658.962253</ele>
        <time>2026-08-29T08:08:13.000Z</time>
      </trkpt>
      <trkpt lat="45.04175" lon="5.83263">
        <ele>659.179553</ele>
        <time>2026-08-29T08:08:14.000Z</time>
      </trkpt>
      <trkpt lat="45.04177" lon="5.83266">
        <ele>659.386461</ele>
        <time>2026-08-29T08:08:15.000Z</time>
      </trkpt>
      <trkpt lat="45.04178" lon="5.83269">
        <ele>659.586972</ele>
        <time>2026-08-29T08:08:16.000Z</time>
      </trkpt>
      <trkpt lat="45.04179" lon="5.83271">
        <ele>659.789426</ele>
        <time>2026-08-29T08:08:17.000Z</time>
      </trkpt>
      <trkpt lat="45.0418" lon="5.83273">
        <ele>659.960473</ele>
        <time>2026-08-29T08:08:18.000Z</time>
      </trkpt>
      <trkpt lat="45.04182" lon="5.83275">
        <ele>660.151172</ele>
        <time>2026-08-29T08:08:19.000Z</time>
      </trkpt>
      <trkpt lat="45.04183" lon="5.83277">
        <ele>660.292853</ele>
        <time>2026-08-29T08:08:20.000Z</time>
      </trkpt>
      <trkpt lat="45.04184" lon="5.83279">
        <ele>660.438174</ele>
        <time>2026-08-29T08:08:21.000Z</time>
      </trkpt>
      <trkpt lat="45.04185" lon="5.8328">
        <ele>660.585187</ele>
        <time>2026-08-29T08:08:22.000Z</time>
      </trkpt>
      <trkpt lat="45.04187" lon="5.83281">
        <ele>660.728994</ele>
        <time>2026-08-29T08:08:23.000Z</time>
      </trkpt>
      <trkpt lat="45.04188" lon="5.83282">
        <ele>660.868402</ele>
        <time>2026-08-29T08:08:24.000Z</time>
      </trkpt>
      <trkpt lat="45.0419" lon="5.83286">
        <ele>661.16905</ele>
        <time>2026-08-29T08:08:25.000Z</time>
      </trkpt>
      <trkpt lat="45.04191" lon="5.83288">
        <ele>661.352287</ele>
        <time>2026-08-29T08:08:26.000Z</time>
      </trkpt>
      <trkpt lat="45.04193" lon="5.8329">
        <ele>661.513917</ele>
        <time>2026-08-29T08:08:27.000Z</time>
      </trkpt>
      <trkpt lat="45.04195" lon="5.83292">
        <ele>661.734415</ele>
        <time>2026-08-29T08:08:28.000Z</time>
      </trkpt>
      <trkpt lat="45.04196" lon="5.83294">
        <ele>661.888388</ele>
        <time>2026-08-29T08:08:29.000Z</time>
      </trkpt>
      <trkpt lat="45.04198" lon="5.83295">
        <ele>662.081117</ele>
        <time>2026-08-29T08:08:30.000Z</time>
      </trkpt>
      <trkpt lat="45.042" lon="5.83297">
        <ele>662.301636</ele>
        <time>2026-08-29T08:08:31.000Z</time>
      </trkpt>
      <trkpt lat="45.04203" lon="5.83298">
        <ele>662.564412</ele>
        <time>2026-08-29T08:08:32.000Z</time>
      </trkpt>
      <trkpt lat="45.04205" lon="5.83299">
        <ele>662.759827</ele>
        <time>2026-08-29T08:08:33.000Z</time>
      </trkpt>
      <trkpt lat="45.04207" lon="5.833">
        <ele>662.938543</ele>
        <time>2026-08-29T08:08:34.000Z</time>
      </trkpt>
      <trkpt lat="45.04209" lon="5.83302">
        <ele>663.148094</ele>
        <time>2026-08-29T08:08:35.000Z</time>
      </trkpt>
      <trkpt lat="45.0421" lon="5.83304">
        <ele>663.302065</ele>
        <time>2026-08-29T08:08:36.000Z</time>
      </trkpt>
      <trkpt lat="45.04212" lon="5.83305">
        <ele>663.486451</ele>
        <time>2026-08-29T08:08:37.000Z</time>
      </trkpt>
      <trkpt lat="45.04213" lon="5.83306">
        <ele>663.617335</ele>
        <time>2026-08-29T08:08:38.000Z</time>
      </trkpt>
      <trkpt lat="45.04215" lon="5.83307">
        <ele>663.799412</ele>
        <time>2026-08-29T08:08:39.000Z</time>
      </trkpt>
      <trkpt lat="45.04216" lon="5.83308">
        <ele>663.946425</ele>
        <time>2026-08-29T08:08:40.000Z</time>
      </trkpt>
      <trkpt lat="45.04218" lon="5.8331">
        <ele>664.166385</ele>
        <time>2026-08-29T08:08:41.000Z</time>
      </trkpt>
      <trkpt lat="45.0422" lon="5.83312">
        <ele>664.383047</ele>
        <time>2026-08-29T08:08:42.000Z</time>
      </trkpt>
      <trkpt lat="45.04222" lon="5.83313">
        <ele>664.559152</ele>
        <time>2026-08-29T08:08:43.000Z</time>
      </trkpt>
      <trkpt lat="45.04224" lon="5.83314">
        <ele>664.70549</ele>
        <time>2026-08-29T08:08:44.000Z</time>
      </trkpt>
      <trkpt lat="45.04225" lon="5.83315">
        <ele>664.87696</ele>
        <time>2026-08-29T08:08:45.000Z</time>
      </trkpt>
      <trkpt lat="45.04227" lon="5.83316">
        <ele>665.050519</ele>
        <time>2026-08-29T08:08:46.000Z</time>
      </trkpt>
      <trkpt lat="45.04229" lon="5.83318">
        <ele>665.303472</ele>
        <time>2026-08-29T08:08:47.000Z</time>
      </trkpt>
      <trkpt lat="45.04231" lon="5.83319">
        <ele>665.455216</ele>
        <time>2026-08-29T08:08:48.000Z</time>
      </trkpt>
      <trkpt lat="45.04233" lon="5.83321">
        <ele>665.642838</ele>
        <time>2026-08-29T08:08:49.000Z</time>
      </trkpt>
      <trkpt lat="45.04235" lon="5.83323">
        <ele>665.860137</ele>
        <time>2026-08-29T08:08:50.000Z</time>
      </trkpt>
      <trkpt lat="45.04236" lon="5.83323">
        <ele>665.995749</ele>
        <time>2026-08-29T08:08:51.000Z</time>
      </trkpt>
      <trkpt lat="45.04238" lon="5.83325">
        <ele>666.185304</ele>
        <time>2026-08-29T08:08:52.000Z</time>
      </trkpt>
      <trkpt lat="45.0424" lon="5.83326">
        <ele>666.380422</ele>
        <time>2026-08-29T08:08:53.000Z</time>
      </trkpt>
      <trkpt lat="45.04242" lon="5.83327">
        <ele>666.607888</ele>
        <time>2026-08-29T08:08:54.000Z</time>
      </trkpt>
      <trkpt lat="45.04244" lon="5.83329">
        <ele>666.773578</ele>
        <time>2026-08-29T08:08:55.000Z</time>
      </trkpt>
      <trkpt lat="45.04245" lon="5.83331">
        <ele>666.961481</ele>
        <time>2026-08-29T08:08:56.000Z</time>
      </trkpt>
      <trkpt lat="45.04248" lon="5.83333">
        <ele>667.226912</ele>
        <time>2026-08-29T08:08:57.000Z</time>
      </trkpt>
      <trkpt lat="45.0425" lon="5.83335">
        <ele>667.432462</ele>
        <time>2026-08-29T08:08:58.000Z</time>
      </trkpt>
      <trkpt lat="45.04252" lon="5.83337">
        <ele>667.626832</ele>
        <time>2026-08-29T08:08:59.000Z</time>
      </trkpt>
      <trkpt lat="45.04254" lon="5.83338">
        <ele>667.838117</ele>
        <time>2026-08-29T08:09:00.000Z</time>
      </trkpt>
      <trkpt lat="45.04255" lon="5.83341">
        <ele>668.05832</ele>
        <time>2026-08-29T08:09:01.000Z</time>
      </trkpt>
      <trkpt lat="45.04257" lon="5.83343">
        <ele>668.277139</ele>
        <time>2026-08-29T08:09:02.000Z</time>
      </trkpt>
      <trkpt lat="45.04259" lon="5.83345">
        <ele>668.53058</ele>
        <time>2026-08-29T08:09:03.000Z</time>
      </trkpt>
      <trkpt lat="45.04261" lon="5.83347">
        <ele>668.6971</ele>
        <time>2026-08-29T08:09:04.000Z</time>
      </trkpt>
      <trkpt lat="45.04263" lon="5.83349">
        <ele>668.917059</ele>
        <time>2026-08-29T08:09:05.000Z</time>
      </trkpt>
      <trkpt lat="45.04263" lon="5.83353">
        <ele>669.125054</ele>
        <time>2026-08-29T08:09:06.000Z</time>
      </trkpt>
      <trkpt lat="45.04264" lon="5.83356">
        <ele>669.355096</ele>
        <time>2026-08-29T08:09:07.000Z</time>
      </trkpt>
      <trkpt lat="45.04265" lon="5.83359">
        <ele>669.539293</ele>
        <time>2026-08-29T08:09:08.000Z</time>
      </trkpt>
      <trkpt lat="45.04265" lon="5.83362">
        <ele>669.710686</ele>
        <time>2026-08-29T08:09:09.000Z</time>
      </trkpt>
      <trkpt lat="45.04265" lon="5.83365">
        <ele>669.905898</ele>
        <time>2026-08-29T08:09:10.000Z</time>
      </trkpt>
      <trkpt lat="45.04265" lon="5.83367">
        <ele>670.042855</ele>
        <time>2026-08-29T08:09:11.000Z</time>
      </trkpt>
      <trkpt lat="45.04265" lon="5.8337">
        <ele>670.208338</ele>
        <time>2026-08-29T08:09:12.000Z</time>
      </trkpt>
      <trkpt lat="45.04265" lon="5.83373">
        <ele>670.357034</ele>
        <time>2026-08-29T08:09:13.000Z</time>
      </trkpt>
      <trkpt lat="45.04266" lon="5.83376">
        <ele>670.541957</ele>
        <time>2026-08-29T08:09:14.000Z</time>
      </trkpt>
      <trkpt lat="45.04265" lon="5.83377">
        <ele>670.620374</ele>
        <time>2026-08-29T08:09:15.000Z</time>
      </trkpt>
      <trkpt lat="45.04265" lon="5.83379">
        <ele>670.716404</ele>
        <time>2026-08-29T08:09:16.000Z</time>
      </trkpt>
      <trkpt lat="45.04266" lon="5.83381">
        <ele>670.853633</ele>
        <time>2026-08-29T08:09:17.000Z</time>
      </trkpt>
      <trkpt lat="45.04267" lon="5.83383">
        <ele>671.035434</ele>
        <time>2026-08-29T08:09:18.000Z</time>
      </trkpt>
      <trkpt lat="45.04268" lon="5.83386">
        <ele>671.214054</ele>
        <time>2026-08-29T08:09:19.000Z</time>
      </trkpt>
      <trkpt lat="45.0427" lon="5.83389">
        <ele>671.407152</ele>
        <time>2026-08-29T08:09:20.000Z</time>
      </trkpt>
      <trkpt lat="45.0427" lon="5.83392">
        <ele>671.587584</ele>
        <time>2026-08-29T08:09:21.000Z</time>
      </trkpt>
      <trkpt lat="45.04271" lon="5.83395">
        <ele>671.828193</ele>
        <time>2026-08-29T08:09:22.000Z</time>
      </trkpt>
      <trkpt lat="45.04272" lon="5.83398">
        <ele>672.017533</ele>
        <time>2026-08-29T08:09:23.000Z</time>
      </trkpt>
      <trkpt lat="45.04273" lon="5.83401">
        <ele>672.190458</ele>
        <time>2026-08-29T08:09:24.000Z</time>
      </trkpt>
      <trkpt lat="45.04274" lon="5.83404">
        <ele>672.413755</ele>
        <time>2026-08-29T08:09:25.000Z</time>
      </trkpt>
      <trkpt lat="45.04276" lon="5.83408">
        <ele>672.660756</ele>
        <time>2026-08-29T08:09:26.000Z</time>
      </trkpt>
      <trkpt lat="45.04277" lon="5.83411">
        <ele>672.851469</ele>
        <time>2026-08-29T08:09:27.000Z</time>
      </trkpt>
      <trkpt lat="45.04278" lon="5.83414">
        <ele>673.036889</ele>
        <time>2026-08-29T08:09:28.000Z</time>
      </trkpt>
      <trkpt lat="45.04279" lon="5.83416">
        <ele>673.230432</ele>
        <time>2026-08-29T08:09:29.000Z</time>
      </trkpt>
      <trkpt lat="45.0428" lon="5.83419">
        <ele>673.410597</ele>
        <time>2026-08-29T08:09:30.000Z</time>
      </trkpt>
      <trkpt lat="45.04282" lon="5.83423">
        <ele>673.734067</ele>
        <time>2026-08-29T08:09:31.000Z</time>
      </trkpt>
      <trkpt lat="45.04283" lon="5.83427">
        <ele>673.93762</ele>
        <time>2026-08-29T08:09:32.000Z</time>
      </trkpt>
      <trkpt lat="45.04284" lon="5.83429">
        <ele>674.099818</ele>
        <time>2026-08-29T08:09:33.000Z</time>
      </trkpt>
      <trkpt lat="45.04284" lon="5.83432">
        <ele>674.272743</ele>
        <time>2026-08-29T08:09:34.000Z</time>
      </trkpt>
      <trkpt lat="45.04286" lon="5.83434">
        <ele>674.456194</ele>
        <time>2026-08-29T08:09:35.000Z</time>
      </trkpt>
      <trkpt lat="45.04287" lon="5.83437">
        <ele>674.640185</ele>
        <time>2026-08-29T08:09:36.000Z</time>
      </trkpt>
      <trkpt lat="45.04288" lon="5.8344">
        <ele>674.819287</ele>
        <time>2026-08-29T08:09:37.000Z</time>
      </trkpt>
      <trkpt lat="45.04288" lon="5.83442">
        <ele>674.965516</ele>
        <time>2026-08-29T08:09:38.000Z</time>
      </trkpt>
      <trkpt lat="45.0429" lon="5.83445">
        <ele>675.206881</ele>
        <time>2026-08-29T08:09:39.000Z</time>
      </trkpt>
      <trkpt lat="45.04293" lon="5.83448">
        <ele>675.463321</ele>
        <time>2026-08-29T08:09:40.000Z</time>
      </trkpt>
      <trkpt lat="45.04294" lon="5.8345">
        <ele>675.637392</ele>
        <time>2026-08-29T08:09:41.000Z</time>
      </trkpt>
      <trkpt lat="45.04295" lon="5.83453">
        <ele>675.820931</ele>
        <time>2026-08-29T08:09:42.000Z</time>
      </trkpt>
      <trkpt lat="45.04297" lon="5.83456">
        <ele>676.052119</ele>
        <time>2026-08-29T08:09:43.000Z</time>
      </trkpt>
      <trkpt lat="45.04299" lon="5.83458">
        <ele>676.250496</ele>
        <time>2026-08-29T08:09:44.000Z</time>
      </trkpt>
      <trkpt lat="45.04301" lon="5.83461">
        <ele>676.497975</ele>
        <time>2026-08-29T08:09:45.000Z</time>
      </trkpt>
      <trkpt lat="45.04302" lon="5.83463">
        <ele>676.682959</ele>
        <time>2026-08-29T08:09:46.000Z</time>
      </trkpt>
      <trkpt lat="45.04304" lon="5.83465">
        <ele>676.823253</ele>
        <time>2026-08-29T08:09:47.000Z</time>
      </trkpt>
      <trkpt lat="45.04305" lon="5.83468">
        <ele>677.042641</ele>
        <time>2026-08-29T08:09:48.000Z</time>
      </trkpt>
      <trkpt lat="45.04307" lon="5.8347">
        <ele>677.250903</ele>
        <time>2026-08-29T08:09:49.000Z</time>
      </trkpt>
      <trkpt lat="45.04308" lon="5.83472">
        <ele>677.410522</ele>
        <time>2026-08-29T08:09:50.000Z</time>
      </trkpt>
      <trkpt lat="45.0431" lon="5.83475">
        <ele>677.601277</ele>
        <time>2026-08-29T08:09:51.000Z</time>
      </trkpt>
      <trkpt lat="45.04311" lon="5.83477">
        <ele>677.778861</ele>
        <time>2026-08-29T08:09:52.000Z</time>
      </trkpt>
      <trkpt lat="45.04313" lon="5.83479">
        <ele>677.952624</ele>
        <time>2026-08-29T08:09:53.000Z</time>
      </trkpt>
      <trkpt lat="45.04314" lon="5.83482">
        <ele>678.13682</ele>
        <time>2026-08-29T08:09:54.000Z</time>
      </trkpt>
      <trkpt lat="45.04315" lon="5.83484">
        <ele>678.335197</ele>
        <time>2026-08-29T08:09:55.000Z</time>
      </trkpt>
      <trkpt lat="45.04317" lon="5.83487">
        <ele>678.533206</ele>
        <time>2026-08-29T08:09:56.000Z</time>
      </trkpt>
      <trkpt lat="45.04318" lon="5.83489">
        <ele>678.711931</ele>
        <time>2026-08-29T08:09:57.000Z</time>
      </trkpt>
      <trkpt lat="45.04319" lon="5.83492">
        <ele>678.897349</ele>
        <time>2026-08-29T08:09:58.000Z</time>
      </trkpt>
      <trkpt lat="45.0432" lon="5.83495">
        <ele>679.073786</ele>
        <time>2026-08-29T08:09:59.000Z</time>
      </trkpt>
      <trkpt lat="45.04321" lon="5.83498">
        <ele>679.257324</ele>
        <time>2026-08-29T08:10:00.000Z</time>
      </trkpt>
      <trkpt lat="45.04322" lon="5.835">
        <ele>679.43376</ele>
        <time>2026-08-29T08:10:01.000Z</time>
      </trkpt>
      <trkpt lat="45.04323" lon="5.83503">
        <ele>679.619179</ele>
        <time>2026-08-29T08:10:02.000Z</time>
      </trkpt>
      <trkpt lat="45.04324" lon="5.83506">
        <ele>679.797677</ele>
        <time>2026-08-29T08:10:03.000Z</time>
      </trkpt>
      <trkpt lat="45.04325" lon="5.83509">
        <ele>679.996296</ele>
        <time>2026-08-29T08:10:04.000Z</time>
      </trkpt>
      <trkpt lat="45.04326" lon="5.83512">
        <ele>680.185635</ele>
        <time>2026-08-29T08:10:05.000Z</time>
      </trkpt>
      <trkpt lat="45.04327" lon="5.83514">
        <ele>680.319508</ele>
        <time>2026-08-29T08:10:06.000Z</time>
      </trkpt>
      <trkpt lat="45.04328" lon="5.83516">
        <ele>680.507751</ele>
        <time>2026-08-29T08:10:07.000Z</time>
      </trkpt>
      <trkpt lat="45.04329" lon="5.83518">
        <ele>680.662246</ele>
        <time>2026-08-29T08:10:08.000Z</time>
      </trkpt>
      <trkpt lat="45.0433" lon="5.83521">
        <ele>680.831315</ele>
        <time>2026-08-29T08:10:09.000Z</time>
      </trkpt>
      <trkpt lat="45.04331" lon="5.83523">
        <ele>680.987625</ele>
        <time>2026-08-29T08:10:10.000Z</time>
      </trkpt>
      <trkpt lat="45.04333" lon="5.83524">
        <ele>681.158584</ele>
        <time>2026-08-29T08:10:11.000Z</time>
      </trkpt>
      <trkpt lat="45.04334" lon="5.83526">
        <ele>681.326961</ele>
        <time>2026-08-29T08:10:12.000Z</time>
      </trkpt>
      <trkpt lat="45.04336" lon="5.83528">
        <ele>681.473833</ele>
        <time>2026-08-29T08:10:13.000Z</time>
      </trkpt>
      <trkpt lat="45.04338" lon="5.8353">
        <ele>681.668424</ele>
        <time>2026-08-29T08:10:14.000Z</time>
      </trkpt>
      <trkpt lat="45.0434" lon="5.83532">
        <ele>681.873778</ele>
        <time>2026-08-29T08:10:15.000Z</time>
      </trkpt>
      <trkpt lat="45.04342" lon="5.83533">
        <ele>682.048496</ele>
        <time>2026-08-29T08:10:16.000Z</time>
      </trkpt>
      <trkpt lat="45.04343" lon="5.83535">
        <ele>682.226287</ele>
        <time>2026-08-29T08:10:17.000Z</time>
      </trkpt>
      <trkpt lat="45.04345" lon="5.83536">
        <ele>682.380582</ele>
        <time>2026-08-29T08:10:18.000Z</time>
      </trkpt>
      <trkpt lat="45.04346" lon="5.83538">
        <ele>682.527702</ele>
        <time>2026-08-29T08:10:19.000Z</time>
      </trkpt>
      <trkpt lat="45.04348" lon="5.83539">
        <ele>682.719421</ele>
        <time>2026-08-29T08:10:20.000Z</time>
      </trkpt>
      <trkpt lat="45.0435" lon="5.8354">
        <ele>682.881164</ele>
        <time>2026-08-29T08:10:21.000Z</time>
      </trkpt>
      <trkpt lat="45.04352" lon="5.83541">
        <ele>683.061621</ele>
        <time>2026-08-29T08:10:22.000Z</time>
      </trkpt>
      <trkpt lat="45.04354" lon="5.83542">
        <ele>683.18267</ele>
        <time>2026-08-29T08:10:23.000Z</time>
      </trkpt>
      <trkpt lat="45.04355" lon="5.83542">
        <ele>683.327902</ele>
        <time>2026-08-29T08:10:24.000Z</time>
      </trkpt>
      <trkpt lat="45.04357" lon="5.83542">
        <ele>683.495606</ele>
        <time>2026-08-29T08:10:25.000Z</time>
      </trkpt>
      <trkpt lat="45.0436" lon="5.83541">
        <ele>683.690243</ele>
        <time>2026-08-29T08:10:26.000Z</time>
      </trkpt>
      <trkpt lat="45.04362" lon="5.83541">
        <ele>683.891335</ele>
        <time>2026-08-29T08:10:27.000Z</time>
      </trkpt>
      <trkpt lat="45.04364" lon="5.83541">
        <ele>684.083806</ele>
        <time>2026-08-29T08:10:28.000Z</time>
      </trkpt>
      <trkpt lat="45.04366" lon="5.83541">
        <ele>684.26035</ele>
        <time>2026-08-29T08:10:29.000Z</time>
      </trkpt>
      <trkpt lat="45.04369" lon="5.8354">
        <ele>684.450567</ele>
        <time>2026-08-29T08:10:30.000Z</time>
      </trkpt>
      <trkpt lat="45.04371" lon="5.83539">
        <ele>684.637179</ele>
        <time>2026-08-29T08:10:31.000Z</time>
      </trkpt>
      <trkpt lat="45.04373" lon="5.83539">
        <ele>684.814899</ele>
        <time>2026-08-29T08:10:32.000Z</time>
      </trkpt>
      <trkpt lat="45.04375" lon="5.83538">
        <ele>684.986034</ele>
        <time>2026-08-29T08:10:33.000Z</time>
      </trkpt>
      <trkpt lat="45.04377" lon="5.83537">
        <ele>685.154288</ele>
        <time>2026-08-29T08:10:34.000Z</time>
      </trkpt>
      <trkpt lat="45.04379" lon="5.83536">
        <ele>685.33393</ele>
        <time>2026-08-29T08:10:35.000Z</time>
      </trkpt>
      <trkpt lat="45.04382" lon="5.83535">
        <ele>685.507977</ele>
        <time>2026-08-29T08:10:36.000Z</time>
      </trkpt>
      <trkpt lat="45.04384" lon="5.83534">
        <ele>685.692558</ele>
        <time>2026-08-29T08:10:37.000Z</time>
      </trkpt>
      <trkpt lat="45.04386" lon="5.83534">
        <ele>685.867427</ele>
        <time>2026-08-29T08:10:38.000Z</time>
      </trkpt>
      <trkpt lat="45.04388" lon="5.83534">
        <ele>686.042026</ele>
        <time>2026-08-29T08:10:39.000Z</time>
      </trkpt>
      <trkpt lat="45.04391" lon="5.83534">
        <ele>686.249479</ele>
        <time>2026-08-29T08:10:40.000Z</time>
      </trkpt>
      <trkpt lat="45.04393" lon="5.83535">
        <ele>686.447931</ele>
        <time>2026-08-29T08:10:41.000Z</time>
      </trkpt>
      <trkpt lat="45.04396" lon="5.83537">
        <ele>686.642375</ele>
        <time>2026-08-29T08:10:42.000Z</time>
      </trkpt>
      <trkpt lat="45.04397" lon="5.83538">
        <ele>686.817748</ele>
        <time>2026-08-29T08:10:43.000Z</time>
      </trkpt>
      <trkpt lat="45.04398" lon="5.83541">
        <ele>686.987022</ele>
        <time>2026-08-29T08:10:44.000Z</time>
      </trkpt>
      <trkpt lat="45.04399" lon="5.83544">
        <ele>687.172578</ele>
        <time>2026-08-29T08:10:45.000Z</time>
      </trkpt>
      <trkpt lat="45.04398" lon="5.83547">
        <ele>687.329014</ele>
        <time>2026-08-29T08:10:46.000Z</time>
      </trkpt>
      <trkpt lat="45.04397" lon="5.83549">
        <ele>687.509914</ele>
        <time>2026-08-29T08:10:47.000Z</time>
      </trkpt>
      <trkpt lat="45.04394" lon="5.83552">
        <ele>687.766714</ele>
        <time>2026-08-29T08:10:48.000Z</time>
      </trkpt>
      <trkpt lat="45.04391" lon="5.83553">
        <ele>688.006237</ele>
        <time>2026-08-29T08:10:49.000Z</time>
      </trkpt>
      <trkpt lat="45.04388" lon="5.83554">
        <ele>688.223031</ele>
        <time>2026-08-29T08:10:50.000Z</time>
      </trkpt>
      <trkpt lat="45.04386" lon="5.83553">
        <ele>688.452096</ele>
        <time>2026-08-29T08:10:51.000Z</time>
      </trkpt>
      <trkpt lat="45.04383" lon="5.83553">
        <ele>688.690129</ele>
        <time>2026-08-29T08:10:52.000Z</time>
      </trkpt>
      <trkpt lat="45.04379" lon="5.83553">
        <ele>688.967758</ele>
        <time>2026-08-29T08:10:53.000Z</time>
      </trkpt>
      <trkpt lat="45.04376" lon="5.83554">
        <ele>689.217712</ele>
        <time>2026-08-29T08:10:54.000Z</time>
      </trkpt>
      <trkpt lat="45.04373" lon="5.83554">
        <ele>689.451068</ele>
        <time>2026-08-29T08:10:55.000Z</time>
      </trkpt>
      <trkpt lat="45.0437" lon="5.83555">
        <ele>689.685432</ele>
        <time>2026-08-29T08:10:56.000Z</time>
      </trkpt>
      <trkpt lat="45.04367" lon="5.83556">
        <ele>689.917494</ele>
        <time>2026-08-29T08:10:57.000Z</time>
      </trkpt>
      <trkpt lat="45.04365" lon="5.83558">
        <ele>690.158792</ele>
        <time>2026-08-29T08:10:58.000Z</time>
      </trkpt>
      <trkpt lat="45.04362" lon="5.83559">
        <ele>690.395557</ele>
        <time>2026-08-29T08:10:59.000Z</time>
      </trkpt>
      <trkpt lat="45.04359" lon="5.83559">
        <ele>690.611553</ele>
        <time>2026-08-29T08:11:00.000Z</time>
      </trkpt>
      <trkpt lat="45.04356" lon="5.83559">
        <ele>690.833938</ele>
        <time>2026-08-29T08:11:01.000Z</time>
      </trkpt>
      <trkpt lat="45.04353" lon="5.8356">
        <ele>691.056676</ele>
        <time>2026-08-29T08:11:02.000Z</time>
      </trkpt>
      <trkpt lat="45.04351" lon="5.8356">
        <ele>691.279414</ele>
        <time>2026-08-29T08:11:03.000Z</time>
      </trkpt>
      <trkpt lat="45.04348" lon="5.8356">
        <ele>691.493878</ele>
        <time>2026-08-29T08:11:04.000Z</time>
      </trkpt>
      <trkpt lat="45.04345" lon="5.8356">
        <ele>691.715981</ele>
        <time>2026-08-29T08:11:05.000Z</time>
      </trkpt>
      <trkpt lat="45.04342" lon="5.8356">
        <ele>691.938154</ele>
        <time>2026-08-29T08:11:06.000Z</time>
      </trkpt>
      <trkpt lat="45.04339" lon="5.8356">
        <ele>692.160892</ele>
        <time>2026-08-29T08:11:07.000Z</time>
      </trkpt>
      <trkpt lat="45.04337" lon="5.83559">
        <ele>692.383631</ele>
        <time>2026-08-29T08:11:08.000Z</time>
      </trkpt>
      <trkpt lat="45.04333" lon="5.83559">
        <ele>692.655415</ele>
        <time>2026-08-29T08:11:09.000Z</time>
      </trkpt>
      <trkpt lat="45.04331" lon="5.8356">
        <ele>692.852358</ele>
        <time>2026-08-29T08:11:10.000Z</time>
      </trkpt>
      <trkpt lat="45.04328" lon="5.8356">
        <ele>693.051927</ele>
        <time>2026-08-29T08:11:11.000Z</time>
      </trkpt>
      <trkpt lat="45.04325" lon="5.83559">
        <ele>693.321134</ele>
        <time>2026-08-29T08:11:12.000Z</time>
      </trkpt>
      <trkpt lat="45.04322" lon="5.83556">
        <ele>693.582132</ele>
        <time>2026-08-29T08:11:13.000Z</time>
      </trkpt>
      <trkpt lat="45.0432" lon="5.83554">
        <ele>693.837933</ele>
        <time>2026-08-29T08:11:14.000Z</time>
      </trkpt>
      <trkpt lat="45.04317" lon="5.83551">
        <ele>694.084651</ele>
        <time>2026-08-29T08:11:15.000Z</time>
      </trkpt>
      <trkpt lat="45.04315" lon="5.83548">
        <ele>694.331369</ele>
        <time>2026-08-29T08:11:16.000Z</time>
      </trkpt>
      <trkpt lat="45.04313" lon="5.83546">
        <ele>694.522595</ele>
        <time>2026-08-29T08:11:17.000Z</time>
      </trkpt>
      <trkpt lat="45.04311" lon="5.83543">
        <ele>694.751839</ele>
        <time>2026-08-29T08:11:18.000Z</time>
      </trkpt>
      <trkpt lat="45.04309" lon="5.83539">
        <ele>695.003614</ele>
        <time>2026-08-29T08:11:19.000Z</time>
      </trkpt>
      <trkpt lat="45.04307" lon="5.83536">
        <ele>695.222858</ele>
        <time>2026-08-29T08:11:20.000Z</time>
      </trkpt>
      <trkpt lat="45.04306" lon="5.83534">
        <ele>695.413326</ele>
        <time>2026-08-29T08:11:21.000Z</time>
      </trkpt>
      <trkpt lat="45.04304" lon="5.83532">
        <ele>695.598384</ele>
        <time>2026-08-29T08:11:22.000Z</time>
      </trkpt>
      <trkpt lat="45.04302" lon="5.8353">
        <ele>695.770209</ele>
        <time>2026-08-29T08:11:23.000Z</time>
      </trkpt>
      <trkpt lat="45.043" lon="5.83529">
        <ele>695.958215</ele>
        <time>2026-08-29T08:11:24.000Z</time>
      </trkpt>
      <trkpt lat="45.04298" lon="5.83526">
        <ele>696.148682</ele>
        <time>2026-08-29T08:11:25.000Z</time>
      </trkpt>
      <trkpt lat="45.04296" lon="5.83524">
        <ele>696.333721</ele>
        <time>2026-08-29T08:11:26.000Z</time>
      </trkpt>
      <trkpt lat="45.04296" lon="5.83522">
        <ele>696.448877</ele>
        <time>2026-08-29T08:11:27.000Z</time>
      </trkpt>
      <trkpt lat="45.04294" lon="5.83519">
        <ele>696.669462</ele>
        <time>2026-08-29T08:11:28.000Z</time>
      </trkpt>
      <trkpt lat="45.04292" lon="5.83517">
        <ele>696.877516</ele>
        <time>2026-08-29T08:11:29.000Z</time>
      </trkpt>
      <trkpt lat="45.0429" lon="5.83514">
        <ele>697.08148</ele>
        <time>2026-08-29T08:11:30.000Z</time>
      </trkpt>
      <trkpt lat="45.04289" lon="5.83512">
        <ele>697.232852</ele>
        <time>2026-08-29T08:11:31.000Z</time>
      </trkpt>
      <trkpt lat="45.04287" lon="5.8351">
        <ele>697.408207</ele>
        <time>2026-08-29T08:11:32.000Z</time>
      </trkpt>
      <trkpt lat="45.04285" lon="5.83508">
        <ele>697.602933</ele>
        <time>2026-08-29T08:11:33.000Z</time>
      </trkpt>
      <trkpt lat="45.04282" lon="5.83505">
        <ele>697.917492</ele>
        <time>2026-08-29T08:11:34.000Z</time>
      </trkpt>
      <trkpt lat="45.0428" lon="5.83503">
        <ele>698.109394</ele>
        <time>2026-08-29T08:11:35.000Z</time>
      </trkpt>
      <trkpt lat="45.04278" lon="5.83501">
        <ele>698.342909</ele>
        <time>2026-08-29T08:11:36.000Z</time>
      </trkpt>
      <trkpt lat="45.04275" lon="5.83499">
        <ele>698.547344</ele>
        <time>2026-08-29T08:11:37.000Z</time>
      </trkpt>
      <trkpt lat="45.04273" lon="5.83497">
        <ele>698.753994</ele>
        <time>2026-08-29T08:11:38.000Z</time>
      </trkpt>
      <trkpt lat="45.04272" lon="5.83495">
        <ele>698.95812</ele>
        <time>2026-08-29T08:11:39.000Z</time>
      </trkpt>
      <trkpt lat="45.0427" lon="5.83494">
        <ele>699.075995</ele>
        <time>2026-08-29T08:11:40.000Z</time>
      </trkpt>
      <trkpt lat="45.04269" lon="5.83492">
        <ele>699.246441</ele>
        <time>2026-08-29T08:11:41.000Z</time>
      </trkpt>
      <trkpt lat="45.04267" lon="5.8349">
        <ele>699.441339</ele>
        <time>2026-08-29T08:11:42.000Z</time>
      </trkpt>
      <trkpt lat="45.04266" lon="5.83487">
        <ele>699.658345</ele>
        <time>2026-08-29T08:11:43.000Z</time>
      </trkpt>
      <trkpt lat="45.04264" lon="5.83484">
        <ele>699.915789</ele>
        <time>2026-08-29T08:11:44.000Z</time>
      </trkpt>
      <trkpt lat="45.04262" lon="5.83482">
        <ele>700.119915</ele>
        <time>2026-08-29T08:11:45.000Z</time>
      </trkpt>
      <trkpt lat="45.0426" lon="5.8348">
        <ele>700.310779</ele>
        <time>2026-08-29T08:11:46.000Z</time>
      </trkpt>
      <trkpt lat="45.04258" lon="5.83477">
        <ele>700.584682</ele>
        <time>2026-08-29T08:11:47.000Z</time>
      </trkpt>
      <trkpt lat="45.04256" lon="5.83474">
        <ele>700.854644</ele>
        <time>2026-08-29T08:11:48.000Z</time>
      </trkpt>
      <trkpt lat="45.04254" lon="5.83472">
        <ele>701.025868</ele>
        <time>2026-08-29T08:11:49.000Z</time>
      </trkpt>
      <trkpt lat="45.04253" lon="5.83469">
        <ele>701.240512</ele>
        <time>2026-08-29T08:11:50.000Z</time>
      </trkpt>
      <trkpt lat="45.04251" lon="5.83467">
        <ele>701.438455</ele>
        <time>2026-08-29T08:11:51.000Z</time>
      </trkpt>
      <trkpt lat="45.04249" lon="5.83464">
        <ele>701.672151</ele>
        <time>2026-08-29T08:11:52.000Z</time>
      </trkpt>
      <trkpt lat="45.04247" lon="5.83461">
        <ele>701.949099</ele>
        <time>2026-08-29T08:11:53.000Z</time>
      </trkpt>
      <trkpt lat="45.04245" lon="5.83458">
        <ele>702.200773</ele>
        <time>2026-08-29T08:11:54.000Z</time>
      </trkpt>
      <trkpt lat="45.04244" lon="5.83455">
        <ele>702.426161</ele>
        <time>2026-08-29T08:11:55.000Z</time>
      </trkpt>
      <trkpt lat="45.04242" lon="5.83452">
        <ele>702.679111</ele>
        <time>2026-08-29T08:11:56.000Z</time>
      </trkpt>
      <trkpt lat="45.0424" lon="5.8345">
        <ele>702.836963</ele>
        <time>2026-08-29T08:11:57.000Z</time>
      </trkpt>
      <trkpt lat="45.0424" lon="5.83448">
        <ele>703.001882</ele>
        <time>2026-08-29T08:11:58.000Z</time>
      </trkpt>
      <trkpt lat="45.04238" lon="5.83445">
        <ele>703.203021</ele>
        <time>2026-08-29T08:11:59.000Z</time>
      </trkpt>
      <trkpt lat="45.04237" lon="5.83442">
        <ele>703.370762</ele>
        <time>2026-08-29T08:12:00.000Z</time>
      </trkpt>
      <trkpt lat="45.04237" lon="5.8344">
        <ele>703.499843</ele>
        <time>2026-08-29T08:12:01.000Z</time>
      </trkpt>
      <trkpt lat="45.04236" lon="5.83439">
        <ele>703.607165</ele>
        <time>2026-08-29T08:12:02.000Z</time>
      </trkpt>
      <trkpt lat="45.04235" lon="5.83437">
        <ele>703.752461</ele>
        <time>2026-08-29T08:12:03.000Z</time>
      </trkpt>
      <trkpt lat="45.04234" lon="5.83435">
        <ele>703.960873</ele>
        <time>2026-08-29T08:12:04.000Z</time>
      </trkpt>
      <trkpt lat="45.04232" lon="5.83432">
        <ele>704.162012</ele>
        <time>2026-08-29T08:12:05.000Z</time>
      </trkpt>
      <trkpt lat="45.04231" lon="5.8343">
        <ele>704.312654</ele>
        <time>2026-08-29T08:12:06.000Z</time>
      </trkpt>
      <trkpt lat="45.0423" lon="5.83429">
        <ele>704.479231</ele>
        <time>2026-08-29T08:12:07.000Z</time>
      </trkpt>
      <trkpt lat="45.04228" lon="5.83427">
        <ele>704.688303</ele>
        <time>2026-08-29T08:12:08.000Z</time>
      </trkpt>
      <trkpt lat="45.04226" lon="5.83425">
        <ele>704.886247</ele>
        <time>2026-08-29T08:12:09.000Z</time>
      </trkpt>
      <trkpt lat="45.04224" lon="5.83423">
        <ele>705.106051</ele>
        <time>2026-08-29T08:12:10.000Z</time>
      </trkpt>
      <trkpt lat="45.04222" lon="5.83421">
        <ele>705.308411</ele>
        <time>2026-08-29T08:12:11.000Z</time>
      </trkpt>
      <trkpt lat="45.04221" lon="5.83419">
        <ele>705.478739</ele>
        <time>2026-08-29T08:12:12.000Z</time>
      </trkpt>
      <trkpt lat="45.04219" lon="5.83417">
        <ele>705.684456</ele>
        <time>2026-08-29T08:12:13.000Z</time>
      </trkpt>
      <trkpt lat="45.04218" lon="5.83415">
        <ele>705.848625</ele>
        <time>2026-08-29T08:12:14.000Z</time>
      </trkpt>
      <trkpt lat="45.04216" lon="5.83413">
        <ele>706.047252</ele>
        <time>2026-08-29T08:12:15.000Z</time>
      </trkpt>
      <trkpt lat="45.04213" lon="5.83411">
        <ele>706.282934</ele>
        <time>2026-08-29T08:12:16.000Z</time>
      </trkpt>
      <trkpt lat="45.04211" lon="5.83409">
        <ele>706.488458</ele>
        <time>2026-08-29T08:12:17.000Z</time>
      </trkpt>
      <trkpt lat="45.04209" lon="5.83408">
        <ele>706.712152</ele>
        <time>2026-08-29T08:12:18.000Z</time>
      </trkpt>
      <trkpt lat="45.04207" lon="5.83405">
        <ele>706.957058</ele>
        <time>2026-08-29T08:12:19.000Z</time>
      </trkpt>
      <trkpt lat="45.04205" lon="5.83404">
        <ele>707.17762</ele>
        <time>2026-08-29T08:12:20.000Z</time>
      </trkpt>
      <trkpt lat="45.04202" lon="5.83402">
        <ele>707.423915</ele>
        <time>2026-08-29T08:12:21.000Z</time>
      </trkpt>
      <trkpt lat="45.042" lon="5.83399">
        <ele>707.671939</ele>
        <time>2026-08-29T08:12:22.000Z</time>
      </trkpt>
      <trkpt lat="45.04197" lon="5.83398">
        <ele>707.960496</ele>
        <time>2026-08-29T08:12:23.000Z</time>
      </trkpt>
      <trkpt lat="45.04194" lon="5.83396">
        <ele>708.188614</ele>
        <time>2026-08-29T08:12:24.000Z</time>
      </trkpt>
      <trkpt lat="45.04192" lon="5.83394">
        <ele>708.440369</ele>
        <time>2026-08-29T08:12:25.000Z</time>
      </trkpt>
      <trkpt lat="45.04189" lon="5.83393">
        <ele>708.657927</ele>
        <time>2026-08-29T08:12:26.000Z</time>
      </trkpt>
      <trkpt lat="45.04187" lon="5.83391">
        <ele>708.866999</ele>
        <time>2026-08-29T08:12:27.000Z</time>
      </trkpt>
      <trkpt lat="45.04185" lon="5.83389">
        <ele>709.116254</ele>
        <time>2026-08-29T08:12:28.000Z</time>
      </trkpt>
      <trkpt lat="45.04183" lon="5.83387">
        <ele>709.349196</ele>
        <time>2026-08-29T08:12:29.000Z</time>
      </trkpt>
      <trkpt lat="45.0418" lon="5.83386">
        <ele>709.574505</ele>
        <time>2026-08-29T08:12:30.000Z</time>
      </trkpt>
      <trkpt lat="45.04178" lon="5.83384">
        <ele>709.813842</ele>
        <time>2026-08-29T08:12:31.000Z</time>
      </trkpt>
      <trkpt lat="45.04176" lon="5.83383">
        <ele>709.997013</ele>
        <time>2026-08-29T08:12:32.000Z</time>
      </trkpt>
      <trkpt lat="45.04174" lon="5.83382">
        <ele>710.182936</ele>
        <time>2026-08-29T08:12:33.000Z</time>
      </trkpt>
      <trkpt lat="45.04171" lon="5.83381">
        <ele>710.383411</ele>
        <time>2026-08-29T08:12:34.000Z</time>
      </trkpt>
      <trkpt lat="45.04169" lon="5.83381">
        <ele>710.605876</ele>
        <time>2026-08-29T08:12:35.000Z</time>
      </trkpt>
      <trkpt lat="45.04167" lon="5.8338">
        <ele>710.798394</ele>
        <time>2026-08-29T08:12:36.000Z</time>
      </trkpt>
      <trkpt lat="45.04165" lon="5.83379">
        <ele>710.980548</ele>
        <time>2026-08-29T08:12:37.000Z</time>
      </trkpt>
      <trkpt lat="45.04162" lon="5.83379">
        <ele>711.181678</ele>
        <time>2026-08-29T08:12:38.000Z</time>
      </trkpt>
      <trkpt lat="45.0416" lon="5.83378">
        <ele>711.384193</ele>
        <time>2026-08-29T08:12:39.000Z</time>
      </trkpt>
      <trkpt lat="45.04158" lon="5.83377">
        <ele>711.568298</ele>
        <time>2026-08-29T08:12:40.000Z</time>
      </trkpt>
      <trkpt lat="45.04156" lon="5.83375">
        <ele>711.746568</ele>
        <time>2026-08-29T08:12:41.000Z</time>
      </trkpt>
      <trkpt lat="45.04154" lon="5.83374">
        <ele>711.945511</ele>
        <time>2026-08-29T08:12:42.000Z</time>
      </trkpt>
      <trkpt lat="45.04152" lon="5.83373">
        <ele>712.146991</ele>
        <time>2026-08-29T08:12:43.000Z</time>
      </trkpt>
      <trkpt lat="45.04151" lon="5.83372">
        <ele>712.272601</ele>
        <time>2026-08-29T08:12:44.000Z</time>
      </trkpt>
      <trkpt lat="45.04149" lon="5.83371">
        <ele>712.442775</ele>
        <time>2026-08-29T08:12:45.000Z</time>
      </trkpt>
      <trkpt lat="45.04147" lon="5.83369">
        <ele>712.618174</ele>
        <time>2026-08-29T08:12:46.000Z</time>
      </trkpt>
      <trkpt lat="45.04146" lon="5.83369">
        <ele>712.773668</ele>
        <time>2026-08-29T08:12:47.000Z</time>
      </trkpt>
      <trkpt lat="45.04144" lon="5.83367">
        <ele>712.91573</ele>
        <time>2026-08-29T08:12:48.000Z</time>
      </trkpt>
      <trkpt lat="45.04142" lon="5.83366">
        <ele>713.119899</ele>
        <time>2026-08-29T08:12:49.000Z</time>
      </trkpt>
      <trkpt lat="45.0414" lon="5.83364">
        <ele>713.30439</ele>
        <time>2026-08-29T08:12:50.000Z</time>
      </trkpt>
      <trkpt lat="45.04138" lon="5.83362">
        <ele>713.513463</ele>
        <time>2026-08-29T08:12:51.000Z</time>
      </trkpt>
      <trkpt lat="45.04136" lon="5.8336">
        <ele>713.715387</ele>
        <time>2026-08-29T08:12:52.000Z</time>
      </trkpt>
      <trkpt lat="45.04135" lon="5.83358">
        <ele>713.91124</ele>
        <time>2026-08-29T08:12:53.000Z</time>
      </trkpt>
      <trkpt lat="45.04133" lon="5.83356">
        <ele>714.111718</ele>
        <time>2026-08-29T08:12:54.000Z</time>
      </trkpt>
      <trkpt lat="45.04132" lon="5.83354">
        <ele>714.303496</ele>
        <time>2026-08-29T08:12:55.000Z</time>
      </trkpt>
      <trkpt lat="45.0413" lon="5.83352">
        <ele>714.477666</ele>
        <time>2026-08-29T08:12:56.000Z</time>
      </trkpt>
      <trkpt lat="45.04129" lon="5.8335">
        <ele>714.669509</ele>
        <time>2026-08-29T08:12:57.000Z</time>
      </trkpt>
      <trkpt lat="45.04127" lon="5.83348">
        <ele>714.890936</ele>
        <time>2026-08-29T08:12:58.000Z</time>
      </trkpt>
      <trkpt lat="45.04125" lon="5.83346">
        <ele>715.069217</ele>
        <time>2026-08-29T08:12:59.000Z</time>
      </trkpt>
      <trkpt lat="45.04124" lon="5.83344">
        <ele>715.232588</ele>
        <time>2026-08-29T08:13:00.000Z</time>
      </trkpt>
      <trkpt lat="45.04123" lon="5.83342">
        <ele>715.411604</ele>
        <time>2026-08-29T08:13:01.000Z</time>
      </trkpt>
      <trkpt lat="45.04122" lon="5.83339">
        <ele>715.612083</ele>
        <time>2026-08-29T08:13:02.000Z</time>
      </trkpt>
      <trkpt lat="45.04121" lon="5.83336">
        <ele>715.777306</ele>
        <time>2026-08-29T08:13:03.000Z</time>
      </trkpt>
      <trkpt lat="45.0412" lon="5.83334">
        <ele>715.957978</ele>
        <time>2026-08-29T08:13:04.000Z</time>
      </trkpt>
      <trkpt lat="45.04119" lon="5.83333">
        <ele>716.076893</ele>
        <time>2026-08-29T08:13:05.000Z</time>
      </trkpt>
      <trkpt lat="45.04118" lon="5.8333">
        <ele>716.230589</ele>
        <time>2026-08-29T08:13:06.000Z</time>
      </trkpt>
      <trkpt lat="45.04117" lon="5.83328">
        <ele>716.404388</ele>
        <time>2026-08-29T08:13:07.000Z</time>
      </trkpt>
      <trkpt lat="45.04116" lon="5.83326">
        <ele>716.580561</ele>
        <time>2026-08-29T08:13:08.000Z</time>
      </trkpt>
      <trkpt lat="45.04114" lon="5.83324">
        <ele>716.744146</ele>
        <time>2026-08-29T08:13:09.000Z</time>
      </trkpt>
      <trkpt lat="45.04113" lon="5.83322">
        <ele>716.940011</ele>
        <time>2026-08-29T08:13:10.000Z</time>
      </trkpt>
      <trkpt lat="45.04112" lon="5.8332">
        <ele>717.099091</ele>
        <time>2026-08-29T08:13:11.000Z</time>
      </trkpt>
      <trkpt lat="45.04111" lon="5.83318">
        <ele>717.281605</ele>
        <time>2026-08-29T08:13:12.000Z</time>
      </trkpt>
      <trkpt lat="45.04109" lon="5.83316">
        <ele>717.469853</ele>
        <time>2026-08-29T08:13:13.000Z</time>
      </trkpt>
      <trkpt lat="45.04107" lon="5.83314">
        <ele>717.680485</ele>
        <time>2026-08-29T08:13:14.000Z</time>
      </trkpt>
      <trkpt lat="45.04105" lon="5.83312">
        <ele>717.862999</ele>
        <time>2026-08-29T08:13:15.000Z</time>
      </trkpt>
      <trkpt lat="45.04103" lon="5.8331">
        <ele>718.077257</ele>
        <time>2026-08-29T08:13:16.000Z</time>
      </trkpt>
      <trkpt lat="45.04102" lon="5.83308">
        <ele>718.289915</ele>
        <time>2026-08-29T08:13:17.000Z</time>
      </trkpt>
      <trkpt lat="45.041" lon="5.83306">
        <ele>718.499822</ele>
        <time>2026-08-29T08:13:18.000Z</time>
      </trkpt>
      <trkpt lat="45.04098" lon="5.83304">
        <ele>718.700282</ele>
        <time>2026-08-29T08:13:19.000Z</time>
      </trkpt>
      <trkpt lat="45.04095" lon="5.83303">
        <ele>718.92227</ele>
        <time>2026-08-29T08:13:20.000Z</time>
      </trkpt>
      <trkpt lat="45.04093" lon="5.83301">
        <ele>719.141329</ele>
        <time>2026-08-29T08:13:21.000Z</time>
      </trkpt>
      <trkpt lat="45.04091" lon="5.83299">
        <ele>719.347365</ele>
        <time>2026-08-29T08:13:22.000Z</time>
      </trkpt>
      <trkpt lat="45.04089" lon="5.83298">
        <ele>719.547935</ele>
        <time>2026-08-29T08:13:23.000Z</time>
      </trkpt>
      <trkpt lat="45.04087" lon="5.83296">
        <ele>719.757842</ele>
        <time>2026-08-29T08:13:24.000Z</time>
      </trkpt>
      <trkpt lat="45.04086" lon="5.83295">
        <ele>719.931347</ele>
        <time>2026-08-29T08:13:25.000Z</time>
      </trkpt>
      <trkpt lat="45.04084" lon="5.83293">
        <ele>720.086859</ele>
        <time>2026-08-29T08:13:26.000Z</time>
      </trkpt>
      <trkpt lat="45.04083" lon="5.83292">
        <ele>720.242633</ele>
        <time>2026-08-29T08:13:27.000Z</time>
      </trkpt>
      <trkpt lat="45.04081" lon="5.8329">
        <ele>720.437825</ele>
        <time>2026-08-29T08:13:28.000Z</time>
      </trkpt>
      <trkpt lat="45.04079" lon="5.83288">
        <ele>720.629669</ele>
        <time>2026-08-29T08:13:29.000Z</time>
      </trkpt>
      <trkpt lat="45.04078" lon="5.83287">
        <ele>720.770642</ele>
        <time>2026-08-29T08:13:30.000Z</time>
      </trkpt>
      <trkpt lat="45.04076" lon="5.83285">
        <ele>721.009714</ele>
        <time>2026-08-29T08:13:31.000Z</time>
      </trkpt>
      <trkpt lat="45.04074" lon="5.83283">
        <ele>721.237439</ele>
        <time>2026-08-29T08:13:32.000Z</time>
      </trkpt>
      <trkpt lat="45.04072" lon="5.83281">
        <ele>721.436309</ele>
        <time>2026-08-29T08:13:33.000Z</time>
      </trkpt>
      <trkpt lat="45.0407" lon="5.83279">
        <ele>721.620658</ele>
        <time>2026-08-29T08:13:34.000Z</time>
      </trkpt>
      <trkpt lat="45.04069" lon="5.83277">
        <ele>721.788171</ele>
        <time>2026-08-29T08:13:35.000Z</time>
      </trkpt>
      <trkpt lat="45.04067" lon="5.83276">
        <ele>721.950832</ele>
        <time>2026-08-29T08:13:36.000Z</time>
      </trkpt>
      <trkpt lat="45.04065" lon="5.83274">
        <ele>722.149909</ele>
        <time>2026-08-29T08:13:37.000Z</time>
      </trkpt>
      <trkpt lat="45.04063" lon="5.83272">
        <ele>722.356527</ele>
        <time>2026-08-29T08:13:38.000Z</time>
      </trkpt>
      <trkpt lat="45.04061" lon="5.8327">
        <ele>722.602382</ele>
        <time>2026-08-29T08:13:39.000Z</time>
      </trkpt>
      <trkpt lat="45.04059" lon="5.83268">
        <ele>722.801252</ele>
        <time>2026-08-29T08:13:40.000Z</time>
      </trkpt>
      <trkpt lat="45.04058" lon="5.83266">
        <ele>722.966758</ele>
        <time>2026-08-29T08:13:41.000Z</time>
      </trkpt>
      <trkpt lat="45.04056" lon="5.83264">
        <ele>723.188433</ele>
        <time>2026-08-29T08:13:42.000Z</time>
      </trkpt>
      <trkpt lat="45.04055" lon="5.83262">
        <ele>723.328131</ele>
        <time>2026-08-29T08:13:43.000Z</time>
      </trkpt>
      <trkpt lat="45.04053" lon="5.8326">
        <ele>723.516161</ele>
        <time>2026-08-29T08:13:44.000Z</time>
      </trkpt>
      <trkpt lat="45.04052" lon="5.83258">
        <ele>723.694443</ele>
        <time>2026-08-29T08:13:45.000Z</time>
      </trkpt>
      <trkpt lat="45.04051" lon="5.83256">
        <ele>723.878429</ele>
        <time>2026-08-29T08:13:46.000Z</time>
      </trkpt>
      <trkpt lat="45.0405" lon="5.83254">
        <ele>724.046711</ele>
        <time>2026-08-29T08:13:47.000Z</time>
      </trkpt>
      <trkpt lat="45.04049" lon="5.83251">
        <ele>724.227891</ele>
        <time>2026-08-29T08:13:48.000Z</time>
      </trkpt>
      <trkpt lat="45.04048" lon="5.83249">
        <ele>724.422646</ele>
        <time>2026-08-29T08:13:49.000Z</time>
      </trkpt>
      <trkpt lat="45.04047" lon="5.83246">
        <ele>724.606944</ele>
        <time>2026-08-29T08:13:50.000Z</time>
      </trkpt>
      <trkpt lat="45.04046" lon="5.83244">
        <ele>724.773006</ele>
        <time>2026-08-29T08:13:51.000Z</time>
      </trkpt>
      <trkpt lat="45.04045" lon="5.8324">
        <ele>724.999711</ele>
        <time>2026-08-29T08:13:52.000Z</time>
      </trkpt>
      <trkpt lat="45.04044" lon="5.83237">
        <ele>725.200372</ele>
        <time>2026-08-29T08:13:53.000Z</time>
      </trkpt>
      <trkpt lat="45.04044" lon="5.83235">
        <ele>725.376485</ele>
        <time>2026-08-29T08:13:54.000Z</time>
      </trkpt>
      <trkpt lat="45.04043" lon="5.83231">
        <ele>725.595447</ele>
        <time>2026-08-29T08:13:55.000Z</time>
      </trkpt>
      <trkpt lat="45.04042" lon="5.83228">
        <ele>725.796108</ele>
        <time>2026-08-29T08:13:56.000Z</time>
      </trkpt>
      <trkpt lat="45.04041" lon="5.83226">
        <ele>725.982927</ele>
        <time>2026-08-29T08:13:57.000Z</time>
      </trkpt>
      <trkpt lat="45.0404" lon="5.83223">
        <ele>726.172567</ele>
        <time>2026-08-29T08:13:58.000Z</time>
      </trkpt>
      <trkpt lat="45.04039" lon="5.83221">
        <ele>726.366905</ele>
        <time>2026-08-29T08:13:59.000Z</time>
      </trkpt>
      <trkpt lat="45.04037" lon="5.83218">
        <ele>726.566224</ele>
        <time>2026-08-29T08:14:00.000Z</time>
      </trkpt>
      <trkpt lat="45.04036" lon="5.83215">
        <ele>726.765845</ele>
        <time>2026-08-29T08:14:01.000Z</time>
      </trkpt>
      <trkpt lat="45.04035" lon="5.83213">
        <ele>726.955485</ele>
        <time>2026-08-29T08:14:02.000Z</time>
      </trkpt>
      <trkpt lat="45.04034" lon="5.83211">
        <ele>727.12414</ele>
        <time>2026-08-29T08:14:03.000Z</time>
      </trkpt>
      <trkpt lat="45.04032" lon="5.83208">
        <ele>727.32465</ele>
        <time>2026-08-29T08:14:04.000Z</time>
      </trkpt>
      <trkpt lat="45.0403" lon="5.83206">
        <ele>727.524493</ele>
        <time>2026-08-29T08:14:05.000Z</time>
      </trkpt>
      <trkpt lat="45.04029" lon="5.83204">
        <ele>727.693503</ele>
        <time>2026-08-29T08:14:06.000Z</time>
      </trkpt>
      <trkpt lat="45.04027" lon="5.83202">
        <ele>727.91784</ele>
        <time>2026-08-29T08:14:07.000Z</time>
      </trkpt>
      <trkpt lat="45.04026" lon="5.832">
        <ele>728.115408</ele>
        <time>2026-08-29T08:14:08.000Z</time>
      </trkpt>
      <trkpt lat="45.04024" lon="5.83198">
        <ele>728.315251</ele>
        <time>2026-08-29T08:14:09.000Z</time>
      </trkpt>
      <trkpt lat="45.04022" lon="5.83196">
        <ele>728.521288</ele>
        <time>2026-08-29T08:14:10.000Z</time>
      </trkpt>
      <trkpt lat="45.0402" lon="5.83195">
        <ele>728.732625</ele>
        <time>2026-08-29T08:14:11.000Z</time>
      </trkpt>
      <trkpt lat="45.04017" lon="5.83194">
        <ele>728.95805</ele>
        <time>2026-08-29T08:14:12.000Z</time>
      </trkpt>
      <trkpt lat="45.04015" lon="5.83193">
        <ele>729.203711</ele>
        <time>2026-08-29T08:14:13.000Z</time>
      </trkpt>
      <trkpt lat="45.04013" lon="5.83191">
        <ele>729.406707</ele>
        <time>2026-08-29T08:14:14.000Z</time>
      </trkpt>
      <trkpt lat="45.04011" lon="5.83191">
        <ele>729.590771</ele>
        <time>2026-08-29T08:14:15.000Z</time>
      </trkpt>
      <trkpt lat="45.04009" lon="5.83189">
        <ele>729.777673</ele>
        <time>2026-08-29T08:14:16.000Z</time>
      </trkpt>
      <trkpt lat="45.04006" lon="5.83188">
        <ele>729.982314</ele>
        <time>2026-08-29T08:14:17.000Z</time>
      </trkpt>
      <trkpt lat="45.04004" lon="5.83188">
        <ele>730.195076</ele>
        <time>2026-08-29T08:14:18.000Z</time>
      </trkpt>
      <trkpt lat="45.04002" lon="5.83187">
        <ele>730.386266</ele>
        <time>2026-08-29T08:14:19.000Z</time>
      </trkpt>
      <trkpt lat="45.04" lon="5.83186">
        <ele>730.572761</ele>
        <time>2026-08-29T08:14:20.000Z</time>
      </trkpt>
      <trkpt lat="45.03997" lon="5.83185">
        <ele>730.819007</ele>
        <time>2026-08-29T08:14:21.000Z</time>
      </trkpt>
      <trkpt lat="45.03995" lon="5.83184">
        <ele>730.993942</ele>
        <time>2026-08-29T08:14:22.000Z</time>
      </trkpt>
      <trkpt lat="45.03993" lon="5.83183">
        <ele>731.162586</ele>
        <time>2026-08-29T08:14:23.000Z</time>
      </trkpt>
      <trkpt lat="45.03991" lon="5.83183">
        <ele>731.356177</ele>
        <time>2026-08-29T08:14:24.000Z</time>
      </trkpt>
      <trkpt lat="45.03989" lon="5.83182">
        <ele>731.543724</ele>
        <time>2026-08-29T08:14:25.000Z</time>
      </trkpt>
      <trkpt lat="45.03986" lon="5.83181">
        <ele>731.746245</ele>
        <time>2026-08-29T08:14:26.000Z</time>
      </trkpt>
      <trkpt lat="45.03984" lon="5.8318">
        <ele>731.92909</ele>
        <time>2026-08-29T08:14:27.000Z</time>
      </trkpt>
      <trkpt lat="45.03982" lon="5.8318">
        <ele>732.083487</ele>
        <time>2026-08-29T08:14:28.000Z</time>
      </trkpt>
      <trkpt lat="45.03981" lon="5.83179">
        <ele>732.225686</ele>
        <time>2026-08-29T08:14:29.000Z</time>
      </trkpt>
      <trkpt lat="45.03979" lon="5.83178">
        <ele>732.368517</ele>
        <time>2026-08-29T08:14:30.000Z</time>
      </trkpt>
      <trkpt lat="45.03977" lon="5.83176">
        <ele>732.576712</ele>
        <time>2026-08-29T08:14:31.000Z</time>
      </trkpt>
      <trkpt lat="45.03976" lon="5.83175">
        <ele>732.724512</ele>
        <time>2026-08-29T08:14:32.000Z</time>
      </trkpt>
      <trkpt lat="45.03974" lon="5.83174">
        <ele>732.881848</ele>
        <time>2026-08-29T08:14:33.000Z</time>
      </trkpt>
      <trkpt lat="45.03972" lon="5.83172">
        <ele>733.064973</ele>
        <time>2026-08-29T08:14:34.000Z</time>
      </trkpt>
      <trkpt lat="45.0397" lon="5.83171">
        <ele>733.225657</ele>
        <time>2026-08-29T08:14:35.000Z</time>
      </trkpt>
      <trkpt lat="45.03968" lon="5.8317">
        <ele>733.426325</ele>
        <time>2026-08-29T08:14:36.000Z</time>
      </trkpt>
      <trkpt lat="45.03966" lon="5.83169">
        <ele>733.585127</ele>
        <time>2026-08-29T08:14:37.000Z</time>
      </trkpt>
      <trkpt lat="45.03964" lon="5.83168">
        <ele>733.75038</ele>
        <time>2026-08-29T08:14:38.000Z</time>
      </trkpt>
      <trkpt lat="45.03963" lon="5.83167">
        <ele>733.915409</ele>
        <time>2026-08-29T08:14:39.000Z</time>
      </trkpt>
      <trkpt lat="45.03961" lon="5.83167">
        <ele>734.072531</ele>
        <time>2026-08-29T08:14:40.000Z</time>
      </trkpt>
      <trkpt lat="45.03959" lon="5.83165">
        <ele>734.253137</ele>
        <time>2026-08-29T08:14:41.000Z</time>
      </trkpt>
      <trkpt lat="45.03957" lon="5.83164">
        <ele>734.440945</ele>
        <time>2026-08-29T08:14:42.000Z</time>
      </trkpt>
      <trkpt lat="45.03955" lon="5.83163">
        <ele>734.603707</ele>
        <time>2026-08-29T08:14:43.000Z</time>
      </trkpt>
      <trkpt lat="45.03953" lon="5.83162">
        <ele>734.812168</ele>
        <time>2026-08-29T08:14:44.000Z</time>
      </trkpt>
      <trkpt lat="45.03951" lon="5.8316">
        <ele>735.008539</ele>
        <time>2026-08-29T08:14:45.000Z</time>
      </trkpt>
      <trkpt lat="45.03949" lon="5.83159">
        <ele>735.188841</ele>
        <time>2026-08-29T08:14:46.000Z</time>
      </trkpt>
      <trkpt lat="45.03947" lon="5.83157">
        <ele>735.36172</ele>
        <time>2026-08-29T08:14:47.000Z</time>
      </trkpt>
      <trkpt lat="45.03945" lon="5.83156">
        <ele>735.5346</ele>
        <time>2026-08-29T08:14:48.000Z</time>
      </trkpt>
      <trkpt lat="45.03943" lon="5.83154">
        <ele>735.716747</ele>
        <time>2026-08-29T08:14:49.000Z</time>
      </trkpt>
      <trkpt lat="45.03942" lon="5.83152">
        <ele>735.878498</ele>
        <time>2026-08-29T08:14:50.000Z</time>
      </trkpt>
      <trkpt lat="45.03941" lon="5.83151">
        <ele>735.995074</ele>
        <time>2026-08-29T08:14:51.000Z</time>
      </trkpt>
      <trkpt lat="45.03939" lon="5.83149">
        <ele>736.160627</ele>
        <time>2026-08-29T08:14:52.000Z</time>
      </trkpt>
      <trkpt lat="45.03938" lon="5.83148">
        <ele>736.315917</ele>
        <time>2026-08-29T08:14:53.000Z</time>
      </trkpt>
      <trkpt lat="45.03937" lon="5.83146">
        <ele>736.4649</ele>
        <time>2026-08-29T08:14:54.000Z</time>
      </trkpt>
      <trkpt lat="45.03935" lon="5.83145">
        <ele>736.589441</ele>
        <time>2026-08-29T08:14:55.000Z</time>
      </trkpt>
      <trkpt lat="45.03933" lon="5.83144">
        <ele>736.771588</ele>
        <time>2026-08-29T08:14:56.000Z</time>
      </trkpt>
      <trkpt lat="45.03932" lon="5.83142">
        <ele>736.960596</ele>
        <time>2026-08-29T08:14:57.000Z</time>
      </trkpt>
      <trkpt lat="45.0393" lon="5.8314">
        <ele>737.167228</ele>
        <time>2026-08-29T08:14:58.000Z</time>
      </trkpt>
      <trkpt lat="45.03928" lon="5.83137">
        <ele>737.387147</ele>
        <time>2026-08-29T08:14:59.000Z</time>
      </trkpt>
      <trkpt lat="45.03925" lon="5.83136">
        <ele>737.595607</ele>
        <time>2026-08-29T08:15:00.000Z</time>
      </trkpt>
      <trkpt lat="45.03923" lon="5.83135">
        <ele>737.834245</ele>
        <time>2026-08-29T08:15:01.000Z</time>
      </trkpt>
      <trkpt lat="45.0392" lon="5.83133">
        <ele>738.052741</ele>
        <time>2026-08-29T08:15:02.000Z</time>
      </trkpt>
      <trkpt lat="45.03919" lon="5.83132">
        <ele>738.228563</ele>
        <time>2026-08-29T08:15:03.000Z</time>
      </trkpt>
      <trkpt lat="45.03916" lon="5.8313">
        <ele>738.452744</ele>
        <time>2026-08-29T08:15:04.000Z</time>
      </trkpt>
      <trkpt lat="45.03914" lon="5.8313">
        <ele>738.642541</ele>
        <time>2026-08-29T08:15:05.000Z</time>
      </trkpt>
      <trkpt lat="45.03912" lon="5.83129">
        <ele>738.835297</ele>
        <time>2026-08-29T08:15:06.000Z</time>
      </trkpt>
      <trkpt lat="45.03909" lon="5.83127">
        <ele>739.046036</ele>
        <time>2026-08-29T08:15:07.000Z</time>
      </trkpt>
      <trkpt lat="45.03907" lon="5.83126">
        <ele>739.226338</ele>
        <time>2026-08-29T08:15:08.000Z</time>
      </trkpt>
      <trkpt lat="45.03906" lon="5.83124">
        <ele>739.409463</ele>
        <time>2026-08-29T08:15:09.000Z</time>
      </trkpt>
      <trkpt lat="45.03903" lon="5.83123">
        <ele>739.610209</ele>
        <time>2026-08-29T08:15:10.000Z</time>
      </trkpt>
      <trkpt lat="45.03901" lon="5.83121">
        <ele>739.798017</ele>
        <time>2026-08-29T08:15:11.000Z</time>
      </trkpt>
      <trkpt lat="45.039" lon="5.8312">
        <ele>739.911387</ele>
        <time>2026-08-29T08:15:12.000Z</time>
      </trkpt>
      <trkpt lat="45.03898" lon="5.83118">
        <ele>740.110699</ele>
        <time>2026-08-29T08:15:13.000Z</time>
      </trkpt>
      <trkpt lat="45.03897" lon="5.83117">
        <ele>740.303149</ele>
        <time>2026-08-29T08:15:14.000Z</time>
      </trkpt>
      <trkpt lat="45.03895" lon="5.83115">
        <ele>740.474993</ele>
        <time>2026-08-29T08:15:15.000Z</time>
      </trkpt>
      <trkpt lat="45.03893" lon="5.83113">
        <ele>740.660092</ele>
        <time>2026-08-29T08:15:16.000Z</time>
      </trkpt>
      <trkpt lat="45.03892" lon="5.83111">
        <ele>740.810831</ele>
        <time>2026-08-29T08:15:17.000Z</time>
      </trkpt>
      <trkpt lat="45.03891" lon="5.83108">
        <ele>741.000555</ele>
        <time>2026-08-29T08:15:18.000Z</time>
      </trkpt>
      <trkpt lat="45.03889" lon="5.83106">
        <ele>741.212837</ele>
        <time>2026-08-29T08:15:19.000Z</time>
      </trkpt>
      <trkpt lat="45.03888" lon="5.83104">
        <ele>741.382279</ele>
        <time>2026-08-29T08:15:20.000Z</time>
      </trkpt>
      <trkpt lat="45.03886" lon="5.83101">
        <ele>741.584394</ele>
        <time>2026-08-29T08:15:21.000Z</time>
      </trkpt>
      <trkpt lat="45.03885" lon="5.831">
        <ele>741.723167</ele>
        <time>2026-08-29T08:15:22.000Z</time>
      </trkpt>
      <trkpt lat="45.03883" lon="5.83098">
        <ele>741.889219</ele>
        <time>2026-08-29T08:15:23.000Z</time>
      </trkpt>
      <trkpt lat="45.03882" lon="5.83095">
        <ele>742.060934</ele>
        <time>2026-08-29T08:15:24.000Z</time>
      </trkpt>
      <trkpt lat="45.03881" lon="5.83094">
        <ele>742.208119</ele>
        <time>2026-08-29T08:15:25.000Z</time>
      </trkpt>
      <trkpt lat="45.0388" lon="5.83092">
        <ele>742.365419</ele>
        <time>2026-08-29T08:15:26.000Z</time>
      </trkpt>
      <trkpt lat="45.03878" lon="5.8309">
        <ele>742.553191</ele>
        <time>2026-08-29T08:15:27.000Z</time>
      </trkpt>
      <trkpt lat="45.03876" lon="5.83088">
        <ele>742.738705</ele>
        <time>2026-08-29T08:15:28.000Z</time>
      </trkpt>
      <trkpt lat="45.03875" lon="5.83086">
        <ele>742.893977</ele>
        <time>2026-08-29T08:15:29.000Z</time>
      </trkpt>
      <trkpt lat="45.03872" lon="5.83084">
        <ele>743.115198</ele>
        <time>2026-08-29T08:15:30.000Z</time>
      </trkpt>
      <trkpt lat="45.0387" lon="5.83082">
        <ele>743.328255</ele>
        <time>2026-08-29T08:15:31.000Z</time>
      </trkpt>
      <trkpt lat="45.03869" lon="5.8308">
        <ele>743.499971</ele>
        <time>2026-08-29T08:15:32.000Z</time>
      </trkpt>
      <trkpt lat="45.03868" lon="5.83078">
        <ele>743.671686</ele>
        <time>2026-08-29T08:15:33.000Z</time>
      </trkpt>
      <trkpt lat="45.03866" lon="5.83076">
        <ele>743.837739</ele>
        <time>2026-08-29T08:15:34.000Z</time>
      </trkpt>
      <trkpt lat="45.03865" lon="5.83074">
        <ele>744.021415</ele>
        <time>2026-08-29T08:15:35.000Z</time>
      </trkpt>
      <trkpt lat="45.03863" lon="5.83071">
        <ele>744.211984</ele>
        <time>2026-08-29T08:15:36.000Z</time>
      </trkpt>
      <trkpt lat="45.03862" lon="5.83069">
        <ele>744.396599</ele>
        <time>2026-08-29T08:15:37.000Z</time>
      </trkpt>
      <trkpt lat="45.0386" lon="5.83067">
        <ele>744.599517</ele>
        <time>2026-08-29T08:15:38.000Z</time>
      </trkpt>
      <trkpt lat="45.03858" lon="5.83065">
        <ele>744.809133</ele>
        <time>2026-08-29T08:15:39.000Z</time>
      </trkpt>
      <trkpt lat="45.03856" lon="5.83063">
        <ele>745.015766</ele>
        <time>2026-08-29T08:15:40.000Z</time>
      </trkpt>
      <trkpt lat="45.03854" lon="5.8306">
        <ele>745.232681</ele>
        <time>2026-08-29T08:15:41.000Z</time>
      </trkpt>
      <trkpt lat="45.03852" lon="5.83058">
        <ele>745.449209</ele>
        <time>2026-08-29T08:15:42.000Z</time>
      </trkpt>
      <trkpt lat="45.0385" lon="5.83057">
        <ele>745.627788</ele>
        <time>2026-08-29T08:15:43.000Z</time>
      </trkpt>
      <trkpt lat="45.03847" lon="5.83056">
        <ele>745.860858</ele>
        <time>2026-08-29T08:15:44.000Z</time>
      </trkpt>
      <trkpt lat="45.03845" lon="5.83054">
        <ele>746.046933</ele>
        <time>2026-08-29T08:15:45.000Z</time>
      </trkpt>
      <trkpt lat="45.03843" lon="5.83053">
        <ele>746.208111</ele>
        <time>2026-08-29T08:15:46.000Z</time>
      </trkpt>
      <trkpt lat="45.03841" lon="5.83052">
        <ele>746.384504</ele>
        <time>2026-08-29T08:15:47.000Z</time>
      </trkpt>
      <trkpt lat="45.03839" lon="5.83051">
        <ele>746.56062</ele>
        <time>2026-08-29T08:15:48.000Z</time>
      </trkpt>
      <trkpt lat="45.03837" lon="5.83051">
        <ele>746.755321</ele>
        <time>2026-08-29T08:15:49.000Z</time>
      </trkpt>
      <trkpt lat="45.03834" lon="5.8305">
        <ele>746.968889</ele>
        <time>2026-08-29T08:15:50.000Z</time>
      </trkpt>
      <trkpt lat="45.03832" lon="5.83048">
        <ele>747.152968</ele>
        <time>2026-08-29T08:15:51.000Z</time>
      </trkpt>
      <trkpt lat="45.0383" lon="5.83048">
        <ele>747.333344</ele>
        <time>2026-08-29T08:15:52.000Z</time>
      </trkpt>
      <trkpt lat="45.03828" lon="5.83047">
        <ele>747.504197</ele>
        <time>2026-08-29T08:15:53.000Z</time>
      </trkpt>
      <trkpt lat="45.03826" lon="5.83046">
        <ele>747.694151</ele>
        <time>2026-08-29T08:15:54.000Z</time>
      </trkpt>
      <trkpt lat="45.03824" lon="5.83045">
        <ele>747.839697</ele>
        <time>2026-08-29T08:15:55.000Z</time>
      </trkpt>
      <trkpt lat="45.03823" lon="5.83044">
        <ele>747.944149</ele>
        <time>2026-08-29T08:15:56.000Z</time>
      </trkpt>
      <trkpt lat="45.03822" lon="5.83043">
        <ele>748.108839</ele>
        <time>2026-08-29T08:15:57.000Z</time>
      </trkpt>
      <trkpt lat="45.0382" lon="5.83041">
        <ele>748.246491</ele>
        <time>2026-08-29T08:15:58.000Z</time>
      </trkpt>
      <trkpt lat="45.03818" lon="5.8304">
        <ele>748.429918</ele>
        <time>2026-08-29T08:15:59.000Z</time>
      </trkpt>
      <trkpt lat="45.03816" lon="5.83039">
        <ele>748.596045</ele>
        <time>2026-08-29T08:16:00.000Z</time>
      </trkpt>
      <trkpt lat="45.03814" lon="5.83037">
        <ele>748.78212</ele>
        <time>2026-08-29T08:16:01.000Z</time>
      </trkpt>
      <trkpt lat="45.03812" lon="5.83036">
        <ele>748.970984</ele>
        <time>2026-08-29T08:16:02.000Z</time>
      </trkpt>
      <trkpt lat="45.03811" lon="5.83035">
        <ele>749.126081</ele>
        <time>2026-08-29T08:16:03.000Z</time>
      </trkpt>
      <trkpt lat="45.03809" lon="5.83033">
        <ele>749.312156</ele>
        <time>2026-08-29T08:16:04.000Z</time>
      </trkpt>
      <trkpt lat="45.03806" lon="5.83032">
        <ele>749.513671</ele>
        <time>2026-08-29T08:16:05.000Z</time>
      </trkpt>
      <trkpt lat="45.03804" lon="5.83031">
        <ele>749.722121</ele>
        <time>2026-08-29T08:16:06.000Z</time>
      </trkpt>
      <trkpt lat="45.03801" lon="5.8303">
        <ele>749.925718</ele>
        <time>2026-08-29T08:16:07.000Z</time>
      </trkpt>
      <trkpt lat="45.03799" lon="5.83029">
        <ele>750.111894</ele>
        <time>2026-08-29T08:16:08.000Z</time>
      </trkpt>
      <trkpt lat="45.03797" lon="5.83028">
        <ele>750.334977</ele>
        <time>2026-08-29T08:16:09.000Z</time>
      </trkpt>
      <trkpt lat="45.03794" lon="5.83027">
        <ele>750.559654</ele>
        <time>2026-08-29T08:16:10.000Z</time>
      </trkpt>
      <trkpt lat="45.03792" lon="5.83026">
        <ele>750.751464</ele>
        <time>2026-08-29T08:16:11.000Z</time>
      </trkpt>
      <trkpt lat="45.0379" lon="5.83026">
        <ele>750.886162</ele>
        <time>2026-08-29T08:16:12.000Z</time>
      </trkpt>
      <trkpt lat="45.03788" lon="5.83025">
        <ele>751.074421</ele>
        <time>2026-08-29T08:16:13.000Z</time>
      </trkpt>
      <trkpt lat="45.03786" lon="5.83023">
        <ele>751.287731</ele>
        <time>2026-08-29T08:16:14.000Z</time>
      </trkpt>
      <trkpt lat="45.03783" lon="5.83022">
        <ele>751.504747</ele>
        <time>2026-08-29T08:16:15.000Z</time>
      </trkpt>
      <trkpt lat="45.03781" lon="5.83021">
        <ele>751.6947</ele>
        <time>2026-08-29T08:16:16.000Z</time>
      </trkpt>
      <trkpt lat="45.03779" lon="5.8302">
        <ele>751.854734</ele>
        <time>2026-08-29T08:16:17.000Z</time>
      </trkpt>
      <trkpt lat="45.03777" lon="5.83019">
        <ele>752.069954</ele>
        <time>2026-08-29T08:16:18.000Z</time>
      </trkpt>
      <trkpt lat="45.03775" lon="5.83018">
        <ele>752.234644</ele>
        <time>2026-08-29T08:16:19.000Z</time>
      </trkpt>
      <trkpt lat="45.03773" lon="5.83017">
        <ele>752.411037</ele>
        <time>2026-08-29T08:16:20.000Z</time>
      </trkpt>
      <trkpt lat="45.03771" lon="5.83015">
        <ele>752.579884</ele>
        <time>2026-08-29T08:16:21.000Z</time>
      </trkpt>
      <trkpt lat="45.03769" lon="5.83014">
        <ele>752.783223</ele>
        <time>2026-08-29T08:16:22.000Z</time>
      </trkpt>
      <trkpt lat="45.03767" lon="5.83012">
        <ele>752.954926</ele>
        <time>2026-08-29T08:16:23.000Z</time>
      </trkpt>
      <trkpt lat="45.03765" lon="5.8301">
        <ele>753.139718</ele>
        <time>2026-08-29T08:16:24.000Z</time>
      </trkpt>
      <trkpt lat="45.03764" lon="5.83008">
        <ele>753.32451</ele>
        <time>2026-08-29T08:16:25.000Z</time>
      </trkpt>
      <trkpt lat="45.03761" lon="5.83007">
        <ele>753.512938</ele>
        <time>2026-08-29T08:16:26.000Z</time>
      </trkpt>
      <trkpt lat="45.03759" lon="5.83005">
        <ele>753.713688</ele>
        <time>2026-08-29T08:16:27.000Z</time>
      </trkpt>
      <trkpt lat="45.03757" lon="5.83004">
        <ele>753.89848</ele>
        <time>2026-08-29T08:16:28.000Z</time>
      </trkpt>
      <trkpt lat="45.03755" lon="5.83002">
        <ele>754.077333</ele>
        <time>2026-08-29T08:16:29.000Z</time>
      </trkpt>
      <trkpt lat="45.03754" lon="5.83">
        <ele>754.239007</ele>
        <time>2026-08-29T08:16:30.000Z</time>
      </trkpt>
      <trkpt lat="45.03753" lon="5.82998">
        <ele>754.395562</ele>
        <time>2026-08-29T08:16:31.000Z</time>
      </trkpt>
      <trkpt lat="45.03751" lon="5.82996">
        <ele>754.604926</ele>
        <time>2026-08-29T08:16:32.000Z</time>
      </trkpt>
      <trkpt lat="45.03749" lon="5.82994">
        <ele>754.802949</ele>
        <time>2026-08-29T08:16:33.000Z</time>
      </trkpt>
      <trkpt lat="45.03747" lon="5.82992">
        <ele>754.970978</ele>
        <time>2026-08-29T08:16:34.000Z</time>
      </trkpt>
      <trkpt lat="45.03745" lon="5.8299">
        <ele>755.189128</ele>
        <time>2026-08-29T08:16:35.000Z</time>
      </trkpt>
      <trkpt lat="45.03743" lon="5.82989">
        <ele>755.375203</ele>
        <time>2026-08-29T08:16:36.000Z</time>
      </trkpt>
      <trkpt lat="45.03741" lon="5.82987">
        <ele>755.576522</ele>
        <time>2026-08-29T08:16:37.000Z</time>
      </trkpt>
      <trkpt lat="45.03739" lon="5.82984">
        <ele>755.774708</ele>
        <time>2026-08-29T08:16:38.000Z</time>
      </trkpt>
      <trkpt lat="45.03738" lon="5.82983">
        <ele>755.922421</ele>
        <time>2026-08-29T08:16:39.000Z</time>
      </trkpt>
      <trkpt lat="45.03736" lon="5.82982">
        <ele>756.08599</ele>
        <time>2026-08-29T08:16:40.000Z</time>
      </trkpt>
      <trkpt lat="45.03735" lon="5.82981">
        <ele>756.203525</ele>
        <time>2026-08-29T08:16:41.000Z</time>
      </trkpt>
      <trkpt lat="45.03733" lon="5.82979">
        <ele>756.351458</ele>
        <time>2026-08-29T08:16:42.000Z</time>
      </trkpt>
      <trkpt lat="45.03731" lon="5.82978">
        <ele>756.567138</ele>
        <time>2026-08-29T08:16:43.000Z</time>
      </trkpt>
      <trkpt lat="45.03729" lon="5.82976">
        <ele>756.761802</ele>
        <time>2026-08-29T08:16:44.000Z</time>
      </trkpt>
      <trkpt lat="45.03727" lon="5.82974">
        <ele>756.943556</ele>
        <time>2026-08-29T08:16:45.000Z</time>
      </trkpt>
      <trkpt lat="45.03725" lon="5.82973">
        <ele>757.145071</ele>
        <time>2026-08-29T08:16:46.000Z</time>
      </trkpt>
      <trkpt lat="45.03722" lon="5.82972">
        <ele>757.38732</ele>
        <time>2026-08-29T08:16:47.000Z</time>
      </trkpt>
      <trkpt lat="45.0372" lon="5.82971">
        <ele>757.53653</ele>
        <time>2026-08-29T08:16:48.000Z</time>
      </trkpt>
      <trkpt lat="45.03719" lon="5.8297">
        <ele>757.650873</ele>
        <time>2026-08-29T08:16:49.000Z</time>
      </trkpt>
      <trkpt lat="45.03717" lon="5.82969">
        <ele>757.788545</ele>
        <time>2026-08-29T08:16:50.000Z</time>
      </trkpt>
      <trkpt lat="45.03715" lon="5.82968">
        <ele>757.967125</ele>
        <time>2026-08-29T08:16:51.000Z</time>
      </trkpt>
      <trkpt lat="45.03713" lon="5.82967">
        <ele>758.155383</ele>
        <time>2026-08-29T08:16:52.000Z</time>
      </trkpt>
      <trkpt lat="45.03711" lon="5.82966">
        <ele>758.364631</ele>
        <time>2026-08-29T08:16:53.000Z</time>
      </trkpt>
      <trkpt lat="45.03709" lon="5.82964">
        <ele>758.546385</ele>
        <time>2026-08-29T08:16:54.000Z</time>
      </trkpt>
      <trkpt lat="45.03707" lon="5.82963">
        <ele>758.707441</ele>
        <time>2026-08-29T08:16:55.000Z</time>
      </trkpt>
      <trkpt lat="45.03705" lon="5.82961">
        <ele>758.91078</ele>
        <time>2026-08-29T08:16:56.000Z</time>
      </trkpt>
      <trkpt lat="45.03703" lon="5.82961">
        <ele>759.078847</ele>
        <time>2026-08-29T08:16:57.000Z</time>
      </trkpt>
      <trkpt lat="45.03701" lon="5.82959">
        <ele>759.262274</ele>
        <time>2026-08-29T08:16:58.000Z</time>
      </trkpt>
      <trkpt lat="45.037" lon="5.82958">
        <ele>759.413264</ele>
        <time>2026-08-29T08:16:59.000Z</time>
      </trkpt>
      <trkpt lat="45.03698" lon="5.82956">
        <ele>759.572113</ele>
        <time>2026-08-29T08:17:00.000Z</time>
      </trkpt>
      <trkpt lat="45.03696" lon="5.82954">
        <ele>759.79403</ele>
        <time>2026-08-29T08:17:01.000Z</time>
      </trkpt>
      <trkpt lat="45.03694" lon="5.82953">
        <ele>759.93568</ele>
        <time>2026-08-29T08:17:02.000Z</time>
      </trkpt>
      <trkpt lat="45.03692" lon="5.82951">
        <ele>760.12136</ele>
        <time>2026-08-29T08:17:03.000Z</time>
      </trkpt>
      <trkpt lat="45.0369" lon="5.82949">
        <ele>760.305786</ele>
        <time>2026-08-29T08:17:04.000Z</time>
      </trkpt>
      <trkpt lat="45.03689" lon="5.82947">
        <ele>760.454296</ele>
        <time>2026-08-29T08:17:05.000Z</time>
      </trkpt>
      <trkpt lat="45.03687" lon="5.82945">
        <ele>760.623042</ele>
        <time>2026-08-29T08:17:06.000Z</time>
      </trkpt>
      <trkpt lat="45.03685" lon="5.82943">
        <ele>760.810998</ele>
        <time>2026-08-29T08:17:07.000Z</time>
      </trkpt>
      <trkpt lat="45.03684" lon="5.82941">
        <ele>760.968785</ele>
        <time>2026-08-29T08:17:08.000Z</time>
      </trkpt>
      <trkpt lat="45.03683" lon="5.82939">
        <ele>761.119143</ele>
        <time>2026-08-29T08:17:09.000Z</time>
      </trkpt>
      <trkpt lat="45.03681" lon="5.82936">
        <ele>761.314792</ele>
        <time>2026-08-29T08:17:10.000Z</time>
      </trkpt>
      <trkpt lat="45.03679" lon="5.82934">
        <ele>761.474965</ele>
        <time>2026-08-29T08:17:11.000Z</time>
      </trkpt>
      <trkpt lat="45.03678" lon="5.82932">
        <ele>761.662673</ele>
        <time>2026-08-29T08:17:12.000Z</time>
      </trkpt>
      <trkpt lat="45.03676" lon="5.82929">
        <ele>761.850629</ele>
        <time>2026-08-29T08:17:13.000Z</time>
      </trkpt>
      <trkpt lat="45.03673" lon="5.82927">
        <ele>762.063868</ele>
        <time>2026-08-29T08:17:14.000Z</time>
      </trkpt>
      <trkpt lat="45.03671" lon="5.82926">
        <ele>762.269348</ele>
        <time>2026-08-29T08:17:15.000Z</time>
      </trkpt>
      <trkpt lat="45.03669" lon="5.82924">
        <ele>762.45732</ele>
        <time>2026-08-29T08:17:16.000Z</time>
      </trkpt>
      <trkpt lat="45.03667" lon="5.82922">
        <ele>762.6628</ele>
        <time>2026-08-29T08:17:17.000Z</time>
      </trkpt>
      <trkpt lat="45.03664" lon="5.82921">
        <ele>762.856691</ele>
        <time>2026-08-29T08:17:18.000Z</time>
      </trkpt>
      <trkpt lat="45.03662" lon="5.82919">
        <ele>763.048381</ele>
        <time>2026-08-29T08:17:19.000Z</time>
      </trkpt>
      <trkpt lat="45.0366" lon="5.82918">
        <ele>763.249251</ele>
        <time>2026-08-29T08:17:20.000Z</time>
      </trkpt>
      <trkpt lat="45.03657" lon="5.82917">
        <ele>763.451365</ele>
        <time>2026-08-29T08:17:21.000Z</time>
      </trkpt>
      <trkpt lat="45.03655" lon="5.82916">
        <ele>763.615646</ele>
        <time>2026-08-29T08:17:22.000Z</time>
      </trkpt>
      <trkpt lat="45.03653" lon="5.82915">
        <ele>763.804422</ele>
        <time>2026-08-29T08:17:23.000Z</time>
      </trkpt>
      <trkpt lat="45.03651" lon="5.82913">
        <ele>763.979911</ele>
        <time>2026-08-29T08:17:24.000Z</time>
      </trkpt>
      <trkpt lat="45.03648" lon="5.82912">
        <ele>764.156821</ele>
        <time>2026-08-29T08:17:25.000Z</time>
      </trkpt>
      <trkpt lat="45.03646" lon="5.82911">
        <ele>764.326459</ele>
        <time>2026-08-29T08:17:26.000Z</time>
      </trkpt>
      <trkpt lat="45.03644" lon="5.82911">
        <ele>764.516548</ele>
        <time>2026-08-29T08:17:27.000Z</time>
      </trkpt>
      <trkpt lat="45.03642" lon="5.8291">
        <ele>764.693458</ele>
        <time>2026-08-29T08:17:28.000Z</time>
      </trkpt>
      <trkpt lat="45.03639" lon="5.82909">
        <ele>764.866098</ele>
        <time>2026-08-29T08:17:29.000Z</time>
      </trkpt>
      <trkpt lat="45.03637" lon="5.82908">
        <ele>765.071026</ele>
        <time>2026-08-29T08:17:30.000Z</time>
      </trkpt>
      <trkpt lat="45.03634" lon="5.82907">
        <ele>765.269928</ele>
        <time>2026-08-29T08:17:31.000Z</time>
      </trkpt>
      <trkpt lat="45.03632" lon="5.82906">
        <ele>765.460017</ele>
        <time>2026-08-29T08:17:32.000Z</time>
      </trkpt>
      <trkpt lat="45.0363" lon="5.82905">
        <ele>765.629655</ele>
        <time>2026-08-29T08:17:33.000Z</time>
      </trkpt>
      <trkpt lat="45.03628" lon="5.82904">
        <ele>765.800487</ele>
        <time>2026-08-29T08:17:34.000Z</time>
      </trkpt>
      <trkpt lat="45.03626" lon="5.82903">
        <ele>765.974393</ele>
        <time>2026-08-29T08:17:35.000Z</time>
      </trkpt>
      <trkpt lat="45.03624" lon="5.82902">
        <ele>766.140896</ele>
        <time>2026-08-29T08:17:36.000Z</time>
      </trkpt>
      <trkpt lat="45.03622" lon="5.82901">
        <ele>766.309399</ele>
        <time>2026-08-29T08:17:37.000Z</time>
      </trkpt>
      <trkpt lat="45.03619" lon="5.829">
        <ele>766.502543</ele>
        <time>2026-08-29T08:17:38.000Z</time>
      </trkpt>
      <trkpt lat="45.03617" lon="5.82898">
        <ele>766.711922</ele>
        <time>2026-08-29T08:17:39.000Z</time>
      </trkpt>
      <trkpt lat="45.03615" lon="5.82898">
        <ele>766.871044</ele>
        <time>2026-08-29T08:17:40.000Z</time>
      </trkpt>
      <trkpt lat="45.03612" lon="5.82897">
        <ele>767.040681</ele>
        <time>2026-08-29T08:17:41.000Z</time>
      </trkpt>
      <trkpt lat="45.0361" lon="5.82896">
        <ele>767.239584</ele>
        <time>2026-08-29T08:17:42.000Z</time>
      </trkpt>
      <trkpt lat="45.03608" lon="5.82895">
        <ele>767.409221</ele>
        <time>2026-08-29T08:17:43.000Z</time>
      </trkpt>
      <trkpt lat="45.03606" lon="5.82894">
        <ele>767.577211</ele>
        <time>2026-08-29T08:17:44.000Z</time>
      </trkpt>
      <trkpt lat="45.03604" lon="5.82893">
        <ele>767.743714</ele>
        <time>2026-08-29T08:17:45.000Z</time>
      </trkpt>
      <trkpt lat="45.03601" lon="5.82892">
        <ele>767.927929</ele>
        <time>2026-08-29T08:17:46.000Z</time>
      </trkpt>
      <trkpt lat="45.03599" lon="5.82891">
        <ele>768.094431</ele>
        <time>2026-08-29T08:17:47.000Z</time>
      </trkpt>
      <trkpt lat="45.03597" lon="5.8289">
        <ele>768.258712</ele>
        <time>2026-08-29T08:17:48.000Z</time>
      </trkpt>
      <trkpt lat="45.03596" lon="5.82889">
        <ele>768.368177</ele>
        <time>2026-08-29T08:17:49.000Z</time>
      </trkpt>
      <trkpt lat="45.03594" lon="5.82888">
        <ele>768.533356</ele>
        <time>2026-08-29T08:17:50.000Z</time>
      </trkpt>
      <trkpt lat="45.03592" lon="5.82887">
        <ele>768.71387</ele>
        <time>2026-08-29T08:17:51.000Z</time>
      </trkpt>
      <trkpt lat="45.0359" lon="5.82886">
        <ele>768.894384</ele>
        <time>2026-08-29T08:17:52.000Z</time>
      </trkpt>
      <trkpt lat="45.03588" lon="5.82885">
        <ele>769.033883</ele>
        <time>2026-08-29T08:17:53.000Z</time>
      </trkpt>
      <trkpt lat="45.03586" lon="5.82884">
        <ele>769.193813</ele>
        <time>2026-08-29T08:17:54.000Z</time>
      </trkpt>
      <trkpt lat="45.03584" lon="5.82883">
        <ele>769.341755</ele>
        <time>2026-08-29T08:17:55.000Z</time>
      </trkpt>
      <trkpt lat="45.03583" lon="5.82881">
        <ele>769.491753</ele>
        <time>2026-08-29T08:17:56.000Z</time>
      </trkpt>
      <trkpt lat="45.03581" lon="5.82879">
        <ele>769.64175</ele>
        <time>2026-08-29T08:17:57.000Z</time>
      </trkpt>
      <trkpt lat="45.03579" lon="5.82878">
        <ele>769.817648</ele>
        <time>2026-08-29T08:17:58.000Z</time>
      </trkpt>
      <trkpt lat="45.03577" lon="5.82876">
        <ele>770.002875</ele>
        <time>2026-08-29T08:17:59.000Z</time>
      </trkpt>
      <trkpt lat="45.03575" lon="5.82875">
        <ele>770.150818</ele>
        <time>2026-08-29T08:18:00.000Z</time>
      </trkpt>
      <trkpt lat="45.03573" lon="5.82873">
        <ele>770.319565</ele>
        <time>2026-08-29T08:18:01.000Z</time>
      </trkpt>
      <trkpt lat="45.03572" lon="5.82871">
        <ele>770.485417</ele>
        <time>2026-08-29T08:18:02.000Z</time>
      </trkpt>
      <trkpt lat="45.0357" lon="5.82869">
        <ele>770.689724</ele>
        <time>2026-08-29T08:18:03.000Z</time>
      </trkpt>
      <trkpt lat="45.03568" lon="5.82866">
        <ele>770.877681</ele>
        <time>2026-08-29T08:18:04.000Z</time>
      </trkpt>
      <trkpt lat="45.03566" lon="5.82865">
        <ele>771.056303</ele>
        <time>2026-08-29T08:18:05.000Z</time>
      </trkpt>
      <trkpt lat="45.03564" lon="5.82863">
        <ele>771.228408</ele>
        <time>2026-08-29T08:18:06.000Z</time>
      </trkpt>
      <trkpt lat="45.03562" lon="5.82862">
        <ele>771.396911</ele>
        <time>2026-08-29T08:18:07.000Z</time>
      </trkpt>
      <trkpt lat="45.0356" lon="5.8286">
        <ele>771.556841</ele>
        <time>2026-08-29T08:18:08.000Z</time>
      </trkpt>
      <trkpt lat="45.03558" lon="5.82858">
        <ele>771.754167</ele>
        <time>2026-08-29T08:18:09.000Z</time>
      </trkpt>
      <trkpt lat="45.03556" lon="5.82857">
        <ele>771.927559</ele>
        <time>2026-08-29T08:18:10.000Z</time>
      </trkpt>
      <trkpt lat="45.03553" lon="5.82855">
        <ele>772.14482</ele>
        <time>2026-08-29T08:18:11.000Z</time>
      </trkpt>
      <trkpt lat="45.03551" lon="5.82854">
        <ele>772.331786</ele>
        <time>2026-08-29T08:18:12.000Z</time>
      </trkpt>
      <trkpt lat="45.03549" lon="5.82853">
        <ele>772.526665</ele>
        <time>2026-08-29T08:18:13.000Z</time>
      </trkpt>
      <trkpt lat="45.03546" lon="5.82852">
        <ele>772.730376</ele>
        <time>2026-08-29T08:18:14.000Z</time>
      </trkpt>
      <trkpt lat="45.03544" lon="5.82851">
        <ele>772.903016</ele>
        <time>2026-08-29T08:18:15.000Z</time>
      </trkpt>
      <trkpt lat="45.03542" lon="5.82851">
        <ele>773.088743</ele>
        <time>2026-08-29T08:18:16.000Z</time>
      </trkpt>
      <trkpt lat="45.03539" lon="5.8285">
        <ele>773.274471</ele>
        <time>2026-08-29T08:18:17.000Z</time>
      </trkpt>
      <trkpt lat="45.03537" lon="5.82849">
        <ele>773.439649</ele>
        <time>2026-08-29T08:18:18.000Z</time>
      </trkpt>
      <trkpt lat="45.03535" lon="5.82849">
        <ele>773.620982</ele>
        <time>2026-08-29T08:18:19.000Z</time>
      </trkpt>
      <trkpt lat="45.03532" lon="5.82848">
        <ele>773.797819</ele>
        <time>2026-08-29T08:18:20.000Z</time>
      </trkpt>
      <trkpt lat="45.0353" lon="5.82847">
        <ele>773.968093</ele>
        <time>2026-08-29T08:18:21.000Z</time>
      </trkpt>
      <trkpt lat="45.03528" lon="5.82845">
        <ele>774.133102</ele>
        <time>2026-08-29T08:18:22.000Z</time>
      </trkpt>
      <trkpt lat="45.03525" lon="5.82843">
        <ele>774.340317</ele>
        <time>2026-08-29T08:18:23.000Z</time>
      </trkpt>
      <trkpt lat="45.03523" lon="5.82841">
        <ele>774.539434</ele>
        <time>2026-08-29T08:18:24.000Z</time>
      </trkpt>
      <trkpt lat="45.0352" lon="5.82839">
        <ele>774.732415</ele>
        <time>2026-08-29T08:18:25.000Z</time>
      </trkpt>
      <trkpt lat="45.03518" lon="5.82837">
        <ele>774.927717</ele>
        <time>2026-08-29T08:18:26.000Z</time>
      </trkpt>
      <trkpt lat="45.03516" lon="5.82834">
        <ele>775.118893</ele>
        <time>2026-08-29T08:18:27.000Z</time>
      </trkpt>
      <trkpt lat="45.03513" lon="5.82832">
        <ele>775.316904</ele>
        <time>2026-08-29T08:18:28.000Z</time>
      </trkpt>
      <trkpt lat="45.03511" lon="5.82829">
        <ele>775.493643</ele>
        <time>2026-08-29T08:18:29.000Z</time>
      </trkpt>
      <trkpt lat="45.03509" lon="5.82828">
        <ele>775.654343</ele>
        <time>2026-08-29T08:18:30.000Z</time>
      </trkpt>
      <trkpt lat="45.03508" lon="5.82825">
        <ele>775.818502</ele>
        <time>2026-08-29T08:18:31.000Z</time>
      </trkpt>
      <trkpt lat="45.03506" lon="5.82822">
        <ele>776.020782</ele>
        <time>2026-08-29T08:18:32.000Z</time>
      </trkpt>
      <trkpt lat="45.03504" lon="5.82818">
        <ele>776.207431</ele>
        <time>2026-08-29T08:18:33.000Z</time>
      </trkpt>
      <trkpt lat="45.03503" lon="5.82815">
        <ele>776.378611</ele>
        <time>2026-08-29T08:18:34.000Z</time>
      </trkpt>
      <trkpt lat="45.03501" lon="5.82813">
        <ele>776.534766</ele>
        <time>2026-08-29T08:18:35.000Z</time>
      </trkpt>
      <trkpt lat="45.035" lon="5.8281">
        <ele>776.702066</ele>
        <time>2026-08-29T08:18:36.000Z</time>
      </trkpt>
      <trkpt lat="45.03498" lon="5.82808">
        <ele>776.881869</ele>
        <time>2026-08-29T08:18:37.000Z</time>
      </trkpt>
      <trkpt lat="45.03496" lon="5.82806">
        <ele>777.052425</ele>
        <time>2026-08-29T08:18:38.000Z</time>
      </trkpt>
      <trkpt lat="45.03494" lon="5.82804">
        <ele>777.198238</ele>
        <time>2026-08-29T08:18:39.000Z</time>
      </trkpt>
      <trkpt lat="45.03492" lon="5.82803">
        <ele>777.36245</ele>
        <time>2026-08-29T08:18:40.000Z</time>
      </trkpt>
      <trkpt lat="45.03489" lon="5.82804">
        <ele>777.524439</ele>
        <time>2026-08-29T08:18:41.000Z</time>
      </trkpt>
      <trkpt lat="45.03487" lon="5.82804">
        <ele>777.649039</ele>
        <time>2026-08-29T08:18:42.000Z</time>
      </trkpt>
      <trkpt lat="45.03486" lon="5.82805">
        <ele>777.752647</ele>
        <time>2026-08-29T08:18:43.000Z</time>
      </trkpt>
      <trkpt lat="45.03485" lon="5.82807">
        <ele>777.873981</ele>
        <time>2026-08-29T08:18:44.000Z</time>
      </trkpt>
      <trkpt lat="45.03484" lon="5.82809">
        <ele>777.997607</ele>
        <time>2026-08-29T08:18:45.000Z</time>
      </trkpt>
      <trkpt lat="45.03484" lon="5.82812">
        <ele>778.132452</ele>
        <time>2026-08-29T08:18:46.000Z</time>
      </trkpt>
      <trkpt lat="45.03485" lon="5.82815">
        <ele>778.285128</ele>
        <time>2026-08-29T08:18:47.000Z</time>
      </trkpt>
      <trkpt lat="45.03486" lon="5.82818">
        <ele>778.449268</ele>
        <time>2026-08-29T08:18:48.000Z</time>
      </trkpt>
      <trkpt lat="45.03487" lon="5.82822">
        <ele>778.633336</ele>
        <time>2026-08-29T08:18:49.000Z</time>
      </trkpt>
      <trkpt lat="45.03489" lon="5.82825">
        <ele>778.824184</ele>
        <time>2026-08-29T08:18:50.000Z</time>
      </trkpt>
      <trkpt lat="45.0349" lon="5.82828">
        <ele>778.983705</ele>
        <time>2026-08-29T08:18:51.000Z</time>
      </trkpt>
      <trkpt lat="45.03492" lon="5.8283">
        <ele>779.160445</ele>
        <time>2026-08-29T08:18:52.000Z</time>
      </trkpt>
      <trkpt lat="45.03494" lon="5.82833">
        <ele>779.352261</ele>
        <time>2026-08-29T08:18:53.000Z</time>
      </trkpt>
      <trkpt lat="45.03496" lon="5.82836">
        <ele>779.563022</ele>
        <time>2026-08-29T08:18:54.000Z</time>
      </trkpt>
      <trkpt lat="45.03498" lon="5.82839">
        <ele>779.755963</ele>
        <time>2026-08-29T08:18:55.000Z</time>
      </trkpt>
      <trkpt lat="45.03501" lon="5.82843">
        <ele>780.036715</ele>
        <time>2026-08-29T08:18:56.000Z</time>
      </trkpt>
      <trkpt lat="45.03504" lon="5.82846">
        <ele>780.282238</ele>
        <time>2026-08-29T08:18:57.000Z</time>
      </trkpt>
      <trkpt lat="45.03506" lon="5.82849">
        <ele>780.485894</ele>
        <time>2026-08-29T08:18:58.000Z</time>
      </trkpt>
      <trkpt lat="45.03509" lon="5.82851">
        <ele>780.700406</ele>
        <time>2026-08-29T08:18:59.000Z</time>
      </trkpt>
      <trkpt lat="45.03511" lon="5.82854">
        <ele>780.884835</ele>
        <time>2026-08-29T08:19:00.000Z</time>
      </trkpt>
      <trkpt lat="45.03513" lon="5.82855">
        <ele>781.030647</ele>
        <time>2026-08-29T08:19:01.000Z</time>
      </trkpt>
      <trkpt lat="45.03516" lon="5.82857">
        <ele>781.218312</ele>
        <time>2026-08-29T08:19:02.000Z</time>
      </trkpt>
      <trkpt lat="45.03517" lon="5.82859">
        <ele>781.361371</ele>
        <time>2026-08-29T08:19:03.000Z</time>
      </trkpt>
      <trkpt lat="45.03519" lon="5.82861">
        <ele>781.540295</ele>
        <time>2026-08-29T08:19:04.000Z</time>
      </trkpt>
      <trkpt lat="45.03522" lon="5.82864">
        <ele>781.746893</ele>
        <time>2026-08-29T08:19:05.000Z</time>
      </trkpt>
      <trkpt lat="45.03525" lon="5.82866">
        <ele>781.967463</ele>
        <time>2026-08-29T08:19:06.000Z</time>
      </trkpt>
      <trkpt lat="45.03526" lon="5.82868">
        <ele>782.103669</ele>
        <time>2026-08-29T08:19:07.000Z</time>
      </trkpt>
      <trkpt lat="45.03528" lon="5.82871">
        <ele>782.305023</ele>
        <time>2026-08-29T08:19:08.000Z</time>
      </trkpt>
      <trkpt lat="45.0353" lon="5.82874">
        <ele>782.506082</ele>
        <time>2026-08-29T08:19:09.000Z</time>
      </trkpt>
      <trkpt lat="45.03532" lon="5.82878">
        <ele>782.716061</ele>
        <time>2026-08-29T08:19:10.000Z</time>
      </trkpt>
      <trkpt lat="45.03534" lon="5.82881">
        <ele>782.917121</ele>
        <time>2026-08-29T08:19:11.000Z</time>
      </trkpt>
      <trkpt lat="45.03536" lon="5.82884">
        <ele>783.123511</ele>
        <time>2026-08-29T08:19:12.000Z</time>
      </trkpt>
      <trkpt lat="45.03539" lon="5.82888">
        <ele>783.362043</ele>
        <time>2026-08-29T08:19:13.000Z</time>
      </trkpt>
      <trkpt lat="45.03541" lon="5.82891">
        <ele>783.59737</ele>
        <time>2026-08-29T08:19:14.000Z</time>
      </trkpt>
      <trkpt lat="45.03544" lon="5.82894">
        <ele>783.821337</ele>
        <time>2026-08-29T08:19:15.000Z</time>
      </trkpt>
      <trkpt lat="45.03546" lon="5.82897">
        <ele>784.010898</ele>
        <time>2026-08-29T08:19:16.000Z</time>
      </trkpt>
      <trkpt lat="45.03548" lon="5.82899">
        <ele>784.195197</ele>
        <time>2026-08-29T08:19:17.000Z</time>
      </trkpt>
      <trkpt lat="45.03549" lon="5.82901">
        <ele>784.300515</ele>
        <time>2026-08-29T08:19:18.000Z</time>
      </trkpt>
      <trkpt lat="45.03551" lon="5.82903">
        <ele>784.480317</ele>
        <time>2026-08-29T08:19:19.000Z</time>
      </trkpt>
      <trkpt lat="45.03552" lon="5.82905">
        <ele>784.604781</ele>
        <time>2026-08-29T08:19:20.000Z</time>
      </trkpt>
      <trkpt lat="45.03554" lon="5.82908">
        <ele>784.775463</ele>
        <time>2026-08-29T08:19:21.000Z</time>
      </trkpt>
      <trkpt lat="45.03556" lon="5.82909">
        <ele>784.954907</ele>
        <time>2026-08-29T08:19:22.000Z</time>
      </trkpt>
      <trkpt lat="45.0356" lon="5.82912">
        <ele>785.251753</ele>
        <time>2026-08-29T08:19:23.000Z</time>
      </trkpt>
      <trkpt lat="45.03562" lon="5.82914">
        <ele>785.414765</ele>
        <time>2026-08-29T08:19:24.000Z</time>
      </trkpt>
      <trkpt lat="45.03565" lon="5.82915">
        <ele>785.602203</ele>
        <time>2026-08-29T08:19:25.000Z</time>
      </trkpt>
      <trkpt lat="45.03568" lon="5.82917">
        <ele>785.81557</ele>
        <time>2026-08-29T08:19:26.000Z</time>
      </trkpt>
      <trkpt lat="45.0357" lon="5.82918">
        <ele>786.004493</ele>
        <time>2026-08-29T08:19:27.000Z</time>
      </trkpt>
      <trkpt lat="45.03573" lon="5.82919">
        <ele>786.200863</ele>
        <time>2026-08-29T08:19:28.000Z</time>
      </trkpt>
      <trkpt lat="45.03575" lon="5.82921">
        <ele>786.403628</ele>
        <time>2026-08-29T08:19:29.000Z</time>
      </trkpt>
      <trkpt lat="45.03578" lon="5.82923">
        <ele>786.6643</ele>
        <time>2026-08-29T08:19:30.000Z</time>
      </trkpt>
      <trkpt lat="45.03581" lon="5.82925">
        <ele>786.904429</ele>
        <time>2026-08-29T08:19:31.000Z</time>
      </trkpt>
      <trkpt lat="45.03583" lon="5.82927">
        <ele>787.118599</ele>
        <time>2026-08-29T08:19:32.000Z</time>
      </trkpt>
      <trkpt lat="45.03586" lon="5.82929">
        <ele>787.376808</ele>
        <time>2026-08-29T08:19:33.000Z</time>
      </trkpt>
      <trkpt lat="45.03589" lon="5.82931">
        <ele>787.604792</ele>
        <time>2026-08-29T08:19:34.000Z</time>
      </trkpt>
      <trkpt lat="45.03592" lon="5.82932">
        <ele>787.835764</ele>
        <time>2026-08-29T08:19:35.000Z</time>
      </trkpt>
      <trkpt lat="45.03594" lon="5.82934">
        <ele>788.057318</ele>
        <time>2026-08-29T08:19:36.000Z</time>
      </trkpt>
      <trkpt lat="45.03596" lon="5.82936">
        <ele>788.233712</ele>
        <time>2026-08-29T08:19:37.000Z</time>
      </trkpt>
      <trkpt lat="45.03599" lon="5.82937">
        <ele>788.42478</ele>
        <time>2026-08-29T08:19:38.000Z</time>
      </trkpt>
      <trkpt lat="45.03601" lon="5.82938">
        <ele>788.586687</ele>
        <time>2026-08-29T08:19:39.000Z</time>
      </trkpt>
      <trkpt lat="45.03603" lon="5.8294">
        <ele>788.796175</ele>
        <time>2026-08-29T08:19:40.000Z</time>
      </trkpt>
      <trkpt lat="45.03605" lon="5.82941">
        <ele>788.987</ele>
        <time>2026-08-29T08:19:41.000Z</time>
      </trkpt>
      <trkpt lat="45.03607" lon="5.82943">
        <ele>789.138726</ele>
        <time>2026-08-29T08:19:42.000Z</time>
      </trkpt>
      <trkpt lat="45.03609" lon="5.82945">
        <ele>789.318714</ele>
        <time>2026-08-29T08:19:43.000Z</time>
      </trkpt>
      <trkpt lat="45.03611" lon="5.82947">
        <ele>789.548621</ele>
        <time>2026-08-29T08:19:44.000Z</time>
      </trkpt>
      <trkpt lat="45.03613" lon="5.8295">
        <ele>789.744929</ele>
        <time>2026-08-29T08:19:45.000Z</time>
      </trkpt>
      <trkpt lat="45.03615" lon="5.82952">
        <ele>789.927614</ele>
        <time>2026-08-29T08:19:46.000Z</time>
      </trkpt>
      <trkpt lat="45.03617" lon="5.82954">
        <ele>790.122989</ele>
        <time>2026-08-29T08:19:47.000Z</time>
      </trkpt>
      <trkpt lat="45.03619" lon="5.82956">
        <ele>790.321366</ele>
        <time>2026-08-29T08:19:48.000Z</time>
      </trkpt>
      <trkpt lat="45.03621" lon="5.82958">
        <ele>790.545106</ele>
        <time>2026-08-29T08:19:49.000Z</time>
      </trkpt>
      <trkpt lat="45.03623" lon="5.8296">
        <ele>790.731096</ele>
        <time>2026-08-29T08:19:50.000Z</time>
      </trkpt>
      <trkpt lat="45.03626" lon="5.82962">
        <ele>790.935766</ele>
        <time>2026-08-29T08:19:51.000Z</time>
      </trkpt>
      <trkpt lat="45.03628" lon="5.82964">
        <ele>791.144026</ele>
        <time>2026-08-29T08:19:52.000Z</time>
      </trkpt>
      <trkpt lat="45.0363" lon="5.82966">
        <ele>791.326881</ele>
        <time>2026-08-29T08:19:53.000Z</time>
      </trkpt>
      <trkpt lat="45.03632" lon="5.82968">
        <ele>791.553999</ele>
        <time>2026-08-29T08:19:54.000Z</time>
      </trkpt>
      <trkpt lat="45.03634" lon="5.82971">
        <ele>791.754151</ele>
        <time>2026-08-29T08:19:55.000Z</time>
      </trkpt>
      <trkpt lat="45.03636" lon="5.82973">
        <ele>791.941248</ele>
        <time>2026-08-29T08:19:56.000Z</time>
      </trkpt>
      <trkpt lat="45.03637" lon="5.82976">
        <ele>792.119361</ele>
        <time>2026-08-29T08:19:57.000Z</time>
      </trkpt>
      <trkpt lat="45.03639" lon="5.82978">
        <ele>792.306353</ele>
        <time>2026-08-29T08:19:58.000Z</time>
      </trkpt>
      <trkpt lat="45.0364" lon="5.82982">
        <ele>792.511533</ele>
        <time>2026-08-29T08:19:59.000Z</time>
      </trkpt>
      <trkpt lat="45.03642" lon="5.82984">
        <ele>792.694178</ele>
        <time>2026-08-29T08:20:00.000Z</time>
      </trkpt>
      <trkpt lat="45.03643" lon="5.82987">
        <ele>792.890697</ele>
        <time>2026-08-29T08:20:01.000Z</time>
      </trkpt>
      <trkpt lat="45.03644" lon="5.8299">
        <ele>793.065345</ele>
        <time>2026-08-29T08:20:02.000Z</time>
      </trkpt>
      <trkpt lat="45.03645" lon="5.82993">
        <ele>793.234642</ele>
        <time>2026-08-29T08:20:03.000Z</time>
      </trkpt>
      <trkpt lat="45.03647" lon="5.82996">
        <ele>793.421878</ele>
        <time>2026-08-29T08:20:04.000Z</time>
      </trkpt>
      <trkpt lat="45.03648" lon="5.82998">
        <ele>793.60008</ele>
        <time>2026-08-29T08:20:05.000Z</time>
      </trkpt>
      <trkpt lat="45.03649" lon="5.83001">
        <ele>793.778283</ele>
        <time>2026-08-29T08:20:06.000Z</time>
      </trkpt>
      <trkpt lat="45.03651" lon="5.83004">
        <ele>793.997904</ele>
        <time>2026-08-29T08:20:07.000Z</time>
      </trkpt>
      <trkpt lat="45.03653" lon="5.83007">
        <ele>794.189456</ele>
        <time>2026-08-29T08:20:08.000Z</time>
      </trkpt>
      <trkpt lat="45.03654" lon="5.83009">
        <ele>794.344052</ele>
        <time>2026-08-29T08:20:09.000Z</time>
      </trkpt>
      <trkpt lat="45.03655" lon="5.83012">
        <ele>794.508906</ele>
        <time>2026-08-29T08:20:10.000Z</time>
      </trkpt>
      <trkpt lat="45.03657" lon="5.83014">
        <ele>794.688781</ele>
        <time>2026-08-29T08:20:11.000Z</time>
      </trkpt>
      <trkpt lat="45.03658" lon="5.83016">
        <ele>794.853636</ele>
        <time>2026-08-29T08:20:12.000Z</time>
      </trkpt>
      <trkpt lat="45.0366" lon="5.83019">
        <ele>795.040733</ele>
        <time>2026-08-29T08:20:13.000Z</time>
      </trkpt>
      <trkpt lat="45.03661" lon="5.83021">
        <ele>795.21284</ele>
        <time>2026-08-29T08:20:14.000Z</time>
      </trkpt>
      <trkpt lat="45.03663" lon="5.83023">
        <ele>795.377534</ele>
        <time>2026-08-29T08:20:15.000Z</time>
      </trkpt>
      <trkpt lat="45.03664" lon="5.83025">
        <ele>795.533876</ele>
        <time>2026-08-29T08:20:16.000Z</time>
      </trkpt>
      <trkpt lat="45.03666" lon="5.83027">
        <ele>795.735448</ele>
        <time>2026-08-29T08:20:17.000Z</time>
      </trkpt>
      <trkpt lat="45.03669" lon="5.8303">
        <ele>795.959187</ele>
        <time>2026-08-29T08:20:18.000Z</time>
      </trkpt>
      <trkpt lat="45.03671" lon="5.83032">
        <ele>796.170899</ele>
        <time>2026-08-29T08:20:19.000Z</time>
      </trkpt>
      <trkpt lat="45.03672" lon="5.83035">
        <ele>796.364008</ele>
        <time>2026-08-29T08:20:20.000Z</time>
      </trkpt>
      <trkpt lat="45.03675" lon="5.83037">
        <ele>796.578308</ele>
        <time>2026-08-29T08:20:21.000Z</time>
      </trkpt>
      <trkpt lat="45.03676" lon="5.83039">
        <ele>796.721341</ele>
        <time>2026-08-29T08:20:22.000Z</time>
      </trkpt>
      <trkpt lat="45.03677" lon="5.83041">
        <ele>796.888001</ele>
        <time>2026-08-29T08:20:23.000Z</time>
      </trkpt>
      <trkpt lat="45.03678" lon="5.83042">
        <ele>796.981048</ele>
        <time>2026-08-29T08:20:24.000Z</time>
      </trkpt>
      <trkpt lat="45.0368" lon="5.83044">
        <ele>797.142185</ele>
        <time>2026-08-29T08:20:25.000Z</time>
      </trkpt>
      <trkpt lat="45.03682" lon="5.83046">
        <ele>797.303322</ele>
        <time>2026-08-29T08:20:26.000Z</time>
      </trkpt>
      <trkpt lat="45.03683" lon="5.83048">
        <ele>797.464721</ele>
        <time>2026-08-29T08:20:27.000Z</time>
      </trkpt>
      <trkpt lat="45.03685" lon="5.8305">
        <ele>797.663555</ele>
        <time>2026-08-29T08:20:28.000Z</time>
      </trkpt>
      <trkpt lat="45.03687" lon="5.83052">
        <ele>797.828249</ele>
        <time>2026-08-29T08:20:29.000Z</time>
      </trkpt>
      <trkpt lat="45.03688" lon="5.83054">
        <ele>797.995369</ele>
        <time>2026-08-29T08:20:30.000Z</time>
      </trkpt>
      <trkpt lat="45.0369" lon="5.83056">
        <ele>798.178223</ele>
        <time>2026-08-29T08:20:31.000Z</time>
      </trkpt>
      <trkpt lat="45.03693" lon="5.83058">
        <ele>798.373504</ele>
        <time>2026-08-29T08:20:32.000Z</time>
      </trkpt>
      <trkpt lat="45.03694" lon="5.8306">
        <ele>798.556188</ele>
        <time>2026-08-29T08:20:33.000Z</time>
      </trkpt>
      <trkpt lat="45.03696" lon="5.83062">
        <ele>798.762055</ele>
        <time>2026-08-29T08:20:34.000Z</time>
      </trkpt>
      <trkpt lat="45.03699" lon="5.83064">
        <ele>798.97322</ele>
        <time>2026-08-29T08:20:35.000Z</time>
      </trkpt>
      <trkpt lat="45.03701" lon="5.83067">
        <ele>799.178082</ele>
        <time>2026-08-29T08:20:36.000Z</time>
      </trkpt>
      <trkpt lat="45.03703" lon="5.83069">
        <ele>799.37021</ele>
        <time>2026-08-29T08:20:37.000Z</time>
      </trkpt>
      <trkpt lat="45.03705" lon="5.83071">
        <ele>799.59731</ele>
        <time>2026-08-29T08:20:38.000Z</time>
      </trkpt>
      <trkpt lat="45.03707" lon="5.83074">
        <ele>799.796127</ele>
        <time>2026-08-29T08:20:39.000Z</time>
      </trkpt>
      <trkpt lat="45.03709" lon="5.83076">
        <ele>800.021717</ele>
        <time>2026-08-29T08:20:40.000Z</time>
      </trkpt>
      <trkpt lat="45.03711" lon="5.83079">
        <ele>800.226063</ele>
        <time>2026-08-29T08:20:41.000Z</time>
      </trkpt>
      <trkpt lat="45.03713" lon="5.83081">
        <ele>800.422997</ele>
        <time>2026-08-29T08:20:42.000Z</time>
      </trkpt>
      <trkpt lat="45.03715" lon="5.83083">
        <ele>800.616377</ele>
        <time>2026-08-29T08:20:43.000Z</time>
      </trkpt>
      <trkpt lat="45.03717" lon="5.83085">
        <ele>800.780891</ele>
        <time>2026-08-29T08:20:44.000Z</time>
      </trkpt>
      <trkpt lat="45.03719" lon="5.83087">
        <ele>800.968224</ele>
        <time>2026-08-29T08:20:45.000Z</time>
      </trkpt>
      <trkpt lat="45.03721" lon="5.83089">
        <ele>801.154737</ele>
        <time>2026-08-29T08:20:46.000Z</time>
      </trkpt>
      <trkpt lat="45.03723" lon="5.83091">
        <ele>801.357271</ele>
        <time>2026-08-29T08:20:47.000Z</time>
      </trkpt>
      <trkpt lat="45.03725" lon="5.83094">
        <ele>801.561617</ele>
        <time>2026-08-29T08:20:48.000Z</time>
      </trkpt>
      <trkpt lat="45.03726" lon="5.83096">
        <ele>801.729763</ele>
        <time>2026-08-29T08:20:49.000Z</time>
      </trkpt>
      <trkpt lat="45.03728" lon="5.83097">
        <ele>801.890755</ele>
        <time>2026-08-29T08:20:50.000Z</time>
      </trkpt>
      <trkpt lat="45.03729" lon="5.83099">
        <ele>802.058901</ele>
        <time>2026-08-29T08:20:51.000Z</time>
      </trkpt>
      <trkpt lat="45.03731" lon="5.83102">
        <ele>802.272809</ele>
        <time>2026-08-29T08:20:52.000Z</time>
      </trkpt>
      <trkpt lat="45.03733" lon="5.83105">
        <ele>802.474085</ele>
        <time>2026-08-29T08:20:53.000Z</time>
      </trkpt>
      <trkpt lat="45.03735" lon="5.83107">
        <ele>802.667448</ele>
        <time>2026-08-29T08:20:54.000Z</time>
      </trkpt>
      <trkpt lat="45.03737" lon="5.8311">
        <ele>802.874047</ele>
        <time>2026-08-29T08:20:55.000Z</time>
      </trkpt>
      <trkpt lat="45.03739" lon="5.83112">
        <ele>803.083203</ele>
        <time>2026-08-29T08:20:56.000Z</time>
      </trkpt>
      <trkpt lat="45.03741" lon="5.83114">
        <ele>803.272339</ele>
        <time>2026-08-29T08:20:57.000Z</time>
      </trkpt>
      <trkpt lat="45.03743" lon="5.83116">
        <ele>803.465718</ele>
        <time>2026-08-29T08:20:58.000Z</time>
      </trkpt>
      <trkpt lat="45.03744" lon="5.83118">
        <ele>803.626407</ele>
        <time>2026-08-29T08:20:59.000Z</time>
      </trkpt>
      <trkpt lat="45.03746" lon="5.8312">
        <ele>803.828941</ele>
        <time>2026-08-29T08:21:00.000Z</time>
      </trkpt>
      <trkpt lat="45.03748" lon="5.83122">
        <ele>803.999563</ele>
        <time>2026-08-29T08:21:01.000Z</time>
      </trkpt>
      <trkpt lat="45.03749" lon="5.83124">
        <ele>804.132015</ele>
        <time>2026-08-29T08:21:02.000Z</time>
      </trkpt>
      <trkpt lat="45.0375" lon="5.83126">
        <ele>804.260309</ele>
        <time>2026-08-29T08:21:03.000Z</time>
      </trkpt>
      <trkpt lat="45.03751" lon="5.83127">
        <ele>804.369831</ele>
        <time>2026-08-29T08:21:04.000Z</time>
      </trkpt>
      <trkpt lat="45.03753" lon="5.83129">
        <ele>804.555111</ele>
        <time>2026-08-29T08:21:05.000Z</time>
      </trkpt>
      <trkpt lat="45.03755" lon="5.8313">
        <ele>804.736068</ele>
        <time>2026-08-29T08:21:06.000Z</time>
      </trkpt>
      <trkpt lat="45.03757" lon="5.83132">
        <ele>804.932388</ele>
        <time>2026-08-29T08:21:07.000Z</time>
      </trkpt>
      <trkpt lat="45.03759" lon="5.83134">
        <ele>805.109443</ele>
        <time>2026-08-29T08:21:08.000Z</time>
      </trkpt>
      <trkpt lat="45.03761" lon="5.83135">
        <ele>805.267237</ele>
        <time>2026-08-29T08:21:09.000Z</time>
      </trkpt>
      <trkpt lat="45.03763" lon="5.83136">
        <ele>805.452536</ele>
        <time>2026-08-29T08:21:10.000Z</time>
      </trkpt>
      <trkpt lat="45.03765" lon="5.83137">
        <ele>805.598191</ele>
        <time>2026-08-29T08:21:11.000Z</time>
      </trkpt>
      <trkpt lat="45.03767" lon="5.83137">
        <ele>805.761891</ele>
        <time>2026-08-29T08:21:12.000Z</time>
      </trkpt>
      <trkpt lat="45.03769" lon="5.83138">
        <ele>805.940801</ele>
        <time>2026-08-29T08:21:13.000Z</time>
      </trkpt>
      <trkpt lat="45.03771" lon="5.83139">
        <ele>806.112094</ele>
        <time>2026-08-29T08:21:14.000Z</time>
      </trkpt>
      <trkpt lat="45.03774" lon="5.83141">
        <ele>806.33829</ele>
        <time>2026-08-29T08:21:15.000Z</time>
      </trkpt>
      <trkpt lat="45.03776" lon="5.83143">
        <ele>806.531669</ele>
        <time>2026-08-29T08:21:16.000Z</time>
      </trkpt>
      <trkpt lat="45.03778" lon="5.83145">
        <ele>806.719001</ele>
        <time>2026-08-29T08:21:17.000Z</time>
      </trkpt>
      <trkpt lat="45.0378" lon="5.83149">
        <ele>807.015325</ele>
        <time>2026-08-29T08:21:18.000Z</time>
      </trkpt>
      <trkpt lat="45.03783" lon="5.83152">
        <ele>807.276073</ele>
        <time>2026-08-29T08:21:19.000Z</time>
      </trkpt>
      <trkpt lat="45.03785" lon="5.83154">
        <ele>807.492676</ele>
        <time>2026-08-29T08:21:20.000Z</time>
      </trkpt>
      <trkpt lat="45.03787" lon="5.83156">
        <ele>807.686055</ele>
        <time>2026-08-29T08:21:21.000Z</time>
      </trkpt>
      <trkpt lat="45.03789" lon="5.83158">
        <ele>807.866308</ele>
        <time>2026-08-29T08:21:22.000Z</time>
      </trkpt>
      <trkpt lat="45.03791" lon="5.8316">
        <ele>808.072907</ele>
        <time>2026-08-29T08:21:23.000Z</time>
      </trkpt>
      <trkpt lat="45.03792" lon="5.83163">
        <ele>808.227589</ele>
        <time>2026-08-29T08:21:24.000Z</time>
      </trkpt>
      <trkpt lat="45.03794" lon="5.83165">
        <ele>808.443027</ele>
        <time>2026-08-29T08:21:25.000Z</time>
      </trkpt>
      <trkpt lat="45.03796" lon="5.83167">
        <ele>808.632162</ele>
        <time>2026-08-29T08:21:26.000Z</time>
      </trkpt>
      <trkpt lat="45.03798" lon="5.8317">
        <ele>808.823178</ele>
        <time>2026-08-29T08:21:27.000Z</time>
      </trkpt>
      <trkpt lat="45.038" lon="5.83172">
        <ele>809.033359</ele>
        <time>2026-08-29T08:21:28.000Z</time>
      </trkpt>
      <trkpt lat="45.03801" lon="5.83175">
        <ele>809.225251</ele>
        <time>2026-08-29T08:21:29.000Z</time>
      </trkpt>
      <trkpt lat="45.03803" lon="5.83177">
        <ele>809.420042</ele>
        <time>2026-08-29T08:21:30.000Z</time>
      </trkpt>
      <trkpt lat="45.03804" lon="5.8318">
        <ele>809.5928</ele>
        <time>2026-08-29T08:21:31.000Z</time>
      </trkpt>
      <trkpt lat="45.03805" lon="5.83183">
        <ele>809.771266</ele>
        <time>2026-08-29T08:21:32.000Z</time>
      </trkpt>
      <trkpt lat="45.03807" lon="5.83185">
        <ele>809.962424</ele>
        <time>2026-08-29T08:21:33.000Z</time>
      </trkpt>
      <trkpt lat="45.03808" lon="5.83188">
        <ele>810.157901</ele>
        <time>2026-08-29T08:21:34.000Z</time>
      </trkpt>
      <trkpt lat="45.0381" lon="5.83191">
        <ele>810.354024</ele>
        <time>2026-08-29T08:21:35.000Z</time>
      </trkpt>
      <trkpt lat="45.03811" lon="5.83194">
        <ele>810.535868</ele>
        <time>2026-08-29T08:21:36.000Z</time>
      </trkpt>
      <trkpt lat="45.03812" lon="5.83196">
        <ele>810.72226</ele>
        <time>2026-08-29T08:21:37.000Z</time>
      </trkpt>
      <trkpt lat="45.03814" lon="5.83199">
        <ele>810.918127</ele>
        <time>2026-08-29T08:21:38.000Z</time>
      </trkpt>
      <trkpt lat="45.03815" lon="5.83202">
        <ele>811.134188</ele>
        <time>2026-08-29T08:21:39.000Z</time>
      </trkpt>
      <trkpt lat="45.03817" lon="5.83205">
        <ele>811.344368</ele>
        <time>2026-08-29T08:21:40.000Z</time>
      </trkpt>
      <trkpt lat="45.03819" lon="5.83208">
        <ele>811.554085</ele>
        <time>2026-08-29T08:21:41.000Z</time>
      </trkpt>
      <trkpt lat="45.03821" lon="5.8321">
        <ele>811.767991</ele>
        <time>2026-08-29T08:21:42.000Z</time>
      </trkpt>
      <trkpt lat="45.03823" lon="5.83212">
        <ele>811.953236</ele>
        <time>2026-08-29T08:21:43.000Z</time>
      </trkpt>
      <trkpt lat="45.03825" lon="5.83215">
        <ele>812.138482</ele>
        <time>2026-08-29T08:21:44.000Z</time>
      </trkpt>
      <trkpt lat="45.03825" lon="5.83217">
        <ele>812.291228</ele>
        <time>2026-08-29T08:21:45.000Z</time>
      </trkpt>
      <trkpt lat="45.03827" lon="5.8322">
        <ele>812.473162</ele>
        <time>2026-08-29T08:21:46.000Z</time>
      </trkpt>
      <trkpt lat="45.03828" lon="5.83223">
        <ele>812.677705</ele>
        <time>2026-08-29T08:21:47.000Z</time>
      </trkpt>
      <trkpt lat="45.0383" lon="5.83226">
        <ele>812.868862</ele>
        <time>2026-08-29T08:21:48.000Z</time>
      </trkpt>
      <trkpt lat="45.03831" lon="5.83228">
        <ele>813.060007</ele>
        <time>2026-08-29T08:21:49.000Z</time>
      </trkpt>
      <trkpt lat="45.03832" lon="5.83231">
        <ele>813.255484</ele>
        <time>2026-08-29T08:21:50.000Z</time>
      </trkpt>
      <trkpt lat="45.03834" lon="5.83234">
        <ele>813.475592</ele>
        <time>2026-08-29T08:21:51.000Z</time>
      </trkpt>
      <trkpt lat="45.03837" lon="5.83236">
        <ele>813.691182</ele>
        <time>2026-08-29T08:21:52.000Z</time>
      </trkpt>
      <trkpt lat="45.03838" lon="5.83238">
        <ele>813.874924</ele>
        <time>2026-08-29T08:21:53.000Z</time>
      </trkpt>
      <trkpt lat="45.0384" lon="5.83241">
        <ele>814.065199</ele>
        <time>2026-08-29T08:21:54.000Z</time>
      </trkpt>
      <trkpt lat="45.03842" lon="5.83244">
        <ele>814.250775</ele>
        <time>2026-08-29T08:21:55.000Z</time>
      </trkpt>
      <trkpt lat="45.03844" lon="5.83246">
        <ele>814.47702</ele>
        <time>2026-08-29T08:21:56.000Z</time>
      </trkpt>
      <trkpt lat="45.03846" lon="5.83249">
        <ele>814.690375</ele>
        <time>2026-08-29T08:21:57.000Z</time>
      </trkpt>
      <trkpt lat="45.03848" lon="5.83252">
        <ele>814.887045</ele>
        <time>2026-08-29T08:21:58.000Z</time>
      </trkpt>
      <trkpt lat="45.0385" lon="5.83254">
        <ele>815.085422</ele>
        <time>2026-08-29T08:21:59.000Z</time>
      </trkpt>
      <trkpt lat="45.03851" lon="5.83256">
        <ele>815.246761</ele>
        <time>2026-08-29T08:22:00.000Z</time>
      </trkpt>
      <trkpt lat="45.03853" lon="5.83259">
        <ele>815.448856</ele>
        <time>2026-08-29T08:22:01.000Z</time>
      </trkpt>
      <trkpt lat="45.03855" lon="5.83261">
        <ele>815.679969</ele>
        <time>2026-08-29T08:22:02.000Z</time>
      </trkpt>
      <trkpt lat="45.03857" lon="5.83264">
        <ele>815.858346</ele>
        <time>2026-08-29T08:22:03.000Z</time>
      </trkpt>
      <trkpt lat="45.0386" lon="5.83266">
        <ele>816.10552</ele>
        <time>2026-08-29T08:22:04.000Z</time>
      </trkpt>
      <trkpt lat="45.03861" lon="5.83269">
        <ele>816.308603</ele>
        <time>2026-08-29T08:22:05.000Z</time>
      </trkpt>
      <trkpt lat="45.03863" lon="5.83272">
        <ele>816.499786</ele>
        <time>2026-08-29T08:22:06.000Z</time>
      </trkpt>
      <trkpt lat="45.03865" lon="5.83274">
        <ele>816.700293</ele>
        <time>2026-08-29T08:22:07.000Z</time>
      </trkpt>
      <trkpt lat="45.03867" lon="5.83277">
        <ele>816.876915</ele>
        <time>2026-08-29T08:22:08.000Z</time>
      </trkpt>
      <trkpt lat="45.03868" lon="5.8328">
        <ele>817.053855</ele>
        <time>2026-08-29T08:22:09.000Z</time>
      </trkpt>
      <trkpt lat="45.0387" lon="5.83282">
        <ele>817.242957</ele>
        <time>2026-08-29T08:22:10.000Z</time>
      </trkpt>
      <trkpt lat="45.03871" lon="5.83285">
        <ele>817.432809</ele>
        <time>2026-08-29T08:22:11.000Z</time>
      </trkpt>
      <trkpt lat="45.03873" lon="5.83287">
        <ele>817.625657</ele>
        <time>2026-08-29T08:22:12.000Z</time>
      </trkpt>
      <trkpt lat="45.03875" lon="5.83289">
        <ele>817.785366</ele>
        <time>2026-08-29T08:22:13.000Z</time>
      </trkpt>
      <trkpt lat="45.03876" lon="5.83292">
        <ele>817.953159</ele>
        <time>2026-08-29T08:22:14.000Z</time>
      </trkpt>
      <trkpt lat="45.03877" lon="5.83294">
        <ele>818.134108</ele>
        <time>2026-08-29T08:22:15.000Z</time>
      </trkpt>
      <trkpt lat="45.03879" lon="5.83297">
        <ele>818.310729</ele>
        <time>2026-08-29T08:22:16.000Z</time>
      </trkpt>
      <trkpt lat="45.0388" lon="5.83299">
        <ele>818.492591</ele>
        <time>2026-08-29T08:22:17.000Z</time>
      </trkpt>
      <trkpt lat="45.03882" lon="5.83301">
        <ele>818.63942</ele>
        <time>2026-08-29T08:22:18.000Z</time>
      </trkpt>
      <trkpt lat="45.03883" lon="5.83304">
        <ele>818.824859</ele>
        <time>2026-08-29T08:22:19.000Z</time>
      </trkpt>
      <trkpt lat="45.03885" lon="5.83306">
        <ele>819.0092</ele>
        <time>2026-08-29T08:22:20.000Z</time>
      </trkpt>
      <trkpt lat="45.03887" lon="5.83308">
        <ele>819.182321</ele>
        <time>2026-08-29T08:22:21.000Z</time>
      </trkpt>
      <trkpt lat="45.03887" lon="5.83311">
        <ele>819.336671</ele>
        <time>2026-08-29T08:22:22.000Z</time>
      </trkpt>
      <trkpt lat="45.03888" lon="5.83313">
        <ele>819.461538</ele>
        <time>2026-08-29T08:22:23.000Z</time>
      </trkpt>
      <trkpt lat="45.03889" lon="5.83316">
        <ele>819.656935</ele>
        <time>2026-08-29T08:22:24.000Z</time>
      </trkpt>
      <trkpt lat="45.03891" lon="5.83318">
        <ele>819.857442</ele>
        <time>2026-08-29T08:22:25.000Z</time>
      </trkpt>
      <trkpt lat="45.03893" lon="5.8332">
        <ele>820.054497</ele>
        <time>2026-08-29T08:22:26.000Z</time>
      </trkpt>
      <trkpt lat="45.03895" lon="5.83323">
        <ele>820.25854</ele>
        <time>2026-08-29T08:22:27.000Z</time>
      </trkpt>
      <trkpt lat="45.03898" lon="5.83325">
        <ele>820.467686</ele>
        <time>2026-08-29T08:22:28.000Z</time>
      </trkpt>
      <trkpt lat="45.03899" lon="5.83328">
        <ele>820.659082</ele>
        <time>2026-08-29T08:22:29.000Z</time>
      </trkpt>
      <trkpt lat="45.03901" lon="5.8333">
        <ele>820.863125</ele>
        <time>2026-08-29T08:22:30.000Z</time>
      </trkpt>
      <trkpt lat="45.03904" lon="5.83333">
        <ele>821.120005</ele>
        <time>2026-08-29T08:22:31.000Z</time>
      </trkpt>
      <trkpt lat="45.03907" lon="5.83335">
        <ele>821.338654</ele>
        <time>2026-08-29T08:22:32.000Z</time>
      </trkpt>
      <trkpt lat="45.03909" lon="5.83337">
        <ele>821.550927</ele>
        <time>2026-08-29T08:22:33.000Z</time>
      </trkpt>
      <trkpt lat="45.03911" lon="5.8334">
        <ele>821.756813</ele>
        <time>2026-08-29T08:22:34.000Z</time>
      </trkpt>
      <trkpt lat="45.03912" lon="5.83342">
        <ele>821.925925</ele>
        <time>2026-08-29T08:22:35.000Z</time>
      </trkpt>
      <trkpt lat="45.03914" lon="5.83344">
        <ele>822.103426</ele>
        <time>2026-08-29T08:22:36.000Z</time>
      </trkpt>
      <trkpt lat="45.03916" lon="5.83346">
        <ele>822.281802</ele>
        <time>2026-08-29T08:22:37.000Z</time>
      </trkpt>
      <trkpt lat="45.03918" lon="5.83348">
        <ele>822.490948</ele>
        <time>2026-08-29T08:22:38.000Z</time>
      </trkpt>
      <trkpt lat="45.03921" lon="5.8335">
        <ele>822.70669</ele>
        <time>2026-08-29T08:22:39.000Z</time>
      </trkpt>
      <trkpt lat="45.03922" lon="5.83352">
        <ele>822.822105</ele>
        <time>2026-08-29T08:22:40.000Z</time>
      </trkpt>
      <trkpt lat="45.03923" lon="5.83354">
        <ele>822.987743</ele>
        <time>2026-08-29T08:22:41.000Z</time>
      </trkpt>
      <trkpt lat="45.03925" lon="5.83356">
        <ele>823.150977</ele>
        <time>2026-08-29T08:22:42.000Z</time>
      </trkpt>
      <trkpt lat="45.03926" lon="5.83358">
        <ele>823.305542</ele>
        <time>2026-08-29T08:22:43.000Z</time>
      </trkpt>
      <trkpt lat="45.03927" lon="5.83361">
        <ele>823.473254</ele>
        <time>2026-08-29T08:22:44.000Z</time>
      </trkpt>
      <trkpt lat="45.0393" lon="5.83363">
        <ele>823.688996</ele>
        <time>2026-08-29T08:22:45.000Z</time>
      </trkpt>
      <trkpt lat="45.03931" lon="5.83366">
        <ele>823.88956</ele>
        <time>2026-08-29T08:22:46.000Z</time>
      </trkpt>
      <trkpt lat="45.03933" lon="5.83368">
        <ele>824.058672</ele>
        <time>2026-08-29T08:22:47.000Z</time>
      </trkpt>
      <trkpt lat="45.03935" lon="5.83371">
        <ele>824.261718</ele>
        <time>2026-08-29T08:22:48.000Z</time>
      </trkpt>
      <trkpt lat="45.03937" lon="5.83373">
        <ele>824.462225</ele>
        <time>2026-08-29T08:22:49.000Z</time>
      </trkpt>
      <trkpt lat="45.03939" lon="5.83375">
        <ele>824.625458</ele>
        <time>2026-08-29T08:22:50.000Z</time>
      </trkpt>
      <trkpt lat="45.0394" lon="5.83377">
        <ele>824.764526</ele>
        <time>2026-08-29T08:22:51.000Z</time>
      </trkpt>
      <trkpt lat="45.03941" lon="5.83379">
        <ele>824.894358</ele>
        <time>2026-08-29T08:22:52.000Z</time>
      </trkpt>
      <trkpt lat="45.03943" lon="5.83381">
        <ele>825.05954</ele>
        <time>2026-08-29T08:22:53.000Z</time>
      </trkpt>
      <trkpt lat="45.03944" lon="5.83383">
        <ele>825.232085</ele>
        <time>2026-08-29T08:22:54.000Z</time>
      </trkpt>
      <trkpt lat="45.03946" lon="5.83385">
        <ele>825.396107</ele>
        <time>2026-08-29T08:22:55.000Z</time>
      </trkpt>
      <trkpt lat="45.03948" lon="5.83387">
        <ele>825.586531</ele>
        <time>2026-08-29T08:22:56.000Z</time>
      </trkpt>
      <trkpt lat="45.0395" lon="5.83389">
        <ele>825.780175</ele>
        <time>2026-08-29T08:22:57.000Z</time>
      </trkpt>
      <trkpt lat="45.03952" lon="5.83392">
        <ele>825.983766</ele>
        <time>2026-08-29T08:22:58.000Z</time>
      </trkpt>
      <trkpt lat="45.03954" lon="5.83395">
        <ele>826.208123</ele>
        <time>2026-08-29T08:22:59.000Z</time>
      </trkpt>
      <trkpt lat="45.03956" lon="5.83397">
        <ele>826.446352</ele>
        <time>2026-08-29T08:23:00.000Z</time>
      </trkpt>
      <trkpt lat="45.03958" lon="5.83399">
        <ele>826.646858</ele>
        <time>2026-08-29T08:23:01.000Z</time>
      </trkpt>
      <trkpt lat="45.03961" lon="5.83401">
        <ele>826.888994</ele>
        <time>2026-08-29T08:23:02.000Z</time>
      </trkpt>
      <trkpt lat="45.03963" lon="5.83403">
        <ele>827.079419</ele>
        <time>2026-08-29T08:23:03.000Z</time>
      </trkpt>
      <trkpt lat="45.03966" lon="5.83405">
        <ele>827.307423</ele>
        <time>2026-08-29T08:23:04.000Z</time>
      </trkpt>
      <trkpt lat="45.03968" lon="5.83408">
        <ele>827.552273</ele>
        <time>2026-08-29T08:23:05.000Z</time>
      </trkpt>
      <trkpt lat="45.0397" lon="5.83411">
        <ele>827.750967</ele>
        <time>2026-08-29T08:23:06.000Z</time>
      </trkpt>
      <trkpt lat="45.03973" lon="5.83412">
        <ele>827.95701</ele>
        <time>2026-08-29T08:23:07.000Z</time>
      </trkpt>
      <trkpt lat="45.03975" lon="5.83414">
        <ele>828.142948</ele>
        <time>2026-08-29T08:23:08.000Z</time>
      </trkpt>
      <trkpt lat="45.03977" lon="5.83417">
        <ele>828.350205</ele>
        <time>2026-08-29T08:23:09.000Z</time>
      </trkpt>
      <trkpt lat="45.03979" lon="5.8342">
        <ele>828.560543</ele>
        <time>2026-08-29T08:23:10.000Z</time>
      </trkpt>
      <trkpt lat="45.03981" lon="5.83423">
        <ele>828.764825</ele>
        <time>2026-08-29T08:23:11.000Z</time>
      </trkpt>
      <trkpt lat="45.03983" lon="5.83425">
        <ele>828.941915</ele>
        <time>2026-08-29T08:23:12.000Z</time>
      </trkpt>
      <trkpt lat="45.03985" lon="5.83427">
        <ele>829.119005</ele>
        <time>2026-08-29T08:23:13.000Z</time>
      </trkpt>
      <trkpt lat="45.03986" lon="5.8343">
        <ele>829.31861</ele>
        <time>2026-08-29T08:23:14.000Z</time>
      </trkpt>
      <trkpt lat="45.03989" lon="5.83432">
        <ele>829.537516</ele>
        <time>2026-08-29T08:23:15.000Z</time>
      </trkpt>
      <trkpt lat="45.03991" lon="5.83435">
        <ele>829.753049</ele>
        <time>2026-08-29T08:23:16.000Z</time>
      </trkpt>
      <trkpt lat="45.03992" lon="5.83439">
        <ele>829.952372</ele>
        <time>2026-08-29T08:23:17.000Z</time>
      </trkpt>
      <trkpt lat="45.03994" lon="5.83442">
        <ele>830.135842</ele>
        <time>2026-08-29T08:23:18.000Z</time>
      </trkpt>
      <trkpt lat="45.03994" lon="5.83444">
        <ele>830.265815</ele>
        <time>2026-08-29T08:23:19.000Z</time>
      </trkpt>
      <trkpt lat="45.03995" lon="5.83446">
        <ele>830.410731</ele>
        <time>2026-08-29T08:23:20.000Z</time>
      </trkpt>
      <trkpt lat="45.03995" lon="5.83449">
        <ele>830.547776</ele>
        <time>2026-08-29T08:23:21.000Z</time>
      </trkpt>
      <trkpt lat="45.03997" lon="5.83451">
        <ele>830.700653</ele>
        <time>2026-08-29T08:23:22.000Z</time>
      </trkpt>
      <trkpt lat="45.03998" lon="5.83454">
        <ele>830.860319</ele>
        <time>2026-08-29T08:23:23.000Z</time>
      </trkpt>
      <trkpt lat="45.03999" lon="5.83456">
        <ele>831.008719</ele>
        <time>2026-08-29T08:23:24.000Z</time>
      </trkpt>
      <trkpt lat="45.04" lon="5.83459">
        <ele>831.169912</ele>
        <time>2026-08-29T08:23:25.000Z</time>
      </trkpt>
      <trkpt lat="45.04001" lon="5.83461">
        <ele>831.331104</ele>
        <time>2026-08-29T08:23:26.000Z</time>
      </trkpt>
      <trkpt lat="45.04003" lon="5.83464">
        <ele>831.530365</ele>
        <time>2026-08-29T08:23:27.000Z</time>
      </trkpt>
      <trkpt lat="45.04004" lon="5.83468">
        <ele>831.729626</ele>
        <time>2026-08-29T08:23:28.000Z</time>
      </trkpt>
      <trkpt lat="45.04006" lon="5.83471">
        <ele>831.912292</ele>
        <time>2026-08-29T08:23:29.000Z</time>
      </trkpt>
      <trkpt lat="45.04008" lon="5.83473">
        <ele>832.120707</ele>
        <time>2026-08-29T08:23:30.000Z</time>
      </trkpt>
      <trkpt lat="45.04009" lon="5.83476">
        <ele>832.299667</ele>
        <time>2026-08-29T08:23:31.000Z</time>
      </trkpt>
      <trkpt lat="45.04012" lon="5.83479">
        <ele>832.511607</ele>
        <time>2026-08-29T08:23:32.000Z</time>
      </trkpt>
      <trkpt lat="45.04013" lon="5.83482">
        <ele>832.716881</ele>
        <time>2026-08-29T08:23:33.000Z</time>
      </trkpt>
      <trkpt lat="45.04016" lon="5.83484">
        <ele>832.941744</ele>
        <time>2026-08-29T08:23:34.000Z</time>
      </trkpt>
      <trkpt lat="45.04019" lon="5.83486">
        <ele>833.194205</ele>
        <time>2026-08-29T08:23:35.000Z</time>
      </trkpt>
      <trkpt lat="45.04021" lon="5.83488">
        <ele>833.389135</ele>
        <time>2026-08-29T08:23:36.000Z</time>
      </trkpt>
      <trkpt lat="45.04024" lon="5.8349">
        <ele>833.592877</ele>
        <time>2026-08-29T08:23:37.000Z</time>
      </trkpt>
      <trkpt lat="45.04027" lon="5.83491">
        <ele>833.847482</ele>
        <time>2026-08-29T08:23:38.000Z</time>
      </trkpt>
      <trkpt lat="45.0403" lon="5.83493">
        <ele>834.066721</ele>
        <time>2026-08-29T08:23:39.000Z</time>
      </trkpt>
      <trkpt lat="45.04032" lon="5.83495">
        <ele>834.241428</ele>
        <time>2026-08-29T08:23:40.000Z</time>
      </trkpt>
      <trkpt lat="45.04033" lon="5.83498">
        <ele>834.42509</ele>
        <time>2026-08-29T08:23:41.000Z</time>
      </trkpt>
      <trkpt lat="45.04036" lon="5.835">
        <ele>834.629681</ele>
        <time>2026-08-29T08:23:42.000Z</time>
      </trkpt>
      <trkpt lat="45.04038" lon="5.83502">
        <ele>834.821607</ele>
        <time>2026-08-29T08:23:43.000Z</time>
      </trkpt>
      <trkpt lat="45.04041" lon="5.83504">
        <ele>835.079577</ele>
        <time>2026-08-29T08:23:44.000Z</time>
      </trkpt>
      <trkpt lat="45.04043" lon="5.83506">
        <ele>835.247105</ele>
        <time>2026-08-29T08:23:45.000Z</time>
      </trkpt>
      <trkpt lat="45.04045" lon="5.83509">
        <ele>835.448603</ele>
        <time>2026-08-29T08:23:46.000Z</time>
      </trkpt>
      <trkpt lat="45.04046" lon="5.83511">
        <ele>835.598461</ele>
        <time>2026-08-29T08:23:47.000Z</time>
      </trkpt>
      <trkpt lat="45.04047" lon="5.83514">
        <ele>835.762028</ele>
        <time>2026-08-29T08:23:48.000Z</time>
      </trkpt>
      <trkpt lat="45.04048" lon="5.83516">
        <ele>835.901917</ele>
        <time>2026-08-29T08:23:49.000Z</time>
      </trkpt>
      <trkpt lat="45.04049" lon="5.83519">
        <ele>836.093533</ele>
        <time>2026-08-29T08:23:50.000Z</time>
      </trkpt>
      <trkpt lat="45.04051" lon="5.83521">
        <ele>836.273863</ele>
        <time>2026-08-29T08:23:51.000Z</time>
      </trkpt>
      <trkpt lat="45.04053" lon="5.83523">
        <ele>836.42674</ele>
        <time>2026-08-29T08:23:52.000Z</time>
      </trkpt>
      <trkpt lat="45.04055" lon="5.83525">
        <ele>836.61606</ele>
        <time>2026-08-29T08:23:53.000Z</time>
      </trkpt>
      <trkpt lat="45.04057" lon="5.83528">
        <ele>836.828975</ele>
        <time>2026-08-29T08:23:54.000Z</time>
      </trkpt>
      <trkpt lat="45.04059" lon="5.8353">
        <ele>837.012636</ele>
        <time>2026-08-29T08:23:55.000Z</time>
      </trkpt>
      <trkpt lat="45.04059" lon="5.83532">
        <ele>837.122623</ele>
        <time>2026-08-29T08:23:56.000Z</time>
      </trkpt>
      <trkpt lat="45.04062" lon="5.83534">
        <ele>837.361916</ele>
        <time>2026-08-29T08:23:57.000Z</time>
      </trkpt>
      <trkpt lat="45.04065" lon="5.83536">
        <ele>837.587146</ele>
        <time>2026-08-29T08:23:58.000Z</time>
      </trkpt>
      <trkpt lat="45.04066" lon="5.83539">
        <ele>837.778121</ele>
        <time>2026-08-29T08:23:59.000Z</time>
      </trkpt>
      <trkpt lat="45.04069" lon="5.83542">
        <ele>838.019822</ele>
        <time>2026-08-29T08:24:00.000Z</time>
      </trkpt>
      <trkpt lat="45.04072" lon="5.83543">
        <ele>838.221828</ele>
        <time>2026-08-29T08:24:01.000Z</time>
      </trkpt>
      <trkpt lat="45.04073" lon="5.83545">
        <ele>838.386779</ele>
        <time>2026-08-29T08:24:02.000Z</time>
      </trkpt>
      <trkpt lat="45.04076" lon="5.83547">
        <ele>838.590521</ele>
        <time>2026-08-29T08:24:03.000Z</time>
      </trkpt>
      <trkpt lat="45.04077" lon="5.83549">
        <ele>838.726298</ele>
        <time>2026-08-29T08:24:04.000Z</time>
      </trkpt>
      <trkpt lat="45.04078" lon="5.83552">
        <ele>838.87541</ele>
        <time>2026-08-29T08:24:05.000Z</time>
      </trkpt>
      <trkpt lat="45.04079" lon="5.83553">
        <ele>838.990223</ele>
        <time>2026-08-29T08:24:06.000Z</time>
      </trkpt>
      <trkpt lat="45.04082" lon="5.83555">
        <ele>839.222836</ele>
        <time>2026-08-29T08:24:07.000Z</time>
      </trkpt>
      <trkpt lat="45.04083" lon="5.83557">
        <ele>839.37651</ele>
        <time>2026-08-29T08:24:08.000Z</time>
      </trkpt>
      <trkpt lat="45.04086" lon="5.8356">
        <ele>839.62471</ele>
        <time>2026-08-29T08:24:09.000Z</time>
      </trkpt>
      <trkpt lat="45.04088" lon="5.83561">
        <ele>839.805057</ele>
        <time>2026-08-29T08:24:10.000Z</time>
      </trkpt>
      <trkpt lat="45.04091" lon="5.83564">
        <ele>840.027916</ele>
        <time>2026-08-29T08:24:11.000Z</time>
      </trkpt>
      <trkpt lat="45.04093" lon="5.83567">
        <ele>840.214993</ele>
        <time>2026-08-29T08:24:12.000Z</time>
      </trkpt>
      <trkpt lat="45.04094" lon="5.83569">
        <ele>840.397896</ele>
        <time>2026-08-29T08:24:13.000Z</time>
      </trkpt>
      <trkpt lat="45.04096" lon="5.83572">
        <ele>840.583156</ele>
        <time>2026-08-29T08:24:14.000Z</time>
      </trkpt>
      <trkpt lat="45.04098" lon="5.83574">
        <ele>840.785162</ele>
        <time>2026-08-29T08:24:15.000Z</time>
      </trkpt>
      <trkpt lat="45.04102" lon="5.83576">
        <ele>841.078785</ele>
        <time>2026-08-29T08:24:16.000Z</time>
      </trkpt>
      <trkpt lat="45.04104" lon="5.83578">
        <ele>841.301122</ele>
        <time>2026-08-29T08:24:17.000Z</time>
      </trkpt>
      <trkpt lat="45.04105" lon="5.83581">
        <ele>841.487182</ele>
        <time>2026-08-29T08:24:18.000Z</time>
      </trkpt>
      <trkpt lat="45.04107" lon="5.83583">
        <ele>841.733686</ele>
        <time>2026-08-29T08:24:19.000Z</time>
      </trkpt>
      <trkpt lat="45.0411" lon="5.83585">
        <ele>842.004032</ele>
        <time>2026-08-29T08:24:20.000Z</time>
      </trkpt>
      <trkpt lat="45.04112" lon="5.83588">
        <ele>842.236712</ele>
        <time>2026-08-29T08:24:21.000Z</time>
      </trkpt>
      <trkpt lat="45.04114" lon="5.8359">
        <ele>842.459049</ele>
        <time>2026-08-29T08:24:22.000Z</time>
      </trkpt>
      <trkpt lat="45.04116" lon="5.83593">
        <ele>842.665618</ele>
        <time>2026-08-29T08:24:23.000Z</time>
      </trkpt>
      <trkpt lat="45.04117" lon="5.83595">
        <ele>842.853141</ele>
        <time>2026-08-29T08:24:24.000Z</time>
      </trkpt>
      <trkpt lat="45.04119" lon="5.83598">
        <ele>843.085822</ele>
        <time>2026-08-29T08:24:25.000Z</time>
      </trkpt>
      <trkpt lat="45.04121" lon="5.83601">
        <ele>843.315823</ele>
        <time>2026-08-29T08:24:26.000Z</time>
      </trkpt>
      <trkpt lat="45.04123" lon="5.83604">
        <ele>843.579553</ele>
        <time>2026-08-29T08:24:27.000Z</time>
      </trkpt>
      <trkpt lat="45.04125" lon="5.83607">
        <ele>843.826664</ele>
        <time>2026-08-29T08:24:28.000Z</time>
      </trkpt>
      <trkpt lat="45.04127" lon="5.8361">
        <ele>844.067058</ele>
        <time>2026-08-29T08:24:29.000Z</time>
      </trkpt>
      <trkpt lat="45.04129" lon="5.83613">
        <ele>844.316826</ele>
        <time>2026-08-29T08:24:30.000Z</time>
      </trkpt>
      <trkpt lat="45.04131" lon="5.83616">
        <ele>844.551928</ele>
        <time>2026-08-29T08:24:31.000Z</time>
      </trkpt>
      <trkpt lat="45.04133" lon="5.83619">
        <ele>844.82744</ele>
        <time>2026-08-29T08:24:32.000Z</time>
      </trkpt>
      <trkpt lat="45.04134" lon="5.83622">
        <ele>845.028236</ele>
        <time>2026-08-29T08:24:33.000Z</time>
      </trkpt>
      <trkpt lat="45.04135" lon="5.83626">
        <ele>845.253731</ele>
        <time>2026-08-29T08:24:34.000Z</time>
      </trkpt>
      <trkpt lat="45.04138" lon="5.83629">
        <ele>845.516966</ele>
        <time>2026-08-29T08:24:35.000Z</time>
      </trkpt>
      <trkpt lat="45.04139" lon="5.83632">
        <ele>845.7157</ele>
        <time>2026-08-29T08:24:36.000Z</time>
      </trkpt>
      <trkpt lat="45.0414" lon="5.83635">
        <ele>845.931676</ele>
        <time>2026-08-29T08:24:37.000Z</time>
      </trkpt>
      <trkpt lat="45.04142" lon="5.83638">
        <ele>846.166778</ele>
        <time>2026-08-29T08:24:38.000Z</time>
      </trkpt>
      <trkpt lat="45.04143" lon="5.83641">
        <ele>846.374611</ele>
        <time>2026-08-29T08:24:39.000Z</time>
      </trkpt>
      <trkpt lat="45.04144" lon="5.83644">
        <ele>846.573345</ele>
        <time>2026-08-29T08:24:40.000Z</time>
      </trkpt>
      <trkpt lat="45.04145" lon="5.83647">
        <ele>846.766677</ele>
        <time>2026-08-29T08:24:41.000Z</time>
      </trkpt>
      <trkpt lat="45.04146" lon="5.8365">
        <ele>846.967406</ele>
        <time>2026-08-29T08:24:42.000Z</time>
      </trkpt>
      <trkpt lat="45.04147" lon="5.83652">
        <ele>847.148967</ele>
        <time>2026-08-29T08:24:43.000Z</time>
      </trkpt>
      <trkpt lat="45.04148" lon="5.83655">
        <ele>847.335027</ele>
        <time>2026-08-29T08:24:44.000Z</time>
      </trkpt>
      <trkpt lat="45.0415" lon="5.83657">
        <ele>847.547023</ele>
        <time>2026-08-29T08:24:45.000Z</time>
      </trkpt>
      <trkpt lat="45.04152" lon="5.8366">
        <ele>847.77729</ele>
        <time>2026-08-29T08:24:46.000Z</time>
      </trkpt>
      <trkpt lat="45.04154" lon="5.83662">
        <ele>847.953752</ele>
        <time>2026-08-29T08:24:47.000Z</time>
      </trkpt>
      <trkpt lat="45.04154" lon="5.83664">
        <ele>848.10199</ele>
        <time>2026-08-29T08:24:48.000Z</time>
      </trkpt>
      <trkpt lat="45.04156" lon="5.83667">
        <ele>848.301404</ele>
        <time>2026-08-29T08:24:49.000Z</time>
      </trkpt>
      <trkpt lat="45.04157" lon="5.83669">
        <ele>848.482477</ele>
        <time>2026-08-29T08:24:50.000Z</time>
      </trkpt>
      <trkpt lat="45.04159" lon="5.83672">
        <ele>848.673305</ele>
        <time>2026-08-29T08:24:51.000Z</time>
      </trkpt>
      <trkpt lat="45.0416" lon="5.83674">
        <ele>848.870993</ele>
        <time>2026-08-29T08:24:52.000Z</time>
      </trkpt>
      <trkpt lat="45.04162" lon="5.83677">
        <ele>849.076499</ele>
        <time>2026-08-29T08:24:53.000Z</time>
      </trkpt>
      <trkpt lat="45.04162" lon="5.8368">
        <ele>849.25536</ele>
        <time>2026-08-29T08:24:54.000Z</time>
      </trkpt>
      <trkpt lat="45.04164" lon="5.83683">
        <ele>849.491155</ele>
        <time>2026-08-29T08:24:55.000Z</time>
      </trkpt>
      <trkpt lat="45.04166" lon="5.83685">
        <ele>849.687651</ele>
        <time>2026-08-29T08:24:56.000Z</time>
      </trkpt>
      <trkpt lat="45.04167" lon="5.83688">
        <ele>849.888997</ele>
        <time>2026-08-29T08:24:57.000Z</time>
      </trkpt>
      <trkpt lat="45.04168" lon="5.83691">
        <ele>850.089792</ele>
        <time>2026-08-29T08:24:58.000Z</time>
      </trkpt>
      <trkpt lat="45.04169" lon="5.83694">
        <ele>850.267146</ele>
        <time>2026-08-29T08:24:59.000Z</time>
      </trkpt>
      <trkpt lat="45.0417" lon="5.83696">
        <ele>850.440607</ele>
        <time>2026-08-29T08:25:00.000Z</time>
      </trkpt>
      <trkpt lat="45.04171" lon="5.83699">
        <ele>850.642694</ele>
        <time>2026-08-29T08:25:01.000Z</time>
      </trkpt>
      <trkpt lat="45.04173" lon="5.83701">
        <ele>850.823766</ele>
        <time>2026-08-29T08:25:02.000Z</time>
      </trkpt>
      <trkpt lat="45.04174" lon="5.83704">
        <ele>850.995157</ele>
        <time>2026-08-29T08:25:03.000Z</time>
      </trkpt>
      <trkpt lat="45.04175" lon="5.83706">
        <ele>851.217556</ele>
        <time>2026-08-29T08:25:04.000Z</time>
      </trkpt>
      <trkpt lat="45.04177" lon="5.83708">
        <ele>851.397786</ele>
        <time>2026-08-29T08:25:05.000Z</time>
      </trkpt>
      <trkpt lat="45.04179" lon="5.8371">
        <ele>851.613255</ele>
        <time>2026-08-29T08:25:06.000Z</time>
      </trkpt>
      <trkpt lat="45.04182" lon="5.83712">
        <ele>851.828724</ele>
        <time>2026-08-29T08:25:07.000Z</time>
      </trkpt>
      <trkpt lat="45.04184" lon="5.83713">
        <ele>852.04883</ele>
        <time>2026-08-29T08:25:08.000Z</time>
      </trkpt>
      <trkpt lat="45.04186" lon="5.83714">
        <ele>852.211561</ele>
        <time>2026-08-29T08:25:09.000Z</time>
      </trkpt>
      <trkpt lat="45.04187" lon="5.83716">
        <ele>852.386301</ele>
        <time>2026-08-29T08:25:10.000Z</time>
      </trkpt>
      <trkpt lat="45.0419" lon="5.83718">
        <ele>852.610138</ele>
        <time>2026-08-29T08:25:11.000Z</time>
      </trkpt>
      <trkpt lat="45.04192" lon="5.83719">
        <ele>852.828865</ele>
        <time>2026-08-29T08:25:12.000Z</time>
      </trkpt>
      <trkpt lat="45.04195" lon="5.83719">
        <ele>853.033769</ele>
        <time>2026-08-29T08:25:13.000Z</time>
      </trkpt>
      <trkpt lat="45.04197" lon="5.83719">
        <ele>853.203773</ele>
        <time>2026-08-29T08:25:14.000Z</time>
      </trkpt>
      <trkpt lat="45.04199" lon="5.83719">
        <ele>853.441866</ele>
        <time>2026-08-29T08:25:15.000Z</time>
      </trkpt>
      <trkpt lat="45.04202" lon="5.8372">
        <ele>853.681162</ele>
        <time>2026-08-29T08:25:16.000Z</time>
      </trkpt>
      <trkpt lat="45.04205" lon="5.83721">
        <ele>853.919394</ele>
        <time>2026-08-29T08:25:17.000Z</time>
      </trkpt>
      <trkpt lat="45.04207" lon="5.83722">
        <ele>854.073293</ele>
        <time>2026-08-29T08:25:18.000Z</time>
      </trkpt>
      <trkpt lat="45.04209" lon="5.83722">
        <ele>854.262223</ele>
        <time>2026-08-29T08:25:19.000Z</time>
      </trkpt>
      <trkpt lat="45.0421" lon="5.83723">
        <ele>854.396145</ele>
        <time>2026-08-29T08:25:20.000Z</time>
      </trkpt>
      <trkpt lat="45.04212" lon="5.83724">
        <ele>854.572369</ele>
        <time>2026-08-29T08:25:21.000Z</time>
      </trkpt>
      <trkpt lat="45.04215" lon="5.83725">
        <ele>854.798202</ele>
        <time>2026-08-29T08:25:22.000Z</time>
      </trkpt>
      <trkpt lat="45.04217" lon="5.83727">
        <ele>855.01991</ele>
        <time>2026-08-29T08:25:23.000Z</time>
      </trkpt>
      <trkpt lat="45.04219" lon="5.83729">
        <ele>855.231067</ele>
        <time>2026-08-29T08:25:24.000Z</time>
      </trkpt>
      <trkpt lat="45.04221" lon="5.83732">
        <ele>855.457323</ele>
        <time>2026-08-29T08:25:25.000Z</time>
      </trkpt>
      <trkpt lat="45.04222" lon="5.83735">
        <ele>855.665154</ele>
        <time>2026-08-29T08:25:26.000Z</time>
      </trkpt>
      <trkpt lat="45.04223" lon="5.83738">
        <ele>855.851211</ele>
        <time>2026-08-29T08:25:27.000Z</time>
      </trkpt>
      <trkpt lat="45.04224" lon="5.8374">
        <ele>856.039176</ele>
        <time>2026-08-29T08:25:28.000Z</time>
      </trkpt>
      <trkpt lat="45.04225" lon="5.83743">
        <ele>856.203937</ele>
        <time>2026-08-29T08:25:29.000Z</time>
      </trkpt>
      <trkpt lat="45.04226" lon="5.83746">
        <ele>856.410658</ele>
        <time>2026-08-29T08:25:30.000Z</time>
      </trkpt>
      <trkpt lat="45.04226" lon="5.83749">
        <ele>856.608094</ele>
        <time>2026-08-29T08:25:31.000Z</time>
      </trkpt>
      <trkpt lat="45.04227" lon="5.83752">
        <ele>856.800833</ele>
        <time>2026-08-29T08:25:32.000Z</time>
      </trkpt>
      <trkpt lat="45.04227" lon="5.83755">
        <ele>856.993572</ele>
        <time>2026-08-29T08:25:33.000Z</time>
      </trkpt>
      <trkpt lat="45.04228" lon="5.83758">
        <ele>857.189692</ele>
        <time>2026-08-29T08:25:34.000Z</time>
      </trkpt>
      <trkpt lat="45.04229" lon="5.83761">
        <ele>857.372267</ele>
        <time>2026-08-29T08:25:35.000Z</time>
      </trkpt>
      <trkpt lat="45.04229" lon="5.83764">
        <ele>857.568855</ele>
        <time>2026-08-29T08:25:36.000Z</time>
      </trkpt>
      <trkpt lat="45.04229" lon="5.83767">
        <ele>857.742067</ele>
        <time>2026-08-29T08:25:37.000Z</time>
      </trkpt>
      <trkpt lat="45.0423" lon="5.83771">
        <ele>857.971002</ele>
        <time>2026-08-29T08:25:38.000Z</time>
      </trkpt>
      <trkpt lat="45.0423" lon="5.83774">
        <ele>858.173495</ele>
        <time>2026-08-29T08:25:39.000Z</time>
      </trkpt>
      <trkpt lat="45.04231" lon="5.83777">
        <ele>858.352452</ele>
        <time>2026-08-29T08:25:40.000Z</time>
      </trkpt>
      <trkpt lat="45.04232" lon="5.8378">
        <ele>858.566459</ele>
        <time>2026-08-29T08:25:41.000Z</time>
      </trkpt>
      <trkpt lat="45.04233" lon="5.83783">
        <ele>858.777308</ele>
        <time>2026-08-29T08:25:42.000Z</time>
      </trkpt>
      <trkpt lat="45.04234" lon="5.83786">
        <ele>858.958965</ele>
        <time>2026-08-29T08:25:43.000Z</time>
      </trkpt>
      <trkpt lat="45.04236" lon="5.83788">
        <ele>859.175627</ele>
        <time>2026-08-29T08:25:44.000Z</time>
      </trkpt>
      <trkpt lat="45.04238" lon="5.83791">
        <ele>859.398696</ele>
        <time>2026-08-29T08:25:45.000Z</time>
      </trkpt>
      <trkpt lat="45.04239" lon="5.83793">
        <ele>859.588546</ele>
        <time>2026-08-29T08:25:46.000Z</time>
      </trkpt>
      <trkpt lat="45.0424" lon="5.83795">
        <ele>859.756445</ele>
        <time>2026-08-29T08:25:47.000Z</time>
      </trkpt>
      <trkpt lat="45.04243" lon="5.83797">
        <ele>859.976412</ele>
        <time>2026-08-29T08:25:48.000Z</time>
      </trkpt>
      <trkpt lat="45.04245" lon="5.83798">
        <ele>860.166919</ele>
        <time>2026-08-29T08:25:49.000Z</time>
      </trkpt>
      <trkpt lat="45.04247" lon="5.83799">
        <ele>860.415461</ele>
        <time>2026-08-29T08:25:50.000Z</time>
      </trkpt>
      <trkpt lat="45.04249" lon="5.838">
        <ele>860.59556</ele>
        <time>2026-08-29T08:25:51.000Z</time>
      </trkpt>
      <trkpt lat="45.04251" lon="5.83802">
        <ele>860.797505</ele>
        <time>2026-08-29T08:25:52.000Z</time>
      </trkpt>
      <trkpt lat="45.04253" lon="5.83803">
        <ele>860.979167</ele>
        <time>2026-08-29T08:25:53.000Z</time>
      </trkpt>
      <trkpt lat="45.04255" lon="5.83803">
        <ele>861.17204</ele>
        <time>2026-08-29T08:25:54.000Z</time>
      </trkpt>
      <trkpt lat="45.04258" lon="5.83805">
        <ele>861.370446</ele>
        <time>2026-08-29T08:25:55.000Z</time>
      </trkpt>
      <trkpt lat="45.0426" lon="5.83806">
        <ele>861.554054</ele>
        <time>2026-08-29T08:25:56.000Z</time>
      </trkpt>
      <trkpt lat="45.04262" lon="5.83807">
        <ele>861.762327</ele>
        <time>2026-08-29T08:25:57.000Z</time>
      </trkpt>
      <trkpt lat="45.04264" lon="5.83807">
        <ele>861.932273</ele>
        <time>2026-08-29T08:25:58.000Z</time>
      </trkpt>
      <trkpt lat="45.04266" lon="5.83808">
        <ele>862.173857</ele>
        <time>2026-08-29T08:25:59.000Z</time>
      </trkpt>
      <trkpt lat="45.04269" lon="5.8381">
        <ele>862.414654</ele>
        <time>2026-08-29T08:26:00.000Z</time>
      </trkpt>
      <trkpt lat="45.04271" lon="5.83811">
        <ele>862.595467</ele>
        <time>2026-08-29T08:26:01.000Z</time>
      </trkpt>
      <trkpt lat="45.04273" lon="5.83814">
        <ele>862.803315</ele>
        <time>2026-08-29T08:26:02.000Z</time>
      </trkpt>
      <trkpt lat="45.04275" lon="5.83816">
        <ele>863.026405</ele>
        <time>2026-08-29T08:26:03.000Z</time>
      </trkpt>
      <trkpt lat="45.04277" lon="5.83817">
        <ele>863.276947</ele>
        <time>2026-08-29T08:26:04.000Z</time>
      </trkpt>
      <trkpt lat="45.0428" lon="5.83819">
        <ele>863.52119</ele>
        <time>2026-08-29T08:26:05.000Z</time>
      </trkpt>
      <trkpt lat="45.04282" lon="5.83821">
        <ele>863.750831</ele>
        <time>2026-08-29T08:26:06.000Z</time>
      </trkpt>
      <trkpt lat="45.04284" lon="5.83823">
        <ele>863.975436</ele>
        <time>2026-08-29T08:26:07.000Z</time>
      </trkpt>
      <trkpt lat="45.04287" lon="5.83826">
        <ele>864.255238</ele>
        <time>2026-08-29T08:26:08.000Z</time>
      </trkpt>
      <trkpt lat="45.04289" lon="5.83828">
        <ele>864.513188</ele>
        <time>2026-08-29T08:26:09.000Z</time>
      </trkpt>
      <trkpt lat="45.04291" lon="5.83831">
        <ele>864.750723</ele>
        <time>2026-08-29T08:26:10.000Z</time>
      </trkpt>
      <trkpt lat="45.04293" lon="5.83833">
        <ele>864.951318</ele>
        <time>2026-08-29T08:26:11.000Z</time>
      </trkpt>
      <trkpt lat="45.04295" lon="5.83836">
        <ele>865.16353</ele>
        <time>2026-08-29T08:26:12.000Z</time>
      </trkpt>
      <trkpt lat="45.04297" lon="5.83838">
        <ele>865.372205</ele>
        <time>2026-08-29T08:26:13.000Z</time>
      </trkpt>
      <trkpt lat="45.04298" lon="5.8384">
        <ele>865.537391</ele>
        <time>2026-08-29T08:26:14.000Z</time>
      </trkpt>
      <trkpt lat="45.043" lon="5.83842">
        <ele>865.769703</ele>
        <time>2026-08-29T08:26:15.000Z</time>
      </trkpt>
      <trkpt lat="45.04302" lon="5.83844">
        <ele>865.965025</ele>
        <time>2026-08-29T08:26:16.000Z</time>
      </trkpt>
      <trkpt lat="45.04304" lon="5.83846">
        <ele>866.177002</ele>
        <time>2026-08-29T08:26:17.000Z</time>
      </trkpt>
      <trkpt lat="45.04306" lon="5.83848">
        <ele>866.40404</ele>
        <time>2026-08-29T08:26:18.000Z</time>
      </trkpt>
      <trkpt lat="45.04307" lon="5.83851">
        <ele>866.597764</ele>
        <time>2026-08-29T08:26:19.000Z</time>
      </trkpt>
      <trkpt lat="45.04308" lon="5.83853">
        <ele>866.78665</ele>
        <time>2026-08-29T08:26:20.000Z</time>
      </trkpt>
      <trkpt lat="45.0431" lon="5.83856">
        <ele>867.00331</ele>
        <time>2026-08-29T08:26:21.000Z</time>
      </trkpt>
      <trkpt lat="45.04311" lon="5.83858">
        <ele>867.178718</ele>
        <time>2026-08-29T08:26:22.000Z</time>
      </trkpt>
      <trkpt lat="45.04312" lon="5.8386">
        <ele>867.320732</ele>
        <time>2026-08-29T08:26:23.000Z</time>
      </trkpt>
      <trkpt lat="45.04313" lon="5.83863">
        <ele>867.500859</ele>
        <time>2026-08-29T08:26:24.000Z</time>
      </trkpt>
      <trkpt lat="45.04314" lon="5.83865">
        <ele>867.676267</ele>
        <time>2026-08-29T08:26:25.000Z</time>
      </trkpt>
      <trkpt lat="45.04315" lon="5.83867">
        <ele>867.851972</ele>
        <time>2026-08-29T08:26:26.000Z</time>
      </trkpt>
      <trkpt lat="45.04317" lon="5.8387">
        <ele>868.052567</ele>
        <time>2026-08-29T08:26:27.000Z</time>
      </trkpt>
      <trkpt lat="45.04318" lon="5.83872">
        <ele>868.247671</ele>
        <time>2026-08-29T08:26:28.000Z</time>
      </trkpt>
      <trkpt lat="45.04319" lon="5.83875">
        <ele>868.452585</ele>
        <time>2026-08-29T08:26:29.000Z</time>
      </trkpt>
      <trkpt lat="45.04321" lon="5.83878">
        <ele>868.647393</ele>
        <time>2026-08-29T08:26:30.000Z</time>
      </trkpt>
      <trkpt lat="45.04322" lon="5.83881">
        <ele>868.83384</ele>
        <time>2026-08-29T08:26:31.000Z</time>
      </trkpt>
      <trkpt lat="45.04323" lon="5.83883">
        <ele>869.055028</ele>
        <time>2026-08-29T08:26:32.000Z</time>
      </trkpt>
      <trkpt lat="45.04325" lon="5.83886">
        <ele>869.276215</ele>
        <time>2026-08-29T08:26:33.000Z</time>
      </trkpt>
      <trkpt lat="45.04327" lon="5.83889">
        <ele>869.491741</ele>
        <time>2026-08-29T08:26:34.000Z</time>
      </trkpt>
      <trkpt lat="45.04328" lon="5.83892">
        <ele>869.711632</ele>
        <time>2026-08-29T08:26:35.000Z</time>
      </trkpt>
      <trkpt lat="45.0433" lon="5.83894">
        <ele>869.921425</ele>
        <time>2026-08-29T08:26:36.000Z</time>
      </trkpt>
      <trkpt lat="45.04331" lon="5.83897">
        <ele>870.136334</ele>
        <time>2026-08-29T08:26:37.000Z</time>
      </trkpt>
      <trkpt lat="45.04333" lon="5.83899">
        <ele>870.369507</ele>
        <time>2026-08-29T08:26:38.000Z</time>
      </trkpt>
      <trkpt lat="45.04335" lon="5.83902">
        <ele>870.605592</ele>
        <time>2026-08-29T08:26:39.000Z</time>
      </trkpt>
      <trkpt lat="45.04337" lon="5.83904">
        <ele>870.807515</ele>
        <time>2026-08-29T08:26:40.000Z</time>
      </trkpt>
      <trkpt lat="45.0434" lon="5.83906">
        <ele>871.05642</ele>
        <time>2026-08-29T08:26:41.000Z</time>
      </trkpt>
      <trkpt lat="45.04342" lon="5.83908">
        <ele>871.327909</ele>
        <time>2026-08-29T08:26:42.000Z</time>
      </trkpt>
      <trkpt lat="45.04344" lon="5.83909">
        <ele>871.462257</ele>
        <time>2026-08-29T08:26:43.000Z</time>
      </trkpt>
      <trkpt lat="45.04346" lon="5.83911">
        <ele>871.699756</ele>
        <time>2026-08-29T08:26:44.000Z</time>
      </trkpt>
      <trkpt lat="45.04348" lon="5.83913">
        <ele>871.928432</ele>
        <time>2026-08-29T08:26:45.000Z</time>
      </trkpt>
      <trkpt lat="45.04352" lon="5.83914">
        <ele>872.24969</ele>
        <time>2026-08-29T08:26:46.000Z</time>
      </trkpt>
      <trkpt lat="45.04355" lon="5.83915">
        <ele>872.494357</ele>
        <time>2026-08-29T08:26:47.000Z</time>
      </trkpt>
      <trkpt lat="45.04357" lon="5.83916">
        <ele>872.724678</ele>
        <time>2026-08-29T08:26:48.000Z</time>
      </trkpt>
      <trkpt lat="45.04359" lon="5.83917">
        <ele>872.915335</ele>
        <time>2026-08-29T08:26:49.000Z</time>
      </trkpt>
      <trkpt lat="45.04362" lon="5.83918">
        <ele>873.178995</ele>
        <time>2026-08-29T08:26:50.000Z</time>
      </trkpt>
      <trkpt lat="45.04365" lon="5.8392">
        <ele>873.399523</ele>
        <time>2026-08-29T08:26:51.000Z</time>
      </trkpt>
      <trkpt lat="45.04367" lon="5.83921">
        <ele>873.592947</ele>
        <time>2026-08-29T08:26:52.000Z</time>
      </trkpt>
      <trkpt lat="45.04369" lon="5.83924">
        <ele>873.821439</ele>
        <time>2026-08-29T08:26:53.000Z</time>
      </trkpt>
      <trkpt lat="45.04371" lon="5.83926">
        <ele>874.051049</ele>
        <time>2026-08-29T08:26:54.000Z</time>
      </trkpt>
      <trkpt lat="45.04372" lon="5.83929">
        <ele>874.259724</ele>
        <time>2026-08-29T08:26:55.000Z</time>
      </trkpt>
      <trkpt lat="45.04373" lon="5.83931">
        <ele>874.429125</ele>
        <time>2026-08-29T08:26:56.000Z</time>
      </trkpt>
      <trkpt lat="45.04375" lon="5.83933">
        <ele>874.637799</ele>
        <time>2026-08-29T08:26:57.000Z</time>
      </trkpt>
      <trkpt lat="45.04377" lon="5.83935">
        <ele>874.862796</ele>
        <time>2026-08-29T08:26:58.000Z</time>
      </trkpt>
      <trkpt lat="45.04379" lon="5.83937">
        <ele>875.066551</ele>
        <time>2026-08-29T08:26:59.000Z</time>
      </trkpt>
      <trkpt lat="45.04381" lon="5.83939">
        <ele>875.238934</ele>
        <time>2026-08-29T08:27:00.000Z</time>
      </trkpt>
      <trkpt lat="45.04383" lon="5.83941">
        <ele>875.470729</ele>
        <time>2026-08-29T08:27:01.000Z</time>
      </trkpt>
      <trkpt lat="45.04386" lon="5.83943">
        <ele>875.748364</ele>
        <time>2026-08-29T08:27:02.000Z</time>
      </trkpt>
      <trkpt lat="45.04388" lon="5.83946">
        <ele>875.954982</ele>
        <time>2026-08-29T08:27:03.000Z</time>
      </trkpt>
      <trkpt lat="45.04389" lon="5.83948">
        <ele>876.170359</ele>
        <time>2026-08-29T08:27:04.000Z</time>
      </trkpt>
      <trkpt lat="45.04391" lon="5.83951">
        <ele>876.404039</ele>
        <time>2026-08-29T08:27:05.000Z</time>
      </trkpt>
      <trkpt lat="45.04393" lon="5.83953">
        <ele>876.625787</ele>
        <time>2026-08-29T08:27:06.000Z</time>
      </trkpt>
      <trkpt lat="45.04395" lon="5.83956">
        <ele>876.840037</ele>
        <time>2026-08-29T08:27:07.000Z</time>
      </trkpt>
      <trkpt lat="45.04397" lon="5.83958">
        <ele>877.048711</ele>
        <time>2026-08-29T08:27:08.000Z</time>
      </trkpt>
      <trkpt lat="45.04398" lon="5.83961">
        <ele>877.203271</ele>
        <time>2026-08-29T08:27:09.000Z</time>
      </trkpt>
      <trkpt lat="45.04399" lon="5.83963">
        <ele>877.391039</ele>
        <time>2026-08-29T08:27:10.000Z</time>
      </trkpt>
      <trkpt lat="45.04401" lon="5.83965">
        <ele>877.616671</ele>
        <time>2026-08-29T08:27:11.000Z</time>
      </trkpt>
      <trkpt lat="45.04403" lon="5.83967">
        <ele>877.825345</ele>
        <time>2026-08-29T08:27:12.000Z</time>
      </trkpt>
      <trkpt lat="45.04405" lon="5.83969">
        <ele>878.036604</ele>
        <time>2026-08-29T08:27:13.000Z</time>
      </trkpt>
      <trkpt lat="45.04407" lon="5.83972">
        <ele>878.241685</ele>
        <time>2026-08-29T08:27:14.000Z</time>
      </trkpt>
      <trkpt lat="45.04408" lon="5.83975">
        <ele>878.475496</ele>
        <time>2026-08-29T08:27:15.000Z</time>
      </trkpt>
      <trkpt lat="45.04409" lon="5.83977">
        <ele>878.636836</ele>
        <time>2026-08-29T08:27:16.000Z</time>
      </trkpt>
      <trkpt lat="45.04411" lon="5.8398">
        <ele>878.845387</ele>
        <time>2026-08-29T08:27:17.000Z</time>
      </trkpt>
      <trkpt lat="45.04412" lon="5.83982">
        <ele>879.009578</ele>
        <time>2026-08-29T08:27:18.000Z</time>
      </trkpt>
      <trkpt lat="45.04413" lon="5.83984">
        <ele>879.205818</ele>
        <time>2026-08-29T08:27:19.000Z</time>
      </trkpt>
      <trkpt lat="45.04415" lon="5.83987">
        <ele>879.415445</ele>
        <time>2026-08-29T08:27:20.000Z</time>
      </trkpt>
      <trkpt lat="45.04416" lon="5.83989">
        <ele>879.586613</ele>
        <time>2026-08-29T08:27:21.000Z</time>
      </trkpt>
      <trkpt lat="45.04418" lon="5.83991">
        <ele>879.768166</ele>
        <time>2026-08-29T08:27:22.000Z</time>
      </trkpt>
      <trkpt lat="45.04419" lon="5.83994">
        <ele>879.949674</ele>
        <time>2026-08-29T08:27:23.000Z</time>
      </trkpt>
      <trkpt lat="45.0442" lon="5.83996">
        <ele>880.119424</ele>
        <time>2026-08-29T08:27:24.000Z</time>
      </trkpt>
      <trkpt lat="45.04422" lon="5.83998">
        <ele>880.321793</ele>
        <time>2026-08-29T08:27:25.000Z</time>
      </trkpt>
      <trkpt lat="45.04423" lon="5.84001">
        <ele>880.50055</ele>
        <time>2026-08-29T08:27:26.000Z</time>
      </trkpt>
      <trkpt lat="45.04423" lon="5.84004">
        <ele>880.69597</ele>
        <time>2026-08-29T08:27:27.000Z</time>
      </trkpt>
      <trkpt lat="45.04425" lon="5.84007">
        <ele>880.890751</ele>
        <time>2026-08-29T08:27:28.000Z</time>
      </trkpt>
      <trkpt lat="45.04426" lon="5.84009">
        <ele>881.110629</ele>
        <time>2026-08-29T08:27:29.000Z</time>
      </trkpt>
      <trkpt lat="45.04428" lon="5.84012">
        <ele>881.330506</ele>
        <time>2026-08-29T08:27:30.000Z</time>
      </trkpt>
      <trkpt lat="45.04429" lon="5.84015">
        <ele>881.553953</ele>
        <time>2026-08-29T08:27:31.000Z</time>
      </trkpt>
      <trkpt lat="45.04431" lon="5.84018">
        <ele>881.767589</ele>
        <time>2026-08-29T08:27:32.000Z</time>
      </trkpt>
      <trkpt lat="45.04433" lon="5.8402">
        <ele>881.999383</ele>
        <time>2026-08-29T08:27:33.000Z</time>
      </trkpt>
      <trkpt lat="45.04435" lon="5.84022">
        <ele>882.208056</ele>
        <time>2026-08-29T08:27:34.000Z</time>
      </trkpt>
      <trkpt lat="45.04436" lon="5.84025">
        <ele>882.398357</ele>
        <time>2026-08-29T08:27:35.000Z</time>
      </trkpt>
      <trkpt lat="45.04438" lon="5.84027">
        <ele>882.567217</ele>
        <time>2026-08-29T08:27:36.000Z</time>
      </trkpt>
      <trkpt lat="45.0444" lon="5.84029">
        <ele>882.781504</ele>
        <time>2026-08-29T08:27:37.000Z</time>
      </trkpt>
      <trkpt lat="45.04441" lon="5.84031">
        <ele>882.971804</ele>
        <time>2026-08-29T08:27:38.000Z</time>
      </trkpt>
      <trkpt lat="45.04443" lon="5.84034">
        <ele>883.193115</ele>
        <time>2026-08-29T08:27:39.000Z</time>
      </trkpt>
      <trkpt lat="45.04445" lon="5.84037">
        <ele>883.429145</ele>
        <time>2026-08-29T08:27:40.000Z</time>
      </trkpt>
      <trkpt lat="45.04447" lon="5.84039">
        <ele>883.650456</ele>
        <time>2026-08-29T08:27:41.000Z</time>
      </trkpt>
      <trkpt lat="45.04447" lon="5.84042">
        <ele>883.817314</ele>
        <time>2026-08-29T08:27:42.000Z</time>
      </trkpt>
      <trkpt lat="45.04448" lon="5.84045">
        <ele>884.017968</ele>
        <time>2026-08-29T08:27:43.000Z</time>
      </trkpt>
      <trkpt lat="45.0445" lon="5.84048">
        <ele>884.291266</ele>
        <time>2026-08-29T08:27:44.000Z</time>
      </trkpt>
      <trkpt lat="45.04452" lon="5.84051">
        <ele>884.510208</ele>
        <time>2026-08-29T08:27:45.000Z</time>
      </trkpt>
      <trkpt lat="45.04454" lon="5.84054">
        <ele>884.759089</ele>
        <time>2026-08-29T08:27:46.000Z</time>
      </trkpt>
      <trkpt lat="45.04455" lon="5.84057">
        <ele>884.987613</ele>
        <time>2026-08-29T08:27:47.000Z</time>
      </trkpt>
      <trkpt lat="45.04457" lon="5.8406">
        <ele>885.216445</ele>
        <time>2026-08-29T08:27:48.000Z</time>
      </trkpt>
      <trkpt lat="45.04458" lon="5.84064">
        <ele>885.473136</ele>
        <time>2026-08-29T08:27:49.000Z</time>
      </trkpt>
      <trkpt lat="45.04459" lon="5.84068">
        <ele>885.721503</ele>
        <time>2026-08-29T08:27:50.000Z</time>
      </trkpt>
      <trkpt lat="45.0446" lon="5.84071">
        <ele>885.945412</ele>
        <time>2026-08-29T08:27:51.000Z</time>
      </trkpt>
      <trkpt lat="45.04461" lon="5.84075">
        <ele>886.169064</ele>
        <time>2026-08-29T08:27:52.000Z</time>
      </trkpt>
      <trkpt lat="45.04463" lon="5.84078">
        <ele>886.388236</ele>
        <time>2026-08-29T08:27:53.000Z</time>
      </trkpt>
      <trkpt lat="45.04463" lon="5.84081">
        <ele>886.586102</ele>
        <time>2026-08-29T08:27:54.000Z</time>
      </trkpt>
      <trkpt lat="45.04464" lon="5.84084">
        <ele>886.809754</ele>
        <time>2026-08-29T08:27:55.000Z</time>
      </trkpt>
      <trkpt lat="45.04465" lon="5.84088">
        <ele>887.02187</ele>
        <time>2026-08-29T08:27:56.000Z</time>
      </trkpt>
      <trkpt lat="45.04466" lon="5.84091">
        <ele>887.236821</ele>
        <time>2026-08-29T08:27:57.000Z</time>
      </trkpt>
      <trkpt lat="45.04467" lon="5.84094">
        <ele>887.477092</ele>
        <time>2026-08-29T08:27:58.000Z</time>
      </trkpt>
      <trkpt lat="45.04469" lon="5.84097">
        <ele>887.707422</ele>
        <time>2026-08-29T08:27:59.000Z</time>
      </trkpt>
      <trkpt lat="45.04471" lon="5.841">
        <ele>887.975945</ele>
        <time>2026-08-29T08:28:00.000Z</time>
      </trkpt>
      <trkpt lat="45.04473" lon="5.84103">
        <ele>888.177544</ele>
        <time>2026-08-29T08:28:01.000Z</time>
      </trkpt>
      <trkpt lat="45.04474" lon="5.84105">
        <ele>888.356992</ele>
        <time>2026-08-29T08:28:02.000Z</time>
      </trkpt>
      <trkpt lat="45.04476" lon="5.84107">
        <ele>888.550253</ele>
        <time>2026-08-29T08:28:03.000Z</time>
      </trkpt>
      <trkpt lat="45.04478" lon="5.84109">
        <ele>888.73679</ele>
        <time>2026-08-29T08:28:04.000Z</time>
      </trkpt>
      <trkpt lat="45.0448" lon="5.84112">
        <ele>888.964655</ele>
        <time>2026-08-29T08:28:05.000Z</time>
      </trkpt>
      <trkpt lat="45.04482" lon="5.84114">
        <ele>889.184203</ele>
        <time>2026-08-29T08:28:06.000Z</time>
      </trkpt>
      <trkpt lat="45.04484" lon="5.84116">
        <ele>889.380909</ele>
        <time>2026-08-29T08:28:07.000Z</time>
      </trkpt>
      <trkpt lat="45.04487" lon="5.84118">
        <ele>889.646379</ele>
        <time>2026-08-29T08:28:08.000Z</time>
      </trkpt>
      <trkpt lat="45.04489" lon="5.8412">
        <ele>889.819904</ele>
        <time>2026-08-29T08:28:09.000Z</time>
      </trkpt>
      <trkpt lat="45.04491" lon="5.84121">
        <ele>890.008038</ele>
        <time>2026-08-29T08:28:10.000Z</time>
      </trkpt>
      <trkpt lat="45.04493" lon="5.84122">
        <ele>890.215872</ele>
        <time>2026-08-29T08:28:11.000Z</time>
      </trkpt>
      <trkpt lat="45.04495" lon="5.84124">
        <ele>890.424096</ele>
        <time>2026-08-29T08:28:12.000Z</time>
      </trkpt>
      <trkpt lat="45.04498" lon="5.84125">
        <ele>890.651278</ele>
        <time>2026-08-29T08:28:13.000Z</time>
      </trkpt>
      <trkpt lat="45.045" lon="5.84126">
        <ele>890.841687</ele>
        <time>2026-08-29T08:28:14.000Z</time>
      </trkpt>
      <trkpt lat="45.04502" lon="5.84128">
        <ele>891.032536</ele>
        <time>2026-08-29T08:28:15.000Z</time>
      </trkpt>
      <trkpt lat="45.04504" lon="5.84128">
        <ele>891.22504</ele>
        <time>2026-08-29T08:28:16.000Z</time>
      </trkpt>
      <trkpt lat="45.04507" lon="5.84129">
        <ele>891.436489</ele>
        <time>2026-08-29T08:28:17.000Z</time>
      </trkpt>
      <trkpt lat="45.04509" lon="5.84131">
        <ele>891.640124</ele>
        <time>2026-08-29T08:28:18.000Z</time>
      </trkpt>
      <trkpt lat="45.04511" lon="5.84133">
        <ele>891.857337</ele>
        <time>2026-08-29T08:28:19.000Z</time>
      </trkpt>
      <trkpt lat="45.04514" lon="5.84135">
        <ele>892.120579</ele>
        <time>2026-08-29T08:28:20.000Z</time>
      </trkpt>
      <trkpt lat="45.04517" lon="5.84137">
        <ele>892.414372</ele>
        <time>2026-08-29T08:28:21.000Z</time>
      </trkpt>
      <trkpt lat="45.0452" lon="5.84139">
        <ele>892.652933</ele>
        <time>2026-08-29T08:28:22.000Z</time>
      </trkpt>
      <trkpt lat="45.04522" lon="5.84141">
        <ele>892.907223</ele>
        <time>2026-08-29T08:28:23.000Z</time>
      </trkpt>
      <trkpt lat="45.04525" lon="5.84144">
        <ele>893.173221</ele>
        <time>2026-08-29T08:28:24.000Z</time>
      </trkpt>
      <trkpt lat="45.04526" lon="5.84147">
        <ele>893.376877</ele>
        <time>2026-08-29T08:28:25.000Z</time>
      </trkpt>
      <trkpt lat="45.04528" lon="5.84149">
        <ele>893.583029</ele>
        <time>2026-08-29T08:28:26.000Z</time>
      </trkpt>
      <trkpt lat="45.04529" lon="5.84152">
        <ele>893.774901</ele>
        <time>2026-08-29T08:28:27.000Z</time>
      </trkpt>
      <trkpt lat="45.04531" lon="5.84155">
        <ele>893.976498</ele>
        <time>2026-08-29T08:28:28.000Z</time>
      </trkpt>
      <trkpt lat="45.04531" lon="5.84158">
        <ele>894.142722</ele>
        <time>2026-08-29T08:28:29.000Z</time>
      </trkpt>
      <trkpt lat="45.04532" lon="5.8416">
        <ele>894.309171</ele>
        <time>2026-08-29T08:28:30.000Z</time>
      </trkpt>
      <trkpt lat="45.04533" lon="5.84163">
        <ele>894.481742</ele>
        <time>2026-08-29T08:28:31.000Z</time>
      </trkpt>
      <trkpt lat="45.04533" lon="5.84166">
        <ele>894.662659</ele>
        <time>2026-08-29T08:28:32.000Z</time>
      </trkpt>
      <trkpt lat="45.04534" lon="5.84168">
        <ele>894.845386</ele>
        <time>2026-08-29T08:28:33.000Z</time>
      </trkpt>
      <trkpt lat="45.04535" lon="5.84171">
        <ele>895.028114</ele>
        <time>2026-08-29T08:28:34.000Z</time>
      </trkpt>
      <trkpt lat="45.04536" lon="5.84174">
        <ele>895.212261</ele>
        <time>2026-08-29T08:28:35.000Z</time>
      </trkpt>
      <trkpt lat="45.04538" lon="5.84176">
        <ele>895.439636</ele>
        <time>2026-08-29T08:28:36.000Z</time>
      </trkpt>
      <trkpt lat="45.0454" lon="5.84178">
        <ele>895.613417</ele>
        <time>2026-08-29T08:28:37.000Z</time>
      </trkpt>
      <trkpt lat="45.04541" lon="5.8418">
        <ele>895.773935</ele>
        <time>2026-08-29T08:28:38.000Z</time>
      </trkpt>
      <trkpt lat="45.04542" lon="5.84182">
        <ele>895.922574</ele>
        <time>2026-08-29T08:28:39.000Z</time>
      </trkpt>
      <trkpt lat="45.04545" lon="5.84184">
        <ele>896.139786</ele>
        <time>2026-08-29T08:28:40.000Z</time>
      </trkpt>
      <trkpt lat="45.04547" lon="5.84186">
        <ele>896.350885</ele>
        <time>2026-08-29T08:28:41.000Z</time>
      </trkpt>
      <trkpt lat="45.04548" lon="5.84187">
        <ele>896.503459</ele>
        <time>2026-08-29T08:28:42.000Z</time>
      </trkpt>
      <trkpt lat="45.0455" lon="5.84188">
        <ele>896.663977</ele>
        <time>2026-08-29T08:28:43.000Z</time>
      </trkpt>
      <trkpt lat="45.04552" lon="5.8419">
        <ele>896.846805</ele>
        <time>2026-08-29T08:28:44.000Z</time>
      </trkpt>
      <trkpt lat="45.04555" lon="5.84191">
        <ele>897.083724</ele>
        <time>2026-08-29T08:28:45.000Z</time>
      </trkpt>
      <trkpt lat="45.04556" lon="5.84193">
        <ele>897.241914</ele>
        <time>2026-08-29T08:28:46.000Z</time>
      </trkpt>
      <trkpt lat="45.04557" lon="5.84195">
        <ele>897.367294</ele>
        <time>2026-08-29T08:28:47.000Z</time>
      </trkpt>
      <trkpt lat="45.04559" lon="5.84196">
        <ele>897.572123</ele>
        <time>2026-08-29T08:28:48.000Z</time>
      </trkpt>
      <trkpt lat="45.04561" lon="5.84196">
        <ele>897.743272</ele>
        <time>2026-08-29T08:28:49.000Z</time>
      </trkpt>
      <trkpt lat="45.04564" lon="5.84197">
        <ele>897.954978</ele>
        <time>2026-08-29T08:28:50.000Z</time>
      </trkpt>
      <trkpt lat="45.04566" lon="5.84198">
        <ele>898.124814</ele>
        <time>2026-08-29T08:28:51.000Z</time>
      </trkpt>
      <trkpt lat="45.04568" lon="5.84198">
        <ele>898.310935</ele>
        <time>2026-08-29T08:28:52.000Z</time>
      </trkpt>
      <trkpt lat="45.04569" lon="5.842">
        <ele>898.446637</ele>
        <time>2026-08-29T08:28:53.000Z</time>
      </trkpt>
      <trkpt lat="45.04571" lon="5.842">
        <ele>898.601709</ele>
        <time>2026-08-29T08:28:54.000Z</time>
      </trkpt>
      <trkpt lat="45.04573" lon="5.84201">
        <ele>898.756781</ele>
        <time>2026-08-29T08:28:55.000Z</time>
      </trkpt>
      <trkpt lat="45.04575" lon="5.84201">
        <ele>898.932805</ele>
        <time>2026-08-29T08:28:56.000Z</time>
      </trkpt>
      <trkpt lat="45.04576" lon="5.84203">
        <ele>899.065035</ele>
        <time>2026-08-29T08:28:57.000Z</time>
      </trkpt>
      <trkpt lat="45.04578" lon="5.84204">
        <ele>899.228425</ele>
        <time>2026-08-29T08:28:58.000Z</time>
      </trkpt>
      <trkpt lat="45.0458" lon="5.84205">
        <ele>899.414441</ele>
        <time>2026-08-29T08:28:59.000Z</time>
      </trkpt>
      <trkpt lat="45.04582" lon="5.84207">
        <ele>899.574959</ele>
        <time>2026-08-29T08:29:00.000Z</time>
      </trkpt>
      <trkpt lat="45.04584" lon="5.84209">
        <ele>899.765062</ele>
        <time>2026-08-29T08:29:01.000Z</time>
      </trkpt>
      <trkpt lat="45.04585" lon="5.8421">
        <ele>899.92558</ele>
        <time>2026-08-29T08:29:02.000Z</time>
      </trkpt>
      <trkpt lat="45.04588" lon="5.84212">
        <ele>900.14391</ele>
        <time>2026-08-29T08:29:03.000Z</time>
      </trkpt>
      <trkpt lat="45.0459" lon="5.84214">
        <ele>900.34734</ele>
        <time>2026-08-29T08:29:04.000Z</time>
      </trkpt>
      <trkpt lat="45.04591" lon="5.84215">
        <ele>900.527105</ele>
        <time>2026-08-29T08:29:05.000Z</time>
      </trkpt>
      <trkpt lat="45.04593" lon="5.84217">
        <ele>900.696894</ele>
        <time>2026-08-29T08:29:06.000Z</time>
      </trkpt>
      <trkpt lat="45.04595" lon="5.84219">
        <ele>900.882205</ele>
        <time>2026-08-29T08:29:07.000Z</time>
      </trkpt>
      <trkpt lat="45.04596" lon="5.84222">
        <ele>901.095857</ele>
        <time>2026-08-29T08:29:08.000Z</time>
      </trkpt>
      <trkpt lat="45.04597" lon="5.84225">
        <ele>901.281766</ele>
        <time>2026-08-29T08:29:09.000Z</time>
      </trkpt>
      <trkpt lat="45.04598" lon="5.84227">
        <ele>901.450384</ele>
        <time>2026-08-29T08:29:10.000Z</time>
      </trkpt>
      <trkpt lat="45.046" lon="5.8423">
        <ele>901.668267</ele>
        <time>2026-08-29T08:29:11.000Z</time>
      </trkpt>
      <trkpt lat="45.04602" lon="5.84234">
        <ele>901.913571</ele>
        <time>2026-08-29T08:29:12.000Z</time>
      </trkpt>
      <trkpt lat="45.04602" lon="5.84237">
        <ele>902.135074</ele>
        <time>2026-08-29T08:29:13.000Z</time>
      </trkpt>
      <trkpt lat="45.04603" lon="5.8424">
        <ele>902.290367</ele>
        <time>2026-08-29T08:29:14.000Z</time>
      </trkpt>
      <trkpt lat="45.04604" lon="5.84243">
        <ele>902.438189</ele>
        <time>2026-08-29T08:29:15.000Z</time>
      </trkpt>
      <trkpt lat="45.04606" lon="5.84246">
        <ele>902.600549</ele>
        <time>2026-08-29T08:29:16.000Z</time>
      </trkpt>
      <trkpt lat="45.04607" lon="5.8425">
        <ele>902.78046</ele>
        <time>2026-08-29T08:29:17.000Z</time>
      </trkpt>
      <trkpt lat="45.04609" lon="5.84252">
        <ele>902.946575</ele>
        <time>2026-08-29T08:29:18.000Z</time>
      </trkpt>
      <trkpt lat="45.04612" lon="5.84255">
        <ele>903.145912</ele>
        <time>2026-08-29T08:29:19.000Z</time>
      </trkpt>
      <trkpt lat="45.04614" lon="5.84259">
        <ele>903.340507</ele>
        <time>2026-08-29T08:29:20.000Z</time>
      </trkpt>
      <trkpt lat="45.04615" lon="5.84262">
        <ele>903.531966</ele>
        <time>2026-08-29T08:29:21.000Z</time>
      </trkpt>
      <trkpt lat="45.04616" lon="5.84265">
        <ele>903.665236</ele>
        <time>2026-08-29T08:29:22.000Z</time>
      </trkpt>
      <trkpt lat="45.04617" lon="5.84268">
        <ele>903.823798</ele>
        <time>2026-08-29T08:29:23.000Z</time>
      </trkpt>
      <trkpt lat="45.04619" lon="5.84272">
        <ele>904.027686</ele>
        <time>2026-08-29T08:29:24.000Z</time>
      </trkpt>
      <trkpt lat="45.04621" lon="5.84275">
        <ele>904.190069</ele>
        <time>2026-08-29T08:29:25.000Z</time>
      </trkpt>
      <trkpt lat="45.04623" lon="5.84278">
        <ele>904.37731</ele>
        <time>2026-08-29T08:29:26.000Z</time>
      </trkpt>
      <trkpt lat="45.04625" lon="5.84281">
        <ele>904.585617</ele>
        <time>2026-08-29T08:29:27.000Z</time>
      </trkpt>
      <trkpt lat="45.04627" lon="5.84284">
        <ele>904.73326</ele>
        <time>2026-08-29T08:29:28.000Z</time>
      </trkpt>
      <trkpt lat="45.04629" lon="5.84287">
        <ele>904.917906</ele>
        <time>2026-08-29T08:29:29.000Z</time>
      </trkpt>
      <trkpt lat="45.04631" lon="5.8429">
        <ele>905.10677</ele>
        <time>2026-08-29T08:29:30.000Z</time>
      </trkpt>
      <trkpt lat="45.04631" lon="5.84293">
        <ele>905.265238</ele>
        <time>2026-08-29T08:29:31.000Z</time>
      </trkpt>
      <trkpt lat="45.04633" lon="5.84296">
        <ele>905.44909</ele>
        <time>2026-08-29T08:29:32.000Z</time>
      </trkpt>
      <trkpt lat="45.04635" lon="5.843">
        <ele>905.62513</ele>
        <time>2026-08-29T08:29:33.000Z</time>
      </trkpt>
      <trkpt lat="45.04636" lon="5.84303">
        <ele>905.812761</ele>
        <time>2026-08-29T08:29:34.000Z</time>
      </trkpt>
      <trkpt lat="45.04638" lon="5.84307">
        <ele>906.000679</ele>
        <time>2026-08-29T08:29:35.000Z</time>
      </trkpt>
      <trkpt lat="45.0464" lon="5.8431">
        <ele>906.198673</ele>
        <time>2026-08-29T08:29:36.000Z</time>
      </trkpt>
      <trkpt lat="45.04642" lon="5.84314">
        <ele>906.393268</ele>
        <time>2026-08-29T08:29:37.000Z</time>
      </trkpt>
      <trkpt lat="45.04644" lon="5.84317">
        <ele>906.581185</ele>
        <time>2026-08-29T08:29:38.000Z</time>
      </trkpt>
      <trkpt lat="45.04646" lon="5.8432">
        <ele>906.770086</ele>
        <time>2026-08-29T08:29:39.000Z</time>
      </trkpt>
      <trkpt lat="45.04648" lon="5.84323">
        <ele>906.96543</ele>
        <time>2026-08-29T08:29:40.000Z</time>
      </trkpt>
      <trkpt lat="45.0465" lon="5.84327">
        <ele>907.170339</ele>
        <time>2026-08-29T08:29:41.000Z</time>
      </trkpt>
      <trkpt lat="45.04652" lon="5.8433">
        <ele>907.354986</ele>
        <time>2026-08-29T08:29:42.000Z</time>
      </trkpt>
      <trkpt lat="45.04655" lon="5.84333">
        <ele>907.542144</ele>
        <time>2026-08-29T08:29:43.000Z</time>
      </trkpt>
      <trkpt lat="45.04657" lon="5.84336">
        <ele>907.735404</ele>
        <time>2026-08-29T08:29:44.000Z</time>
      </trkpt>
      <trkpt lat="45.04659" lon="5.84339">
        <ele>907.924304</ele>
        <time>2026-08-29T08:29:45.000Z</time>
      </trkpt>
      <trkpt lat="45.0466" lon="5.84343">
        <ele>908.10505</ele>
        <time>2026-08-29T08:29:46.000Z</time>
      </trkpt>
      <trkpt lat="45.04662" lon="5.84346">
        <ele>908.302641</ele>
        <time>2026-08-29T08:29:47.000Z</time>
      </trkpt>
      <trkpt lat="45.04664" lon="5.8435">
        <ele>908.486</ele>
        <time>2026-08-29T08:29:48.000Z</time>
      </trkpt>
      <trkpt lat="45.04665" lon="5.84354">
        <ele>908.669077</ele>
        <time>2026-08-29T08:29:49.000Z</time>
      </trkpt>
      <trkpt lat="45.04666" lon="5.84356">
        <ele>908.820152</ele>
        <time>2026-08-29T08:29:50.000Z</time>
      </trkpt>
      <trkpt lat="45.04668" lon="5.8436">
        <ele>909.011386</ele>
        <time>2026-08-29T08:29:51.000Z</time>
      </trkpt>
      <trkpt lat="45.0467" lon="5.84363">
        <ele>909.201841</ele>
        <time>2026-08-29T08:29:52.000Z</time>
      </trkpt>
      <trkpt lat="45.04672" lon="5.84367">
        <ele>909.388713</ele>
        <time>2026-08-29T08:29:53.000Z</time>
      </trkpt>
      <trkpt lat="45.04674" lon="5.8437">
        <ele>909.593474</ele>
        <time>2026-08-29T08:29:54.000Z</time>
      </trkpt>
      <trkpt lat="45.04676" lon="5.84374">
        <ele>909.802223</ele>
        <time>2026-08-29T08:29:55.000Z</time>
      </trkpt>
      <trkpt lat="45.04678" lon="5.84378">
        <ele>910.00419</ele>
        <time>2026-08-29T08:29:56.000Z</time>
      </trkpt>
      <trkpt lat="45.04679" lon="5.84381">
        <ele>910.182017</ele>
        <time>2026-08-29T08:29:57.000Z</time>
      </trkpt>
      <trkpt lat="45.04682" lon="5.84384">
        <ele>910.398453</ele>
        <time>2026-08-29T08:29:58.000Z</time>
      </trkpt>
      <trkpt lat="45.04685" lon="5.84387">
        <ele>910.60693</ele>
        <time>2026-08-29T08:29:59.000Z</time>
      </trkpt>
      <trkpt lat="45.04687" lon="5.8439">
        <ele>910.80771</ele>
        <time>2026-08-29T08:30:00.000Z</time>
      </trkpt>
      <trkpt lat="45.0469" lon="5.84393">
        <ele>911.016541</ele>
        <time>2026-08-29T08:30:01.000Z</time>
      </trkpt>
      <trkpt lat="45.04692" lon="5.84396">
        <ele>911.208301</ele>
        <time>2026-08-29T08:30:02.000Z</time>
      </trkpt>
      <trkpt lat="45.04693" lon="5.84398">
        <ele>911.345975</ele>
        <time>2026-08-29T08:30:03.000Z</time>
      </trkpt>
      <trkpt lat="45.04696" lon="5.84401">
        <ele>911.554452</ele>
        <time>2026-08-29T08:30:04.000Z</time>
      </trkpt>
      <trkpt lat="45.04699" lon="5.84403">
        <ele>911.718067</ele>
        <time>2026-08-29T08:30:05.000Z</time>
      </trkpt>
      <trkpt lat="45.04702" lon="5.84405">
        <ele>911.930159</ele>
        <time>2026-08-29T08:30:06.000Z</time>
      </trkpt>
      <trkpt lat="45.04704" lon="5.84406">
        <ele>912.08218</ele>
        <time>2026-08-29T08:30:07.000Z</time>
      </trkpt>
      <trkpt lat="45.04707" lon="5.84407">
        <ele>912.266115</ele>
        <time>2026-08-29T08:30:08.000Z</time>
      </trkpt>
      <trkpt lat="45.0471" lon="5.84407">
        <ele>912.441312</ele>
        <time>2026-08-29T08:30:09.000Z</time>
      </trkpt>
      <trkpt lat="45.04712" lon="5.84408">
        <ele>912.616122</ele>
        <time>2026-08-29T08:30:10.000Z</time>
      </trkpt>
      <trkpt lat="45.04715" lon="5.84408">
        <ele>912.766114</ele>
        <time>2026-08-29T08:30:11.000Z</time>
      </trkpt>
      <trkpt lat="45.04717" lon="5.84409">
        <ele>912.929462</ele>
        <time>2026-08-29T08:30:12.000Z</time>
      </trkpt>
      <trkpt lat="45.0472" lon="5.84409">
        <ele>913.10576</ele>
        <time>2026-08-29T08:30:13.000Z</time>
      </trkpt>
      <trkpt lat="45.04723" lon="5.8441">
        <ele>913.306183</ele>
        <time>2026-08-29T08:30:14.000Z</time>
      </trkpt>
      <trkpt lat="45.04727" lon="5.8441">
        <ele>913.572472</ele>
        <time>2026-08-29T08:30:15.000Z</time>
      </trkpt>
      <trkpt lat="45.0473" lon="5.84411">
        <ele>913.819397</ele>
        <time>2026-08-29T08:30:16.000Z</time>
      </trkpt>
      <trkpt lat="45.04733" lon="5.84412">
        <ele>914.056688</ele>
        <time>2026-08-29T08:30:17.000Z</time>
      </trkpt>
      <trkpt lat="45.04736" lon="5.84413">
        <ele>914.296333</ele>
        <time>2026-08-29T08:30:18.000Z</time>
      </trkpt>
      <trkpt lat="45.04739" lon="5.84415">
        <ele>914.508537</ele>
        <time>2026-08-29T08:30:19.000Z</time>
      </trkpt>
      <trkpt lat="45.04742" lon="5.84416">
        <ele>914.733665</ele>
        <time>2026-08-29T08:30:20.000Z</time>
      </trkpt>
      <trkpt lat="45.04746" lon="5.84417">
        <ele>915.002502</ele>
        <time>2026-08-29T08:30:21.000Z</time>
      </trkpt>
      <trkpt lat="45.04748" lon="5.84417">
        <ele>915.191825</ele>
        <time>2026-08-29T08:30:22.000Z</time>
      </trkpt>
      <trkpt lat="45.04751" lon="5.84418">
        <ele>915.425781</ele>
        <time>2026-08-29T08:30:23.000Z</time>
      </trkpt>
      <trkpt lat="45.04753" lon="5.84418">
        <ele>915.575843</ele>
        <time>2026-08-29T08:30:24.000Z</time>
      </trkpt>
      <trkpt lat="45.04755" lon="5.84418">
        <ele>915.740893</ele>
        <time>2026-08-29T08:30:25.000Z</time>
      </trkpt>
      <trkpt lat="45.04758" lon="5.84418">
        <ele>915.943974</ele>
        <time>2026-08-29T08:30:26.000Z</time>
      </trkpt>
      <trkpt lat="45.04761" lon="5.84419">
        <ele>916.19914</ele>
        <time>2026-08-29T08:30:27.000Z</time>
      </trkpt>
      <trkpt lat="45.04764" lon="5.84419">
        <ele>916.382884</ele>
        <time>2026-08-29T08:30:28.000Z</time>
      </trkpt>
      <trkpt lat="45.04766" lon="5.8442">
        <ele>916.548613</ele>
        <time>2026-08-29T08:30:29.000Z</time>
      </trkpt>
      <trkpt lat="45.04769" lon="5.84421">
        <ele>916.744923</ele>
        <time>2026-08-29T08:30:30.000Z</time>
      </trkpt>
      <trkpt lat="45.04771" lon="5.84422">
        <ele>916.955456</ele>
        <time>2026-08-29T08:30:31.000Z</time>
      </trkpt>
      <trkpt lat="45.04773" lon="5.84424">
        <ele>917.139526</ele>
        <time>2026-08-29T08:30:32.000Z</time>
      </trkpt>
      <trkpt lat="45.04774" lon="5.84427">
        <ele>917.316954</ele>
        <time>2026-08-29T08:30:33.000Z</time>
      </trkpt>
      <trkpt lat="45.04777" lon="5.84429">
        <ele>917.516059</ele>
        <time>2026-08-29T08:30:34.000Z</time>
      </trkpt>
      <trkpt lat="45.04779" lon="5.84431">
        <ele>917.728835</ele>
        <time>2026-08-29T08:30:35.000Z</time>
      </trkpt>
      <trkpt lat="45.04781" lon="5.84434">
        <ele>917.937113</ele>
        <time>2026-08-29T08:30:36.000Z</time>
      </trkpt>
      <trkpt lat="45.04783" lon="5.84437">
        <ele>918.168491</ele>
        <time>2026-08-29T08:30:37.000Z</time>
      </trkpt>
      <trkpt lat="45.04785" lon="5.8444">
        <ele>918.402139</ele>
        <time>2026-08-29T08:30:38.000Z</time>
      </trkpt>
      <trkpt lat="45.04787" lon="5.84444">
        <ele>918.628134</ele>
        <time>2026-08-29T08:30:39.000Z</time>
      </trkpt>
      <trkpt lat="45.04788" lon="5.84448">
        <ele>918.837617</ele>
        <time>2026-08-29T08:30:40.000Z</time>
      </trkpt>
      <trkpt lat="45.04789" lon="5.84451">
        <ele>919.044926</ele>
        <time>2026-08-29T08:30:41.000Z</time>
      </trkpt>
      <trkpt lat="45.04789" lon="5.84455">
        <ele>919.251207</ele>
        <time>2026-08-29T08:30:42.000Z</time>
      </trkpt>
      <trkpt lat="45.0479" lon="5.84459">
        <ele>919.45413</ele>
        <time>2026-08-29T08:30:43.000Z</time>
      </trkpt>
      <trkpt lat="45.04791" lon="5.84463">
        <ele>919.669813</ele>
        <time>2026-08-29T08:30:44.000Z</time>
      </trkpt>
      <trkpt lat="45.04792" lon="5.84466">
        <ele>919.877858</ele>
        <time>2026-08-29T08:30:45.000Z</time>
      </trkpt>
      <trkpt lat="45.04793" lon="5.8447">
        <ele>920.077789</ele>
        <time>2026-08-29T08:30:46.000Z</time>
      </trkpt>
      <trkpt lat="45.04794" lon="5.84473">
        <ele>920.261568</ele>
        <time>2026-08-29T08:30:47.000Z</time>
      </trkpt>
      <trkpt lat="45.04795" lon="5.84476">
        <ele>920.448833</ele>
        <time>2026-08-29T08:30:48.000Z</time>
      </trkpt>
      <trkpt lat="45.04796" lon="5.8448">
        <ele>920.650182</ele>
        <time>2026-08-29T08:30:49.000Z</time>
      </trkpt>
      <trkpt lat="45.04797" lon="5.84483">
        <ele>920.825024</ele>
        <time>2026-08-29T08:30:50.000Z</time>
      </trkpt>
      <trkpt lat="45.04798" lon="5.84486">
        <ele>921.00307</ele>
        <time>2026-08-29T08:30:51.000Z</time>
      </trkpt>
      <trkpt lat="45.048" lon="5.84489">
        <ele>921.232888</ele>
        <time>2026-08-29T08:30:52.000Z</time>
      </trkpt>
      <trkpt lat="45.04801" lon="5.84492">
        <ele>921.436335</ele>
        <time>2026-08-29T08:30:53.000Z</time>
      </trkpt>
      <trkpt lat="45.04803" lon="5.84496">
        <ele>921.635389</ele>
        <time>2026-08-29T08:30:54.000Z</time>
      </trkpt>
      <trkpt lat="45.04804" lon="5.84499">
        <ele>921.822654</ele>
        <time>2026-08-29T08:30:55.000Z</time>
      </trkpt>
      <trkpt lat="45.04806" lon="5.84501">
        <ele>922.015457</ele>
        <time>2026-08-29T08:30:56.000Z</time>
      </trkpt>
      <trkpt lat="45.04808" lon="5.84503">
        <ele>922.208304</ele>
        <time>2026-08-29T08:30:57.000Z</time>
      </trkpt>
      <trkpt lat="45.04809" lon="5.84506">
        <ele>922.372753</ele>
        <time>2026-08-29T08:30:58.000Z</time>
      </trkpt>
      <trkpt lat="45.04811" lon="5.84508">
        <ele>922.549095</ele>
        <time>2026-08-29T08:30:59.000Z</time>
      </trkpt>
      <trkpt lat="45.04813" lon="5.8451">
        <ele>922.736564</ele>
        <time>2026-08-29T08:31:00.000Z</time>
      </trkpt>
      <trkpt lat="45.04814" lon="5.84513">
        <ele>922.93127</ele>
        <time>2026-08-29T08:31:01.000Z</time>
      </trkpt>
      <trkpt lat="45.04816" lon="5.84516">
        <ele>923.113935</ele>
        <time>2026-08-29T08:31:02.000Z</time>
      </trkpt>
      <trkpt lat="45.04818" lon="5.84519">
        <ele>923.300092</ele>
        <time>2026-08-29T08:31:03.000Z</time>
      </trkpt>
      <trkpt lat="45.04819" lon="5.84522">
        <ele>923.499491</ele>
        <time>2026-08-29T08:31:04.000Z</time>
      </trkpt>
      <trkpt lat="45.0482" lon="5.84525">
        <ele>923.689897</ele>
        <time>2026-08-29T08:31:05.000Z</time>
      </trkpt>
      <trkpt lat="45.04823" lon="5.84528">
        <ele>923.909895</ele>
        <time>2026-08-29T08:31:06.000Z</time>
      </trkpt>
      <trkpt lat="45.04824" lon="5.8453">
        <ele>924.059049</ele>
        <time>2026-08-29T08:31:07.000Z</time>
      </trkpt>
      <trkpt lat="45.04826" lon="5.84533">
        <ele>924.269985</ele>
        <time>2026-08-29T08:31:08.000Z</time>
      </trkpt>
      <trkpt lat="45.04827" lon="5.84535">
        <ele>924.438987</ele>
        <time>2026-08-29T08:31:09.000Z</time>
      </trkpt>
      <trkpt lat="45.04829" lon="5.84538">
        <ele>924.634542</ele>
        <time>2026-08-29T08:31:10.000Z</time>
      </trkpt>
      <trkpt lat="45.0483" lon="5.84541">
        <ele>924.815079</ele>
        <time>2026-08-29T08:31:11.000Z</time>
      </trkpt>
      <trkpt lat="45.04832" lon="5.84544">
        <ele>925.018704</ele>
        <time>2026-08-29T08:31:12.000Z</time>
      </trkpt>
      <trkpt lat="45.04833" lon="5.84547">
        <ele>925.210301</ele>
        <time>2026-08-29T08:31:13.000Z</time>
      </trkpt>
      <trkpt lat="45.04835" lon="5.8455">
        <ele>925.413685</ele>
        <time>2026-08-29T08:31:14.000Z</time>
      </trkpt>
      <trkpt lat="45.04837" lon="5.84553">
        <ele>925.600377</ele>
        <time>2026-08-29T08:31:15.000Z</time>
      </trkpt>
      <trkpt lat="45.04838" lon="5.84555">
        <ele>925.794899</ele>
        <time>2026-08-29T08:31:16.000Z</time>
      </trkpt>
      <trkpt lat="45.0484" lon="5.84558">
        <ele>925.982574</ele>
        <time>2026-08-29T08:31:17.000Z</time>
      </trkpt>
      <trkpt lat="45.04842" lon="5.8456">
        <ele>926.151576</ele>
        <time>2026-08-29T08:31:18.000Z</time>
      </trkpt>
      <trkpt lat="45.04843" lon="5.84563">
        <ele>926.316024</ele>
        <time>2026-08-29T08:31:19.000Z</time>
      </trkpt>
      <trkpt lat="45.04844" lon="5.84565">
        <ele>926.48912</ele>
        <time>2026-08-29T08:31:20.000Z</time>
      </trkpt>
      <trkpt lat="45.04846" lon="5.84568">
        <ele>926.675812</ele>
        <time>2026-08-29T08:31:21.000Z</time>
      </trkpt>
      <trkpt lat="45.04847" lon="5.84571">
        <ele>926.874297</ele>
        <time>2026-08-29T08:31:22.000Z</time>
      </trkpt>
      <trkpt lat="45.04847" lon="5.84574">
        <ele>927.023925</ele>
        <time>2026-08-29T08:31:23.000Z</time>
      </trkpt>
      <trkpt lat="45.04848" lon="5.84578">
        <ele>927.186617</ele>
        <time>2026-08-29T08:31:24.000Z</time>
      </trkpt>
      <trkpt lat="45.04847" lon="5.84582">
        <ele>927.363452</ele>
        <time>2026-08-29T08:31:25.000Z</time>
      </trkpt>
      <trkpt lat="45.04847" lon="5.84585">
        <ele>927.537658</ele>
        <time>2026-08-29T08:31:26.000Z</time>
      </trkpt>
      <trkpt lat="45.04847" lon="5.84589">
        <ele>927.72008</ele>
        <time>2026-08-29T08:31:27.000Z</time>
      </trkpt>
      <trkpt lat="45.04844" lon="5.84592">
        <ele>927.920602</ele>
        <time>2026-08-29T08:31:28.000Z</time>
      </trkpt>
      <trkpt lat="45.04841" lon="5.84593">
        <ele>928.127736</ele>
        <time>2026-08-29T08:31:29.000Z</time>
      </trkpt>
      <trkpt lat="45.04839" lon="5.84592">
        <ele>928.283027</ele>
        <time>2026-08-29T08:31:30.000Z</time>
      </trkpt>
      <trkpt lat="45.04837" lon="5.84591">
        <ele>928.44771</ele>
        <time>2026-08-29T08:31:31.000Z</time>
      </trkpt>
      <trkpt lat="45.04835" lon="5.84589">
        <ele>928.612686</ele>
        <time>2026-08-29T08:31:32.000Z</time>
      </trkpt>
      <trkpt lat="45.04833" lon="5.84587">
        <ele>928.766478</ele>
        <time>2026-08-29T08:31:33.000Z</time>
      </trkpt>
      <trkpt lat="45.04832" lon="5.84585">
        <ele>928.926645</ele>
        <time>2026-08-29T08:31:34.000Z</time>
      </trkpt>
      <trkpt lat="45.0483" lon="5.84582">
        <ele>929.105569</ele>
        <time>2026-08-29T08:31:35.000Z</time>
      </trkpt>
      <trkpt lat="45.04828" lon="5.84579">
        <ele>929.289907</ele>
        <time>2026-08-29T08:31:36.000Z</time>
      </trkpt>
      <trkpt lat="45.04827" lon="5.84576">
        <ele>929.468622</ele>
        <time>2026-08-29T08:31:37.000Z</time>
      </trkpt>
      <trkpt lat="45.04825" lon="5.84572">
        <ele>929.650965</ele>
        <time>2026-08-29T08:31:38.000Z</time>
      </trkpt>
      <trkpt lat="45.04823" lon="5.84569">
        <ele>929.833568</ele>
        <time>2026-08-29T08:31:39.000Z</time>
      </trkpt>
      <trkpt lat="45.04822" lon="5.84566">
        <ele>930.004738</ele>
        <time>2026-08-29T08:31:40.000Z</time>
      </trkpt>
      <trkpt lat="45.04821" lon="5.84563">
        <ele>930.17088</ele>
        <time>2026-08-29T08:31:41.000Z</time>
      </trkpt>
      <trkpt lat="45.0482" lon="5.8456">
        <ele>930.337022</ele>
        <time>2026-08-29T08:31:42.000Z</time>
      </trkpt>
      <trkpt lat="45.04818" lon="5.84557">
        <ele>930.515946</ele>
        <time>2026-08-29T08:31:43.000Z</time>
      </trkpt>
      <trkpt lat="45.04817" lon="5.84554">
        <ele>930.68666</ele>
        <time>2026-08-29T08:31:44.000Z</time>
      </trkpt>
      <trkpt lat="45.04815" lon="5.84551">
        <ele>930.865136</ele>
        <time>2026-08-29T08:31:45.000Z</time>
      </trkpt>
      <trkpt lat="45.04814" lon="5.84548">
        <ele>931.047478</ele>
        <time>2026-08-29T08:31:46.000Z</time>
      </trkpt>
      <trkpt lat="45.04813" lon="5.84545">
        <ele>931.215318</ele>
        <time>2026-08-29T08:31:47.000Z</time>
      </trkpt>
      <trkpt lat="45.04811" lon="5.84542">
        <ele>931.390614</ele>
        <time>2026-08-29T08:31:48.000Z</time>
      </trkpt>
      <trkpt lat="45.04809" lon="5.84539">
        <ele>931.56688</ele>
        <time>2026-08-29T08:31:49.000Z</time>
      </trkpt>
      <trkpt lat="45.04807" lon="5.84537">
        <ele>931.75892</ele>
        <time>2026-08-29T08:31:50.000Z</time>
      </trkpt>
      <trkpt lat="45.04805" lon="5.84534">
        <ele>931.948529</ele>
        <time>2026-08-29T08:31:51.000Z</time>
      </trkpt>
      <trkpt lat="45.04803" lon="5.84532">
        <ele>932.129925</ele>
        <time>2026-08-29T08:31:52.000Z</time>
      </trkpt>
      <trkpt lat="45.04801" lon="5.8453">
        <ele>932.30311</ele>
        <time>2026-08-29T08:31:53.000Z</time>
      </trkpt>
      <trkpt lat="45.04798" lon="5.84528">
        <ele>932.473218</ele>
        <time>2026-08-29T08:31:54.000Z</time>
      </trkpt>
      <trkpt lat="45.04796" lon="5.84526">
        <ele>932.647674</ele>
        <time>2026-08-29T08:31:55.000Z</time>
      </trkpt>
      <trkpt lat="45.04794" lon="5.84526">
        <ele>932.810083</ele>
        <time>2026-08-29T08:31:56.000Z</time>
      </trkpt>
      <trkpt lat="45.04791" lon="5.84526">
        <ele>932.985077</ele>
        <time>2026-08-29T08:31:57.000Z</time>
      </trkpt>
      <trkpt lat="45.04788" lon="5.84526">
        <ele>933.188089</ele>
        <time>2026-08-29T08:31:58.000Z</time>
      </trkpt>
      <trkpt lat="45.04785" lon="5.84527">
        <ele>933.395223</ele>
        <time>2026-08-29T08:31:59.000Z</time>
      </trkpt>
      <trkpt lat="45.04782" lon="5.84528">
        <ele>933.593265</ele>
        <time>2026-08-29T08:32:00.000Z</time>
      </trkpt>
      <trkpt lat="45.0478" lon="5.8453">
        <ele>933.781959</ele>
        <time>2026-08-29T08:32:01.000Z</time>
      </trkpt>
      <trkpt lat="45.04777" lon="5.84531">
        <ele>933.968913</ele>
        <time>2026-08-29T08:32:02.000Z</time>
      </trkpt>
      <trkpt lat="45.04774" lon="5.84533">
        <ele>934.165564</ele>
        <time>2026-08-29T08:32:03.000Z</time>
      </trkpt>
      <trkpt lat="45.04772" lon="5.84535">
        <ele>934.348103</ele>
        <time>2026-08-29T08:32:04.000Z</time>
      </trkpt>
      <trkpt lat="45.0477" lon="5.84537">
        <ele>934.536608</ele>
        <time>2026-08-29T08:32:05.000Z</time>
      </trkpt>
      <trkpt lat="45.04767" lon="5.84538">
        <ele>934.715603</ele>
        <time>2026-08-29T08:32:06.000Z</time>
      </trkpt>
      <trkpt lat="45.04765" lon="5.84539">
        <ele>934.870894</ele>
        <time>2026-08-29T08:32:07.000Z</time>
      </trkpt>
      <trkpt lat="45.04762" lon="5.8454">
        <ele>935.039033</ele>
        <time>2026-08-29T08:32:08.000Z</time>
      </trkpt>
      <trkpt lat="45.0476" lon="5.84541">
        <ele>935.207171</ele>
        <time>2026-08-29T08:32:09.000Z</time>
      </trkpt>
      <trkpt lat="45.04758" lon="5.84542">
        <ele>935.379427</ele>
        <time>2026-08-29T08:32:10.000Z</time>
      </trkpt>
      <trkpt lat="45.04755" lon="5.84543">
        <ele>935.546287</ele>
        <time>2026-08-29T08:32:11.000Z</time>
      </trkpt>
      <trkpt lat="45.04753" lon="5.84544">
        <ele>935.726173</ele>
        <time>2026-08-29T08:32:12.000Z</time>
      </trkpt>
      <trkpt lat="45.0475" lon="5.84544">
        <ele>935.909176</ele>
        <time>2026-08-29T08:32:13.000Z</time>
      </trkpt>
      <trkpt lat="45.04747" lon="5.84544">
        <ele>936.083976</ele>
        <time>2026-08-29T08:32:14.000Z</time>
      </trkpt>
      <trkpt lat="45.04745" lon="5.84544">
        <ele>936.265991</ele>
        <time>2026-08-29T08:32:15.000Z</time>
      </trkpt>
      <trkpt lat="45.04742" lon="5.84544">
        <ele>936.434609</ele>
        <time>2026-08-29T08:32:16.000Z</time>
      </trkpt>
      <trkpt lat="45.0474" lon="5.84544">
        <ele>936.602624</ele>
        <time>2026-08-29T08:32:17.000Z</time>
      </trkpt>
      <trkpt lat="45.04737" lon="5.84543">
        <ele>936.764327</ele>
        <time>2026-08-29T08:32:18.000Z</time>
      </trkpt>
      <trkpt lat="45.04735" lon="5.84543">
        <ele>936.932409</ele>
        <time>2026-08-29T08:32:19.000Z</time>
      </trkpt>
      <trkpt lat="45.04732" lon="5.84542">
        <ele>937.098117</ele>
        <time>2026-08-29T08:32:20.000Z</time>
      </trkpt>
      <trkpt lat="45.0473" lon="5.84541">
        <ele>937.266255</ele>
        <time>2026-08-29T08:32:21.000Z</time>
      </trkpt>
      <trkpt lat="45.04728" lon="5.8454">
        <ele>937.429415</ele>
        <time>2026-08-29T08:32:22.000Z</time>
      </trkpt>
      <trkpt lat="45.04725" lon="5.84539">
        <ele>937.587868</ele>
        <time>2026-08-29T08:32:23.000Z</time>
      </trkpt>
      <trkpt lat="45.04724" lon="5.84538">
        <ele>937.712149</ele>
        <time>2026-08-29T08:32:24.000Z</time>
      </trkpt>
      <trkpt lat="45.04722" lon="5.84537">
        <ele>937.848642</ele>
        <time>2026-08-29T08:32:25.000Z</time>
      </trkpt>
      <trkpt lat="45.0472" lon="5.84537">
        <ele>937.989854</ele>
        <time>2026-08-29T08:32:26.000Z</time>
      </trkpt>
      <trkpt lat="45.04718" lon="5.84536">
        <ele>938.129682</ele>
        <time>2026-08-29T08:32:27.000Z</time>
      </trkpt>
      <trkpt lat="45.04716" lon="5.84536">
        <ele>938.240922</ele>
        <time>2026-08-29T08:32:28.000Z</time>
      </trkpt>
      <trkpt lat="45.04715" lon="5.84535">
        <ele>938.352354</ele>
        <time>2026-08-29T08:32:29.000Z</time>
      </trkpt>
      <trkpt lat="45.04713" lon="5.84533">
        <ele>938.468152</ele>
        <time>2026-08-29T08:32:30.000Z</time>
      </trkpt>
      <trkpt lat="45.04711" lon="5.84532">
        <ele>938.61864</ele>
        <time>2026-08-29T08:32:31.000Z</time>
      </trkpt>
      <trkpt lat="45.04709" lon="5.84531">
        <ele>938.758467</ele>
        <time>2026-08-29T08:32:32.000Z</time>
      </trkpt>
      <trkpt lat="45.04707" lon="5.8453">
        <ele>938.923209</ele>
        <time>2026-08-29T08:32:33.000Z</time>
      </trkpt>
      <trkpt lat="45.04705" lon="5.84528">
        <ele>939.133069</ele>
        <time>2026-08-29T08:32:34.000Z</time>
      </trkpt>
      <trkpt lat="45.04703" lon="5.84526">
        <ele>939.314363</ele>
        <time>2026-08-29T08:32:35.000Z</time>
      </trkpt>
      <trkpt lat="45.04701" lon="5.84525">
        <ele>939.451486</ele>
        <time>2026-08-29T08:32:36.000Z</time>
      </trkpt>
      <trkpt lat="45.04699" lon="5.84524">
        <ele>939.628291</ele>
        <time>2026-08-29T08:32:37.000Z</time>
      </trkpt>
      <trkpt lat="45.04697" lon="5.84523">
        <ele>939.82582</ele>
        <time>2026-08-29T08:32:38.000Z</time>
      </trkpt>
      <trkpt lat="45.04696" lon="5.84521">
        <ele>939.987703</ele>
        <time>2026-08-29T08:32:39.000Z</time>
      </trkpt>
      <trkpt lat="45.04694" lon="5.84519">
        <ele>940.179252</ele>
        <time>2026-08-29T08:32:40.000Z</time>
      </trkpt>
      <trkpt lat="45.04692" lon="5.84518">
        <ele>940.341751</ele>
        <time>2026-08-29T08:32:41.000Z</time>
      </trkpt>
      <trkpt lat="45.04691" lon="5.84515">
        <ele>940.524563</ele>
        <time>2026-08-29T08:32:42.000Z</time>
      </trkpt>
      <trkpt lat="45.04689" lon="5.84514">
        <ele>940.706833</ele>
        <time>2026-08-29T08:32:43.000Z</time>
      </trkpt>
      <trkpt lat="45.04687" lon="5.84513">
        <ele>940.845745</ele>
        <time>2026-08-29T08:32:44.000Z</time>
      </trkpt>
      <trkpt lat="45.04686" lon="5.84512">
        <ele>941.0049</ele>
        <time>2026-08-29T08:32:45.000Z</time>
      </trkpt>
      <trkpt lat="45.04684" lon="5.84511">
        <ele>941.176884</ele>
        <time>2026-08-29T08:32:46.000Z</time>
      </trkpt>
      <trkpt lat="45.04682" lon="5.8451">
        <ele>941.352708</ele>
        <time>2026-08-29T08:32:47.000Z</time>
      </trkpt>
      <trkpt lat="45.04679" lon="5.8451">
        <ele>941.554127</ele>
        <time>2026-08-29T08:32:48.000Z</time>
      </trkpt>
      <trkpt lat="45.04677" lon="5.84509">
        <ele>941.758311</ele>
        <time>2026-08-29T08:32:49.000Z</time>
      </trkpt>
      <trkpt lat="45.04675" lon="5.84509">
        <ele>941.927535</ele>
        <time>2026-08-29T08:32:50.000Z</time>
      </trkpt>
      <trkpt lat="45.04672" lon="5.84508">
        <ele>942.137068</ele>
        <time>2026-08-29T08:32:51.000Z</time>
      </trkpt>
      <trkpt lat="45.04671" lon="5.84507">
        <ele>942.315145</ele>
        <time>2026-08-29T08:32:52.000Z</time>
      </trkpt>
      <trkpt lat="45.04668" lon="5.84506">
        <ele>942.511083</ele>
        <time>2026-08-29T08:32:53.000Z</time>
      </trkpt>
      <trkpt lat="45.04666" lon="5.84505">
        <ele>942.720686</ele>
        <time>2026-08-29T08:32:54.000Z</time>
      </trkpt>
      <trkpt lat="45.04663" lon="5.84504">
        <ele>942.95308</ele>
        <time>2026-08-29T08:32:55.000Z</time>
      </trkpt>
      <trkpt lat="45.0466" lon="5.84503">
        <ele>943.199962</ele>
        <time>2026-08-29T08:32:56.000Z</time>
      </trkpt>
      <trkpt lat="45.04658" lon="5.84503">
        <ele>943.411492</ele>
        <time>2026-08-29T08:32:57.000Z</time>
      </trkpt>
      <trkpt lat="45.04656" lon="5.84501">
        <ele>943.60902</ele>
        <time>2026-08-29T08:32:58.000Z</time>
      </trkpt>
      <trkpt lat="45.04653" lon="5.84501">
        <ele>943.79485</ele>
        <time>2026-08-29T08:32:59.000Z</time>
      </trkpt>
      <trkpt lat="45.04651" lon="5.845">
        <ele>943.991948</ele>
        <time>2026-08-29T08:33:00.000Z</time>
      </trkpt>
      <trkpt lat="45.04649" lon="5.84499">
        <ele>944.153832</ele>
        <time>2026-08-29T08:33:01.000Z</time>
      </trkpt>
      <trkpt lat="45.04648" lon="5.84498">
        <ele>944.325905</ele>
        <time>2026-08-29T08:33:02.000Z</time>
      </trkpt>
      <trkpt lat="45.04646" lon="5.84496">
        <ele>944.503982</ele>
        <time>2026-08-29T08:33:03.000Z</time>
      </trkpt>
      <trkpt lat="45.04644" lon="5.84494">
        <ele>944.716042</ele>
        <time>2026-08-29T08:33:04.000Z</time>
      </trkpt>
      <trkpt lat="45.04642" lon="5.84492">
        <ele>944.920628</ele>
        <time>2026-08-29T08:33:05.000Z</time>
      </trkpt>
      <trkpt lat="45.0464" lon="5.8449">
        <ele>945.091535</ele>
        <time>2026-08-29T08:33:06.000Z</time>
      </trkpt>
      <trkpt lat="45.04639" lon="5.84488">
        <ele>945.256053</ele>
        <time>2026-08-29T08:33:07.000Z</time>
      </trkpt>
      <trkpt lat="45.04637" lon="5.84486">
        <ele>945.437026</ele>
        <time>2026-08-29T08:33:08.000Z</time>
      </trkpt>
      <trkpt lat="45.04636" lon="5.84483">
        <ele>945.637095</ele>
        <time>2026-08-29T08:33:09.000Z</time>
      </trkpt>
      <trkpt lat="45.04635" lon="5.8448">
        <ele>945.83002</ele>
        <time>2026-08-29T08:33:10.000Z</time>
      </trkpt>
      <trkpt lat="45.04635" lon="5.84478">
        <ele>945.981768</ele>
        <time>2026-08-29T08:33:11.000Z</time>
      </trkpt>
      <trkpt lat="45.04633" lon="5.84475">
        <ele>946.151009</ele>
        <time>2026-08-29T08:33:12.000Z</time>
      </trkpt>
      <trkpt lat="45.04633" lon="5.84473">
        <ele>946.321251</ele>
        <time>2026-08-29T08:33:13.000Z</time>
      </trkpt>
      <trkpt lat="45.04632" lon="5.8447">
        <ele>946.471946</ele>
        <time>2026-08-29T08:33:14.000Z</time>
      </trkpt>
      <trkpt lat="45.04631" lon="5.84468">
        <ele>946.631126</ele>
        <time>2026-08-29T08:33:15.000Z</time>
      </trkpt>
      <trkpt lat="45.0463" lon="5.84465">
        <ele>946.82453</ele>
        <time>2026-08-29T08:33:16.000Z</time>
      </trkpt>
      <trkpt lat="45.04629" lon="5.84464">
        <ele>946.957886</ele>
        <time>2026-08-29T08:33:17.000Z</time>
      </trkpt>
      <trkpt lat="45.04627" lon="5.84462">
        <ele>947.128926</ele>
        <time>2026-08-29T08:33:18.000Z</time>
      </trkpt>
      <trkpt lat="45.04626" lon="5.8446">
        <ele>947.278954</ele>
        <time>2026-08-29T08:33:19.000Z</time>
      </trkpt>
      <trkpt lat="45.04624" lon="5.84458">
        <ele>947.453933</ele>
        <time>2026-08-29T08:33:20.000Z</time>
      </trkpt>
      <trkpt lat="45.04623" lon="5.84456">
        <ele>947.616433</ele>
        <time>2026-08-29T08:33:21.000Z</time>
      </trkpt>
      <trkpt lat="45.04621" lon="5.84455">
        <ele>947.801079</ele>
        <time>2026-08-29T08:33:22.000Z</time>
      </trkpt>
      <trkpt lat="45.0462" lon="5.84452">
        <ele>947.990121</ele>
        <time>2026-08-29T08:33:23.000Z</time>
      </trkpt>
      <trkpt lat="45.04618" lon="5.84451">
        <ele>948.1651</ele>
        <time>2026-08-29T08:33:24.000Z</time>
      </trkpt>
      <trkpt lat="45.04617" lon="5.84449">
        <ele>948.331752</ele>
        <time>2026-08-29T08:33:25.000Z</time>
      </trkpt>
      <trkpt lat="45.04615" lon="5.84447">
        <ele>948.496532</ele>
        <time>2026-08-29T08:33:26.000Z</time>
      </trkpt>
      <trkpt lat="45.04613" lon="5.84446">
        <ele>948.667573</ele>
        <time>2026-08-29T08:33:27.000Z</time>
      </trkpt>
      <trkpt lat="45.04612" lon="5.84444">
        <ele>948.825168</ele>
        <time>2026-08-29T08:33:28.000Z</time>
      </trkpt>
      <trkpt lat="45.0461" lon="5.84442">
        <ele>949.01421</ele>
        <time>2026-08-29T08:33:29.000Z</time>
      </trkpt>
      <trkpt lat="45.04608" lon="5.8444">
        <ele>949.21402</ele>
        <time>2026-08-29T08:33:30.000Z</time>
      </trkpt>
      <trkpt lat="45.04606" lon="5.84439">
        <ele>949.395315</ele>
        <time>2026-08-29T08:33:31.000Z</time>
      </trkpt>
      <trkpt lat="45.04604" lon="5.84437">
        <ele>949.569703</ele>
        <time>2026-08-29T08:33:32.000Z</time>
      </trkpt>
      <trkpt lat="45.04602" lon="5.84435">
        <ele>949.765157</ele>
        <time>2026-08-29T08:33:33.000Z</time>
      </trkpt>
      <trkpt lat="45.046" lon="5.84433">
        <ele>949.966962</ele>
        <time>2026-08-29T08:33:34.000Z</time>
      </trkpt>
      <trkpt lat="45.04598" lon="5.84432">
        <ele>950.151608</ele>
        <time>2026-08-29T08:33:35.000Z</time>
      </trkpt>
      <trkpt lat="45.04597" lon="5.8443">
        <ele>950.336254</ele>
        <time>2026-08-29T08:33:36.000Z</time>
      </trkpt>
      <trkpt lat="45.04595" lon="5.84428">
        <ele>950.548314</ele>
        <time>2026-08-29T08:33:37.000Z</time>
      </trkpt>
      <trkpt lat="45.04593" lon="5.84426">
        <ele>950.713073</ele>
        <time>2026-08-29T08:33:38.000Z</time>
      </trkpt>
      <trkpt lat="45.04592" lon="5.84424">
        <ele>950.869633</ele>
        <time>2026-08-29T08:33:39.000Z</time>
      </trkpt>
      <trkpt lat="45.0459" lon="5.84422">
        <ele>951.054837</ele>
        <time>2026-08-29T08:33:40.000Z</time>
      </trkpt>
      <trkpt lat="45.04588" lon="5.8442">
        <ele>951.253404</ele>
        <time>2026-08-29T08:33:41.000Z</time>
      </trkpt>
      <trkpt lat="45.04587" lon="5.84419">
        <ele>951.414398</ele>
        <time>2026-08-29T08:33:42.000Z</time>
      </trkpt>
      <trkpt lat="45.04585" lon="5.84416">
        <ele>951.589658</ele>
        <time>2026-08-29T08:33:43.000Z</time>
      </trkpt>
      <trkpt lat="45.04584" lon="5.84414">
        <ele>951.773886</ele>
        <time>2026-08-29T08:33:44.000Z</time>
      </trkpt>
      <trkpt lat="45.04582" lon="5.84412">
        <ele>951.953588</ele>
        <time>2026-08-29T08:33:45.000Z</time>
      </trkpt>
      <trkpt lat="45.04581" lon="5.8441">
        <ele>952.128849</ele>
        <time>2026-08-29T08:33:46.000Z</time>
      </trkpt>
      <trkpt lat="45.0458" lon="5.84407">
        <ele>952.313076</ele>
        <time>2026-08-29T08:33:47.000Z</time>
      </trkpt>
      <trkpt lat="45.04578" lon="5.84405">
        <ele>952.494051</ele>
        <time>2026-08-29T08:33:48.000Z</time>
      </trkpt>
      <trkpt lat="45.04576" lon="5.84403">
        <ele>952.69243</ele>
        <time>2026-08-29T08:33:49.000Z</time>
      </trkpt>
      <trkpt lat="45.04575" lon="5.84401">
        <ele>952.867409</ele>
        <time>2026-08-29T08:33:50.000Z</time>
      </trkpt>
      <trkpt lat="45.04573" lon="5.84399">
        <ele>953.040061</ele>
        <time>2026-08-29T08:33:51.000Z</time>
      </trkpt>
      <trkpt lat="45.04571" lon="5.84397">
        <ele>953.222875</ele>
        <time>2026-08-29T08:33:52.000Z</time>
      </trkpt>
      <trkpt lat="45.0457" lon="5.84395">
        <ele>953.397854</ele>
        <time>2026-08-29T08:33:53.000Z</time>
      </trkpt>
      <trkpt lat="45.04568" lon="5.84393">
        <ele>953.566502</ele>
        <time>2026-08-29T08:33:54.000Z</time>
      </trkpt>
      <trkpt lat="45.04567" lon="5.84391">
        <ele>953.73741</ele>
        <time>2026-08-29T08:33:55.000Z</time>
      </trkpt>
      <trkpt lat="45.04565" lon="5.84389">
        <ele>953.914173</ele>
        <time>2026-08-29T08:33:56.000Z</time>
      </trkpt>
      <trkpt lat="45.04564" lon="5.84387">
        <ele>954.089151</ele>
        <time>2026-08-29T08:33:57.000Z</time>
      </trkpt>
      <trkpt lat="45.04562" lon="5.84386">
        <ele>954.280339</ele>
        <time>2026-08-29T08:33:58.000Z</time>
      </trkpt>
      <trkpt lat="45.0456" lon="5.84385">
        <ele>954.440802</ele>
        <time>2026-08-29T08:33:59.000Z</time>
      </trkpt>
      <trkpt lat="45.04558" lon="5.84383">
        <ele>954.599692</ele>
        <time>2026-08-29T08:34:00.000Z</time>
      </trkpt>
      <trkpt lat="45.04557" lon="5.84382">
        <ele>954.765301</ele>
        <time>2026-08-29T08:34:01.000Z</time>
      </trkpt>
      <trkpt lat="45.04555" lon="5.84381">
        <ele>954.952453</ele>
        <time>2026-08-29T08:34:02.000Z</time>
      </trkpt>
      <trkpt lat="45.04553" lon="5.8438">
        <ele>955.13162</ele>
        <time>2026-08-29T08:34:03.000Z</time>
      </trkpt>
      <trkpt lat="45.04551" lon="5.84379">
        <ele>955.294956</ele>
        <time>2026-08-29T08:34:04.000Z</time>
      </trkpt>
      <trkpt lat="45.04549" lon="5.84379">
        <ele>955.466506</ele>
        <time>2026-08-29T08:34:05.000Z</time>
      </trkpt>
      <trkpt lat="45.04547" lon="5.84378">
        <ele>955.655753</ele>
        <time>2026-08-29T08:34:06.000Z</time>
      </trkpt>
      <trkpt lat="45.04544" lon="5.84377">
        <ele>955.85447</ele>
        <time>2026-08-29T08:34:07.000Z</time>
      </trkpt>
      <trkpt lat="45.04542" lon="5.84377">
        <ele>956.012146</ele>
        <time>2026-08-29T08:34:08.000Z</time>
      </trkpt>
      <trkpt lat="45.0454" lon="5.84376">
        <ele>956.199299</ele>
        <time>2026-08-29T08:34:09.000Z</time>
      </trkpt>
      <trkpt lat="45.04538" lon="5.84375">
        <ele>956.387508</ele>
        <time>2026-08-29T08:34:10.000Z</time>
      </trkpt>
      <trkpt lat="45.04536" lon="5.84374">
        <ele>956.571203</ele>
        <time>2026-08-29T08:34:11.000Z</time>
      </trkpt>
      <trkpt lat="45.04534" lon="5.84374">
        <ele>956.760451</ele>
        <time>2026-08-29T08:34:12.000Z</time>
      </trkpt>
      <trkpt lat="45.04532" lon="5.84373">
        <ele>956.931064</ele>
        <time>2026-08-29T08:34:13.000Z</time>
      </trkpt>
      <trkpt lat="45.0453" lon="5.84373">
        <ele>957.117754</ele>
        <time>2026-08-29T08:34:14.000Z</time>
      </trkpt>
      <trkpt lat="45.04528" lon="5.84372">
        <ele>957.297628</ele>
        <time>2026-08-29T08:34:15.000Z</time>
      </trkpt>
      <trkpt lat="45.04525" lon="5.84372">
        <ele>957.494182</ele>
        <time>2026-08-29T08:34:16.000Z</time>
      </trkpt>
      <trkpt lat="45.04523" lon="5.84371">
        <ele>957.689359</ele>
        <time>2026-08-29T08:34:17.000Z</time>
      </trkpt>
      <trkpt lat="45.04521" lon="5.8437">
        <ele>957.897628</ele>
        <time>2026-08-29T08:34:18.000Z</time>
      </trkpt>
      <trkpt lat="45.04519" lon="5.8437">
        <ele>958.070316</ele>
        <time>2026-08-29T08:34:19.000Z</time>
      </trkpt>
      <trkpt lat="45.04517" lon="5.84369">
        <ele>958.254011</ele>
        <time>2026-08-29T08:34:20.000Z</time>
      </trkpt>
      <trkpt lat="45.04515" lon="5.84368">
        <ele>958.422076</ele>
        <time>2026-08-29T08:34:21.000Z</time>
      </trkpt>
      <trkpt lat="45.04513" lon="5.84366">
        <ele>958.591068</ele>
        <time>2026-08-29T08:34:22.000Z</time>
      </trkpt>
      <trkpt lat="45.04512" lon="5.84364">
        <ele>958.756547</ele>
        <time>2026-08-29T08:34:23.000Z</time>
      </trkpt>
      <trkpt lat="45.0451" lon="5.84363">
        <ele>958.939331</ele>
        <time>2026-08-29T08:34:24.000Z</time>
      </trkpt>
      <trkpt lat="45.04508" lon="5.8436">
        <ele>959.133904</ele>
        <time>2026-08-29T08:34:25.000Z</time>
      </trkpt>
      <trkpt lat="45.04507" lon="5.84358">
        <ele>959.300533</ele>
        <time>2026-08-29T08:34:26.000Z</time>
      </trkpt>
      <trkpt lat="45.04505" lon="5.84356">
        <ele>959.471696</ele>
        <time>2026-08-29T08:34:27.000Z</time>
      </trkpt>
      <trkpt lat="45.04504" lon="5.84354">
        <ele>959.652875</ele>
        <time>2026-08-29T08:34:28.000Z</time>
      </trkpt>
      <trkpt lat="45.04503" lon="5.84351">
        <ele>959.821795</ele>
        <time>2026-08-29T08:34:29.000Z</time>
      </trkpt>
      <trkpt lat="45.04503" lon="5.84348">
        <ele>959.985032</ele>
        <time>2026-08-29T08:34:30.000Z</time>
      </trkpt>
      <trkpt lat="45.04503" lon="5.84346">
        <ele>960.152138</ele>
        <time>2026-08-29T08:34:31.000Z</time>
      </trkpt>
      <trkpt lat="45.04503" lon="5.84343">
        <ele>960.331379</ele>
        <time>2026-08-29T08:34:32.000Z</time>
      </trkpt>
      <trkpt lat="45.04502" lon="5.8434">
        <ele>960.500395</ele>
        <time>2026-08-29T08:34:33.000Z</time>
      </trkpt>
      <trkpt lat="45.04502" lon="5.84337">
        <ele>960.684351</ele>
        <time>2026-08-29T08:34:34.000Z</time>
      </trkpt>
      <trkpt lat="45.04502" lon="5.84334">
        <ele>960.866553</ele>
        <time>2026-08-29T08:34:35.000Z</time>
      </trkpt>
      <trkpt lat="45.04501" lon="5.84331">
        <ele>961.048755</ele>
        <time>2026-08-29T08:34:36.000Z</time>
      </trkpt>
      <trkpt lat="45.04501" lon="5.84328">
        <ele>961.23992</ele>
        <time>2026-08-29T08:34:37.000Z</time>
      </trkpt>
      <trkpt lat="45.045" lon="5.84325">
        <ele>961.425997</ele>
        <time>2026-08-29T08:34:38.000Z</time>
      </trkpt>
      <trkpt lat="45.045" lon="5.84322">
        <ele>961.617823</ele>
        <time>2026-08-29T08:34:39.000Z</time>
      </trkpt>
      <trkpt lat="45.045" lon="5.84318">
        <ele>961.80456</ele>
        <time>2026-08-29T08:34:40.000Z</time>
      </trkpt>
      <trkpt lat="45.04499" lon="5.84316">
        <ele>961.977352</ele>
        <time>2026-08-29T08:34:41.000Z</time>
      </trkpt>
      <trkpt lat="45.04498" lon="5.84313">
        <ele>962.146271</ele>
        <time>2026-08-29T08:34:42.000Z</time>
      </trkpt>
      <trkpt lat="45.04498" lon="5.84311">
        <ele>962.307086</ele>
        <time>2026-08-29T08:34:43.000Z</time>
      </trkpt>
      <trkpt lat="45.04497" lon="5.84308">
        <ele>962.478539</ele>
        <time>2026-08-29T08:34:44.000Z</time>
      </trkpt>
      <trkpt lat="45.04496" lon="5.84305">
        <ele>962.660473</ele>
        <time>2026-08-29T08:34:45.000Z</time>
      </trkpt>
      <trkpt lat="45.04494" lon="5.84303">
        <ele>962.84648</ele>
        <time>2026-08-29T08:34:46.000Z</time>
      </trkpt>
      <trkpt lat="45.04493" lon="5.843">
        <ele>963.046807</ele>
        <time>2026-08-29T08:34:47.000Z</time>
      </trkpt>
      <trkpt lat="45.04492" lon="5.84297">
        <ele>963.239394</ele>
        <time>2026-08-29T08:34:48.000Z</time>
      </trkpt>
      <trkpt lat="45.04491" lon="5.84294">
        <ele>963.429761</ele>
        <time>2026-08-29T08:34:49.000Z</time>
      </trkpt>
      <trkpt lat="45.04489" lon="5.84292">
        <ele>963.622392</ele>
        <time>2026-08-29T08:34:50.000Z</time>
      </trkpt>
      <trkpt lat="45.04488" lon="5.8429">
        <ele>963.797863</ele>
        <time>2026-08-29T08:34:51.000Z</time>
      </trkpt>
      <trkpt lat="45.04486" lon="5.84287">
        <ele>964.025855</ele>
        <time>2026-08-29T08:34:52.000Z</time>
      </trkpt>
      <trkpt lat="45.04484" lon="5.84285">
        <ele>964.229482</ele>
        <time>2026-08-29T08:34:53.000Z</time>
      </trkpt>
      <trkpt lat="45.04482" lon="5.84284">
        <ele>964.41623</ele>
        <time>2026-08-29T08:34:54.000Z</time>
      </trkpt>
      <trkpt lat="45.0448" lon="5.84282">
        <ele>964.609528</ele>
        <time>2026-08-29T08:34:55.000Z</time>
      </trkpt>
      <trkpt lat="45.04478" lon="5.8428">
        <ele>964.806034</ele>
        <time>2026-08-29T08:34:56.000Z</time>
      </trkpt>
      <trkpt lat="45.04477" lon="5.84278">
        <ele>964.999331</ele>
        <time>2026-08-29T08:34:57.000Z</time>
      </trkpt>
      <trkpt lat="45.04475" lon="5.84276">
        <ele>965.200219</ele>
        <time>2026-08-29T08:34:58.000Z</time>
      </trkpt>
      <trkpt lat="45.04473" lon="5.84273">
        <ele>965.387022</ele>
        <time>2026-08-29T08:34:59.000Z</time>
      </trkpt>
      <trkpt lat="45.04472" lon="5.84271">
        <ele>965.577116</ele>
        <time>2026-08-29T08:35:00.000Z</time>
      </trkpt>
      <trkpt lat="45.0447" lon="5.84268">
        <ele>965.772857</ele>
        <time>2026-08-29T08:35:01.000Z</time>
      </trkpt>
      <trkpt lat="45.04469" lon="5.84266">
        <ele>965.957174</ele>
        <time>2026-08-29T08:35:02.000Z</time>
      </trkpt>
      <trkpt lat="45.04467" lon="5.84264">
        <ele>966.145599</ele>
        <time>2026-08-29T08:35:03.000Z</time>
      </trkpt>
      <trkpt lat="45.04465" lon="5.84262">
        <ele>966.33527</ele>
        <time>2026-08-29T08:35:04.000Z</time>
      </trkpt>
      <trkpt lat="45.04464" lon="5.8426">
        <ele>966.518055</ele>
        <time>2026-08-29T08:35:05.000Z</time>
      </trkpt>
      <trkpt lat="45.04462" lon="5.84259">
        <ele>966.693876</ele>
        <time>2026-08-29T08:35:06.000Z</time>
      </trkpt>
      <trkpt lat="45.0446" lon="5.84257">
        <ele>966.88004</ele>
        <time>2026-08-29T08:35:07.000Z</time>
      </trkpt>
      <trkpt lat="45.04459" lon="5.84255">
        <ele>967.052683</ele>
        <time>2026-08-29T08:35:08.000Z</time>
      </trkpt>
      <trkpt lat="45.04457" lon="5.84253">
        <ele>967.239431</ele>
        <time>2026-08-29T08:35:09.000Z</time>
      </trkpt>
      <trkpt lat="45.04455" lon="5.84252">
        <ele>967.433038</ele>
        <time>2026-08-29T08:35:10.000Z</time>
      </trkpt>
      <trkpt lat="45.04452" lon="5.84251">
        <ele>967.634602</ele>
        <time>2026-08-29T08:35:11.000Z</time>
      </trkpt>
      <trkpt lat="45.0445" lon="5.8425">
        <ele>967.837838</ele>
        <time>2026-08-29T08:35:12.000Z</time>
      </trkpt>
      <trkpt lat="45.04447" lon="5.8425">
        <ele>968.050352</ele>
        <time>2026-08-29T08:35:13.000Z</time>
      </trkpt>
      <trkpt lat="45.04445" lon="5.8425">
        <ele>968.253162</ele>
        <time>2026-08-29T08:35:14.000Z</time>
      </trkpt>
      <trkpt lat="45.04442" lon="5.8425">
        <ele>968.473507</ele>
        <time>2026-08-29T08:35:15.000Z</time>
      </trkpt>
      <trkpt lat="45.0444" lon="5.8425">
        <ele>968.685433</ele>
        <time>2026-08-29T08:35:16.000Z</time>
      </trkpt>
      <trkpt lat="45.04438" lon="5.84251">
        <ele>968.882982</ele>
        <time>2026-08-29T08:35:17.000Z</time>
      </trkpt>
      <trkpt lat="45.04436" lon="5.84252">
        <ele>969.057006</ele>
        <time>2026-08-29T08:35:18.000Z</time>
      </trkpt>
      <trkpt lat="45.04433" lon="5.84252">
        <ele>969.244216</ele>
        <time>2026-08-29T08:35:19.000Z</time>
      </trkpt>
      <trkpt lat="45.04431" lon="5.84252">
        <ele>969.424949</ele>
        <time>2026-08-29T08:35:20.000Z</time>
      </trkpt>
      <trkpt lat="45.04429" lon="5.84252">
        <ele>969.614599</ele>
        <time>2026-08-29T08:35:21.000Z</time>
      </trkpt>
      <trkpt lat="45.04426" lon="5.84253">
        <ele>969.820607</ele>
        <time>2026-08-29T08:35:22.000Z</time>
      </trkpt>
      <trkpt lat="45.04425" lon="5.84253">
        <ele>969.976722</ele>
        <time>2026-08-29T08:35:23.000Z</time>
      </trkpt>
      <trkpt lat="45.04422" lon="5.84253">
        <ele>970.14954</ele>
        <time>2026-08-29T08:35:24.000Z</time>
      </trkpt>
      <trkpt lat="45.0442" lon="5.84253">
        <ele>970.347962</ele>
        <time>2026-08-29T08:35:25.000Z</time>
      </trkpt>
      <trkpt lat="45.04418" lon="5.84254">
        <ele>970.539994</ele>
        <time>2026-08-29T08:35:26.000Z</time>
      </trkpt>
      <trkpt lat="45.04416" lon="5.84254">
        <ele>970.721005</ele>
        <time>2026-08-29T08:35:27.000Z</time>
      </trkpt>
      <trkpt lat="45.04413" lon="5.84254">
        <ele>970.893823</ele>
        <time>2026-08-29T08:35:28.000Z</time>
      </trkpt>
      <trkpt lat="45.04411" lon="5.84254">
        <ele>971.074462</ele>
        <time>2026-08-29T08:35:29.000Z</time>
      </trkpt>
      <trkpt lat="45.04409" lon="5.84254">
        <ele>971.239599</ele>
        <time>2026-08-29T08:35:30.000Z</time>
      </trkpt>
      <trkpt lat="45.04407" lon="5.84254">
        <ele>971.423562</ele>
        <time>2026-08-29T08:35:31.000Z</time>
      </trkpt>
      <trkpt lat="45.04405" lon="5.84253">
        <ele>971.586326</ele>
        <time>2026-08-29T08:35:32.000Z</time>
      </trkpt>
      <trkpt lat="45.04403" lon="5.84252">
        <ele>971.745006</ele>
        <time>2026-08-29T08:35:33.000Z</time>
      </trkpt>
      <trkpt lat="45.04401" lon="5.84251">
        <ele>971.913561</ele>
        <time>2026-08-29T08:35:34.000Z</time>
      </trkpt>
      <trkpt lat="45.044" lon="5.8425">
        <ele>972.076932</ele>
        <time>2026-08-29T08:35:35.000Z</time>
      </trkpt>
      <trkpt lat="45.04398" lon="5.84249">
        <ele>972.235706</ele>
        <time>2026-08-29T08:35:36.000Z</time>
      </trkpt>
      <trkpt lat="45.04396" lon="5.84247">
        <ele>972.393288</ele>
        <time>2026-08-29T08:35:37.000Z</time>
      </trkpt>
      <trkpt lat="45.04394" lon="5.84246">
        <ele>972.577855</ele>
        <time>2026-08-29T08:35:38.000Z</time>
      </trkpt>
      <trkpt lat="45.04392" lon="5.84244">
        <ele>972.766492</ele>
        <time>2026-08-29T08:35:39.000Z</time>
      </trkpt>
      <trkpt lat="45.04391" lon="5.84242">
        <ele>972.935702</ele>
        <time>2026-08-29T08:35:40.000Z</time>
      </trkpt>
      <trkpt lat="45.04389" lon="5.8424">
        <ele>973.103524</ele>
        <time>2026-08-29T08:35:41.000Z</time>
      </trkpt>
      <trkpt lat="45.04388" lon="5.84238">
        <ele>973.255745</ele>
        <time>2026-08-29T08:35:42.000Z</time>
      </trkpt>
      <trkpt lat="45.04386" lon="5.84237">
        <ele>973.423376</ele>
        <time>2026-08-29T08:35:43.000Z</time>
      </trkpt>
      <trkpt lat="45.04384" lon="5.84236">
        <ele>973.57665</ele>
        <time>2026-08-29T08:35:44.000Z</time>
      </trkpt>
      <trkpt lat="45.04382" lon="5.84235">
        <ele>973.764851</ele>
        <time>2026-08-29T08:35:45.000Z</time>
      </trkpt>
      <trkpt lat="45.04381" lon="5.84233">
        <ele>973.936363</ele>
        <time>2026-08-29T08:35:46.000Z</time>
      </trkpt>
      <trkpt lat="45.04379" lon="5.84232">
        <ele>974.107199</ele>
        <time>2026-08-29T08:35:47.000Z</time>
      </trkpt>
      <trkpt lat="45.04377" lon="5.84231">
        <ele>974.287907</ele>
        <time>2026-08-29T08:35:48.000Z</time>
      </trkpt>
      <trkpt lat="45.04375" lon="5.8423">
        <ele>974.458743</ele>
        <time>2026-08-29T08:35:49.000Z</time>
      </trkpt>
      <trkpt lat="45.04373" lon="5.84228">
        <ele>974.634626</ele>
        <time>2026-08-29T08:35:50.000Z</time>
      </trkpt>
      <trkpt lat="45.04371" lon="5.84227">
        <ele>974.823262</ele>
        <time>2026-08-29T08:35:51.000Z</time>
      </trkpt>
      <trkpt lat="45.04369" lon="5.84225">
        <ele>975.011899</ele>
        <time>2026-08-29T08:35:52.000Z</time>
      </trkpt>
      <trkpt lat="45.04367" lon="5.84223">
        <ele>975.210541</ele>
        <time>2026-08-29T08:35:53.000Z</time>
      </trkpt>
      <trkpt lat="45.04365" lon="5.84222">
        <ele>975.409183</ele>
        <time>2026-08-29T08:35:54.000Z</time>
      </trkpt>
      <trkpt lat="45.04363" lon="5.8422">
        <ele>975.597819</ele>
        <time>2026-08-29T08:35:55.000Z</time>
      </trkpt>
      <trkpt lat="45.04361" lon="5.84218">
        <ele>975.765642</ele>
        <time>2026-08-29T08:35:56.000Z</time>
      </trkpt>
      <trkpt lat="45.0436" lon="5.84216">
        <ele>975.922</ele>
        <time>2026-08-29T08:35:57.000Z</time>
      </trkpt>
      <trkpt lat="45.04358" lon="5.84214">
        <ele>976.091211</ele>
        <time>2026-08-29T08:35:58.000Z</time>
      </trkpt>
      <trkpt lat="45.04358" lon="5.84212">
        <ele>976.245165</ele>
        <time>2026-08-29T08:35:59.000Z</time>
      </trkpt>
      <trkpt lat="45.04357" lon="5.84209">
        <ele>976.420978</ele>
        <time>2026-08-29T08:36:00.000Z</time>
      </trkpt>
      <trkpt lat="45.04356" lon="5.84206">
        <ele>976.596288</ele>
        <time>2026-08-29T08:36:01.000Z</time>
      </trkpt>
      <trkpt lat="45.04355" lon="5.84204">
        <ele>976.739833</ele>
        <time>2026-08-29T08:36:02.000Z</time>
      </trkpt>
      <trkpt lat="45.04354" lon="5.84202">
        <ele>976.887316</ele>
        <time>2026-08-29T08:36:03.000Z</time>
      </trkpt>
      <trkpt lat="45.04354" lon="5.84199">
        <ele>977.068201</ele>
        <time>2026-08-29T08:36:04.000Z</time>
      </trkpt>
      <trkpt lat="45.04353" lon="5.84196">
        <ele>977.234166</ele>
        <time>2026-08-29T08:36:05.000Z</time>
      </trkpt>
      <trkpt lat="45.04352" lon="5.84194">
        <ele>977.38812</ele>
        <time>2026-08-29T08:36:06.000Z</time>
      </trkpt>
      <trkpt lat="45.04351" lon="5.84191">
        <ele>977.545752</ele>
        <time>2026-08-29T08:36:07.000Z</time>
      </trkpt>
      <trkpt lat="45.0435" lon="5.84189">
        <ele>977.703384</ele>
        <time>2026-08-29T08:36:08.000Z</time>
      </trkpt>
      <trkpt lat="45.0435" lon="5.84186">
        <ele>977.863433</ele>
        <time>2026-08-29T08:36:09.000Z</time>
      </trkpt>
      <trkpt lat="45.04349" lon="5.84184">
        <ele>978.027639</ele>
        <time>2026-08-29T08:36:10.000Z</time>
      </trkpt>
      <trkpt lat="45.04348" lon="5.84181">
        <ele>978.183966</ele>
        <time>2026-08-29T08:36:11.000Z</time>
      </trkpt>
      <trkpt lat="45.04347" lon="5.84178">
        <ele>978.37894</ele>
        <time>2026-08-29T08:36:12.000Z</time>
      </trkpt>
      <trkpt lat="45.04346" lon="5.84176">
        <ele>978.55911</ele>
        <time>2026-08-29T08:36:13.000Z</time>
      </trkpt>
      <trkpt lat="45.04345" lon="5.84173">
        <ele>978.749387</ele>
        <time>2026-08-29T08:36:14.000Z</time>
      </trkpt>
      <trkpt lat="45.04343" lon="5.84171">
        <ele>978.960982</ele>
        <time>2026-08-29T08:36:15.000Z</time>
      </trkpt>
      <trkpt lat="45.04341" lon="5.84168">
        <ele>979.146875</ele>
        <time>2026-08-29T08:36:16.000Z</time>
      </trkpt>
      <trkpt lat="45.04339" lon="5.84166">
        <ele>979.338307</ele>
        <time>2026-08-29T08:36:17.000Z</time>
      </trkpt>
      <trkpt lat="45.04338" lon="5.84164">
        <ele>979.529739</ele>
        <time>2026-08-29T08:36:18.000Z</time>
      </trkpt>
      <trkpt lat="45.04336" lon="5.84161">
        <ele>979.710296</ele>
        <time>2026-08-29T08:36:19.000Z</time>
      </trkpt>
      <trkpt lat="45.04335" lon="5.84159">
        <ele>979.898198</ele>
        <time>2026-08-29T08:36:20.000Z</time>
      </trkpt>
      <trkpt lat="45.04333" lon="5.84157">
        <ele>980.082765</ele>
        <time>2026-08-29T08:36:21.000Z</time>
      </trkpt>
      <trkpt lat="45.04331" lon="5.84156">
        <ele>980.253678</ele>
        <time>2026-08-29T08:36:22.000Z</time>
      </trkpt>
      <trkpt lat="45.04329" lon="5.84154">
        <ele>980.458329</ele>
        <time>2026-08-29T08:36:23.000Z</time>
      </trkpt>
      <trkpt lat="45.04327" lon="5.84153">
        <ele>980.646531</ele>
        <time>2026-08-29T08:36:24.000Z</time>
      </trkpt>
      <trkpt lat="45.04325" lon="5.84151">
        <ele>980.849884</ele>
        <time>2026-08-29T08:36:25.000Z</time>
      </trkpt>
      <trkpt lat="45.04322" lon="5.8415">
        <ele>981.047943</ele>
        <time>2026-08-29T08:36:26.000Z</time>
      </trkpt>
      <trkpt lat="45.0432" lon="5.84149">
        <ele>981.25694</ele>
        <time>2026-08-29T08:36:27.000Z</time>
      </trkpt>
      <trkpt lat="45.04318" lon="5.84147">
        <ele>981.452767</ele>
        <time>2026-08-29T08:36:28.000Z</time>
      </trkpt>
      <trkpt lat="45.04316" lon="5.84146">
        <ele>981.650826</ele>
        <time>2026-08-29T08:36:29.000Z</time>
      </trkpt>
      <trkpt lat="45.04314" lon="5.84144">
        <ele>981.829192</ele>
        <time>2026-08-29T08:36:30.000Z</time>
      </trkpt>
      <trkpt lat="45.04311" lon="5.84143">
        <ele>982.022782</ele>
        <time>2026-08-29T08:36:31.000Z</time>
      </trkpt>
      <trkpt lat="45.04309" lon="5.84143">
        <ele>982.205736</ele>
        <time>2026-08-29T08:36:32.000Z</time>
      </trkpt>
      <trkpt lat="45.04307" lon="5.84142">
        <ele>982.408189</ele>
        <time>2026-08-29T08:36:33.000Z</time>
      </trkpt>
      <trkpt lat="45.04304" lon="5.84141">
        <ele>982.619189</ele>
        <time>2026-08-29T08:36:34.000Z</time>
      </trkpt>
      <trkpt lat="45.04302" lon="5.84139">
        <ele>982.807391</ele>
        <time>2026-08-29T08:36:35.000Z</time>
      </trkpt>
      <trkpt lat="45.043" lon="5.84138">
        <ele>982.993343</ele>
        <time>2026-08-29T08:36:36.000Z</time>
      </trkpt>
      <trkpt lat="45.04298" lon="5.84137">
        <ele>983.179194</ele>
        <time>2026-08-29T08:36:37.000Z</time>
      </trkpt>
      <trkpt lat="45.04296" lon="5.84135">
        <ele>983.360728</ele>
        <time>2026-08-29T08:36:38.000Z</time>
      </trkpt>
      <trkpt lat="45.04294" lon="5.84133">
        <ele>983.561802</ele>
        <time>2026-08-29T08:36:39.000Z</time>
      </trkpt>
      <trkpt lat="45.04292" lon="5.84131">
        <ele>983.80478</ele>
        <time>2026-08-29T08:36:40.000Z</time>
      </trkpt>
      <trkpt lat="45.04289" lon="5.84129">
        <ele>984.016013</ele>
        <time>2026-08-29T08:36:41.000Z</time>
      </trkpt>
      <trkpt lat="45.04287" lon="5.84128">
        <ele>984.163147</ele>
        <time>2026-08-29T08:36:42.000Z</time>
      </trkpt>
      <trkpt lat="45.04284" lon="5.84125">
        <ele>984.308766</ele>
        <time>2026-08-29T08:36:43.000Z</time>
      </trkpt>
      <trkpt lat="45.04282" lon="5.84124">
        <ele>984.459002</ele>
        <time>2026-08-29T08:36:44.000Z</time>
      </trkpt>
      <trkpt lat="45.04279" lon="5.84122">
        <ele>984.602927</ele>
        <time>2026-08-29T08:36:45.000Z</time>
      </trkpt>
      <trkpt lat="45.04277" lon="5.8412">
        <ele>984.740792</ele>
        <time>2026-08-29T08:36:46.000Z</time>
      </trkpt>
      <trkpt lat="45.04274" lon="5.84119">
        <ele>984.886283</ele>
        <time>2026-08-29T08:36:47.000Z</time>
      </trkpt>
      <trkpt lat="45.04272" lon="5.84117">
        <ele>985.024149</ele>
        <time>2026-08-29T08:36:48.000Z</time>
      </trkpt>
      <trkpt lat="45.0427" lon="5.84115">
        <ele>985.154892</ele>
        <time>2026-08-29T08:36:49.000Z</time>
      </trkpt>
      <trkpt lat="45.04268" lon="5.84114">
        <ele>985.29106</ele>
        <time>2026-08-29T08:36:50.000Z</time>
      </trkpt>
      <trkpt lat="45.04265" lon="5.84112">
        <ele>985.428391</ele>
        <time>2026-08-29T08:36:51.000Z</time>
      </trkpt>
      <trkpt lat="45.04263" lon="5.84112">
        <ele>985.562072</ele>
        <time>2026-08-29T08:36:52.000Z</time>
      </trkpt>
      <trkpt lat="45.0426" lon="5.84111">
        <ele>985.695753</ele>
        <time>2026-08-29T08:36:53.000Z</time>
      </trkpt>
      <trkpt lat="45.04258" lon="5.8411">
        <ele>985.836158</ele>
        <time>2026-08-29T08:36:54.000Z</time>
      </trkpt>
      <trkpt lat="45.04255" lon="5.8411">
        <ele>985.977982</ele>
        <time>2026-08-29T08:36:55.000Z</time>
      </trkpt>
      <trkpt lat="45.04252" lon="5.8411">
        <ele>986.110424</ele>
        <time>2026-08-29T08:36:56.000Z</time>
      </trkpt>
      <trkpt lat="45.0425" lon="5.84111">
        <ele>986.252828</ele>
        <time>2026-08-29T08:36:57.000Z</time>
      </trkpt>
      <trkpt lat="45.04247" lon="5.84111">
        <ele>986.400125</ele>
        <time>2026-08-29T08:36:58.000Z</time>
      </trkpt>
      <trkpt lat="45.04244" lon="5.84111">
        <ele>986.552652</ele>
        <time>2026-08-29T08:36:59.000Z</time>
      </trkpt>
      <trkpt lat="45.04241" lon="5.84111">
        <ele>986.704818</ele>
        <time>2026-08-29T08:37:00.000Z</time>
      </trkpt>
      <trkpt lat="45.04238" lon="5.84111">
        <ele>986.847656</ele>
        <time>2026-08-29T08:37:01.000Z</time>
      </trkpt>
      <trkpt lat="45.04236" lon="5.8411">
        <ele>986.993162</ele>
        <time>2026-08-29T08:37:02.000Z</time>
      </trkpt>
      <trkpt lat="45.04233" lon="5.84109">
        <ele>987.146624</ele>
        <time>2026-08-29T08:37:03.000Z</time>
      </trkpt>
      <trkpt lat="45.0423" lon="5.84107">
        <ele>987.289062</ele>
        <time>2026-08-29T08:37:04.000Z</time>
      </trkpt>
      <trkpt lat="45.04228" lon="5.84105">
        <ele>987.433313</ele>
        <time>2026-08-29T08:37:05.000Z</time>
      </trkpt>
      <trkpt lat="45.04226" lon="5.84103">
        <ele>987.58321</ele>
        <time>2026-08-29T08:37:06.000Z</time>
      </trkpt>
      <trkpt lat="45.04224" lon="5.841">
        <ele>987.729793</ele>
        <time>2026-08-29T08:37:07.000Z</time>
      </trkpt>
      <trkpt lat="45.04222" lon="5.84097">
        <ele>987.881137</ele>
        <time>2026-08-29T08:37:08.000Z</time>
      </trkpt>
      <trkpt lat="45.0422" lon="5.84094">
        <ele>988.035046</ele>
        <time>2026-08-29T08:37:09.000Z</time>
      </trkpt>
      <trkpt lat="45.04217" lon="5.84092">
        <ele>988.189456</ele>
        <time>2026-08-29T08:37:10.000Z</time>
      </trkpt>
      <trkpt lat="45.04215" lon="5.84089">
        <ele>988.337026</ele>
        <time>2026-08-29T08:37:11.000Z</time>
      </trkpt>
      <trkpt lat="45.04213" lon="5.84086">
        <ele>988.482013</ele>
        <time>2026-08-29T08:37:12.000Z</time>
      </trkpt>
      <trkpt lat="45.04211" lon="5.84083">
        <ele>988.629582</ele>
        <time>2026-08-29T08:37:13.000Z</time>
      </trkpt>
      <trkpt lat="45.04209" lon="5.84081">
        <ele>988.764497</ele>
        <time>2026-08-29T08:37:14.000Z</time>
      </trkpt>
      <trkpt lat="45.04207" lon="5.84078">
        <ele>988.912066</ele>
        <time>2026-08-29T08:37:15.000Z</time>
      </trkpt>
      <trkpt lat="45.04205" lon="5.84075">
        <ele>989.062414</ele>
        <time>2026-08-29T08:37:16.000Z</time>
      </trkpt>
      <trkpt lat="45.04203" lon="5.84073">
        <ele>989.208034</ele>
        <time>2026-08-29T08:37:17.000Z</time>
      </trkpt>
      <trkpt lat="45.042" lon="5.84072">
        <ele>989.35827</ele>
        <time>2026-08-29T08:37:18.000Z</time>
      </trkpt>
      <trkpt lat="45.04198" lon="5.8407">
        <ele>989.502917</ele>
        <time>2026-08-29T08:37:19.000Z</time>
      </trkpt>
      <trkpt lat="45.04195" lon="5.84069">
        <ele>989.657494</ele>
        <time>2026-08-29T08:37:20.000Z</time>
      </trkpt>
      <trkpt lat="45.04192" lon="5.84068">
        <ele>989.81074</ele>
        <time>2026-08-29T08:37:21.000Z</time>
      </trkpt>
      <trkpt lat="45.04189" lon="5.84069">
        <ele>989.962907</ele>
        <time>2026-08-29T08:37:22.000Z</time>
      </trkpt>
      <trkpt lat="45.04186" lon="5.8407">
        <ele>990.111357</ele>
        <time>2026-08-29T08:37:23.000Z</time>
      </trkpt>
      <trkpt lat="45.04184" lon="5.84072">
        <ele>990.26578</ele>
        <time>2026-08-29T08:37:24.000Z</time>
      </trkpt>
      <trkpt lat="45.04182" lon="5.84075">
        <ele>990.423487</ele>
        <time>2026-08-29T08:37:25.000Z</time>
      </trkpt>
      <trkpt lat="45.0418" lon="5.84078">
        <ele>990.568923</ele>
        <time>2026-08-29T08:37:26.000Z</time>
      </trkpt>
      <trkpt lat="45.04179" lon="5.84082">
        <ele>990.715887</ele>
        <time>2026-08-29T08:37:27.000Z</time>
      </trkpt>
      <trkpt lat="45.04179" lon="5.84086">
        <ele>990.870099</ele>
        <time>2026-08-29T08:37:28.000Z</time>
      </trkpt>
      <trkpt lat="45.04179" lon="5.8409">
        <ele>991.018451</ele>
        <time>2026-08-29T08:37:29.000Z</time>
      </trkpt>
      <trkpt lat="45.04179" lon="5.84094">
        <ele>991.159687</ele>
        <time>2026-08-29T08:37:30.000Z</time>
      </trkpt>
      <trkpt lat="45.04179" lon="5.84098">
        <ele>991.315447</ele>
        <time>2026-08-29T08:37:31.000Z</time>
      </trkpt>
      <trkpt lat="45.0418" lon="5.84102">
        <ele>991.45384</ele>
        <time>2026-08-29T08:37:32.000Z</time>
      </trkpt>
      <trkpt lat="45.04182" lon="5.84104">
        <ele>991.592477</ele>
        <time>2026-08-29T08:37:33.000Z</time>
      </trkpt>
      <trkpt lat="45.04184" lon="5.84107">
        <ele>991.734931</ele>
        <time>2026-08-29T08:37:34.000Z</time>
      </trkpt>
      <trkpt lat="45.04186" lon="5.8411">
        <ele>991.896515</ele>
        <time>2026-08-29T08:37:35.000Z</time>
      </trkpt>
      <trkpt lat="45.04189" lon="5.84112">
        <ele>992.066338</ele>
        <time>2026-08-29T08:37:36.000Z</time>
      </trkpt>
      <trkpt lat="45.04191" lon="5.84114">
        <ele>992.216333</ele>
        <time>2026-08-29T08:37:37.000Z</time>
      </trkpt>
      <trkpt lat="45.04194" lon="5.84116">
        <ele>992.365053</ele>
        <time>2026-08-29T08:37:38.000Z</time>
      </trkpt>
      <trkpt lat="45.04197" lon="5.84117">
        <ele>992.522543</ele>
        <time>2026-08-29T08:37:39.000Z</time>
      </trkpt>
      <trkpt lat="45.042" lon="5.84118">
        <ele>992.684216</ele>
        <time>2026-08-29T08:37:40.000Z</time>
      </trkpt>
      <trkpt lat="45.04203" lon="5.84118">
        <ele>992.837463</ele>
        <time>2026-08-29T08:37:41.000Z</time>
      </trkpt>
      <trkpt lat="45.04206" lon="5.84119">
        <ele>993.006787</ele>
        <time>2026-08-29T08:37:42.000Z</time>
      </trkpt>
      <trkpt lat="45.04209" lon="5.84119">
        <ele>993.169442</ele>
        <time>2026-08-29T08:37:43.000Z</time>
      </trkpt>
      <trkpt lat="45.04212" lon="5.8412">
        <ele>993.317065</ele>
        <time>2026-08-29T08:37:44.000Z</time>
      </trkpt>
      <trkpt lat="45.04215" lon="5.8412">
        <ele>993.480611</ele>
        <time>2026-08-29T08:37:45.000Z</time>
      </trkpt>
      <trkpt lat="45.04216" lon="5.8412">
        <ele>993.606353</ele>
        <time>2026-08-29T08:37:46.000Z</time>
      </trkpt>
      <trkpt lat="45.04219" lon="5.84121">
        <ele>993.799265</ele>
        <time>2026-08-29T08:37:47.000Z</time>
      </trkpt>
      <trkpt lat="45.04222" lon="5.84122">
        <ele>993.994764</ele>
        <time>2026-08-29T08:37:48.000Z</time>
      </trkpt>
      <trkpt lat="45.04225" lon="5.84123">
        <ele>994.222268</ele>
        <time>2026-08-29T08:37:49.000Z</time>
      </trkpt>
      <trkpt lat="45.04228" lon="5.84123">
        <ele>994.402848</ele>
        <time>2026-08-29T08:37:50.000Z</time>
      </trkpt>
      <trkpt lat="45.04231" lon="5.84124">
        <ele>994.6208</ele>
        <time>2026-08-29T08:37:51.000Z</time>
      </trkpt>
      <trkpt lat="45.04234" lon="5.84125">
        <ele>994.813712</ele>
        <time>2026-08-29T08:37:52.000Z</time>
      </trkpt>
      <trkpt lat="45.04236" lon="5.84125">
        <ele>995.001873</ele>
        <time>2026-08-29T08:37:53.000Z</time>
      </trkpt>
      <trkpt lat="45.04239" lon="5.84125">
        <ele>995.214374</ele>
        <time>2026-08-29T08:37:54.000Z</time>
      </trkpt>
      <trkpt lat="45.04243" lon="5.84126">
        <ele>995.44388</ele>
        <time>2026-08-29T08:37:55.000Z</time>
      </trkpt>
      <trkpt lat="45.04246" lon="5.84127">
        <ele>995.685302</ele>
        <time>2026-08-29T08:37:56.000Z</time>
      </trkpt>
      <trkpt lat="45.04249" lon="5.84129">
        <ele>995.90644</ele>
        <time>2026-08-29T08:37:57.000Z</time>
      </trkpt>
      <trkpt lat="45.04252" lon="5.84131">
        <ele>996.107091</ele>
        <time>2026-08-29T08:37:58.000Z</time>
      </trkpt>
      <trkpt lat="45.04254" lon="5.84133">
        <ele>996.295598</ele>
        <time>2026-08-29T08:37:59.000Z</time>
      </trkpt>
      <trkpt lat="45.04256" lon="5.84136">
        <ele>996.516687</ele>
        <time>2026-08-29T08:38:00.000Z</time>
      </trkpt>
      <trkpt lat="45.04259" lon="5.84139">
        <ele>996.751993</ele>
        <time>2026-08-29T08:38:01.000Z</time>
      </trkpt>
      <trkpt lat="45.04261" lon="5.84142">
        <ele>996.937934</ele>
        <time>2026-08-29T08:38:02.000Z</time>
      </trkpt>
      <trkpt lat="45.04262" lon="5.84146">
        <ele>997.131782</ele>
        <time>2026-08-29T08:38:03.000Z</time>
      </trkpt>
      <trkpt lat="45.04264" lon="5.84149">
        <ele>997.31778</ele>
        <time>2026-08-29T08:38:04.000Z</time>
      </trkpt>
      <trkpt lat="45.04266" lon="5.84151">
        <ele>997.502348</ele>
        <time>2026-08-29T08:38:05.000Z</time>
      </trkpt>
      <trkpt lat="45.04267" lon="5.84154">
        <ele>997.672803</ele>
        <time>2026-08-29T08:38:06.000Z</time>
      </trkpt>
      <trkpt lat="45.04269" lon="5.84157">
        <ele>997.860911</ele>
        <time>2026-08-29T08:38:07.000Z</time>
      </trkpt>
      <trkpt lat="45.0427" lon="5.8416">
        <ele>998.007691</ele>
        <time>2026-08-29T08:38:08.000Z</time>
      </trkpt>
      <trkpt lat="45.04272" lon="5.84162">
        <ele>998.170268</ele>
        <time>2026-08-29T08:38:09.000Z</time>
      </trkpt>
      <trkpt lat="45.04274" lon="5.84164">
        <ele>998.37792</ele>
        <time>2026-08-29T08:38:10.000Z</time>
      </trkpt>
      <trkpt lat="45.04277" lon="5.84167">
        <ele>998.573931</ele>
        <time>2026-08-29T08:38:11.000Z</time>
      </trkpt>
      <trkpt lat="45.0428" lon="5.84168">
        <ele>998.78474</ele>
        <time>2026-08-29T08:38:12.000Z</time>
      </trkpt>
      <trkpt lat="45.04281" lon="5.8417">
        <ele>998.934323</ele>
        <time>2026-08-29T08:38:13.000Z</time>
      </trkpt>
      <trkpt lat="45.04283" lon="5.84172">
        <ele>999.088411</ele>
        <time>2026-08-29T08:38:14.000Z</time>
      </trkpt>
      <trkpt lat="45.04285" lon="5.84174">
        <ele>999.274601</ele>
        <time>2026-08-29T08:38:15.000Z</time>
      </trkpt>
      <trkpt lat="45.04289" lon="5.84175">
        <ele>999.521461</ele>
        <time>2026-08-29T08:38:16.000Z</time>
      </trkpt>
      <trkpt lat="45.04292" lon="5.84177">
        <ele>999.753033</ele>
        <time>2026-08-29T08:38:17.000Z</time>
      </trkpt>
      <trkpt lat="45.04295" lon="5.84179">
        <ele>999.963843</ele>
        <time>2026-08-29T08:38:18.000Z</time>
      </trkpt>
      <trkpt lat="45.04298" lon="5.84181">
        <ele>1000.175032</ele>
        <time>2026-08-29T08:38:19.000Z</time>
      </trkpt>
      <trkpt lat="45.043" lon="5.84183">
        <ele>1000.382109</ele>
        <time>2026-08-29T08:38:20.000Z</time>
      </trkpt>
      <trkpt lat="45.04302" lon="5.84186">
        <ele>1000.59227</ele>
        <time>2026-08-29T08:38:21.000Z</time>
      </trkpt>
      <trkpt lat="45.04304" lon="5.84189">
        <ele>1000.788548</ele>
        <time>2026-08-29T08:38:22.000Z</time>
      </trkpt>
      <trkpt lat="45.04306" lon="5.84192">
        <ele>1000.979174</ele>
        <time>2026-08-29T08:38:23.000Z</time>
      </trkpt>
      <trkpt lat="45.04308" lon="5.84195">
        <ele>1001.153248</ele>
        <time>2026-08-29T08:38:24.000Z</time>
      </trkpt>
      <trkpt lat="45.04309" lon="5.84198">
        <ele>1001.338784</ele>
        <time>2026-08-29T08:38:25.000Z</time>
      </trkpt>
      <trkpt lat="45.0431" lon="5.84202">
        <ele>1001.514639</ele>
        <time>2026-08-29T08:38:26.000Z</time>
      </trkpt>
      <trkpt lat="45.04311" lon="5.84205">
        <ele>1001.672498</ele>
        <time>2026-08-29T08:38:27.000Z</time>
      </trkpt>
      <trkpt lat="45.04311" lon="5.84208">
        <ele>1001.832333</ele>
        <time>2026-08-29T08:38:28.000Z</time>
      </trkpt>
      <trkpt lat="45.04311" lon="5.84212">
        <ele>1002.003098</ele>
        <time>2026-08-29T08:38:29.000Z</time>
      </trkpt>
      <trkpt lat="45.04311" lon="5.84215">
        <ele>1002.18766</ele>
        <time>2026-08-29T08:38:30.000Z</time>
      </trkpt>
      <trkpt lat="45.04311" lon="5.84219">
        <ele>1002.377672</ele>
        <time>2026-08-29T08:38:31.000Z</time>
      </trkpt>
      <trkpt lat="45.04312" lon="5.84223">
        <ele>1002.552576</ele>
        <time>2026-08-29T08:38:32.000Z</time>
      </trkpt>
      <trkpt lat="45.04312" lon="5.84226">
        <ele>1002.712558</ele>
        <time>2026-08-29T08:38:33.000Z</time>
      </trkpt>
      <trkpt lat="45.04312" lon="5.8423">
        <ele>1002.882218</ele>
        <time>2026-08-29T08:38:34.000Z</time>
      </trkpt>
      <trkpt lat="45.04312" lon="5.84233">
        <ele>1003.0422</ele>
        <time>2026-08-29T08:38:35.000Z</time>
      </trkpt>
      <trkpt lat="45.04312" lon="5.84237">
        <ele>1003.217774</ele>
        <time>2026-08-29T08:38:36.000Z</time>
      </trkpt>
      <trkpt lat="45.04312" lon="5.84241">
        <ele>1003.417418</ele>
        <time>2026-08-29T08:38:37.000Z</time>
      </trkpt>
      <trkpt lat="45.04313" lon="5.84245">
        <ele>1003.617885</ele>
        <time>2026-08-29T08:38:38.000Z</time>
      </trkpt>
      <trkpt lat="45.04314" lon="5.84248">
        <ele>1003.771298</ele>
        <time>2026-08-29T08:38:39.000Z</time>
      </trkpt>
      <trkpt lat="45.04315" lon="5.84251">
        <ele>1003.942502</ele>
        <time>2026-08-29T08:38:40.000Z</time>
      </trkpt>
      <trkpt lat="45.04316" lon="5.84254">
        <ele>1004.134019</ele>
        <time>2026-08-29T08:38:41.000Z</time>
      </trkpt>
      <trkpt lat="45.04317" lon="5.84258">
        <ele>1004.310747</ele>
        <time>2026-08-29T08:38:42.000Z</time>
      </trkpt>
      <trkpt lat="45.04318" lon="5.84261">
        <ele>1004.473076</ele>
        <time>2026-08-29T08:38:43.000Z</time>
      </trkpt>
      <trkpt lat="45.0432" lon="5.84264">
        <ele>1004.655127</ele>
        <time>2026-08-29T08:38:44.000Z</time>
      </trkpt>
      <trkpt lat="45.04321" lon="5.84266">
        <ele>1004.830289</ele>
        <time>2026-08-29T08:38:45.000Z</time>
      </trkpt>
      <trkpt lat="45.04323" lon="5.84269">
        <ele>1005.001493</ele>
        <time>2026-08-29T08:38:46.000Z</time>
      </trkpt>
      <trkpt lat="45.04324" lon="5.84272">
        <ele>1005.188452</ele>
        <time>2026-08-29T08:38:47.000Z</time>
      </trkpt>
      <trkpt lat="45.04327" lon="5.84275">
        <ele>1005.379713</ele>
        <time>2026-08-29T08:38:48.000Z</time>
      </trkpt>
      <trkpt lat="45.04328" lon="5.84277">
        <ele>1005.543087</ele>
        <time>2026-08-29T08:38:49.000Z</time>
      </trkpt>
      <trkpt lat="45.0433" lon="5.8428">
        <ele>1005.710084</ele>
        <time>2026-08-29T08:38:50.000Z</time>
      </trkpt>
      <trkpt lat="45.04331" lon="5.84283">
        <ele>1005.901022</ele>
        <time>2026-08-29T08:38:51.000Z</time>
      </trkpt>
      <trkpt lat="45.04332" lon="5.84285">
        <ele>1006.100177</ele>
        <time>2026-08-29T08:38:52.000Z</time>
      </trkpt>
      <trkpt lat="45.04334" lon="5.84288">
        <ele>1006.31991</ele>
        <time>2026-08-29T08:38:53.000Z</time>
      </trkpt>
      <trkpt lat="45.04335" lon="5.84291">
        <ele>1006.514338</ele>
        <time>2026-08-29T08:38:54.000Z</time>
      </trkpt>
      <trkpt lat="45.04337" lon="5.84293">
        <ele>1006.723545</ele>
        <time>2026-08-29T08:38:55.000Z</time>
      </trkpt>
      <trkpt lat="45.04338" lon="5.84296">
        <ele>1006.922208</ele>
        <time>2026-08-29T08:38:56.000Z</time>
      </trkpt>
      <trkpt lat="45.04339" lon="5.84299">
        <ele>1007.121822</ele>
        <time>2026-08-29T08:38:57.000Z</time>
      </trkpt>
      <trkpt lat="45.0434" lon="5.84302">
        <ele>1007.311028</ele>
        <time>2026-08-29T08:38:58.000Z</time>
      </trkpt>
      <trkpt lat="45.04341" lon="5.84304">
        <ele>1007.505176</ele>
        <time>2026-08-29T08:38:59.000Z</time>
      </trkpt>
      <trkpt lat="45.04343" lon="5.84307">
        <ele>1007.689508</ele>
        <time>2026-08-29T08:39:00.000Z</time>
      </trkpt>
      <trkpt lat="45.04344" lon="5.84309">
        <ele>1007.880294</ele>
        <time>2026-08-29T08:39:01.000Z</time>
      </trkpt>
      <trkpt lat="45.04346" lon="5.84311">
        <ele>1008.066647</ele>
        <time>2026-08-29T08:39:02.000Z</time>
      </trkpt>
      <trkpt lat="45.04347" lon="5.84314">
        <ele>1008.251367</ele>
        <time>2026-08-29T08:39:03.000Z</time>
      </trkpt>
      <trkpt lat="45.04348" lon="5.84316">
        <ele>1008.442153</ele>
        <time>2026-08-29T08:39:04.000Z</time>
      </trkpt>
      <trkpt lat="45.04349" lon="5.84319">
        <ele>1008.617263</ele>
        <time>2026-08-29T08:39:05.000Z</time>
      </trkpt>
      <trkpt lat="45.0435" lon="5.84321">
        <ele>1008.798304</ele>
        <time>2026-08-29T08:39:06.000Z</time>
      </trkpt>
      <trkpt lat="45.04351" lon="5.84324">
        <ele>1008.965023</ele>
        <time>2026-08-29T08:39:07.000Z</time>
      </trkpt>
      <trkpt lat="45.04351" lon="5.84326">
        <ele>1009.114468</ele>
        <time>2026-08-29T08:39:08.000Z</time>
      </trkpt>
      <trkpt lat="45.04352" lon="5.84329">
        <ele>1009.305704</ele>
        <time>2026-08-29T08:39:09.000Z</time>
      </trkpt>
      <trkpt lat="45.04353" lon="5.84332">
        <ele>1009.49152</ele>
        <time>2026-08-29T08:39:10.000Z</time>
      </trkpt>
      <trkpt lat="45.04354" lon="5.84335">
        <ele>1009.677336</ele>
        <time>2026-08-29T08:39:11.000Z</time>
      </trkpt>
      <trkpt lat="45.04355" lon="5.84337">
        <ele>1009.841582</ele>
        <time>2026-08-29T08:39:12.000Z</time>
      </trkpt>
      <trkpt lat="45.04356" lon="5.8434">
        <ele>1010.012607</ele>
        <time>2026-08-29T08:39:13.000Z</time>
      </trkpt>
      <trkpt lat="45.04357" lon="5.84342">
        <ele>1010.171949</ele>
        <time>2026-08-29T08:39:14.000Z</time>
      </trkpt>
      <trkpt lat="45.04358" lon="5.84344">
        <ele>1010.336575</ele>
        <time>2026-08-29T08:39:15.000Z</time>
      </trkpt>
      <trkpt lat="45.04359" lon="5.84346">
        <ele>1010.500854</ele>
        <time>2026-08-29T08:39:16.000Z</time>
      </trkpt>
      <trkpt lat="45.0436" lon="5.84348">
        <ele>1010.670686</ele>
        <time>2026-08-29T08:39:17.000Z</time>
      </trkpt>
      <trkpt lat="45.04362" lon="5.84351">
        <ele>1010.871815</ele>
        <time>2026-08-29T08:39:18.000Z</time>
      </trkpt>
      <trkpt lat="45.04363" lon="5.84353">
        <ele>1011.064258</ele>
        <time>2026-08-29T08:39:19.000Z</time>
      </trkpt>
      <trkpt lat="45.04365" lon="5.84355">
        <ele>1011.248415</ele>
        <time>2026-08-29T08:39:20.000Z</time>
      </trkpt>
      <trkpt lat="45.04366" lon="5.84358">
        <ele>1011.430386</ele>
        <time>2026-08-29T08:39:21.000Z</time>
      </trkpt>
      <trkpt lat="45.04367" lon="5.8436">
        <ele>1011.620089</ele>
        <time>2026-08-29T08:39:22.000Z</time>
      </trkpt>
      <trkpt lat="45.04369" lon="5.84363">
        <ele>1011.827233</ele>
        <time>2026-08-29T08:39:23.000Z</time>
      </trkpt>
      <trkpt lat="45.0437" lon="5.84365">
        <ele>1012.019676</ele>
        <time>2026-08-29T08:39:24.000Z</time>
      </trkpt>
      <trkpt lat="45.04372" lon="5.84367">
        <ele>1012.227645</ele>
        <time>2026-08-29T08:39:25.000Z</time>
      </trkpt>
      <trkpt lat="45.04374" lon="5.84369">
        <ele>1012.428906</ele>
        <time>2026-08-29T08:39:26.000Z</time>
      </trkpt>
      <trkpt lat="45.04376" lon="5.8437">
        <ele>1012.619039</ele>
        <time>2026-08-29T08:39:27.000Z</time>
      </trkpt>
      <trkpt lat="45.04378" lon="5.84373">
        <ele>1012.82421</ele>
        <time>2026-08-29T08:39:28.000Z</time>
      </trkpt>
      <trkpt lat="45.0438" lon="5.84374">
        <ele>1013.028676</ele>
        <time>2026-08-29T08:39:29.000Z</time>
      </trkpt>
      <trkpt lat="45.04381" lon="5.84377">
        <ele>1013.203489</ele>
        <time>2026-08-29T08:39:30.000Z</time>
      </trkpt>
      <trkpt lat="45.04383" lon="5.84378">
        <ele>1013.390359</ele>
        <time>2026-08-29T08:39:31.000Z</time>
      </trkpt>
      <trkpt lat="45.04385" lon="5.84381">
        <ele>1013.598328</ele>
        <time>2026-08-29T08:39:32.000Z</time>
      </trkpt>
      <trkpt lat="45.04387" lon="5.84383">
        <ele>1013.816689</ele>
        <time>2026-08-29T08:39:33.000Z</time>
      </trkpt>
      <trkpt lat="45.04389" lon="5.84384">
        <ele>1014.040533</ele>
        <time>2026-08-29T08:39:34.000Z</time>
      </trkpt>
      <trkpt lat="45.04391" lon="5.84387">
        <ele>1014.247677</ele>
        <time>2026-08-29T08:39:35.000Z</time>
      </trkpt>
      <trkpt lat="45.04393" lon="5.84389">
        <ele>1014.44012</ele>
        <time>2026-08-29T08:39:36.000Z</time>
      </trkpt>
      <trkpt lat="45.04394" lon="5.84392">
        <ele>1014.644256</ele>
        <time>2026-08-29T08:39:37.000Z</time>
      </trkpt>
      <trkpt lat="45.04395" lon="5.84394">
        <ele>1014.844171</ele>
        <time>2026-08-29T08:39:38.000Z</time>
      </trkpt>
      <trkpt lat="45.04397" lon="5.84397">
        <ele>1015.038318</ele>
        <time>2026-08-29T08:39:39.000Z</time>
      </trkpt>
      <trkpt lat="45.04398" lon="5.84399">
        <ele>1015.233626</ele>
        <time>2026-08-29T08:39:40.000Z</time>
      </trkpt>
      <trkpt lat="45.044" lon="5.84401">
        <ele>1015.418669</ele>
        <time>2026-08-29T08:39:41.000Z</time>
      </trkpt>
      <trkpt lat="45.04401" lon="5.84404">
        <ele>1015.599138</ele>
        <time>2026-08-29T08:39:42.000Z</time>
      </trkpt>
      <trkpt lat="45.04402" lon="5.84406">
        <ele>1015.774247</ele>
        <time>2026-08-29T08:39:43.000Z</time>
      </trkpt>
      <trkpt lat="45.04404" lon="5.84408">
        <ele>1015.969555</ele>
        <time>2026-08-29T08:39:44.000Z</time>
      </trkpt>
      <trkpt lat="45.04405" lon="5.84411">
        <ele>1016.17876</ele>
        <time>2026-08-29T08:39:45.000Z</time>
      </trkpt>
      <trkpt lat="45.04407" lon="5.84414">
        <ele>1016.383609</ele>
        <time>2026-08-29T08:39:46.000Z</time>
      </trkpt>
      <trkpt lat="45.04408" lon="5.84416">
        <ele>1016.578886</ele>
        <time>2026-08-29T08:39:47.000Z</time>
      </trkpt>
      <trkpt lat="45.04409" lon="5.84419">
        <ele>1016.763929</ele>
        <time>2026-08-29T08:39:48.000Z</time>
      </trkpt>
      <trkpt lat="45.0441" lon="5.84421">
        <ele>1016.945899</ele>
        <time>2026-08-29T08:39:49.000Z</time>
      </trkpt>
      <trkpt lat="45.04411" lon="5.84424">
        <ele>1017.130617</ele>
        <time>2026-08-29T08:39:50.000Z</time>
      </trkpt>
      <trkpt lat="45.04412" lon="5.84427">
        <ele>1017.316431</ele>
        <time>2026-08-29T08:39:51.000Z</time>
      </trkpt>
      <trkpt lat="45.04413" lon="5.8443">
        <ele>1017.516044</ele>
        <time>2026-08-29T08:39:52.000Z</time>
      </trkpt>
      <trkpt lat="45.04414" lon="5.84433">
        <ele>1017.718232</ele>
        <time>2026-08-29T08:39:53.000Z</time>
      </trkpt>
      <trkpt lat="45.04415" lon="5.84435">
        <ele>1017.91351</ele>
        <time>2026-08-29T08:39:54.000Z</time>
      </trkpt>
      <trkpt lat="45.04417" lon="5.84438">
        <ele>1018.117729</ele>
        <time>2026-08-29T08:39:55.000Z</time>
      </trkpt>
      <trkpt lat="45.04418" lon="5.84441">
        <ele>1018.302059</ele>
        <time>2026-08-29T08:39:56.000Z</time>
      </trkpt>
      <trkpt lat="45.04419" lon="5.84443">
        <ele>1018.516145</ele>
        <time>2026-08-29T08:39:57.000Z</time>
      </trkpt>
      <trkpt lat="45.0442" lon="5.84447">
        <ele>1018.72759</ele>
        <time>2026-08-29T08:39:58.000Z</time>
      </trkpt>
      <trkpt lat="45.04421" lon="5.8445">
        <ele>1018.937527</ele>
        <time>2026-08-29T08:39:59.000Z</time>
      </trkpt>
      <trkpt lat="45.04423" lon="5.84453">
        <ele>1019.147657</ele>
        <time>2026-08-29T08:40:00.000Z</time>
      </trkpt>
      <trkpt lat="45.04424" lon="5.84456">
        <ele>1019.353674</ele>
        <time>2026-08-29T08:40:01.000Z</time>
      </trkpt>
      <trkpt lat="45.04425" lon="5.84459">
        <ele>1019.567759</ele>
        <time>2026-08-29T08:40:02.000Z</time>
      </trkpt>
      <trkpt lat="45.04426" lon="5.84461">
        <ele>1019.766912</ele>
        <time>2026-08-29T08:40:03.000Z</time>
      </trkpt>
      <trkpt lat="45.04428" lon="5.84464">
        <ele>1019.966166</ele>
        <time>2026-08-29T08:40:04.000Z</time>
      </trkpt>
      <trkpt lat="45.04429" lon="5.84467">
        <ele>1020.165319</ele>
        <time>2026-08-29T08:40:05.000Z</time>
      </trkpt>
      <trkpt lat="45.0443" lon="5.8447">
        <ele>1020.373037</ele>
        <time>2026-08-29T08:40:06.000Z</time>
      </trkpt>
      <trkpt lat="45.04431" lon="5.84472">
        <ele>1020.567462</ele>
        <time>2026-08-29T08:40:07.000Z</time>
      </trkpt>
      <trkpt lat="45.04432" lon="5.84475">
        <ele>1020.751683</ele>
        <time>2026-08-29T08:40:08.000Z</time>
      </trkpt>
      <trkpt lat="45.04434" lon="5.84477">
        <ele>1020.951597</ele>
        <time>2026-08-29T08:40:09.000Z</time>
      </trkpt>
      <trkpt lat="45.04435" lon="5.8448">
        <ele>1021.121428</ele>
        <time>2026-08-29T08:40:10.000Z</time>
      </trkpt>
      <trkpt lat="45.04436" lon="5.84482">
        <ele>1021.310818</ele>
        <time>2026-08-29T08:40:11.000Z</time>
      </trkpt>
      <trkpt lat="45.04437" lon="5.84485">
        <ele>1021.508217</ele>
        <time>2026-08-29T08:40:12.000Z</time>
      </trkpt>
      <trkpt lat="45.04438" lon="5.84488">
        <ele>1021.716681</ele>
        <time>2026-08-29T08:40:13.000Z</time>
      </trkpt>
      <trkpt lat="45.04439" lon="5.84491">
        <ele>1021.907337</ele>
        <time>2026-08-29T08:40:14.000Z</time>
      </trkpt>
      <trkpt lat="45.04441" lon="5.84494">
        <ele>1022.107307</ele>
        <time>2026-08-29T08:40:15.000Z</time>
      </trkpt>
      <trkpt lat="45.04442" lon="5.84496">
        <ele>1022.31226</ele>
        <time>2026-08-29T08:40:16.000Z</time>
      </trkpt>
      <trkpt lat="45.04443" lon="5.84499">
        <ele>1022.512128</ele>
        <time>2026-08-29T08:40:17.000Z</time>
      </trkpt>
      <trkpt lat="45.04445" lon="5.84502">
        <ele>1022.711997</ele>
        <time>2026-08-29T08:40:18.000Z</time>
      </trkpt>
      <trkpt lat="45.04446" lon="5.84505">
        <ele>1022.911866</ele>
        <time>2026-08-29T08:40:19.000Z</time>
      </trkpt>
      <trkpt lat="45.04447" lon="5.84508">
        <ele>1023.11478</ele>
        <time>2026-08-29T08:40:20.000Z</time>
      </trkpt>
      <trkpt lat="45.04449" lon="5.8451">
        <ele>1023.325696</ele>
        <time>2026-08-29T08:40:21.000Z</time>
      </trkpt>
      <trkpt lat="45.0445" lon="5.84513">
        <ele>1023.510688</ele>
        <time>2026-08-29T08:40:22.000Z</time>
      </trkpt>
      <trkpt lat="45.04451" lon="5.84515">
        <ele>1023.685686</ele>
        <time>2026-08-29T08:40:23.000Z</time>
      </trkpt>
      <trkpt lat="45.04452" lon="5.84518">
        <ele>1023.88081</ele>
        <time>2026-08-29T08:40:24.000Z</time>
      </trkpt>
      <trkpt lat="45.04454" lon="5.8452">
        <ele>1024.072281</ele>
        <time>2026-08-29T08:40:25.000Z</time>
      </trkpt>
      <trkpt lat="45.04455" lon="5.84522">
        <ele>1024.26742</ele>
        <time>2026-08-29T08:40:26.000Z</time>
      </trkpt>
      <trkpt lat="45.04457" lon="5.84525">
        <ele>1024.46343</ele>
        <time>2026-08-29T08:40:27.000Z</time>
      </trkpt>
      <trkpt lat="45.04458" lon="5.84527">
        <ele>1024.650451</ele>
        <time>2026-08-29T08:40:28.000Z</time>
      </trkpt>
      <trkpt lat="45.04459" lon="5.84529">
        <ele>1024.835443</ele>
        <time>2026-08-29T08:40:29.000Z</time>
      </trkpt>
      <trkpt lat="45.0446" lon="5.84532">
        <ele>1024.990356</ele>
        <time>2026-08-29T08:40:30.000Z</time>
      </trkpt>
      <trkpt lat="45.04462" lon="5.84534">
        <ele>1025.165254</ele>
        <time>2026-08-29T08:40:31.000Z</time>
      </trkpt>
      <trkpt lat="45.04463" lon="5.84537">
        <ele>1025.357175</ele>
        <time>2026-08-29T08:40:32.000Z</time>
      </trkpt>
      <trkpt lat="45.04463" lon="5.84539">
        <ele>1025.523385</ele>
        <time>2026-08-29T08:40:33.000Z</time>
      </trkpt>
      <trkpt lat="45.04464" lon="5.84541">
        <ele>1025.693825</ele>
        <time>2026-08-29T08:40:34.000Z</time>
      </trkpt>
      <trkpt lat="45.04465" lon="5.84544">
        <ele>1025.87491</ele>
        <time>2026-08-29T08:40:35.000Z</time>
      </trkpt>
      <trkpt lat="45.04466" lon="5.84547">
        <ele>1026.06683</ele>
        <time>2026-08-29T08:40:36.000Z</time>
      </trkpt>
      <trkpt lat="45.04467" lon="5.8455">
        <ele>1026.260588</ele>
        <time>2026-08-29T08:40:37.000Z</time>
      </trkpt>
      <trkpt lat="45.04469" lon="5.84552">
        <ele>1026.440764</ele>
        <time>2026-08-29T08:40:38.000Z</time>
      </trkpt>
      <trkpt lat="45.0447" lon="5.84555">
        <ele>1026.630647</ele>
        <time>2026-08-29T08:40:39.000Z</time>
      </trkpt>
      <trkpt lat="45.04471" lon="5.84557">
        <ele>1026.798531</ele>
        <time>2026-08-29T08:40:40.000Z</time>
      </trkpt>
      <trkpt lat="45.04471" lon="5.8456">
        <ele>1026.964601</ele>
        <time>2026-08-29T08:40:41.000Z</time>
      </trkpt>
      <trkpt lat="45.04472" lon="5.84562">
        <ele>1027.120333</ele>
        <time>2026-08-29T08:40:42.000Z</time>
      </trkpt>
      <trkpt lat="45.04472" lon="5.84565">
        <ele>1027.282664</ele>
        <time>2026-08-29T08:40:43.000Z</time>
      </trkpt>
      <trkpt lat="45.04473" lon="5.84567">
        <ele>1027.463749</ele>
        <time>2026-08-29T08:40:44.000Z</time>
      </trkpt>
      <trkpt lat="45.04475" lon="5.8457">
        <ele>1027.658889</ele>
        <time>2026-08-29T08:40:45.000Z</time>
      </trkpt>
      <trkpt lat="45.04476" lon="5.84572">
        <ele>1027.840005</ele>
        <time>2026-08-29T08:40:46.000Z</time>
      </trkpt>
      <trkpt lat="45.04478" lon="5.84574">
        <ele>1028.021121</ele>
        <time>2026-08-29T08:40:47.000Z</time>
      </trkpt>
      <trkpt lat="45.04479" lon="5.84576">
        <ele>1028.196561</ele>
        <time>2026-08-29T08:40:48.000Z</time>
      </trkpt>
      <trkpt lat="45.0448" lon="5.84578">
        <ele>1028.352454</ele>
        <time>2026-08-29T08:40:49.000Z</time>
      </trkpt>
      <trkpt lat="45.04482" lon="5.8458">
        <ele>1028.52941</ele>
        <time>2026-08-29T08:40:50.000Z</time>
      </trkpt>
      <trkpt lat="45.04483" lon="5.84582">
        <ele>1028.697339</ele>
        <time>2026-08-29T08:40:51.000Z</time>
      </trkpt>
      <trkpt lat="45.04485" lon="5.84584">
        <ele>1028.907295</ele>
        <time>2026-08-29T08:40:52.000Z</time>
      </trkpt>
      <trkpt lat="45.04486" lon="5.84586">
        <ele>1029.085715</ele>
        <time>2026-08-29T08:40:53.000Z</time>
      </trkpt>
      <trkpt lat="45.04488" lon="5.84588">
        <ele>1029.26589</ele>
        <time>2026-08-29T08:40:54.000Z</time>
      </trkpt>
      <trkpt lat="45.04488" lon="5.84591">
        <ele>1029.42822</ele>
        <time>2026-08-29T08:40:55.000Z</time>
      </trkpt>
      <trkpt lat="45.0449" lon="5.84593">
        <ele>1029.619612</ele>
        <time>2026-08-29T08:40:56.000Z</time>
      </trkpt>
      <trkpt lat="45.04491" lon="5.84595">
        <ele>1029.790405</ele>
        <time>2026-08-29T08:40:57.000Z</time>
      </trkpt>
      <trkpt lat="45.04492" lon="5.84597">
        <ele>1029.960844</ele>
        <time>2026-08-29T08:40:58.000Z</time>
      </trkpt>
      <trkpt lat="45.04494" lon="5.846">
        <ele>1030.141019</ele>
        <time>2026-08-29T08:40:59.000Z</time>
      </trkpt>
      <trkpt lat="45.04494" lon="5.84602">
        <ele>1030.299849</ele>
        <time>2026-08-29T08:41:00.000Z</time>
      </trkpt>
      <trkpt lat="45.04495" lon="5.84604">
        <ele>1030.455357</ele>
        <time>2026-08-29T08:41:01.000Z</time>
      </trkpt>
      <trkpt lat="45.04496" lon="5.84607">
        <ele>1030.625797</ele>
        <time>2026-08-29T08:41:02.000Z</time>
      </trkpt>
      <trkpt lat="45.04498" lon="5.84609">
        <ele>1030.815679</ele>
        <time>2026-08-29T08:41:03.000Z</time>
      </trkpt>
      <trkpt lat="45.04499" lon="5.84612">
        <ele>1031.02202</ele>
        <time>2026-08-29T08:41:04.000Z</time>
      </trkpt>
      <trkpt lat="45.04501" lon="5.84614">
        <ele>1031.213412</ele>
        <time>2026-08-29T08:41:05.000Z</time>
      </trkpt>
      <trkpt lat="45.04503" lon="5.84616">
        <ele>1031.422127</ele>
        <time>2026-08-29T08:41:06.000Z</time>
      </trkpt>
      <trkpt lat="45.04505" lon="5.84618">
        <ele>1031.642135</ele>
        <time>2026-08-29T08:41:07.000Z</time>
      </trkpt>
      <trkpt lat="45.04507" lon="5.84619">
        <ele>1031.869679</ele>
        <time>2026-08-29T08:41:08.000Z</time>
      </trkpt>
      <trkpt lat="45.0451" lon="5.84621">
        <ele>1032.099422</ele>
        <time>2026-08-29T08:41:09.000Z</time>
      </trkpt>
      <trkpt lat="45.04511" lon="5.84623">
        <ele>1032.276377</ele>
        <time>2026-08-29T08:41:10.000Z</time>
      </trkpt>
      <trkpt lat="45.04513" lon="5.84625">
        <ele>1032.44664</ele>
        <time>2026-08-29T08:41:11.000Z</time>
      </trkpt>
      <trkpt lat="45.04515" lon="5.84627">
        <ele>1032.665893</ele>
        <time>2026-08-29T08:41:12.000Z</time>
      </trkpt>
      <trkpt lat="45.04517" lon="5.84628">
        <ele>1032.880315</ele>
        <time>2026-08-29T08:41:13.000Z</time>
      </trkpt>
      <trkpt lat="45.04519" lon="5.84629">
        <ele>1033.094462</ele>
        <time>2026-08-29T08:41:14.000Z</time>
      </trkpt>
      <trkpt lat="45.04521" lon="5.84631">
        <ele>1033.287639</ele>
        <time>2026-08-29T08:41:15.000Z</time>
      </trkpt>
      <trkpt lat="45.04524" lon="5.84632">
        <ele>1033.49906</ele>
        <time>2026-08-29T08:41:16.000Z</time>
      </trkpt>
      <trkpt lat="45.04526" lon="5.84634">
        <ele>1033.715824</ele>
        <time>2026-08-29T08:41:17.000Z</time>
      </trkpt>
      <trkpt lat="45.04528" lon="5.84635">
        <ele>1033.942969</ele>
        <time>2026-08-29T08:41:18.000Z</time>
      </trkpt>
      <trkpt lat="45.04529" lon="5.84637">
        <ele>1034.097882</ele>
        <time>2026-08-29T08:41:19.000Z</time>
      </trkpt>
      <trkpt lat="45.04531" lon="5.84639">
        <ele>1034.271324</ele>
        <time>2026-08-29T08:41:20.000Z</time>
      </trkpt>
      <trkpt lat="45.04533" lon="5.8464">
        <ele>1034.434184</ele>
        <time>2026-08-29T08:41:21.000Z</time>
      </trkpt>
      <trkpt lat="45.04535" lon="5.84641">
        <ele>1034.622257</ele>
        <time>2026-08-29T08:41:22.000Z</time>
      </trkpt>
      <trkpt lat="45.04536" lon="5.84642">
        <ele>1034.750357</ele>
        <time>2026-08-29T08:41:23.000Z</time>
      </trkpt>
      <trkpt lat="45.04537" lon="5.84644">
        <ele>1034.900618</ele>
        <time>2026-08-29T08:41:24.000Z</time>
      </trkpt>
      <trkpt lat="45.04539" lon="5.84645">
        <ele>1035.037362</ele>
        <time>2026-08-29T08:41:25.000Z</time>
      </trkpt>
      <trkpt lat="45.04539" lon="5.84646">
        <ele>1035.118527</ele>
        <time>2026-08-29T08:41:26.000Z</time>
      </trkpt>
      <trkpt lat="45.0454" lon="5.84647">
        <ele>1035.207004</ele>
        <time>2026-08-29T08:41:27.000Z</time>
      </trkpt>
      <trkpt lat="45.04542" lon="5.84648">
        <ele>1035.403662</ele>
        <time>2026-08-29T08:41:28.000Z</time>
      </trkpt>
      <trkpt lat="45.04544" lon="5.84649">
        <ele>1035.589433</ele>
        <time>2026-08-29T08:41:29.000Z</time>
      </trkpt>
      <trkpt lat="45.04546" lon="5.8465">
        <ele>1035.756725</ele>
        <time>2026-08-29T08:41:30.000Z</time>
      </trkpt>
      <trkpt lat="45.04548" lon="5.84652">
        <ele>1035.963131</ele>
        <time>2026-08-29T08:41:31.000Z</time>
      </trkpt>
      <trkpt lat="45.0455" lon="5.84653">
        <ele>1036.140859</ele>
        <time>2026-08-29T08:41:32.000Z</time>
      </trkpt>
      <trkpt lat="45.04552" lon="5.84654">
        <ele>1036.328932</ele>
        <time>2026-08-29T08:41:33.000Z</time>
      </trkpt>
      <trkpt lat="45.04554" lon="5.84655">
        <ele>1036.517005</ele>
        <time>2026-08-29T08:41:34.000Z</time>
      </trkpt>
      <trkpt lat="45.04556" lon="5.84656">
        <ele>1036.71545</ele>
        <time>2026-08-29T08:41:35.000Z</time>
      </trkpt>
      <trkpt lat="45.04558" lon="5.84658">
        <ele>1036.906264</ele>
        <time>2026-08-29T08:41:36.000Z</time>
      </trkpt>
      <trkpt lat="45.04559" lon="5.84659">
        <ele>1037.061126</ele>
        <time>2026-08-29T08:41:37.000Z</time>
      </trkpt>
      <trkpt lat="45.04562" lon="5.8466">
        <ele>1037.27766</ele>
        <time>2026-08-29T08:41:38.000Z</time>
      </trkpt>
      <trkpt lat="45.04564" lon="5.84661">
        <ele>1037.432887</ele>
        <time>2026-08-29T08:41:39.000Z</time>
      </trkpt>
      <trkpt lat="45.04566" lon="5.84661">
        <ele>1037.596295</ele>
        <time>2026-08-29T08:41:40.000Z</time>
      </trkpt>
      <trkpt lat="45.04568" lon="5.84662">
        <ele>1037.765845</ele>
        <time>2026-08-29T08:41:41.000Z</time>
      </trkpt>
      <trkpt lat="45.0457" lon="5.84662">
        <ele>1037.95288</ele>
        <time>2026-08-29T08:41:42.000Z</time>
      </trkpt>
      <trkpt lat="45.04572" lon="5.84663">
        <ele>1038.149195</ele>
        <time>2026-08-29T08:41:43.000Z</time>
      </trkpt>
      <trkpt lat="45.04574" lon="5.84663">
        <ele>1038.319675</ele>
        <time>2026-08-29T08:41:44.000Z</time>
      </trkpt>
      <trkpt lat="45.04576" lon="5.84664">
        <ele>1038.49754</ele>
        <time>2026-08-29T08:41:45.000Z</time>
      </trkpt>
      <trkpt lat="45.04578" lon="5.84664">
        <ele>1038.658782</ele>
        <time>2026-08-29T08:41:46.000Z</time>
      </trkpt>
      <trkpt lat="45.04581" lon="5.84665">
        <ele>1038.86241</ele>
        <time>2026-08-29T08:41:47.000Z</time>
      </trkpt>
      <trkpt lat="45.04583" lon="5.84665">
        <ele>1039.048597</ele>
        <time>2026-08-29T08:41:48.000Z</time>
      </trkpt>
      <trkpt lat="45.04585" lon="5.84665">
        <ele>1039.260533</ele>
        <time>2026-08-29T08:41:49.000Z</time>
      </trkpt>
      <trkpt lat="45.04588" lon="5.84666">
        <ele>1039.456849</ele>
        <time>2026-08-29T08:41:50.000Z</time>
      </trkpt>
      <trkpt lat="45.0459" lon="5.84666">
        <ele>1039.668037</ele>
        <time>2026-08-29T08:41:51.000Z</time>
      </trkpt>
      <trkpt lat="45.04592" lon="5.84667">
        <ele>1039.872613</ele>
        <time>2026-08-29T08:41:52.000Z</time>
      </trkpt>
      <trkpt lat="45.04594" lon="5.84669">
        <ele>1040.047336</ele>
        <time>2026-08-29T08:41:53.000Z</time>
      </trkpt>
      <trkpt lat="45.04596" lon="5.84671">
        <ele>1040.243144</ele>
        <time>2026-08-29T08:41:54.000Z</time>
      </trkpt>
      <trkpt lat="45.04598" lon="5.84673">
        <ele>1040.428145</ele>
        <time>2026-08-29T08:41:55.000Z</time>
      </trkpt>
      <trkpt lat="45.04599" lon="5.84675">
        <ele>1040.609971</ele>
        <time>2026-08-29T08:41:56.000Z</time>
      </trkpt>
      <trkpt lat="45.04602" lon="5.84676">
        <ele>1040.827775</ele>
        <time>2026-08-29T08:41:57.000Z</time>
      </trkpt>
      <trkpt lat="45.04604" lon="5.84678">
        <ele>1041.019865</ele>
        <time>2026-08-29T08:41:58.000Z</time>
      </trkpt>
      <trkpt lat="45.04605" lon="5.8468">
        <ele>1041.201187</ele>
        <time>2026-08-29T08:41:59.000Z</time>
      </trkpt>
      <trkpt lat="45.04606" lon="5.84683">
        <ele>1041.390092</ele>
        <time>2026-08-29T08:42:00.000Z</time>
      </trkpt>
      <trkpt lat="45.04608" lon="5.84686">
        <ele>1041.579268</ele>
        <time>2026-08-29T08:42:01.000Z</time>
      </trkpt>
      <trkpt lat="45.04609" lon="5.84688">
        <ele>1041.753937</ele>
        <time>2026-08-29T08:42:02.000Z</time>
      </trkpt>
      <trkpt lat="45.0461" lon="5.84691">
        <ele>1041.950666</ele>
        <time>2026-08-29T08:42:03.000Z</time>
      </trkpt>
      <trkpt lat="45.0461" lon="5.84694">
        <ele>1042.121235</ele>
        <time>2026-08-29T08:42:04.000Z</time>
      </trkpt>
      <trkpt lat="45.04611" lon="5.84697">
        <ele>1042.303672</ele>
        <time>2026-08-29T08:42:05.000Z</time>
      </trkpt>
      <trkpt lat="45.04612" lon="5.847">
        <ele>1042.479821</ele>
        <time>2026-08-29T08:42:06.000Z</time>
      </trkpt>
      <trkpt lat="45.04613" lon="5.84702">
        <ele>1042.667673</ele>
        <time>2026-08-29T08:42:07.000Z</time>
      </trkpt>
      <trkpt lat="45.04613" lon="5.84705">
        <ele>1042.839868</ele>
        <time>2026-08-29T08:42:08.000Z</time>
      </trkpt>
      <trkpt lat="45.04613" lon="5.84708">
        <ele>1043.022673</ele>
        <time>2026-08-29T08:42:09.000Z</time>
      </trkpt>
      <trkpt lat="45.04614" lon="5.84711">
        <ele>1043.208242</ele>
        <time>2026-08-29T08:42:10.000Z</time>
      </trkpt>
      <trkpt lat="45.04614" lon="5.84714">
        <ele>1043.393154</ele>
        <time>2026-08-29T08:42:11.000Z</time>
      </trkpt>
      <trkpt lat="45.04615" lon="5.84717">
        <ele>1043.569303</ele>
        <time>2026-08-29T08:42:12.000Z</time>
      </trkpt>
      <trkpt lat="45.04615" lon="5.8472">
        <ele>1043.73621</ele>
        <time>2026-08-29T08:42:13.000Z</time>
      </trkpt>
      <trkpt lat="45.04616" lon="5.84723">
        <ele>1043.909739</ele>
        <time>2026-08-29T08:42:14.000Z</time>
      </trkpt>
      <trkpt lat="45.04616" lon="5.84726">
        <ele>1044.073351</ele>
        <time>2026-08-29T08:42:15.000Z</time>
      </trkpt>
      <trkpt lat="45.04617" lon="5.84728">
        <ele>1044.244633</ele>
        <time>2026-08-29T08:42:16.000Z</time>
      </trkpt>
      <trkpt lat="45.04617" lon="5.84731">
        <ele>1044.411539</ele>
        <time>2026-08-29T08:42:17.000Z</time>
      </trkpt>
      <trkpt lat="45.04617" lon="5.84734">
        <ele>1044.573637</ele>
        <time>2026-08-29T08:42:18.000Z</time>
      </trkpt>
      <trkpt lat="45.04618" lon="5.84737">
        <ele>1044.755387</ele>
        <time>2026-08-29T08:42:19.000Z</time>
      </trkpt>
      <trkpt lat="45.04619" lon="5.8474">
        <ele>1044.937138</ele>
        <time>2026-08-29T08:42:20.000Z</time>
      </trkpt>
      <trkpt lat="45.04619" lon="5.84743">
        <ele>1045.122051</ele>
        <time>2026-08-29T08:42:21.000Z</time>
      </trkpt>
      <trkpt lat="45.0462" lon="5.84745">
        <ele>1045.292431</ele>
        <time>2026-08-29T08:42:22.000Z</time>
      </trkpt>
      <trkpt lat="45.04621" lon="5.84748">
        <ele>1045.461851</ele>
        <time>2026-08-29T08:42:23.000Z</time>
      </trkpt>
      <trkpt lat="45.04622" lon="5.84751">
        <ele>1045.633561</ele>
        <time>2026-08-29T08:42:24.000Z</time>
      </trkpt>
      <trkpt lat="45.04623" lon="5.84753">
        <ele>1045.817744</ele>
        <time>2026-08-29T08:42:25.000Z</time>
      </trkpt>
      <trkpt lat="45.04624" lon="5.84756">
        <ele>1046.016369</ele>
        <time>2026-08-29T08:42:26.000Z</time>
      </trkpt>
      <trkpt lat="45.04625" lon="5.84759">
        <ele>1046.216822</ele>
        <time>2026-08-29T08:42:27.000Z</time>
      </trkpt>
      <trkpt lat="45.04626" lon="5.84762">
        <ele>1046.412031</ele>
        <time>2026-08-29T08:42:28.000Z</time>
      </trkpt>
      <trkpt lat="45.04627" lon="5.84765">
        <ele>1046.594467</ele>
        <time>2026-08-29T08:42:29.000Z</time>
      </trkpt>
      <trkpt lat="45.04628" lon="5.84767">
        <ele>1046.773715</ele>
        <time>2026-08-29T08:42:30.000Z</time>
      </trkpt>
      <trkpt lat="45.04629" lon="5.84769">
        <ele>1046.929644</ele>
        <time>2026-08-29T08:42:31.000Z</time>
      </trkpt>
      <trkpt lat="45.04631" lon="5.84772">
        <ele>1047.10524</ele>
        <time>2026-08-29T08:42:32.000Z</time>
      </trkpt>
      <trkpt lat="45.04632" lon="5.84774">
        <ele>1047.284487</ele>
        <time>2026-08-29T08:42:33.000Z</time>
      </trkpt>
      <trkpt lat="45.04633" lon="5.84776">
        <ele>1047.474522</ele>
        <time>2026-08-29T08:42:34.000Z</time>
      </trkpt>
      <trkpt lat="45.04635" lon="5.84779">
        <ele>1047.64011</ele>
        <time>2026-08-29T08:42:35.000Z</time>
      </trkpt>
      <trkpt lat="45.04637" lon="5.8478">
        <ele>1047.828595</ele>
        <time>2026-08-29T08:42:36.000Z</time>
      </trkpt>
      <trkpt lat="45.04638" lon="5.84782">
        <ele>1047.99304</ele>
        <time>2026-08-29T08:42:37.000Z</time>
      </trkpt>
      <trkpt lat="45.0464" lon="5.84784">
        <ele>1048.164409</ele>
        <time>2026-08-29T08:42:38.000Z</time>
      </trkpt>
      <trkpt lat="45.04641" lon="5.84786">
        <ele>1048.343593</ele>
        <time>2026-08-29T08:42:39.000Z</time>
      </trkpt>
      <trkpt lat="45.04643" lon="5.84788">
        <ele>1048.545948</ele>
        <time>2026-08-29T08:42:40.000Z</time>
      </trkpt>
      <trkpt lat="45.04645" lon="5.8479">
        <ele>1048.725132</ele>
        <time>2026-08-29T08:42:41.000Z</time>
      </trkpt>
      <trkpt lat="45.04647" lon="5.84792">
        <ele>1048.904317</ele>
        <time>2026-08-29T08:42:42.000Z</time>
      </trkpt>
      <trkpt lat="45.04648" lon="5.84794">
        <ele>1049.095744</ele>
        <time>2026-08-29T08:42:43.000Z</time>
      </trkpt>
      <trkpt lat="45.04649" lon="5.84797">
        <ele>1049.262148</ele>
        <time>2026-08-29T08:42:44.000Z</time>
      </trkpt>
      <trkpt lat="45.0465" lon="5.84799">
        <ele>1049.441877</ele>
        <time>2026-08-29T08:42:45.000Z</time>
      </trkpt>
      <trkpt lat="45.04652" lon="5.84801">
        <ele>1049.635234</ele>
        <time>2026-08-29T08:42:46.000Z</time>
      </trkpt>
      <trkpt lat="45.04653" lon="5.84804">
        <ele>1049.81083</ele>
        <time>2026-08-29T08:42:47.000Z</time>
      </trkpt>
      <trkpt lat="45.04655" lon="5.84806">
        <ele>1049.996464</ele>
        <time>2026-08-29T08:42:48.000Z</time>
      </trkpt>
      <trkpt lat="45.04656" lon="5.84808">
        <ele>1050.185869</ele>
        <time>2026-08-29T08:42:49.000Z</time>
      </trkpt>
      <trkpt lat="45.04658" lon="5.8481">
        <ele>1050.38742</ele>
        <time>2026-08-29T08:42:50.000Z</time>
      </trkpt>
      <trkpt lat="45.0466" lon="5.84813">
        <ele>1050.574667</ele>
        <time>2026-08-29T08:42:51.000Z</time>
      </trkpt>
      <trkpt lat="45.04661" lon="5.84815">
        <ele>1050.776217</ele>
        <time>2026-08-29T08:42:52.000Z</time>
      </trkpt>
      <trkpt lat="45.04663" lon="5.84817">
        <ele>1050.961851</ele>
        <time>2026-08-29T08:42:53.000Z</time>
      </trkpt>
      <trkpt lat="45.04664" lon="5.8482">
        <ele>1051.160474</ele>
        <time>2026-08-29T08:42:54.000Z</time>
      </trkpt>
      <trkpt lat="45.04666" lon="5.84822">
        <ele>1051.335157</ele>
        <time>2026-08-29T08:42:55.000Z</time>
      </trkpt>
      <trkpt lat="45.04667" lon="5.84825">
        <ele>1051.515953</ele>
        <time>2026-08-29T08:42:56.000Z</time>
      </trkpt>
      <trkpt lat="45.04668" lon="5.84827">
        <ele>1051.705358</ele>
        <time>2026-08-29T08:42:57.000Z</time>
      </trkpt>
      <trkpt lat="45.0467" lon="5.84829">
        <ele>1051.866531</ele>
        <time>2026-08-29T08:42:58.000Z</time>
      </trkpt>
      <trkpt lat="45.04671" lon="5.84832">
        <ele>1052.050444</ele>
        <time>2026-08-29T08:42:59.000Z</time>
      </trkpt>
      <trkpt lat="45.04672" lon="5.84834">
        <ele>1052.241987</ele>
        <time>2026-08-29T08:43:00.000Z</time>
      </trkpt>
      <trkpt lat="45.04674" lon="5.84837">
        <ele>1052.450034</ele>
        <time>2026-08-29T08:43:01.000Z</time>
      </trkpt>
      <trkpt lat="45.04675" lon="5.84839">
        <ele>1052.657064</ele>
        <time>2026-08-29T08:43:02.000Z</time>
      </trkpt>
      <trkpt lat="45.04677" lon="5.84842">
        <ele>1052.869722</ele>
        <time>2026-08-29T08:43:03.000Z</time>
      </trkpt>
      <trkpt lat="45.04678" lon="5.84844">
        <ele>1053.056964</ele>
        <time>2026-08-29T08:43:04.000Z</time>
      </trkpt>
      <trkpt lat="45.04679" lon="5.84847">
        <ele>1053.243876</ele>
        <time>2026-08-29T08:43:05.000Z</time>
      </trkpt>
      <trkpt lat="45.0468" lon="5.84849">
        <ele>1053.426456</ele>
        <time>2026-08-29T08:43:06.000Z</time>
      </trkpt>
      <trkpt lat="45.04681" lon="5.84852">
        <ele>1053.613368</ele>
        <time>2026-08-29T08:43:07.000Z</time>
      </trkpt>
      <trkpt lat="45.04683" lon="5.84854">
        <ele>1053.80642</ele>
        <time>2026-08-29T08:43:08.000Z</time>
      </trkpt>
      <trkpt lat="45.04684" lon="5.84857">
        <ele>1053.99283</ele>
        <time>2026-08-29T08:43:09.000Z</time>
      </trkpt>
      <trkpt lat="45.04685" lon="5.8486">
        <ele>1054.204395</ele>
        <time>2026-08-29T08:43:10.000Z</time>
      </trkpt>
      <trkpt lat="45.04687" lon="5.84862">
        <ele>1054.40113</ele>
        <time>2026-08-29T08:43:11.000Z</time>
      </trkpt>
      <trkpt lat="45.04688" lon="5.84865">
        <ele>1054.608159</ele>
        <time>2026-08-29T08:43:12.000Z</time>
      </trkpt>
      <trkpt lat="45.04689" lon="5.84868">
        <ele>1054.797886</ele>
        <time>2026-08-29T08:43:13.000Z</time>
      </trkpt>
      <trkpt lat="45.0469" lon="5.8487">
        <ele>1054.946699</ele>
        <time>2026-08-29T08:43:14.000Z</time>
      </trkpt>
      <trkpt lat="45.04691" lon="5.84872">
        <ele>1055.143152</ele>
        <time>2026-08-29T08:43:15.000Z</time>
      </trkpt>
      <trkpt lat="45.04692" lon="5.84875">
        <ele>1055.339887</ele>
        <time>2026-08-29T08:43:16.000Z</time>
      </trkpt>
      <trkpt lat="45.04693" lon="5.84878">
        <ele>1055.517074</ele>
        <time>2026-08-29T08:43:17.000Z</time>
      </trkpt>
      <trkpt lat="45.04694" lon="5.8488">
        <ele>1055.701204</ele>
        <time>2026-08-29T08:43:18.000Z</time>
      </trkpt>
      <trkpt lat="45.04696" lon="5.84883">
        <ele>1055.895934</ele>
        <time>2026-08-29T08:43:19.000Z</time>
      </trkpt>
      <trkpt lat="45.04697" lon="5.84885">
        <ele>1056.072277</ele>
        <time>2026-08-29T08:43:20.000Z</time>
      </trkpt>
      <trkpt lat="45.04698" lon="5.84888">
        <ele>1056.252739</ele>
        <time>2026-08-29T08:43:21.000Z</time>
      </trkpt>
      <trkpt lat="45.04699" lon="5.84889">
        <ele>1056.435083</ele>
        <time>2026-08-29T08:43:22.000Z</time>
      </trkpt>
      <trkpt lat="45.04701" lon="5.84891">
        <ele>1056.610806</ele>
        <time>2026-08-29T08:43:23.000Z</time>
      </trkpt>
      <trkpt lat="45.04703" lon="5.84893">
        <ele>1056.799897</ele>
        <time>2026-08-29T08:43:24.000Z</time>
      </trkpt>
      <trkpt lat="45.04704" lon="5.84895">
        <ele>1056.977975</ele>
        <time>2026-08-29T08:43:25.000Z</time>
      </trkpt>
      <trkpt lat="45.04705" lon="5.84897">
        <ele>1057.154417</ele>
        <time>2026-08-29T08:43:26.000Z</time>
      </trkpt>
      <trkpt lat="45.04706" lon="5.849">
        <ele>1057.329323</ele>
        <time>2026-08-29T08:43:27.000Z</time>
      </trkpt>
      <trkpt lat="45.04707" lon="5.84903">
        <ele>1057.513452</ele>
        <time>2026-08-29T08:43:28.000Z</time>
      </trkpt>
      <trkpt lat="45.04707" lon="5.84906">
        <ele>1057.706434</ele>
        <time>2026-08-29T08:43:29.000Z</time>
      </trkpt>
      <trkpt lat="45.04707" lon="5.84909">
        <ele>1057.910714</ele>
        <time>2026-08-29T08:43:30.000Z</time>
      </trkpt>
      <trkpt lat="45.04706" lon="5.84913">
        <ele>1058.129387</ele>
        <time>2026-08-29T08:43:31.000Z</time>
      </trkpt>
      <trkpt lat="45.04706" lon="5.84916">
        <ele>1058.34553</ele>
        <time>2026-08-29T08:43:32.000Z</time>
      </trkpt>
      <trkpt lat="45.04705" lon="5.84919">
        <ele>1058.561338</ele>
        <time>2026-08-29T08:43:33.000Z</time>
      </trkpt>
      <trkpt lat="45.04704" lon="5.84922">
        <ele>1058.739909</ele>
        <time>2026-08-29T08:43:34.000Z</time>
      </trkpt>
      <trkpt lat="45.04703" lon="5.84925">
        <ele>1058.941891</ele>
        <time>2026-08-29T08:43:35.000Z</time>
      </trkpt>
      <trkpt lat="45.04701" lon="5.84928">
        <ele>1059.153717</ele>
        <time>2026-08-29T08:43:36.000Z</time>
      </trkpt>
      <trkpt lat="45.047" lon="5.8493">
        <ele>1059.361763</ele>
        <time>2026-08-29T08:43:37.000Z</time>
      </trkpt>
      <trkpt lat="45.04698" lon="5.84933">
        <ele>1059.575768</ele>
        <time>2026-08-29T08:43:38.000Z</time>
      </trkpt>
      <trkpt lat="45.04696" lon="5.84934">
        <ele>1059.794328</ele>
        <time>2026-08-29T08:43:39.000Z</time>
      </trkpt>
      <trkpt lat="45.04693" lon="5.84935">
        <ele>1060.027985</ele>
        <time>2026-08-29T08:43:40.000Z</time>
      </trkpt>
      <trkpt lat="45.04691" lon="5.84935">
        <ele>1060.25629</ele>
        <time>2026-08-29T08:43:41.000Z</time>
      </trkpt>
      <trkpt lat="45.04688" lon="5.84935">
        <ele>1060.466161</ele>
        <time>2026-08-29T08:43:42.000Z</time>
      </trkpt>
      <trkpt lat="45.04686" lon="5.84936">
        <ele>1060.693213</ele>
        <time>2026-08-29T08:43:43.000Z</time>
      </trkpt>
      <trkpt lat="45.04683" lon="5.84935">
        <ele>1060.905965</ele>
        <time>2026-08-29T08:43:44.000Z</time>
      </trkpt>
      <trkpt lat="45.04681" lon="5.84934">
        <ele>1061.108603</ele>
        <time>2026-08-29T08:43:45.000Z</time>
      </trkpt>
      <trkpt lat="45.04679" lon="5.84932">
        <ele>1061.329561</ele>
        <time>2026-08-29T08:43:46.000Z</time>
      </trkpt>
      <trkpt lat="45.04677" lon="5.84929">
        <ele>1061.556498</ele>
        <time>2026-08-29T08:43:47.000Z</time>
      </trkpt>
      <trkpt lat="45.04675" lon="5.84926">
        <ele>1061.788294</ele>
        <time>2026-08-29T08:43:48.000Z</time>
      </trkpt>
      <trkpt lat="45.04673" lon="5.84924">
        <ele>1062.023939</ele>
        <time>2026-08-29T08:43:49.000Z</time>
      </trkpt>
      <trkpt lat="45.04671" lon="5.84922">
        <ele>1062.255583</ele>
        <time>2026-08-29T08:43:50.000Z</time>
      </trkpt>
      <trkpt lat="45.04669" lon="5.8492">
        <ele>1062.475732</ele>
        <time>2026-08-29T08:43:51.000Z</time>
      </trkpt>
      <trkpt lat="45.04668" lon="5.84917">
        <ele>1062.692361</ele>
        <time>2026-08-29T08:43:52.000Z</time>
      </trkpt>
      <trkpt lat="45.04666" lon="5.84914">
        <ele>1062.909708</ele>
        <time>2026-08-29T08:43:53.000Z</time>
      </trkpt>
      <trkpt lat="45.04664" lon="5.84912">
        <ele>1063.117318</ele>
        <time>2026-08-29T08:43:54.000Z</time>
      </trkpt>
      <trkpt lat="45.04663" lon="5.84909">
        <ele>1063.329977</ele>
        <time>2026-08-29T08:43:55.000Z</time>
      </trkpt>
      <trkpt lat="45.04661" lon="5.84907">
        <ele>1063.540419</ele>
        <time>2026-08-29T08:43:56.000Z</time>
      </trkpt>
      <trkpt lat="45.04659" lon="5.84905">
        <ele>1063.748466</ele>
        <time>2026-08-29T08:43:57.000Z</time>
      </trkpt>
      <trkpt lat="45.04658" lon="5.84902">
        <ele>1063.946063</ele>
        <time>2026-08-29T08:43:58.000Z</time>
      </trkpt>
      <trkpt lat="45.04656" lon="5.84899">
        <ele>1064.185608</ele>
        <time>2026-08-29T08:43:59.000Z</time>
      </trkpt>
      <trkpt lat="45.04654" lon="5.84897">
        <ele>1064.42123</ele>
        <time>2026-08-29T08:44:00.000Z</time>
      </trkpt>
      <trkpt lat="45.04652" lon="5.84895">
        <ele>1064.632922</ele>
        <time>2026-08-29T08:44:01.000Z</time>
      </trkpt>
      <trkpt lat="45.0465" lon="5.84892">
        <ele>1064.832</ele>
        <time>2026-08-29T08:44:02.000Z</time>
      </trkpt>
      <trkpt lat="45.04649" lon="5.8489">
        <ele>1065.048725</ele>
        <time>2026-08-29T08:44:03.000Z</time>
      </trkpt>
      <trkpt lat="45.04648" lon="5.84887">
        <ele>1065.245179</ele>
        <time>2026-08-29T08:44:04.000Z</time>
      </trkpt>
      <trkpt lat="45.04646" lon="5.84884">
        <ele>1065.436723</ele>
        <time>2026-08-29T08:44:05.000Z</time>
      </trkpt>
      <trkpt lat="45.04645" lon="5.84882">
        <ele>1065.623635</ele>
        <time>2026-08-29T08:44:06.000Z</time>
      </trkpt>
      <trkpt lat="45.04644" lon="5.8488">
        <ele>1065.799978</ele>
        <time>2026-08-29T08:44:07.000Z</time>
      </trkpt>
      <trkpt lat="45.04643" lon="5.84877">
        <ele>1065.981627</ele>
        <time>2026-08-29T08:44:08.000Z</time>
      </trkpt>
      <trkpt lat="45.04642" lon="5.84875">
        <ele>1066.158518</ele>
        <time>2026-08-29T08:44:09.000Z</time>
      </trkpt>
      <trkpt lat="45.0464" lon="5.84873">
        <ele>1066.330723</ele>
        <time>2026-08-29T08:44:10.000Z</time>
      </trkpt>
      <trkpt lat="45.04639" lon="5.84871">
        <ele>1066.507613</ele>
        <time>2026-08-29T08:44:11.000Z</time>
      </trkpt>
      <trkpt lat="45.04638" lon="5.84868">
        <ele>1066.689278</ele>
        <time>2026-08-29T08:44:12.000Z</time>
      </trkpt>
      <trkpt lat="45.04636" lon="5.84866">
        <ele>1066.876521</ele>
        <time>2026-08-29T08:44:13.000Z</time>
      </trkpt>
      <trkpt lat="45.04635" lon="5.84864">
        <ele>1067.0546</ele>
        <time>2026-08-29T08:44:14.000Z</time>
      </trkpt>
      <trkpt lat="45.04634" lon="5.84862">
        <ele>1067.231491</ele>
        <time>2026-08-29T08:44:15.000Z</time>
      </trkpt>
      <trkpt lat="45.04633" lon="5.84859">
        <ele>1067.402912</ele>
        <time>2026-08-29T08:44:16.000Z</time>
      </trkpt>
      <trkpt lat="45.04631" lon="5.84857">
        <ele>1067.575117</ele>
        <time>2026-08-29T08:44:17.000Z</time>
      </trkpt>
      <trkpt lat="45.0463" lon="5.84855">
        <ele>1067.762443</ele>
        <time>2026-08-29T08:44:18.000Z</time>
      </trkpt>
      <trkpt lat="45.04628" lon="5.84853">
        <ele>1067.954523</ele>
        <time>2026-08-29T08:44:19.000Z</time>
      </trkpt>
      <trkpt lat="45.04627" lon="5.84851">
        <ele>1068.138819</ele>
        <time>2026-08-29T08:44:20.000Z</time>
      </trkpt>
      <trkpt lat="45.04625" lon="5.84849">
        <ele>1068.318829</ele>
        <time>2026-08-29T08:44:21.000Z</time>
      </trkpt>
      <trkpt lat="45.04624" lon="5.84846">
        <ele>1068.503125</ele>
        <time>2026-08-29T08:44:22.000Z</time>
      </trkpt>
      <trkpt lat="45.04623" lon="5.84844">
        <ele>1068.681317</ele>
        <time>2026-08-29T08:44:23.000Z</time>
      </trkpt>
      <trkpt lat="45.04622" lon="5.84842">
        <ele>1068.853275</ele>
        <time>2026-08-29T08:44:24.000Z</time>
      </trkpt>
      <trkpt lat="45.0462" lon="5.8484">
        <ele>1069.014613</ele>
        <time>2026-08-29T08:44:25.000Z</time>
      </trkpt>
      <trkpt lat="45.04619" lon="5.84838">
        <ele>1069.176549</ele>
        <time>2026-08-29T08:44:26.000Z</time>
      </trkpt>
      <trkpt lat="45.04618" lon="5.84836">
        <ele>1069.343236</ele>
        <time>2026-08-29T08:44:27.000Z</time>
      </trkpt>
      <trkpt lat="45.04617" lon="5.84833">
        <ele>1069.519692</ele>
        <time>2026-08-29T08:44:28.000Z</time>
      </trkpt>
      <trkpt lat="45.04615" lon="5.84831">
        <ele>1069.707054</ele>
        <time>2026-08-29T08:44:29.000Z</time>
      </trkpt>
      <trkpt lat="45.04614" lon="5.84829">
        <ele>1069.878584</ele>
        <time>2026-08-29T08:44:30.000Z</time>
      </trkpt>
      <trkpt lat="45.04613" lon="5.84827">
        <ele>1070.041818</ele>
        <time>2026-08-29T08:44:31.000Z</time>
      </trkpt>
      <trkpt lat="45.04612" lon="5.84825">
        <ele>1070.211244</ele>
        <time>2026-08-29T08:44:32.000Z</time>
      </trkpt>
      <trkpt lat="45.0461" lon="5.84823">
        <ele>1070.37646</ele>
        <time>2026-08-29T08:44:33.000Z</time>
      </trkpt>
      <trkpt lat="45.04609" lon="5.84821">
        <ele>1070.52806</ele>
        <time>2026-08-29T08:44:34.000Z</time>
      </trkpt>
      <trkpt lat="45.04608" lon="5.8482">
        <ele>1070.685343</ele>
        <time>2026-08-29T08:44:35.000Z</time>
      </trkpt>
      <trkpt lat="45.04607" lon="5.84818">
        <ele>1070.848576</ele>
        <time>2026-08-29T08:44:36.000Z</time>
      </trkpt>
      <trkpt lat="45.04605" lon="5.84816">
        <ele>1071.016299</ele>
        <time>2026-08-29T08:44:37.000Z</time>
      </trkpt>
      <trkpt lat="45.04604" lon="5.84814">
        <ele>1071.185725</ele>
        <time>2026-08-29T08:44:38.000Z</time>
      </trkpt>
      <trkpt lat="45.04603" lon="5.84812">
        <ele>1071.332604</ele>
        <time>2026-08-29T08:44:39.000Z</time>
      </trkpt>
      <trkpt lat="45.04601" lon="5.8481">
        <ele>1071.49782</ele>
        <time>2026-08-29T08:44:40.000Z</time>
      </trkpt>
      <trkpt lat="45.046" lon="5.84808">
        <ele>1071.669601</ele>
        <time>2026-08-29T08:44:41.000Z</time>
      </trkpt>
      <trkpt lat="45.04598" lon="5.84807">
        <ele>1071.862118</ele>
        <time>2026-08-29T08:44:42.000Z</time>
      </trkpt>
      <trkpt lat="45.04596" lon="5.84805">
        <ele>1072.06533</ele>
        <time>2026-08-29T08:44:43.000Z</time>
      </trkpt>
      <trkpt lat="45.04595" lon="5.84803">
        <ele>1072.24534</ele>
        <time>2026-08-29T08:44:44.000Z</time>
      </trkpt>
      <trkpt lat="45.04593" lon="5.84801">
        <ele>1072.413197</ele>
        <time>2026-08-29T08:44:45.000Z</time>
      </trkpt>
      <trkpt lat="45.04592" lon="5.84799">
        <ele>1072.578412</ele>
        <time>2026-08-29T08:44:46.000Z</time>
      </trkpt>
      <trkpt lat="45.0459" lon="5.84798">
        <ele>1072.742725</ele>
        <time>2026-08-29T08:44:47.000Z</time>
      </trkpt>
      <trkpt lat="45.04589" lon="5.84796">
        <ele>1072.896364</ele>
        <time>2026-08-29T08:44:48.000Z</time>
      </trkpt>
      <trkpt lat="45.04587" lon="5.84795">
        <ele>1073.049744</ele>
        <time>2026-08-29T08:44:49.000Z</time>
      </trkpt>
      <trkpt lat="45.04586" lon="5.84793">
        <ele>1073.221526</ele>
        <time>2026-08-29T08:44:50.000Z</time>
      </trkpt>
      <trkpt lat="45.04584" lon="5.84791">
        <ele>1073.389382</ele>
        <time>2026-08-29T08:44:51.000Z</time>
      </trkpt>
      <trkpt lat="45.04583" lon="5.8479">
        <ele>1073.553695</ele>
        <time>2026-08-29T08:44:52.000Z</time>
      </trkpt>
      <trkpt lat="45.04581" lon="5.84789">
        <ele>1073.707334</ele>
        <time>2026-08-29T08:44:53.000Z</time>
      </trkpt>
      <trkpt lat="45.04579" lon="5.84788">
        <ele>1073.882349</ele>
        <time>2026-08-29T08:44:54.000Z</time>
      </trkpt>
      <trkpt lat="45.04577" lon="5.84787">
        <ele>1074.065668</ele>
        <time>2026-08-29T08:44:55.000Z</time>
      </trkpt>
      <trkpt lat="45.04575" lon="5.84786">
        <ele>1074.267507</ele>
        <time>2026-08-29T08:44:56.000Z</time>
      </trkpt>
      <trkpt lat="45.04573" lon="5.84785">
        <ele>1074.45279</ele>
        <time>2026-08-29T08:44:57.000Z</time>
      </trkpt>
      <trkpt lat="45.04571" lon="5.84784">
        <ele>1074.62986</ele>
        <time>2026-08-29T08:44:58.000Z</time>
      </trkpt>
      <trkpt lat="45.04569" lon="5.84783">
        <ele>1074.813179</ele>
        <time>2026-08-29T08:44:59.000Z</time>
      </trkpt>
      <trkpt lat="45.04567" lon="5.84782">
        <ele>1075.010147</ele>
        <time>2026-08-29T08:45:00.000Z</time>
      </trkpt>
      <trkpt lat="45.04565" lon="5.84782">
        <ele>1075.183302</ele>
        <time>2026-08-29T08:45:01.000Z</time>
      </trkpt>
      <trkpt lat="45.04563" lon="5.84781">
        <ele>1075.381715</ele>
        <time>2026-08-29T08:45:02.000Z</time>
      </trkpt>
      <trkpt lat="45.04561" lon="5.8478">
        <ele>1075.559121</ele>
        <time>2026-08-29T08:45:03.000Z</time>
      </trkpt>
      <trkpt lat="45.04559" lon="5.8478">
        <ele>1075.720654</ele>
        <time>2026-08-29T08:45:04.000Z</time>
      </trkpt>
      <trkpt lat="45.04557" lon="5.84779">
        <ele>1075.902199</ele>
        <time>2026-08-29T08:45:05.000Z</time>
      </trkpt>
      <trkpt lat="45.04555" lon="5.84778">
        <ele>1076.087481</ele>
        <time>2026-08-29T08:45:06.000Z</time>
      </trkpt>
      <trkpt lat="45.04553" lon="5.84777">
        <ele>1076.294366</ele>
        <time>2026-08-29T08:45:07.000Z</time>
      </trkpt>
      <trkpt lat="45.04551" lon="5.84776">
        <ele>1076.498177</ele>
        <time>2026-08-29T08:45:08.000Z</time>
      </trkpt>
      <trkpt lat="45.04548" lon="5.84775">
        <ele>1076.695145</ele>
        <time>2026-08-29T08:45:09.000Z</time>
      </trkpt>
      <trkpt lat="45.04546" lon="5.84775">
        <ele>1076.890852</ele>
        <time>2026-08-29T08:45:10.000Z</time>
      </trkpt>
      <trkpt lat="45.04544" lon="5.84774">
        <ele>1077.067922</ele>
        <time>2026-08-29T08:45:11.000Z</time>
      </trkpt>
      <trkpt lat="45.04542" lon="5.84772">
        <ele>1077.260166</ele>
        <time>2026-08-29T08:45:12.000Z</time>
      </trkpt>
      <trkpt lat="45.0454" lon="5.84771">
        <ele>1077.449918</ele>
        <time>2026-08-29T08:45:13.000Z</time>
      </trkpt>
      <trkpt lat="45.04539" lon="5.8477">
        <ele>1077.621723</ele>
        <time>2026-08-29T08:45:14.000Z</time>
      </trkpt>
      <trkpt lat="45.04536" lon="5.84769">
        <ele>1077.813385</ele>
        <time>2026-08-29T08:45:15.000Z</time>
      </trkpt>
      <trkpt lat="45.04534" lon="5.84768">
        <ele>1078.013423</ele>
        <time>2026-08-29T08:45:16.000Z</time>
      </trkpt>
      <trkpt lat="45.04532" lon="5.84767">
        <ele>1078.192738</ele>
        <time>2026-08-29T08:45:17.000Z</time>
      </trkpt>
      <trkpt lat="45.0453" lon="5.84766">
        <ele>1078.372702</ele>
        <time>2026-08-29T08:45:18.000Z</time>
      </trkpt>
      <trkpt lat="45.04528" lon="5.84766">
        <ele>1078.582707</ele>
        <time>2026-08-29T08:45:19.000Z</time>
      </trkpt>
      <trkpt lat="45.04526" lon="5.84765">
        <ele>1078.772458</ele>
        <time>2026-08-29T08:45:20.000Z</time>
      </trkpt>
      <trkpt lat="45.04524" lon="5.84764">
        <ele>1078.965999</ele>
        <time>2026-08-29T08:45:21.000Z</time>
      </trkpt>
      <trkpt lat="45.04522" lon="5.84763">
        <ele>1079.171948</ele>
        <time>2026-08-29T08:45:22.000Z</time>
      </trkpt>
      <trkpt lat="45.0452" lon="5.84762">
        <ele>1079.36361</ele>
        <time>2026-08-29T08:45:23.000Z</time>
      </trkpt>
      <trkpt lat="45.04517" lon="5.84761">
        <ele>1079.558244</ele>
        <time>2026-08-29T08:45:24.000Z</time>
      </trkpt>
      <trkpt lat="45.04515" lon="5.8476">
        <ele>1079.756067</ele>
        <time>2026-08-29T08:45:25.000Z</time>
      </trkpt>
      <trkpt lat="45.04513" lon="5.84759">
        <ele>1079.95448</ele>
        <time>2026-08-29T08:45:26.000Z</time>
      </trkpt>
      <trkpt lat="45.04511" lon="5.84758">
        <ele>1080.150077</ele>
        <time>2026-08-29T08:45:27.000Z</time>
      </trkpt>
      <trkpt lat="45.04509" lon="5.84757">
        <ele>1080.341739</ele>
        <time>2026-08-29T08:45:28.000Z</time>
      </trkpt>
      <trkpt lat="45.04507" lon="5.84756">
        <ele>1080.530194</ele>
        <time>2026-08-29T08:45:29.000Z</time>
      </trkpt>
      <trkpt lat="45.04505" lon="5.84756">
        <ele>1080.713513</ele>
        <time>2026-08-29T08:45:30.000Z</time>
      </trkpt>
      <trkpt lat="45.04503" lon="5.84755">
        <ele>1080.896833</ele>
        <time>2026-08-29T08:45:31.000Z</time>
      </trkpt>
      <trkpt lat="45.04501" lon="5.84754">
        <ele>1081.065743</ele>
        <time>2026-08-29T08:45:32.000Z</time>
      </trkpt>
      <trkpt lat="45.04499" lon="5.84753">
        <ele>1081.265782</ele>
        <time>2026-08-29T08:45:33.000Z</time>
      </trkpt>
      <trkpt lat="45.04497" lon="5.84752">
        <ele>1081.461489</ele>
        <time>2026-08-29T08:45:34.000Z</time>
      </trkpt>
      <trkpt lat="45.04495" lon="5.84751">
        <ele>1081.643033</ele>
        <time>2026-08-29T08:45:35.000Z</time>
      </trkpt>
      <trkpt lat="45.04493" lon="5.8475">
        <ele>1081.818048</ele>
        <time>2026-08-29T08:45:36.000Z</time>
      </trkpt>
      <trkpt lat="45.04491" lon="5.8475">
        <ele>1081.999593</ele>
        <time>2026-08-29T08:45:37.000Z</time>
      </trkpt>
      <trkpt lat="45.04489" lon="5.84748">
        <ele>1082.197416</ele>
        <time>2026-08-29T08:45:38.000Z</time>
      </trkpt>
      <trkpt lat="45.04487" lon="5.84747">
        <ele>1082.392317</ele>
        <time>2026-08-29T08:45:39.000Z</time>
      </trkpt>
      <trkpt lat="45.04485" lon="5.84746">
        <ele>1082.572282</ele>
        <time>2026-08-29T08:45:40.000Z</time>
      </trkpt>
      <trkpt lat="45.04482" lon="5.84746">
        <ele>1082.766915</ele>
        <time>2026-08-29T08:45:41.000Z</time>
      </trkpt>
      <trkpt lat="45.0448" lon="5.84745">
        <ele>1082.961549</ele>
        <time>2026-08-29T08:45:42.000Z</time>
      </trkpt>
      <trkpt lat="45.04478" lon="5.84745">
        <ele>1083.138955</ele>
        <time>2026-08-29T08:45:43.000Z</time>
      </trkpt>
      <trkpt lat="45.04476" lon="5.84744">
        <ele>1083.324969</ele>
        <time>2026-08-29T08:45:44.000Z</time>
      </trkpt>
      <trkpt lat="45.04474" lon="5.84744">
        <ele>1083.525157</ele>
        <time>2026-08-29T08:45:45.000Z</time>
      </trkpt>
      <trkpt lat="45.04472" lon="5.84743">
        <ele>1083.71753</ele>
        <time>2026-08-29T08:45:46.000Z</time>
      </trkpt>
      <trkpt lat="45.0447" lon="5.84742">
        <ele>1083.89389</ele>
        <time>2026-08-29T08:45:47.000Z</time>
      </trkpt>
      <trkpt lat="45.04468" lon="5.84741">
        <ele>1084.07924</ele>
        <time>2026-08-29T08:45:48.000Z</time>
      </trkpt>
      <trkpt lat="45.04466" lon="5.8474">
        <ele>1084.271614</ele>
        <time>2026-08-29T08:45:49.000Z</time>
      </trkpt>
      <trkpt lat="45.04463" lon="5.84739">
        <ele>1084.460117</ele>
        <time>2026-08-29T08:45:50.000Z</time>
      </trkpt>
      <trkpt lat="45.04462" lon="5.84738">
        <ele>1084.620706</ele>
        <time>2026-08-29T08:45:51.000Z</time>
      </trkpt>
      <trkpt lat="45.0446" lon="5.84736">
        <ele>1084.803316</ele>
        <time>2026-08-29T08:45:52.000Z</time>
      </trkpt>
      <trkpt lat="45.04458" lon="5.84735">
        <ele>1084.984621</ele>
        <time>2026-08-29T08:45:53.000Z</time>
      </trkpt>
      <trkpt lat="45.04456" lon="5.84733">
        <ele>1085.17053</ele>
        <time>2026-08-29T08:45:54.000Z</time>
      </trkpt>
      <trkpt lat="45.04454" lon="5.84732">
        <ele>1085.36047</ele>
        <time>2026-08-29T08:45:55.000Z</time>
      </trkpt>
      <trkpt lat="45.04453" lon="5.8473">
        <ele>1085.554325</ele>
        <time>2026-08-29T08:45:56.000Z</time>
      </trkpt>
      <trkpt lat="45.04451" lon="5.84728">
        <ele>1085.764709</ele>
        <time>2026-08-29T08:45:57.000Z</time>
      </trkpt>
      <trkpt lat="45.04449" lon="5.84725">
        <ele>1085.969031</ele>
        <time>2026-08-29T08:45:58.000Z</time>
      </trkpt>
      <trkpt lat="45.04447" lon="5.84724">
        <ele>1086.151428</ele>
        <time>2026-08-29T08:45:59.000Z</time>
      </trkpt>
      <trkpt lat="45.04446" lon="5.84722">
        <ele>1086.322322</ele>
        <time>2026-08-29T08:46:00.000Z</time>
      </trkpt>
      <trkpt lat="45.04445" lon="5.84719">
        <ele>1086.486266</ele>
        <time>2026-08-29T08:46:01.000Z</time>
      </trkpt>
      <trkpt lat="45.04443" lon="5.84717">
        <ele>1086.660355</ele>
        <time>2026-08-29T08:46:02.000Z</time>
      </trkpt>
      <trkpt lat="45.04442" lon="5.84715">
        <ele>1086.852002</ele>
        <time>2026-08-29T08:46:03.000Z</time>
      </trkpt>
      <trkpt lat="45.0444" lon="5.84713">
        <ele>1087.036279</ele>
        <time>2026-08-29T08:46:04.000Z</time>
      </trkpt>
      <trkpt lat="45.04439" lon="5.8471">
        <ele>1087.209929</ele>
        <time>2026-08-29T08:46:05.000Z</time>
      </trkpt>
      <trkpt lat="45.04438" lon="5.84708">
        <ele>1087.364622</ele>
        <time>2026-08-29T08:46:06.000Z</time>
      </trkpt>
      <trkpt lat="45.04437" lon="5.84707">
        <ele>1087.487695</ele>
        <time>2026-08-29T08:46:07.000Z</time>
      </trkpt>
      <trkpt lat="45.04436" lon="5.84705">
        <ele>1087.6368</ele>
        <time>2026-08-29T08:46:08.000Z</time>
      </trkpt>
      <trkpt lat="45.04435" lon="5.84702">
        <ele>1087.834699</ele>
        <time>2026-08-29T08:46:09.000Z</time>
      </trkpt>
      <trkpt lat="45.04433" lon="5.847">
        <ele>1088.024695</ele>
        <time>2026-08-29T08:46:10.000Z</time>
      </trkpt>
      <trkpt lat="45.04431" lon="5.84698">
        <ele>1088.231636</ele>
        <time>2026-08-29T08:46:11.000Z</time>
      </trkpt>
      <trkpt lat="45.04429" lon="5.84696">
        <ele>1088.431502</ele>
        <time>2026-08-29T08:46:12.000Z</time>
      </trkpt>
      <trkpt lat="45.04428" lon="5.84694">
        <ele>1088.633547</ele>
        <time>2026-08-29T08:46:13.000Z</time>
      </trkpt>
      <trkpt lat="45.04426" lon="5.84692">
        <ele>1088.815944</ele>
        <time>2026-08-29T08:46:14.000Z</time>
      </trkpt>
      <trkpt lat="45.04424" lon="5.8469">
        <ele>1088.999338</ele>
        <time>2026-08-29T08:46:15.000Z</time>
      </trkpt>
      <trkpt lat="45.04422" lon="5.84689">
        <ele>1089.178794</ele>
        <time>2026-08-29T08:46:16.000Z</time>
      </trkpt>
      <trkpt lat="45.0442" lon="5.84687">
        <ele>1089.380882</ele>
        <time>2026-08-29T08:46:17.000Z</time>
      </trkpt>
      <trkpt lat="45.04418" lon="5.84686">
        <ele>1089.56491</ele>
        <time>2026-08-29T08:46:18.000Z</time>
      </trkpt>
      <trkpt lat="45.04416" lon="5.84684">
        <ele>1089.764337</ele>
        <time>2026-08-29T08:46:19.000Z</time>
      </trkpt>
      <trkpt lat="45.04414" lon="5.84683">
        <ele>1089.951247</ele>
        <time>2026-08-29T08:46:20.000Z</time>
      </trkpt>
      <trkpt lat="45.04413" lon="5.84681">
        <ele>1090.133857</ele>
        <time>2026-08-29T08:46:21.000Z</time>
      </trkpt>
      <trkpt lat="45.04411" lon="5.8468">
        <ele>1090.305739</ele>
        <time>2026-08-29T08:46:22.000Z</time>
      </trkpt>
      <trkpt lat="45.04409" lon="5.84678">
        <ele>1090.498854</ele>
        <time>2026-08-29T08:46:23.000Z</time>
      </trkpt>
      <trkpt lat="45.04407" lon="5.84676">
        <ele>1090.685763</ele>
        <time>2026-08-29T08:46:24.000Z</time>
      </trkpt>
      <trkpt lat="45.04405" lon="5.84675">
        <ele>1090.884276</ele>
        <time>2026-08-29T08:46:25.000Z</time>
      </trkpt>
      <trkpt lat="45.04403" lon="5.84674">
        <ele>1091.065582</ele>
        <time>2026-08-29T08:46:26.000Z</time>
      </trkpt>
      <trkpt lat="45.04401" lon="5.84673">
        <ele>1091.24961</ele>
        <time>2026-08-29T08:46:27.000Z</time>
      </trkpt>
      <trkpt lat="45.04399" lon="5.84672">
        <ele>1091.433951</ele>
        <time>2026-08-29T08:46:28.000Z</time>
      </trkpt>
      <trkpt lat="45.04397" lon="5.8467">
        <ele>1091.620576</ele>
        <time>2026-08-29T08:46:29.000Z</time>
      </trkpt>
      <trkpt lat="45.04395" lon="5.84669">
        <ele>1091.800032</ele>
        <time>2026-08-29T08:46:30.000Z</time>
      </trkpt>
      <trkpt lat="45.04394" lon="5.84668">
        <ele>1091.976485</ele>
        <time>2026-08-29T08:46:31.000Z</time>
      </trkpt>
      <trkpt lat="45.04392" lon="5.84666">
        <ele>1092.160826</ele>
        <time>2026-08-29T08:46:32.000Z</time>
      </trkpt>
      <trkpt lat="45.0439" lon="5.84665">
        <ele>1092.345166</ele>
        <time>2026-08-29T08:46:33.000Z</time>
      </trkpt>
      <trkpt lat="45.04388" lon="5.84663">
        <ele>1092.535085</ele>
        <time>2026-08-29T08:46:34.000Z</time>
      </trkpt>
      <trkpt lat="45.04386" lon="5.84662">
        <ele>1092.729543</ele>
        <time>2026-08-29T08:46:35.000Z</time>
      </trkpt>
      <trkpt lat="45.04384" lon="5.8466">
        <ele>1092.90659</ele>
        <time>2026-08-29T08:46:36.000Z</time>
      </trkpt>
      <trkpt lat="45.04383" lon="5.84658">
        <ele>1093.09653</ele>
        <time>2026-08-29T08:46:37.000Z</time>
      </trkpt>
      <trkpt lat="45.04381" lon="5.84656">
        <ele>1093.289443</ele>
        <time>2026-08-29T08:46:38.000Z</time>
      </trkpt>
      <trkpt lat="45.04379" lon="5.84655">
        <ele>1093.489873</ele>
        <time>2026-08-29T08:46:39.000Z</time>
      </trkpt>
      <trkpt lat="45.04377" lon="5.84653">
        <ele>1093.679219</ele>
        <time>2026-08-29T08:46:40.000Z</time>
      </trkpt>
      <trkpt lat="45.04375" lon="5.84651">
        <ele>1093.872133</ele>
        <time>2026-08-29T08:46:41.000Z</time>
      </trkpt>
      <trkpt lat="45.04373" lon="5.84649">
        <ele>1094.05096</ele>
        <time>2026-08-29T08:46:42.000Z</time>
      </trkpt>
      <trkpt lat="45.04372" lon="5.84648">
        <ele>1094.229788</ele>
        <time>2026-08-29T08:46:43.000Z</time>
      </trkpt>
      <trkpt lat="45.0437" lon="5.84646">
        <ele>1094.412398</ele>
        <time>2026-08-29T08:46:44.000Z</time>
      </trkpt>
      <trkpt lat="45.04368" lon="5.84644">
        <ele>1094.598308</ele>
        <time>2026-08-29T08:46:45.000Z</time>
      </trkpt>
      <trkpt lat="45.04366" lon="5.84642">
        <ele>1094.794911</ele>
        <time>2026-08-29T08:46:46.000Z</time>
      </trkpt>
      <trkpt lat="45.04365" lon="5.8464">
        <ele>1094.995319</ele>
        <time>2026-08-29T08:46:47.000Z</time>
      </trkpt>
      <trkpt lat="45.04363" lon="5.84638">
        <ele>1095.189175</ele>
        <time>2026-08-29T08:46:48.000Z</time>
      </trkpt>
      <trkpt lat="45.04361" lon="5.84636">
        <ele>1095.364769</ele>
        <time>2026-08-29T08:46:49.000Z</time>
      </trkpt>
      <trkpt lat="45.04359" lon="5.84635">
        <ele>1095.544225</ele>
        <time>2026-08-29T08:46:50.000Z</time>
      </trkpt>
      <trkpt lat="45.04358" lon="5.84633">
        <ele>1095.723681</ele>
        <time>2026-08-29T08:46:51.000Z</time>
      </trkpt>
      <trkpt lat="45.04356" lon="5.84632">
        <ele>1095.916796</ele>
        <time>2026-08-29T08:46:52.000Z</time>
      </trkpt>
      <trkpt lat="45.04354" lon="5.8463">
        <ele>1096.108486</ele>
        <time>2026-08-29T08:46:53.000Z</time>
      </trkpt>
      <trkpt lat="45.04352" lon="5.84629">
        <ele>1096.28494</ele>
        <time>2026-08-29T08:46:54.000Z</time>
      </trkpt>
      <trkpt lat="45.0435" lon="5.84627">
        <ele>1096.453915</ele>
        <time>2026-08-29T08:46:55.000Z</time>
      </trkpt>
      <trkpt lat="45.04348" lon="5.84626">
        <ele>1096.642992</ele>
        <time>2026-08-29T08:46:56.000Z</time>
      </trkpt>
      <trkpt lat="45.04346" lon="5.84625">
        <ele>1096.81393</ele>
        <time>2026-08-29T08:46:57.000Z</time>
      </trkpt>
      <trkpt lat="45.04344" lon="5.84624">
        <ele>1096.98957</ele>
        <time>2026-08-29T08:46:58.000Z</time>
      </trkpt>
      <trkpt lat="45.04343" lon="5.84623">
        <ele>1097.153577</ele>
        <time>2026-08-29T08:46:59.000Z</time>
      </trkpt>
      <trkpt lat="45.04341" lon="5.84622">
        <ele>1097.322018</ele>
        <time>2026-08-29T08:47:00.000Z</time>
      </trkpt>
      <trkpt lat="45.04339" lon="5.84621">
        <ele>1097.514392</ele>
        <time>2026-08-29T08:47:01.000Z</time>
      </trkpt>
      <trkpt lat="45.04337" lon="5.8462">
        <ele>1097.688003</ele>
        <time>2026-08-29T08:47:02.000Z</time>
      </trkpt>
      <trkpt lat="45.04335" lon="5.84619">
        <ele>1097.873353</ele>
        <time>2026-08-29T08:47:03.000Z</time>
      </trkpt>
      <trkpt lat="45.04333" lon="5.84618">
        <ele>1098.078363</ele>
        <time>2026-08-29T08:47:04.000Z</time>
      </trkpt>
      <trkpt lat="45.0433" lon="5.84617">
        <ele>1098.280919</ele>
        <time>2026-08-29T08:47:05.000Z</time>
      </trkpt>
      <trkpt lat="45.04328" lon="5.84616">
        <ele>1098.475483</ele>
        <time>2026-08-29T08:47:06.000Z</time>
      </trkpt>
      <trkpt lat="45.04326" lon="5.84615">
        <ele>1098.6724</ele>
        <time>2026-08-29T08:47:07.000Z</time>
      </trkpt>
      <trkpt lat="45.04324" lon="5.84614">
        <ele>1098.859585</ele>
        <time>2026-08-29T08:47:08.000Z</time>
      </trkpt>
      <trkpt lat="45.04322" lon="5.84612">
        <ele>1099.047431</ele>
        <time>2026-08-29T08:47:09.000Z</time>
      </trkpt>
      <trkpt lat="45.0432" lon="5.84611">
        <ele>1099.23865</ele>
        <time>2026-08-29T08:47:10.000Z</time>
      </trkpt>
      <trkpt lat="45.04318" lon="5.8461">
        <ele>1099.429868</ele>
        <time>2026-08-29T08:47:11.000Z</time>
      </trkpt>
      <trkpt lat="45.04315" lon="5.84609">
        <ele>1099.623093</ele>
        <time>2026-08-29T08:47:12.000Z</time>
      </trkpt>
      <trkpt lat="45.04313" lon="5.84608">
        <ele>1099.831948</ele>
        <time>2026-08-29T08:47:13.000Z</time>
      </trkpt>
      <trkpt lat="45.04311" lon="5.84607">
        <ele>1100.023167</ele>
        <time>2026-08-29T08:47:14.000Z</time>
      </trkpt>
      <trkpt lat="45.04308" lon="5.84606">
        <ele>1100.230976</ele>
        <time>2026-08-29T08:47:15.000Z</time>
      </trkpt>
      <trkpt lat="45.04306" lon="5.84605">
        <ele>1100.428164</ele>
        <time>2026-08-29T08:47:16.000Z</time>
      </trkpt>
      <trkpt lat="45.04304" lon="5.84604">
        <ele>1100.625849</ele>
        <time>2026-08-29T08:47:17.000Z</time>
      </trkpt>
      <trkpt lat="45.04302" lon="5.84603">
        <ele>1100.813695</ele>
        <time>2026-08-29T08:47:18.000Z</time>
      </trkpt>
      <trkpt lat="45.04299" lon="5.84602">
        <ele>1101.014588</ele>
        <time>2026-08-29T08:47:19.000Z</time>
      </trkpt>
      <trkpt lat="45.04297" lon="5.846">
        <ele>1101.219776</ele>
        <time>2026-08-29T08:47:20.000Z</time>
      </trkpt>
      <trkpt lat="45.04295" lon="5.84599">
        <ele>1101.422486</ele>
        <time>2026-08-29T08:47:21.000Z</time>
      </trkpt>
      <trkpt lat="45.04293" lon="5.84597">
        <ele>1101.610767</ele>
        <time>2026-08-29T08:47:22.000Z</time>
      </trkpt>
      <trkpt lat="45.0429" lon="5.84595">
        <ele>1101.81831</ele>
        <time>2026-08-29T08:47:23.000Z</time>
      </trkpt>
      <trkpt lat="45.04288" lon="5.84594">
        <ele>1102.021021</ele>
        <time>2026-08-29T08:47:24.000Z</time>
      </trkpt>
      <trkpt lat="45.04286" lon="5.84593">
        <ele>1102.224497</ele>
        <time>2026-08-29T08:47:25.000Z</time>
      </trkpt>
      <trkpt lat="45.04284" lon="5.84592">
        <ele>1102.423461</ele>
        <time>2026-08-29T08:47:26.000Z</time>
      </trkpt>
      <trkpt lat="45.04281" lon="5.84591">
        <ele>1102.611308</ele>
        <time>2026-08-29T08:47:27.000Z</time>
      </trkpt>
      <trkpt lat="45.04279" lon="5.84589">
        <ele>1102.801548</ele>
        <time>2026-08-29T08:47:28.000Z</time>
      </trkpt>
      <trkpt lat="45.04277" lon="5.84588">
        <ele>1103.009092</ele>
        <time>2026-08-29T08:47:29.000Z</time>
      </trkpt>
      <trkpt lat="45.04275" lon="5.84586">
        <ele>1103.209222</ele>
        <time>2026-08-29T08:47:30.000Z</time>
      </trkpt>
      <trkpt lat="45.04273" lon="5.84584">
        <ele>1103.399882</ele>
        <time>2026-08-29T08:47:31.000Z</time>
      </trkpt>
      <trkpt lat="45.04271" lon="5.84582">
        <ele>1103.597291</ele>
        <time>2026-08-29T08:47:32.000Z</time>
      </trkpt>
      <trkpt lat="45.04269" lon="5.8458">
        <ele>1103.801556</ele>
        <time>2026-08-29T08:47:33.000Z</time>
      </trkpt>
      <trkpt lat="45.04267" lon="5.84578">
        <ele>1104.008998</ele>
        <time>2026-08-29T08:47:34.000Z</time>
      </trkpt>
      <trkpt lat="45.04265" lon="5.84577">
        <ele>1104.206408</ele>
        <time>2026-08-29T08:47:35.000Z</time>
      </trkpt>
      <trkpt lat="45.04263" lon="5.84574">
        <ele>1104.414001</ele>
        <time>2026-08-29T08:47:36.000Z</time>
      </trkpt>
      <trkpt lat="45.04261" lon="5.84572">
        <ele>1104.595173</ele>
        <time>2026-08-29T08:47:37.000Z</time>
      </trkpt>
      <trkpt lat="45.04259" lon="5.8457">
        <ele>1104.793918</ele>
        <time>2026-08-29T08:47:38.000Z</time>
      </trkpt>
      <trkpt lat="45.04257" lon="5.84568">
        <ele>1104.991487</ele>
        <time>2026-08-29T08:47:39.000Z</time>
      </trkpt>
      <trkpt lat="45.04255" lon="5.84566">
        <ele>1105.192693</ele>
        <time>2026-08-29T08:47:40.000Z</time>
      </trkpt>
      <trkpt lat="45.04253" lon="5.84564">
        <ele>1105.390961</ele>
        <time>2026-08-29T08:47:41.000Z</time>
      </trkpt>
      <trkpt lat="45.04251" lon="5.84563">
        <ele>1105.58374</ele>
        <time>2026-08-29T08:47:42.000Z</time>
      </trkpt>
      <trkpt lat="45.04249" lon="5.84561">
        <ele>1105.772021</ele>
        <time>2026-08-29T08:47:43.000Z</time>
      </trkpt>
      <trkpt lat="45.04247" lon="5.8456">
        <ele>1105.970289</ele>
        <time>2026-08-29T08:47:44.000Z</time>
      </trkpt>
      <trkpt lat="45.04245" lon="5.84558">
        <ele>1106.173</ele>
        <time>2026-08-29T08:47:45.000Z</time>
      </trkpt>
      <trkpt lat="45.04242" lon="5.84556">
        <ele>1106.383033</ele>
        <time>2026-08-29T08:47:46.000Z</time>
      </trkpt>
      <trkpt lat="45.04241" lon="5.84555">
        <ele>1106.549163</ele>
        <time>2026-08-29T08:47:47.000Z</time>
      </trkpt>
      <trkpt lat="45.04238" lon="5.84554">
        <ele>1106.73701</ele>
        <time>2026-08-29T08:47:48.000Z</time>
      </trkpt>
      <trkpt lat="45.04237" lon="5.84553">
        <ele>1106.902624</ele>
        <time>2026-08-29T08:47:49.000Z</time>
      </trkpt>
      <trkpt lat="45.04235" lon="5.84552">
        <ele>1107.09047</ele>
        <time>2026-08-29T08:47:50.000Z</time>
      </trkpt>
      <trkpt lat="45.04232" lon="5.84551">
        <ele>1107.305508</ele>
        <time>2026-08-29T08:47:51.000Z</time>
      </trkpt>
      <trkpt lat="45.04229" lon="5.8455">
        <ele>1107.526315</ele>
        <time>2026-08-29T08:47:52.000Z</time>
      </trkpt>
      <trkpt lat="45.04227" lon="5.84548">
        <ele>1107.768835</ele>
        <time>2026-08-29T08:47:53.000Z</time>
      </trkpt>
      <trkpt lat="45.04224" lon="5.84546">
        <ele>1107.997088</ele>
        <time>2026-08-29T08:47:54.000Z</time>
      </trkpt>
      <trkpt lat="45.04221" lon="5.84545">
        <ele>1108.248412</ele>
        <time>2026-08-29T08:47:55.000Z</time>
      </trkpt>
      <trkpt lat="45.04219" lon="5.84543">
        <ele>1108.455854</ele>
        <time>2026-08-29T08:47:56.000Z</time>
      </trkpt>
      <trkpt lat="45.04217" lon="5.84541">
        <ele>1108.65704</ele>
        <time>2026-08-29T08:47:57.000Z</time>
      </trkpt>
      <trkpt lat="45.04215" lon="5.84539">
        <ele>1108.857735</ele>
        <time>2026-08-29T08:47:58.000Z</time>
      </trkpt>
      <trkpt lat="45.04213" lon="5.84537">
        <ele>1109.048933</ele>
        <time>2026-08-29T08:47:59.000Z</time>
      </trkpt>
      <trkpt lat="45.04211" lon="5.84536">
        <ele>1109.247201</ele>
        <time>2026-08-29T08:48:00.000Z</time>
      </trkpt>
      <trkpt lat="45.04209" lon="5.84534">
        <ele>1109.434748</ele>
        <time>2026-08-29T08:48:01.000Z</time>
      </trkpt>
      <trkpt lat="45.04207" lon="5.84532">
        <ele>1109.633016</ele>
        <time>2026-08-29T08:48:02.000Z</time>
      </trkpt>
      <trkpt lat="45.04205" lon="5.8453">
        <ele>1109.817237</ele>
        <time>2026-08-29T08:48:03.000Z</time>
      </trkpt>
      <trkpt lat="45.04204" lon="5.84528">
        <ele>1110.012149</ele>
        <time>2026-08-29T08:48:04.000Z</time>
      </trkpt>
      <trkpt lat="45.04202" lon="5.84526">
        <ele>1110.219592</ele>
        <time>2026-08-29T08:48:05.000Z</time>
      </trkpt>
      <trkpt lat="45.042" lon="5.84524">
        <ele>1110.407139</ele>
        <time>2026-08-29T08:48:06.000Z</time>
      </trkpt>
      <trkpt lat="45.04198" lon="5.84522">
        <ele>1110.608345</ele>
        <time>2026-08-29T08:48:07.000Z</time>
      </trkpt>
      <trkpt lat="45.04196" lon="5.8452">
        <ele>1110.803258</ele>
        <time>2026-08-29T08:48:08.000Z</time>
      </trkpt>
      <trkpt lat="45.04194" lon="5.84518">
        <ele>1111.010852</ele>
        <time>2026-08-29T08:48:09.000Z</time>
      </trkpt>
      <trkpt lat="45.04192" lon="5.84516">
        <ele>1111.208263</ele>
        <time>2026-08-29T08:48:10.000Z</time>
      </trkpt>
      <trkpt lat="45.0419" lon="5.84514">
        <ele>1111.393191</ele>
        <time>2026-08-29T08:48:11.000Z</time>
      </trkpt>
      <trkpt lat="45.04188" lon="5.84511">
        <ele>1111.598321</ele>
        <time>2026-08-29T08:48:12.000Z</time>
      </trkpt>
      <trkpt lat="45.04187" lon="5.84509">
        <ele>1111.7895</ele>
        <time>2026-08-29T08:48:13.000Z</time>
      </trkpt>
      <trkpt lat="45.04185" lon="5.84507">
        <ele>1111.972322</ele>
        <time>2026-08-29T08:48:14.000Z</time>
      </trkpt>
      <trkpt lat="45.04183" lon="5.84505">
        <ele>1112.1635</ele>
        <time>2026-08-29T08:48:15.000Z</time>
      </trkpt>
      <trkpt lat="45.04182" lon="5.84502">
        <ele>1112.350403</ele>
        <time>2026-08-29T08:48:16.000Z</time>
      </trkpt>
      <trkpt lat="45.0418" lon="5.84501">
        <ele>1112.554669</ele>
        <time>2026-08-29T08:48:17.000Z</time>
      </trkpt>
      <trkpt lat="45.04177" lon="5.84499">
        <ele>1112.760092</ele>
        <time>2026-08-29T08:48:18.000Z</time>
      </trkpt>
      <trkpt lat="45.04175" lon="5.84497">
        <ele>1112.984408</ele>
        <time>2026-08-29T08:48:19.000Z</time>
      </trkpt>
      <trkpt lat="45.04173" lon="5.84494">
        <ele>1113.191094</ele>
        <time>2026-08-29T08:48:20.000Z</time>
      </trkpt>
      <trkpt lat="45.04171" lon="5.84492">
        <ele>1113.388665</ele>
        <time>2026-08-29T08:48:21.000Z</time>
      </trkpt>
      <trkpt lat="45.0417" lon="5.8449">
        <ele>1113.580915</ele>
        <time>2026-08-29T08:48:22.000Z</time>
      </trkpt>
      <trkpt lat="45.04167" lon="5.84488">
        <ele>1113.766184</ele>
        <time>2026-08-29T08:48:23.000Z</time>
      </trkpt>
      <trkpt lat="45.04165" lon="5.84487">
        <ele>1113.922343</ele>
        <time>2026-08-29T08:48:24.000Z</time>
      </trkpt>
      <trkpt lat="45.04163" lon="5.84485">
        <ele>1114.100379</ele>
        <time>2026-08-29T08:48:25.000Z</time>
      </trkpt>
      <trkpt lat="45.04161" lon="5.84483">
        <ele>1114.288344</ele>
        <time>2026-08-29T08:48:26.000Z</time>
      </trkpt>
      <trkpt lat="45.04159" lon="5.84481">
        <ele>1114.476164</ele>
        <time>2026-08-29T08:48:27.000Z</time>
      </trkpt>
      <trkpt lat="45.04157" lon="5.84479">
        <ele>1114.648777</ele>
        <time>2026-08-29T08:48:28.000Z</time>
      </trkpt>
      <trkpt lat="45.04154" lon="5.84477">
        <ele>1114.863995</ele>
        <time>2026-08-29T08:48:29.000Z</time>
      </trkpt>
      <trkpt lat="45.04152" lon="5.84475">
        <ele>1115.060755</ele>
        <time>2026-08-29T08:48:30.000Z</time>
      </trkpt>
      <trkpt lat="45.0415" lon="5.84473">
        <ele>1115.219192</ele>
        <time>2026-08-29T08:48:31.000Z</time>
      </trkpt>
      <trkpt lat="45.04148" lon="5.84472">
        <ele>1115.365954</ele>
        <time>2026-08-29T08:48:32.000Z</time>
      </trkpt>
      <trkpt lat="45.04147" lon="5.8447">
        <ele>1115.519411</ele>
        <time>2026-08-29T08:48:33.000Z</time>
      </trkpt>
      <trkpt lat="45.04145" lon="5.84468">
        <ele>1115.679774</ele>
        <time>2026-08-29T08:48:34.000Z</time>
      </trkpt>
      <trkpt lat="45.04144" lon="5.84464">
        <ele>1115.860529</ele>
        <time>2026-08-29T08:48:35.000Z</time>
      </trkpt>
      <trkpt lat="45.04143" lon="5.84462">
        <ele>1116.030708</ele>
        <time>2026-08-29T08:48:36.000Z</time>
      </trkpt>
      <trkpt lat="45.04141" lon="5.84459">
        <ele>1116.206945</ele>
        <time>2026-08-29T08:48:37.000Z</time>
      </trkpt>
      <trkpt lat="45.0414" lon="5.84457">
        <ele>1116.382074</ele>
        <time>2026-08-29T08:48:38.000Z</time>
      </trkpt>
      <trkpt lat="45.04138" lon="5.84454">
        <ele>1116.566963</ele>
        <time>2026-08-29T08:48:39.000Z</time>
      </trkpt>
      <trkpt lat="45.04136" lon="5.84451">
        <ele>1116.751853</ele>
        <time>2026-08-29T08:48:40.000Z</time>
      </trkpt>
      <trkpt lat="45.04134" lon="5.84448">
        <ele>1116.952733</ele>
        <time>2026-08-29T08:48:41.000Z</time>
      </trkpt>
      <trkpt lat="45.04133" lon="5.84446">
        <ele>1117.119073</ele>
        <time>2026-08-29T08:48:42.000Z</time>
      </trkpt>
      <trkpt lat="45.04132" lon="5.84443">
        <ele>1117.282981</ele>
        <time>2026-08-29T08:48:43.000Z</time>
      </trkpt>
      <trkpt lat="45.04131" lon="5.8444">
        <ele>1117.457427</ele>
        <time>2026-08-29T08:48:44.000Z</time>
      </trkpt>
      <trkpt lat="45.04129" lon="5.84437">
        <ele>1117.624018</ele>
        <time>2026-08-29T08:48:45.000Z</time>
      </trkpt>
      <trkpt lat="45.04127" lon="5.84435">
        <ele>1117.798349</ele>
        <time>2026-08-29T08:48:46.000Z</time>
      </trkpt>
      <trkpt lat="45.04126" lon="5.84433">
        <ele>1117.96968</ele>
        <time>2026-08-29T08:48:47.000Z</time>
      </trkpt>
      <trkpt lat="45.04124" lon="5.8443">
        <ele>1118.144012</ele>
        <time>2026-08-29T08:48:48.000Z</time>
      </trkpt>
      <trkpt lat="45.04122" lon="5.84429">
        <ele>1118.311722</ele>
        <time>2026-08-29T08:48:49.000Z</time>
      </trkpt>
      <trkpt lat="45.0412" lon="5.84426">
        <ele>1118.472085</ele>
        <time>2026-08-29T08:48:50.000Z</time>
      </trkpt>
      <trkpt lat="45.04119" lon="5.84424">
        <ele>1118.644699</ele>
        <time>2026-08-29T08:48:51.000Z</time>
      </trkpt>
      <trkpt lat="45.04117" lon="5.84422">
        <ele>1118.822474</ele>
        <time>2026-08-29T08:48:52.000Z</time>
      </trkpt>
      <trkpt lat="45.04115" lon="5.84419">
        <ele>1119.00025</ele>
        <time>2026-08-29T08:48:53.000Z</time>
      </trkpt>
      <trkpt lat="45.04113" lon="5.84417">
        <ele>1119.180182</ele>
        <time>2026-08-29T08:48:54.000Z</time>
      </trkpt>
      <trkpt lat="45.04112" lon="5.84414">
        <ele>1119.347783</ele>
        <time>2026-08-29T08:48:55.000Z</time>
      </trkpt>
      <trkpt lat="45.0411" lon="5.84412">
        <ele>1119.509813</ele>
        <time>2026-08-29T08:48:56.000Z</time>
      </trkpt>
      <trkpt lat="45.04109" lon="5.84409">
        <ele>1119.66748</ele>
        <time>2026-08-29T08:48:57.000Z</time>
      </trkpt>
      <trkpt lat="45.04107" lon="5.84407">
        <ele>1119.83407</ele>
        <time>2026-08-29T08:48:58.000Z</time>
      </trkpt>
      <trkpt lat="45.04106" lon="5.84404">
        <ele>1120.000661</ele>
        <time>2026-08-29T08:48:59.000Z</time>
      </trkpt>
      <trkpt lat="45.04104" lon="5.84402">
        <ele>1120.182754</ele>
        <time>2026-08-29T08:49:00.000Z</time>
      </trkpt>
      <trkpt lat="45.04102" lon="5.844">
        <ele>1120.357086</ele>
        <time>2026-08-29T08:49:01.000Z</time>
      </trkpt>
      <trkpt lat="45.04101" lon="5.84397">
        <ele>1120.523127</ele>
        <time>2026-08-29T08:49:02.000Z</time>
      </trkpt>
      <trkpt lat="45.04099" lon="5.84395">
        <ele>1120.694097</ele>
        <time>2026-08-29T08:49:03.000Z</time>
      </trkpt>
      <trkpt lat="45.04097" lon="5.84393">
        <ele>1120.876056</ele>
        <time>2026-08-29T08:49:04.000Z</time>
      </trkpt>
      <trkpt lat="45.04095" lon="5.84391">
        <ele>1121.049357</ele>
        <time>2026-08-29T08:49:05.000Z</time>
      </trkpt>
      <trkpt lat="45.04093" lon="5.84389">
        <ele>1121.217067</ele>
        <time>2026-08-29T08:49:06.000Z</time>
      </trkpt>
      <trkpt lat="45.04091" lon="5.84388">
        <ele>1121.394314</ele>
        <time>2026-08-29T08:49:07.000Z</time>
      </trkpt>
      <trkpt lat="45.04088" lon="5.84388">
        <ele>1121.574028</ele>
        <time>2026-08-29T08:49:08.000Z</time>
      </trkpt>
      <trkpt lat="45.04085" lon="5.84389">
        <ele>1121.778425</ele>
        <time>2026-08-29T08:49:09.000Z</time>
      </trkpt>
      <trkpt lat="45.04083" lon="5.8439">
        <ele>1121.95464</ele>
        <time>2026-08-29T08:49:10.000Z</time>
      </trkpt>
      <trkpt lat="45.04081" lon="5.84392">
        <ele>1122.119001</ele>
        <time>2026-08-29T08:49:11.000Z</time>
      </trkpt>
      <trkpt lat="45.0408" lon="5.84394">
        <ele>1122.281032</ele>
        <time>2026-08-29T08:49:12.000Z</time>
      </trkpt>
      <trkpt lat="45.04079" lon="5.84398">
        <ele>1122.472723</ele>
        <time>2026-08-29T08:49:13.000Z</time>
      </trkpt>
      <trkpt lat="45.04078" lon="5.84402">
        <ele>1122.667872</ele>
        <time>2026-08-29T08:49:14.000Z</time>
      </trkpt>
      <trkpt lat="45.04079" lon="5.84406">
        <ele>1122.872193</ele>
        <time>2026-08-29T08:49:15.000Z</time>
      </trkpt>
      <trkpt lat="45.0408" lon="5.84409">
        <ele>1123.059082</ele>
        <time>2026-08-29T08:49:16.000Z</time>
      </trkpt>
      <trkpt lat="45.04082" lon="5.84412">
        <ele>1123.254596</ele>
        <time>2026-08-29T08:49:17.000Z</time>
      </trkpt>
      <trkpt lat="45.04084" lon="5.84415">
        <ele>1123.467821</ele>
        <time>2026-08-29T08:49:18.000Z</time>
      </trkpt>
      <trkpt lat="45.04086" lon="5.84418">
        <ele>1123.696675</ele>
        <time>2026-08-29T08:49:19.000Z</time>
      </trkpt>
      <trkpt lat="45.04089" lon="5.84421">
        <ele>1123.943439</ele>
        <time>2026-08-29T08:49:20.000Z</time>
      </trkpt>
      <trkpt lat="45.04092" lon="5.84424">
        <ele>1124.201772</ele>
        <time>2026-08-29T08:49:21.000Z</time>
      </trkpt>
      <trkpt lat="45.04095" lon="5.84427">
        <ele>1124.437395</ele>
        <time>2026-08-29T08:49:22.000Z</time>
      </trkpt>
      <trkpt lat="45.04097" lon="5.8443">
        <ele>1124.684159</ele>
        <time>2026-08-29T08:49:23.000Z</time>
      </trkpt>
      <trkpt lat="45.041" lon="5.84433">
        <ele>1124.926939</ele>
        <time>2026-08-29T08:49:24.000Z</time>
      </trkpt>
      <trkpt lat="45.04101" lon="5.84437">
        <ele>1125.155178</ele>
        <time>2026-08-29T08:49:25.000Z</time>
      </trkpt>
      <trkpt lat="45.04104" lon="5.8444">
        <ele>1125.397959</ele>
        <time>2026-08-29T08:49:26.000Z</time>
      </trkpt>
      <trkpt lat="45.04106" lon="5.84444">
        <ele>1125.632131</ele>
        <time>2026-08-29T08:49:27.000Z</time>
      </trkpt>
      <trkpt lat="45.04108" lon="5.84448">
        <ele>1125.873013</ele>
        <time>2026-08-29T08:49:28.000Z</time>
      </trkpt>
      <trkpt lat="45.04109" lon="5.84452">
        <ele>1126.108896</ele>
        <time>2026-08-29T08:49:29.000Z</time>
      </trkpt>
      <trkpt lat="45.0411" lon="5.84456">
        <ele>1126.314867</ele>
        <time>2026-08-29T08:49:30.000Z</time>
      </trkpt>
      <trkpt lat="45.04111" lon="5.84459">
        <ele>1126.49877</ele>
        <time>2026-08-29T08:49:31.000Z</time>
      </trkpt>
      <trkpt lat="45.0411" lon="5.84463">
        <ele>1126.715309</ele>
        <time>2026-08-29T08:49:32.000Z</time>
      </trkpt>
      <trkpt lat="45.0411" lon="5.84467">
        <ele>1126.939637</ele>
        <time>2026-08-29T08:49:33.000Z</time>
      </trkpt>
      <trkpt lat="45.04111" lon="5.8447">
        <ele>1127.161824</ele>
        <time>2026-08-29T08:49:34.000Z</time>
      </trkpt>
      <trkpt lat="45.04112" lon="5.84474">
        <ele>1127.408611</ele>
        <time>2026-08-29T08:49:35.000Z</time>
      </trkpt>
      <trkpt lat="45.04113" lon="5.84478">
        <ele>1127.639911</ele>
        <time>2026-08-29T08:49:36.000Z</time>
      </trkpt>
      <trkpt lat="45.04113" lon="5.84483">
        <ele>1127.887218</ele>
        <time>2026-08-29T08:49:37.000Z</time>
      </trkpt>
      <trkpt lat="45.04113" lon="5.84487">
        <ele>1128.140271</ele>
        <time>2026-08-29T08:49:38.000Z</time>
      </trkpt>
      <trkpt lat="45.04114" lon="5.8449">
        <ele>1128.351752</ele>
        <time>2026-08-29T08:49:39.000Z</time>
      </trkpt>
      <trkpt lat="45.04115" lon="5.84494">
        <ele>1128.627405</ele>
        <time>2026-08-29T08:49:40.000Z</time>
      </trkpt>
      <trkpt lat="45.04118" lon="5.84498">
        <ele>1128.89134</ele>
        <time>2026-08-29T08:49:41.000Z</time>
      </trkpt>
      <trkpt lat="45.0412" lon="5.84501">
        <ele>1129.163774</ele>
        <time>2026-08-29T08:49:42.000Z</time>
      </trkpt>
      <trkpt lat="45.04123" lon="5.84504">
        <ele>1129.44947</ele>
        <time>2026-08-29T08:49:43.000Z</time>
      </trkpt>
      <trkpt lat="45.04125" lon="5.84506">
        <ele>1129.682407</ele>
        <time>2026-08-29T08:49:44.000Z</time>
      </trkpt>
      <trkpt lat="45.04127" lon="5.84509">
        <ele>1129.899485</ele>
        <time>2026-08-29T08:49:45.000Z</time>
      </trkpt>
      <trkpt lat="45.04129" lon="5.84512">
        <ele>1130.125714</ele>
        <time>2026-08-29T08:49:46.000Z</time>
      </trkpt>
      <trkpt lat="45.04131" lon="5.84515">
        <ele>1130.381544</ele>
        <time>2026-08-29T08:49:47.000Z</time>
      </trkpt>
      <trkpt lat="45.04134" lon="5.84518">
        <ele>1130.634099</ele>
        <time>2026-08-29T08:49:48.000Z</time>
      </trkpt>
      <trkpt lat="45.04136" lon="5.84521">
        <ele>1130.876838</ele>
        <time>2026-08-29T08:49:49.000Z</time>
      </trkpt>
      <trkpt lat="45.04138" lon="5.84524">
        <ele>1131.117536</ele>
        <time>2026-08-29T08:49:50.000Z</time>
      </trkpt>
      <trkpt lat="45.0414" lon="5.84527">
        <ele>1131.366068</ele>
        <time>2026-08-29T08:49:51.000Z</time>
      </trkpt>
      <trkpt lat="45.04142" lon="5.84529">
        <ele>1131.577117</ele>
        <time>2026-08-29T08:49:52.000Z</time>
      </trkpt>
      <trkpt lat="45.04144" lon="5.84531">
        <ele>1131.774401</ele>
        <time>2026-08-29T08:49:53.000Z</time>
      </trkpt>
      <trkpt lat="45.04146" lon="5.84534">
        <ele>1131.973842</ele>
        <time>2026-08-29T08:49:54.000Z</time>
      </trkpt>
      <trkpt lat="45.04147" lon="5.84536">
        <ele>1132.161744</ele>
        <time>2026-08-29T08:49:55.000Z</time>
      </trkpt>
      <trkpt lat="45.04148" lon="5.84539">
        <ele>1132.343811</ele>
        <time>2026-08-29T08:49:56.000Z</time>
      </trkpt>
      <trkpt lat="45.04149" lon="5.84542">
        <ele>1132.550398</ele>
        <time>2026-08-29T08:49:57.000Z</time>
      </trkpt>
      <trkpt lat="45.04151" lon="5.84545">
        <ele>1132.744287</ele>
        <time>2026-08-29T08:49:58.000Z</time>
      </trkpt>
      <trkpt lat="45.04153" lon="5.84547">
        <ele>1132.929815</ele>
        <time>2026-08-29T08:49:59.000Z</time>
      </trkpt>
      <trkpt lat="45.04154" lon="5.84549">
        <ele>1133.102733</ele>
        <time>2026-08-29T08:50:00.000Z</time>
      </trkpt>
      <trkpt lat="45.04156" lon="5.84551">
        <ele>1133.291991</ele>
        <time>2026-08-29T08:50:01.000Z</time>
      </trkpt>
      <trkpt lat="45.04157" lon="5.84553">
        <ele>1133.471141</ele>
        <time>2026-08-29T08:50:02.000Z</time>
      </trkpt>
      <trkpt lat="45.04159" lon="5.84555">
        <ele>1133.663773</ele>
        <time>2026-08-29T08:50:03.000Z</time>
      </trkpt>
      <trkpt lat="45.04161" lon="5.84557">
        <ele>1133.846448</ele>
        <time>2026-08-29T08:50:04.000Z</time>
      </trkpt>
      <trkpt lat="45.04163" lon="5.84559">
        <ele>1134.022668</ele>
        <time>2026-08-29T08:50:05.000Z</time>
      </trkpt>
      <trkpt lat="45.04165" lon="5.84561">
        <ele>1134.201965</ele>
        <time>2026-08-29T08:50:06.000Z</time>
      </trkpt>
      <trkpt lat="45.04166" lon="5.84563">
        <ele>1134.355837</ele>
        <time>2026-08-29T08:50:07.000Z</time>
      </trkpt>
      <trkpt lat="45.04167" lon="5.84564">
        <ele>1134.493963</ele>
        <time>2026-08-29T08:50:08.000Z</time>
      </trkpt>
      <trkpt lat="45.04169" lon="5.84566">
        <ele>1134.653949</ele>
        <time>2026-08-29T08:50:09.000Z</time>
      </trkpt>
      <trkpt lat="45.0417" lon="5.84568">
        <ele>1134.805976</ele>
        <time>2026-08-29T08:50:10.000Z</time>
      </trkpt>
      <trkpt lat="45.04171" lon="5.8457">
        <ele>1134.952364</ele>
        <time>2026-08-29T08:50:11.000Z</time>
      </trkpt>
      <trkpt lat="45.04173" lon="5.84571">
        <ele>1135.100316</ele>
        <time>2026-08-29T08:50:12.000Z</time>
      </trkpt>
      <trkpt lat="45.04174" lon="5.84574">
        <ele>1135.287713</ele>
        <time>2026-08-29T08:50:13.000Z</time>
      </trkpt>
      <trkpt lat="45.04175" lon="5.84576">
        <ele>1135.443893</ele>
        <time>2026-08-29T08:50:14.000Z</time>
      </trkpt>
      <trkpt lat="45.04177" lon="5.84578">
        <ele>1135.618392</ele>
        <time>2026-08-29T08:50:15.000Z</time>
      </trkpt>
      <trkpt lat="45.04178" lon="5.8458">
        <ele>1135.784351</ele>
        <time>2026-08-29T08:50:16.000Z</time>
      </trkpt>
      <trkpt lat="45.0418" lon="5.84582">
        <ele>1135.948113</ele>
        <time>2026-08-29T08:50:17.000Z</time>
      </trkpt>
      <trkpt lat="45.04181" lon="5.84585">
        <ele>1136.122612</ele>
        <time>2026-08-29T08:50:18.000Z</time>
      </trkpt>
      <trkpt lat="45.04182" lon="5.84587">
        <ele>1136.302526</ele>
        <time>2026-08-29T08:50:19.000Z</time>
      </trkpt>
      <trkpt lat="45.04184" lon="5.8459">
        <ele>1136.485875</ele>
        <time>2026-08-29T08:50:20.000Z</time>
      </trkpt>
      <trkpt lat="45.04185" lon="5.84592">
        <ele>1136.664384</ele>
        <time>2026-08-29T08:50:21.000Z</time>
      </trkpt>
      <trkpt lat="45.04186" lon="5.84595">
        <ele>1136.828727</ele>
        <time>2026-08-29T08:50:22.000Z</time>
      </trkpt>
      <trkpt lat="45.04187" lon="5.84597">
        <ele>1136.989212</ele>
        <time>2026-08-29T08:50:23.000Z</time>
      </trkpt>
      <trkpt lat="45.04189" lon="5.84599">
        <ele>1137.164945</ele>
        <time>2026-08-29T08:50:24.000Z</time>
      </trkpt>
      <trkpt lat="45.0419" lon="5.84602">
        <ele>1137.362371</ele>
        <time>2026-08-29T08:50:25.000Z</time>
      </trkpt>
      <trkpt lat="45.04192" lon="5.84604">
        <ele>1137.531373</ele>
        <time>2026-08-29T08:50:26.000Z</time>
      </trkpt>
      <trkpt lat="45.04193" lon="5.84606">
        <ele>1137.7169</ele>
        <time>2026-08-29T08:50:27.000Z</time>
      </trkpt>
      <trkpt lat="45.04195" lon="5.84609">
        <ele>1137.902428</ele>
        <time>2026-08-29T08:50:28.000Z</time>
      </trkpt>
      <trkpt lat="45.04196" lon="5.84611">
        <ele>1138.089825</ele>
        <time>2026-08-29T08:50:29.000Z</time>
      </trkpt>
      <trkpt lat="45.04198" lon="5.84613">
        <ele>1138.264018</ele>
        <time>2026-08-29T08:50:30.000Z</time>
      </trkpt>
      <trkpt lat="45.04199" lon="5.84616">
        <ele>1138.442911</ele>
        <time>2026-08-29T08:50:31.000Z</time>
      </trkpt>
      <trkpt lat="45.04201" lon="5.84618">
        <ele>1138.616572</ele>
        <time>2026-08-29T08:50:32.000Z</time>
      </trkpt>
      <trkpt lat="45.04202" lon="5.8462">
        <ele>1138.799246</ele>
        <time>2026-08-29T08:50:33.000Z</time>
      </trkpt>
      <trkpt lat="45.04204" lon="5.84621">
        <ele>1138.996055</ele>
        <time>2026-08-29T08:50:34.000Z</time>
      </trkpt>
      <trkpt lat="45.04206" lon="5.84623">
        <ele>1139.195274</ele>
        <time>2026-08-29T08:50:35.000Z</time>
      </trkpt>
      <trkpt lat="45.04209" lon="5.84625">
        <ele>1139.401189</ele>
        <time>2026-08-29T08:50:36.000Z</time>
      </trkpt>
      <trkpt lat="45.04211" lon="5.84627">
        <ele>1139.603952</ele>
        <time>2026-08-29T08:50:37.000Z</time>
      </trkpt>
      <trkpt lat="45.04213" lon="5.84629">
        <ele>1139.793742</ele>
        <time>2026-08-29T08:50:38.000Z</time>
      </trkpt>
      <trkpt lat="45.04214" lon="5.84631">
        <ele>1139.963653</ele>
        <time>2026-08-29T08:50:39.000Z</time>
      </trkpt>
      <trkpt lat="45.04215" lon="5.84633">
        <ele>1140.110136</ele>
        <time>2026-08-29T08:50:40.000Z</time>
      </trkpt>
      <trkpt lat="45.04217" lon="5.84635">
        <ele>1140.281779</ele>
        <time>2026-08-29T08:50:41.000Z</time>
      </trkpt>
      <trkpt lat="45.04218" lon="5.84637">
        <ele>1140.413884</ele>
        <time>2026-08-29T08:50:42.000Z</time>
      </trkpt>
      <trkpt lat="45.0422" lon="5.84638">
        <ele>1140.583814</ele>
        <time>2026-08-29T08:50:43.000Z</time>
      </trkpt>
      <trkpt lat="45.0422" lon="5.8464">
        <ele>1140.69261</ele>
        <time>2026-08-29T08:50:44.000Z</time>
      </trkpt>
      <trkpt lat="45.04221" lon="5.84642">
        <ele>1140.828792</ele>
        <time>2026-08-29T08:50:45.000Z</time>
      </trkpt>
      <trkpt lat="45.04223" lon="5.84643">
        <ele>1140.978858</ele>
        <time>2026-08-29T08:50:46.000Z</time>
      </trkpt>
      <trkpt lat="45.04224" lon="5.84645">
        <ele>1141.132234</ele>
        <time>2026-08-29T08:50:47.000Z</time>
      </trkpt>
      <trkpt lat="45.04227" lon="5.84646">
        <ele>1141.386719</ele>
        <time>2026-08-29T08:50:48.000Z</time>
      </trkpt>
      <trkpt lat="45.04228" lon="5.84649">
        <ele>1141.538702</ele>
        <time>2026-08-29T08:50:49.000Z</time>
      </trkpt>
      <trkpt lat="45.04229" lon="5.8465">
        <ele>1141.717497</ele>
        <time>2026-08-29T08:50:50.000Z</time>
      </trkpt>
      <trkpt lat="45.0423" lon="5.84652">
        <ele>1141.833947</ele>
        <time>2026-08-29T08:50:51.000Z</time>
      </trkpt>
      <trkpt lat="45.04232" lon="5.84653">
        <ele>1142.034502</ele>
        <time>2026-08-29T08:50:52.000Z</time>
      </trkpt>
      <trkpt lat="45.04234" lon="5.84654">
        <ele>1142.206073</ele>
        <time>2026-08-29T08:50:53.000Z</time>
      </trkpt>
      <trkpt lat="45.04235" lon="5.84656">
        <ele>1142.342952</ele>
        <time>2026-08-29T08:50:54.000Z</time>
      </trkpt>
      <trkpt lat="45.04236" lon="5.84657">
        <ele>1142.5038</ele>
        <time>2026-08-29T08:50:55.000Z</time>
      </trkpt>
      <trkpt lat="45.04238" lon="5.84658">
        <ele>1142.689562</ele>
        <time>2026-08-29T08:50:56.000Z</time>
      </trkpt>
      <trkpt lat="45.04241" lon="5.8466">
        <ele>1142.896043</ele>
        <time>2026-08-29T08:50:57.000Z</time>
      </trkpt>
      <trkpt lat="45.04242" lon="5.84661">
        <ele>1143.074838</ele>
        <time>2026-08-29T08:50:58.000Z</time>
      </trkpt>
      <trkpt lat="45.04245" lon="5.84662">
        <ele>1143.297752</ele>
        <time>2026-08-29T08:50:59.000Z</time>
      </trkpt>
      <trkpt lat="45.04247" lon="5.84664">
        <ele>1143.510368</ele>
        <time>2026-08-29T08:51:00.000Z</time>
      </trkpt>
      <trkpt lat="45.04249" lon="5.84665">
        <ele>1143.734811</ele>
        <time>2026-08-29T08:51:01.000Z</time>
      </trkpt>
      <trkpt lat="45.04251" lon="5.84667">
        <ele>1143.933037</ele>
        <time>2026-08-29T08:51:02.000Z</time>
      </trkpt>
      <trkpt lat="45.04253" lon="5.84668">
        <ele>1144.13633</ele>
        <time>2026-08-29T08:51:03.000Z</time>
      </trkpt>
      <trkpt lat="45.04256" lon="5.8467">
        <ele>1144.36357</ele>
        <time>2026-08-29T08:51:04.000Z</time>
      </trkpt>
      <trkpt lat="45.04258" lon="5.84671">
        <ele>1144.582835</ele>
        <time>2026-08-29T08:51:05.000Z</time>
      </trkpt>
      <trkpt lat="45.0426" lon="5.84673">
        <ele>1144.799453</ele>
        <time>2026-08-29T08:51:06.000Z</time>
      </trkpt>
      <trkpt lat="45.04262" lon="5.84675">
        <ele>1144.990556</ele>
        <time>2026-08-29T08:51:07.000Z</time>
      </trkpt>
      <trkpt lat="45.04263" lon="5.84677">
        <ele>1145.187949</ele>
        <time>2026-08-29T08:51:08.000Z</time>
      </trkpt>
      <trkpt lat="45.04265" lon="5.84679">
        <ele>1145.379052</ele>
        <time>2026-08-29T08:51:09.000Z</time>
      </trkpt>
      <trkpt lat="45.04267" lon="5.84682">
        <ele>1145.587336</ele>
        <time>2026-08-29T08:51:10.000Z</time>
      </trkpt>
      <trkpt lat="45.04268" lon="5.84684">
        <ele>1145.808201</ele>
        <time>2026-08-29T08:51:11.000Z</time>
      </trkpt>
      <trkpt lat="45.0427" lon="5.84687">
        <ele>1146.018488</ele>
        <time>2026-08-29T08:51:12.000Z</time>
      </trkpt>
      <trkpt lat="45.04271" lon="5.8469">
        <ele>1146.219872</ele>
        <time>2026-08-29T08:51:13.000Z</time>
      </trkpt>
      <trkpt lat="45.04272" lon="5.84693">
        <ele>1146.415869</ele>
        <time>2026-08-29T08:51:14.000Z</time>
      </trkpt>
      <trkpt lat="45.04273" lon="5.84695">
        <ele>1146.585693</ele>
        <time>2026-08-29T08:51:15.000Z</time>
      </trkpt>
      <trkpt lat="45.04274" lon="5.84698">
        <ele>1146.768871</ele>
        <time>2026-08-29T08:51:16.000Z</time>
      </trkpt>
      <trkpt lat="45.04275" lon="5.84701">
        <ele>1146.972544</ele>
        <time>2026-08-29T08:51:17.000Z</time>
      </trkpt>
      <trkpt lat="45.04276" lon="5.84703">
        <ele>1147.179778</ele>
        <time>2026-08-29T08:51:18.000Z</time>
      </trkpt>
      <trkpt lat="45.04277" lon="5.84706">
        <ele>1147.382421</ele>
        <time>2026-08-29T08:51:19.000Z</time>
      </trkpt>
      <trkpt lat="45.04279" lon="5.84708">
        <ele>1147.586601</ele>
        <time>2026-08-29T08:51:20.000Z</time>
      </trkpt>
      <trkpt lat="45.0428" lon="5.84711">
        <ele>1147.78955</ele>
        <time>2026-08-29T08:51:21.000Z</time>
      </trkpt>
      <trkpt lat="45.04281" lon="5.84714">
        <ele>1147.979897</ele>
        <time>2026-08-29T08:51:22.000Z</time>
      </trkpt>
      <trkpt lat="45.04283" lon="5.84716">
        <ele>1148.182074</ele>
        <time>2026-08-29T08:51:23.000Z</time>
      </trkpt>
      <trkpt lat="45.04283" lon="5.84719">
        <ele>1148.350204</ele>
        <time>2026-08-29T08:51:24.000Z</time>
      </trkpt>
      <trkpt lat="45.04285" lon="5.84721">
        <ele>1148.511964</ele>
        <time>2026-08-29T08:51:25.000Z</time>
      </trkpt>
      <trkpt lat="45.04286" lon="5.84723">
        <ele>1148.668797</ele>
        <time>2026-08-29T08:51:26.000Z</time>
      </trkpt>
      <trkpt lat="45.04287" lon="5.84725">
        <ele>1148.823805</ele>
        <time>2026-08-29T08:51:27.000Z</time>
      </trkpt>
      <trkpt lat="45.04289" lon="5.84726">
        <ele>1149.026166</ele>
        <time>2026-08-29T08:51:28.000Z</time>
      </trkpt>
      <trkpt lat="45.04291" lon="5.84727">
        <ele>1149.212316</ele>
        <time>2026-08-29T08:51:29.000Z</time>
      </trkpt>
      <trkpt lat="45.04292" lon="5.84729">
        <ele>1149.38508</ele>
        <time>2026-08-29T08:51:30.000Z</time>
      </trkpt>
      <trkpt lat="45.04294" lon="5.84731">
        <ele>1149.563738</ele>
        <time>2026-08-29T08:51:31.000Z</time>
      </trkpt>
      <trkpt lat="45.04296" lon="5.84733">
        <ele>1149.75736</ele>
        <time>2026-08-29T08:51:32.000Z</time>
      </trkpt>
      <trkpt lat="45.04298" lon="5.84734">
        <ele>1149.974254</ele>
        <time>2026-08-29T08:51:33.000Z</time>
      </trkpt>
      <trkpt lat="45.04301" lon="5.84735">
        <ele>1150.215836</ele>
        <time>2026-08-29T08:51:34.000Z</time>
      </trkpt>
      <trkpt lat="45.04302" lon="5.84737">
        <ele>1150.412694</ele>
        <time>2026-08-29T08:51:35.000Z</time>
      </trkpt>
      <trkpt lat="45.04304" lon="5.84739">
        <ele>1150.599644</ele>
        <time>2026-08-29T08:51:36.000Z</time>
      </trkpt>
      <trkpt lat="45.04306" lon="5.8474">
        <ele>1150.792386</ele>
        <time>2026-08-29T08:51:37.000Z</time>
      </trkpt>
      <trkpt lat="45.04308" lon="5.84742">
        <ele>1150.979336</ele>
        <time>2026-08-29T08:51:38.000Z</time>
      </trkpt>
      <trkpt lat="45.04309" lon="5.84744">
        <ele>1151.179749</ele>
        <time>2026-08-29T08:51:39.000Z</time>
      </trkpt>
      <trkpt lat="45.04311" lon="5.84746">
        <ele>1151.383489</ele>
        <time>2026-08-29T08:51:40.000Z</time>
      </trkpt>
      <trkpt lat="45.04313" lon="5.84748">
        <ele>1151.551648</ele>
        <time>2026-08-29T08:51:41.000Z</time>
      </trkpt>
      <trkpt lat="45.04314" lon="5.8475">
        <ele>1151.741162</ele>
        <time>2026-08-29T08:51:42.000Z</time>
      </trkpt>
      <trkpt lat="45.04316" lon="5.84752">
        <ele>1151.91537</ele>
        <time>2026-08-29T08:51:43.000Z</time>
      </trkpt>
      <trkpt lat="45.04317" lon="5.84754">
        <ele>1152.112463</ele>
        <time>2026-08-29T08:51:44.000Z</time>
      </trkpt>
      <trkpt lat="45.04319" lon="5.84757">
        <ele>1152.324995</ele>
        <time>2026-08-29T08:51:45.000Z</time>
      </trkpt>
      <trkpt lat="45.0432" lon="5.84759">
        <ele>1152.535281</ele>
        <time>2026-08-29T08:51:46.000Z</time>
      </trkpt>
      <trkpt lat="45.04322" lon="5.84761">
        <ele>1152.699777</ele>
        <time>2026-08-29T08:51:47.000Z</time>
      </trkpt>
      <trkpt lat="45.04323" lon="5.84763">
        <ele>1152.890879</ele>
        <time>2026-08-29T08:51:48.000Z</time>
      </trkpt>
      <trkpt lat="45.04324" lon="5.84765">
        <ele>1153.057987</ele>
        <time>2026-08-29T08:51:49.000Z</time>
      </trkpt>
      <trkpt lat="45.04326" lon="5.84768">
        <ele>1153.260935</ele>
        <time>2026-08-29T08:51:50.000Z</time>
      </trkpt>
      <trkpt lat="45.04328" lon="5.8477">
        <ele>1153.443847</ele>
        <time>2026-08-29T08:51:51.000Z</time>
      </trkpt>
      <trkpt lat="45.0433" lon="5.84772">
        <ele>1153.666393</ele>
        <time>2026-08-29T08:51:52.000Z</time>
      </trkpt>
      <trkpt lat="45.04332" lon="5.84774">
        <ele>1153.877516</ele>
        <time>2026-08-29T08:51:53.000Z</time>
      </trkpt>
      <trkpt lat="45.04334" lon="5.84776">
        <ele>1154.121866</ele>
        <time>2026-08-29T08:51:54.000Z</time>
      </trkpt>
      <trkpt lat="45.04335" lon="5.84779">
        <ele>1154.324041</ele>
        <time>2026-08-29T08:51:55.000Z</time>
      </trkpt>
      <trkpt lat="45.04337" lon="5.84782">
        <ele>1154.536573</ele>
        <time>2026-08-29T08:51:56.000Z</time>
      </trkpt>
      <trkpt lat="45.04338" lon="5.84784">
        <ele>1154.725753</ele>
        <time>2026-08-29T08:51:57.000Z</time>
      </trkpt>
      <trkpt lat="45.04339" lon="5.84787">
        <ele>1154.921748</ele>
        <time>2026-08-29T08:51:58.000Z</time>
      </trkpt>
      <trkpt lat="45.0434" lon="5.84789">
        <ele>1155.109269</ele>
        <time>2026-08-29T08:51:59.000Z</time>
      </trkpt>
      <trkpt lat="45.0434" lon="5.84792">
        <ele>1155.273923</ele>
        <time>2026-08-29T08:52:00.000Z</time>
      </trkpt>
      <trkpt lat="45.04341" lon="5.84795">
        <ele>1155.460813</ele>
        <time>2026-08-29T08:52:01.000Z</time>
      </trkpt>
      <trkpt lat="45.04343" lon="5.84797">
        <ele>1155.649992</ele>
        <time>2026-08-29T08:52:02.000Z</time>
      </trkpt>
      <trkpt lat="45.04344" lon="5.848">
        <ele>1155.869193</ele>
        <time>2026-08-29T08:52:03.000Z</time>
      </trkpt>
      <trkpt lat="45.04346" lon="5.84803">
        <ele>1156.077149</ele>
        <time>2026-08-29T08:52:04.000Z</time>
      </trkpt>
      <trkpt lat="45.04347" lon="5.84805">
        <ele>1156.285872</ele>
        <time>2026-08-29T08:52:05.000Z</time>
      </trkpt>
      <trkpt lat="45.04349" lon="5.84808">
        <ele>1156.508264</ele>
        <time>2026-08-29T08:52:06.000Z</time>
      </trkpt>
      <trkpt lat="45.0435" lon="5.84811">
        <ele>1156.720795</ele>
        <time>2026-08-29T08:52:07.000Z</time>
      </trkpt>
      <trkpt lat="45.04352" lon="5.84814">
        <ele>1156.954234</ele>
        <time>2026-08-29T08:52:08.000Z</time>
      </trkpt>
      <trkpt lat="45.04353" lon="5.84816">
        <ele>1157.147586</ele>
        <time>2026-08-29T08:52:09.000Z</time>
      </trkpt>
      <trkpt lat="45.04354" lon="5.84819">
        <ele>1157.345186</ele>
        <time>2026-08-29T08:52:10.000Z</time>
      </trkpt>
      <trkpt lat="45.04355" lon="5.84822">
        <ele>1157.54738</ele>
        <time>2026-08-29T08:52:11.000Z</time>
      </trkpt>
      <trkpt lat="45.04357" lon="5.84825">
        <ele>1157.812421</ele>
        <time>2026-08-29T08:52:12.000Z</time>
      </trkpt>
      <trkpt lat="45.04359" lon="5.84828">
        <ele>1158.02522</ele>
        <time>2026-08-29T08:52:13.000Z</time>
      </trkpt>
      <trkpt lat="45.0436" lon="5.84831">
        <ele>1158.255466</ele>
        <time>2026-08-29T08:52:14.000Z</time>
      </trkpt>
      <trkpt lat="45.04361" lon="5.84834">
        <ele>1158.466047</ele>
        <time>2026-08-29T08:52:15.000Z</time>
      </trkpt>
      <trkpt lat="45.04362" lon="5.84838">
        <ele>1158.683118</ele>
        <time>2026-08-29T08:52:16.000Z</time>
      </trkpt>
      <trkpt lat="45.04363" lon="5.84841">
        <ele>1158.902405</ele>
        <time>2026-08-29T08:52:17.000Z</time>
      </trkpt>
      <trkpt lat="45.04363" lon="5.84844">
        <ele>1159.111783</ele>
        <time>2026-08-29T08:52:18.000Z</time>
      </trkpt>
      <trkpt lat="45.04365" lon="5.84847">
        <ele>1159.346177</ele>
        <time>2026-08-29T08:52:19.000Z</time>
      </trkpt>
      <trkpt lat="45.04365" lon="5.84851">
        <ele>1159.557571</ele>
        <time>2026-08-29T08:52:20.000Z</time>
      </trkpt>
      <trkpt lat="45.04367" lon="5.84853">
        <ele>1159.781928</ele>
        <time>2026-08-29T08:52:21.000Z</time>
      </trkpt>
      <trkpt lat="45.04368" lon="5.84856">
        <ele>1160.001215</ele>
        <time>2026-08-29T08:52:22.000Z</time>
      </trkpt>
      <trkpt lat="45.0437" lon="5.84859">
        <ele>1160.209451</ele>
        <time>2026-08-29T08:52:23.000Z</time>
      </trkpt>
      <trkpt lat="45.04371" lon="5.84862">
        <ele>1160.411645</ele>
        <time>2026-08-29T08:52:24.000Z</time>
      </trkpt>
      <trkpt lat="45.04372" lon="5.84865">
        <ele>1160.629538</ele>
        <time>2026-08-29T08:52:25.000Z</time>
      </trkpt>
      <trkpt lat="45.04373" lon="5.84868">
        <ele>1160.838028</ele>
        <time>2026-08-29T08:52:26.000Z</time>
      </trkpt>
      <trkpt lat="45.04375" lon="5.8487">
        <ele>1161.044519</ele>
        <time>2026-08-29T08:52:27.000Z</time>
      </trkpt>
      <trkpt lat="45.04376" lon="5.84873">
        <ele>1161.23718</ele>
        <time>2026-08-29T08:52:28.000Z</time>
      </trkpt>
      <trkpt lat="45.04378" lon="5.84875">
        <ele>1161.445998</ele>
        <time>2026-08-29T08:52:29.000Z</time>
      </trkpt>
      <trkpt lat="45.0438" lon="5.84877">
        <ele>1161.652489</ele>
        <time>2026-08-29T08:52:30.000Z</time>
      </trkpt>
      <trkpt lat="45.04381" lon="5.8488">
        <ele>1161.884538</ele>
        <time>2026-08-29T08:52:31.000Z</time>
      </trkpt>
      <trkpt lat="45.04383" lon="5.84882">
        <ele>1162.091029</ele>
        <time>2026-08-29T08:52:32.000Z</time>
      </trkpt>
      <trkpt lat="45.04384" lon="5.84884">
        <ele>1162.255108</ele>
        <time>2026-08-29T08:52:33.000Z</time>
      </trkpt>
      <trkpt lat="45.04386" lon="5.84886">
        <ele>1162.449286</ele>
        <time>2026-08-29T08:52:34.000Z</time>
      </trkpt>
      <trkpt lat="45.04388" lon="5.84887">
        <ele>1162.613186</ele>
        <time>2026-08-29T08:52:35.000Z</time>
      </trkpt>
      <trkpt lat="45.04389" lon="5.84888">
        <ele>1162.769366</ele>
        <time>2026-08-29T08:52:36.000Z</time>
      </trkpt>
      <trkpt lat="45.04391" lon="5.8489">
        <ele>1162.966523</ele>
        <time>2026-08-29T08:52:37.000Z</time>
      </trkpt>
      <trkpt lat="45.04393" lon="5.84892">
        <ele>1163.149905</ele>
        <time>2026-08-29T08:52:38.000Z</time>
      </trkpt>
      <trkpt lat="45.04395" lon="5.84893">
        <ele>1163.336533</ele>
        <time>2026-08-29T08:52:39.000Z</time>
      </trkpt>
      <trkpt lat="45.04397" lon="5.84895">
        <ele>1163.555372</ele>
        <time>2026-08-29T08:52:40.000Z</time>
      </trkpt>
      <trkpt lat="45.04399" lon="5.84897">
        <ele>1163.77849</ele>
        <time>2026-08-29T08:52:41.000Z</time>
      </trkpt>
      <trkpt lat="45.04401" lon="5.84899">
        <ele>1164.012316</ele>
        <time>2026-08-29T08:52:42.000Z</time>
      </trkpt>
      <trkpt lat="45.04403" lon="5.84901">
        <ele>1164.24933</ele>
        <time>2026-08-29T08:52:43.000Z</time>
      </trkpt>
      <trkpt lat="45.04405" lon="5.84903">
        <ele>1164.445193</ele>
        <time>2026-08-29T08:52:44.000Z</time>
      </trkpt>
      <trkpt lat="45.04406" lon="5.84906">
        <ele>1164.623415</ele>
        <time>2026-08-29T08:52:45.000Z</time>
      </trkpt>
      <trkpt lat="45.04408" lon="5.84908">
        <ele>1164.828118</ele>
        <time>2026-08-29T08:52:46.000Z</time>
      </trkpt>
      <trkpt lat="45.04409" lon="5.84911">
        <ele>1165.046731</ele>
        <time>2026-08-29T08:52:47.000Z</time>
      </trkpt>
      <trkpt lat="45.04411" lon="5.84914">
        <ele>1165.259808</ele>
        <time>2026-08-29T08:52:48.000Z</time>
      </trkpt>
      <trkpt lat="45.04413" lon="5.84916">
        <ele>1165.481238</ele>
        <time>2026-08-29T08:52:49.000Z</time>
      </trkpt>
      <trkpt lat="45.04414" lon="5.84919">
        <ele>1165.695135</ele>
        <time>2026-08-29T08:52:50.000Z</time>
      </trkpt>
      <trkpt lat="45.04416" lon="5.84921">
        <ele>1165.892292</ele>
        <time>2026-08-29T08:52:51.000Z</time>
      </trkpt>
      <trkpt lat="45.04418" lon="5.84923">
        <ele>1166.10155</ele>
        <time>2026-08-29T08:52:52.000Z</time>
      </trkpt>
      <trkpt lat="45.04418" lon="5.84925">
        <ele>1166.27011</ele>
        <time>2026-08-29T08:52:53.000Z</time>
      </trkpt>
      <trkpt lat="45.0442" lon="5.84928">
        <ele>1166.458442</ele>
        <time>2026-08-29T08:52:54.000Z</time>
      </trkpt>
      <trkpt lat="45.04421" lon="5.8493">
        <ele>1166.677055</ele>
        <time>2026-08-29T08:52:55.000Z</time>
      </trkpt>
      <trkpt lat="45.04423" lon="5.84933">
        <ele>1166.889978</ele>
        <time>2026-08-29T08:52:56.000Z</time>
      </trkpt>
      <trkpt lat="45.04425" lon="5.84935">
        <ele>1167.090725</ele>
        <time>2026-08-29T08:52:57.000Z</time>
      </trkpt>
      <trkpt lat="45.04427" lon="5.84937">
        <ele>1167.313129</ele>
        <time>2026-08-29T08:52:58.000Z</time>
      </trkpt>
      <trkpt lat="45.04429" lon="5.84939">
        <ele>1167.538947</ele>
        <time>2026-08-29T08:52:59.000Z</time>
      </trkpt>
      <trkpt lat="45.04431" lon="5.84942">
        <ele>1167.74365</ele>
        <time>2026-08-29T08:53:00.000Z</time>
      </trkpt>
      <trkpt lat="45.04431" lon="5.84944">
        <ele>1167.908276</ele>
        <time>2026-08-29T08:53:01.000Z</time>
      </trkpt>
      <trkpt lat="45.04432" lon="5.84947">
        <ele>1168.082339</ele>
        <time>2026-08-29T08:53:02.000Z</time>
      </trkpt>
      <trkpt lat="45.04433" lon="5.84949">
        <ele>1168.276972</ele>
        <time>2026-08-29T08:53:03.000Z</time>
      </trkpt>
      <trkpt lat="45.04434" lon="5.84952">
        <ele>1168.455193</ele>
        <time>2026-08-29T08:53:04.000Z</time>
      </trkpt>
      <trkpt lat="45.04436" lon="5.84954">
        <ele>1168.66401</ele>
        <time>2026-08-29T08:53:05.000Z</time>
      </trkpt>
      <trkpt lat="45.04437" lon="5.84957">
        <ele>1168.887646</ele>
        <time>2026-08-29T08:53:06.000Z</time>
      </trkpt>
      <trkpt lat="45.04439" lon="5.8496">
        <ele>1169.111047</ele>
        <time>2026-08-29T08:53:07.000Z</time>
      </trkpt>
      <trkpt lat="45.04441" lon="5.84962">
        <ele>1169.328177</ele>
        <time>2026-08-29T08:53:08.000Z</time>
      </trkpt>
      <trkpt lat="45.04442" lon="5.84965">
        <ele>1169.551139</ele>
        <time>2026-08-29T08:53:09.000Z</time>
      </trkpt>
      <trkpt lat="45.04444" lon="5.84967">
        <ele>1169.741329</ele>
        <time>2026-08-29T08:53:10.000Z</time>
      </trkpt>
      <trkpt lat="45.04445" lon="5.8497">
        <ele>1169.944125</ele>
        <time>2026-08-29T08:53:11.000Z</time>
      </trkpt>
      <trkpt lat="45.04447" lon="5.84972">
        <ele>1170.162777</ele>
        <time>2026-08-29T08:53:12.000Z</time>
      </trkpt>
      <trkpt lat="45.04449" lon="5.84974">
        <ele>1170.361556</ele>
        <time>2026-08-29T08:53:13.000Z</time>
      </trkpt>
      <trkpt lat="45.04451" lon="5.84977">
        <ele>1170.577094</ele>
        <time>2026-08-29T08:53:14.000Z</time>
      </trkpt>
      <trkpt lat="45.04452" lon="5.84979">
        <ele>1170.766759</ele>
        <time>2026-08-29T08:53:15.000Z</time>
      </trkpt>
      <trkpt lat="45.04454" lon="5.84981">
        <ele>1170.959832</ele>
        <time>2026-08-29T08:53:16.000Z</time>
      </trkpt>
      <trkpt lat="45.04455" lon="5.84984">
        <ele>1171.176962</ele>
        <time>2026-08-29T08:53:17.000Z</time>
      </trkpt>
      <trkpt lat="45.04458" lon="5.84986">
        <ele>1171.410105</ele>
        <time>2026-08-29T08:53:18.000Z</time>
      </trkpt>
      <trkpt lat="45.04459" lon="5.84988">
        <ele>1171.612358</ele>
        <time>2026-08-29T08:53:19.000Z</time>
      </trkpt>
      <trkpt lat="45.04461" lon="5.84991">
        <ele>1171.861462</ele>
        <time>2026-08-29T08:53:20.000Z</time>
      </trkpt>
      <trkpt lat="45.04463" lon="5.84993">
        <ele>1172.066164</ele>
        <time>2026-08-29T08:53:21.000Z</time>
      </trkpt>
      <trkpt lat="45.04465" lon="5.84996">
        <ele>1172.285926</ele>
        <time>2026-08-29T08:53:22.000Z</time>
      </trkpt>
      <trkpt lat="45.04467" lon="5.84998">
        <ele>1172.529811</ele>
        <time>2026-08-29T08:53:23.000Z</time>
      </trkpt>
      <trkpt lat="45.04469" lon="5.85001">
        <ele>1172.72359</ele>
        <time>2026-08-29T08:53:24.000Z</time>
      </trkpt>
      <trkpt lat="45.0447" lon="5.85003">
        <ele>1172.869904</ele>
        <time>2026-08-29T08:53:25.000Z</time>
      </trkpt>
      <trkpt lat="45.04471" lon="5.85006">
        <ele>1173.008285</ele>
        <time>2026-08-29T08:53:26.000Z</time>
      </trkpt>
      <trkpt lat="45.04473" lon="5.85007">
        <ele>1173.158636</ele>
        <time>2026-08-29T08:53:27.000Z</time>
      </trkpt>
      <trkpt lat="45.04474" lon="5.8501">
        <ele>1173.281679</ele>
        <time>2026-08-29T08:53:28.000Z</time>
      </trkpt>
      <trkpt lat="45.04475" lon="5.85012">
        <ele>1173.404996</ele>
        <time>2026-08-29T08:53:29.000Z</time>
      </trkpt>
      <trkpt lat="45.04476" lon="5.85015">
        <ele>1173.539252</ele>
        <time>2026-08-29T08:53:30.000Z</time>
      </trkpt>
      <trkpt lat="45.04477" lon="5.85018">
        <ele>1173.685673</ele>
        <time>2026-08-29T08:53:31.000Z</time>
      </trkpt>
      <trkpt lat="45.04478" lon="5.8502">
        <ele>1173.838947</ele>
        <time>2026-08-29T08:53:32.000Z</time>
      </trkpt>
      <trkpt lat="45.0448" lon="5.85023">
        <ele>1174.005492</ele>
        <time>2026-08-29T08:53:33.000Z</time>
      </trkpt>
      <trkpt lat="45.04482" lon="5.85025">
        <ele>1174.152879</ele>
        <time>2026-08-29T08:53:34.000Z</time>
      </trkpt>
      <trkpt lat="45.04484" lon="5.85027">
        <ele>1174.306582</ele>
        <time>2026-08-29T08:53:35.000Z</time>
      </trkpt>
      <trkpt lat="45.04485" lon="5.85029">
        <ele>1174.441779</ele>
        <time>2026-08-29T08:53:36.000Z</time>
      </trkpt>
      <trkpt lat="45.04487" lon="5.85032">
        <ele>1174.581384</ele>
        <time>2026-08-29T08:53:37.000Z</time>
      </trkpt>
      <trkpt lat="45.04488" lon="5.85034">
        <ele>1174.725552</ele>
        <time>2026-08-29T08:53:38.000Z</time>
      </trkpt>
      <trkpt lat="45.0449" lon="5.85036">
        <ele>1174.871381</ele>
        <time>2026-08-29T08:53:39.000Z</time>
      </trkpt>
      <trkpt lat="45.04491" lon="5.85038">
        <ele>1175.009341</ele>
        <time>2026-08-29T08:53:40.000Z</time>
      </trkpt>
      <trkpt lat="45.04493" lon="5.8504">
        <ele>1175.160015</ele>
        <time>2026-08-29T08:53:41.000Z</time>
      </trkpt>
      <trkpt lat="45.04495" lon="5.85043">
        <ele>1175.310689</ele>
        <time>2026-08-29T08:53:42.000Z</time>
      </trkpt>
      <trkpt lat="45.04496" lon="5.85045">
        <ele>1175.454857</ele>
        <time>2026-08-29T08:53:43.000Z</time>
      </trkpt>
      <trkpt lat="45.04498" lon="5.85047">
        <ele>1175.589381</ele>
        <time>2026-08-29T08:53:44.000Z</time>
      </trkpt>
      <trkpt lat="45.04499" lon="5.85049">
        <ele>1175.719936</ele>
        <time>2026-08-29T08:53:45.000Z</time>
      </trkpt>
      <trkpt lat="45.045" lon="5.85051">
        <ele>1175.854431</ele>
        <time>2026-08-29T08:53:46.000Z</time>
      </trkpt>
      <trkpt lat="45.04502" lon="5.85053">
        <ele>1175.984986</ele>
        <time>2026-08-29T08:53:47.000Z</time>
      </trkpt>
      <trkpt lat="45.04503" lon="5.85055">
        <ele>1176.124979</ele>
        <time>2026-08-29T08:53:48.000Z</time>
      </trkpt>
      <trkpt lat="45.04505" lon="5.85057">
        <ele>1176.239367</ele>
        <time>2026-08-29T08:53:49.000Z</time>
      </trkpt>
      <trkpt lat="45.04506" lon="5.85059">
        <ele>1176.382293</ele>
        <time>2026-08-29T08:53:50.000Z</time>
      </trkpt>
      <trkpt lat="45.04507" lon="5.85062">
        <ele>1176.512922</ele>
        <time>2026-08-29T08:53:51.000Z</time>
      </trkpt>
      <trkpt lat="45.04509" lon="5.85064">
        <ele>1176.643882</ele>
        <time>2026-08-29T08:53:52.000Z</time>
      </trkpt>
      <trkpt lat="45.0451" lon="5.85066">
        <ele>1176.784906</ele>
        <time>2026-08-29T08:53:53.000Z</time>
      </trkpt>
      <trkpt lat="45.04511" lon="5.85069">
        <ele>1176.921227</ele>
        <time>2026-08-29T08:53:54.000Z</time>
      </trkpt>
      <trkpt lat="45.04512" lon="5.85071">
        <ele>1177.066892</ele>
        <time>2026-08-29T08:53:55.000Z</time>
      </trkpt>
      <trkpt lat="45.04514" lon="5.85074">
        <ele>1177.212336</ele>
        <time>2026-08-29T08:53:56.000Z</time>
      </trkpt>
      <trkpt lat="45.04515" lon="5.85076">
        <ele>1177.361207</ele>
        <time>2026-08-29T08:53:57.000Z</time>
      </trkpt>
      <trkpt lat="45.04517" lon="5.85079">
        <ele>1177.519645</ele>
        <time>2026-08-29T08:53:58.000Z</time>
      </trkpt>
      <trkpt lat="45.04519" lon="5.85081">
        <ele>1177.675444</ele>
        <time>2026-08-29T08:53:59.000Z</time>
      </trkpt>
      <trkpt lat="45.04521" lon="5.85083">
        <ele>1177.847893</ele>
        <time>2026-08-29T08:54:00.000Z</time>
      </trkpt>
      <trkpt lat="45.04523" lon="5.85086">
        <ele>1178.014109</ele>
        <time>2026-08-29T08:54:01.000Z</time>
      </trkpt>
      <trkpt lat="45.04525" lon="5.85088">
        <ele>1178.169908</ele>
        <time>2026-08-29T08:54:02.000Z</time>
      </trkpt>
      <trkpt lat="45.04527" lon="5.8509">
        <ele>1178.31518</ele>
        <time>2026-08-29T08:54:03.000Z</time>
      </trkpt>
      <trkpt lat="45.04528" lon="5.85092">
        <ele>1178.46717</ele>
        <time>2026-08-29T08:54:04.000Z</time>
      </trkpt>
      <trkpt lat="45.0453" lon="5.85094">
        <ele>1178.636631</ele>
        <time>2026-08-29T08:54:05.000Z</time>
      </trkpt>
      <trkpt lat="45.04533" lon="5.85096">
        <ele>1178.816037</ele>
        <time>2026-08-29T08:54:06.000Z</time>
      </trkpt>
      <trkpt lat="45.04535" lon="5.85099">
        <ele>1178.982214</ele>
        <time>2026-08-29T08:54:07.000Z</time>
      </trkpt>
      <trkpt lat="45.04536" lon="5.85101">
        <ele>1179.137394</ele>
        <time>2026-08-29T08:54:08.000Z</time>
      </trkpt>
      <trkpt lat="45.04538" lon="5.85104">
        <ele>1179.29032</ele>
        <time>2026-08-29T08:54:09.000Z</time>
      </trkpt>
      <trkpt lat="45.04539" lon="5.85106">
        <ele>1179.435764</ele>
        <time>2026-08-29T08:54:10.000Z</time>
      </trkpt>
      <trkpt lat="45.04541" lon="5.85109">
        <ele>1179.598749</ele>
        <time>2026-08-29T08:54:11.000Z</time>
      </trkpt>
      <trkpt lat="45.04543" lon="5.85111">
        <ele>1179.753929</ele>
        <time>2026-08-29T08:54:12.000Z</time>
      </trkpt>
      <trkpt lat="45.04544" lon="5.85114">
        <ele>1179.914381</ele>
        <time>2026-08-29T08:54:13.000Z</time>
      </trkpt>
      <trkpt lat="45.04546" lon="5.85116">
        <ele>1180.068083</ele>
        <time>2026-08-29T08:54:14.000Z</time>
      </trkpt>
      <trkpt lat="45.04548" lon="5.85118">
        <ele>1180.229663</ele>
        <time>2026-08-29T08:54:15.000Z</time>
      </trkpt>
      <trkpt lat="45.04549" lon="5.85121">
        <ele>1180.390574</ele>
        <time>2026-08-29T08:54:16.000Z</time>
      </trkpt>
      <trkpt lat="45.04551" lon="5.85124">
        <ele>1180.551273</ele>
        <time>2026-08-29T08:54:17.000Z</time>
      </trkpt>
      <trkpt lat="45.04552" lon="5.85127">
        <ele>1180.711048</ele>
        <time>2026-08-29T08:54:18.000Z</time>
      </trkpt>
      <trkpt lat="45.04553" lon="5.8513">
        <ele>1180.879623</ele>
        <time>2026-08-29T08:54:19.000Z</time>
      </trkpt>
      <trkpt lat="45.04555" lon="5.85133">
        <ele>1181.03806</ele>
        <time>2026-08-29T08:54:20.000Z</time>
      </trkpt>
      <trkpt lat="45.04557" lon="5.85135">
        <ele>1181.196498</ele>
        <time>2026-08-29T08:54:21.000Z</time>
      </trkpt>
      <trkpt lat="45.04558" lon="5.85138">
        <ele>1181.350524</ele>
        <time>2026-08-29T08:54:22.000Z</time>
      </trkpt>
      <trkpt lat="45.0456" lon="5.8514">
        <ele>1181.520031</ele>
        <time>2026-08-29T08:54:23.000Z</time>
      </trkpt>
      <trkpt lat="45.04562" lon="5.85143">
        <ele>1181.689538</ele>
        <time>2026-08-29T08:54:24.000Z</time>
      </trkpt>
      <trkpt lat="45.04563" lon="5.85146">
        <ele>1181.849918</ele>
        <time>2026-08-29T08:54:25.000Z</time>
      </trkpt>
      <trkpt lat="45.04565" lon="5.85148">
        <ele>1182.012903</ele>
        <time>2026-08-29T08:54:26.000Z</time>
      </trkpt>
      <trkpt lat="45.04567" lon="5.85151">
        <ele>1182.176606</ele>
        <time>2026-08-29T08:54:27.000Z</time>
      </trkpt>
      <trkpt lat="45.04569" lon="5.85153">
        <ele>1182.351046</ele>
        <time>2026-08-29T08:54:28.000Z</time>
      </trkpt>
      <trkpt lat="45.04571" lon="5.85156">
        <ele>1182.531364</ele>
        <time>2026-08-29T08:54:29.000Z</time>
      </trkpt>
      <trkpt lat="45.04574" lon="5.85158">
        <ele>1182.72261</ele>
        <time>2026-08-29T08:54:30.000Z</time>
      </trkpt>
      <trkpt lat="45.04577" lon="5.8516">
        <ele>1182.911718</ele>
        <time>2026-08-29T08:54:31.000Z</time>
      </trkpt>
      <trkpt lat="45.04579" lon="5.85162">
        <ele>1183.067516</ele>
        <time>2026-08-29T08:54:32.000Z</time>
      </trkpt>
      <trkpt lat="45.0458" lon="5.85164">
        <ele>1183.226165</ele>
        <time>2026-08-29T08:54:33.000Z</time>
      </trkpt>
      <trkpt lat="45.04582" lon="5.85166">
        <ele>1183.380191</ele>
        <time>2026-08-29T08:54:34.000Z</time>
      </trkpt>
      <trkpt lat="45.04583" lon="5.8517">
        <ele>1183.533153</ele>
        <time>2026-08-29T08:54:35.000Z</time>
      </trkpt>
      <trkpt lat="45.04581" lon="5.85174">
        <ele>1183.7463</ele>
        <time>2026-08-29T08:54:36.000Z</time>
      </trkpt>
      <trkpt lat="45.04578" lon="5.85175">
        <ele>1183.945049</ele>
        <time>2026-08-29T08:54:37.000Z</time>
      </trkpt>
      <trkpt lat="45.04576" lon="5.85174">
        <ele>1184.114246</ele>
        <time>2026-08-29T08:54:38.000Z</time>
      </trkpt>
      <trkpt lat="45.04574" lon="5.85172">
        <ele>1184.28769</ele>
        <time>2026-08-29T08:54:39.000Z</time>
      </trkpt>
      <trkpt lat="45.04571" lon="5.85169">
        <ele>1184.465245</ele>
        <time>2026-08-29T08:54:40.000Z</time>
      </trkpt>
      <trkpt lat="45.04569" lon="5.85167">
        <ele>1184.634041</ele>
        <time>2026-08-29T08:54:41.000Z</time>
      </trkpt>
      <trkpt lat="45.04566" lon="5.85164">
        <ele>1184.809403</ele>
        <time>2026-08-29T08:54:42.000Z</time>
      </trkpt>
      <trkpt lat="45.04565" lon="5.8516">
        <ele>1184.975643</ele>
        <time>2026-08-29T08:54:43.000Z</time>
      </trkpt>
      <trkpt lat="45.04563" lon="5.85157">
        <ele>1185.139432</ele>
        <time>2026-08-29T08:54:44.000Z</time>
      </trkpt>
      <trkpt lat="45.04561" lon="5.85154">
        <ele>1185.29834</ele>
        <time>2026-08-29T08:54:45.000Z</time>
      </trkpt>
      <trkpt lat="45.04559" lon="5.85151">
        <ele>1185.461588</ele>
        <time>2026-08-29T08:54:46.000Z</time>
      </trkpt>
      <trkpt lat="45.04557" lon="5.85148">
        <ele>1185.611981</ele>
        <time>2026-08-29T08:54:47.000Z</time>
      </trkpt>
      <trkpt lat="45.04556" lon="5.85145">
        <ele>1185.771772</ele>
        <time>2026-08-29T08:54:48.000Z</time>
      </trkpt>
      <trkpt lat="45.04554" lon="5.85142">
        <ele>1185.935019</ele>
        <time>2026-08-29T08:54:49.000Z</time>
      </trkpt>
      <trkpt lat="45.04552" lon="5.85138">
        <ele>1186.108031</ele>
        <time>2026-08-29T08:54:50.000Z</time>
      </trkpt>
      <trkpt lat="45.0455" lon="5.85135">
        <ele>1186.295898</ele>
        <time>2026-08-29T08:54:51.000Z</time>
      </trkpt>
      <trkpt lat="45.04547" lon="5.85132">
        <ele>1186.493172</ele>
        <time>2026-08-29T08:54:52.000Z</time>
      </trkpt>
      <trkpt lat="45.04544" lon="5.85128">
        <ele>1186.693134</ele>
        <time>2026-08-29T08:54:53.000Z</time>
      </trkpt>
      <trkpt lat="45.04541" lon="5.85125">
        <ele>1186.905335</ele>
        <time>2026-08-29T08:54:54.000Z</time>
      </trkpt>
      <trkpt lat="45.04539" lon="5.85122">
        <ele>1187.083535</ele>
        <time>2026-08-29T08:54:55.000Z</time>
      </trkpt>
      <trkpt lat="45.04537" lon="5.85119">
        <ele>1187.26441</ele>
        <time>2026-08-29T08:54:56.000Z</time>
      </trkpt>
      <trkpt lat="45.04534" lon="5.85116">
        <ele>1187.447001</ele>
        <time>2026-08-29T08:54:57.000Z</time>
      </trkpt>
      <trkpt lat="45.04531" lon="5.85113">
        <ele>1187.643082</ele>
        <time>2026-08-29T08:54:58.000Z</time>
      </trkpt>
      <trkpt lat="45.04529" lon="5.85111">
        <ele>1187.832159</ele>
        <time>2026-08-29T08:54:59.000Z</time>
      </trkpt>
      <trkpt lat="45.04526" lon="5.85107">
        <ele>1188.014344</ele>
        <time>2026-08-29T08:55:00.000Z</time>
      </trkpt>
      <trkpt lat="45.04524" lon="5.85104">
        <ele>1188.201313</ele>
        <time>2026-08-29T08:55:01.000Z</time>
      </trkpt>
      <trkpt lat="45.04522" lon="5.85101">
        <ele>1188.383498</ele>
        <time>2026-08-29T08:55:02.000Z</time>
      </trkpt>
      <trkpt lat="45.04519" lon="5.85098">
        <ele>1188.568048</ele>
        <time>2026-08-29T08:55:03.000Z</time>
      </trkpt>
      <trkpt lat="45.04517" lon="5.85095">
        <ele>1188.75064</ele>
        <time>2026-08-29T08:55:04.000Z</time>
      </trkpt>
      <trkpt lat="45.04514" lon="5.85092">
        <ele>1188.940131</ele>
        <time>2026-08-29T08:55:05.000Z</time>
      </trkpt>
      <trkpt lat="45.04512" lon="5.85089">
        <ele>1189.11996</ele>
        <time>2026-08-29T08:55:06.000Z</time>
      </trkpt>
      <trkpt lat="45.04509" lon="5.85087">
        <ele>1189.309129</ele>
        <time>2026-08-29T08:55:07.000Z</time>
      </trkpt>
      <trkpt lat="45.04506" lon="5.85084">
        <ele>1189.50784</ele>
        <time>2026-08-29T08:55:08.000Z</time>
      </trkpt>
      <trkpt lat="45.04503" lon="5.85082">
        <ele>1189.685397</ele>
        <time>2026-08-29T08:55:09.000Z</time>
      </trkpt>
      <trkpt lat="45.04501" lon="5.85079">
        <ele>1189.85831</ele>
        <time>2026-08-29T08:55:10.000Z</time>
      </trkpt>
      <trkpt lat="45.04498" lon="5.85076">
        <ele>1190.027106</ele>
        <time>2026-08-29T08:55:11.000Z</time>
      </trkpt>
      <trkpt lat="45.04496" lon="5.85074">
        <ele>1190.170192</ele>
        <time>2026-08-29T08:55:12.000Z</time>
      </trkpt>
      <trkpt lat="45.04494" lon="5.85072">
        <ele>1190.317778</ele>
        <time>2026-08-29T08:55:13.000Z</time>
      </trkpt>
      <trkpt lat="45.04492" lon="5.8507">
        <ele>1190.479996</ele>
        <time>2026-08-29T08:55:14.000Z</time>
      </trkpt>
      <trkpt lat="45.04489" lon="5.85068">
        <ele>1190.651111</ele>
        <time>2026-08-29T08:55:15.000Z</time>
      </trkpt>
      <trkpt lat="45.04487" lon="5.85065">
        <ele>1190.828667</ele>
        <time>2026-08-29T08:55:16.000Z</time>
      </trkpt>
      <trkpt lat="45.04484" lon="5.85063">
        <ele>1191.015414</ele>
        <time>2026-08-29T08:55:17.000Z</time>
      </trkpt>
      <trkpt lat="45.04482" lon="5.8506">
        <ele>1191.183745</ele>
        <time>2026-08-29T08:55:18.000Z</time>
      </trkpt>
      <trkpt lat="45.04479" lon="5.85057">
        <ele>1191.363833</ele>
        <time>2026-08-29T08:55:19.000Z</time>
      </trkpt>
      <trkpt lat="45.04477" lon="5.85055">
        <ele>1191.53263</ele>
        <time>2026-08-29T08:55:20.000Z</time>
      </trkpt>
      <trkpt lat="45.04474" lon="5.85052">
        <ele>1191.703272</ele>
        <time>2026-08-29T08:55:21.000Z</time>
      </trkpt>
      <trkpt lat="45.04472" lon="5.85049">
        <ele>1191.870402</ele>
        <time>2026-08-29T08:55:22.000Z</time>
      </trkpt>
      <trkpt lat="45.04469" lon="5.85047">
        <ele>1192.048414</ele>
        <time>2026-08-29T08:55:23.000Z</time>
      </trkpt>
      <trkpt lat="45.04467" lon="5.85045">
        <ele>1192.218744</ele>
        <time>2026-08-29T08:55:24.000Z</time>
      </trkpt>
      <trkpt lat="45.04464" lon="5.85043">
        <ele>1192.382963</ele>
        <time>2026-08-29T08:55:25.000Z</time>
      </trkpt>
      <trkpt lat="45.04462" lon="5.8504">
        <ele>1192.561222</ele>
        <time>2026-08-29T08:55:26.000Z</time>
      </trkpt>
      <trkpt lat="45.0446" lon="5.85038">
        <ele>1192.716231</ele>
        <time>2026-08-29T08:55:27.000Z</time>
      </trkpt>
      <trkpt lat="45.04457" lon="5.85035">
        <ele>1192.885029</ele>
        <time>2026-08-29T08:55:28.000Z</time>
      </trkpt>
      <trkpt lat="45.04455" lon="5.85033">
        <ele>1193.034925</ele>
        <time>2026-08-29T08:55:29.000Z</time>
      </trkpt>
      <trkpt lat="45.04453" lon="5.85031">
        <ele>1193.173594</ele>
        <time>2026-08-29T08:55:30.000Z</time>
      </trkpt>
      <trkpt lat="45.04451" lon="5.85028">
        <ele>1193.342027</ele>
        <time>2026-08-29T08:55:31.000Z</time>
      </trkpt>
      <trkpt lat="45.04448" lon="5.85026">
        <ele>1193.501415</ele>
        <time>2026-08-29T08:55:32.000Z</time>
      </trkpt>
      <trkpt lat="45.04446" lon="5.85025">
        <ele>1193.64496</ele>
        <time>2026-08-29T08:55:33.000Z</time>
      </trkpt>
      <trkpt lat="45.04444" lon="5.85023">
        <ele>1193.786388</ele>
        <time>2026-08-29T08:55:34.000Z</time>
      </trkpt>
      <trkpt lat="45.04442" lon="5.85021">
        <ele>1193.927181</ele>
        <time>2026-08-29T08:55:35.000Z</time>
      </trkpt>
      <trkpt lat="45.0444" lon="5.8502">
        <ele>1194.060364</ele>
        <time>2026-08-29T08:55:36.000Z</time>
      </trkpt>
      <trkpt lat="45.04437" lon="5.85018">
        <ele>1194.203345</ele>
        <time>2026-08-29T08:55:37.000Z</time>
      </trkpt>
      <trkpt lat="45.04435" lon="5.85016">
        <ele>1194.346431</ele>
        <time>2026-08-29T08:55:38.000Z</time>
      </trkpt>
      <trkpt lat="45.04434" lon="5.85014">
        <ele>1194.509977</ele>
        <time>2026-08-29T08:55:39.000Z</time>
      </trkpt>
      <trkpt lat="45.04432" lon="5.85012">
        <ele>1194.72083</ele>
        <time>2026-08-29T08:55:40.000Z</time>
      </trkpt>
      <trkpt lat="45.0443" lon="5.8501">
        <ele>1194.921341</ele>
        <time>2026-08-29T08:55:41.000Z</time>
      </trkpt>
      <trkpt lat="45.04427" lon="5.85007">
        <ele>1195.162611</ele>
        <time>2026-08-29T08:55:42.000Z</time>
      </trkpt>
      <trkpt lat="45.04425" lon="5.85005">
        <ele>1195.39045</ele>
        <time>2026-08-29T08:55:43.000Z</time>
      </trkpt>
      <trkpt lat="45.04422" lon="5.85003">
        <ele>1195.641451</ele>
        <time>2026-08-29T08:55:44.000Z</time>
      </trkpt>
      <trkpt lat="45.0442" lon="5.85001">
        <ele>1195.86929</ele>
        <time>2026-08-29T08:55:45.000Z</time>
      </trkpt>
      <trkpt lat="45.04417" lon="5.84999">
        <ele>1196.107313</ele>
        <time>2026-08-29T08:55:46.000Z</time>
      </trkpt>
      <trkpt lat="45.04415" lon="5.84997">
        <ele>1196.314787</ele>
        <time>2026-08-29T08:55:47.000Z</time>
      </trkpt>
      <trkpt lat="45.04414" lon="5.84995">
        <ele>1196.506537</ele>
        <time>2026-08-29T08:55:48.000Z</time>
      </trkpt>
      <trkpt lat="45.04411" lon="5.84993">
        <ele>1196.727428</ele>
        <time>2026-08-29T08:55:49.000Z</time>
      </trkpt>
      <trkpt lat="45.04409" lon="5.84991">
        <ele>1196.958508</ele>
        <time>2026-08-29T08:55:50.000Z</time>
      </trkpt>
      <trkpt lat="45.04407" lon="5.8499">
        <ele>1197.1606</ele>
        <time>2026-08-29T08:55:51.000Z</time>
      </trkpt>
      <trkpt lat="45.04405" lon="5.84988">
        <ele>1197.3713</ele>
        <time>2026-08-29T08:55:52.000Z</time>
      </trkpt>
      <trkpt lat="45.04402" lon="5.84985">
        <ele>1197.606178</ele>
        <time>2026-08-29T08:55:53.000Z</time>
      </trkpt>
      <trkpt lat="45.04401" lon="5.84983">
        <ele>1197.80025</ele>
        <time>2026-08-29T08:55:54.000Z</time>
      </trkpt>
      <trkpt lat="45.04399" lon="5.84981">
        <ele>1197.974388</ele>
        <time>2026-08-29T08:55:55.000Z</time>
      </trkpt>
      <trkpt lat="45.04397" lon="5.84979">
        <ele>1198.185242</ele>
        <time>2026-08-29T08:55:56.000Z</time>
      </trkpt>
      <trkpt lat="45.04395" lon="5.84977">
        <ele>1198.389609</ele>
        <time>2026-08-29T08:55:57.000Z</time>
      </trkpt>
      <trkpt lat="45.04394" lon="5.84974">
        <ele>1198.582511</ele>
        <time>2026-08-29T08:55:58.000Z</time>
      </trkpt>
      <trkpt lat="45.04392" lon="5.84972">
        <ele>1198.808567</ele>
        <time>2026-08-29T08:55:59.000Z</time>
      </trkpt>
      <trkpt lat="45.0439" lon="5.84969">
        <ele>1199.008444</ele>
        <time>2026-08-29T08:56:00.000Z</time>
      </trkpt>
      <trkpt lat="45.04388" lon="5.84967">
        <ele>1199.21031</ele>
        <time>2026-08-29T08:56:01.000Z</time>
      </trkpt>
      <trkpt lat="45.04386" lon="5.84965">
        <ele>1199.397229</ele>
        <time>2026-08-29T08:56:02.000Z</time>
      </trkpt>
      <trkpt lat="45.04384" lon="5.84963">
        <ele>1199.59143</ele>
        <time>2026-08-29T08:56:03.000Z</time>
      </trkpt>
      <trkpt lat="45.04383" lon="5.84962">
        <ele>1199.781752</ele>
        <time>2026-08-29T08:56:04.000Z</time>
      </trkpt>
      <trkpt lat="45.04381" lon="5.8496">
        <ele>1199.962066</ele>
        <time>2026-08-29T08:56:05.000Z</time>
      </trkpt>
      <trkpt lat="45.04379" lon="5.84958">
        <ele>1200.145529</ele>
        <time>2026-08-29T08:56:06.000Z</time>
      </trkpt>
      <trkpt lat="45.04377" lon="5.84956">
        <ele>1200.346912</ele>
        <time>2026-08-29T08:56:07.000Z</time>
      </trkpt>
      <trkpt lat="45.04375" lon="5.84954">
        <ele>1200.554209</ele>
        <time>2026-08-29T08:56:08.000Z</time>
      </trkpt>
      <trkpt lat="45.04373" lon="5.84952">
        <ele>1200.758057</ele>
        <time>2026-08-29T08:56:09.000Z</time>
      </trkpt>
      <trkpt lat="45.04371" lon="5.8495">
        <ele>1200.935753</ele>
        <time>2026-08-29T08:56:10.000Z</time>
      </trkpt>
      <trkpt lat="45.04369" lon="5.84949">
        <ele>1201.111425</ele>
        <time>2026-08-29T08:56:11.000Z</time>
      </trkpt>
      <trkpt lat="45.04368" lon="5.84947">
        <ele>1201.275128</ele>
        <time>2026-08-29T08:56:12.000Z</time>
      </trkpt>
      <trkpt lat="45.04366" lon="5.84946">
        <ele>1201.443345</ele>
        <time>2026-08-29T08:56:13.000Z</time>
      </trkpt>
      <trkpt lat="45.04365" lon="5.84944">
        <ele>1201.596898</ele>
        <time>2026-08-29T08:56:14.000Z</time>
      </trkpt>
      <trkpt lat="45.04363" lon="5.84942">
        <ele>1201.759976</ele>
        <time>2026-08-29T08:56:15.000Z</time>
      </trkpt>
      <trkpt lat="45.04362" lon="5.84941">
        <ele>1201.919733</ele>
        <time>2026-08-29T08:56:16.000Z</time>
      </trkpt>
      <trkpt lat="45.0436" lon="5.8494">
        <ele>1202.062426</ele>
        <time>2026-08-29T08:56:17.000Z</time>
      </trkpt>
      <trkpt lat="45.04358" lon="5.84938">
        <ele>1202.223272</ele>
        <time>2026-08-29T08:56:18.000Z</time>
      </trkpt>
      <trkpt lat="45.04357" lon="5.84937">
        <ele>1202.386479</ele>
        <time>2026-08-29T08:56:19.000Z</time>
      </trkpt>
      <trkpt lat="45.04355" lon="5.84936">
        <ele>1202.550203</ele>
        <time>2026-08-29T08:56:20.000Z</time>
      </trkpt>
      <trkpt lat="45.04353" lon="5.84934">
        <ele>1202.703089</ele>
        <time>2026-08-29T08:56:21.000Z</time>
      </trkpt>
      <trkpt lat="45.04352" lon="5.84933">
        <ele>1202.852658</ele>
        <time>2026-08-29T08:56:22.000Z</time>
      </trkpt>
      <trkpt lat="45.0435" lon="5.84932">
        <ele>1203.015864</ele>
        <time>2026-08-29T08:56:23.000Z</time>
      </trkpt>
      <trkpt lat="45.04348" lon="5.84931">
        <ele>1203.190561</ele>
        <time>2026-08-29T08:56:24.000Z</time>
      </trkpt>
      <trkpt lat="45.04346" lon="5.8493">
        <ele>1203.371387</ele>
        <time>2026-08-29T08:56:25.000Z</time>
      </trkpt>
      <trkpt lat="45.04344" lon="5.84929">
        <ele>1203.532257</ele>
        <time>2026-08-29T08:56:26.000Z</time>
      </trkpt>
      <trkpt lat="45.04342" lon="5.84928">
        <ele>1203.697267</ele>
        <time>2026-08-29T08:56:27.000Z</time>
      </trkpt>
      <trkpt lat="45.0434" lon="5.84927">
        <ele>1203.871963</ele>
        <time>2026-08-29T08:56:28.000Z</time>
      </trkpt>
      <trkpt lat="45.04338" lon="5.84926">
        <ele>1204.042843</ele>
        <time>2026-08-29T08:56:29.000Z</time>
      </trkpt>
      <trkpt lat="45.04337" lon="5.84925">
        <ele>1204.216036</ele>
        <time>2026-08-29T08:56:30.000Z</time>
      </trkpt>
      <trkpt lat="45.04335" lon="5.84924">
        <ele>1204.379115</ele>
        <time>2026-08-29T08:56:31.000Z</time>
      </trkpt>
      <trkpt lat="45.04334" lon="5.84922">
        <ele>1204.533437</ele>
        <time>2026-08-29T08:56:32.000Z</time>
      </trkpt>
      <trkpt lat="45.04332" lon="5.8492">
        <ele>1204.701005</ele>
        <time>2026-08-29T08:56:33.000Z</time>
      </trkpt>
      <trkpt lat="45.04331" lon="5.84918">
        <ele>1204.882648</ele>
        <time>2026-08-29T08:56:34.000Z</time>
      </trkpt>
      <trkpt lat="45.04329" lon="5.84916">
        <ele>1205.038207</ele>
        <time>2026-08-29T08:56:35.000Z</time>
      </trkpt>
      <trkpt lat="45.04328" lon="5.84914">
        <ele>1205.195654</ele>
        <time>2026-08-29T08:56:36.000Z</time>
      </trkpt>
      <trkpt lat="45.04327" lon="5.84912">
        <ele>1205.363815</ele>
        <time>2026-08-29T08:56:37.000Z</time>
      </trkpt>
      <trkpt lat="45.04326" lon="5.84909">
        <ele>1205.528841</ele>
        <time>2026-08-29T08:56:38.000Z</time>
      </trkpt>
      <trkpt lat="45.04325" lon="5.84907">
        <ele>1205.687358</ele>
        <time>2026-08-29T08:56:39.000Z</time>
      </trkpt>
      <trkpt lat="45.04324" lon="5.84904">
        <ele>1205.855376</ele>
        <time>2026-08-29T08:56:40.000Z</time>
      </trkpt>
      <trkpt lat="45.04324" lon="5.84902">
        <ele>1206.006156</ele>
        <time>2026-08-29T08:56:41.000Z</time>
      </trkpt>
      <trkpt lat="45.04323" lon="5.84899">
        <ele>1206.158869</ele>
        <time>2026-08-29T08:56:42.000Z</time>
      </trkpt>
      <trkpt lat="45.04322" lon="5.84897">
        <ele>1206.308603</ele>
        <time>2026-08-29T08:56:43.000Z</time>
      </trkpt>
      <trkpt lat="45.04322" lon="5.84895">
        <ele>1206.461316</ele>
        <time>2026-08-29T08:56:44.000Z</time>
      </trkpt>
      <trkpt lat="45.04321" lon="5.84892">
        <ele>1206.619482</ele>
        <time>2026-08-29T08:56:45.000Z</time>
      </trkpt>
      <trkpt lat="45.0432" lon="5.8489">
        <ele>1206.754656</ele>
        <time>2026-08-29T08:56:46.000Z</time>
      </trkpt>
      <trkpt lat="45.04319" lon="5.84888">
        <ele>1206.905436</ele>
        <time>2026-08-29T08:56:47.000Z</time>
      </trkpt>
      <trkpt lat="45.04318" lon="5.84886">
        <ele>1207.054955</ele>
        <time>2026-08-29T08:56:48.000Z</time>
      </trkpt>
      <trkpt lat="45.04318" lon="5.84883">
        <ele>1207.213121</ele>
        <time>2026-08-29T08:56:49.000Z</time>
      </trkpt>
      <trkpt lat="45.04317" lon="5.84881">
        <ele>1207.382089</ele>
        <time>2026-08-29T08:56:50.000Z</time>
      </trkpt>
      <trkpt lat="45.04316" lon="5.84878">
        <ele>1207.540606</ele>
        <time>2026-08-29T08:56:51.000Z</time>
      </trkpt>
      <trkpt lat="45.04314" lon="5.84876">
        <ele>1207.712152</ele>
        <time>2026-08-29T08:56:52.000Z</time>
      </trkpt>
      <trkpt lat="45.04313" lon="5.84874">
        <ele>1207.866475</ele>
        <time>2026-08-29T08:56:53.000Z</time>
      </trkpt>
      <trkpt lat="45.04311" lon="5.84873">
        <ele>1208.020029</ele>
        <time>2026-08-29T08:56:54.000Z</time>
      </trkpt>
      <trkpt lat="45.0431" lon="5.84871">
        <ele>1208.196759</ele>
        <time>2026-08-29T08:56:55.000Z</time>
      </trkpt>
      <trkpt lat="45.04308" lon="5.84869">
        <ele>1208.377861</ele>
        <time>2026-08-29T08:56:56.000Z</time>
      </trkpt>
      <trkpt lat="45.04306" lon="5.84868">
        <ele>1208.547806</ele>
        <time>2026-08-29T08:56:57.000Z</time>
      </trkpt>
      <trkpt lat="45.04304" lon="5.84866">
        <ele>1208.716023</ele>
        <time>2026-08-29T08:56:58.000Z</time>
      </trkpt>
      <trkpt lat="45.04303" lon="5.84865">
        <ele>1208.882783</ele>
        <time>2026-08-29T08:56:59.000Z</time>
      </trkpt>
      <trkpt lat="45.04301" lon="5.84864">
        <ele>1209.058455</ele>
        <time>2026-08-29T08:57:00.000Z</time>
      </trkpt>
      <trkpt lat="45.04299" lon="5.84862">
        <ele>1209.231648</ele>
        <time>2026-08-29T08:57:01.000Z</time>
      </trkpt>
      <trkpt lat="45.04297" lon="5.84861">
        <ele>1209.374343</ele>
        <time>2026-08-29T08:57:02.000Z</time>
      </trkpt>
      <trkpt lat="45.04296" lon="5.8486">
        <ele>1209.509277</ele>
        <time>2026-08-29T08:57:03.000Z</time>
      </trkpt>
      <trkpt lat="45.04294" lon="5.84859">
        <ele>1209.636547</ele>
        <time>2026-08-29T08:57:04.000Z</time>
      </trkpt>
      <trkpt lat="45.04292" lon="5.84857">
        <ele>1209.798816</ele>
        <time>2026-08-29T08:57:05.000Z</time>
      </trkpt>
      <trkpt lat="45.0429" lon="5.84856">
        <ele>1209.942913</ele>
        <time>2026-08-29T08:57:06.000Z</time>
      </trkpt>
      <trkpt lat="45.04288" lon="5.84854">
        <ele>1210.078165</ele>
        <time>2026-08-29T08:57:07.000Z</time>
      </trkpt>
      <trkpt lat="45.04287" lon="5.84853">
        <ele>1210.197027</ele>
        <time>2026-08-29T08:57:08.000Z</time>
      </trkpt>
      <trkpt lat="45.04285" lon="5.84852">
        <ele>1210.325974</ele>
        <time>2026-08-29T08:57:09.000Z</time>
      </trkpt>
      <trkpt lat="45.04283" lon="5.84852">
        <ele>1210.45929</ele>
        <time>2026-08-29T08:57:10.000Z</time>
      </trkpt>
      <trkpt lat="45.04281" lon="5.84851">
        <ele>1210.604063</ele>
        <time>2026-08-29T08:57:11.000Z</time>
      </trkpt>
      <trkpt lat="45.0428" lon="5.8485">
        <ele>1210.74132</ele>
        <time>2026-08-29T08:57:12.000Z</time>
      </trkpt>
      <trkpt lat="45.04277" lon="5.84849">
        <ele>1210.895876</ele>
        <time>2026-08-29T08:57:13.000Z</time>
      </trkpt>
      <trkpt lat="45.04276" lon="5.84848">
        <ele>1211.014738</ele>
        <time>2026-08-29T08:57:14.000Z</time>
      </trkpt>
      <trkpt lat="45.04274" lon="5.84847">
        <ele>1211.151995</ele>
        <time>2026-08-29T08:57:15.000Z</time>
      </trkpt>
      <trkpt lat="45.04272" lon="5.84846">
        <ele>1211.277203</ele>
        <time>2026-08-29T08:57:16.000Z</time>
      </trkpt>
      <trkpt lat="45.04271" lon="5.84845">
        <ele>1211.406151</ele>
        <time>2026-08-29T08:57:17.000Z</time>
      </trkpt>
      <trkpt lat="45.04269" lon="5.84843">
        <ele>1211.547836</ele>
        <time>2026-08-29T08:57:18.000Z</time>
      </trkpt>
      <trkpt lat="45.04268" lon="5.84841">
        <ele>1211.683923</ele>
        <time>2026-08-29T08:57:19.000Z</time>
      </trkpt>
      <trkpt lat="45.04266" lon="5.84839">
        <ele>1211.834455</ele>
        <time>2026-08-29T08:57:20.000Z</time>
      </trkpt>
      <trkpt lat="45.04264" lon="5.84837">
        <ele>1211.995376</ele>
        <time>2026-08-29T08:57:21.000Z</time>
      </trkpt>
      <trkpt lat="45.04262" lon="5.84835">
        <ele>1212.150279</ele>
        <time>2026-08-29T08:57:22.000Z</time>
      </trkpt>
      <trkpt lat="45.0426" lon="5.84833">
        <ele>1212.318736</ele>
        <time>2026-08-29T08:57:23.000Z</time>
      </trkpt>
      <trkpt lat="45.04258" lon="5.84832">
        <ele>1212.489365</ele>
        <time>2026-08-29T08:57:24.000Z</time>
      </trkpt>
      <trkpt lat="45.04256" lon="5.8483">
        <ele>1212.655765</ele>
        <time>2026-08-29T08:57:25.000Z</time>
      </trkpt>
      <trkpt lat="45.04253" lon="5.84829">
        <ele>1212.834837</ele>
        <time>2026-08-29T08:57:26.000Z</time>
      </trkpt>
      <trkpt lat="45.04251" lon="5.84827">
        <ele>1212.999361</ele>
        <time>2026-08-29T08:57:27.000Z</time>
      </trkpt>
      <trkpt lat="45.04249" lon="5.84826">
        <ele>1213.160318</ele>
        <time>2026-08-29T08:57:28.000Z</time>
      </trkpt>
      <trkpt lat="45.04247" lon="5.84826">
        <ele>1213.321653</ele>
        <time>2026-08-29T08:57:29.000Z</time>
      </trkpt>
      <trkpt lat="45.04245" lon="5.84825">
        <ele>1213.474119</ele>
        <time>2026-08-29T08:57:30.000Z</time>
      </trkpt>
      <trkpt lat="45.04242" lon="5.84825">
        <ele>1213.619721</ele>
        <time>2026-08-29T08:57:31.000Z</time>
      </trkpt>
      <trkpt lat="45.0424" lon="5.84825">
        <ele>1213.765892</ele>
        <time>2026-08-29T08:57:32.000Z</time>
      </trkpt>
      <trkpt lat="45.04238" lon="5.84824">
        <ele>1213.904632</ele>
        <time>2026-08-29T08:57:33.000Z</time>
      </trkpt>
      <trkpt lat="45.04236" lon="5.84824">
        <ele>1214.069247</ele>
        <time>2026-08-29T08:57:34.000Z</time>
      </trkpt>
      <trkpt lat="45.04234" lon="5.84823">
        <ele>1214.21402</ele>
        <time>2026-08-29T08:57:35.000Z</time>
      </trkpt>
      <trkpt lat="45.04232" lon="5.84822">
        <ele>1214.354123</ele>
        <time>2026-08-29T08:57:36.000Z</time>
      </trkpt>
      <trkpt lat="45.0423" lon="5.84822">
        <ele>1214.499725</ele>
        <time>2026-08-29T08:57:37.000Z</time>
      </trkpt>
      <trkpt lat="45.04228" lon="5.84821">
        <ele>1214.639063</ele>
        <time>2026-08-29T08:57:38.000Z</time>
      </trkpt>
      <trkpt lat="45.04226" lon="5.84822">
        <ele>1214.771573</ele>
        <time>2026-08-29T08:57:39.000Z</time>
      </trkpt>
      <trkpt lat="45.04224" lon="5.84822">
        <ele>1214.917175</ele>
        <time>2026-08-29T08:57:40.000Z</time>
      </trkpt>
      <trkpt lat="45.04222" lon="5.84822">
        <ele>1215.048606</ele>
        <time>2026-08-29T08:57:41.000Z</time>
      </trkpt>
      <trkpt lat="45.0422" lon="5.84822">
        <ele>1215.194777</ele>
        <time>2026-08-29T08:57:42.000Z</time>
      </trkpt>
      <trkpt lat="45.04218" lon="5.84822">
        <ele>1215.340949</ele>
        <time>2026-08-29T08:57:43.000Z</time>
      </trkpt>
      <trkpt lat="45.04216" lon="5.84821">
        <ele>1215.493415</ele>
        <time>2026-08-29T08:57:44.000Z</time>
      </trkpt>
      <trkpt lat="45.04214" lon="5.84822">
        <ele>1215.619107</ele>
        <time>2026-08-29T08:57:45.000Z</time>
      </trkpt>
      <trkpt lat="45.04212" lon="5.84822">
        <ele>1215.757418</ele>
        <time>2026-08-29T08:57:46.000Z</time>
      </trkpt>
      <trkpt lat="45.0421" lon="5.84822">
        <ele>1215.902283</ele>
        <time>2026-08-29T08:57:47.000Z</time>
      </trkpt>
      <trkpt lat="45.04208" lon="5.84822">
        <ele>1216.047149</ele>
        <time>2026-08-29T08:57:48.000Z</time>
      </trkpt>
      <trkpt lat="45.04205" lon="5.84821">
        <ele>1216.201705</ele>
        <time>2026-08-29T08:57:49.000Z</time>
      </trkpt>
      <trkpt lat="45.04203" lon="5.84821">
        <ele>1216.350534</ele>
        <time>2026-08-29T08:57:50.000Z</time>
      </trkpt>
      <trkpt lat="45.04201" lon="5.8482">
        <ele>1216.501896</ele>
        <time>2026-08-29T08:57:51.000Z</time>
      </trkpt>
      <trkpt lat="45.042" lon="5.84818">
        <ele>1216.637577</ele>
        <time>2026-08-29T08:57:52.000Z</time>
      </trkpt>
      <trkpt lat="45.04198" lon="5.84816">
        <ele>1216.787008</ele>
        <time>2026-08-29T08:57:53.000Z</time>
      </trkpt>
      <trkpt lat="45.04196" lon="5.84814">
        <ele>1216.947842</ele>
        <time>2026-08-29T08:57:54.000Z</time>
      </trkpt>
      <trkpt lat="45.04195" lon="5.84811">
        <ele>1217.107097</ele>
        <time>2026-08-29T08:57:55.000Z</time>
      </trkpt>
      <trkpt lat="45.04194" lon="5.84808">
        <ele>1217.280554</ele>
        <time>2026-08-29T08:57:56.000Z</time>
      </trkpt>
      <trkpt lat="45.04193" lon="5.84805">
        <ele>1217.429143</ele>
        <time>2026-08-29T08:57:57.000Z</time>
      </trkpt>
      <trkpt lat="45.04192" lon="5.84803">
        <ele>1217.570266</ele>
        <time>2026-08-29T08:57:58.000Z</time>
      </trkpt>
      <trkpt lat="45.04191" lon="5.848">
        <ele>1217.7383</ele>
        <time>2026-08-29T08:57:59.000Z</time>
      </trkpt>
      <trkpt lat="45.0419" lon="5.84797">
        <ele>1217.90618</ele>
        <time>2026-08-29T08:58:00.000Z</time>
      </trkpt>
      <trkpt lat="45.04188" lon="5.84794">
        <ele>1218.077376</ele>
        <time>2026-08-29T08:58:01.000Z</time>
      </trkpt>
      <trkpt lat="45.04187" lon="5.84791">
        <ele>1218.217405</ele>
        <time>2026-08-29T08:58:02.000Z</time>
      </trkpt>
      <trkpt lat="45.04186" lon="5.84789">
        <ele>1218.365376</ele>
        <time>2026-08-29T08:58:03.000Z</time>
      </trkpt>
      <trkpt lat="45.04185" lon="5.84786">
        <ele>1218.524999</ele>
        <time>2026-08-29T08:58:04.000Z</time>
      </trkpt>
      <trkpt lat="45.04184" lon="5.84783">
        <ele>1218.676371</ele>
        <time>2026-08-29T08:58:05.000Z</time>
      </trkpt>
      <trkpt lat="45.04182" lon="5.84781">
        <ele>1218.839981</ele>
        <time>2026-08-29T08:58:06.000Z</time>
      </trkpt>
      <trkpt lat="45.0418" lon="5.84778">
        <ele>1219.018946</ele>
        <time>2026-08-29T08:58:07.000Z</time>
      </trkpt>
      <trkpt lat="45.04178" lon="5.84776">
        <ele>1219.199883</ele>
        <time>2026-08-29T08:58:08.000Z</time>
      </trkpt>
      <trkpt lat="45.04177" lon="5.84773">
        <ele>1219.392653</ele>
        <time>2026-08-29T08:58:09.000Z</time>
      </trkpt>
      <trkpt lat="45.04174" lon="5.8477">
        <ele>1219.581956</ele>
        <time>2026-08-29T08:58:10.000Z</time>
      </trkpt>
      <trkpt lat="45.04172" lon="5.84768">
        <ele>1219.787527</ele>
        <time>2026-08-29T08:58:11.000Z</time>
      </trkpt>
      <trkpt lat="45.0417" lon="5.84766">
        <ele>1219.984782</ele>
        <time>2026-08-29T08:58:12.000Z</time>
      </trkpt>
      <trkpt lat="45.04167" lon="5.84764">
        <ele>1220.157497</ele>
        <time>2026-08-29T08:58:13.000Z</time>
      </trkpt>
      <trkpt lat="45.04165" lon="5.84763">
        <ele>1220.351184</ele>
        <time>2026-08-29T08:58:14.000Z</time>
      </trkpt>
      <trkpt lat="45.04162" lon="5.84761">
        <ele>1220.542517</ele>
        <time>2026-08-29T08:58:15.000Z</time>
      </trkpt>
      <trkpt lat="45.0416" lon="5.84759">
        <ele>1220.73827</ele>
        <time>2026-08-29T08:58:16.000Z</time>
      </trkpt>
      <trkpt lat="45.04157" lon="5.84757">
        <ele>1220.92128</ele>
        <time>2026-08-29T08:58:17.000Z</time>
      </trkpt>
      <trkpt lat="45.04155" lon="5.84756">
        <ele>1221.126134</ele>
        <time>2026-08-29T08:58:18.000Z</time>
      </trkpt>
      <trkpt lat="45.04152" lon="5.84755">
        <ele>1221.337505</ele>
        <time>2026-08-29T08:58:19.000Z</time>
      </trkpt>
      <trkpt lat="45.04149" lon="5.84753">
        <ele>1221.539321</ele>
        <time>2026-08-29T08:58:20.000Z</time>
      </trkpt>
      <trkpt lat="45.04147" lon="5.84752">
        <ele>1221.712036</ele>
        <time>2026-08-29T08:58:21.000Z</time>
      </trkpt>
      <trkpt lat="45.04144" lon="5.84751">
        <ele>1221.917653</ele>
        <time>2026-08-29T08:58:22.000Z</time>
      </trkpt>
      <trkpt lat="45.04141" lon="5.8475">
        <ele>1222.110981</ele>
        <time>2026-08-29T08:58:23.000Z</time>
      </trkpt>
      <trkpt lat="45.04138" lon="5.84749">
        <ele>1222.306629</ele>
        <time>2026-08-29T08:58:24.000Z</time>
      </trkpt>
      <trkpt lat="45.04135" lon="5.84748">
        <ele>1222.505333</ele>
        <time>2026-08-29T08:58:25.000Z</time>
      </trkpt>
      <trkpt lat="45.04133" lon="5.84747">
        <ele>1222.685476</ele>
        <time>2026-08-29T08:58:26.000Z</time>
      </trkpt>
      <trkpt lat="45.04129" lon="5.84747">
        <ele>1222.919426</ele>
        <time>2026-08-29T08:58:27.000Z</time>
      </trkpt>
      <trkpt lat="45.04127" lon="5.84746">
        <ele>1223.11813</ele>
        <time>2026-08-29T08:58:28.000Z</time>
      </trkpt>
      <trkpt lat="45.04124" lon="5.84745">
        <ele>1223.335489</ele>
        <time>2026-08-29T08:58:29.000Z</time>
      </trkpt>
      <trkpt lat="45.04121" lon="5.84744">
        <ele>1223.524364</ele>
        <time>2026-08-29T08:58:30.000Z</time>
      </trkpt>
      <trkpt lat="45.04118" lon="5.84743">
        <ele>1223.719224</ele>
        <time>2026-08-29T08:58:31.000Z</time>
      </trkpt>
      <trkpt lat="45.04115" lon="5.84742">
        <ele>1223.923559</ele>
        <time>2026-08-29T08:58:32.000Z</time>
      </trkpt>
      <trkpt lat="45.04113" lon="5.84741">
        <ele>1224.113298</ele>
        <time>2026-08-29T08:58:33.000Z</time>
      </trkpt>
      <trkpt lat="45.0411" lon="5.84739">
        <ele>1224.317633</ele>
        <time>2026-08-29T08:58:34.000Z</time>
      </trkpt>
      <trkpt lat="45.04107" lon="5.84738">
        <ele>1224.523016</ele>
        <time>2026-08-29T08:58:35.000Z</time>
      </trkpt>
      <trkpt lat="45.04104" lon="5.84737">
        <ele>1224.717745</ele>
        <time>2026-08-29T08:58:36.000Z</time>
      </trkpt>
      <trkpt lat="45.04101" lon="5.84736">
        <ele>1224.920172</ele>
        <time>2026-08-29T08:58:37.000Z</time>
      </trkpt>
      <trkpt lat="45.04099" lon="5.84735">
        <ele>1225.126177</ele>
        <time>2026-08-29T08:58:38.000Z</time>
      </trkpt>
      <trkpt lat="45.04096" lon="5.84734">
        <ele>1225.311176</ele>
        <time>2026-08-29T08:58:39.000Z</time>
      </trkpt>
      <trkpt lat="45.04094" lon="5.84732">
        <ele>1225.492823</ele>
        <time>2026-08-29T08:58:40.000Z</time>
      </trkpt>
      <trkpt lat="45.04091" lon="5.84731">
        <ele>1225.686151</ele>
        <time>2026-08-29T08:58:41.000Z</time>
      </trkpt>
      <trkpt lat="45.04088" lon="5.8473">
        <ele>1225.872877</ele>
        <time>2026-08-29T08:58:42.000Z</time>
      </trkpt>
      <trkpt lat="45.04085" lon="5.84729">
        <ele>1226.075303</ele>
        <time>2026-08-29T08:58:43.000Z</time>
      </trkpt>
      <trkpt lat="45.04082" lon="5.84728">
        <ele>1226.301893</ele>
        <time>2026-08-29T08:58:44.000Z</time>
      </trkpt>
      <trkpt lat="45.04079" lon="5.84728">
        <ele>1226.502913</ele>
        <time>2026-08-29T08:58:45.000Z</time>
      </trkpt>
      <trkpt lat="45.04077" lon="5.84727">
        <ele>1226.672573</ele>
        <time>2026-08-29T08:58:46.000Z</time>
      </trkpt>
      <trkpt lat="45.04075" lon="5.84726">
        <ele>1226.841245</ele>
        <time>2026-08-29T08:58:47.000Z</time>
      </trkpt>
      <trkpt lat="45.04072" lon="5.84724">
        <ele>1227.032659</ele>
        <time>2026-08-29T08:58:48.000Z</time>
      </trkpt>
      <trkpt lat="45.0407" lon="5.84722">
        <ele>1227.215253</ele>
        <time>2026-08-29T08:58:49.000Z</time>
      </trkpt>
      <trkpt lat="45.04068" lon="5.84721">
        <ele>1227.39011</ele>
        <time>2026-08-29T08:58:50.000Z</time>
      </trkpt>
      <trkpt lat="45.04065" lon="5.84719">
        <ele>1227.589271</ele>
        <time>2026-08-29T08:58:51.000Z</time>
      </trkpt>
      <trkpt lat="45.04063" lon="5.84718">
        <ele>1227.754831</ele>
        <time>2026-08-29T08:58:52.000Z</time>
      </trkpt>
      <trkpt lat="45.0406" lon="5.84716">
        <ele>1227.935678</ele>
        <time>2026-08-29T08:58:53.000Z</time>
      </trkpt>
      <trkpt lat="45.04058" lon="5.84714">
        <ele>1228.116206</ele>
        <time>2026-08-29T08:58:54.000Z</time>
      </trkpt>
      <trkpt lat="45.04055" lon="5.84712">
        <ele>1228.35691</ele>
        <time>2026-08-29T08:58:55.000Z</time>
      </trkpt>
      <trkpt lat="45.04052" lon="5.84711">
        <ele>1228.553983</ele>
        <time>2026-08-29T08:58:56.000Z</time>
      </trkpt>
      <trkpt lat="45.0405" lon="5.84709">
        <ele>1228.719962</ele>
        <time>2026-08-29T08:58:57.000Z</time>
      </trkpt>
      <trkpt lat="45.04048" lon="5.84708">
        <ele>1228.880511</ele>
        <time>2026-08-29T08:58:58.000Z</time>
      </trkpt>
      <trkpt lat="45.04045" lon="5.84707">
        <ele>1229.05913</ele>
        <time>2026-08-29T08:58:59.000Z</time>
      </trkpt>
      <trkpt lat="45.04043" lon="5.84705">
        <ele>1229.227161</ele>
        <time>2026-08-29T08:59:00.000Z</time>
      </trkpt>
      <trkpt lat="45.04041" lon="5.84704">
        <ele>1229.412161</ele>
        <time>2026-08-29T08:59:01.000Z</time>
      </trkpt>
      <trkpt lat="45.04038" lon="5.84702">
        <ele>1229.588507</ele>
        <time>2026-08-29T08:59:02.000Z</time>
      </trkpt>
      <trkpt lat="45.04036" lon="5.84701">
        <ele>1229.755559</ele>
        <time>2026-08-29T08:59:03.000Z</time>
      </trkpt>
      <trkpt lat="45.04034" lon="5.847">
        <ele>1229.945299</ele>
        <time>2026-08-29T08:59:04.000Z</time>
      </trkpt>
      <trkpt lat="45.04031" lon="5.84699">
        <ele>1230.117577</ele>
        <time>2026-08-29T08:59:05.000Z</time>
      </trkpt>
      <trkpt lat="45.04029" lon="5.84697">
        <ele>1230.307317</ele>
        <time>2026-08-29T08:59:06.000Z</time>
      </trkpt>
      <trkpt lat="45.04026" lon="5.84696">
        <ele>1230.479594</ele>
        <time>2026-08-29T08:59:07.000Z</time>
      </trkpt>
      <trkpt lat="45.04024" lon="5.84695">
        <ele>1230.661241</ele>
        <time>2026-08-29T08:59:08.000Z</time>
      </trkpt>
      <trkpt lat="45.04021" lon="5.84694">
        <ele>1230.854569</ele>
        <time>2026-08-29T08:59:09.000Z</time>
      </trkpt>
      <trkpt lat="45.04019" lon="5.84693">
        <ele>1231.038746</ele>
        <time>2026-08-29T08:59:10.000Z</time>
      </trkpt>
      <trkpt lat="45.04016" lon="5.84692">
        <ele>1231.221828</ele>
        <time>2026-08-29T08:59:11.000Z</time>
      </trkpt>
      <trkpt lat="45.04013" lon="5.84691">
        <ele>1231.403093</ele>
        <time>2026-08-29T08:59:12.000Z</time>
      </trkpt>
      <trkpt lat="45.04011" lon="5.8469">
        <ele>1231.587269</ele>
        <time>2026-08-29T08:59:13.000Z</time>
      </trkpt>
      <trkpt lat="45.04009" lon="5.84689">
        <ele>1231.749503</ele>
        <time>2026-08-29T08:59:14.000Z</time>
      </trkpt>
      <trkpt lat="45.04006" lon="5.84688">
        <ele>1231.926327</ele>
        <time>2026-08-29T08:59:15.000Z</time>
      </trkpt>
      <trkpt lat="45.04004" lon="5.84687">
        <ele>1232.084044</ele>
        <time>2026-08-29T08:59:16.000Z</time>
      </trkpt>
      <trkpt lat="45.04002" lon="5.84686">
        <ele>1232.215403</ele>
        <time>2026-08-29T08:59:17.000Z</time>
      </trkpt>
      <trkpt lat="45.04" lon="5.84685">
        <ele>1232.341621</ele>
        <time>2026-08-29T08:59:18.000Z</time>
      </trkpt>
      <trkpt lat="45.03998" lon="5.84685">
        <ele>1232.500552</ele>
        <time>2026-08-29T08:59:19.000Z</time>
      </trkpt>
      <trkpt lat="45.03996" lon="5.84684">
        <ele>1232.660668</ele>
        <time>2026-08-29T08:59:20.000Z</time>
      </trkpt>
      <trkpt lat="45.03993" lon="5.84684">
        <ele>1232.82695</ele>
        <time>2026-08-29T08:59:21.000Z</time>
      </trkpt>
      <trkpt lat="45.03991" lon="5.84683">
        <ele>1232.975402</ele>
        <time>2026-08-29T08:59:22.000Z</time>
      </trkpt>
      <trkpt lat="45.03989" lon="5.84683">
        <ele>1233.147424</ele>
        <time>2026-08-29T08:59:23.000Z</time>
      </trkpt>
      <trkpt lat="45.03987" lon="5.84684">
        <ele>1233.278971</ele>
        <time>2026-08-29T08:59:24.000Z</time>
      </trkpt>
      <trkpt lat="45.03983" lon="5.84684">
        <ele>1233.535229</ele>
        <time>2026-08-29T08:59:25.000Z</time>
      </trkpt>
      <trkpt lat="45.0398" lon="5.84685">
        <ele>1233.743706</ele>
        <time>2026-08-29T08:59:26.000Z</time>
      </trkpt>
      <trkpt lat="45.03977" lon="5.84685">
        <ele>1233.992607</ele>
        <time>2026-08-29T08:59:27.000Z</time>
      </trkpt>
      <trkpt lat="45.03974" lon="5.84685">
        <ele>1234.171774</ele>
        <time>2026-08-29T08:59:28.000Z</time>
      </trkpt>
      <trkpt lat="45.03972" lon="5.84685">
        <ele>1234.345483</ele>
        <time>2026-08-29T08:59:29.000Z</time>
      </trkpt>
      <trkpt lat="45.0397" lon="5.84685">
        <ele>1234.505324</ele>
        <time>2026-08-29T08:59:30.000Z</time>
      </trkpt>
      <trkpt lat="45.03968" lon="5.84684">
        <ele>1234.682669</ele>
        <time>2026-08-29T08:59:31.000Z</time>
      </trkpt>
      <trkpt lat="45.03966" lon="5.84683">
        <ele>1234.863049</ele>
        <time>2026-08-29T08:59:32.000Z</time>
      </trkpt>
      <trkpt lat="45.03964" lon="5.84682">
        <ele>1235.059743</ele>
        <time>2026-08-29T08:59:33.000Z</time>
      </trkpt>
      <trkpt lat="45.03962" lon="5.84681">
        <ele>1235.243753</ele>
        <time>2026-08-29T08:59:34.000Z</time>
      </trkpt>
      <trkpt lat="45.0396" lon="5.8468">
        <ele>1235.407679</ele>
        <time>2026-08-29T08:59:35.000Z</time>
      </trkpt>
      <trkpt lat="45.03958" lon="5.84679">
        <ele>1235.607006</ele>
        <time>2026-08-29T08:59:36.000Z</time>
      </trkpt>
      <trkpt lat="45.03956" lon="5.84677">
        <ele>1235.793559</ele>
        <time>2026-08-29T08:59:37.000Z</time>
      </trkpt>
      <trkpt lat="45.03954" lon="5.84676">
        <ele>1235.974488</ele>
        <time>2026-08-29T08:59:38.000Z</time>
      </trkpt>
      <trkpt lat="45.03952" lon="5.84674">
        <ele>1236.169528</ele>
        <time>2026-08-29T08:59:39.000Z</time>
      </trkpt>
      <trkpt lat="45.03951" lon="5.84671">
        <ele>1236.353389</ele>
        <time>2026-08-29T08:59:40.000Z</time>
      </trkpt>
      <trkpt lat="45.0395" lon="5.84668">
        <ele>1236.533485</ele>
        <time>2026-08-29T08:59:41.000Z</time>
      </trkpt>
      <trkpt lat="45.03948" lon="5.84666">
        <ele>1236.726605</ele>
        <time>2026-08-29T08:59:42.000Z</time>
      </trkpt>
      <trkpt lat="45.03947" lon="5.84663">
        <ele>1236.922572</ele>
        <time>2026-08-29T08:59:43.000Z</time>
      </trkpt>
      <trkpt lat="45.03946" lon="5.8466">
        <ele>1237.120572</ele>
        <time>2026-08-29T08:59:44.000Z</time>
      </trkpt>
      <trkpt lat="45.03945" lon="5.84657">
        <ele>1237.290291</ele>
        <time>2026-08-29T08:59:45.000Z</time>
      </trkpt>
      <trkpt lat="45.03944" lon="5.84655">
        <ele>1237.464295</ele>
        <time>2026-08-29T08:59:46.000Z</time>
      </trkpt>
      <trkpt lat="45.03943" lon="5.84652">
        <ele>1237.640665</ele>
        <time>2026-08-29T08:59:47.000Z</time>
      </trkpt>
      <trkpt lat="45.03942" lon="5.84649">
        <ele>1237.822396</ele>
        <time>2026-08-29T08:59:48.000Z</time>
      </trkpt>
      <trkpt lat="45.03941" lon="5.84647">
        <ele>1238.016849</ele>
        <time>2026-08-29T08:59:49.000Z</time>
      </trkpt>
      <trkpt lat="45.0394" lon="5.84644">
        <ele>1238.196945</ele>
        <time>2026-08-29T08:59:50.000Z</time>
      </trkpt>
      <trkpt lat="45.03939" lon="5.84642">
        <ele>1238.381855</ele>
        <time>2026-08-29T08:59:51.000Z</time>
      </trkpt>
      <trkpt lat="45.03937" lon="5.84639">
        <ele>1238.546797</ele>
        <time>2026-08-29T08:59:52.000Z</time>
      </trkpt>
      <trkpt lat="45.03936" lon="5.84637">
        <ele>1238.696405</ele>
        <time>2026-08-29T08:59:53.000Z</time>
      </trkpt>
      <trkpt lat="45.03936" lon="5.84635">
        <ele>1238.849798</ele>
        <time>2026-08-29T08:59:54.000Z</time>
      </trkpt>
      <trkpt lat="45.03935" lon="5.84633">
        <ele>1238.999982</ele>
        <time>2026-08-29T08:59:55.000Z</time>
      </trkpt>
      <trkpt lat="45.03934" lon="5.8463">
        <ele>1239.160501</ele>
        <time>2026-08-29T08:59:56.000Z</time>
      </trkpt>
      <trkpt lat="45.03933" lon="5.84628">
        <ele>1239.325443</ele>
        <time>2026-08-29T08:59:57.000Z</time>
      </trkpt>
      <trkpt lat="45.03931" lon="5.84626">
        <ele>1239.485988</ele>
        <time>2026-08-29T08:59:58.000Z</time>
      </trkpt>
      <trkpt lat="45.03929" lon="5.84624">
        <ele>1239.670263</ele>
        <time>2026-08-29T08:59:59.000Z</time>
      </trkpt>
      <trkpt lat="45.03928" lon="5.84622">
        <ele>1239.848746</ele>
        <time>2026-08-29T09:00:00.000Z</time>
      </trkpt>
      <trkpt lat="45.03926" lon="5.84621">
        <ele>1240.023375</ele>
        <time>2026-08-29T09:00:01.000Z</time>
      </trkpt>
      <trkpt lat="45.03925" lon="5.84619">
        <ele>1240.194266</ele>
        <time>2026-08-29T09:00:02.000Z</time>
      </trkpt>
      <trkpt lat="45.03923" lon="5.84617">
        <ele>1240.354936</ele>
        <time>2026-08-29T09:00:03.000Z</time>
      </trkpt>
      <trkpt lat="45.03921" lon="5.84615">
        <ele>1240.539769</ele>
        <time>2026-08-29T09:00:04.000Z</time>
      </trkpt>
      <trkpt lat="45.0392" lon="5.84613">
        <ele>1240.729064</ele>
        <time>2026-08-29T09:00:05.000Z</time>
      </trkpt>
      <trkpt lat="45.03919" lon="5.8461">
        <ele>1240.917519</ele>
        <time>2026-08-29T09:00:06.000Z</time>
      </trkpt>
      <trkpt lat="45.03917" lon="5.84608">
        <ele>1241.096003</ele>
        <time>2026-08-29T09:00:07.000Z</time>
      </trkpt>
      <trkpt lat="45.03915" lon="5.84606">
        <ele>1241.273515</ele>
        <time>2026-08-29T09:00:08.000Z</time>
      </trkpt>
      <trkpt lat="45.03914" lon="5.84605">
        <ele>1241.427748</ele>
        <time>2026-08-29T09:00:09.000Z</time>
      </trkpt>
      <trkpt lat="45.03912" lon="5.84603">
        <ele>1241.594068</ele>
        <time>2026-08-29T09:00:10.000Z</time>
      </trkpt>
      <trkpt lat="45.03911" lon="5.84601">
        <ele>1241.74763</ele>
        <time>2026-08-29T09:00:11.000Z</time>
      </trkpt>
      <trkpt lat="45.03909" lon="5.846">
        <ele>1241.926728</ele>
        <time>2026-08-29T09:00:12.000Z</time>
      </trkpt>
      <trkpt lat="45.03907" lon="5.84599">
        <ele>1242.094245</ele>
        <time>2026-08-29T09:00:13.000Z</time>
      </trkpt>
      <trkpt lat="45.03905" lon="5.84597">
        <ele>1242.264941</ele>
        <time>2026-08-29T09:00:14.000Z</time>
      </trkpt>
      <trkpt lat="45.03904" lon="5.84596">
        <ele>1242.429388</ele>
        <time>2026-08-29T09:00:15.000Z</time>
      </trkpt>
      <trkpt lat="45.03902" lon="5.84595">
        <ele>1242.595744</ele>
        <time>2026-08-29T09:00:16.000Z</time>
      </trkpt>
      <trkpt lat="45.039" lon="5.84594">
        <ele>1242.77121</ele>
        <time>2026-08-29T09:00:17.000Z</time>
      </trkpt>
      <trkpt lat="45.03898" lon="5.84593">
        <ele>1242.953036</ele>
        <time>2026-08-29T09:00:18.000Z</time>
      </trkpt>
      <trkpt lat="45.03896" lon="5.84592">
        <ele>1243.134863</ele>
        <time>2026-08-29T09:00:19.000Z</time>
      </trkpt>
      <trkpt lat="45.03894" lon="5.84592">
        <ele>1243.312022</ele>
        <time>2026-08-29T09:00:20.000Z</time>
      </trkpt>
      <trkpt lat="45.03892" lon="5.84592">
        <ele>1243.462516</ele>
        <time>2026-08-29T09:00:21.000Z</time>
      </trkpt>
      <trkpt lat="45.0389" lon="5.84591">
        <ele>1243.639675</ele>
        <time>2026-08-29T09:00:22.000Z</time>
      </trkpt>
      <trkpt lat="45.03888" lon="5.84591">
        <ele>1243.801253</ele>
        <time>2026-08-29T09:00:23.000Z</time>
      </trkpt>
      <trkpt lat="45.03886" lon="5.84591">
        <ele>1243.943509</ele>
        <time>2026-08-29T09:00:24.000Z</time>
      </trkpt>
      <trkpt lat="45.03884" lon="5.84591">
        <ele>1244.12754</ele>
        <time>2026-08-29T09:00:25.000Z</time>
      </trkpt>
      <trkpt lat="45.03882" lon="5.84591">
        <ele>1244.314862</ele>
        <time>2026-08-29T09:00:26.000Z</time>
      </trkpt>
      <trkpt lat="45.0388" lon="5.84592">
        <ele>1244.473826</ele>
        <time>2026-08-29T09:00:27.000Z</time>
      </trkpt>
      <trkpt lat="45.03878" lon="5.84592">
        <ele>1244.66757</ele>
        <time>2026-08-29T09:00:28.000Z</time>
      </trkpt>
      <trkpt lat="45.03875" lon="5.84592">
        <ele>1244.86901</ele>
        <time>2026-08-29T09:00:29.000Z</time>
      </trkpt>
      <trkpt lat="45.03873" lon="5.84592">
        <ele>1245.06167</ele>
        <time>2026-08-29T09:00:30.000Z</time>
      </trkpt>
      <trkpt lat="45.03871" lon="5.84592">
        <ele>1245.22899</ele>
        <time>2026-08-29T09:00:31.000Z</time>
      </trkpt>
      <trkpt lat="45.03869" lon="5.84592">
        <ele>1245.413022</ele>
        <time>2026-08-29T09:00:32.000Z</time>
      </trkpt>
      <trkpt lat="45.03866" lon="5.84592">
        <ele>1245.622125</ele>
        <time>2026-08-29T09:00:33.000Z</time>
      </trkpt>
      <trkpt lat="45.03864" lon="5.84591">
        <ele>1245.818819</ele>
        <time>2026-08-29T09:00:34.000Z</time>
      </trkpt>
      <trkpt lat="45.03861" lon="5.84591">
        <ele>1246.028172</ele>
        <time>2026-08-29T09:00:35.000Z</time>
      </trkpt>
      <trkpt lat="45.03859" lon="5.84591">
        <ele>1246.237941</ele>
        <time>2026-08-29T09:00:36.000Z</time>
      </trkpt>
      <trkpt lat="45.03857" lon="5.8459">
        <ele>1246.408872</ele>
        <time>2026-08-29T09:00:37.000Z</time>
      </trkpt>
      <trkpt lat="45.03855" lon="5.8459">
        <ele>1246.596194</ele>
        <time>2026-08-29T09:00:38.000Z</time>
      </trkpt>
      <trkpt lat="45.03853" lon="5.84589">
        <ele>1246.772662</ele>
        <time>2026-08-29T09:00:39.000Z</time>
      </trkpt>
      <trkpt lat="45.0385" lon="5.84589">
        <ele>1246.957451</ele>
        <time>2026-08-29T09:00:40.000Z</time>
      </trkpt>
      <trkpt lat="45.03848" lon="5.84589">
        <ele>1247.150564</ele>
        <time>2026-08-29T09:00:41.000Z</time>
      </trkpt>
      <trkpt lat="45.03846" lon="5.84587">
        <ele>1247.373247</ele>
        <time>2026-08-29T09:00:42.000Z</time>
      </trkpt>
      <trkpt lat="45.03843" lon="5.84586">
        <ele>1247.612708</ele>
        <time>2026-08-29T09:00:43.000Z</time>
      </trkpt>
      <trkpt lat="45.03841" lon="5.84584">
        <ele>1247.835371</ele>
        <time>2026-08-29T09:00:44.000Z</time>
      </trkpt>
      <trkpt lat="45.03839" lon="5.84581">
        <ele>1248.044414</ele>
        <time>2026-08-29T09:00:45.000Z</time>
      </trkpt>
      <trkpt lat="45.03837" lon="5.84579">
        <ele>1248.2731</ele>
        <time>2026-08-29T09:00:46.000Z</time>
      </trkpt>
      <trkpt lat="45.03834" lon="5.84577">
        <ele>1248.516168</ele>
        <time>2026-08-29T09:00:47.000Z</time>
      </trkpt>
      <trkpt lat="45.03832" lon="5.84575">
        <ele>1248.730443</ele>
        <time>2026-08-29T09:00:48.000Z</time>
      </trkpt>
      <trkpt lat="45.0383" lon="5.84574">
        <ele>1248.92757</ele>
        <time>2026-08-29T09:00:49.000Z</time>
      </trkpt>
      <trkpt lat="45.03827" lon="5.84573">
        <ele>1249.173949</ele>
        <time>2026-08-29T09:00:50.000Z</time>
      </trkpt>
      <trkpt lat="45.03825" lon="5.84571">
        <ele>1249.364262</ele>
        <time>2026-08-29T09:00:51.000Z</time>
      </trkpt>
      <trkpt lat="45.03823" lon="5.84571">
        <ele>1249.552306</ele>
        <time>2026-08-29T09:00:52.000Z</time>
      </trkpt>
      <trkpt lat="45.0382" lon="5.84571">
        <ele>1249.756515</ele>
        <time>2026-08-29T09:00:53.000Z</time>
      </trkpt>
      <trkpt lat="45.03819" lon="5.8457">
        <ele>1249.930751</ele>
        <time>2026-08-29T09:00:54.000Z</time>
      </trkpt>
      <trkpt lat="45.03816" lon="5.8457">
        <ele>1250.130863</ele>
        <time>2026-08-29T09:00:55.000Z</time>
      </trkpt>
      <trkpt lat="45.03815" lon="5.84569">
        <ele>1250.296526</ele>
        <time>2026-08-29T09:00:56.000Z</time>
      </trkpt>
      <trkpt lat="45.03812" lon="5.84568">
        <ele>1250.48665</ele>
        <time>2026-08-29T09:00:57.000Z</time>
      </trkpt>
      <trkpt lat="45.0381" lon="5.84568">
        <ele>1250.665903</ele>
        <time>2026-08-29T09:00:58.000Z</time>
      </trkpt>
      <trkpt lat="45.03809" lon="5.84568">
        <ele>1250.826135</ele>
        <time>2026-08-29T09:00:59.000Z</time>
      </trkpt>
      <trkpt lat="45.03807" lon="5.84569">
        <ele>1251.005388</ele>
        <time>2026-08-29T09:01:00.000Z</time>
      </trkpt>
      <trkpt lat="45.03804" lon="5.84569">
        <ele>1251.209886</ele>
        <time>2026-08-29T09:01:01.000Z</time>
      </trkpt>
      <trkpt lat="45.03803" lon="5.84569">
        <ele>1251.371584</ele>
        <time>2026-08-29T09:01:02.000Z</time>
      </trkpt>
      <trkpt lat="45.03801" lon="5.8457">
        <ele>1251.557831</ele>
        <time>2026-08-29T09:01:03.000Z</time>
      </trkpt>
      <trkpt lat="45.03799" lon="5.84571">
        <ele>1251.744078</ele>
        <time>2026-08-29T09:01:04.000Z</time>
      </trkpt>
      <trkpt lat="45.03797" lon="5.84572">
        <ele>1251.923977</ele>
        <time>2026-08-29T09:01:05.000Z</time>
      </trkpt>
      <trkpt lat="45.03795" lon="5.84573">
        <ele>1252.118699</ele>
        <time>2026-08-29T09:01:06.000Z</time>
      </trkpt>
      <trkpt lat="45.03792" lon="5.84574">
        <ele>1252.315331</ele>
        <time>2026-08-29T09:01:07.000Z</time>
      </trkpt>
      <trkpt lat="45.0379" lon="5.84575">
        <ele>1252.503573</ele>
        <time>2026-08-29T09:01:08.000Z</time>
      </trkpt>
      <trkpt lat="45.03788" lon="5.84576">
        <ele>1252.704557</ele>
        <time>2026-08-29T09:01:09.000Z</time>
      </trkpt>
      <trkpt lat="45.03786" lon="5.84577">
        <ele>1252.903278</ele>
        <time>2026-08-29T09:01:10.000Z</time>
      </trkpt>
      <trkpt lat="45.03784" lon="5.84578">
        <ele>1253.087721</ele>
        <time>2026-08-29T09:01:11.000Z</time>
      </trkpt>
      <trkpt lat="45.03783" lon="5.8458">
        <ele>1253.25072</ele>
        <time>2026-08-29T09:01:12.000Z</time>
      </trkpt>
      <trkpt lat="45.03781" lon="5.84581">
        <ele>1253.436099</ele>
        <time>2026-08-29T09:01:13.000Z</time>
      </trkpt>
      <trkpt lat="45.03779" lon="5.84583">
        <ele>1253.636974</ele>
        <time>2026-08-29T09:01:14.000Z</time>
      </trkpt>
      <trkpt lat="45.03777" lon="5.84584">
        <ele>1253.84855</ele>
        <time>2026-08-29T09:01:15.000Z</time>
      </trkpt>
      <trkpt lat="45.03775" lon="5.84586">
        <ele>1254.055595</ele>
        <time>2026-08-29T09:01:16.000Z</time>
      </trkpt>
      <trkpt lat="45.03773" lon="5.84587">
        <ele>1254.265938</ele>
        <time>2026-08-29T09:01:17.000Z</time>
      </trkpt>
      <trkpt lat="45.03771" lon="5.84589">
        <ele>1254.48064</ele>
        <time>2026-08-29T09:01:18.000Z</time>
      </trkpt>
      <trkpt lat="45.03768" lon="5.84591">
        <ele>1254.72169</ele>
        <time>2026-08-29T09:01:19.000Z</time>
      </trkpt>
      <trkpt lat="45.03766" lon="5.84592">
        <ele>1254.917901</ele>
        <time>2026-08-29T09:01:20.000Z</time>
      </trkpt>
      <trkpt lat="45.03764" lon="5.84594">
        <ele>1255.134618</ele>
        <time>2026-08-29T09:01:21.000Z</time>
      </trkpt>
      <trkpt lat="45.03762" lon="5.84595">
        <ele>1255.332635</ele>
        <time>2026-08-29T09:01:22.000Z</time>
      </trkpt>
      <trkpt lat="45.0376" lon="5.84597">
        <ele>1255.525418</ele>
        <time>2026-08-29T09:01:23.000Z</time>
      </trkpt>
      <trkpt lat="45.03758" lon="5.84598">
        <ele>1255.720735</ele>
        <time>2026-08-29T09:01:24.000Z</time>
      </trkpt>
      <trkpt lat="45.03756" lon="5.84599">
        <ele>1255.895288</ele>
        <time>2026-08-29T09:01:25.000Z</time>
      </trkpt>
      <trkpt lat="45.03755" lon="5.84601">
        <ele>1256.080667</ele>
        <time>2026-08-29T09:01:26.000Z</time>
      </trkpt>
      <trkpt lat="45.03753" lon="5.84602">
        <ele>1256.278683</ele>
        <time>2026-08-29T09:01:27.000Z</time>
      </trkpt>
      <trkpt lat="45.03751" lon="5.84604">
        <ele>1256.471762</ele>
        <time>2026-08-29T09:01:28.000Z</time>
      </trkpt>
      <trkpt lat="45.03749" lon="5.84605">
        <ele>1256.661865</ele>
        <time>2026-08-29T09:01:29.000Z</time>
      </trkpt>
      <trkpt lat="45.03747" lon="5.84607">
        <ele>1256.850286</ele>
        <time>2026-08-29T09:01:30.000Z</time>
      </trkpt>
      <trkpt lat="45.03746" lon="5.84608">
        <ele>1257.024151</ele>
        <time>2026-08-29T09:01:31.000Z</time>
      </trkpt>
      <trkpt lat="45.03744" lon="5.8461">
        <ele>1257.223642</ele>
        <time>2026-08-29T09:01:32.000Z</time>
      </trkpt>
      <trkpt lat="45.03742" lon="5.84612">
        <ele>1257.41924</ele>
        <time>2026-08-29T09:01:33.000Z</time>
      </trkpt>
      <trkpt lat="45.0374" lon="5.84613">
        <ele>1257.620116</ele>
        <time>2026-08-29T09:01:34.000Z</time>
      </trkpt>
      <trkpt lat="45.03738" lon="5.84615">
        <ele>1257.829355</ele>
        <time>2026-08-29T09:01:35.000Z</time>
      </trkpt>
      <trkpt lat="45.03736" lon="5.84616">
        <ele>1258.028076</ele>
        <time>2026-08-29T09:01:36.000Z</time>
      </trkpt>
      <trkpt lat="45.03733" lon="5.84617">
        <ele>1258.242147</ele>
        <time>2026-08-29T09:01:37.000Z</time>
      </trkpt>
      <trkpt lat="45.03731" lon="5.84618">
        <ele>1258.433611</ele>
        <time>2026-08-29T09:01:38.000Z</time>
      </trkpt>
      <trkpt lat="45.03729" lon="5.84619">
        <ele>1258.616448</ele>
        <time>2026-08-29T09:01:39.000Z</time>
      </trkpt>
      <trkpt lat="45.03727" lon="5.84619">
        <ele>1258.78056</ele>
        <time>2026-08-29T09:01:40.000Z</time>
      </trkpt>
      <trkpt lat="45.03726" lon="5.8462">
        <ele>1258.951031</ele>
        <time>2026-08-29T09:01:41.000Z</time>
      </trkpt>
      <trkpt lat="45.03724" lon="5.8462">
        <ele>1259.128841</ele>
        <time>2026-08-29T09:01:42.000Z</time>
      </trkpt>
      <trkpt lat="45.03722" lon="5.84622">
        <ele>1259.324158</ele>
        <time>2026-08-29T09:01:43.000Z</time>
      </trkpt>
      <trkpt lat="45.0372" lon="5.84623">
        <ele>1259.535817</ele>
        <time>2026-08-29T09:01:44.000Z</time>
      </trkpt>
      <trkpt lat="45.03717" lon="5.84625">
        <ele>1259.763258</ele>
        <time>2026-08-29T09:01:45.000Z</time>
      </trkpt>
      <trkpt lat="45.03715" lon="5.84627">
        <ele>1260.023029</ele>
        <time>2026-08-29T09:01:46.000Z</time>
      </trkpt>
      <trkpt lat="45.03712" lon="5.84628">
        <ele>1260.239747</ele>
        <time>2026-08-29T09:01:47.000Z</time>
      </trkpt>
      <trkpt lat="45.0371" lon="5.8463">
        <ele>1260.457631</ele>
        <time>2026-08-29T09:01:48.000Z</time>
      </trkpt>
      <trkpt lat="45.03708" lon="5.84632">
        <ele>1260.664097</ele>
        <time>2026-08-29T09:01:49.000Z</time>
      </trkpt>
      <trkpt lat="45.03707" lon="5.84633">
        <ele>1260.811246</ele>
        <time>2026-08-29T09:01:50.000Z</time>
      </trkpt>
      <trkpt lat="45.03706" lon="5.84634">
        <ele>1260.964144</ele>
        <time>2026-08-29T09:01:51.000Z</time>
      </trkpt>
      <trkpt lat="45.03704" lon="5.84636">
        <ele>1261.145329</ele>
        <time>2026-08-29T09:01:52.000Z</time>
      </trkpt>
      <trkpt lat="45.03703" lon="5.84638">
        <ele>1261.291646</ele>
        <time>2026-08-29T09:01:53.000Z</time>
      </trkpt>
      <trkpt lat="45.03701" lon="5.84639">
        <ele>1261.469436</ele>
        <time>2026-08-29T09:01:54.000Z</time>
      </trkpt>
      <trkpt lat="45.037" lon="5.8464">
        <ele>1261.618038</ele>
        <time>2026-08-29T09:01:55.000Z</time>
      </trkpt>
      <trkpt lat="45.03698" lon="5.84642">
        <ele>1261.818914</ele>
        <time>2026-08-29T09:01:56.000Z</time>
      </trkpt>
      <trkpt lat="45.03696" lon="5.84643">
        <ele>1262.004294</ele>
        <time>2026-08-29T09:01:57.000Z</time>
      </trkpt>
      <trkpt lat="45.03694" lon="5.84645">
        <ele>1262.171236</ele>
        <time>2026-08-29T09:01:58.000Z</time>
      </trkpt>
      <trkpt lat="45.03692" lon="5.84646">
        <ele>1262.377245</ele>
        <time>2026-08-29T09:01:59.000Z</time>
      </trkpt>
      <trkpt lat="45.0369" lon="5.84648">
        <ele>1262.562625</ele>
        <time>2026-08-29T09:02:00.000Z</time>
      </trkpt>
      <trkpt lat="45.03688" lon="5.84649">
        <ele>1262.788516</ele>
        <time>2026-08-29T09:02:01.000Z</time>
      </trkpt>
      <trkpt lat="45.03685" lon="5.84651">
        <ele>1263.026695</ele>
        <time>2026-08-29T09:02:02.000Z</time>
      </trkpt>
      <trkpt lat="45.03684" lon="5.84652">
        <ele>1263.187396</ele>
        <time>2026-08-29T09:02:03.000Z</time>
      </trkpt>
      <trkpt lat="45.03682" lon="5.84654">
        <ele>1263.372757</ele>
        <time>2026-08-29T09:02:04.000Z</time>
      </trkpt>
      <trkpt lat="45.03681" lon="5.84656">
        <ele>1263.544901</ele>
        <time>2026-08-29T09:02:05.000Z</time>
      </trkpt>
      <trkpt lat="45.03679" lon="5.84657">
        <ele>1263.75843</ele>
        <time>2026-08-29T09:02:06.000Z</time>
      </trkpt>
      <trkpt lat="45.03677" lon="5.84658">
        <ele>1263.961342</ele>
        <time>2026-08-29T09:02:07.000Z</time>
      </trkpt>
      <trkpt lat="45.03675" lon="5.84659">
        <ele>1264.12242</ele>
        <time>2026-08-29T09:02:08.000Z</time>
      </trkpt>
      <trkpt lat="45.03673" lon="5.84661">
        <ele>1264.304698</ele>
        <time>2026-08-29T09:02:09.000Z</time>
      </trkpt>
      <trkpt lat="45.03672" lon="5.84662">
        <ele>1264.464161</ele>
        <time>2026-08-29T09:02:10.000Z</time>
      </trkpt>
      <trkpt lat="45.0367" lon="5.84664">
        <ele>1264.641951</ele>
        <time>2026-08-29T09:02:11.000Z</time>
      </trkpt>
      <trkpt lat="45.03668" lon="5.84664">
        <ele>1264.819761</ele>
        <time>2026-08-29T09:02:12.000Z</time>
      </trkpt>
      <trkpt lat="45.03666" lon="5.84665">
        <ele>1265.016393</ele>
        <time>2026-08-29T09:02:13.000Z</time>
      </trkpt>
      <trkpt lat="45.03664" lon="5.84666">
        <ele>1265.191172</ele>
        <time>2026-08-29T09:02:14.000Z</time>
      </trkpt>
      <trkpt lat="45.03663" lon="5.84667">
        <ele>1265.317247</ele>
        <time>2026-08-29T09:02:15.000Z</time>
      </trkpt>
      <trkpt lat="45.0366" lon="5.84668">
        <ele>1265.498559</ele>
        <time>2026-08-29T09:02:16.000Z</time>
      </trkpt>
      <trkpt lat="45.03658" lon="5.84669">
        <ele>1265.669835</ele>
        <time>2026-08-29T09:02:17.000Z</time>
      </trkpt>
      <trkpt lat="45.03657" lon="5.8467">
        <ele>1265.803513</ele>
        <time>2026-08-29T09:02:18.000Z</time>
      </trkpt>
      <trkpt lat="45.03655" lon="5.8467">
        <ele>1265.955897</ele>
        <time>2026-08-29T09:02:19.000Z</time>
      </trkpt>
      <trkpt lat="45.03653" lon="5.84672">
        <ele>1266.110138</ele>
        <time>2026-08-29T09:02:20.000Z</time>
      </trkpt>
      <trkpt lat="45.03652" lon="5.84673">
        <ele>1266.252127</ele>
        <time>2026-08-29T09:02:21.000Z</time>
      </trkpt>
      <trkpt lat="45.0365" lon="5.84675">
        <ele>1266.387662</ele>
        <time>2026-08-29T09:02:22.000Z</time>
      </trkpt>
      <trkpt lat="45.03649" lon="5.84676">
        <ele>1266.551524</ele>
        <time>2026-08-29T09:02:23.000Z</time>
      </trkpt>
      <trkpt lat="45.03646" lon="5.84677">
        <ele>1266.732299</ele>
        <time>2026-08-29T09:02:24.000Z</time>
      </trkpt>
      <trkpt lat="45.03645" lon="5.84679">
        <ele>1266.895454</ele>
        <time>2026-08-29T09:02:25.000Z</time>
      </trkpt>
      <trkpt lat="45.03643" lon="5.84681">
        <ele>1267.063879</ele>
        <time>2026-08-29T09:02:26.000Z</time>
      </trkpt>
      <trkpt lat="45.03642" lon="5.84683">
        <ele>1267.230874</ele>
        <time>2026-08-29T09:02:27.000Z</time>
      </trkpt>
      <trkpt lat="45.0364" lon="5.84685">
        <ele>1267.403788</ele>
        <time>2026-08-29T09:02:28.000Z</time>
      </trkpt>
      <trkpt lat="45.03639" lon="5.84687">
        <ele>1267.568294</ele>
        <time>2026-08-29T09:02:29.000Z</time>
      </trkpt>
      <trkpt lat="45.03637" lon="5.84688">
        <ele>1267.705818</ele>
        <time>2026-08-29T09:02:30.000Z</time>
      </trkpt>
      <trkpt lat="45.03636" lon="5.8469">
        <ele>1267.854995</ele>
        <time>2026-08-29T09:02:31.000Z</time>
      </trkpt>
      <trkpt lat="45.03635" lon="5.84692">
        <ele>1267.996284</ele>
        <time>2026-08-29T09:02:32.000Z</time>
      </trkpt>
      <trkpt lat="45.03633" lon="5.84694">
        <ele>1268.159252</ele>
        <time>2026-08-29T09:02:33.000Z</time>
      </trkpt>
      <trkpt lat="45.03631" lon="5.84695">
        <ele>1268.325411</ele>
        <time>2026-08-29T09:02:34.000Z</time>
      </trkpt>
      <trkpt lat="45.0363" lon="5.84697">
        <ele>1268.511622</ele>
        <time>2026-08-29T09:02:35.000Z</time>
      </trkpt>
      <trkpt lat="45.03628" lon="5.847">
        <ele>1268.677751</ele>
        <time>2026-08-29T09:02:36.000Z</time>
      </trkpt>
      <trkpt lat="45.03627" lon="5.84702">
        <ele>1268.862132</ele>
        <time>2026-08-29T09:02:37.000Z</time>
      </trkpt>
      <trkpt lat="45.03625" lon="5.84704">
        <ele>1269.026639</ele>
        <time>2026-08-29T09:02:38.000Z</time>
      </trkpt>
      <trkpt lat="45.03624" lon="5.84706">
        <ele>1269.186344</ele>
        <time>2026-08-29T09:02:39.000Z</time>
      </trkpt>
      <trkpt lat="45.03623" lon="5.84708">
        <ele>1269.348107</ele>
        <time>2026-08-29T09:02:40.000Z</time>
      </trkpt>
      <trkpt lat="45.03621" lon="5.8471">
        <ele>1269.488274</ele>
        <time>2026-08-29T09:02:41.000Z</time>
      </trkpt>
      <trkpt lat="45.03619" lon="5.84711">
        <ele>1269.652224</ele>
        <time>2026-08-29T09:02:42.000Z</time>
      </trkpt>
      <trkpt lat="45.03618" lon="5.84712">
        <ele>1269.801433</ele>
        <time>2026-08-29T09:02:43.000Z</time>
      </trkpt>
      <trkpt lat="45.03616" lon="5.84714">
        <ele>1269.938269</ele>
        <time>2026-08-29T09:02:44.000Z</time>
      </trkpt>
      <trkpt lat="45.03615" lon="5.84715">
        <ele>1270.089911</ele>
        <time>2026-08-29T09:02:45.000Z</time>
      </trkpt>
      <trkpt lat="45.03613" lon="5.84717">
        <ele>1270.240897</ele>
        <time>2026-08-29T09:02:46.000Z</time>
      </trkpt>
      <trkpt lat="45.03612" lon="5.84718">
        <ele>1270.397882</ele>
        <time>2026-08-29T09:02:47.000Z</time>
      </trkpt>
      <trkpt lat="45.0361" lon="5.8472">
        <ele>1270.567359</ele>
        <time>2026-08-29T09:02:48.000Z</time>
      </trkpt>
      <trkpt lat="45.03608" lon="5.84722">
        <ele>1270.747483</ele>
        <time>2026-08-29T09:02:49.000Z</time>
      </trkpt>
      <trkpt lat="45.03607" lon="5.84724">
        <ele>1270.910638</ele>
        <time>2026-08-29T09:02:50.000Z</time>
      </trkpt>
      <trkpt lat="45.03605" lon="5.84725">
        <ele>1271.044299</ele>
        <time>2026-08-29T09:02:51.000Z</time>
      </trkpt>
      <trkpt lat="45.03604" lon="5.84727">
        <ele>1271.187728</ele>
        <time>2026-08-29T09:02:52.000Z</time>
      </trkpt>
      <trkpt lat="45.03602" lon="5.84729">
        <ele>1271.338714</ele>
        <time>2026-08-29T09:02:53.000Z</time>
      </trkpt>
      <trkpt lat="45.03601" lon="5.8473">
        <ele>1271.493068</ele>
        <time>2026-08-29T09:02:54.000Z</time>
      </trkpt>
      <trkpt lat="45.03599" lon="5.84731">
        <ele>1271.640336</ele>
        <time>2026-08-29T09:02:55.000Z</time>
      </trkpt>
      <trkpt lat="45.03597" lon="5.84732">
        <ele>1271.794578</ele>
        <time>2026-08-29T09:02:56.000Z</time>
      </trkpt>
      <trkpt lat="45.03596" lon="5.84734">
        <ele>1271.950963</ele>
        <time>2026-08-29T09:02:57.000Z</time>
      </trkpt>
      <trkpt lat="45.03594" lon="5.84735">
        <ele>1272.127445</ele>
        <time>2026-08-29T09:02:58.000Z</time>
      </trkpt>
      <trkpt lat="45.03592" lon="5.84737">
        <ele>1272.319726</ele>
        <time>2026-08-29T09:02:59.000Z</time>
      </trkpt>
      <trkpt lat="45.0359" lon="5.84739">
        <ele>1272.488184</ele>
        <time>2026-08-29T09:03:00.000Z</time>
      </trkpt>
      <trkpt lat="45.03588" lon="5.8474">
        <ele>1272.6278</ele>
        <time>2026-08-29T09:03:01.000Z</time>
      </trkpt>
      <trkpt lat="45.03586" lon="5.84741">
        <ele>1272.799076</ele>
        <time>2026-08-29T09:03:02.000Z</time>
      </trkpt>
      <trkpt lat="45.03584" lon="5.84742">
        <ele>1272.965156</ele>
        <time>2026-08-29T09:03:03.000Z</time>
      </trkpt>
      <trkpt lat="45.03583" lon="5.84743">
        <ele>1273.123981</ele>
        <time>2026-08-29T09:03:04.000Z</time>
      </trkpt>
      <trkpt lat="45.03581" lon="5.84745">
        <ele>1273.287136</ele>
        <time>2026-08-29T09:03:05.000Z</time>
      </trkpt>
      <trkpt lat="45.03579" lon="5.84747">
        <ele>1273.456809</ele>
        <time>2026-08-29T09:03:06.000Z</time>
      </trkpt>
      <trkpt lat="45.03578" lon="5.84748">
        <ele>1273.604077</ele>
        <time>2026-08-29T09:03:07.000Z</time>
      </trkpt>
      <trkpt lat="45.03576" lon="5.84749">
        <ele>1273.782184</ele>
        <time>2026-08-29T09:03:08.000Z</time>
      </trkpt>
      <trkpt lat="45.03574" lon="5.84751">
        <ele>1273.925613</ele>
        <time>2026-08-29T09:03:09.000Z</time>
      </trkpt>
      <trkpt lat="45.03572" lon="5.84752">
        <ele>1274.079855</ele>
        <time>2026-08-29T09:03:10.000Z</time>
      </trkpt>
      <trkpt lat="45.03571" lon="5.84753">
        <ele>1274.241164</ele>
        <time>2026-08-29T09:03:11.000Z</time>
      </trkpt>
      <trkpt lat="45.03569" lon="5.84754">
        <ele>1274.371816</ele>
        <time>2026-08-29T09:03:12.000Z</time>
      </trkpt>
      <trkpt lat="45.03567" lon="5.84756">
        <ele>1274.528319</ele>
        <time>2026-08-29T09:03:13.000Z</time>
      </trkpt>
      <trkpt lat="45.03566" lon="5.84757">
        <ele>1274.684823</ele>
        <time>2026-08-29T09:03:14.000Z</time>
      </trkpt>
      <trkpt lat="45.03564" lon="5.84758">
        <ele>1274.822257</ele>
        <time>2026-08-29T09:03:15.000Z</time>
      </trkpt>
      <trkpt lat="45.03562" lon="5.84759">
        <ele>1274.995657</ele>
        <time>2026-08-29T09:03:16.000Z</time>
      </trkpt>
      <trkpt lat="45.0356" lon="5.8476">
        <ele>1275.162397</ele>
        <time>2026-08-29T09:03:17.000Z</time>
      </trkpt>
      <trkpt lat="45.03558" lon="5.84762">
        <ele>1275.326348</ele>
        <time>2026-08-29T09:03:18.000Z</time>
      </trkpt>
      <trkpt lat="45.03557" lon="5.84763">
        <ele>1275.470891</ele>
        <time>2026-08-29T09:03:19.000Z</time>
      </trkpt>
      <trkpt lat="45.03555" lon="5.84764">
        <ele>1275.627394</ele>
        <time>2026-08-29T09:03:20.000Z</time>
      </trkpt>
      <trkpt lat="45.03553" lon="5.84765">
        <ele>1275.764935</ele>
        <time>2026-08-29T09:03:21.000Z</time>
      </trkpt>
      <trkpt lat="45.03552" lon="5.84767">
        <ele>1275.928886</ele>
        <time>2026-08-29T09:03:22.000Z</time>
      </trkpt>
      <trkpt lat="45.0355" lon="5.84768">
        <ele>1276.097344</ele>
        <time>2026-08-29T09:03:23.000Z</time>
      </trkpt>
      <trkpt lat="45.03548" lon="5.8477">
        <ele>1276.297426</ele>
        <time>2026-08-29T09:03:24.000Z</time>
      </trkpt>
      <trkpt lat="45.03545" lon="5.84772">
        <ele>1276.543352</ele>
        <time>2026-08-29T09:03:25.000Z</time>
      </trkpt>
      <trkpt lat="45.03542" lon="5.84773">
        <ele>1276.754073</ele>
        <time>2026-08-29T09:03:26.000Z</time>
      </trkpt>
      <trkpt lat="45.0354" lon="5.84774">
        <ele>1276.975489</ele>
        <time>2026-08-29T09:03:27.000Z</time>
      </trkpt>
      <trkpt lat="45.03537" lon="5.84774">
        <ele>1277.21555</ele>
        <time>2026-08-29T09:03:28.000Z</time>
      </trkpt>
      <trkpt lat="45.03534" lon="5.84775">
        <ele>1277.424993</ele>
        <time>2026-08-29T09:03:29.000Z</time>
      </trkpt>
      <trkpt lat="45.03531" lon="5.84774">
        <ele>1277.632605</ele>
        <time>2026-08-29T09:03:30.000Z</time>
      </trkpt>
      <trkpt lat="45.0353" lon="5.84775">
        <ele>1277.785207</ele>
        <time>2026-08-29T09:03:31.000Z</time>
      </trkpt>
      <trkpt lat="45.03527" lon="5.84775">
        <ele>1277.960904</ele>
        <time>2026-08-29T09:03:32.000Z</time>
      </trkpt>
      <trkpt lat="45.03525" lon="5.84775">
        <ele>1278.136602</ele>
        <time>2026-08-29T09:03:33.000Z</time>
      </trkpt>
      <trkpt lat="45.03523" lon="5.84774">
        <ele>1278.320537</ele>
        <time>2026-08-29T09:03:34.000Z</time>
      </trkpt>
      <trkpt lat="45.0352" lon="5.84774">
        <ele>1278.528149</ele>
        <time>2026-08-29T09:03:35.000Z</time>
      </trkpt>
      <trkpt lat="45.03518" lon="5.84773">
        <ele>1278.695669</ele>
        <time>2026-08-29T09:03:36.000Z</time>
      </trkpt>
      <trkpt lat="45.03516" lon="5.84772">
        <ele>1278.919941</ele>
        <time>2026-08-29T09:03:37.000Z</time>
      </trkpt>
      <trkpt lat="45.03513" lon="5.84771">
        <ele>1279.136554</ele>
        <time>2026-08-29T09:03:38.000Z</time>
      </trkpt>
      <trkpt lat="45.03511" lon="5.8477">
        <ele>1279.336407</ele>
        <time>2026-08-29T09:03:39.000Z</time>
      </trkpt>
      <trkpt lat="45.03508" lon="5.84769">
        <ele>1279.532077</ele>
        <time>2026-08-29T09:03:40.000Z</time>
      </trkpt>
      <trkpt lat="45.03506" lon="5.84767">
        <ele>1279.738684</ele>
        <time>2026-08-29T09:03:41.000Z</time>
      </trkpt>
      <trkpt lat="45.03504" lon="5.84766">
        <ele>1279.937789</ele>
        <time>2026-08-29T09:03:42.000Z</time>
      </trkpt>
      <trkpt lat="45.03501" lon="5.84765">
        <ele>1280.14454</ele>
        <time>2026-08-29T09:03:43.000Z</time>
      </trkpt>
      <trkpt lat="45.03499" lon="5.84764">
        <ele>1280.337751</ele>
        <time>2026-08-29T09:03:44.000Z</time>
      </trkpt>
      <trkpt lat="45.03497" lon="5.84763">
        <ele>1280.505705</ele>
        <time>2026-08-29T09:03:45.000Z</time>
      </trkpt>
      <trkpt lat="45.03495" lon="5.84761">
        <ele>1280.695512</ele>
        <time>2026-08-29T09:03:46.000Z</time>
      </trkpt>
      <trkpt lat="45.03492" lon="5.8476">
        <ele>1280.894767</ele>
        <time>2026-08-29T09:03:47.000Z</time>
      </trkpt>
      <trkpt lat="45.0349" lon="5.84759">
        <ele>1281.095533</ele>
        <time>2026-08-29T09:03:48.000Z</time>
      </trkpt>
      <trkpt lat="45.03488" lon="5.84757">
        <ele>1281.292633</ele>
        <time>2026-08-29T09:03:49.000Z</time>
      </trkpt>
      <trkpt lat="45.03486" lon="5.84756">
        <ele>1281.482366</ele>
        <time>2026-08-29T09:03:50.000Z</time>
      </trkpt>
      <trkpt lat="45.03483" lon="5.84755">
        <ele>1281.674336</ele>
        <time>2026-08-29T09:03:51.000Z</time>
      </trkpt>
      <trkpt lat="45.03481" lon="5.84754">
        <ele>1281.875102</ele>
        <time>2026-08-29T09:03:52.000Z</time>
      </trkpt>
      <trkpt lat="45.03478" lon="5.84753">
        <ele>1282.086851</ele>
        <time>2026-08-29T09:03:53.000Z</time>
      </trkpt>
      <trkpt lat="45.03476" lon="5.84752">
        <ele>1282.287617</ele>
        <time>2026-08-29T09:03:54.000Z</time>
      </trkpt>
      <trkpt lat="45.03474" lon="5.84751">
        <ele>1282.480828</ele>
        <time>2026-08-29T09:03:55.000Z</time>
      </trkpt>
      <trkpt lat="45.03471" lon="5.8475">
        <ele>1282.66472</ele>
        <time>2026-08-29T09:03:56.000Z</time>
      </trkpt>
      <trkpt lat="45.03469" lon="5.84749">
        <ele>1282.863825</ele>
        <time>2026-08-29T09:03:57.000Z</time>
      </trkpt>
      <trkpt lat="45.03467" lon="5.84747">
        <ele>1283.038978</ele>
        <time>2026-08-29T09:03:58.000Z</time>
      </trkpt>
      <trkpt lat="45.03465" lon="5.84747">
        <ele>1283.218431</ele>
        <time>2026-08-29T09:03:59.000Z</time>
      </trkpt>
      <trkpt lat="45.03463" lon="5.84746">
        <ele>1283.408339</ele>
        <time>2026-08-29T09:04:00.000Z</time>
      </trkpt>
      <trkpt lat="45.03461" lon="5.84745">
        <ele>1283.5723</ele>
        <time>2026-08-29T09:04:01.000Z</time>
      </trkpt>
      <trkpt lat="45.03459" lon="5.84744">
        <ele>1283.735002</ele>
        <time>2026-08-29T09:04:02.000Z</time>
      </trkpt>
      <trkpt lat="45.03456" lon="5.84745">
        <ele>1283.910444</ele>
        <time>2026-08-29T09:04:03.000Z</time>
      </trkpt>
      <trkpt lat="45.03454" lon="5.84744">
        <ele>1284.075845</ele>
        <time>2026-08-29T09:04:04.000Z</time>
      </trkpt>
      <trkpt lat="45.03452" lon="5.84743">
        <ele>1284.277642</ele>
        <time>2026-08-29T09:04:05.000Z</time>
      </trkpt>
      <trkpt lat="45.03449" lon="5.84743">
        <ele>1284.469384</ele>
        <time>2026-08-29T09:04:06.000Z</time>
      </trkpt>
      <trkpt lat="45.03447" lon="5.84744">
        <ele>1284.695665</ele>
        <time>2026-08-29T09:04:07.000Z</time>
      </trkpt>
      <trkpt lat="45.03444" lon="5.84744">
        <ele>1284.92816</ele>
        <time>2026-08-29T09:04:08.000Z</time>
      </trkpt>
      <trkpt lat="45.03441" lon="5.84745">
        <ele>1285.133454</ele>
        <time>2026-08-29T09:04:09.000Z</time>
      </trkpt>
      <trkpt lat="45.03439" lon="5.84745">
        <ele>1285.325195</ele>
        <time>2026-08-29T09:04:10.000Z</time>
      </trkpt>
      <trkpt lat="45.03436" lon="5.84746">
        <ele>1285.541899</ele>
        <time>2026-08-29T09:04:11.000Z</time>
      </trkpt>
      <trkpt lat="45.03434" lon="5.84746">
        <ele>1285.735854</ele>
        <time>2026-08-29T09:04:12.000Z</time>
      </trkpt>
      <trkpt lat="45.03432" lon="5.84748">
        <ele>1285.904825</ele>
        <time>2026-08-29T09:04:13.000Z</time>
      </trkpt>
      <trkpt lat="45.03429" lon="5.84751">
        <ele>1286.180965</ele>
        <time>2026-08-29T09:04:14.000Z</time>
      </trkpt>
      <trkpt lat="45.03427" lon="5.84754">
        <ele>1286.422471</ele>
        <time>2026-08-29T09:04:15.000Z</time>
      </trkpt>
      <trkpt lat="45.03425" lon="5.84757">
        <ele>1286.631161</ele>
        <time>2026-08-29T09:04:16.000Z</time>
      </trkpt>
      <trkpt lat="45.03423" lon="5.84759">
        <ele>1286.83261</ele>
        <time>2026-08-29T09:04:17.000Z</time>
      </trkpt>
      <trkpt lat="45.03421" lon="5.84761">
        <ele>1287.019787</ele>
        <time>2026-08-29T09:04:18.000Z</time>
      </trkpt>
      <trkpt lat="45.0342" lon="5.84763">
        <ele>1287.206963</ele>
        <time>2026-08-29T09:04:19.000Z</time>
      </trkpt>
      <trkpt lat="45.03418" lon="5.84765">
        <ele>1287.363481</ele>
        <time>2026-08-29T09:04:20.000Z</time>
      </trkpt>
      <trkpt lat="45.03416" lon="5.84767">
        <ele>1287.549137</ele>
        <time>2026-08-29T09:04:21.000Z</time>
      </trkpt>
      <trkpt lat="45.03415" lon="5.8477">
        <ele>1287.748347</ele>
        <time>2026-08-29T09:04:22.000Z</time>
      </trkpt>
      <trkpt lat="45.03413" lon="5.84772">
        <ele>1287.955954</ele>
        <time>2026-08-29T09:04:23.000Z</time>
      </trkpt>
      <trkpt lat="45.03411" lon="5.84776">
        <ele>1288.167248</ele>
        <time>2026-08-29T09:04:24.000Z</time>
      </trkpt>
      <trkpt lat="45.0341" lon="5.84778">
        <ele>1288.3604</ele>
        <time>2026-08-29T09:04:25.000Z</time>
      </trkpt>
      <trkpt lat="45.03408" lon="5.84781">
        <ele>1288.573278</ele>
        <time>2026-08-29T09:04:26.000Z</time>
      </trkpt>
      <trkpt lat="45.03407" lon="5.84784">
        <ele>1288.766179</ele>
        <time>2026-08-29T09:04:27.000Z</time>
      </trkpt>
      <trkpt lat="45.03405" lon="5.84786">
        <ele>1288.960072</ele>
        <time>2026-08-29T09:04:28.000Z</time>
      </trkpt>
      <trkpt lat="45.03404" lon="5.84789">
        <ele>1289.130497</ele>
        <time>2026-08-29T09:04:29.000Z</time>
      </trkpt>
      <trkpt lat="45.03403" lon="5.84792">
        <ele>1289.323648</ele>
        <time>2026-08-29T09:04:30.000Z</time>
      </trkpt>
      <trkpt lat="45.03401" lon="5.84795">
        <ele>1289.513726</ele>
        <time>2026-08-29T09:04:31.000Z</time>
      </trkpt>
      <trkpt lat="45.034" lon="5.84798">
        <ele>1289.708813</ele>
        <time>2026-08-29T09:04:32.000Z</time>
      </trkpt>
      <trkpt lat="45.03399" lon="5.84801">
        <ele>1289.901954</ele>
        <time>2026-08-29T09:04:33.000Z</time>
      </trkpt>
      <trkpt lat="45.03398" lon="5.84803">
        <ele>1290.073392</ele>
        <time>2026-08-29T09:04:34.000Z</time>
      </trkpt>
      <trkpt lat="45.03397" lon="5.84806">
        <ele>1290.257134</ele>
        <time>2026-08-29T09:04:35.000Z</time>
      </trkpt>
      <trkpt lat="45.03395" lon="5.84809">
        <ele>1290.459321</ele>
        <time>2026-08-29T09:04:36.000Z</time>
      </trkpt>
      <trkpt lat="45.03394" lon="5.84812">
        <ele>1290.63576</ele>
        <time>2026-08-29T09:04:37.000Z</time>
      </trkpt>
      <trkpt lat="45.03393" lon="5.84815">
        <ele>1290.829631</ele>
        <time>2026-08-29T09:04:38.000Z</time>
      </trkpt>
      <trkpt lat="45.03392" lon="5.84818">
        <ele>1291.015236</ele>
        <time>2026-08-29T09:04:39.000Z</time>
      </trkpt>
      <trkpt lat="45.03391" lon="5.84821">
        <ele>1291.199402</ele>
        <time>2026-08-29T09:04:40.000Z</time>
      </trkpt>
      <trkpt lat="45.0339" lon="5.84824">
        <ele>1291.379734</ele>
        <time>2026-08-29T09:04:41.000Z</time>
      </trkpt>
      <trkpt lat="45.03389" lon="5.84827">
        <ele>1291.574822</ele>
        <time>2026-08-29T09:04:42.000Z</time>
      </trkpt>
      <trkpt lat="45.03389" lon="5.8483">
        <ele>1291.760584</ele>
        <time>2026-08-29T09:04:43.000Z</time>
      </trkpt>
      <trkpt lat="45.03389" lon="5.84833">
        <ele>1291.923005</ele>
        <time>2026-08-29T09:04:44.000Z</time>
      </trkpt>
      <trkpt lat="45.03388" lon="5.84836">
        <ele>1292.075685</ele>
        <time>2026-08-29T09:04:45.000Z</time>
      </trkpt>
      <trkpt lat="45.03388" lon="5.84838">
        <ele>1292.216509</ele>
        <time>2026-08-29T09:04:46.000Z</time>
      </trkpt>
      <trkpt lat="45.03388" lon="5.84841">
        <ele>1292.363597</ele>
        <time>2026-08-29T09:04:47.000Z</time>
      </trkpt>
      <trkpt lat="45.03388" lon="5.84844">
        <ele>1292.521269</ele>
        <time>2026-08-29T09:04:48.000Z</time>
      </trkpt>
      <trkpt lat="45.03388" lon="5.84846">
        <ele>1292.673326</ele>
        <time>2026-08-29T09:04:49.000Z</time>
      </trkpt>
      <trkpt lat="45.03388" lon="5.84849">
        <ele>1292.836421</ele>
        <time>2026-08-29T09:04:50.000Z</time>
      </trkpt>
      <trkpt lat="45.03388" lon="5.84852">
        <ele>1292.989101</ele>
        <time>2026-08-29T09:04:51.000Z</time>
      </trkpt>
      <trkpt lat="45.03388" lon="5.84855">
        <ele>1293.163626</ele>
        <time>2026-08-29T09:04:52.000Z</time>
      </trkpt>
      <trkpt lat="45.03388" lon="5.84858">
        <ele>1293.32846</ele>
        <time>2026-08-29T09:04:53.000Z</time>
      </trkpt>
      <trkpt lat="45.03388" lon="5.84861">
        <ele>1293.475547</ele>
        <time>2026-08-29T09:04:54.000Z</time>
      </trkpt>
      <trkpt lat="45.03388" lon="5.84863">
        <ele>1293.616372</ele>
        <time>2026-08-29T09:04:55.000Z</time>
      </trkpt>
      <trkpt lat="45.03388" lon="5.84866">
        <ele>1293.769052</ele>
        <time>2026-08-29T09:04:56.000Z</time>
      </trkpt>
      <trkpt lat="45.03388" lon="5.84869">
        <ele>1293.937629</ele>
        <time>2026-08-29T09:04:57.000Z</time>
      </trkpt>
      <trkpt lat="45.03388" lon="5.84871">
        <ele>1294.105677</ele>
        <time>2026-08-29T09:04:58.000Z</time>
      </trkpt>
      <trkpt lat="45.03388" lon="5.84874">
        <ele>1294.241841</ele>
        <time>2026-08-29T09:04:59.000Z</time>
      </trkpt>
      <trkpt lat="45.03388" lon="5.84876">
        <ele>1294.358536</ele>
        <time>2026-08-29T09:05:00.000Z</time>
      </trkpt>
      <trkpt lat="45.03388" lon="5.84878">
        <ele>1294.510533</ele>
        <time>2026-08-29T09:05:01.000Z</time>
      </trkpt>
      <trkpt lat="45.03388" lon="5.84881">
        <ele>1294.660624</ele>
        <time>2026-08-29T09:05:02.000Z</time>
      </trkpt>
      <trkpt lat="45.03388" lon="5.84884">
        <ele>1294.840646</ele>
        <time>2026-08-29T09:05:03.000Z</time>
      </trkpt>
      <trkpt lat="45.03388" lon="5.84886">
        <ele>1294.996722</ele>
        <time>2026-08-29T09:05:04.000Z</time>
      </trkpt>
      <trkpt lat="45.03388" lon="5.84889">
        <ele>1295.172403</ele>
        <time>2026-08-29T09:05:05.000Z</time>
      </trkpt>
      <trkpt lat="45.03388" lon="5.84892">
        <ele>1295.34045</ele>
        <time>2026-08-29T09:05:06.000Z</time>
      </trkpt>
      <trkpt lat="45.03387" lon="5.84895">
        <ele>1295.521575</ele>
        <time>2026-08-29T09:05:07.000Z</time>
      </trkpt>
      <trkpt lat="45.03386" lon="5.84898">
        <ele>1295.699601</ele>
        <time>2026-08-29T09:05:08.000Z</time>
      </trkpt>
      <trkpt lat="45.03385" lon="5.84901">
        <ele>1295.898423</ele>
        <time>2026-08-29T09:05:09.000Z</time>
      </trkpt>
      <trkpt lat="45.03384" lon="5.84903">
        <ele>1296.099607</ele>
        <time>2026-08-29T09:05:10.000Z</time>
      </trkpt>
      <trkpt lat="45.03383" lon="5.84906">
        <ele>1296.320852</ele>
        <time>2026-08-29T09:05:11.000Z</time>
      </trkpt>
      <trkpt lat="45.03381" lon="5.84909">
        <ele>1296.536921</ele>
        <time>2026-08-29T09:05:12.000Z</time>
      </trkpt>
      <trkpt lat="45.0338" lon="5.84912">
        <ele>1296.719641</ele>
        <time>2026-08-29T09:05:13.000Z</time>
      </trkpt>
      <trkpt lat="45.03379" lon="5.84915">
        <ele>1296.949738</ele>
        <time>2026-08-29T09:05:14.000Z</time>
      </trkpt>
      <trkpt lat="45.03377" lon="5.84918">
        <ele>1297.179909</ele>
        <time>2026-08-29T09:05:15.000Z</time>
      </trkpt>
      <trkpt lat="45.03376" lon="5.84921">
        <ele>1297.376486</ele>
        <time>2026-08-29T09:05:16.000Z</time>
      </trkpt>
      <trkpt lat="45.03374" lon="5.84923">
        <ele>1297.551296</ele>
        <time>2026-08-29T09:05:17.000Z</time>
      </trkpt>
      <trkpt lat="45.03373" lon="5.84925">
        <ele>1297.747874</ele>
        <time>2026-08-29T09:05:18.000Z</time>
      </trkpt>
      <trkpt lat="45.03372" lon="5.84928">
        <ele>1297.919239</ele>
        <time>2026-08-29T09:05:19.000Z</time>
      </trkpt>
      <trkpt lat="45.0337" lon="5.84929">
        <ele>1298.088947</ele>
        <time>2026-08-29T09:05:20.000Z</time>
      </trkpt>
      <trkpt lat="45.03368" lon="5.84931">
        <ele>1298.300364</ele>
        <time>2026-08-29T09:05:21.000Z</time>
      </trkpt>
      <trkpt lat="45.03366" lon="5.84933">
        <ele>1298.473538</ele>
        <time>2026-08-29T09:05:22.000Z</time>
      </trkpt>
      <trkpt lat="45.03364" lon="5.84935">
        <ele>1298.646712</ele>
        <time>2026-08-29T09:05:23.000Z</time>
      </trkpt>
      <trkpt lat="45.03363" lon="5.84936">
        <ele>1298.818122</ele>
        <time>2026-08-29T09:05:24.000Z</time>
      </trkpt>
      <trkpt lat="45.03361" lon="5.84937">
        <ele>1298.982023</ele>
        <time>2026-08-29T09:05:25.000Z</time>
      </trkpt>
      <trkpt lat="45.03359" lon="5.84939">
        <ele>1299.148201</ele>
        <time>2026-08-29T09:05:26.000Z</time>
      </trkpt>
      <trkpt lat="45.03358" lon="5.8494">
        <ele>1299.304676</ele>
        <time>2026-08-29T09:05:27.000Z</time>
      </trkpt>
      <trkpt lat="45.03356" lon="5.84942">
        <ele>1299.460468</ele>
        <time>2026-08-29T09:05:28.000Z</time>
      </trkpt>
      <trkpt lat="45.03354" lon="5.84942">
        <ele>1299.641091</ele>
        <time>2026-08-29T09:05:29.000Z</time>
      </trkpt>
      <trkpt lat="45.03353" lon="5.84944">
        <ele>1299.828042</ele>
        <time>2026-08-29T09:05:30.000Z</time>
      </trkpt>
      <trkpt lat="45.0335" lon="5.84946">
        <ele>1300.027568</ele>
        <time>2026-08-29T09:05:31.000Z</time>
      </trkpt>
      <trkpt lat="45.03349" lon="5.84947">
        <ele>1300.190361</ele>
        <time>2026-08-29T09:05:32.000Z</time>
      </trkpt>
      <trkpt lat="45.03347" lon="5.84949">
        <ele>1300.353366</ele>
        <time>2026-08-29T09:05:33.000Z</time>
      </trkpt>
      <trkpt lat="45.03345" lon="5.8495">
        <ele>1300.535062</ele>
        <time>2026-08-29T09:05:34.000Z</time>
      </trkpt>
      <trkpt lat="45.03344" lon="5.84952">
        <ele>1300.712244</ele>
        <time>2026-08-29T09:05:35.000Z</time>
      </trkpt>
      <trkpt lat="45.03342" lon="5.84953">
        <ele>1300.896785</ele>
        <time>2026-08-29T09:05:36.000Z</time>
      </trkpt>
      <trkpt lat="45.0334" lon="5.84955">
        <ele>1301.091204</ele>
        <time>2026-08-29T09:05:37.000Z</time>
      </trkpt>
      <trkpt lat="45.03338" lon="5.84956">
        <ele>1301.27021</ele>
        <time>2026-08-29T09:05:38.000Z</time>
      </trkpt>
      <trkpt lat="45.03336" lon="5.84957">
        <ele>1301.451906</ele>
        <time>2026-08-29T09:05:39.000Z</time>
      </trkpt>
      <trkpt lat="45.03334" lon="5.84959">
        <ele>1301.61874</ele>
        <time>2026-08-29T09:05:40.000Z</time>
      </trkpt>
      <trkpt lat="45.03332" lon="5.8496">
        <ele>1301.797747</ele>
        <time>2026-08-29T09:05:41.000Z</time>
      </trkpt>
      <trkpt lat="45.0333" lon="5.84962">
        <ele>1301.982288</ele>
        <time>2026-08-29T09:05:42.000Z</time>
      </trkpt>
      <trkpt lat="45.03329" lon="5.84963">
        <ele>1302.169239</ele>
        <time>2026-08-29T09:05:43.000Z</time>
      </trkpt>
      <trkpt lat="45.03327" lon="5.84965">
        <ele>1302.348245</ele>
        <time>2026-08-29T09:05:44.000Z</time>
      </trkpt>
      <trkpt lat="45.03325" lon="5.84966">
        <ele>1302.550544</ele>
        <time>2026-08-29T09:05:45.000Z</time>
      </trkpt>
      <trkpt lat="45.03322" lon="5.84968">
        <ele>1302.752762</ele>
        <time>2026-08-29T09:05:46.000Z</time>
      </trkpt>
      <trkpt lat="45.0332" lon="5.84969">
        <ele>1302.944857</ele>
        <time>2026-08-29T09:05:47.000Z</time>
      </trkpt>
      <trkpt lat="45.03318" lon="5.8497">
        <ele>1303.125156</ele>
        <time>2026-08-29T09:05:48.000Z</time>
      </trkpt>
      <trkpt lat="45.03317" lon="5.84972">
        <ele>1303.319272</ele>
        <time>2026-08-29T09:05:49.000Z</time>
      </trkpt>
      <trkpt lat="45.03315" lon="5.84974">
        <ele>1303.537382</ele>
        <time>2026-08-29T09:05:50.000Z</time>
      </trkpt>
      <trkpt lat="45.03313" lon="5.84977">
        <ele>1303.748621</ele>
        <time>2026-08-29T09:05:51.000Z</time>
      </trkpt>
      <trkpt lat="45.03311" lon="5.84978">
        <ele>1303.946512</ele>
        <time>2026-08-29T09:05:52.000Z</time>
      </trkpt>
      <trkpt lat="45.03309" lon="5.8498">
        <ele>1304.141383</ele>
        <time>2026-08-29T09:05:53.000Z</time>
      </trkpt>
      <trkpt lat="45.03307" lon="5.84982">
        <ele>1304.345706</ele>
        <time>2026-08-29T09:05:54.000Z</time>
      </trkpt>
      <trkpt lat="45.03305" lon="5.84984">
        <ele>1304.543043</ele>
        <time>2026-08-29T09:05:55.000Z</time>
      </trkpt>
      <trkpt lat="45.03303" lon="5.84985">
        <ele>1304.723134</ele>
        <time>2026-08-29T09:05:56.000Z</time>
      </trkpt>
      <trkpt lat="45.03301" lon="5.84987">
        <ele>1304.872329</ele>
        <time>2026-08-29T09:05:57.000Z</time>
      </trkpt>
      <trkpt lat="45.033" lon="5.84988">
        <ele>1305.05687</ele>
        <time>2026-08-29T09:05:58.000Z</time>
      </trkpt>
      <trkpt lat="45.03298" lon="5.8499">
        <ele>1305.243822</ele>
        <time>2026-08-29T09:05:59.000Z</time>
      </trkpt>
      <trkpt lat="45.03296" lon="5.84992">
        <ele>1305.434491</ele>
        <time>2026-08-29T09:06:00.000Z</time>
      </trkpt>
      <trkpt lat="45.03294" lon="5.84994">
        <ele>1305.618236</ele>
        <time>2026-08-29T09:06:01.000Z</time>
      </trkpt>
      <trkpt lat="45.03292" lon="5.84995">
        <ele>1305.801793</ele>
        <time>2026-08-29T09:06:02.000Z</time>
      </trkpt>
      <trkpt lat="45.03291" lon="5.84997">
        <ele>1305.978976</ele>
        <time>2026-08-29T09:06:03.000Z</time>
      </trkpt>
      <trkpt lat="45.03289" lon="5.84998">
        <ele>1306.134768</ele>
        <time>2026-08-29T09:06:04.000Z</time>
      </trkpt>
      <trkpt lat="45.03287" lon="5.85">
        <ele>1306.332106</ele>
        <time>2026-08-29T09:06:05.000Z</time>
      </trkpt>
      <trkpt lat="45.03286" lon="5.85001">
        <ele>1306.45674</ele>
        <time>2026-08-29T09:06:06.000Z</time>
      </trkpt>
      <trkpt lat="45.03284" lon="5.85003">
        <ele>1306.6163</ele>
        <time>2026-08-29T09:06:07.000Z</time>
      </trkpt>
      <trkpt lat="45.03283" lon="5.85005">
        <ele>1306.779306</ele>
        <time>2026-08-29T09:06:08.000Z</time>
      </trkpt>
      <trkpt lat="45.03281" lon="5.85006">
        <ele>1306.969976</ele>
        <time>2026-08-29T09:06:09.000Z</time>
      </trkpt>
      <trkpt lat="45.03279" lon="5.85008">
        <ele>1307.167867</ele>
        <time>2026-08-29T09:06:10.000Z</time>
      </trkpt>
      <trkpt lat="45.03277" lon="5.8501">
        <ele>1307.37219</ele>
        <time>2026-08-29T09:06:11.000Z</time>
      </trkpt>
      <trkpt lat="45.03275" lon="5.85012">
        <ele>1307.56286</ele>
        <time>2026-08-29T09:06:12.000Z</time>
      </trkpt>
      <trkpt lat="45.03273" lon="5.85013">
        <ele>1307.746417</ele>
        <time>2026-08-29T09:06:13.000Z</time>
      </trkpt>
      <trkpt lat="45.03272" lon="5.85015">
        <ele>1307.906861</ele>
        <time>2026-08-29T09:06:14.000Z</time>
      </trkpt>
      <trkpt lat="45.0327" lon="5.85017">
        <ele>1308.086952</ele>
        <time>2026-08-29T09:06:15.000Z</time>
      </trkpt>
      <trkpt lat="45.03269" lon="5.85019">
        <ele>1308.264409</ele>
        <time>2026-08-29T09:06:16.000Z</time>
      </trkpt>
      <trkpt lat="45.03267" lon="5.85021">
        <ele>1308.431752</ele>
        <time>2026-08-29T09:06:17.000Z</time>
      </trkpt>
      <trkpt lat="45.03266" lon="5.85023">
        <ele>1308.603119</ele>
        <time>2026-08-29T09:06:18.000Z</time>
      </trkpt>
      <trkpt lat="45.03265" lon="5.85025">
        <ele>1308.769938</ele>
        <time>2026-08-29T09:06:19.000Z</time>
      </trkpt>
      <trkpt lat="45.03263" lon="5.85027">
        <ele>1308.943313</ele>
        <time>2026-08-29T09:06:20.000Z</time>
      </trkpt>
      <trkpt lat="45.03262" lon="5.85029">
        <ele>1309.121156</ele>
        <time>2026-08-29T09:06:21.000Z</time>
      </trkpt>
      <trkpt lat="45.0326" lon="5.85031">
        <ele>1309.275537</ele>
        <time>2026-08-29T09:06:22.000Z</time>
      </trkpt>
      <trkpt lat="45.03259" lon="5.85034">
        <ele>1309.43356</ele>
        <time>2026-08-29T09:06:23.000Z</time>
      </trkpt>
      <trkpt lat="45.03257" lon="5.85036">
        <ele>1309.579827</ele>
        <time>2026-08-29T09:06:24.000Z</time>
      </trkpt>
      <trkpt lat="45.03256" lon="5.85038">
        <ele>1309.727128</ele>
        <time>2026-08-29T09:06:25.000Z</time>
      </trkpt>
      <trkpt lat="45.03254" lon="5.85041">
        <ele>1309.86904</ele>
        <time>2026-08-29T09:06:26.000Z</time>
      </trkpt>
      <trkpt lat="45.03253" lon="5.85043">
        <ele>1310.018672</ele>
        <time>2026-08-29T09:06:27.000Z</time>
      </trkpt>
      <trkpt lat="45.03252" lon="5.85046">
        <ele>1310.184795</ele>
        <time>2026-08-29T09:06:28.000Z</time>
      </trkpt>
      <trkpt lat="45.0325" lon="5.85048">
        <ele>1310.334746</ele>
        <time>2026-08-29T09:06:29.000Z</time>
      </trkpt>
      <trkpt lat="45.03248" lon="5.85051">
        <ele>1310.49848</ele>
        <time>2026-08-29T09:06:30.000Z</time>
      </trkpt>
      <trkpt lat="45.03247" lon="5.85053">
        <ele>1310.657545</ele>
        <time>2026-08-29T09:06:31.000Z</time>
      </trkpt>
      <trkpt lat="45.03245" lon="5.85055">
        <ele>1310.81661</ele>
        <time>2026-08-29T09:06:32.000Z</time>
      </trkpt>
      <trkpt lat="45.03243" lon="5.85057">
        <ele>1310.968724</ele>
        <time>2026-08-29T09:06:33.000Z</time>
      </trkpt>
      <trkpt lat="45.03242" lon="5.85059">
        <ele>1311.107832</ele>
        <time>2026-08-29T09:06:34.000Z</time>
      </trkpt>
      <trkpt lat="45.03241" lon="5.85062">
        <ele>1311.249736</ele>
        <time>2026-08-29T09:06:35.000Z</time>
      </trkpt>
      <trkpt lat="45.03239" lon="5.85064">
        <ele>1311.415098</ele>
        <time>2026-08-29T09:06:36.000Z</time>
      </trkpt>
      <trkpt lat="45.03238" lon="5.85067">
        <ele>1311.576461</ele>
        <time>2026-08-29T09:06:37.000Z</time>
      </trkpt>
      <trkpt lat="45.03236" lon="5.8507">
        <ele>1311.749627</ele>
        <time>2026-08-29T09:06:38.000Z</time>
      </trkpt>
      <trkpt lat="45.03235" lon="5.85072">
        <ele>1311.903094</ele>
        <time>2026-08-29T09:06:39.000Z</time>
      </trkpt>
      <trkpt lat="45.03233" lon="5.85075">
        <ele>1312.066829</ele>
        <time>2026-08-29T09:06:40.000Z</time>
      </trkpt>
      <trkpt lat="45.03231" lon="5.85077">
        <ele>1312.22234</ele>
        <time>2026-08-29T09:06:41.000Z</time>
      </trkpt>
      <trkpt lat="45.0323" lon="5.85079">
        <ele>1312.376038</ele>
        <time>2026-08-29T09:06:42.000Z</time>
      </trkpt>
      <trkpt lat="45.03228" lon="5.85082">
        <ele>1312.539773</ele>
        <time>2026-08-29T09:06:43.000Z</time>
      </trkpt>
      <trkpt lat="45.03227" lon="5.85084">
        <ele>1312.703507</ele>
        <time>2026-08-29T09:06:44.000Z</time>
      </trkpt>
      <trkpt lat="45.03225" lon="5.85086">
        <ele>1312.860584</ele>
        <time>2026-08-29T09:06:45.000Z</time>
      </trkpt>
      <trkpt lat="45.03223" lon="5.85089">
        <ele>1313.024967</ele>
        <time>2026-08-29T09:06:46.000Z</time>
      </trkpt>
      <trkpt lat="45.03221" lon="5.8509">
        <ele>1313.17525</ele>
        <time>2026-08-29T09:06:47.000Z</time>
      </trkpt>
      <trkpt lat="45.0322" lon="5.85092">
        <ele>1313.308836</ele>
        <time>2026-08-29T09:06:48.000Z</time>
      </trkpt>
      <trkpt lat="45.03218" lon="5.85094">
        <ele>1313.470447</ele>
        <time>2026-08-29T09:06:49.000Z</time>
      </trkpt>
      <trkpt lat="45.03216" lon="5.85095">
        <ele>1313.629525</ele>
        <time>2026-08-29T09:06:50.000Z</time>
      </trkpt>
      <trkpt lat="45.03214" lon="5.85097">
        <ele>1313.777871</ele>
        <time>2026-08-29T09:06:51.000Z</time>
      </trkpt>
      <trkpt lat="45.03212" lon="5.85099">
        <ele>1313.944853</ele>
        <time>2026-08-29T09:06:52.000Z</time>
      </trkpt>
      <trkpt lat="45.0321" lon="5.85101">
        <ele>1314.109101</ele>
        <time>2026-08-29T09:06:53.000Z</time>
      </trkpt>
      <trkpt lat="45.03208" lon="5.85103">
        <ele>1314.295604</ele>
        <time>2026-08-29T09:06:54.000Z</time>
      </trkpt>
      <trkpt lat="45.03205" lon="5.85105">
        <ele>1314.476546</ele>
        <time>2026-08-29T09:06:55.000Z</time>
      </trkpt>
      <trkpt lat="45.03203" lon="5.85107">
        <ele>1314.663179</ele>
        <time>2026-08-29T09:06:56.000Z</time>
      </trkpt>
      <trkpt lat="45.03201" lon="5.8511">
        <ele>1314.846859</ele>
        <time>2026-08-29T09:06:57.000Z</time>
      </trkpt>
      <trkpt lat="45.03199" lon="5.85111">
        <ele>1315.002761</ele>
        <time>2026-08-29T09:06:58.000Z</time>
      </trkpt>
      <trkpt lat="45.03197" lon="5.85113">
        <ele>1315.158662</ele>
        <time>2026-08-29T09:06:59.000Z</time>
      </trkpt>
      <trkpt lat="45.03195" lon="5.85115">
        <ele>1315.32291</ele>
        <time>2026-08-29T09:07:00.000Z</time>
      </trkpt>
      <trkpt lat="45.03193" lon="5.85117">
        <ele>1315.484372</ele>
        <time>2026-08-29T09:07:01.000Z</time>
      </trkpt>
      <trkpt lat="45.03191" lon="5.85119">
        <ele>1315.643438</ele>
        <time>2026-08-29T09:07:02.000Z</time>
      </trkpt>
      <trkpt lat="45.03189" lon="5.85122">
        <ele>1315.820339</ele>
        <time>2026-08-29T09:07:03.000Z</time>
      </trkpt>
      <trkpt lat="45.03188" lon="5.85124">
        <ele>1315.995719</ele>
        <time>2026-08-29T09:07:04.000Z</time>
      </trkpt>
      <trkpt lat="45.03186" lon="5.85127">
        <ele>1316.169965</ele>
        <time>2026-08-29T09:07:05.000Z</time>
      </trkpt>
      <trkpt lat="45.03184" lon="5.8513">
        <ele>1316.343472</ele>
        <time>2026-08-29T09:07:06.000Z</time>
      </trkpt>
      <trkpt lat="45.03183" lon="5.85133">
        <ele>1316.512702</ele>
        <time>2026-08-29T09:07:07.000Z</time>
      </trkpt>
      <trkpt lat="45.03182" lon="5.85136">
        <ele>1316.694051</ele>
        <time>2026-08-29T09:07:08.000Z</time>
      </trkpt>
      <trkpt lat="45.0318" lon="5.85139">
        <ele>1316.855415</ele>
        <time>2026-08-29T09:07:09.000Z</time>
      </trkpt>
      <trkpt lat="45.03179" lon="5.85142">
        <ele>1317.025731</ele>
        <time>2026-08-29T09:07:10.000Z</time>
      </trkpt>
      <trkpt lat="45.03178" lon="5.85145">
        <ele>1317.182774</ele>
        <time>2026-08-29T09:07:11.000Z</time>
      </trkpt>
      <trkpt lat="45.03177" lon="5.85148">
        <ele>1317.339817</ele>
        <time>2026-08-29T09:07:12.000Z</time>
      </trkpt>
      <trkpt lat="45.03176" lon="5.85151">
        <ele>1317.507925</ele>
        <time>2026-08-29T09:07:13.000Z</time>
      </trkpt>
      <trkpt lat="45.03176" lon="5.85154">
        <ele>1317.676033</ele>
        <time>2026-08-29T09:07:14.000Z</time>
      </trkpt>
      <trkpt lat="45.03175" lon="5.85158">
        <ele>1317.846476</ele>
        <time>2026-08-29T09:07:15.000Z</time>
      </trkpt>
      <trkpt lat="45.03174" lon="5.85161">
        <ele>1318.014585</ele>
        <time>2026-08-29T09:07:16.000Z</time>
      </trkpt>
      <trkpt lat="45.03174" lon="5.85164">
        <ele>1318.160582</ele>
        <time>2026-08-29T09:07:17.000Z</time>
      </trkpt>
      <trkpt lat="45.03174" lon="5.85167">
        <ele>1318.329783</ele>
        <time>2026-08-29T09:07:18.000Z</time>
      </trkpt>
      <trkpt lat="45.03173" lon="5.85171">
        <ele>1318.524446</ele>
        <time>2026-08-29T09:07:19.000Z</time>
      </trkpt>
      <trkpt lat="45.03173" lon="5.85175">
        <ele>1318.723064</ele>
        <time>2026-08-29T09:07:20.000Z</time>
      </trkpt>
      <trkpt lat="45.03173" lon="5.85179">
        <ele>1318.914056</ele>
        <time>2026-08-29T09:07:21.000Z</time>
      </trkpt>
      <trkpt lat="45.03172" lon="5.85183">
        <ele>1319.098621</ele>
        <time>2026-08-29T09:07:22.000Z</time>
      </trkpt>
      <trkpt lat="45.03171" lon="5.85187">
        <ele>1319.276849</ele>
        <time>2026-08-29T09:07:23.000Z</time>
      </trkpt>
      <trkpt lat="45.03171" lon="5.8519">
        <ele>1319.453636</ele>
        <time>2026-08-29T09:07:24.000Z</time>
      </trkpt>
      <trkpt lat="45.03171" lon="5.85194">
        <ele>1319.636869</ele>
        <time>2026-08-29T09:07:25.000Z</time>
      </trkpt>
      <trkpt lat="45.0317" lon="5.85198">
        <ele>1319.816326</ele>
        <time>2026-08-29T09:07:26.000Z</time>
      </trkpt>
      <trkpt lat="45.0317" lon="5.85201">
        <ele>1319.987168</ele>
        <time>2026-08-29T09:07:27.000Z</time>
      </trkpt>
      <trkpt lat="45.0317" lon="5.85205">
        <ele>1320.162768</ele>
        <time>2026-08-29T09:07:28.000Z</time>
      </trkpt>
      <trkpt lat="45.03169" lon="5.85208">
        <ele>1320.338368</ele>
        <time>2026-08-29T09:07:29.000Z</time>
      </trkpt>
      <trkpt lat="45.03169" lon="5.85212">
        <ele>1320.522613</ele>
        <time>2026-08-29T09:07:30.000Z</time>
      </trkpt>
      <trkpt lat="45.03168" lon="5.85216">
        <ele>1320.710233</ele>
        <time>2026-08-29T09:07:31.000Z</time>
      </trkpt>
      <trkpt lat="45.03168" lon="5.8522">
        <ele>1320.888461</ele>
        <time>2026-08-29T09:07:32.000Z</time>
      </trkpt>
      <trkpt lat="45.03167" lon="5.85223">
        <ele>1321.073027</ele>
        <time>2026-08-29T09:07:33.000Z</time>
      </trkpt>
      <trkpt lat="45.03166" lon="5.85227">
        <ele>1321.276272</ele>
        <time>2026-08-29T09:07:34.000Z</time>
      </trkpt>
      <trkpt lat="45.03165" lon="5.85231">
        <ele>1321.420772</ele>
        <time>2026-08-29T09:07:35.000Z</time>
      </trkpt>
      <trkpt lat="45.03164" lon="5.85235">
        <ele>1321.52036</ele>
        <time>2026-08-29T09:07:36.000Z</time>
      </trkpt>
      <trkpt lat="45.03163" lon="5.85239">
        <ele>1321.619948</ele>
        <time>2026-08-29T09:07:37.000Z</time>
      </trkpt>
      <trkpt lat="45.03162" lon="5.85243">
        <ele>1321.727758</ele>
        <time>2026-08-29T09:07:38.000Z</time>
      </trkpt>
      <trkpt lat="45.03161" lon="5.85246">
        <ele>1321.831019</ele>
        <time>2026-08-29T09:07:39.000Z</time>
      </trkpt>
      <trkpt lat="45.03159" lon="5.8525">
        <ele>1321.927533</ele>
        <time>2026-08-29T09:07:40.000Z</time>
      </trkpt>
      <trkpt lat="45.03158" lon="5.85253">
        <ele>1322.029477</ele>
        <time>2026-08-29T09:07:41.000Z</time>
      </trkpt>
      <trkpt lat="45.03157" lon="5.85257">
        <ele>1322.14022</ele>
        <time>2026-08-29T09:07:42.000Z</time>
      </trkpt>
      <trkpt lat="45.03155" lon="5.85261">
        <ele>1322.249961</ele>
        <time>2026-08-29T09:07:43.000Z</time>
      </trkpt>
      <trkpt lat="45.03153" lon="5.85265">
        <ele>1322.357381</ele>
        <time>2026-08-29T09:07:44.000Z</time>
      </trkpt>
      <trkpt lat="45.03152" lon="5.85269">
        <ele>1322.463208</ele>
        <time>2026-08-29T09:07:45.000Z</time>
      </trkpt>
      <trkpt lat="45.0315" lon="5.85273">
        <ele>1322.577241</ele>
        <time>2026-08-29T09:07:46.000Z</time>
      </trkpt>
      <trkpt lat="45.03149" lon="5.85276">
        <ele>1322.685227</ele>
        <time>2026-08-29T09:07:47.000Z</time>
      </trkpt>
      <trkpt lat="45.03147" lon="5.8528">
        <ele>1322.79891</ele>
        <time>2026-08-29T09:07:48.000Z</time>
      </trkpt>
      <trkpt lat="45.03145" lon="5.85284">
        <ele>1322.910791</ele>
        <time>2026-08-29T09:07:49.000Z</time>
      </trkpt>
      <trkpt lat="45.03144" lon="5.85288">
        <ele>1323.024474</ele>
        <time>2026-08-29T09:07:50.000Z</time>
      </trkpt>
      <trkpt lat="45.03142" lon="5.85292">
        <ele>1323.135217</ele>
        <time>2026-08-29T09:07:51.000Z</time>
      </trkpt>
      <trkpt lat="45.03141" lon="5.85296">
        <ele>1323.253593</ele>
        <time>2026-08-29T09:07:52.000Z</time>
      </trkpt>
      <trkpt lat="45.03139" lon="5.853">
        <ele>1323.369395</ele>
        <time>2026-08-29T09:07:53.000Z</time>
      </trkpt>
      <trkpt lat="45.03138" lon="5.85304">
        <ele>1323.482366</ele>
        <time>2026-08-29T09:07:54.000Z</time>
      </trkpt>
      <trkpt lat="45.03136" lon="5.85308">
        <ele>1323.592108</ele>
        <time>2026-08-29T09:07:55.000Z</time>
      </trkpt>
      <trkpt lat="45.03134" lon="5.85312">
        <ele>1323.703687</ele>
        <time>2026-08-29T09:07:56.000Z</time>
      </trkpt>
      <trkpt lat="45.03133" lon="5.85316">
        <ele>1323.81772</ele>
        <time>2026-08-29T09:07:57.000Z</time>
      </trkpt>
      <trkpt lat="45.03131" lon="5.8532">
        <ele>1323.937292</ele>
        <time>2026-08-29T09:07:58.000Z</time>
      </trkpt>
      <trkpt lat="45.03129" lon="5.85324">
        <ele>1324.054942</ele>
        <time>2026-08-29T09:07:59.000Z</time>
      </trkpt>
      <trkpt lat="45.03127" lon="5.85328">
        <ele>1324.170745</ele>
        <time>2026-08-29T09:08:00.000Z</time>
      </trkpt>
      <trkpt lat="45.03126" lon="5.85332">
        <ele>1324.284428</ele>
        <time>2026-08-29T09:08:01.000Z</time>
      </trkpt>
      <trkpt lat="45.03124" lon="5.85336">
        <ele>1324.404994</ele>
        <time>2026-08-29T09:08:02.000Z</time>
      </trkpt>
      <trkpt lat="45.03122" lon="5.8534">
        <ele>1324.521192</ele>
        <time>2026-08-29T09:08:03.000Z</time>
      </trkpt>
      <trkpt lat="45.03121" lon="5.85344">
        <ele>1324.635225</ele>
        <time>2026-08-29T09:08:04.000Z</time>
      </trkpt>
      <trkpt lat="45.03119" lon="5.85348">
        <ele>1324.741545</ele>
        <time>2026-08-29T09:08:05.000Z</time>
      </trkpt>
      <trkpt lat="45.03118" lon="5.85352">
        <ele>1324.849356</ele>
        <time>2026-08-29T09:08:06.000Z</time>
      </trkpt>
      <trkpt lat="45.03117" lon="5.85356">
        <ele>1324.963113</ele>
        <time>2026-08-29T09:08:07.000Z</time>
      </trkpt>
      <trkpt lat="45.03115" lon="5.8536">
        <ele>1325.083196</ele>
        <time>2026-08-29T09:08:08.000Z</time>
      </trkpt>
      <trkpt lat="45.03113" lon="5.85365">
        <ele>1325.204835</ele>
        <time>2026-08-29T09:08:09.000Z</time>
      </trkpt>
      <trkpt lat="45.03112" lon="5.85369">
        <ele>1325.324585</ele>
        <time>2026-08-29T09:08:10.000Z</time>
      </trkpt>
      <trkpt lat="45.0311" lon="5.85373">
        <ele>1325.44645</ele>
        <time>2026-08-29T09:08:11.000Z</time>
      </trkpt>
      <trkpt lat="45.03108" lon="5.85377">
        <ele>1325.564101</ele>
        <time>2026-08-29T09:08:12.000Z</time>
      </trkpt>
      <trkpt lat="45.03106" lon="5.85381">
        <ele>1325.68574</ele>
        <time>2026-08-29T09:08:13.000Z</time>
      </trkpt>
      <trkpt lat="45.03104" lon="5.85385">
        <ele>1325.811492</ele>
        <time>2026-08-29T09:08:14.000Z</time>
      </trkpt>
      <trkpt lat="45.03102" lon="5.85389">
        <ele>1325.943316</ele>
        <time>2026-08-29T09:08:15.000Z</time>
      </trkpt>
      <trkpt lat="45.03099" lon="5.85393">
        <ele>1326.071034</ele>
        <time>2026-08-29T09:08:16.000Z</time>
      </trkpt>
      <trkpt lat="45.03097" lon="5.85397">
        <ele>1326.196661</ele>
        <time>2026-08-29T09:08:17.000Z</time>
      </trkpt>
      <trkpt lat="45.03095" lon="5.85401">
        <ele>1326.324599</ele>
        <time>2026-08-29T09:08:18.000Z</time>
      </trkpt>
      <trkpt lat="45.03093" lon="5.85405">
        <ele>1326.454471</ele>
        <time>2026-08-29T09:08:19.000Z</time>
      </trkpt>
      <trkpt lat="45.0309" lon="5.85409">
        <ele>1326.585694</ele>
        <time>2026-08-29T09:08:20.000Z</time>
      </trkpt>
      <trkpt lat="45.03088" lon="5.85413">
        <ele>1326.712134</ele>
        <time>2026-08-29T09:08:21.000Z</time>
      </trkpt>
      <trkpt lat="45.03085" lon="5.85417">
        <ele>1326.838116</ele>
        <time>2026-08-29T09:08:22.000Z</time>
      </trkpt>
      <trkpt lat="45.03082" lon="5.8542">
        <ele>1326.959088</ele>
        <time>2026-08-29T09:08:23.000Z</time>
      </trkpt>
      <trkpt lat="45.0308" lon="5.85423">
        <ele>1327.076604</ele>
        <time>2026-08-29T09:08:24.000Z</time>
      </trkpt>
      <trkpt lat="45.03077" lon="5.85425">
        <ele>1327.200106</ele>
        <time>2026-08-29T09:08:25.000Z</time>
      </trkpt>
      <trkpt lat="45.03074" lon="5.85428">
        <ele>1327.317678</ele>
        <time>2026-08-29T09:08:26.000Z</time>
      </trkpt>
      <trkpt lat="45.03071" lon="5.85431">
        <ele>1327.440928</ele>
        <time>2026-08-29T09:08:27.000Z</time>
      </trkpt>
      <trkpt lat="45.03068" lon="5.85434">
        <ele>1327.568521</ele>
        <time>2026-08-29T09:08:28.000Z</time>
      </trkpt>
      <trkpt lat="45.03065" lon="5.85437">
        <ele>1327.689126</ele>
        <time>2026-08-29T09:08:29.000Z</time>
      </trkpt>
      <trkpt lat="45.03062" lon="5.8544">
        <ele>1327.720279</ele>
        <time>2026-08-29T09:08:30.000Z</time>
      </trkpt>
      <trkpt lat="45.03059" lon="5.85442">
        <ele>1327.753255</ele>
        <time>2026-08-29T09:08:31.000Z</time>
      </trkpt>
      <trkpt lat="45.03056" lon="5.85445">
        <ele>1327.786231</ele>
        <time>2026-08-29T09:08:32.000Z</time>
      </trkpt>
      <trkpt lat="45.03053" lon="5.85449">
        <ele>1327.821001</ele>
        <time>2026-08-29T09:08:33.000Z</time>
      </trkpt>
      <trkpt lat="45.0305" lon="5.85452">
        <ele>1327.855804</ele>
        <time>2026-08-29T09:08:34.000Z</time>
      </trkpt>
      <trkpt lat="45.03047" lon="5.85455">
        <ele>1327.889911</ele>
        <time>2026-08-29T09:08:35.000Z</time>
      </trkpt>
      <trkpt lat="45.03043" lon="5.85459">
        <ele>1327.926496</ele>
        <time>2026-08-29T09:08:36.000Z</time>
      </trkpt>
      <trkpt lat="45.0304" lon="5.85462">
        <ele>1327.963082</ele>
        <time>2026-08-29T09:08:37.000Z</time>
      </trkpt>
      <trkpt lat="45.03037" lon="5.85465">
        <ele>1327.997885</ele>
        <time>2026-08-29T09:08:38.000Z</time>
      </trkpt>
      <trkpt lat="45.03034" lon="5.85469">
        <ele>1328.03428</ele>
        <time>2026-08-29T09:08:39.000Z</time>
      </trkpt>
      <trkpt lat="45.03031" lon="5.85473">
        <ele>1328.070429</ele>
        <time>2026-08-29T09:08:40.000Z</time>
      </trkpt>
      <trkpt lat="45.03028" lon="5.85477">
        <ele>1328.107439</ele>
        <time>2026-08-29T09:08:41.000Z</time>
      </trkpt>
      <trkpt lat="45.03024" lon="5.85481">
        <ele>1328.147246</ele>
        <time>2026-08-29T09:08:42.000Z</time>
      </trkpt>
      <trkpt lat="45.03021" lon="5.85486">
        <ele>1328.187724</ele>
        <time>2026-08-29T09:08:43.000Z</time>
      </trkpt>
      <trkpt lat="45.03018" lon="5.85491">
        <ele>1328.228501</ele>
        <time>2026-08-29T09:08:44.000Z</time>
      </trkpt>
      <trkpt lat="45.03015" lon="5.85496">
        <ele>1328.271033</ele>
        <time>2026-08-29T09:08:45.000Z</time>
      </trkpt>
      <trkpt lat="45.03013" lon="5.85502">
        <ele>1328.314637</ele>
        <time>2026-08-29T09:08:46.000Z</time>
      </trkpt>
      <trkpt lat="45.0301" lon="5.85508">
        <ele>1328.359847</ele>
        <time>2026-08-29T09:08:47.000Z</time>
      </trkpt>
      <trkpt lat="45.03008" lon="5.85515">
        <ele>1328.404612</ele>
        <time>2026-08-29T09:08:48.000Z</time>
      </trkpt>
      <trkpt lat="45.03005" lon="5.85521">
        <ele>1328.452278</ele>
        <time>2026-08-29T09:08:49.000Z</time>
      </trkpt>
      <trkpt lat="45.03003" lon="5.85528">
        <ele>1328.498825</ele>
        <time>2026-08-29T09:08:50.000Z</time>
      </trkpt>
      <trkpt lat="45.03" lon="5.85535">
        <ele>1328.545931</ele>
        <time>2026-08-29T09:08:51.000Z</time>
      </trkpt>
      <trkpt lat="45.02998" lon="5.85541">
        <ele>1328.591921</ele>
        <time>2026-08-29T09:08:52.000Z</time>
      </trkpt>
      <trkpt lat="45.02996" lon="5.85547">
        <ele>1328.635989</ele>
        <time>2026-08-29T09:08:53.000Z</time>
      </trkpt>
      <trkpt lat="45.02993" lon="5.85554">
        <ele>1328.681425</ele>
        <time>2026-08-29T09:08:54.000Z</time>
      </trkpt>
      <trkpt lat="45.02991" lon="5.8556">
        <ele>1328.728385</ele>
        <time>2026-08-29T09:08:55.000Z</time>
      </trkpt>
      <trkpt lat="45.02988" lon="5.85567">
        <ele>1328.774375</ele>
        <time>2026-08-29T09:08:56.000Z</time>
      </trkpt>
      <trkpt lat="45.02985" lon="5.85573">
        <ele>1328.820673</ele>
        <time>2026-08-29T09:08:57.000Z</time>
      </trkpt>
      <trkpt lat="45.02981" lon="5.85577">
        <ele>1328.866019</ele>
        <time>2026-08-29T09:08:58.000Z</time>
      </trkpt>
      <trkpt lat="45.02977" lon="5.85581">
        <ele>1328.91176</ele>
        <time>2026-08-29T09:08:59.000Z</time>
      </trkpt>
      <trkpt lat="45.02972" lon="5.85584">
        <ele>1328.959184</ele>
        <time>2026-08-29T09:09:00.000Z</time>
      </trkpt>
      <trkpt lat="45.02967" lon="5.85588">
        <ele>1329.005197</ele>
        <time>2026-08-29T09:09:01.000Z</time>
      </trkpt>
      <trkpt lat="45.02962" lon="5.85591">
        <ele>1329.052573</ele>
        <time>2026-08-29T09:09:02.000Z</time>
      </trkpt>
      <trkpt lat="45.02957" lon="5.85593">
        <ele>1329.099009</ele>
        <time>2026-08-29T09:09:03.000Z</time>
      </trkpt>
      <trkpt lat="45.02953" lon="5.85596">
        <ele>1329.14567</ele>
        <time>2026-08-29T09:09:04.000Z</time>
      </trkpt>
      <trkpt lat="45.02948" lon="5.85599">
        <ele>1329.1928</ele>
        <time>2026-08-29T09:09:05.000Z</time>
      </trkpt>
      <trkpt lat="45.02943" lon="5.85602">
        <ele>1329.23887</ele>
        <time>2026-08-29T09:09:06.000Z</time>
      </trkpt>
      <trkpt lat="45.02938" lon="5.85605">
        <ele>1329.28978</ele>
        <time>2026-08-29T09:09:07.000Z</time>
      </trkpt>
      <trkpt lat="45.02933" lon="5.85608">
        <ele>1329.369454</ele>
        <time>2026-08-29T09:09:08.000Z</time>
      </trkpt>
      <trkpt lat="45.02928" lon="5.85611">
        <ele>1329.447756</ele>
        <time>2026-08-29T09:09:09.000Z</time>
      </trkpt>
      <trkpt lat="45.02924" lon="5.85614">
        <ele>1329.526516</ele>
        <time>2026-08-29T09:09:10.000Z</time>
      </trkpt>
      <trkpt lat="45.02919" lon="5.85617">
        <ele>1329.603918</ele>
        <time>2026-08-29T09:09:11.000Z</time>
      </trkpt>
      <trkpt lat="45.02915" lon="5.85621">
        <ele>1329.680949</ele>
        <time>2026-08-29T09:09:12.000Z</time>
      </trkpt>
      <trkpt lat="45.0291" lon="5.85624">
        <ele>1329.755099</ele>
        <time>2026-08-29T09:09:13.000Z</time>
      </trkpt>
      <trkpt lat="45.02906" lon="5.85628">
        <ele>1329.827261</ele>
        <time>2026-08-29T09:09:14.000Z</time>
      </trkpt>
      <trkpt lat="45.02902" lon="5.85631">
        <ele>1329.898278</ele>
        <time>2026-08-29T09:09:15.000Z</time>
      </trkpt>
      <trkpt lat="45.02898" lon="5.85635">
        <ele>1329.970441</ele>
        <time>2026-08-29T09:09:16.000Z</time>
      </trkpt>
      <trkpt lat="45.02894" lon="5.85639">
        <ele>1330.043793</ele>
        <time>2026-08-29T09:09:17.000Z</time>
      </trkpt>
      <trkpt lat="45.02891" lon="5.85643">
        <ele>1330.1178</ele>
        <time>2026-08-29T09:09:18.000Z</time>
      </trkpt>
      <trkpt lat="45.02887" lon="5.85647">
        <ele>1330.191167</ele>
        <time>2026-08-29T09:09:19.000Z</time>
      </trkpt>
      <trkpt lat="45.02883" lon="5.85651">
        <ele>1330.262053</ele>
        <time>2026-08-29T09:09:20.000Z</time>
      </trkpt>
      <trkpt lat="45.02879" lon="5.85655">
        <ele>1330.333681</ele>
        <time>2026-08-29T09:09:21.000Z</time>
      </trkpt>
      <trkpt lat="45.02875" lon="5.8566">
        <ele>1330.405982</ele>
        <time>2026-08-29T09:09:22.000Z</time>
      </trkpt>
      <trkpt lat="45.02872" lon="5.85664">
        <ele>1330.479228</ele>
        <time>2026-08-29T09:09:23.000Z</time>
      </trkpt>
      <trkpt lat="45.02868" lon="5.85669">
        <ele>1330.554658</ele>
        <time>2026-08-29T09:09:24.000Z</time>
      </trkpt>
      <trkpt lat="45.02865" lon="5.85675">
        <ele>1330.630843</ele>
        <time>2026-08-29T09:09:25.000Z</time>
      </trkpt>
      <trkpt lat="45.02862" lon="5.8568">
        <ele>1330.703344</ele>
        <time>2026-08-29T09:09:26.000Z</time>
      </trkpt>
      <trkpt lat="45.0286" lon="5.85686">
        <ele>1330.777547</ele>
        <time>2026-08-29T09:09:27.000Z</time>
      </trkpt>
      <trkpt lat="45.02857" lon="5.85692">
        <ele>1330.8528</ele>
        <time>2026-08-29T09:09:28.000Z</time>
      </trkpt>
      <trkpt lat="45.02855" lon="5.85698">
        <ele>1330.922633</ele>
        <time>2026-08-29T09:09:29.000Z</time>
      </trkpt>
      <trkpt lat="45.02853" lon="5.85704">
        <ele>1330.997141</ele>
        <time>2026-08-29T09:09:30.000Z</time>
      </trkpt>
      <trkpt lat="45.0285" lon="5.8571">
        <ele>1331.074708</ele>
        <time>2026-08-29T09:09:31.000Z</time>
      </trkpt>
      <trkpt lat="45.02847" lon="5.85716">
        <ele>1331.151465</ele>
        <time>2026-08-29T09:09:32.000Z</time>
      </trkpt>
      <trkpt lat="45.02844" lon="5.85721">
        <ele>1331.225857</ele>
        <time>2026-08-29T09:09:33.000Z</time>
      </trkpt>
      <trkpt lat="45.0284" lon="5.85727">
        <ele>1331.299441</ele>
        <time>2026-08-29T09:09:34.000Z</time>
      </trkpt>
      <trkpt lat="45.02837" lon="5.85732">
        <ele>1331.373025</ele>
        <time>2026-08-29T09:09:35.000Z</time>
      </trkpt>
      <trkpt lat="45.02834" lon="5.85737">
        <ele>1331.446608</ele>
        <time>2026-08-29T09:09:36.000Z</time>
      </trkpt>
      <trkpt lat="45.02831" lon="5.85742">
        <ele>1331.520402</ele>
        <time>2026-08-29T09:09:37.000Z</time>
      </trkpt>
      <trkpt lat="45.02828" lon="5.85747">
        <ele>1331.593003</ele>
        <time>2026-08-29T09:09:38.000Z</time>
      </trkpt>
      <trkpt lat="45.02825" lon="5.85752">
        <ele>1331.665604</ele>
        <time>2026-08-29T09:09:39.000Z</time>
      </trkpt>
      <trkpt lat="45.02821" lon="5.85758">
        <ele>1331.739024</ele>
        <time>2026-08-29T09:09:40.000Z</time>
      </trkpt>
      <trkpt lat="45.02818" lon="5.85763">
        <ele>1331.813846</ele>
        <time>2026-08-29T09:09:41.000Z</time>
      </trkpt>
      <trkpt lat="45.02814" lon="5.85767">
        <ele>1331.887092</ele>
        <time>2026-08-29T09:09:42.000Z</time>
      </trkpt>
      <trkpt lat="45.02811" lon="5.85772">
        <ele>1331.959393</ele>
        <time>2026-08-29T09:09:43.000Z</time>
      </trkpt>
      <trkpt lat="45.02807" lon="5.85776">
        <ele>1332.050044</ele>
        <time>2026-08-29T09:09:44.000Z</time>
      </trkpt>
      <trkpt lat="45.02803" lon="5.85779">
        <ele>1332.157981</ele>
        <time>2026-08-29T09:09:45.000Z</time>
      </trkpt>
      <trkpt lat="45.02799" lon="5.85783">
        <ele>1332.267039</ele>
        <time>2026-08-29T09:09:46.000Z</time>
      </trkpt>
      <trkpt lat="45.02795" lon="5.85786">
        <ele>1332.374168</ele>
        <time>2026-08-29T09:09:47.000Z</time>
      </trkpt>
      <trkpt lat="45.02791" lon="5.85789">
        <ele>1332.481298</ele>
        <time>2026-08-29T09:09:48.000Z</time>
      </trkpt>
      <trkpt lat="45.02787" lon="5.85791">
        <ele>1332.586991</ele>
        <time>2026-08-29T09:09:49.000Z</time>
      </trkpt>
      <trkpt lat="45.02783" lon="5.85794">
        <ele>1332.693392</ele>
        <time>2026-08-29T09:09:50.000Z</time>
      </trkpt>
      <trkpt lat="45.02779" lon="5.85797">
        <ele>1332.799983</ele>
        <time>2026-08-29T09:09:51.000Z</time>
      </trkpt>
      <trkpt lat="45.02774" lon="5.858">
        <ele>1332.908494</ele>
        <time>2026-08-29T09:09:52.000Z</time>
      </trkpt>
      <trkpt lat="45.0277" lon="5.85802">
        <ele>1333.008824</ele>
        <time>2026-08-29T09:09:53.000Z</time>
      </trkpt>
      <trkpt lat="45.02766" lon="5.85803">
        <ele>1333.112331</ele>
        <time>2026-08-29T09:09:54.000Z</time>
      </trkpt>
      <trkpt lat="45.02762" lon="5.85804">
        <ele>1333.214764</ele>
        <time>2026-08-29T09:09:55.000Z</time>
      </trkpt>
      <trkpt lat="45.02757" lon="5.85805">
        <ele>1333.320569</ele>
        <time>2026-08-29T09:09:56.000Z</time>
      </trkpt>
      <trkpt lat="45.02752" lon="5.85806">
        <ele>1333.433056</ele>
        <time>2026-08-29T09:09:57.000Z</time>
      </trkpt>
      <trkpt lat="45.02748" lon="5.85806">
        <ele>1333.543014</ele>
        <time>2026-08-29T09:09:58.000Z</time>
      </trkpt>
      <trkpt lat="45.02743" lon="5.85806">
        <ele>1333.655209</ele>
        <time>2026-08-29T09:09:59.000Z</time>
      </trkpt>
      <trkpt lat="45.02738" lon="5.85806">
        <ele>1333.769836</ele>
        <time>2026-08-29T09:10:00.000Z</time>
      </trkpt>
      <trkpt lat="45.02733" lon="5.85806">
        <ele>1333.884404</ele>
        <time>2026-08-29T09:10:01.000Z</time>
      </trkpt>
      <trkpt lat="45.02728" lon="5.85805">
        <ele>1333.996599</ele>
        <time>2026-08-29T09:10:02.000Z</time>
      </trkpt>
      <trkpt lat="45.02723" lon="5.85806">
        <ele>1334.113503</ele>
        <time>2026-08-29T09:10:03.000Z</time>
      </trkpt>
      <trkpt lat="45.02719" lon="5.85806">
        <ele>1334.226281</ele>
        <time>2026-08-29T09:10:04.000Z</time>
      </trkpt>
      <trkpt lat="45.02714" lon="5.85808">
        <ele>1334.340823</ele>
        <time>2026-08-29T09:10:05.000Z</time>
      </trkpt>
      <trkpt lat="45.02709" lon="5.8581">
        <ele>1334.450577</ele>
        <time>2026-08-29T09:10:06.000Z</time>
      </trkpt>
      <trkpt lat="45.02705" lon="5.85812">
        <ele>1334.556893</ele>
        <time>2026-08-29T09:10:07.000Z</time>
      </trkpt>
      <trkpt lat="45.02701" lon="5.85814">
        <ele>1334.665544</ele>
        <time>2026-08-29T09:10:08.000Z</time>
      </trkpt>
      <trkpt lat="45.02697" lon="5.85817">
        <ele>1334.773422</ele>
        <time>2026-08-29T09:10:09.000Z</time>
      </trkpt>
      <trkpt lat="45.02693" lon="5.8582">
        <ele>1334.874183</ele>
        <time>2026-08-29T09:10:10.000Z</time>
      </trkpt>
      <trkpt lat="45.02689" lon="5.85823">
        <ele>1334.977762</ele>
        <time>2026-08-29T09:10:11.000Z</time>
      </trkpt>
      <trkpt lat="45.02685" lon="5.85825">
        <ele>1335.079237</ele>
        <time>2026-08-29T09:10:12.000Z</time>
      </trkpt>
      <trkpt lat="45.02681" lon="5.85828">
        <ele>1335.180939</ele>
        <time>2026-08-29T09:10:13.000Z</time>
      </trkpt>
      <trkpt lat="45.02678" lon="5.85831">
        <ele>1335.274588</ele>
        <time>2026-08-29T09:10:14.000Z</time>
      </trkpt>
      <trkpt lat="45.02674" lon="5.85834">
        <ele>1335.364304</ele>
        <time>2026-08-29T09:10:15.000Z</time>
      </trkpt>
      <trkpt lat="45.02671" lon="5.85837">
        <ele>1335.461697</ele>
        <time>2026-08-29T09:10:16.000Z</time>
      </trkpt>
      <trkpt lat="45.02668" lon="5.8584">
        <ele>1335.547653</ele>
        <time>2026-08-29T09:10:17.000Z</time>
      </trkpt>
      <trkpt lat="45.02665" lon="5.85843">
        <ele>1335.637337</ele>
        <time>2026-08-29T09:10:18.000Z</time>
      </trkpt>
      <trkpt lat="45.02661" lon="5.85847">
        <ele>1335.729915</ele>
        <time>2026-08-29T09:10:19.000Z</time>
      </trkpt>
      <trkpt lat="45.02659" lon="5.8585">
        <ele>1335.815084</ele>
        <time>2026-08-29T09:10:20.000Z</time>
      </trkpt>
      <trkpt lat="45.02655" lon="5.85854">
        <ele>1335.926776</ele>
        <time>2026-08-29T09:10:21.000Z</time>
      </trkpt>
      <trkpt lat="45.02651" lon="5.85858">
        <ele>1336.032974</ele>
        <time>2026-08-29T09:10:22.000Z</time>
      </trkpt>
      <trkpt lat="45.02647" lon="5.85861">
        <ele>1336.134134</ele>
        <time>2026-08-29T09:10:23.000Z</time>
      </trkpt>
      <trkpt lat="45.02644" lon="5.85865">
        <ele>1336.246952</ele>
        <time>2026-08-29T09:10:24.000Z</time>
      </trkpt>
      <trkpt lat="45.02641" lon="5.85868">
        <ele>1336.40989</ele>
        <time>2026-08-29T09:10:25.000Z</time>
      </trkpt>
      <trkpt lat="45.02638" lon="5.85872">
        <ele>1336.569749</ele>
        <time>2026-08-29T09:10:26.000Z</time>
      </trkpt>
      <trkpt lat="45.02635" lon="5.85875">
        <ele>1336.726228</ele>
        <time>2026-08-29T09:10:27.000Z</time>
      </trkpt>
      <trkpt lat="45.02631" lon="5.85879">
        <ele>1336.887821</ele>
        <time>2026-08-29T09:10:28.000Z</time>
      </trkpt>
      <trkpt lat="45.02628" lon="5.85883">
        <ele>1337.052461</ele>
        <time>2026-08-29T09:10:29.000Z</time>
      </trkpt>
      <trkpt lat="45.02625" lon="5.85886">
        <ele>1337.217608</ele>
        <time>2026-08-29T09:10:30.000Z</time>
      </trkpt>
      <trkpt lat="45.02622" lon="5.8589">
        <ele>1337.383978</ele>
        <time>2026-08-29T09:10:31.000Z</time>
      </trkpt>
      <trkpt lat="45.02618" lon="5.85894">
        <ele>1337.550942</ele>
        <time>2026-08-29T09:10:32.000Z</time>
      </trkpt>
      <trkpt lat="45.02615" lon="5.85898">
        <ele>1337.712535</ele>
        <time>2026-08-29T09:10:33.000Z</time>
      </trkpt>
      <trkpt lat="45.02612" lon="5.85902">
        <ele>1337.875473</ele>
        <time>2026-08-29T09:10:34.000Z</time>
      </trkpt>
      <trkpt lat="45.02609" lon="5.85905">
        <ele>1338.040113</ele>
        <time>2026-08-29T09:10:35.000Z</time>
      </trkpt>
      <trkpt lat="45.02605" lon="5.85909">
        <ele>1338.196931</ele>
        <time>2026-08-29T09:10:36.000Z</time>
      </trkpt>
      <trkpt lat="45.02602" lon="5.85912">
        <ele>1338.355085</ele>
        <time>2026-08-29T09:10:37.000Z</time>
      </trkpt>
      <trkpt lat="45.02599" lon="5.85916">
        <ele>1338.515466</ele>
        <time>2026-08-29T09:10:38.000Z</time>
      </trkpt>
      <trkpt lat="45.02596" lon="5.8592">
        <ele>1338.672913</ele>
        <time>2026-08-29T09:10:39.000Z</time>
      </trkpt>
      <trkpt lat="45.02593" lon="5.85924">
        <ele>1338.83036</ele>
        <time>2026-08-29T09:10:40.000Z</time>
      </trkpt>
      <trkpt lat="45.0259" lon="5.85927">
        <ele>1338.984175</ele>
        <time>2026-08-29T09:10:41.000Z</time>
      </trkpt>
      <trkpt lat="45.02587" lon="5.85931">
        <ele>1339.139254</ele>
        <time>2026-08-29T09:10:42.000Z</time>
      </trkpt>
      <trkpt lat="45.02584" lon="5.85934">
        <ele>1339.291296</ele>
        <time>2026-08-29T09:10:43.000Z</time>
      </trkpt>
      <trkpt lat="45.02581" lon="5.85938">
        <ele>1339.452891</ele>
        <time>2026-08-29T09:10:44.000Z</time>
      </trkpt>
      <trkpt lat="45.02578" lon="5.85942">
        <ele>1339.609337</ele>
        <time>2026-08-29T09:10:45.000Z</time>
      </trkpt>
      <trkpt lat="45.02575" lon="5.85946">
        <ele>1339.763893</ele>
        <time>2026-08-29T09:10:46.000Z</time>
      </trkpt>
      <trkpt lat="45.02572" lon="5.85949">
        <ele>1339.920711</ele>
        <time>2026-08-29T09:10:47.000Z</time>
      </trkpt>
      <trkpt lat="45.02569" lon="5.85953">
        <ele>1340.078866</ele>
        <time>2026-08-29T09:10:48.000Z</time>
      </trkpt>
      <trkpt lat="45.02566" lon="5.85956">
        <ele>1340.227453</ele>
        <time>2026-08-29T09:10:49.000Z</time>
      </trkpt>
      <trkpt lat="45.02563" lon="5.85959">
        <ele>1340.369947</ele>
        <time>2026-08-29T09:10:50.000Z</time>
      </trkpt>
      <trkpt lat="45.0256" lon="5.85963">
        <ele>1340.509459</ele>
        <time>2026-08-29T09:10:51.000Z</time>
      </trkpt>
      <trkpt lat="45.02557" lon="5.85966">
        <ele>1340.65498</ele>
        <time>2026-08-29T09:10:52.000Z</time>
      </trkpt>
      <trkpt lat="45.02554" lon="5.85969">
        <ele>1340.798784</ele>
        <time>2026-08-29T09:10:53.000Z</time>
      </trkpt>
      <trkpt lat="45.02552" lon="5.85973">
        <ele>1340.941971</ele>
        <time>2026-08-29T09:10:54.000Z</time>
      </trkpt>
      <trkpt lat="45.02549" lon="5.85976">
        <ele>1341.088065</ele>
        <time>2026-08-29T09:10:55.000Z</time>
      </trkpt>
      <trkpt lat="45.02546" lon="5.8598">
        <ele>1341.235042</ele>
        <time>2026-08-29T09:10:56.000Z</time>
      </trkpt>
      <trkpt lat="45.02544" lon="5.85984">
        <ele>1341.382019</ele>
        <time>2026-08-29T09:10:57.000Z</time>
      </trkpt>
      <trkpt lat="45.02541" lon="5.85988">
        <ele>1341.530185</ele>
        <time>2026-08-29T09:10:58.000Z</time>
      </trkpt>
      <trkpt lat="45.02538" lon="5.85992">
        <ele>1341.682419</ele>
        <time>2026-08-29T09:10:59.000Z</time>
      </trkpt>
      <trkpt lat="45.02536" lon="5.85996">
        <ele>1341.835281</ele>
        <time>2026-08-29T09:11:00.000Z</time>
      </trkpt>
      <trkpt lat="45.02533" lon="5.86">
        <ele>1341.982407</ele>
        <time>2026-08-29T09:11:01.000Z</time>
      </trkpt>
      <trkpt lat="45.02531" lon="5.86004">
        <ele>1342.133831</ele>
        <time>2026-08-29T09:11:02.000Z</time>
      </trkpt>
      <trkpt lat="45.02528" lon="5.86008">
        <ele>1342.283097</ele>
        <time>2026-08-29T09:11:03.000Z</time>
      </trkpt>
      <trkpt lat="45.02526" lon="5.86013">
        <ele>1342.43213</ele>
        <time>2026-08-29T09:11:04.000Z</time>
      </trkpt>
      <trkpt lat="45.02524" lon="5.86017">
        <ele>1342.583554</ele>
        <time>2026-08-29T09:11:05.000Z</time>
      </trkpt>
      <trkpt lat="45.02522" lon="5.86021">
        <ele>1342.732508</ele>
        <time>2026-08-29T09:11:06.000Z</time>
      </trkpt>
      <trkpt lat="45.02519" lon="5.86026">
        <ele>1342.881537</ele>
        <time>2026-08-29T09:11:07.000Z</time>
      </trkpt>
      <trkpt lat="45.02517" lon="5.8603">
        <ele>1343.030491</ele>
        <time>2026-08-29T09:11:08.000Z</time>
      </trkpt>
      <trkpt lat="45.02515" lon="5.86034">
        <ele>1343.179757</ele>
        <time>2026-08-29T09:11:09.000Z</time>
      </trkpt>
      <trkpt lat="45.02512" lon="5.86039">
        <ele>1343.268746</ele>
        <time>2026-08-29T09:11:10.000Z</time>
      </trkpt>
      <trkpt lat="45.0251" lon="5.86043">
        <ele>1343.321079</ele>
        <time>2026-08-29T09:11:11.000Z</time>
      </trkpt>
      <trkpt lat="45.02508" lon="5.86047">
        <ele>1343.373411</ele>
        <time>2026-08-29T09:11:12.000Z</time>
      </trkpt>
      <trkpt lat="45.02506" lon="5.86052">
        <ele>1343.425039</ele>
        <time>2026-08-29T09:11:13.000Z</time>
      </trkpt>
      <trkpt lat="45.02504" lon="5.86056">
        <ele>1343.475814</ele>
        <time>2026-08-29T09:11:14.000Z</time>
      </trkpt>
      <trkpt lat="45.02502" lon="5.8606">
        <ele>1343.528147</ele>
        <time>2026-08-29T09:11:15.000Z</time>
      </trkpt>
      <trkpt lat="45.025" lon="5.86064">
        <ele>1343.579687</ele>
        <time>2026-08-29T09:11:16.000Z</time>
      </trkpt>
      <trkpt lat="45.02499" lon="5.86068">
        <ele>1343.626421</ele>
        <time>2026-08-29T09:11:17.000Z</time>
      </trkpt>
      <trkpt lat="45.02497" lon="5.86073">
        <ele>1343.675077</ele>
        <time>2026-08-29T09:11:18.000Z</time>
      </trkpt>
      <trkpt lat="45.02496" lon="5.86077">
        <ele>1343.720071</ele>
        <time>2026-08-29T09:11:19.000Z</time>
      </trkpt>
      <trkpt lat="45.02494" lon="5.86081">
        <ele>1343.763502</ele>
        <time>2026-08-29T09:11:20.000Z</time>
      </trkpt>
      <trkpt lat="45.02493" lon="5.86084">
        <ele>1343.800942</ele>
        <time>2026-08-29T09:11:21.000Z</time>
      </trkpt>
      <trkpt lat="45.02492" lon="5.86087">
        <ele>1343.839892</ele>
        <time>2026-08-29T09:11:22.000Z</time>
      </trkpt>
      <trkpt lat="45.02491" lon="5.86091">
        <ele>1343.877943</ele>
        <time>2026-08-29T09:11:23.000Z</time>
      </trkpt>
      <trkpt lat="45.02489" lon="5.86094">
        <ele>1343.914779</ele>
        <time>2026-08-29T09:11:24.000Z</time>
      </trkpt>
      <trkpt lat="45.02487" lon="5.86097">
        <ele>1343.951738</ele>
        <time>2026-08-29T09:11:25.000Z</time>
      </trkpt>
      <trkpt lat="45.02486" lon="5.86099">
        <ele>1343.98772</ele>
        <time>2026-08-29T09:11:26.000Z</time>
      </trkpt>
      <trkpt lat="45.02484" lon="5.86102">
        <ele>1344.024556</ele>
        <time>2026-08-29T09:11:27.000Z</time>
      </trkpt>
      <trkpt lat="45.02483" lon="5.86105">
        <ele>1344.058324</ele>
        <time>2026-08-29T09:11:28.000Z</time>
      </trkpt>
      <trkpt lat="45.02481" lon="5.86107">
        <ele>1344.086509</ele>
        <time>2026-08-29T09:11:29.000Z</time>
      </trkpt>
      <trkpt lat="45.0248" lon="5.86109">
        <ele>1344.11446</ele>
        <time>2026-08-29T09:11:30.000Z</time>
      </trkpt>
      <trkpt lat="45.02479" lon="5.86111">
        <ele>1344.140783</ele>
        <time>2026-08-29T09:11:31.000Z</time>
      </trkpt>
      <trkpt lat="45.02478" lon="5.86113">
        <ele>1344.166955</ele>
        <time>2026-08-29T09:11:32.000Z</time>
      </trkpt>
      <trkpt lat="45.02476" lon="5.86115">
        <ele>1344.191366</ele>
        <time>2026-08-29T09:11:33.000Z</time>
      </trkpt>
      <trkpt lat="45.02475" lon="5.86114">
        <ele>1344.21315</ele>
        <time>2026-08-29T09:11:34.000Z</time>
      </trkpt>
      <trkpt lat="45.02475" lon="5.86112">
        <ele>1344.230143</ele>
        <time>2026-08-29T09:11:35.000Z</time>
      </trkpt>
      <trkpt lat="45.02476" lon="5.8611">
        <ele>1344.248083</ele>
        <time>2026-08-29T09:11:36.000Z</time>
      </trkpt>
      <trkpt lat="45.02476" lon="5.86109">
        <ele>1344.265339</ele>
        <time>2026-08-29T09:11:37.000Z</time>
      </trkpt>
      <trkpt lat="45.02476" lon="5.86107">
        <ele>1344.283417</ele>
        <time>2026-08-29T09:11:38.000Z</time>
      </trkpt>
      <trkpt lat="45.02476" lon="5.86106">
        <ele>1344.294431</ele>
        <time>2026-08-29T09:11:39.000Z</time>
      </trkpt>
      <trkpt lat="45.02476" lon="5.86105">
        <ele>1344.299634</ele>
        <time>2026-08-29T09:11:40.000Z</time>
      </trkpt>
      <trkpt lat="45.02477" lon="5.86105">
        <ele>1344.311143</ele>
        <time>2026-08-29T09:11:42.000Z</time>
      </trkpt>
      <trkpt lat="45.02477" lon="5.86105">
        <ele>1344.315841</ele>
        <time>2026-08-29T09:11:43.000Z</time>
      </trkpt>
      <trkpt lat="45.02477" lon="5.861">
        <ele>1344.366403</ele>
        <time>2026-08-29T09:11:54.000Z</time>
      </trkpt>
      <trkpt lat="45.02477" lon="5.86099">
        <ele>1344.376416</ele>
        <time>2026-08-29T09:11:55.000Z</time>
      </trkpt>
      <trkpt lat="45.02477" lon="5.86099">
        <ele>1344.383424</ele>
        <time>2026-08-29T09:11:56.000Z</time>
      </trkpt>
      <trkpt lat="45.02479" lon="5.86098">
        <ele>1344.412039</ele>
        <time>2026-08-29T09:12:00.000Z</time>
      </trkpt>
      <trkpt lat="45.02479" lon="5.86099">
        <ele>1344.423055</ele>
        <time>2026-08-29T09:12:01.000Z</time>
      </trkpt>
      <trkpt lat="45.02479" lon="5.861">
        <ele>1344.430064</ele>
        <time>2026-08-29T09:12:02.000Z</time>
      </trkpt>
      <trkpt lat="45.02479" lon="5.861">
        <ele>1344.436237</ele>
        <time>2026-08-29T09:12:03.000Z</time>
      </trkpt>
      <trkpt lat="45.02481" lon="5.86102">
        <ele>1344.464758</ele>
        <time>2026-08-29T09:40:19.000Z</time>
      </trkpt>
      <trkpt lat="45.02481" lon="5.86103">
        <ele>1344.474721</ele>
        <time>2026-08-29T09:40:20.000Z</time>
      </trkpt>
      <trkpt lat="45.02481" lon="5.86104">
        <ele>1344.485127</ele>
        <time>2026-08-29T09:40:21.000Z</time>
      </trkpt>
      <trkpt lat="45.02481" lon="5.86104">
        <ele>1344.489256</ele>
        <time>2026-08-29T09:40:22.000Z</time>
      </trkpt>
      <trkpt lat="45.02477" lon="5.86108">
        <ele>1344.556339</ele>
        <time>2026-08-29T09:40:34.000Z</time>
      </trkpt>
      <trkpt lat="45.02476" lon="5.8611">
        <ele>1344.58093</ele>
        <time>2026-08-29T09:40:35.000Z</time>
      </trkpt>
      <trkpt lat="45.02474" lon="5.86112">
        <ele>1344.611621</ele>
        <time>2026-08-29T09:40:36.000Z</time>
      </trkpt>
      <trkpt lat="45.02472" lon="5.86114">
        <ele>1344.644258</ele>
        <time>2026-08-29T09:40:37.000Z</time>
      </trkpt>
      <trkpt lat="45.0247" lon="5.86116">
        <ele>1344.679296</ele>
        <time>2026-08-29T09:40:38.000Z</time>
      </trkpt>
      <trkpt lat="45.02469" lon="5.86119">
        <ele>1344.715278</ele>
        <time>2026-08-29T09:40:39.000Z</time>
      </trkpt>
      <trkpt lat="45.02468" lon="5.86122">
        <ele>1344.749663</ele>
        <time>2026-08-29T09:40:40.000Z</time>
      </trkpt>
      <trkpt lat="45.02466" lon="5.86125">
        <ele>1344.788307</ele>
        <time>2026-08-29T09:40:41.000Z</time>
      </trkpt>
      <trkpt lat="45.02464" lon="5.86128">
        <ele>1344.829599</ele>
        <time>2026-08-29T09:40:42.000Z</time>
      </trkpt>
      <trkpt lat="45.02462" lon="5.86132">
        <ele>1344.877112</ele>
        <time>2026-08-29T09:40:43.000Z</time>
      </trkpt>
      <trkpt lat="45.0246" lon="5.86136">
        <ele>1344.927003</ele>
        <time>2026-08-29T09:40:44.000Z</time>
      </trkpt>
      <trkpt lat="45.02457" lon="5.8614">
        <ele>1344.976186</ele>
        <time>2026-08-29T09:40:45.000Z</time>
      </trkpt>
      <trkpt lat="45.02455" lon="5.86143">
        <ele>1345.028166</ele>
        <time>2026-08-29T09:40:46.000Z</time>
      </trkpt>
      <trkpt lat="45.02452" lon="5.86147">
        <ele>1345.080042</ele>
        <time>2026-08-29T09:40:47.000Z</time>
      </trkpt>
      <trkpt lat="45.02449" lon="5.8615">
        <ele>1345.131918</ele>
        <time>2026-08-29T09:40:48.000Z</time>
      </trkpt>
      <trkpt lat="45.02447" lon="5.86154">
        <ele>1345.183694</ele>
        <time>2026-08-29T09:40:49.000Z</time>
      </trkpt>
      <trkpt lat="45.02445" lon="5.86158">
        <ele>1345.23623</ele>
        <time>2026-08-29T09:40:50.000Z</time>
      </trkpt>
      <trkpt lat="45.02442" lon="5.86162">
        <ele>1345.287861</ele>
        <time>2026-08-29T09:40:51.000Z</time>
      </trkpt>
      <trkpt lat="45.0244" lon="5.86166">
        <ele>1345.340102</ele>
        <time>2026-08-29T09:40:52.000Z</time>
      </trkpt>
      <trkpt lat="45.02437" lon="5.8617">
        <ele>1345.392343</ele>
        <time>2026-08-29T09:40:53.000Z</time>
      </trkpt>
      <trkpt lat="45.02435" lon="5.86174">
        <ele>1345.446755</ele>
        <time>2026-08-29T09:40:54.000Z</time>
      </trkpt>
      <trkpt lat="45.02432" lon="5.86178">
        <ele>1345.499711</ele>
        <time>2026-08-29T09:40:55.000Z</time>
      </trkpt>
      <trkpt lat="45.02429" lon="5.86181">
        <ele>1345.552667</ele>
        <time>2026-08-29T09:40:56.000Z</time>
      </trkpt>
      <trkpt lat="45.02427" lon="5.86185">
        <ele>1345.605224</ele>
        <time>2026-08-29T09:40:57.000Z</time>
      </trkpt>
      <trkpt lat="45.02424" lon="5.86188">
        <ele>1345.656065</ele>
        <time>2026-08-29T09:40:58.000Z</time>
      </trkpt>
      <trkpt lat="45.02422" lon="5.86192">
        <ele>1345.707695</ele>
        <time>2026-08-29T09:40:59.000Z</time>
      </trkpt>
      <trkpt lat="45.0242" lon="5.86197">
        <ele>1345.76122</ele>
        <time>2026-08-29T09:41:00.000Z</time>
      </trkpt>
      <trkpt lat="45.02418" lon="5.86202">
        <ele>1345.76129</ele>
        <time>2026-08-29T09:41:01.000Z</time>
      </trkpt>
      <trkpt lat="45.02416" lon="5.86205">
        <ele>1345.725729</ele>
        <time>2026-08-29T09:41:02.000Z</time>
      </trkpt>
      <trkpt lat="45.02414" lon="5.86209">
        <ele>1345.691338</ele>
        <time>2026-08-29T09:41:03.000Z</time>
      </trkpt>
      <trkpt lat="45.02411" lon="5.86213">
        <ele>1345.656179</ele>
        <time>2026-08-29T09:41:04.000Z</time>
      </trkpt>
      <trkpt lat="45.02409" lon="5.86217">
        <ele>1345.61965</ele>
        <time>2026-08-29T09:41:05.000Z</time>
      </trkpt>
      <trkpt lat="45.02406" lon="5.8622">
        <ele>1345.584316</ele>
        <time>2026-08-29T09:41:06.000Z</time>
      </trkpt>
      <trkpt lat="45.02404" lon="5.86224">
        <ele>1345.55034</ele>
        <time>2026-08-29T09:41:07.000Z</time>
      </trkpt>
      <trkpt lat="45.02402" lon="5.86227">
        <ele>1345.517021</ele>
        <time>2026-08-29T09:41:08.000Z</time>
      </trkpt>
      <trkpt lat="45.02399" lon="5.86231">
        <ele>1345.483046</ele>
        <time>2026-08-29T09:41:09.000Z</time>
      </trkpt>
      <trkpt lat="45.02397" lon="5.86234">
        <ele>1345.448697</ele>
        <time>2026-08-29T09:41:10.000Z</time>
      </trkpt>
      <trkpt lat="45.02394" lon="5.86238">
        <ele>1345.412423</ele>
        <time>2026-08-29T09:41:11.000Z</time>
      </trkpt>
      <trkpt lat="45.02392" lon="5.86242">
        <ele>1345.376586</ele>
        <time>2026-08-29T09:41:12.000Z</time>
      </trkpt>
      <trkpt lat="45.02389" lon="5.86245">
        <ele>1345.340907</ele>
        <time>2026-08-29T09:41:13.000Z</time>
      </trkpt>
      <trkpt lat="45.02387" lon="5.86249">
        <ele>1345.305228</ele>
        <time>2026-08-29T09:41:14.000Z</time>
      </trkpt>
      <trkpt lat="45.02384" lon="5.86253">
        <ele>1345.268366</ele>
        <time>2026-08-29T09:41:15.000Z</time>
      </trkpt>
      <trkpt lat="45.02382" lon="5.86257">
        <ele>1345.229922</ele>
        <time>2026-08-29T09:41:16.000Z</time>
      </trkpt>
      <trkpt lat="45.02379" lon="5.86262">
        <ele>1345.190304</ele>
        <time>2026-08-29T09:41:17.000Z</time>
      </trkpt>
      <trkpt lat="45.02376" lon="5.86266">
        <ele>1345.151579</ele>
        <time>2026-08-29T09:41:18.000Z</time>
      </trkpt>
      <trkpt lat="45.02374" lon="5.8627">
        <ele>1345.114845</ele>
        <time>2026-08-29T09:41:19.000Z</time>
      </trkpt>
      <trkpt lat="45.02372" lon="5.86274">
        <ele>1345.07811</ele>
        <time>2026-08-29T09:41:20.000Z</time>
      </trkpt>
      <trkpt lat="45.02369" lon="5.86277">
        <ele>1345.041081</ele>
        <time>2026-08-29T09:41:21.000Z</time>
      </trkpt>
      <trkpt lat="45.02366" lon="5.86281">
        <ele>1345.003357</ele>
        <time>2026-08-29T09:41:22.000Z</time>
      </trkpt>
      <trkpt lat="45.02364" lon="5.86285">
        <ele>1344.966085</ele>
        <time>2026-08-29T09:41:23.000Z</time>
      </trkpt>
      <trkpt lat="45.02362" lon="5.8629">
        <ele>1344.928914</ele>
        <time>2026-08-29T09:41:24.000Z</time>
      </trkpt>
      <trkpt lat="45.02359" lon="5.86294">
        <ele>1344.89047</ele>
        <time>2026-08-29T09:41:25.000Z</time>
      </trkpt>
      <trkpt lat="45.02357" lon="5.86298">
        <ele>1344.851905</ele>
        <time>2026-08-29T09:41:26.000Z</time>
      </trkpt>
      <trkpt lat="45.02354" lon="5.86302">
        <ele>1344.811752</ele>
        <time>2026-08-29T09:41:27.000Z</time>
      </trkpt>
      <trkpt lat="45.02352" lon="5.86307">
        <ele>1344.771598</ele>
        <time>2026-08-29T09:41:28.000Z</time>
      </trkpt>
      <trkpt lat="45.02349" lon="5.86311">
        <ele>1344.729735</ele>
        <time>2026-08-29T09:41:29.000Z</time>
      </trkpt>
      <trkpt lat="45.02346" lon="5.86316">
        <ele>1344.686837</ele>
        <time>2026-08-29T09:41:30.000Z</time>
      </trkpt>
      <trkpt lat="45.02343" lon="5.86322">
        <ele>1344.639948</ele>
        <time>2026-08-29T09:41:31.000Z</time>
      </trkpt>
      <trkpt lat="45.0234" lon="5.86328">
        <ele>1344.587913</ele>
        <time>2026-08-29T09:41:32.000Z</time>
      </trkpt>
      <trkpt lat="45.02337" lon="5.86334">
        <ele>1344.530166</ele>
        <time>2026-08-29T09:41:33.000Z</time>
      </trkpt>
      <trkpt lat="45.02333" lon="5.86342">
        <ele>1344.468406</ele>
        <time>2026-08-29T09:41:34.000Z</time>
      </trkpt>
      <trkpt lat="45.02329" lon="5.86349">
        <ele>1344.401487</ele>
        <time>2026-08-29T09:41:35.000Z</time>
      </trkpt>
      <trkpt lat="45.02323" lon="5.86355">
        <ele>1344.329136</ele>
        <time>2026-08-29T09:41:36.000Z</time>
      </trkpt>
      <trkpt lat="45.02317" lon="5.86363">
        <ele>1344.251035</ele>
        <time>2026-08-29T09:41:37.000Z</time>
      </trkpt>
      <trkpt lat="45.02311" lon="5.86371">
        <ele>1344.171769</ele>
        <time>2026-08-29T09:41:38.000Z</time>
      </trkpt>
      <trkpt lat="45.02306" lon="5.86379">
        <ele>1344.091532</ele>
        <time>2026-08-29T09:41:39.000Z</time>
      </trkpt>
      <trkpt lat="45.023" lon="5.86386">
        <ele>1344.011066</ele>
        <time>2026-08-29T09:41:40.000Z</time>
      </trkpt>
      <trkpt lat="45.02293" lon="5.86394">
        <ele>1343.703258</ele>
        <time>2026-08-29T09:41:41.000Z</time>
      </trkpt>
      <trkpt lat="45.02287" lon="5.864">
        <ele>1343.373525</ele>
        <time>2026-08-29T09:41:42.000Z</time>
      </trkpt>
      <trkpt lat="45.0228" lon="5.86405">
        <ele>1343.044318</ele>
        <time>2026-08-29T09:41:43.000Z</time>
      </trkpt>
      <trkpt lat="45.02273" lon="5.8641">
        <ele>1342.729816</ele>
        <time>2026-08-29T09:41:44.000Z</time>
      </trkpt>
      <trkpt lat="45.02266" lon="5.86414">
        <ele>1342.415145</ele>
        <time>2026-08-29T09:41:45.000Z</time>
      </trkpt>
      <trkpt lat="45.02259" lon="5.86419">
        <ele>1342.105424</ele>
        <time>2026-08-29T09:41:46.000Z</time>
      </trkpt>
      <trkpt lat="45.02252" lon="5.86423">
        <ele>1341.78915</ele>
        <time>2026-08-29T09:41:47.000Z</time>
      </trkpt>
      <trkpt lat="45.02245" lon="5.86427">
        <ele>1341.466842</ele>
        <time>2026-08-29T09:41:48.000Z</time>
      </trkpt>
      <trkpt lat="45.02237" lon="5.86431">
        <ele>1341.132335</ele>
        <time>2026-08-29T09:41:49.000Z</time>
      </trkpt>
      <trkpt lat="45.0223" lon="5.86436">
        <ele>1340.795431</ele>
        <time>2026-08-29T09:41:50.000Z</time>
      </trkpt>
      <trkpt lat="45.02223" lon="5.86441">
        <ele>1340.461041</ele>
        <time>2026-08-29T09:41:51.000Z</time>
      </trkpt>
      <trkpt lat="45.02215" lon="5.86446">
        <ele>1340.101417</ele>
        <time>2026-08-29T09:41:52.000Z</time>
      </trkpt>
      <trkpt lat="45.02207" lon="5.86451">
        <ele>1339.737979</ele>
        <time>2026-08-29T09:41:53.000Z</time>
      </trkpt>
      <trkpt lat="45.02198" lon="5.86455">
        <ele>1339.370123</ele>
        <time>2026-08-29T09:41:54.000Z</time>
      </trkpt>
      <trkpt lat="45.0219" lon="5.8646">
        <ele>1338.996288</ele>
        <time>2026-08-29T09:41:55.000Z</time>
      </trkpt>
      <trkpt lat="45.02181" lon="5.86465">
        <ele>1338.612597</ele>
        <time>2026-08-29T09:41:56.000Z</time>
      </trkpt>
      <trkpt lat="45.02173" lon="5.8647">
        <ele>1338.223972</ele>
        <time>2026-08-29T09:41:57.000Z</time>
      </trkpt>
      <trkpt lat="45.02164" lon="5.86475">
        <ele>1337.825828</ele>
        <time>2026-08-29T09:41:58.000Z</time>
      </trkpt>
      <trkpt lat="45.02155" lon="5.86482">
        <ele>1337.41728</ele>
        <time>2026-08-29T09:41:59.000Z</time>
      </trkpt>
      <trkpt lat="45.02146" lon="5.86489">
        <ele>1337.005935</ele>
        <time>2026-08-29T09:42:00.000Z</time>
      </trkpt>
      <trkpt lat="45.02138" lon="5.86496">
        <ele>1336.589797</ele>
        <time>2026-08-29T09:42:01.000Z</time>
      </trkpt>
      <trkpt lat="45.0213" lon="5.86505">
        <ele>1335.912366</ele>
        <time>2026-08-29T09:42:02.000Z</time>
      </trkpt>
      <trkpt lat="45.02122" lon="5.86514">
        <ele>1335.185759</ele>
        <time>2026-08-29T09:42:03.000Z</time>
      </trkpt>
      <trkpt lat="45.02114" lon="5.86525">
        <ele>1334.447019</ele>
        <time>2026-08-29T09:42:04.000Z</time>
      </trkpt>
      <trkpt lat="45.02105" lon="5.86535">
        <ele>1333.68649</ele>
        <time>2026-08-29T09:42:05.000Z</time>
      </trkpt>
      <trkpt lat="45.02097" lon="5.86546">
        <ele>1332.904439</ele>
        <time>2026-08-29T09:42:06.000Z</time>
      </trkpt>
      <trkpt lat="45.02089" lon="5.86558">
        <ele>1332.101453</ele>
        <time>2026-08-29T09:42:07.000Z</time>
      </trkpt>
      <trkpt lat="45.02081" lon="5.8657">
        <ele>1331.276105</ele>
        <time>2026-08-29T09:42:08.000Z</time>
      </trkpt>
      <trkpt lat="45.02073" lon="5.86583">
        <ele>1330.43182</ele>
        <time>2026-08-29T09:42:09.000Z</time>
      </trkpt>
      <trkpt lat="45.02064" lon="5.86596">
        <ele>1329.578178</ele>
        <time>2026-08-29T09:42:10.000Z</time>
      </trkpt>
      <trkpt lat="45.02056" lon="5.86609">
        <ele>1328.714879</ele>
        <time>2026-08-29T09:42:11.000Z</time>
      </trkpt>
      <trkpt lat="45.02047" lon="5.86623">
        <ele>1327.838738</ele>
        <time>2026-08-29T09:42:12.000Z</time>
      </trkpt>
      <trkpt lat="45.02038" lon="5.86636">
        <ele>1326.948541</ele>
        <time>2026-08-29T09:42:13.000Z</time>
      </trkpt>
      <trkpt lat="45.02029" lon="5.8665">
        <ele>1326.053376</ele>
        <time>2026-08-29T09:42:14.000Z</time>
      </trkpt>
      <trkpt lat="45.02021" lon="5.86664">
        <ele>1325.131807</ele>
        <time>2026-08-29T09:42:15.000Z</time>
      </trkpt>
      <trkpt lat="45.02013" lon="5.86679">
        <ele>1324.202869</ele>
        <time>2026-08-29T09:42:16.000Z</time>
      </trkpt>
      <trkpt lat="45.02006" lon="5.86696">
        <ele>1323.213779</ele>
        <time>2026-08-29T09:42:17.000Z</time>
      </trkpt>
      <trkpt lat="45.02001" lon="5.86714">
        <ele>1322.203375</ele>
        <time>2026-08-29T09:42:18.000Z</time>
      </trkpt>
      <trkpt lat="45.01997" lon="5.86733">
        <ele>1321.176681</ele>
        <time>2026-08-29T09:42:19.000Z</time>
      </trkpt>
      <trkpt lat="45.01993" lon="5.86752">
        <ele>1320.155305</ele>
        <time>2026-08-29T09:42:20.000Z</time>
      </trkpt>
      <trkpt lat="45.01989" lon="5.86772">
        <ele>1319.108902</ele>
        <time>2026-08-29T09:42:21.000Z</time>
      </trkpt>
      <trkpt lat="45.01984" lon="5.86791">
        <ele>1318.028794</ele>
        <time>2026-08-29T09:42:22.000Z</time>
      </trkpt>
      <trkpt lat="45.01978" lon="5.8681">
        <ele>1316.959546</ele>
        <time>2026-08-29T09:42:23.000Z</time>
      </trkpt>
      <trkpt lat="45.01972" lon="5.8683">
        <ele>1315.868452</ele>
        <time>2026-08-29T09:42:24.000Z</time>
      </trkpt>
      <trkpt lat="45.01966" lon="5.86849">
        <ele>1314.80462</ele>
        <time>2026-08-29T09:42:25.000Z</time>
      </trkpt>
      <trkpt lat="45.01961" lon="5.86868">
        <ele>1313.736181</ele>
        <time>2026-08-29T09:42:26.000Z</time>
      </trkpt>
      <trkpt lat="45.01956" lon="5.86889">
        <ele>1312.624184</ele>
        <time>2026-08-29T09:42:27.000Z</time>
      </trkpt>
      <trkpt lat="45.01951" lon="5.8691">
        <ele>1311.478302</ele>
        <time>2026-08-29T09:42:28.000Z</time>
      </trkpt>
      <trkpt lat="45.01948" lon="5.86931">
        <ele>1310.193923</ele>
        <time>2026-08-29T09:42:29.000Z</time>
      </trkpt>
      <trkpt lat="45.01944" lon="5.86951">
        <ele>1308.810685</ele>
        <time>2026-08-29T09:42:30.000Z</time>
      </trkpt>
      <trkpt lat="45.01938" lon="5.86971">
        <ele>1307.34186</ele>
        <time>2026-08-29T09:42:31.000Z</time>
      </trkpt>
      <trkpt lat="45.01932" lon="5.86991">
        <ele>1305.923833</ele>
        <time>2026-08-29T09:42:32.000Z</time>
      </trkpt>
      <trkpt lat="45.01925" lon="5.8701">
        <ele>1304.502047</ele>
        <time>2026-08-29T09:42:33.000Z</time>
      </trkpt>
      <trkpt lat="45.01919" lon="5.87029">
        <ele>1303.102162</ele>
        <time>2026-08-29T09:42:34.000Z</time>
      </trkpt>
      <trkpt lat="45.01912" lon="5.87047">
        <ele>1301.779104</ele>
        <time>2026-08-29T09:42:35.000Z</time>
      </trkpt>
      <trkpt lat="45.01904" lon="5.87063">
        <ele>1300.484422</ele>
        <time>2026-08-29T09:42:36.000Z</time>
      </trkpt>
      <trkpt lat="45.01894" lon="5.87075">
        <ele>1299.249681</ele>
        <time>2026-08-29T09:42:37.000Z</time>
      </trkpt>
      <trkpt lat="45.01881" lon="5.8708">
        <ele>1298.019074</ele>
        <time>2026-08-29T09:42:38.000Z</time>
      </trkpt>
      <trkpt lat="45.01868" lon="5.87082">
        <ele>1296.751642</ele>
        <time>2026-08-29T09:42:39.000Z</time>
      </trkpt>
      <trkpt lat="45.01854" lon="5.87082">
        <ele>1295.453066</ele>
        <time>2026-08-29T09:42:40.000Z</time>
      </trkpt>
      <trkpt lat="45.0184" lon="5.87081">
        <ele>1294.168043</ele>
        <time>2026-08-29T09:42:41.000Z</time>
      </trkpt>
      <trkpt lat="45.01826" lon="5.87081">
        <ele>1293.044862</ele>
        <time>2026-08-29T09:42:42.000Z</time>
      </trkpt>
      <trkpt lat="45.01812" lon="5.87081">
        <ele>1291.897385</ele>
        <time>2026-08-29T09:42:43.000Z</time>
      </trkpt>
      <trkpt lat="45.01798" lon="5.87081">
        <ele>1290.757698</ele>
        <time>2026-08-29T09:42:44.000Z</time>
      </trkpt>
      <trkpt lat="45.01784" lon="5.87083">
        <ele>1289.583438</ele>
        <time>2026-08-29T09:42:45.000Z</time>
      </trkpt>
      <trkpt lat="45.0177" lon="5.87086">
        <ele>1288.418444</ele>
        <time>2026-08-29T09:42:46.000Z</time>
      </trkpt>
      <trkpt lat="45.01756" lon="5.87093">
        <ele>1287.252042</ele>
        <time>2026-08-29T09:42:47.000Z</time>
      </trkpt>
      <trkpt lat="45.01743" lon="5.87103">
        <ele>1286.050545</ele>
        <time>2026-08-29T09:42:48.000Z</time>
      </trkpt>
      <trkpt lat="45.01731" lon="5.87115">
        <ele>1284.824726</ele>
        <time>2026-08-29T09:42:49.000Z</time>
      </trkpt>
      <trkpt lat="45.01719" lon="5.87128">
        <ele>1283.598651</ele>
        <time>2026-08-29T09:42:50.000Z</time>
      </trkpt>
      <trkpt lat="45.01708" lon="5.87143">
        <ele>1282.388862</ele>
        <time>2026-08-29T09:42:51.000Z</time>
      </trkpt>
      <trkpt lat="45.01697" lon="5.87157">
        <ele>1281.163309</ele>
        <time>2026-08-29T09:42:52.000Z</time>
      </trkpt>
      <trkpt lat="45.01686" lon="5.87172">
        <ele>1279.931644</ele>
        <time>2026-08-29T09:42:53.000Z</time>
      </trkpt>
      <trkpt lat="45.01675" lon="5.87187">
        <ele>1278.580532</ele>
        <time>2026-08-29T09:42:54.000Z</time>
      </trkpt>
      <trkpt lat="45.01663" lon="5.87201">
        <ele>1277.1915</ele>
        <time>2026-08-29T09:42:55.000Z</time>
      </trkpt>
      <trkpt lat="45.01651" lon="5.87214">
        <ele>1275.847401</ele>
        <time>2026-08-29T09:42:56.000Z</time>
      </trkpt>
      <trkpt lat="45.01639" lon="5.87224">
        <ele>1274.530583</ele>
        <time>2026-08-29T09:42:57.000Z</time>
      </trkpt>
      <trkpt lat="45.01625" lon="5.87232">
        <ele>1273.201357</ele>
        <time>2026-08-29T09:42:58.000Z</time>
      </trkpt>
      <trkpt lat="45.0161" lon="5.87237">
        <ele>1271.830814</ele>
        <time>2026-08-29T09:42:59.000Z</time>
      </trkpt>
      <trkpt lat="45.01595" lon="5.8724">
        <ele>1270.481783</ele>
        <time>2026-08-29T09:43:00.000Z</time>
      </trkpt>
      <trkpt lat="45.0158" lon="5.87242">
        <ele>1269.077789</ele>
        <time>2026-08-29T09:43:01.000Z</time>
      </trkpt>
      <trkpt lat="45.01564" lon="5.87245">
        <ele>1267.657362</ele>
        <time>2026-08-29T09:43:02.000Z</time>
      </trkpt>
      <trkpt lat="45.01548" lon="5.87249">
        <ele>1266.176348</ele>
        <time>2026-08-29T09:43:03.000Z</time>
      </trkpt>
      <trkpt lat="45.01532" lon="5.87257">
        <ele>1264.681545</ele>
        <time>2026-08-29T09:43:04.000Z</time>
      </trkpt>
      <trkpt lat="45.01517" lon="5.87264">
        <ele>1263.184647</ele>
        <time>2026-08-29T09:43:05.000Z</time>
      </trkpt>
      <trkpt lat="45.01501" lon="5.87272">
        <ele>1261.647371</ele>
        <time>2026-08-29T09:43:06.000Z</time>
      </trkpt>
      <trkpt lat="45.01485" lon="5.87279">
        <ele>1260.099271</ele>
        <time>2026-08-29T09:43:07.000Z</time>
      </trkpt>
      <trkpt lat="45.01469" lon="5.87286">
        <ele>1258.540627</ele>
        <time>2026-08-29T09:43:08.000Z</time>
      </trkpt>
      <trkpt lat="45.01452" lon="5.8729">
        <ele>1256.956735</ele>
        <time>2026-08-29T09:43:09.000Z</time>
      </trkpt>
      <trkpt lat="45.01435" lon="5.87294">
        <ele>1255.342826</ele>
        <time>2026-08-29T09:43:10.000Z</time>
      </trkpt>
      <trkpt lat="45.01417" lon="5.87298">
        <ele>1253.718814</ele>
        <time>2026-08-29T09:43:11.000Z</time>
      </trkpt>
      <trkpt lat="45.014" lon="5.87301">
        <ele>1252.112013</ele>
        <time>2026-08-29T09:43:12.000Z</time>
      </trkpt>
      <trkpt lat="45.01383" lon="5.87306">
        <ele>1250.519041</ele>
        <time>2026-08-29T09:43:13.000Z</time>
      </trkpt>
      <trkpt lat="45.01367" lon="5.87309">
        <ele>1249.065949</ele>
        <time>2026-08-29T09:43:14.000Z</time>
      </trkpt>
      <trkpt lat="45.01354" lon="5.87312">
        <ele>1247.779992</ele>
        <time>2026-08-29T09:43:15.000Z</time>
      </trkpt>
      <trkpt lat="45.01341" lon="5.87315">
        <ele>1246.588157</ele>
        <time>2026-08-29T09:43:16.000Z</time>
      </trkpt>
      <trkpt lat="45.01332" lon="5.87318">
        <ele>1245.661538</ele>
        <time>2026-08-29T09:43:17.000Z</time>
      </trkpt>
      <trkpt lat="45.01326" lon="5.87323">
        <ele>1244.914341</ele>
        <time>2026-08-29T09:43:18.000Z</time>
      </trkpt>
      <trkpt lat="45.01322" lon="5.87329">
        <ele>1244.296726</ele>
        <time>2026-08-29T09:43:19.000Z</time>
      </trkpt>
      <trkpt lat="45.01324" lon="5.87336">
        <ele>1243.783235</ele>
        <time>2026-08-29T09:43:20.000Z</time>
      </trkpt>
      <trkpt lat="45.01328" lon="5.8734">
        <ele>1243.242275</ele>
        <time>2026-08-29T09:43:21.000Z</time>
      </trkpt>
      <trkpt lat="45.01333" lon="5.87341">
        <ele>1242.725606</ele>
        <time>2026-08-29T09:43:22.000Z</time>
      </trkpt>
      <trkpt lat="45.0134" lon="5.8734">
        <ele>1242.035394</ele>
        <time>2026-08-29T09:43:23.000Z</time>
      </trkpt>
      <trkpt lat="45.01347" lon="5.87339">
        <ele>1241.312917</ele>
        <time>2026-08-29T09:43:24.000Z</time>
      </trkpt>
      <trkpt lat="45.01354" lon="5.87338">
        <ele>1240.55212</ele>
        <time>2026-08-29T09:43:25.000Z</time>
      </trkpt>
      <trkpt lat="45.01364" lon="5.87339">
        <ele>1239.588515</ele>
        <time>2026-08-29T09:43:26.000Z</time>
      </trkpt>
      <trkpt lat="45.01373" lon="5.87343">
        <ele>1238.669576</ele>
        <time>2026-08-29T09:43:27.000Z</time>
      </trkpt>
      <trkpt lat="45.01381" lon="5.87348">
        <ele>1237.747997</ele>
        <time>2026-08-29T09:43:28.000Z</time>
      </trkpt>
      <trkpt lat="45.01388" lon="5.87357">
        <ele>1236.817454</ele>
        <time>2026-08-29T09:43:29.000Z</time>
      </trkpt>
      <trkpt lat="45.01396" lon="5.87366">
        <ele>1235.779052</ele>
        <time>2026-08-29T09:43:30.000Z</time>
      </trkpt>
      <trkpt lat="45.01404" lon="5.87376">
        <ele>1234.71147</ele>
        <time>2026-08-29T09:43:31.000Z</time>
      </trkpt>
      <trkpt lat="45.01412" lon="5.87385">
        <ele>1233.633324</ele>
        <time>2026-08-29T09:43:32.000Z</time>
      </trkpt>
      <trkpt lat="45.01421" lon="5.87395">
        <ele>1232.516259</ele>
        <time>2026-08-29T09:43:33.000Z</time>
      </trkpt>
      <trkpt lat="45.01429" lon="5.87405">
        <ele>1231.375404</ele>
        <time>2026-08-29T09:43:34.000Z</time>
      </trkpt>
      <trkpt lat="45.01438" lon="5.87414">
        <ele>1230.271672</ele>
        <time>2026-08-29T09:43:35.000Z</time>
      </trkpt>
      <trkpt lat="45.01446" lon="5.87423">
        <ele>1229.258955</ele>
        <time>2026-08-29T09:43:36.000Z</time>
      </trkpt>
      <trkpt lat="45.01453" lon="5.8743">
        <ele>1228.391826</ele>
        <time>2026-08-29T09:43:37.000Z</time>
      </trkpt>
      <trkpt lat="45.01458" lon="5.87438">
        <ele>1227.66676</ele>
        <time>2026-08-29T09:43:38.000Z</time>
      </trkpt>
      <trkpt lat="45.01461" lon="5.87446">
        <ele>1227.016984</ele>
        <time>2026-08-29T09:43:39.000Z</time>
      </trkpt>
      <trkpt lat="45.01457" lon="5.87454">
        <ele>1226.40951</ele>
        <time>2026-08-29T09:43:40.000Z</time>
      </trkpt>
      <trkpt lat="45.01452" lon="5.87456">
        <ele>1225.852785</ele>
        <time>2026-08-29T09:43:41.000Z</time>
      </trkpt>
      <trkpt lat="45.01445" lon="5.87456">
        <ele>1225.148118</ele>
        <time>2026-08-29T09:43:42.000Z</time>
      </trkpt>
      <trkpt lat="45.01437" lon="5.87455">
        <ele>1224.362961</ele>
        <time>2026-08-29T09:43:43.000Z</time>
      </trkpt>
      <trkpt lat="45.01429" lon="5.87454">
        <ele>1223.556029</ele>
        <time>2026-08-29T09:43:44.000Z</time>
      </trkpt>
      <trkpt lat="45.0142" lon="5.87453">
        <ele>1222.687038</ele>
        <time>2026-08-29T09:43:45.000Z</time>
      </trkpt>
      <trkpt lat="45.01411" lon="5.87451">
        <ele>1221.785914</ele>
        <time>2026-08-29T09:43:46.000Z</time>
      </trkpt>
      <trkpt lat="45.01401" lon="5.8745">
        <ele>1220.800897</ele>
        <time>2026-08-29T09:43:47.000Z</time>
      </trkpt>
      <trkpt lat="45.01391" lon="5.87451">
        <ele>1219.788389</ele>
        <time>2026-08-29T09:43:48.000Z</time>
      </trkpt>
      <trkpt lat="45.0138" lon="5.87453">
        <ele>1218.724099</ele>
        <time>2026-08-29T09:43:49.000Z</time>
      </trkpt>
      <trkpt lat="45.01369" lon="5.87458">
        <ele>1217.593198</ele>
        <time>2026-08-29T09:43:50.000Z</time>
      </trkpt>
      <trkpt lat="45.01358" lon="5.87464">
        <ele>1216.418043</ele>
        <time>2026-08-29T09:43:51.000Z</time>
      </trkpt>
      <trkpt lat="45.01348" lon="5.87471">
        <ele>1215.248064</ele>
        <time>2026-08-29T09:43:52.000Z</time>
      </trkpt>
      <trkpt lat="45.01338" lon="5.87478">
        <ele>1214.137954</ele>
        <time>2026-08-29T09:43:53.000Z</time>
      </trkpt>
      <trkpt lat="45.01328" lon="5.87484">
        <ele>1213.123519</ele>
        <time>2026-08-29T09:43:54.000Z</time>
      </trkpt>
      <trkpt lat="45.01319" lon="5.87489">
        <ele>1212.119979</ele>
        <time>2026-08-29T09:43:55.000Z</time>
      </trkpt>
      <trkpt lat="45.01309" lon="5.87492">
        <ele>1211.105518</ele>
        <time>2026-08-29T09:43:56.000Z</time>
      </trkpt>
      <trkpt lat="45.01299" lon="5.87495">
        <ele>1210.126257</ele>
        <time>2026-08-29T09:43:57.000Z</time>
      </trkpt>
      <trkpt lat="45.01288" lon="5.87496">
        <ele>1209.152809</ele>
        <time>2026-08-29T09:43:58.000Z</time>
      </trkpt>
      <trkpt lat="45.01277" lon="5.87498">
        <ele>1208.099907</ele>
        <time>2026-08-29T09:43:59.000Z</time>
      </trkpt>
      <trkpt lat="45.01266" lon="5.87501">
        <ele>1206.99416</ele>
        <time>2026-08-29T09:44:00.000Z</time>
      </trkpt>
      <trkpt lat="45.01254" lon="5.87506">
        <ele>1205.860681</ele>
        <time>2026-08-29T09:44:01.000Z</time>
      </trkpt>
      <trkpt lat="45.01242" lon="5.87511">
        <ele>1204.667481</ele>
        <time>2026-08-29T09:44:02.000Z</time>
      </trkpt>
      <trkpt lat="45.0123" lon="5.87516">
        <ele>1203.537487</ele>
        <time>2026-08-29T09:44:03.000Z</time>
      </trkpt>
      <trkpt lat="45.0122" lon="5.87521">
        <ele>1202.504481</ele>
        <time>2026-08-29T09:44:04.000Z</time>
      </trkpt>
      <trkpt lat="45.01209" lon="5.87525">
        <ele>1201.518048</ele>
        <time>2026-08-29T09:44:05.000Z</time>
      </trkpt>
      <trkpt lat="45.01201" lon="5.87529">
        <ele>1200.670078</ele>
        <time>2026-08-29T09:44:06.000Z</time>
      </trkpt>
      <trkpt lat="45.01192" lon="5.87532">
        <ele>1199.786288</ele>
        <time>2026-08-29T09:44:07.000Z</time>
      </trkpt>
      <trkpt lat="45.01182" lon="5.87536">
        <ele>1198.862965</ele>
        <time>2026-08-29T09:44:08.000Z</time>
      </trkpt>
      <trkpt lat="45.01172" lon="5.87539">
        <ele>1197.871211</ele>
        <time>2026-08-29T09:44:09.000Z</time>
      </trkpt>
      <trkpt lat="45.0116" lon="5.87539">
        <ele>1196.824781</ele>
        <time>2026-08-29T09:44:10.000Z</time>
      </trkpt>
      <trkpt lat="45.01149" lon="5.87537">
        <ele>1195.724754</ele>
        <time>2026-08-29T09:44:11.000Z</time>
      </trkpt>
      <trkpt lat="45.01137" lon="5.87533">
        <ele>1194.582277</ele>
        <time>2026-08-29T09:44:12.000Z</time>
      </trkpt>
      <trkpt lat="45.01125" lon="5.87528">
        <ele>1193.345263</ele>
        <time>2026-08-29T09:44:13.000Z</time>
      </trkpt>
      <trkpt lat="45.01113" lon="5.87522">
        <ele>1192.041235</ele>
        <time>2026-08-29T09:44:14.000Z</time>
      </trkpt>
      <trkpt lat="45.011" lon="5.87516">
        <ele>1190.708562</ele>
        <time>2026-08-29T09:44:15.000Z</time>
      </trkpt>
      <trkpt lat="45.01087" lon="5.8751">
        <ele>1189.305648</ele>
        <time>2026-08-29T09:44:16.000Z</time>
      </trkpt>
      <trkpt lat="45.01074" lon="5.87503">
        <ele>1187.856986</ele>
        <time>2026-08-29T09:44:17.000Z</time>
      </trkpt>
      <trkpt lat="45.01061" lon="5.87498">
        <ele>1186.482475</ele>
        <time>2026-08-29T09:44:18.000Z</time>
      </trkpt>
      <trkpt lat="45.01049" lon="5.87491">
        <ele>1185.114957</ele>
        <time>2026-08-29T09:44:19.000Z</time>
      </trkpt>
      <trkpt lat="45.01035" lon="5.87484">
        <ele>1183.617682</ele>
        <time>2026-08-29T09:44:20.000Z</time>
      </trkpt>
      <trkpt lat="45.01021" lon="5.87478">
        <ele>1182.130144</ele>
        <time>2026-08-29T09:44:21.000Z</time>
      </trkpt>
      <trkpt lat="45.01008" lon="5.87471">
        <ele>1180.688832</ele>
        <time>2026-08-29T09:44:22.000Z</time>
      </trkpt>
      <trkpt lat="45.00995" lon="5.87464">
        <ele>1179.26146</ele>
        <time>2026-08-29T09:44:23.000Z</time>
      </trkpt>
      <trkpt lat="45.00982" lon="5.87457">
        <ele>1177.870686</ele>
        <time>2026-08-29T09:44:24.000Z</time>
      </trkpt>
      <trkpt lat="45.0097" lon="5.87449">
        <ele>1176.495864</ele>
        <time>2026-08-29T09:44:25.000Z</time>
      </trkpt>
      <trkpt lat="45.00958" lon="5.87442">
        <ele>1175.172097</ele>
        <time>2026-08-29T09:44:26.000Z</time>
      </trkpt>
      <trkpt lat="45.00947" lon="5.87435">
        <ele>1173.989926</ele>
        <time>2026-08-29T09:44:27.000Z</time>
      </trkpt>
      <trkpt lat="45.00938" lon="5.87427">
        <ele>1172.895154</ele>
        <time>2026-08-29T09:44:28.000Z</time>
      </trkpt>
      <trkpt lat="45.0093" lon="5.87419">
        <ele>1171.930999</ele>
        <time>2026-08-29T09:44:29.000Z</time>
      </trkpt>
      <trkpt lat="45.00923" lon="5.87412">
        <ele>1171.130382</ele>
        <time>2026-08-29T09:44:30.000Z</time>
      </trkpt>
      <trkpt lat="45.00917" lon="5.87408">
        <ele>1170.455259</ele>
        <time>2026-08-29T09:44:31.000Z</time>
      </trkpt>
      <trkpt lat="45.00912" lon="5.87409">
        <ele>1169.959145</ele>
        <time>2026-08-29T09:44:32.000Z</time>
      </trkpt>
      <trkpt lat="45.00911" lon="5.87418">
        <ele>1169.332079</ele>
        <time>2026-08-29T09:44:33.000Z</time>
      </trkpt>
      <trkpt lat="45.00912" lon="5.87426">
        <ele>1168.787068</ele>
        <time>2026-08-29T09:44:34.000Z</time>
      </trkpt>
      <trkpt lat="45.00914" lon="5.87432">
        <ele>1168.289768</ele>
        <time>2026-08-29T09:44:35.000Z</time>
      </trkpt>
      <trkpt lat="45.00919" lon="5.87437">
        <ele>1167.712797</ele>
        <time>2026-08-29T09:44:36.000Z</time>
      </trkpt>
      <trkpt lat="45.00924" lon="5.87443">
        <ele>1167.07803</ele>
        <time>2026-08-29T09:44:37.000Z</time>
      </trkpt>
      <trkpt lat="45.00928" lon="5.8745">
        <ele>1166.417586</ele>
        <time>2026-08-29T09:44:38.000Z</time>
      </trkpt>
      <trkpt lat="45.00934" lon="5.87458">
        <ele>1165.632079</ele>
        <time>2026-08-29T09:44:39.000Z</time>
      </trkpt>
      <trkpt lat="45.0094" lon="5.87468">
        <ele>1164.731839</ele>
        <time>2026-08-29T09:44:40.000Z</time>
      </trkpt>
      <trkpt lat="45.00946" lon="5.87478">
        <ele>1163.786539</ele>
        <time>2026-08-29T09:44:41.000Z</time>
      </trkpt>
      <trkpt lat="45.00951" lon="5.87489">
        <ele>1162.80993</ele>
        <time>2026-08-29T09:44:42.000Z</time>
      </trkpt>
      <trkpt lat="45.00957" lon="5.87501">
        <ele>1161.787339</ele>
        <time>2026-08-29T09:44:43.000Z</time>
      </trkpt>
      <trkpt lat="45.00963" lon="5.87515">
        <ele>1160.686146</ele>
        <time>2026-08-29T09:44:44.000Z</time>
      </trkpt>
      <trkpt lat="45.00969" lon="5.87528">
        <ele>1159.597066</ele>
        <time>2026-08-29T09:44:45.000Z</time>
      </trkpt>
      <trkpt lat="45.00974" lon="5.87542">
        <ele>1158.500876</ele>
        <time>2026-08-29T09:44:46.000Z</time>
      </trkpt>
      <trkpt lat="45.0098" lon="5.87555">
        <ele>1157.351543</ele>
        <time>2026-08-29T09:44:47.000Z</time>
      </trkpt>
      <trkpt lat="45.00986" lon="5.87569">
        <ele>1156.054486</ele>
        <time>2026-08-29T09:44:48.000Z</time>
      </trkpt>
      <trkpt lat="45.00992" lon="5.87584">
        <ele>1154.724296</ele>
        <time>2026-08-29T09:44:49.000Z</time>
      </trkpt>
      <trkpt lat="45.00998" lon="5.87599">
        <ele>1153.355303</ele>
        <time>2026-08-29T09:44:50.000Z</time>
      </trkpt>
      <trkpt lat="45.01003" lon="5.87616">
        <ele>1151.936549</ele>
        <time>2026-08-29T09:44:51.000Z</time>
      </trkpt>
      <trkpt lat="45.01006" lon="5.87634">
        <ele>1150.483544</ele>
        <time>2026-08-29T09:44:52.000Z</time>
      </trkpt>
      <trkpt lat="45.01006" lon="5.87653">
        <ele>1149.053221</ele>
        <time>2026-08-29T09:44:53.000Z</time>
      </trkpt>
      <trkpt lat="45.01004" lon="5.87671">
        <ele>1147.622362</ele>
        <time>2026-08-29T09:44:54.000Z</time>
      </trkpt>
      <trkpt lat="45.01003" lon="5.87688">
        <ele>1146.254851</ele>
        <time>2026-08-29T09:44:55.000Z</time>
      </trkpt>
      <trkpt lat="45.01003" lon="5.87705">
        <ele>1144.92544</ele>
        <time>2026-08-29T09:44:56.000Z</time>
      </trkpt>
      <trkpt lat="45.01004" lon="5.87722">
        <ele>1143.591211</ele>
        <time>2026-08-29T09:44:57.000Z</time>
      </trkpt>
      <trkpt lat="45.01006" lon="5.87738">
        <ele>1142.328993</ele>
        <time>2026-08-29T09:44:58.000Z</time>
      </trkpt>
      <trkpt lat="45.01009" lon="5.87752">
        <ele>1141.197795</ele>
        <time>2026-08-29T09:44:59.000Z</time>
      </trkpt>
      <trkpt lat="45.01013" lon="5.87762">
        <ele>1140.263854</ele>
        <time>2026-08-29T09:45:00.000Z</time>
      </trkpt>
      <trkpt lat="45.01016" lon="5.87771">
        <ele>1139.528406</ele>
        <time>2026-08-29T09:45:01.000Z</time>
      </trkpt>
      <trkpt lat="45.01015" lon="5.8778">
        <ele>1138.83496</ele>
        <time>2026-08-29T09:45:02.000Z</time>
      </trkpt>
      <trkpt lat="45.0101" lon="5.87784">
        <ele>1138.233886</ele>
        <time>2026-08-29T09:45:03.000Z</time>
      </trkpt>
      <trkpt lat="45.01005" lon="5.8778">
        <ele>1137.599658</ele>
        <time>2026-08-29T09:45:04.000Z</time>
      </trkpt>
      <trkpt lat="45.00999" lon="5.87776">
        <ele>1136.986461</ele>
        <time>2026-08-29T09:45:05.000Z</time>
      </trkpt>
      <trkpt lat="45.00992" lon="5.87772">
        <ele>1136.275984</ele>
        <time>2026-08-29T09:45:06.000Z</time>
      </trkpt>
      <trkpt lat="45.00985" lon="5.87767">
        <ele>1135.521609</ele>
        <time>2026-08-29T09:45:07.000Z</time>
      </trkpt>
      <trkpt lat="45.00978" lon="5.8776">
        <ele>1134.717207</ele>
        <time>2026-08-29T09:45:08.000Z</time>
      </trkpt>
      <trkpt lat="45.0097" lon="5.87753">
        <ele>1133.859745</ele>
        <time>2026-08-29T09:45:09.000Z</time>
      </trkpt>
      <trkpt lat="45.00963" lon="5.87746">
        <ele>1132.956005</ele>
        <time>2026-08-29T09:45:10.000Z</time>
      </trkpt>
      <trkpt lat="45.00954" lon="5.87737">
        <ele>1131.970771</ele>
        <time>2026-08-29T09:45:11.000Z</time>
      </trkpt>
      <trkpt lat="45.00946" lon="5.87728">
        <ele>1130.946286</ele>
        <time>2026-08-29T09:45:12.000Z</time>
      </trkpt>
      <trkpt lat="45.00937" lon="5.87718">
        <ele>1129.882851</ele>
        <time>2026-08-29T09:45:13.000Z</time>
      </trkpt>
      <trkpt lat="45.00928" lon="5.87708">
        <ele>1128.791292</ele>
        <time>2026-08-29T09:45:14.000Z</time>
      </trkpt>
      <trkpt lat="45.00919" lon="5.87697">
        <ele>1127.658311</ele>
        <time>2026-08-29T09:45:15.000Z</time>
      </trkpt>
      <trkpt lat="45.00909" lon="5.87686">
        <ele>1126.494388</ele>
        <time>2026-08-29T09:45:16.000Z</time>
      </trkpt>
      <trkpt lat="45.00901" lon="5.87673">
        <ele>1125.316826</ele>
        <time>2026-08-29T09:45:17.000Z</time>
      </trkpt>
      <trkpt lat="45.00892" lon="5.87661">
        <ele>1124.123086</ele>
        <time>2026-08-29T09:45:18.000Z</time>
      </trkpt>
      <trkpt lat="45.00883" lon="5.87649">
        <ele>1122.957018</ele>
        <time>2026-08-29T09:45:19.000Z</time>
      </trkpt>
      <trkpt lat="45.00874" lon="5.87637">
        <ele>1121.841608</ele>
        <time>2026-08-29T09:45:20.000Z</time>
      </trkpt>
      <trkpt lat="45.00867" lon="5.87627">
        <ele>1120.855179</ele>
        <time>2026-08-29T09:45:21.000Z</time>
      </trkpt>
      <trkpt lat="45.0086" lon="5.87618">
        <ele>1119.977124</ele>
        <time>2026-08-29T09:45:22.000Z</time>
      </trkpt>
      <trkpt lat="45.00853" lon="5.87609">
        <ele>1119.108356</ele>
        <time>2026-08-29T09:45:23.000Z</time>
      </trkpt>
      <trkpt lat="45.00846" lon="5.87601">
        <ele>1118.261679</ele>
        <time>2026-08-29T09:45:24.000Z</time>
      </trkpt>
      <trkpt lat="45.00838" lon="5.87593">
        <ele>1117.362832</ele>
        <time>2026-08-29T09:45:25.000Z</time>
      </trkpt>
      <trkpt lat="45.00829" lon="5.87585">
        <ele>1116.421289</ele>
        <time>2026-08-29T09:45:26.000Z</time>
      </trkpt>
      <trkpt lat="45.00819" lon="5.87578">
        <ele>1115.408155</ele>
        <time>2026-08-29T09:45:27.000Z</time>
      </trkpt>
      <trkpt lat="45.00809" lon="5.87571">
        <ele>1114.39502</ele>
        <time>2026-08-29T09:45:28.000Z</time>
      </trkpt>
      <trkpt lat="45.008" lon="5.87565">
        <ele>1113.454426</ele>
        <time>2026-08-29T09:45:29.000Z</time>
      </trkpt>
      <trkpt lat="45.00791" lon="5.87559">
        <ele>1112.524558</ele>
        <time>2026-08-29T09:45:30.000Z</time>
      </trkpt>
      <trkpt lat="45.00782" lon="5.87554">
        <ele>1111.620361</ele>
        <time>2026-08-29T09:45:31.000Z</time>
      </trkpt>
      <trkpt lat="45.00772" lon="5.8755">
        <ele>1110.711982</ele>
        <time>2026-08-29T09:45:32.000Z</time>
      </trkpt>
      <trkpt lat="45.00763" lon="5.87546">
        <ele>1109.83389</ele>
        <time>2026-08-29T09:45:33.000Z</time>
      </trkpt>
      <trkpt lat="45.00753" lon="5.87544">
        <ele>1108.881868</ele>
        <time>2026-08-29T09:45:34.000Z</time>
      </trkpt>
      <trkpt lat="45.00742" lon="5.8754">
        <ele>1107.881753</ele>
        <time>2026-08-29T09:45:35.000Z</time>
      </trkpt>
      <trkpt lat="45.00731" lon="5.87536">
        <ele>1106.83475</ele>
        <time>2026-08-29T09:45:36.000Z</time>
      </trkpt>
      <trkpt lat="45.0072" lon="5.87531">
        <ele>1105.754161</ele>
        <time>2026-08-29T09:45:37.000Z</time>
      </trkpt>
      <trkpt lat="45.00708" lon="5.87526">
        <ele>1104.657741</ele>
        <time>2026-08-29T09:45:38.000Z</time>
      </trkpt>
      <trkpt lat="45.00696" lon="5.87522">
        <ele>1103.629934</ele>
        <time>2026-08-29T09:45:39.000Z</time>
      </trkpt>
      <trkpt lat="45.00685" lon="5.87519">
        <ele>1102.731794</ele>
        <time>2026-08-29T09:45:40.000Z</time>
      </trkpt>
      <trkpt lat="45.00675" lon="5.87515">
        <ele>1101.88544</ele>
        <time>2026-08-29T09:45:41.000Z</time>
      </trkpt>
      <trkpt lat="45.00665" lon="5.87511">
        <ele>1101.111417</ele>
        <time>2026-08-29T09:45:42.000Z</time>
      </trkpt>
      <trkpt lat="45.00657" lon="5.87507">
        <ele>1100.457499</ele>
        <time>2026-08-29T09:45:43.000Z</time>
      </trkpt>
      <trkpt lat="45.0065" lon="5.87505">
        <ele>1099.908566</ele>
        <time>2026-08-29T09:45:44.000Z</time>
      </trkpt>
      <trkpt lat="45.00643" lon="5.87509">
        <ele>1099.333465</ele>
        <time>2026-08-29T09:45:45.000Z</time>
      </trkpt>
      <trkpt lat="45.00639" lon="5.87516">
        <ele>1098.829774</ele>
        <time>2026-08-29T09:45:46.000Z</time>
      </trkpt>
      <trkpt lat="45.0064" lon="5.87524">
        <ele>1098.396585</ele>
        <time>2026-08-29T09:45:47.000Z</time>
      </trkpt>
      <trkpt lat="45.00643" lon="5.87532">
        <ele>1097.863672</ele>
        <time>2026-08-29T09:45:48.000Z</time>
      </trkpt>
      <trkpt lat="45.00647" lon="5.8754">
        <ele>1097.347528</ele>
        <time>2026-08-29T09:45:49.000Z</time>
      </trkpt>
      <trkpt lat="45.0065" lon="5.8755">
        <ele>1096.758353</ele>
        <time>2026-08-29T09:45:50.000Z</time>
      </trkpt>
      <trkpt lat="45.00654" lon="5.87559">
        <ele>1096.132645</ele>
        <time>2026-08-29T09:45:51.000Z</time>
      </trkpt>
      <trkpt lat="45.0066" lon="5.8757">
        <ele>1095.397708</ele>
        <time>2026-08-29T09:45:52.000Z</time>
      </trkpt>
      <trkpt lat="45.00664" lon="5.87581">
        <ele>1094.693856</ele>
        <time>2026-08-29T09:45:53.000Z</time>
      </trkpt>
      <trkpt lat="45.0067" lon="5.87592">
        <ele>1093.949026</ele>
        <time>2026-08-29T09:45:54.000Z</time>
      </trkpt>
      <trkpt lat="45.00677" lon="5.87601">
        <ele>1093.200329</ele>
        <time>2026-08-29T09:45:55.000Z</time>
      </trkpt>
      <trkpt lat="45.00684" lon="5.87611">
        <ele>1092.446155</ele>
        <time>2026-08-29T09:45:56.000Z</time>
      </trkpt>
      <trkpt lat="45.0069" lon="5.87622">
        <ele>1091.671469</ele>
        <time>2026-08-29T09:45:57.000Z</time>
      </trkpt>
      <trkpt lat="45.00694" lon="5.87635">
        <ele>1090.890596</ele>
        <time>2026-08-29T09:45:58.000Z</time>
      </trkpt>
      <trkpt lat="45.00695" lon="5.87648">
        <ele>1090.137088</ele>
        <time>2026-08-29T09:45:59.000Z</time>
      </trkpt>
      <trkpt lat="45.00691" lon="5.87662">
        <ele>1089.68451</ele>
        <time>2026-08-29T09:46:00.000Z</time>
      </trkpt>
      <trkpt lat="45.00685" lon="5.87675">
        <ele>1089.237476</ele>
        <time>2026-08-29T09:46:01.000Z</time>
      </trkpt>
      <trkpt lat="45.00677" lon="5.87686">
        <ele>1088.792993</ele>
        <time>2026-08-29T09:46:02.000Z</time>
      </trkpt>
      <trkpt lat="45.00669" lon="5.87695">
        <ele>1088.34699</ele>
        <time>2026-08-29T09:46:03.000Z</time>
      </trkpt>
      <trkpt lat="45.0066" lon="5.87704">
        <ele>1087.899196</ele>
        <time>2026-08-29T09:46:04.000Z</time>
      </trkpt>
      <trkpt lat="45.00652" lon="5.87713">
        <ele>1087.447781</ele>
        <time>2026-08-29T09:46:05.000Z</time>
      </trkpt>
      <trkpt lat="45.00643" lon="5.87723">
        <ele>1086.993063</ele>
        <time>2026-08-29T09:46:06.000Z</time>
      </trkpt>
      <trkpt lat="45.00634" lon="5.87732">
        <ele>1086.527749</ele>
        <time>2026-08-29T09:46:07.000Z</time>
      </trkpt>
      <trkpt lat="45.00626" lon="5.87742">
        <ele>1086.069389</ele>
        <time>2026-08-29T09:46:08.000Z</time>
      </trkpt>
      <trkpt lat="45.00617" lon="5.87752">
        <ele>1085.61942</ele>
        <time>2026-08-29T09:46:09.000Z</time>
      </trkpt>
      <trkpt lat="45.00609" lon="5.87761">
        <ele>1085.170072</ele>
        <time>2026-08-29T09:46:10.000Z</time>
      </trkpt>
      <trkpt lat="45.006" lon="5.8777">
        <ele>1084.72086</ele>
        <time>2026-08-29T09:46:11.000Z</time>
      </trkpt>
      <trkpt lat="45.00592" lon="5.87779">
        <ele>1084.279976</ele>
        <time>2026-08-29T09:46:12.000Z</time>
      </trkpt>
      <trkpt lat="45.00583" lon="5.87788">
        <ele>1083.826731</ele>
        <time>2026-08-29T09:46:13.000Z</time>
      </trkpt>
      <trkpt lat="45.00575" lon="5.87797">
        <ele>1083.378934</ele>
        <time>2026-08-29T09:46:14.000Z</time>
      </trkpt>
      <trkpt lat="45.00566" lon="5.87807">
        <ele>1082.930805</ele>
        <time>2026-08-29T09:46:15.000Z</time>
      </trkpt>
      <trkpt lat="45.00558" lon="5.87816">
        <ele>1082.589209</ele>
        <time>2026-08-29T09:46:16.000Z</time>
      </trkpt>
      <trkpt lat="45.0055" lon="5.87825">
        <ele>1082.499637</ele>
        <time>2026-08-29T09:46:17.000Z</time>
      </trkpt>
      <trkpt lat="45.00541" lon="5.87834">
        <ele>1082.409376</ele>
        <time>2026-08-29T09:46:18.000Z</time>
      </trkpt>
      <trkpt lat="45.00533" lon="5.87843">
        <ele>1082.320175</ele>
        <time>2026-08-29T09:46:19.000Z</time>
      </trkpt>
      <trkpt lat="45.00525" lon="5.87851">
        <ele>1082.232404</ele>
        <time>2026-08-29T09:46:20.000Z</time>
      </trkpt>
      <trkpt lat="45.00517" lon="5.8786">
        <ele>1082.144633</ele>
        <time>2026-08-29T09:46:21.000Z</time>
      </trkpt>
      <trkpt lat="45.00509" lon="5.87868">
        <ele>1082.061424</ele>
        <time>2026-08-29T09:46:22.000Z</time>
      </trkpt>
      <trkpt lat="45.00502" lon="5.87876">
        <ele>1081.980018</ele>
        <time>2026-08-29T09:46:23.000Z</time>
      </trkpt>
      <trkpt lat="45.00494" lon="5.87884">
        <ele>1081.898612</ele>
        <time>2026-08-29T09:46:24.000Z</time>
      </trkpt>
      <trkpt lat="45.00487" lon="5.87892">
        <ele>1081.819695</ele>
        <time>2026-08-29T09:46:25.000Z</time>
      </trkpt>
      <trkpt lat="45.0048" lon="5.87899">
        <ele>1081.742533</ele>
        <time>2026-08-29T09:46:26.000Z</time>
      </trkpt>
      <trkpt lat="45.00473" lon="5.87907">
        <ele>1081.665307</ele>
        <time>2026-08-29T09:46:27.000Z</time>
      </trkpt>
      <trkpt lat="45.00466" lon="5.87915">
        <ele>1081.589819</ele>
        <time>2026-08-29T09:46:28.000Z</time>
      </trkpt>
      <trkpt lat="45.0046" lon="5.87922">
        <ele>1081.515773</ele>
        <time>2026-08-29T09:46:29.000Z</time>
      </trkpt>
      <trkpt lat="45.00453" lon="5.8793">
        <ele>1081.444225</ele>
        <time>2026-08-29T09:46:30.000Z</time>
      </trkpt>
      <trkpt lat="45.00446" lon="5.87937">
        <ele>1081.372735</ele>
        <time>2026-08-29T09:46:31.000Z</time>
      </trkpt>
      <trkpt lat="45.0044" lon="5.87943">
        <ele>1081.302672</ele>
        <time>2026-08-29T09:46:32.000Z</time>
      </trkpt>
      <trkpt lat="45.00433" lon="5.8795">
        <ele>1081.231873</ele>
        <time>2026-08-29T09:46:33.000Z</time>
      </trkpt>
      <trkpt lat="45.00427" lon="5.87957">
        <ele>1081.16181</ele>
        <time>2026-08-29T09:46:34.000Z</time>
      </trkpt>
      <trkpt lat="45.00421" lon="5.87964">
        <ele>1081.092382</ele>
        <time>2026-08-29T09:46:35.000Z</time>
      </trkpt>
      <trkpt lat="45.00415" lon="5.87971">
        <ele>1081.049588</ele>
        <time>2026-08-29T09:46:36.000Z</time>
      </trkpt>
      <trkpt lat="45.00409" lon="5.87978">
        <ele>1081.032688</ele>
        <time>2026-08-29T09:46:37.000Z</time>
      </trkpt>
      <trkpt lat="45.00403" lon="5.87984">
        <ele>1081.015884</ele>
        <time>2026-08-29T09:46:38.000Z</time>
      </trkpt>
      <trkpt lat="45.00397" lon="5.87991">
        <ele>1080.99927</ele>
        <time>2026-08-29T09:46:39.000Z</time>
      </trkpt>
      <trkpt lat="45.00391" lon="5.87997">
        <ele>1080.982754</ele>
        <time>2026-08-29T09:46:40.000Z</time>
      </trkpt>
      <trkpt lat="45.00384" lon="5.88002">
        <ele>1080.966198</ele>
        <time>2026-08-29T09:46:41.000Z</time>
      </trkpt>
      <trkpt lat="45.00378" lon="5.88007">
        <ele>1080.949915</ele>
        <time>2026-08-29T09:46:42.000Z</time>
      </trkpt>
      <trkpt lat="45.00371" lon="5.88012">
        <ele>1080.933847</ele>
        <time>2026-08-29T09:46:43.000Z</time>
      </trkpt>
      <trkpt lat="45.00365" lon="5.88016">
        <ele>1080.918113</ele>
        <time>2026-08-29T09:46:44.000Z</time>
      </trkpt>
      <trkpt lat="45.00358" lon="5.88019">
        <ele>1080.902737</ele>
        <time>2026-08-29T09:46:45.000Z</time>
      </trkpt>
      <trkpt lat="45.00352" lon="5.88023">
        <ele>1080.887521</ele>
        <time>2026-08-29T09:46:46.000Z</time>
      </trkpt>
      <trkpt lat="45.00345" lon="5.88026">
        <ele>1080.872306</ele>
        <time>2026-08-29T09:46:47.000Z</time>
      </trkpt>
      <trkpt lat="45.00339" lon="5.88029">
        <ele>1080.85719</ele>
        <time>2026-08-29T09:46:48.000Z</time>
      </trkpt>
      <trkpt lat="45.00332" lon="5.88031">
        <ele>1080.842512</ele>
        <time>2026-08-29T09:46:49.000Z</time>
      </trkpt>
      <trkpt lat="45.00326" lon="5.88034">
        <ele>1080.827407</ele>
        <time>2026-08-29T09:46:50.000Z</time>
      </trkpt>
      <trkpt lat="45.00319" lon="5.88037">
        <ele>1080.812128</ele>
        <time>2026-08-29T09:46:51.000Z</time>
      </trkpt>
      <trkpt lat="45.00313" lon="5.8804">
        <ele>1080.797271</ele>
        <time>2026-08-29T09:46:52.000Z</time>
      </trkpt>
      <trkpt lat="45.00306" lon="5.88043">
        <ele>1080.782316</ele>
        <time>2026-08-29T09:46:53.000Z</time>
      </trkpt>
      <trkpt lat="45.003" lon="5.88046">
        <ele>1080.767459</ele>
        <time>2026-08-29T09:46:54.000Z</time>
      </trkpt>
      <trkpt lat="45.00294" lon="5.88048">
        <ele>1080.752906</ele>
        <time>2026-08-29T09:46:55.000Z</time>
      </trkpt>
      <trkpt lat="45.00287" lon="5.88051">
        <ele>1080.73816</ele>
        <time>2026-08-29T09:46:56.000Z</time>
      </trkpt>
      <trkpt lat="45.00281" lon="5.88054">
        <ele>1080.723092</ele>
        <time>2026-08-29T09:46:57.000Z</time>
      </trkpt>
      <trkpt lat="45.00274" lon="5.88057">
        <ele>1080.707717</ele>
        <time>2026-08-29T09:46:58.000Z</time>
      </trkpt>
      <trkpt lat="45.00268" lon="5.8806">
        <ele>1080.692439</ele>
        <time>2026-08-29T09:46:59.000Z</time>
      </trkpt>
      <trkpt lat="45.00261" lon="5.88063">
        <ele>1080.676854</ele>
        <time>2026-08-29T09:47:00.000Z</time>
      </trkpt>
      <trkpt lat="45.00254" lon="5.88066">
        <ele>1080.661197</ele>
        <time>2026-08-29T09:47:01.000Z</time>
      </trkpt>
      <trkpt lat="45.00247" lon="5.88069">
        <ele>1080.417903</ele>
        <time>2026-08-29T09:47:02.000Z</time>
      </trkpt>
      <trkpt lat="45.0024" lon="5.88071">
        <ele>1080.157038</ele>
        <time>2026-08-29T09:47:03.000Z</time>
      </trkpt>
      <trkpt lat="45.00232" lon="5.88071">
        <ele>1079.885779</ele>
        <time>2026-08-29T09:47:04.000Z</time>
      </trkpt>
      <trkpt lat="45.00224" lon="5.8807">
        <ele>1079.596511</ele>
        <time>2026-08-29T09:47:05.000Z</time>
      </trkpt>
      <trkpt lat="45.00216" lon="5.88069">
        <ele>1079.306189</ele>
        <time>2026-08-29T09:47:06.000Z</time>
      </trkpt>
      <trkpt lat="45.00208" lon="5.88068">
        <ele>1079.004419</ele>
        <time>2026-08-29T09:47:07.000Z</time>
      </trkpt>
      <trkpt lat="45.00199" lon="5.88066">
        <ele>1078.693467</ele>
        <time>2026-08-29T09:47:08.000Z</time>
      </trkpt>
      <trkpt lat="45.0019" lon="5.88064">
        <ele>1078.381656</ele>
        <time>2026-08-29T09:47:09.000Z</time>
      </trkpt>
      <trkpt lat="45.00182" lon="5.88061">
        <ele>1078.061417</ele>
        <time>2026-08-29T09:47:10.000Z</time>
      </trkpt>
      <trkpt lat="45.00173" lon="5.88059">
        <ele>1077.735973</ele>
        <time>2026-08-29T09:47:11.000Z</time>
      </trkpt>
      <trkpt lat="45.00164" lon="5.88057">
        <ele>1077.407406</ele>
        <time>2026-08-29T09:47:12.000Z</time>
      </trkpt>
      <trkpt lat="45.00154" lon="5.88055">
        <ele>1077.079216</ele>
        <time>2026-08-29T09:47:13.000Z</time>
      </trkpt>
      <trkpt lat="45.00145" lon="5.88053">
        <ele>1076.743965</ele>
        <time>2026-08-29T09:47:14.000Z</time>
      </trkpt>
      <trkpt lat="45.00136" lon="5.88051">
        <ele>1076.408715</ele>
        <time>2026-08-29T09:47:15.000Z</time>
      </trkpt>
      <trkpt lat="45.00126" lon="5.88049">
        <ele>1076.065657</ele>
        <time>2026-08-29T09:47:16.000Z</time>
      </trkpt>
      <trkpt lat="45.00117" lon="5.88048">
        <ele>1075.720777</ele>
        <time>2026-08-29T09:47:17.000Z</time>
      </trkpt>
      <trkpt lat="45.00107" lon="5.88046">
        <ele>1075.385157</ele>
        <time>2026-08-29T09:47:18.000Z</time>
      </trkpt>
      <trkpt lat="45.00098" lon="5.88046">
        <ele>1075.046206</ele>
        <time>2026-08-29T09:47:19.000Z</time>
      </trkpt>
      <trkpt lat="45.00088" lon="5.88045">
        <ele>1074.703361</ele>
        <time>2026-08-29T09:47:20.000Z</time>
      </trkpt>
      <trkpt lat="45.00079" lon="5.88044">
        <ele>1074.367646</ele>
        <time>2026-08-29T09:47:21.000Z</time>
      </trkpt>
      <trkpt lat="45.00069" lon="5.88043">
        <ele>1074.019736</ele>
        <time>2026-08-29T09:47:22.000Z</time>
      </trkpt>
      <trkpt lat="45.0006" lon="5.88042">
        <ele>1073.677558</ele>
        <time>2026-08-29T09:47:23.000Z</time>
      </trkpt>
      <trkpt lat="45.0005" lon="5.88041">
        <ele>1073.332709</ele>
        <time>2026-08-29T09:47:24.000Z</time>
      </trkpt>
      <trkpt lat="45.00041" lon="5.8804">
        <ele>1072.991432</ele>
        <time>2026-08-29T09:47:25.000Z</time>
      </trkpt>
      <trkpt lat="45.00031" lon="5.88039">
        <ele>1072.650494</ele>
        <time>2026-08-29T09:47:26.000Z</time>
      </trkpt>
      <trkpt lat="45.00021" lon="5.88039">
        <ele>1072.302763</ele>
        <time>2026-08-29T09:47:27.000Z</time>
      </trkpt>
      <trkpt lat="45.00012" lon="5.88038">
        <ele>1071.955116</ele>
        <time>2026-08-29T09:47:28.000Z</time>
      </trkpt>
      <trkpt lat="45.00002" lon="5.88038">
        <ele>1071.600125</ele>
        <time>2026-08-29T09:47:29.000Z</time>
      </trkpt>
      <trkpt lat="44.99992" lon="5.88037">
        <ele>1071.248814</ele>
        <time>2026-08-29T09:47:30.000Z</time>
      </trkpt>
      <trkpt lat="44.99982" lon="5.88037">
        <ele>1070.897585</ele>
        <time>2026-08-29T09:47:31.000Z</time>
      </trkpt>
      <trkpt lat="44.99972" lon="5.88036">
        <ele>1070.542776</ele>
        <time>2026-08-29T09:47:32.000Z</time>
      </trkpt>
      <trkpt lat="44.99963" lon="5.88037">
        <ele>1070.191547</ele>
        <time>2026-08-29T09:47:33.000Z</time>
      </trkpt>
      <trkpt lat="44.99953" lon="5.88038">
        <ele>1069.83615</ele>
        <time>2026-08-29T09:47:34.000Z</time>
      </trkpt>
      <trkpt lat="44.99943" lon="5.88038">
        <ele>1069.484483</ele>
        <time>2026-08-29T09:47:35.000Z</time>
      </trkpt>
      <trkpt lat="44.99933" lon="5.8804">
        <ele>1069.131614</ele>
        <time>2026-08-29T09:47:36.000Z</time>
      </trkpt>
      <trkpt lat="44.99924" lon="5.88041">
        <ele>1068.789689</ele>
        <time>2026-08-29T09:47:37.000Z</time>
      </trkpt>
      <trkpt lat="44.99914" lon="5.88042">
        <ele>1068.451985</ele>
        <time>2026-08-29T09:47:38.000Z</time>
      </trkpt>
      <trkpt lat="44.99904" lon="5.88043">
        <ele>1068.103158</ele>
        <time>2026-08-29T09:47:39.000Z</time>
      </trkpt>
      <trkpt lat="44.99895" lon="5.88045">
        <ele>1067.767792</ele>
        <time>2026-08-29T09:47:40.000Z</time>
      </trkpt>
      <trkpt lat="44.99885" lon="5.88046">
        <ele>1067.48386</ele>
        <time>2026-08-29T09:47:41.000Z</time>
      </trkpt>
      <trkpt lat="44.99876" lon="5.88047">
        <ele>1067.202287</ele>
        <time>2026-08-29T09:47:42.000Z</time>
      </trkpt>
      <trkpt lat="44.99866" lon="5.88049">
        <ele>1066.923647</ele>
        <time>2026-08-29T09:47:43.000Z</time>
      </trkpt>
      <trkpt lat="44.99857" lon="5.8805">
        <ele>1066.645006</ele>
        <time>2026-08-29T09:47:44.000Z</time>
      </trkpt>
      <trkpt lat="44.99848" lon="5.88051">
        <ele>1066.363641</ele>
        <time>2026-08-29T09:47:45.000Z</time>
      </trkpt>
      <trkpt lat="44.99838" lon="5.88053">
        <ele>1066.082277</ele>
        <time>2026-08-29T09:47:46.000Z</time>
      </trkpt>
      <trkpt lat="44.99828" lon="5.88054">
        <ele>1065.798169</ele>
        <time>2026-08-29T09:47:47.000Z</time>
      </trkpt>
      <trkpt lat="44.99819" lon="5.88055">
        <ele>1065.511125</ele>
        <time>2026-08-29T09:47:48.000Z</time>
      </trkpt>
      <trkpt lat="44.99809" lon="5.88056">
        <ele>1065.224255</ele>
        <time>2026-08-29T09:47:49.000Z</time>
      </trkpt>
      <trkpt lat="44.99799" lon="5.88057">
        <ele>1064.940875</ele>
        <time>2026-08-29T09:47:50.000Z</time>
      </trkpt>
      <trkpt lat="44.9979" lon="5.88058">
        <ele>1064.65725</ele>
        <time>2026-08-29T09:47:51.000Z</time>
      </trkpt>
      <trkpt lat="44.9978" lon="5.88058">
        <ele>1064.371024</ele>
        <time>2026-08-29T09:47:52.000Z</time>
      </trkpt>
      <trkpt lat="44.9977" lon="5.88059">
        <ele>1064.081515</ele>
        <time>2026-08-29T09:47:53.000Z</time>
      </trkpt>
      <trkpt lat="44.9976" lon="5.8806">
        <ele>1063.788768</ele>
        <time>2026-08-29T09:47:54.000Z</time>
      </trkpt>
      <trkpt lat="44.99751" lon="5.88061">
        <ele>1063.496555</ele>
        <time>2026-08-29T09:47:55.000Z</time>
      </trkpt>
      <trkpt lat="44.99741" lon="5.88062">
        <ele>1063.207174</ele>
        <time>2026-08-29T09:47:56.000Z</time>
      </trkpt>
      <trkpt lat="44.99731" lon="5.88063">
        <ele>1062.91485</ele>
        <time>2026-08-29T09:47:57.000Z</time>
      </trkpt>
      <trkpt lat="44.99721" lon="5.88063">
        <ele>1062.619582</ele>
        <time>2026-08-29T09:47:58.000Z</time>
      </trkpt>
      <trkpt lat="44.99711" lon="5.88064">
        <ele>1062.362245</ele>
        <time>2026-08-29T09:47:59.000Z</time>
      </trkpt>
      <trkpt lat="44.99701" lon="5.88065">
        <ele>1062.130754</ele>
        <time>2026-08-29T09:48:00.000Z</time>
      </trkpt>
      <trkpt lat="44.99692" lon="5.88066">
        <ele>1061.897106</ele>
        <time>2026-08-29T09:48:01.000Z</time>
      </trkpt>
      <trkpt lat="44.99682" lon="5.88067">
        <ele>1061.672459</ele>
        <time>2026-08-29T09:48:02.000Z</time>
      </trkpt>
      <trkpt lat="44.99673" lon="5.8807">
        <ele>1061.454771</ele>
        <time>2026-08-29T09:48:03.000Z</time>
      </trkpt>
      <trkpt lat="44.99664" lon="5.88072">
        <ele>1061.236461</ele>
        <time>2026-08-29T09:48:04.000Z</time>
      </trkpt>
      <trkpt lat="44.99655" lon="5.88075">
        <ele>1061.02019</ele>
        <time>2026-08-29T09:48:05.000Z</time>
      </trkpt>
      <trkpt lat="44.99647" lon="5.88079">
        <ele>1060.806223</ele>
        <time>2026-08-29T09:48:06.000Z</time>
      </trkpt>
      <trkpt lat="44.99638" lon="5.88082">
        <ele>1060.599583</ele>
        <time>2026-08-29T09:48:07.000Z</time>
      </trkpt>
      <trkpt lat="44.9963" lon="5.88088">
        <ele>1060.378472</ele>
        <time>2026-08-29T09:48:08.000Z</time>
      </trkpt>
      <trkpt lat="44.99623" lon="5.88095">
        <ele>1060.174243</ele>
        <time>2026-08-29T09:48:09.000Z</time>
      </trkpt>
      <trkpt lat="44.99615" lon="5.88102">
        <ele>1059.960352</ele>
        <time>2026-08-29T09:48:10.000Z</time>
      </trkpt>
      <trkpt lat="44.99608" lon="5.88109">
        <ele>1059.743548</ele>
        <time>2026-08-29T09:48:11.000Z</time>
      </trkpt>
      <trkpt lat="44.996" lon="5.88115">
        <ele>1059.53329</ele>
        <time>2026-08-29T09:48:12.000Z</time>
      </trkpt>
      <trkpt lat="44.99592" lon="5.88122">
        <ele>1059.314892</ele>
        <time>2026-08-29T09:48:13.000Z</time>
      </trkpt>
      <trkpt lat="44.99584" lon="5.88128">
        <ele>1059.099017</ele>
        <time>2026-08-29T09:48:14.000Z</time>
      </trkpt>
      <trkpt lat="44.99577" lon="5.88134">
        <ele>1058.894255</ele>
        <time>2026-08-29T09:48:15.000Z</time>
      </trkpt>
      <trkpt lat="44.9957" lon="5.88139">
        <ele>1058.708628</ele>
        <time>2026-08-29T09:48:16.000Z</time>
      </trkpt>
      <trkpt lat="44.99563" lon="5.88145">
        <ele>1058.520762</ele>
        <time>2026-08-29T09:48:17.000Z</time>
      </trkpt>
      <trkpt lat="44.99557" lon="5.8815">
        <ele>1058.345439</ele>
        <time>2026-08-29T09:48:18.000Z</time>
      </trkpt>
      <trkpt lat="44.9955" lon="5.88156">
        <ele>1058.162234</ele>
        <time>2026-08-29T09:48:19.000Z</time>
      </trkpt>
      <trkpt lat="44.99543" lon="5.88162">
        <ele>1057.997231</ele>
        <time>2026-08-29T09:48:20.000Z</time>
      </trkpt>
      <trkpt lat="44.99536" lon="5.88167">
        <ele>1057.843666</ele>
        <time>2026-08-29T09:48:21.000Z</time>
      </trkpt>
      <trkpt lat="44.99531" lon="5.88173">
        <ele>1057.699789</ele>
        <time>2026-08-29T09:48:22.000Z</time>
      </trkpt>
      <trkpt lat="44.99524" lon="5.88179">
        <ele>1057.535751</ele>
        <time>2026-08-29T09:48:23.000Z</time>
      </trkpt>
      <trkpt lat="44.99517" lon="5.88184">
        <ele>1057.375799</ele>
        <time>2026-08-29T09:48:24.000Z</time>
      </trkpt>
      <trkpt lat="44.9951" lon="5.8819">
        <ele>1057.21751</ele>
        <time>2026-08-29T09:48:25.000Z</time>
      </trkpt>
      <trkpt lat="44.99503" lon="5.88196">
        <ele>1057.050483</ele>
        <time>2026-08-29T09:48:26.000Z</time>
      </trkpt>
      <trkpt lat="44.99496" lon="5.88202">
        <ele>1056.884878</ele>
        <time>2026-08-29T09:48:27.000Z</time>
      </trkpt>
      <trkpt lat="44.99489" lon="5.88207">
        <ele>1056.717721</ele>
        <time>2026-08-29T09:48:28.000Z</time>
      </trkpt>
      <trkpt lat="44.99482" lon="5.88212">
        <ele>1056.557414</ele>
        <time>2026-08-29T09:48:29.000Z</time>
      </trkpt>
      <trkpt lat="44.99475" lon="5.88217">
        <ele>1056.393377</ele>
        <time>2026-08-29T09:48:30.000Z</time>
      </trkpt>
      <trkpt lat="44.99468" lon="5.88222">
        <ele>1056.237691</ele>
        <time>2026-08-29T09:48:31.000Z</time>
      </trkpt>
      <trkpt lat="44.99461" lon="5.88227">
        <ele>1056.070994</ele>
        <time>2026-08-29T09:48:32.000Z</time>
      </trkpt>
      <trkpt lat="44.99453" lon="5.88233">
        <ele>1055.900701</ele>
        <time>2026-08-29T09:48:33.000Z</time>
      </trkpt>
      <trkpt lat="44.99446" lon="5.88238">
        <ele>1055.742104</ele>
        <time>2026-08-29T09:48:34.000Z</time>
      </trkpt>
      <trkpt lat="44.99439" lon="5.88243">
        <ele>1055.576243</ele>
        <time>2026-08-29T09:48:35.000Z</time>
      </trkpt>
      <trkpt lat="44.99432" lon="5.88248">
        <ele>1055.41225</ele>
        <time>2026-08-29T09:48:36.000Z</time>
      </trkpt>
      <trkpt lat="44.99424" lon="5.88253">
        <ele>1055.242622</ele>
        <time>2026-08-29T09:48:37.000Z</time>
      </trkpt>
      <trkpt lat="44.99417" lon="5.88259">
        <ele>1055.076604</ele>
        <time>2026-08-29T09:48:38.000Z</time>
      </trkpt>
      <trkpt lat="44.9941" lon="5.88264">
        <ele>1054.906738</ele>
        <time>2026-08-29T09:48:39.000Z</time>
      </trkpt>
      <trkpt lat="44.99402" lon="5.88269">
        <ele>1054.740896</ele>
        <time>2026-08-29T09:48:40.000Z</time>
      </trkpt>
      <trkpt lat="44.99396" lon="5.88275">
        <ele>1054.582775</ele>
        <time>2026-08-29T09:48:41.000Z</time>
      </trkpt>
      <trkpt lat="44.99389" lon="5.88281">
        <ele>1054.57716</ele>
        <time>2026-08-29T09:48:42.000Z</time>
      </trkpt>
      <trkpt lat="44.99381" lon="5.88286">
        <ele>1054.608947</ele>
        <time>2026-08-29T09:48:43.000Z</time>
      </trkpt>
      <trkpt lat="44.99374" lon="5.88292">
        <ele>1054.640815</ele>
        <time>2026-08-29T09:48:44.000Z</time>
      </trkpt>
      <trkpt lat="44.99366" lon="5.88297">
        <ele>1054.670977</ele>
        <time>2026-08-29T09:48:45.000Z</time>
      </trkpt>
      <trkpt lat="44.99358" lon="5.88302">
        <ele>1054.703056</ele>
        <time>2026-08-29T09:48:46.000Z</time>
      </trkpt>
      <trkpt lat="44.99351" lon="5.88306">
        <ele>1054.733909</ele>
        <time>2026-08-29T09:48:47.000Z</time>
      </trkpt>
      <trkpt lat="44.99343" lon="5.88309">
        <ele>1054.765049</ele>
        <time>2026-08-29T09:48:48.000Z</time>
      </trkpt>
      <trkpt lat="44.99334" lon="5.88312">
        <ele>1054.796905</ele>
        <time>2026-08-29T09:48:49.000Z</time>
      </trkpt>
      <trkpt lat="44.99326" lon="5.88314">
        <ele>1054.827804</ele>
        <time>2026-08-29T09:48:50.000Z</time>
      </trkpt>
      <trkpt lat="44.99318" lon="5.88315">
        <ele>1054.85878</ele>
        <time>2026-08-29T09:48:51.000Z</time>
      </trkpt>
      <trkpt lat="44.9931" lon="5.88315">
        <ele>1054.888167</ele>
        <time>2026-08-29T09:48:52.000Z</time>
      </trkpt>
      <trkpt lat="44.99302" lon="5.88313">
        <ele>1054.918211</ele>
        <time>2026-08-29T09:48:53.000Z</time>
      </trkpt>
      <trkpt lat="44.99294" lon="5.88312">
        <ele>1054.947277</ele>
        <time>2026-08-29T09:48:54.000Z</time>
      </trkpt>
      <trkpt lat="44.99287" lon="5.88309">
        <ele>1054.975569</ele>
        <time>2026-08-29T09:48:55.000Z</time>
      </trkpt>
      <trkpt lat="44.9928" lon="5.88306">
        <ele>1055.003202</ele>
        <time>2026-08-29T09:48:56.000Z</time>
      </trkpt>
      <trkpt lat="44.99272" lon="5.88304">
        <ele>1055.030901</ele>
        <time>2026-08-29T09:48:57.000Z</time>
      </trkpt>
      <trkpt lat="44.99266" lon="5.88301">
        <ele>1055.056963</ele>
        <time>2026-08-29T09:48:58.000Z</time>
      </trkpt>
      <trkpt lat="44.99259" lon="5.88299">
        <ele>1055.081944</ele>
        <time>2026-08-29T09:48:59.000Z</time>
      </trkpt>
      <trkpt lat="44.99253" lon="5.88298">
        <ele>1055.104557</ele>
        <time>2026-08-29T09:49:00.000Z</time>
      </trkpt>
      <trkpt lat="44.99247" lon="5.88296">
        <ele>1055.126947</ele>
        <time>2026-08-29T09:49:01.000Z</time>
      </trkpt>
      <trkpt lat="44.99242" lon="5.88294">
        <ele>1055.148192</ele>
        <time>2026-08-29T09:49:02.000Z</time>
      </trkpt>
      <trkpt lat="44.99236" lon="5.88293">
        <ele>1055.169181</ele>
        <time>2026-08-29T09:49:03.000Z</time>
      </trkpt>
      <trkpt lat="44.99231" lon="5.88292">
        <ele>1055.188632</ele>
        <time>2026-08-29T09:49:04.000Z</time>
      </trkpt>
      <trkpt lat="44.99226" lon="5.88292">
        <ele>1055.207254</ele>
        <time>2026-08-29T09:49:05.000Z</time>
      </trkpt>
      <trkpt lat="44.99221" lon="5.88292">
        <ele>1055.220904</ele>
        <time>2026-08-29T09:49:06.000Z</time>
      </trkpt>
      <trkpt lat="44.99217" lon="5.88293">
        <ele>1055.22068</ele>
        <time>2026-08-29T09:49:07.000Z</time>
      </trkpt>
      <trkpt lat="44.99213" lon="5.88294">
        <ele>1055.220471</ele>
        <time>2026-08-29T09:49:08.000Z</time>
      </trkpt>
      <trkpt lat="44.99209" lon="5.88295">
        <ele>1055.220259</ele>
        <time>2026-08-29T09:49:09.000Z</time>
      </trkpt>
      <trkpt lat="44.99205" lon="5.88296">
        <ele>1055.22004</ele>
        <time>2026-08-29T09:49:10.000Z</time>
      </trkpt>
      <trkpt lat="44.992" lon="5.88297">
        <ele>1055.219816</ele>
        <time>2026-08-29T09:49:11.000Z</time>
      </trkpt>
      <trkpt lat="44.99196" lon="5.88299">
        <ele>1055.219588</ele>
        <time>2026-08-29T09:49:12.000Z</time>
      </trkpt>
      <trkpt lat="44.99192" lon="5.883">
        <ele>1055.219368</ele>
        <time>2026-08-29T09:49:13.000Z</time>
      </trkpt>
      <trkpt lat="44.99188" lon="5.88302">
        <ele>1055.219143</ele>
        <time>2026-08-29T09:49:14.000Z</time>
      </trkpt>
      <trkpt lat="44.99184" lon="5.88304">
        <ele>1055.218925</ele>
        <time>2026-08-29T09:49:15.000Z</time>
      </trkpt>
      <trkpt lat="44.9918" lon="5.88305">
        <ele>1055.218707</ele>
        <time>2026-08-29T09:49:16.000Z</time>
      </trkpt>
      <trkpt lat="44.99175" lon="5.88306">
        <ele>1055.218489</ele>
        <time>2026-08-29T09:49:17.000Z</time>
      </trkpt>
      <trkpt lat="44.99171" lon="5.88308">
        <ele>1055.218276</ele>
        <time>2026-08-29T09:49:18.000Z</time>
      </trkpt>
      <trkpt lat="44.99167" lon="5.88309">
        <ele>1055.218048</ele>
        <time>2026-08-29T09:49:19.000Z</time>
      </trkpt>
      <trkpt lat="44.99163" lon="5.88311">
        <ele>1055.217807</ele>
        <time>2026-08-29T09:49:20.000Z</time>
      </trkpt>
      <trkpt lat="44.99158" lon="5.88313">
        <ele>1055.217571</ele>
        <time>2026-08-29T09:49:21.000Z</time>
      </trkpt>
      <trkpt lat="44.99154" lon="5.88314">
        <ele>1055.217336</ele>
        <time>2026-08-29T09:49:22.000Z</time>
      </trkpt>
      <trkpt lat="44.99149" lon="5.88316">
        <ele>1055.217091</ele>
        <time>2026-08-29T09:49:23.000Z</time>
      </trkpt>
      <trkpt lat="44.99145" lon="5.88318">
        <ele>1055.216849</ele>
        <time>2026-08-29T09:49:24.000Z</time>
      </trkpt>
      <trkpt lat="44.9914" lon="5.8832">
        <ele>1055.216606</ele>
        <time>2026-08-29T09:49:25.000Z</time>
      </trkpt>
      <trkpt lat="44.99136" lon="5.88322">
        <ele>1055.216369</ele>
        <time>2026-08-29T09:49:26.000Z</time>
      </trkpt>
      <trkpt lat="44.99131" lon="5.88323">
        <ele>1055.216122</ele>
        <time>2026-08-29T09:49:27.000Z</time>
      </trkpt>
      <trkpt lat="44.99127" lon="5.88324">
        <ele>1055.215879</ele>
        <time>2026-08-29T09:49:28.000Z</time>
      </trkpt>
      <trkpt lat="44.99122" lon="5.88326">
        <ele>1055.21564</ele>
        <time>2026-08-29T09:49:29.000Z</time>
      </trkpt>
      <trkpt lat="44.99117" lon="5.88327">
        <ele>1055.215397</ele>
        <time>2026-08-29T09:49:30.000Z</time>
      </trkpt>
      <trkpt lat="44.99113" lon="5.88329">
        <ele>1055.215144</ele>
        <time>2026-08-29T09:49:31.000Z</time>
      </trkpt>
      <trkpt lat="44.99108" lon="5.8833">
        <ele>1055.214889</ele>
        <time>2026-08-29T09:49:32.000Z</time>
      </trkpt>
      <trkpt lat="44.99103" lon="5.88332">
        <ele>1055.214627</ele>
        <time>2026-08-29T09:49:33.000Z</time>
      </trkpt>
      <trkpt lat="44.99098" lon="5.88334">
        <ele>1055.21435</ele>
        <time>2026-08-29T09:49:34.000Z</time>
      </trkpt>
      <trkpt lat="44.99092" lon="5.88335">
        <ele>1055.214066</ele>
        <time>2026-08-29T09:49:35.000Z</time>
      </trkpt>
      <trkpt lat="44.99087" lon="5.88337">
        <ele>1055.213777</ele>
        <time>2026-08-29T09:49:36.000Z</time>
      </trkpt>
      <trkpt lat="44.99081" lon="5.88339">
        <ele>1055.213465</ele>
        <time>2026-08-29T09:49:37.000Z</time>
      </trkpt>
      <trkpt lat="44.99075" lon="5.8834">
        <ele>1055.21315</ele>
        <time>2026-08-29T09:49:38.000Z</time>
      </trkpt>
      <trkpt lat="44.99069" lon="5.88341">
        <ele>1055.212822</ele>
        <time>2026-08-29T09:49:39.000Z</time>
      </trkpt>
      <trkpt lat="44.99062" lon="5.88343">
        <ele>1055.212478</ele>
        <time>2026-08-29T09:49:40.000Z</time>
      </trkpt>
      <trkpt lat="44.99055" lon="5.88344">
        <ele>1055.212119</ele>
        <time>2026-08-29T09:49:41.000Z</time>
      </trkpt>
      <trkpt lat="44.99048" lon="5.88345">
        <ele>1055.211766</ele>
        <time>2026-08-29T09:49:42.000Z</time>
      </trkpt>
      <trkpt lat="44.99041" lon="5.88345">
        <ele>1055.018465</ele>
        <time>2026-08-29T09:49:43.000Z</time>
      </trkpt>
      <trkpt lat="44.99034" lon="5.88346">
        <ele>1054.741133</ele>
        <time>2026-08-29T09:49:44.000Z</time>
      </trkpt>
      <trkpt lat="44.99027" lon="5.88347">
        <ele>1054.463556</ele>
        <time>2026-08-29T09:49:45.000Z</time>
      </trkpt>
      <trkpt lat="44.99019" lon="5.88348">
        <ele>1054.174912</ele>
        <time>2026-08-29T09:49:46.000Z</time>
      </trkpt>
      <trkpt lat="44.99011" lon="5.88349">
        <ele>1053.883048</ele>
        <time>2026-08-29T09:49:47.000Z</time>
      </trkpt>
      <trkpt lat="44.99003" lon="5.8835">
        <ele>1053.575542</ele>
        <time>2026-08-29T09:49:48.000Z</time>
      </trkpt>
      <trkpt lat="44.98995" lon="5.88351">
        <ele>1053.275104</ele>
        <time>2026-08-29T09:49:49.000Z</time>
      </trkpt>
      <trkpt lat="44.98987" lon="5.88352">
        <ele>1052.969314</ele>
        <time>2026-08-29T09:49:50.000Z</time>
      </trkpt>
      <trkpt lat="44.98979" lon="5.88355">
        <ele>1052.656633</ele>
        <time>2026-08-29T09:49:51.000Z</time>
      </trkpt>
      <trkpt lat="44.98971" lon="5.88358">
        <ele>1052.345614</ele>
        <time>2026-08-29T09:49:52.000Z</time>
      </trkpt>
      <trkpt lat="44.98964" lon="5.88362">
        <ele>1052.030281</ele>
        <time>2026-08-29T09:49:53.000Z</time>
      </trkpt>
      <trkpt lat="44.98956" lon="5.88367">
        <ele>1051.717592</ele>
        <time>2026-08-29T09:49:54.000Z</time>
      </trkpt>
      <trkpt lat="44.98949" lon="5.88373">
        <ele>1051.402425</ele>
        <time>2026-08-29T09:49:55.000Z</time>
      </trkpt>
      <trkpt lat="44.98942" lon="5.88378">
        <ele>1051.096704</ele>
        <time>2026-08-29T09:49:56.000Z</time>
      </trkpt>
      <trkpt lat="44.98935" lon="5.88385">
        <ele>1050.793651</ele>
        <time>2026-08-29T09:49:57.000Z</time>
      </trkpt>
      <trkpt lat="44.98929" lon="5.88391">
        <ele>1050.496903</ele>
        <time>2026-08-29T09:49:58.000Z</time>
      </trkpt>
      <trkpt lat="44.98922" lon="5.88397">
        <ele>1050.200154</ele>
        <time>2026-08-29T09:49:59.000Z</time>
      </trkpt>
      <trkpt lat="44.98916" lon="5.88403">
        <ele>1049.906558</ele>
        <time>2026-08-29T09:50:00.000Z</time>
      </trkpt>
      <trkpt lat="44.9891" lon="5.8841">
        <ele>1049.611393</ele>
        <time>2026-08-29T09:50:01.000Z</time>
      </trkpt>
      <trkpt lat="44.98904" lon="5.88417">
        <ele>1049.324994</ele>
        <time>2026-08-29T09:50:02.000Z</time>
      </trkpt>
      <trkpt lat="44.98898" lon="5.88423">
        <ele>1049.033968</ele>
        <time>2026-08-29T09:50:03.000Z</time>
      </trkpt>
      <trkpt lat="44.98892" lon="5.8843">
        <ele>1048.744609</ele>
        <time>2026-08-29T09:50:04.000Z</time>
      </trkpt>
      <trkpt lat="44.98886" lon="5.88437">
        <ele>1048.455249</ele>
        <time>2026-08-29T09:50:05.000Z</time>
      </trkpt>
      <trkpt lat="44.9888" lon="5.88443">
        <ele>1048.261901</ele>
        <time>2026-08-29T09:50:06.000Z</time>
      </trkpt>
      <trkpt lat="44.98874" lon="5.8845">
        <ele>1048.0846</ele>
        <time>2026-08-29T09:50:07.000Z</time>
      </trkpt>
      <trkpt lat="44.98868" lon="5.88457">
        <ele>1047.908118</ele>
        <time>2026-08-29T09:50:08.000Z</time>
      </trkpt>
      <trkpt lat="44.98861" lon="5.88463">
        <ele>1047.731804</ele>
        <time>2026-08-29T09:50:09.000Z</time>
      </trkpt>
      <trkpt lat="44.98855" lon="5.88469">
        <ele>1047.549898</ele>
        <time>2026-08-29T09:50:10.000Z</time>
      </trkpt>
      <trkpt lat="44.98848" lon="5.88475">
        <ele>1047.369656</ele>
        <time>2026-08-29T09:50:11.000Z</time>
      </trkpt>
      <trkpt lat="44.98841" lon="5.88481">
        <ele>1047.18601</ele>
        <time>2026-08-29T09:50:12.000Z</time>
      </trkpt>
      <trkpt lat="44.98835" lon="5.88486">
        <ele>1047.004753</ele>
        <time>2026-08-29T09:50:13.000Z</time>
      </trkpt>
      <trkpt lat="44.98828" lon="5.88491">
        <ele>1046.830038</ele>
        <time>2026-08-29T09:50:14.000Z</time>
      </trkpt>
      <trkpt lat="44.98821" lon="5.88496">
        <ele>1046.657394</ele>
        <time>2026-08-29T09:50:15.000Z</time>
      </trkpt>
      <trkpt lat="44.98815" lon="5.885">
        <ele>1046.493102</ele>
        <time>2026-08-29T09:50:16.000Z</time>
      </trkpt>
      <trkpt lat="44.98808" lon="5.88504">
        <ele>1046.325225</ele>
        <time>2026-08-29T09:50:17.000Z</time>
      </trkpt>
      <trkpt lat="44.98801" lon="5.88507">
        <ele>1046.163483</ele>
        <time>2026-08-29T09:50:18.000Z</time>
      </trkpt>
      <trkpt lat="44.98795" lon="5.88511">
        <ele>1046.00189</ele>
        <time>2026-08-29T09:50:19.000Z</time>
      </trkpt>
      <trkpt lat="44.98788" lon="5.88514">
        <ele>1045.842355</ele>
        <time>2026-08-29T09:50:20.000Z</time>
      </trkpt>
      <trkpt lat="44.98781" lon="5.88516">
        <ele>1045.679753</ele>
        <time>2026-08-29T09:50:21.000Z</time>
      </trkpt>
      <trkpt lat="44.98775" lon="5.88518">
        <ele>1045.521688</ele>
        <time>2026-08-29T09:50:22.000Z</time>
      </trkpt>
      <trkpt lat="44.98768" lon="5.8852">
        <ele>1045.366533</ele>
        <time>2026-08-29T09:50:23.000Z</time>
      </trkpt>
      <trkpt lat="44.98762" lon="5.88521">
        <ele>1045.215</ele>
        <time>2026-08-29T09:50:24.000Z</time>
      </trkpt>
      <trkpt lat="44.98755" lon="5.88523">
        <ele>1045.063467</ele>
        <time>2026-08-29T09:50:25.000Z</time>
      </trkpt>
      <trkpt lat="44.98749" lon="5.88524">
        <ele>1044.914648</ele>
        <time>2026-08-29T09:50:26.000Z</time>
      </trkpt>
      <trkpt lat="44.98742" lon="5.88525">
        <ele>1044.770782</ele>
        <time>2026-08-29T09:50:27.000Z</time>
      </trkpt>
      <trkpt lat="44.98736" lon="5.88525">
        <ele>1044.629513</ele>
        <time>2026-08-29T09:50:28.000Z</time>
      </trkpt>
      <trkpt lat="44.9873" lon="5.88526">
        <ele>1044.490544</ele>
        <time>2026-08-29T09:50:29.000Z</time>
      </trkpt>
      <trkpt lat="44.98724" lon="5.88527">
        <ele>1044.349275</ele>
        <time>2026-08-29T09:50:30.000Z</time>
      </trkpt>
      <trkpt lat="44.98718" lon="5.88527">
        <ele>1044.2709</ele>
        <time>2026-08-29T09:50:31.000Z</time>
      </trkpt>
      <trkpt lat="44.98712" lon="5.88528">
        <ele>1044.333951</ele>
        <time>2026-08-29T09:50:32.000Z</time>
      </trkpt>
      <trkpt lat="44.98707" lon="5.88529">
        <ele>1044.397232</ele>
        <time>2026-08-29T09:50:33.000Z</time>
      </trkpt>
      <trkpt lat="44.98701" lon="5.8853">
        <ele>1044.459655</ele>
        <time>2026-08-29T09:50:34.000Z</time>
      </trkpt>
      <trkpt lat="44.98695" lon="5.88531">
        <ele>1044.520919</ele>
        <time>2026-08-29T09:50:35.000Z</time>
      </trkpt>
      <trkpt lat="44.98689" lon="5.88532">
        <ele>1044.583343</ele>
        <time>2026-08-29T09:50:36.000Z</time>
      </trkpt>
      <trkpt lat="44.98684" lon="5.88534">
        <ele>1044.645228</ele>
        <time>2026-08-29T09:50:37.000Z</time>
      </trkpt>
      <trkpt lat="44.98678" lon="5.88536">
        <ele>1044.705522</ele>
        <time>2026-08-29T09:50:38.000Z</time>
      </trkpt>
      <trkpt lat="44.98672" lon="5.88538">
        <ele>1044.767623</ele>
        <time>2026-08-29T09:50:39.000Z</time>
      </trkpt>
      <trkpt lat="44.98667" lon="5.8854">
        <ele>1044.831573</ele>
        <time>2026-08-29T09:50:40.000Z</time>
      </trkpt>
      <trkpt lat="44.98661" lon="5.88543">
        <ele>1044.8943</ele>
        <time>2026-08-29T09:50:41.000Z</time>
      </trkpt>
      <trkpt lat="44.98655" lon="5.88545">
        <ele>1044.957028</ele>
        <time>2026-08-29T09:50:42.000Z</time>
      </trkpt>
      <trkpt lat="44.9865" lon="5.88547">
        <ele>1045.017898</ele>
        <time>2026-08-29T09:50:43.000Z</time>
      </trkpt>
      <trkpt lat="44.98644" lon="5.88549">
        <ele>1045.077744</ele>
        <time>2026-08-29T09:50:44.000Z</time>
      </trkpt>
      <trkpt lat="44.98639" lon="5.88551">
        <ele>1045.135766</ele>
        <time>2026-08-29T09:50:45.000Z</time>
      </trkpt>
      <trkpt lat="44.98634" lon="5.88553">
        <ele>1045.191744</ele>
        <time>2026-08-29T09:50:46.000Z</time>
      </trkpt>
      <trkpt lat="44.98629" lon="5.88555">
        <ele>1045.24688</ele>
        <time>2026-08-29T09:50:47.000Z</time>
      </trkpt>
      <trkpt lat="44.98624" lon="5.88557">
        <ele>1045.302645</ele>
        <time>2026-08-29T09:50:48.000Z</time>
      </trkpt>
      <trkpt lat="44.98619" lon="5.8856">
        <ele>1045.356864</ele>
        <time>2026-08-29T09:50:49.000Z</time>
      </trkpt>
      <trkpt lat="44.98614" lon="5.88562">
        <ele>1045.411613</ele>
        <time>2026-08-29T09:50:50.000Z</time>
      </trkpt>
      <trkpt lat="44.9861" lon="5.88564">
        <ele>1045.465832</ele>
        <time>2026-08-29T09:50:51.000Z</time>
      </trkpt>
      <trkpt lat="44.98605" lon="5.88567">
        <ele>1045.519804</ele>
        <time>2026-08-29T09:50:52.000Z</time>
      </trkpt>
      <trkpt lat="44.986" lon="5.88569">
        <ele>1045.572527</ele>
        <time>2026-08-29T09:50:53.000Z</time>
      </trkpt>
      <trkpt lat="44.98595" lon="5.88571">
        <ele>1045.625492</ele>
        <time>2026-08-29T09:50:54.000Z</time>
      </trkpt>
      <trkpt lat="44.98591" lon="5.88573">
        <ele>1045.678457</ele>
        <time>2026-08-29T09:50:55.000Z</time>
      </trkpt>
      <trkpt lat="44.98586" lon="5.88575">
        <ele>1045.730948</ele>
        <time>2026-08-29T09:50:56.000Z</time>
      </trkpt>
      <trkpt lat="44.98581" lon="5.88577">
        <ele>1045.781182</ele>
        <time>2026-08-29T09:50:57.000Z</time>
      </trkpt>
      <trkpt lat="44.98577" lon="5.88579">
        <ele>1045.831415</ele>
        <time>2026-08-29T09:50:58.000Z</time>
      </trkpt>
      <trkpt lat="44.98572" lon="5.88581">
        <ele>1045.881428</ele>
        <time>2026-08-29T09:50:59.000Z</time>
      </trkpt>
      <trkpt lat="44.98568" lon="5.88583">
        <ele>1045.931893</ele>
        <time>2026-08-29T09:51:00.000Z</time>
      </trkpt>
      <trkpt lat="44.98564" lon="5.88586">
        <ele>1045.979334</ele>
        <time>2026-08-29T09:51:01.000Z</time>
      </trkpt>
      <trkpt lat="44.98559" lon="5.88587">
        <ele>1046.026882</ele>
        <time>2026-08-29T09:51:02.000Z</time>
      </trkpt>
      <trkpt lat="44.98555" lon="5.88589">
        <ele>1046.072383</ele>
        <time>2026-08-29T09:51:03.000Z</time>
      </trkpt>
      <trkpt lat="44.98551" lon="5.88591">
        <ele>1046.116312</ele>
        <time>2026-08-29T09:51:04.000Z</time>
      </trkpt>
      <trkpt lat="44.98548" lon="5.88593">
        <ele>1046.159235</ele>
        <time>2026-08-29T09:51:05.000Z</time>
      </trkpt>
      <trkpt lat="44.98544" lon="5.88594">
        <ele>1046.320601</ele>
        <time>2026-08-29T09:51:06.000Z</time>
      </trkpt>
      <trkpt lat="44.98541" lon="5.88596">
        <ele>1046.481308</ele>
        <time>2026-08-29T09:51:07.000Z</time>
      </trkpt>
      <trkpt lat="44.98538" lon="5.88597">
        <ele>1046.654698</ele>
        <time>2026-08-29T09:51:08.000Z</time>
      </trkpt>
      <trkpt lat="44.98534" lon="5.88599">
        <ele>1046.821181</ele>
        <time>2026-08-29T09:51:09.000Z</time>
      </trkpt>
      <trkpt lat="44.98531" lon="5.886">
        <ele>1047.007712</ele>
        <time>2026-08-29T09:51:10.000Z</time>
      </trkpt>
      <trkpt lat="44.98527" lon="5.88602">
        <ele>1047.186951</ele>
        <time>2026-08-29T09:51:11.000Z</time>
      </trkpt>
      <trkpt lat="44.98524" lon="5.88604">
        <ele>1047.365398</ele>
        <time>2026-08-29T09:51:12.000Z</time>
      </trkpt>
      <trkpt lat="44.98521" lon="5.88606">
        <ele>1047.526031</ele>
        <time>2026-08-29T09:51:13.000Z</time>
      </trkpt>
      <trkpt lat="44.98518" lon="5.88607">
        <ele>1047.690049</ele>
        <time>2026-08-29T09:51:14.000Z</time>
      </trkpt>
      <trkpt lat="44.98515" lon="5.88609">
        <ele>1047.851791</ele>
        <time>2026-08-29T09:51:15.000Z</time>
      </trkpt>
      <trkpt lat="44.98512" lon="5.8861">
        <ele>1048.006747</ele>
        <time>2026-08-29T09:51:16.000Z</time>
      </trkpt>
      <trkpt lat="44.98509" lon="5.88611">
        <ele>1048.156926</ele>
        <time>2026-08-29T09:51:17.000Z</time>
      </trkpt>
      <trkpt lat="44.98506" lon="5.88613">
        <ele>1048.324482</ele>
        <time>2026-08-29T09:51:18.000Z</time>
      </trkpt>
      <trkpt lat="44.98503" lon="5.88614">
        <ele>1048.478517</ele>
        <time>2026-08-29T09:51:19.000Z</time>
      </trkpt>
      <trkpt lat="44.985" lon="5.88615">
        <ele>1048.634466</ele>
        <time>2026-08-29T09:51:20.000Z</time>
      </trkpt>
      <trkpt lat="44.98497" lon="5.88616">
        <ele>1048.782075</ele>
        <time>2026-08-29T09:51:21.000Z</time>
      </trkpt>
      <trkpt lat="44.98494" lon="5.88618">
        <ele>1048.932174</ele>
        <time>2026-08-29T09:51:22.000Z</time>
      </trkpt>
      <trkpt lat="44.98491" lon="5.88619">
        <ele>1049.079783</ele>
        <time>2026-08-29T09:51:23.000Z</time>
      </trkpt>
      <trkpt lat="44.98488" lon="5.88621">
        <ele>1049.240416</ele>
        <time>2026-08-29T09:51:24.000Z</time>
      </trkpt>
      <trkpt lat="44.98486" lon="5.88622">
        <ele>1049.383349</ele>
        <time>2026-08-29T09:51:25.000Z</time>
      </trkpt>
      <trkpt lat="44.98483" lon="5.88624">
        <ele>1049.529823</ele>
        <time>2026-08-29T09:51:26.000Z</time>
      </trkpt>
      <trkpt lat="44.9848" lon="5.88625">
        <ele>1049.669476</ele>
        <time>2026-08-29T09:51:27.000Z</time>
      </trkpt>
      <trkpt lat="44.98477" lon="5.88626">
        <ele>1049.81301</ele>
        <time>2026-08-29T09:51:28.000Z</time>
      </trkpt>
      <trkpt lat="44.98474" lon="5.88627">
        <ele>1049.962239</ele>
        <time>2026-08-29T09:51:29.000Z</time>
      </trkpt>
      <trkpt lat="44.98472" lon="5.88628">
        <ele>1050.109804</ele>
        <time>2026-08-29T09:51:30.000Z</time>
      </trkpt>
      <trkpt lat="44.98469" lon="5.88629">
        <ele>1050.253338</ele>
        <time>2026-08-29T09:51:31.000Z</time>
      </trkpt>
      <trkpt lat="44.98466" lon="5.8863">
        <ele>1050.385728</ele>
        <time>2026-08-29T09:51:32.000Z</time>
      </trkpt>
      <trkpt lat="44.98464" lon="5.88631">
        <ele>1050.516945</ele>
        <time>2026-08-29T09:51:33.000Z</time>
      </trkpt>
      <trkpt lat="44.98461" lon="5.88633">
        <ele>1050.645982</ele>
        <time>2026-08-29T09:51:34.000Z</time>
      </trkpt>
      <trkpt lat="44.98459" lon="5.88634">
        <ele>1050.776399</ele>
        <time>2026-08-29T09:51:35.000Z</time>
      </trkpt>
      <trkpt lat="44.98456" lon="5.88635">
        <ele>1050.912333</ele>
        <time>2026-08-29T09:51:36.000Z</time>
      </trkpt>
      <trkpt lat="44.98454" lon="5.88636">
        <ele>1051.046252</ele>
        <time>2026-08-29T09:51:37.000Z</time>
      </trkpt>
      <trkpt lat="44.98451" lon="5.88638">
        <ele>1051.176382</ele>
        <time>2026-08-29T09:51:38.000Z</time>
      </trkpt>
      <trkpt lat="44.98449" lon="5.88639">
        <ele>1051.304119</ele>
        <time>2026-08-29T09:51:39.000Z</time>
      </trkpt>
      <trkpt lat="44.98446" lon="5.8864">
        <ele>1051.439003</ele>
        <time>2026-08-29T09:51:40.000Z</time>
      </trkpt>
      <trkpt lat="44.98444" lon="5.88641">
        <ele>1051.572922</ele>
        <time>2026-08-29T09:51:41.000Z</time>
      </trkpt>
      <trkpt lat="44.98441" lon="5.88642">
        <ele>1051.70414</ele>
        <time>2026-08-29T09:51:42.000Z</time>
      </trkpt>
      <trkpt lat="44.98439" lon="5.88643">
        <ele>1051.840073</ele>
        <time>2026-08-29T09:51:43.000Z</time>
      </trkpt>
      <trkpt lat="44.98436" lon="5.88644">
        <ele>1051.969203</ele>
        <time>2026-08-29T09:51:44.000Z</time>
      </trkpt>
      <trkpt lat="44.98434" lon="5.88645">
        <ele>1052.098332</ele>
        <time>2026-08-29T09:51:45.000Z</time>
      </trkpt>
      <trkpt lat="44.98431" lon="5.88646">
        <ele>1052.221739</ele>
        <time>2026-08-29T09:51:46.000Z</time>
      </trkpt>
      <trkpt lat="44.98429" lon="5.88647">
        <ele>1052.349956</ele>
        <time>2026-08-29T09:51:47.000Z</time>
      </trkpt>
      <trkpt lat="44.98426" lon="5.88648">
        <ele>1052.483875</ele>
        <time>2026-08-29T09:51:48.000Z</time>
      </trkpt>
      <trkpt lat="44.98423" lon="5.88649">
        <ele>1052.623528</ele>
        <time>2026-08-29T09:51:49.000Z</time>
      </trkpt>
      <trkpt lat="44.98421" lon="5.8865">
        <ele>1052.767062</ele>
        <time>2026-08-29T09:51:50.000Z</time>
      </trkpt>
      <trkpt lat="44.98418" lon="5.88651">
        <ele>1052.900981</ele>
        <time>2026-08-29T09:51:51.000Z</time>
      </trkpt>
      <trkpt lat="44.98415" lon="5.88652">
        <ele>1053.045416</ele>
        <time>2026-08-29T09:51:52.000Z</time>
      </trkpt>
      <trkpt lat="44.98413" lon="5.88653">
        <ele>1053.180301</ele>
        <time>2026-08-29T09:51:53.000Z</time>
      </trkpt>
      <trkpt lat="44.9841" lon="5.88654">
        <ele>1053.323014</ele>
        <time>2026-08-29T09:51:54.000Z</time>
      </trkpt>
      <trkpt lat="44.98407" lon="5.88655">
        <ele>1053.462667</ele>
        <time>2026-08-29T09:51:55.000Z</time>
      </trkpt>
      <trkpt lat="44.98404" lon="5.88657">
        <ele>1053.598601</ele>
        <time>2026-08-29T09:51:56.000Z</time>
      </trkpt>
      <trkpt lat="44.98402" lon="5.88658">
        <ele>1053.738254</ele>
        <time>2026-08-29T09:51:57.000Z</time>
      </trkpt>
      <trkpt lat="44.98399" lon="5.88659">
        <ele>1053.863648</ele>
        <time>2026-08-29T09:51:58.000Z</time>
      </trkpt>
      <trkpt lat="44.98397" lon="5.88661">
        <ele>1053.997063</ele>
        <time>2026-08-29T09:51:59.000Z</time>
      </trkpt>
      <trkpt lat="44.98394" lon="5.88662">
        <ele>1054.127194</ele>
        <time>2026-08-29T09:52:00.000Z</time>
      </trkpt>
      <trkpt lat="44.98392" lon="5.88663">
        <ele>1054.262078</ele>
        <time>2026-08-29T09:52:01.000Z</time>
      </trkpt>
      <trkpt lat="44.98389" lon="5.88664">
        <ele>1054.398012</ele>
        <time>2026-08-29T09:52:02.000Z</time>
      </trkpt>
      <trkpt lat="44.98387" lon="5.88665">
        <ele>1054.525749</ele>
        <time>2026-08-29T09:52:03.000Z</time>
      </trkpt>
      <trkpt lat="44.98384" lon="5.88666">
        <ele>1054.654878</ele>
        <time>2026-08-29T09:52:04.000Z</time>
      </trkpt>
      <trkpt lat="44.98382" lon="5.88667">
        <ele>1054.786097</ele>
        <time>2026-08-29T09:52:05.000Z</time>
      </trkpt>
      <trkpt lat="44.98379" lon="5.88669">
        <ele>1054.917315</ele>
        <time>2026-08-29T09:52:06.000Z</time>
      </trkpt>
      <trkpt lat="44.98377" lon="5.88669">
        <ele>1055.047727</ele>
        <time>2026-08-29T09:52:07.000Z</time>
      </trkpt>
      <trkpt lat="44.98374" lon="5.8867">
        <ele>1055.114629</ele>
        <time>2026-08-29T09:52:08.000Z</time>
      </trkpt>
      <trkpt lat="44.98372" lon="5.88671">
        <ele>1055.127605</ele>
        <time>2026-08-29T09:52:09.000Z</time>
      </trkpt>
      <trkpt lat="44.98369" lon="5.88672">
        <ele>1055.140959</ele>
        <time>2026-08-29T09:52:10.000Z</time>
      </trkpt>
      <trkpt lat="44.98366" lon="5.88673">
        <ele>1055.15519</ele>
        <time>2026-08-29T09:52:11.000Z</time>
      </trkpt>
      <trkpt lat="44.98363" lon="5.88674">
        <ele>1055.17007</ele>
        <time>2026-08-29T09:52:12.000Z</time>
      </trkpt>
      <trkpt lat="44.98361" lon="5.88676">
        <ele>1055.18458</ele>
        <time>2026-08-29T09:52:13.000Z</time>
      </trkpt>
      <trkpt lat="44.98358" lon="5.88677">
        <ele>1055.197447</ele>
        <time>2026-08-29T09:52:14.000Z</time>
      </trkpt>
      <trkpt lat="44.98356" lon="5.88678">
        <ele>1055.211195</ele>
        <time>2026-08-29T09:52:15.000Z</time>
      </trkpt>
      <trkpt lat="44.98353" lon="5.88679">
        <ele>1055.22334</ele>
        <time>2026-08-29T09:52:16.000Z</time>
      </trkpt>
      <trkpt lat="44.98351" lon="5.8868">
        <ele>1055.235844</ele>
        <time>2026-08-29T09:52:17.000Z</time>
      </trkpt>
      <trkpt lat="44.98348" lon="5.88681">
        <ele>1055.248397</ele>
        <time>2026-08-29T09:52:18.000Z</time>
      </trkpt>
      <trkpt lat="44.98346" lon="5.88683">
        <ele>1055.262146</ele>
        <time>2026-08-29T09:52:19.000Z</time>
      </trkpt>
      <trkpt lat="44.98343" lon="5.88684">
        <ele>1055.276063</ele>
        <time>2026-08-29T09:52:20.000Z</time>
      </trkpt>
      <trkpt lat="44.9834" lon="5.88686">
        <ele>1055.291491</ele>
        <time>2026-08-29T09:52:21.000Z</time>
      </trkpt>
      <trkpt lat="44.98338" lon="5.88688">
        <ele>1055.305408</ele>
        <time>2026-08-29T09:52:22.000Z</time>
      </trkpt>
      <trkpt lat="44.98335" lon="5.88689">
        <ele>1055.320652</ele>
        <time>2026-08-29T09:52:23.000Z</time>
      </trkpt>
      <trkpt lat="44.98332" lon="5.88692">
        <ele>1055.33567</ele>
        <time>2026-08-29T09:52:24.000Z</time>
      </trkpt>
      <trkpt lat="44.9833" lon="5.88694">
        <ele>1055.35206</ele>
        <time>2026-08-29T09:52:25.000Z</time>
      </trkpt>
      <trkpt lat="44.98327" lon="5.88697">
        <ele>1055.368409</ele>
        <time>2026-08-29T09:52:26.000Z</time>
      </trkpt>
      <trkpt lat="44.98325" lon="5.88701">
        <ele>1055.383876</ele>
        <time>2026-08-29T09:52:27.000Z</time>
      </trkpt>
      <trkpt lat="44.98323" lon="5.88705">
        <ele>1055.399923</ele>
        <time>2026-08-29T09:52:28.000Z</time>
      </trkpt>
      <trkpt lat="44.98322" lon="5.88708">
        <ele>1055.415684</ele>
        <time>2026-08-29T09:52:29.000Z</time>
      </trkpt>
      <trkpt lat="44.9832" lon="5.88713">
        <ele>1055.432647</ele>
        <time>2026-08-29T09:52:30.000Z</time>
      </trkpt>
      <trkpt lat="44.98318" lon="5.88717">
        <ele>1055.448756</ele>
        <time>2026-08-29T09:52:31.000Z</time>
      </trkpt>
      <trkpt lat="44.98316" lon="5.8872">
        <ele>1055.465386</ele>
        <time>2026-08-29T09:52:32.000Z</time>
      </trkpt>
      <trkpt lat="44.98314" lon="5.88724">
        <ele>1055.483178</ele>
        <time>2026-08-29T09:52:33.000Z</time>
      </trkpt>
      <trkpt lat="44.98311" lon="5.88726">
        <ele>1055.500529</ele>
        <time>2026-08-29T09:52:34.000Z</time>
      </trkpt>
      <trkpt lat="44.98308" lon="5.88728">
        <ele>1055.51637</ele>
        <time>2026-08-29T09:52:35.000Z</time>
      </trkpt>
      <trkpt lat="44.98305" lon="5.8873">
        <ele>1055.531798</ele>
        <time>2026-08-29T09:52:36.000Z</time>
      </trkpt>
      <trkpt lat="44.98302" lon="5.88731">
        <ele>1055.54725</ele>
        <time>2026-08-29T09:52:37.000Z</time>
      </trkpt>
      <trkpt lat="44.98299" lon="5.88731">
        <ele>1055.561729</ele>
        <time>2026-08-29T09:52:38.000Z</time>
      </trkpt>
      <trkpt lat="44.98296" lon="5.88733">
        <ele>1055.579135</ele>
        <time>2026-08-29T09:52:39.000Z</time>
      </trkpt>
      <trkpt lat="44.98293" lon="5.88733">
        <ele>1055.593525</ele>
        <time>2026-08-29T09:52:40.000Z</time>
      </trkpt>
      <trkpt lat="44.98289" lon="5.88734">
        <ele>1055.611916</ele>
        <time>2026-08-29T09:52:41.000Z</time>
      </trkpt>
      <trkpt lat="44.98285" lon="5.88734">
        <ele>1055.630778</ele>
        <time>2026-08-29T09:52:42.000Z</time>
      </trkpt>
      <trkpt lat="44.98281" lon="5.88734">
        <ele>1055.650119</ele>
        <time>2026-08-29T09:52:43.000Z</time>
      </trkpt>
      <trkpt lat="44.98278" lon="5.88733">
        <ele>1055.668982</ele>
        <time>2026-08-29T09:52:44.000Z</time>
      </trkpt>
      <trkpt lat="44.98274" lon="5.88733">
        <ele>1055.686947</ele>
        <time>2026-08-29T09:52:45.000Z</time>
      </trkpt>
      <trkpt lat="44.9827" lon="5.88731">
        <ele>1055.705405</ele>
        <time>2026-08-29T09:52:46.000Z</time>
      </trkpt>
      <trkpt lat="44.98267" lon="5.88729">
        <ele>1055.72433</ele>
        <time>2026-08-29T09:52:47.000Z</time>
      </trkpt>
      <trkpt lat="44.98263" lon="5.88727">
        <ele>1055.74291</ele>
        <time>2026-08-29T09:52:48.000Z</time>
      </trkpt>
      <trkpt lat="44.9826" lon="5.88725">
        <ele>1055.761894</ele>
        <time>2026-08-29T09:52:49.000Z</time>
      </trkpt>
      <trkpt lat="44.98256" lon="5.88723">
        <ele>1055.781654</ele>
        <time>2026-08-29T09:52:50.000Z</time>
      </trkpt>
      <trkpt lat="44.98253" lon="5.88721">
        <ele>1055.801379</ele>
        <time>2026-08-29T09:52:51.000Z</time>
      </trkpt>
      <trkpt lat="44.98249" lon="5.88718">
        <ele>1055.820276</ele>
        <time>2026-08-29T09:52:52.000Z</time>
      </trkpt>
      <trkpt lat="44.98246" lon="5.88716">
        <ele>1055.840307</ele>
        <time>2026-08-29T09:52:53.000Z</time>
      </trkpt>
      <trkpt lat="44.98242" lon="5.88713">
        <ele>1055.860785</ele>
        <time>2026-08-29T09:52:54.000Z</time>
      </trkpt>
      <trkpt lat="44.98238" lon="5.88709">
        <ele>1055.883679</ele>
        <time>2026-08-29T09:52:55.000Z</time>
      </trkpt>
      <trkpt lat="44.98234" lon="5.88706">
        <ele>1055.907598</ele>
        <time>2026-08-29T09:52:56.000Z</time>
      </trkpt>
      <trkpt lat="44.9823" lon="5.88701">
        <ele>1055.931787</ele>
        <time>2026-08-29T09:52:57.000Z</time>
      </trkpt>
      <trkpt lat="44.98226" lon="5.88696">
        <ele>1055.957514</ele>
        <time>2026-08-29T09:52:58.000Z</time>
      </trkpt>
      <trkpt lat="44.98223" lon="5.88691">
        <ele>1055.982082</ele>
        <time>2026-08-29T09:52:59.000Z</time>
      </trkpt>
      <trkpt lat="44.98219" lon="5.88686">
        <ele>1055.888593</ele>
        <time>2026-08-29T09:53:00.000Z</time>
      </trkpt>
      <trkpt lat="44.98213" lon="5.88682">
        <ele>1055.60968</ele>
        <time>2026-08-29T09:53:01.000Z</time>
      </trkpt>
      <trkpt lat="44.98207" lon="5.88678">
        <ele>1055.28813</ele>
        <time>2026-08-29T09:53:02.000Z</time>
      </trkpt>
      <trkpt lat="44.98201" lon="5.88674">
        <ele>1054.983851</ele>
        <time>2026-08-29T09:53:03.000Z</time>
      </trkpt>
      <trkpt lat="44.98194" lon="5.88671">
        <ele>1054.651537</ele>
        <time>2026-08-29T09:53:04.000Z</time>
      </trkpt>
      <trkpt lat="44.98187" lon="5.88668">
        <ele>1054.314537</ele>
        <time>2026-08-29T09:53:05.000Z</time>
      </trkpt>
      <trkpt lat="44.9818" lon="5.88665">
        <ele>1053.965935</ele>
        <time>2026-08-29T09:53:06.000Z</time>
      </trkpt>
      <trkpt lat="44.98173" lon="5.88662">
        <ele>1053.617334</ele>
        <time>2026-08-29T09:53:07.000Z</time>
      </trkpt>
      <trkpt lat="44.98166" lon="5.8866">
        <ele>1053.2659</ele>
        <time>2026-08-29T09:53:08.000Z</time>
      </trkpt>
      <trkpt lat="44.98159" lon="5.88657">
        <ele>1052.915489</ele>
        <time>2026-08-29T09:53:09.000Z</time>
      </trkpt>
      <trkpt lat="44.98151" lon="5.88654">
        <ele>1052.560598</ele>
        <time>2026-08-29T09:53:10.000Z</time>
      </trkpt>
      <trkpt lat="44.98144" lon="5.88651">
        <ele>1052.187739</ele>
        <time>2026-08-29T09:53:11.000Z</time>
      </trkpt>
      <trkpt lat="44.98136" lon="5.88648">
        <ele>1051.808591</ele>
        <time>2026-08-29T09:53:12.000Z</time>
      </trkpt>
      <trkpt lat="44.98128" lon="5.88645">
        <ele>1051.425853</ele>
        <time>2026-08-29T09:53:13.000Z</time>
      </trkpt>
      <trkpt lat="44.9812" lon="5.88642">
        <ele>1051.047197</ele>
        <time>2026-08-29T09:53:14.000Z</time>
      </trkpt>
      <trkpt lat="44.98112" lon="5.88639">
        <ele>1050.669275</ele>
        <time>2026-08-29T09:53:15.000Z</time>
      </trkpt>
      <trkpt lat="44.98104" lon="5.88637">
        <ele>1050.272409</ele>
        <time>2026-08-29T09:53:16.000Z</time>
      </trkpt>
      <trkpt lat="44.98096" lon="5.88634">
        <ele>1049.8801</ele>
        <time>2026-08-29T09:53:17.000Z</time>
      </trkpt>
      <trkpt lat="44.98087" lon="5.88632">
        <ele>1049.48779</ele>
        <time>2026-08-29T09:53:18.000Z</time>
      </trkpt>
      <trkpt lat="44.98079" lon="5.88629">
        <ele>1049.088664</ele>
        <time>2026-08-29T09:53:19.000Z</time>
      </trkpt>
      <trkpt lat="44.98071" lon="5.88626">
        <ele>1048.688733</ele>
        <time>2026-08-29T09:53:20.000Z</time>
      </trkpt>
      <trkpt lat="44.98062" lon="5.88623">
        <ele>1048.287971</ele>
        <time>2026-08-29T09:53:21.000Z</time>
      </trkpt>
      <trkpt lat="44.98054" lon="5.8862">
        <ele>1047.888844</ele>
        <time>2026-08-29T09:53:22.000Z</time>
      </trkpt>
      <trkpt lat="44.98046" lon="5.88617">
        <ele>1047.491778</ele>
        <time>2026-08-29T09:53:23.000Z</time>
      </trkpt>
      <trkpt lat="44.98038" lon="5.88614">
        <ele>1047.103966</ele>
        <time>2026-08-29T09:53:24.000Z</time>
      </trkpt>
      <trkpt lat="44.98029" lon="5.88612">
        <ele>1046.716154</ele>
        <time>2026-08-29T09:53:25.000Z</time>
      </trkpt>
      <trkpt lat="44.98021" lon="5.88609">
        <ele>1046.332108</ele>
        <time>2026-08-29T09:53:26.000Z</time>
      </trkpt>
      <trkpt lat="44.98013" lon="5.88606">
        <ele>1045.944856</ele>
        <time>2026-08-29T09:53:27.000Z</time>
      </trkpt>
      <trkpt lat="44.98005" lon="5.88603">
        <ele>1045.562057</ele>
        <time>2026-08-29T09:53:28.000Z</time>
      </trkpt>
      <trkpt lat="44.97997" lon="5.88601">
        <ele>1045.185319</ele>
        <time>2026-08-29T09:53:29.000Z</time>
      </trkpt>
      <trkpt lat="44.9799" lon="5.88598">
        <ele>1044.817588</ele>
        <time>2026-08-29T09:53:30.000Z</time>
      </trkpt>
      <trkpt lat="44.97982" lon="5.88594">
        <ele>1044.447215</ele>
        <time>2026-08-29T09:53:31.000Z</time>
      </trkpt>
      <trkpt lat="44.97974" lon="5.88592">
        <ele>1044.088395</ele>
        <time>2026-08-29T09:53:32.000Z</time>
      </trkpt>
      <trkpt lat="44.97967" lon="5.88589">
        <ele>1043.718572</ele>
        <time>2026-08-29T09:53:33.000Z</time>
      </trkpt>
      <trkpt lat="44.97958" lon="5.88586">
        <ele>1043.325127</ele>
        <time>2026-08-29T09:53:34.000Z</time>
      </trkpt>
      <trkpt lat="44.9795" lon="5.88582">
        <ele>1042.937009</ele>
        <time>2026-08-29T09:53:35.000Z</time>
      </trkpt>
      <trkpt lat="44.97942" lon="5.8858">
        <ele>1042.560352</ele>
        <time>2026-08-29T09:53:36.000Z</time>
      </trkpt>
      <trkpt lat="44.97934" lon="5.88575">
        <ele>1042.170858</ele>
        <time>2026-08-29T09:53:37.000Z</time>
      </trkpt>
      <trkpt lat="44.97926" lon="5.88572">
        <ele>1041.772634</ele>
        <time>2026-08-29T09:53:38.000Z</time>
      </trkpt>
      <trkpt lat="44.97918" lon="5.88567">
        <ele>1041.371253</ele>
        <time>2026-08-29T09:53:39.000Z</time>
      </trkpt>
      <trkpt lat="44.9791" lon="5.88563">
        <ele>1040.95617</ele>
        <time>2026-08-29T09:53:40.000Z</time>
      </trkpt>
      <trkpt lat="44.97902" lon="5.88558">
        <ele>1040.545342</ele>
        <time>2026-08-29T09:53:41.000Z</time>
      </trkpt>
      <trkpt lat="44.97893" lon="5.88552">
        <ele>1040.134809</ele>
        <time>2026-08-29T09:53:42.000Z</time>
      </trkpt>
      <trkpt lat="44.97885" lon="5.88547">
        <ele>1039.713126</ele>
        <time>2026-08-29T09:53:43.000Z</time>
      </trkpt>
      <trkpt lat="44.97877" lon="5.88541">
        <ele>1039.287412</ele>
        <time>2026-08-29T09:53:44.000Z</time>
      </trkpt>
      <trkpt lat="44.97869" lon="5.88535">
        <ele>1038.697135</ele>
        <time>2026-08-29T09:53:45.000Z</time>
      </trkpt>
      <trkpt lat="44.9786" lon="5.88529">
        <ele>1038.090963</ele>
        <time>2026-08-29T09:53:46.000Z</time>
      </trkpt>
      <trkpt lat="44.97852" lon="5.88523">
        <ele>1037.482683</ele>
        <time>2026-08-29T09:53:47.000Z</time>
      </trkpt>
      <trkpt lat="44.97844" lon="5.88517">
        <ele>1036.880047</ele>
        <time>2026-08-29T09:53:48.000Z</time>
      </trkpt>
      <trkpt lat="44.97835" lon="5.8851">
        <ele>1036.281638</ele>
        <time>2026-08-29T09:53:49.000Z</time>
      </trkpt>
      <trkpt lat="44.97827" lon="5.88504">
        <ele>1035.699182</ele>
        <time>2026-08-29T09:53:50.000Z</time>
      </trkpt>
      <trkpt lat="44.9782" lon="5.88498">
        <ele>1035.124525</ele>
        <time>2026-08-29T09:53:51.000Z</time>
      </trkpt>
      <trkpt lat="44.97812" lon="5.88491">
        <ele>1034.553134</ele>
        <time>2026-08-29T09:53:52.000Z</time>
      </trkpt>
      <trkpt lat="44.97804" lon="5.88485">
        <ele>1033.969286</ele>
        <time>2026-08-29T09:53:53.000Z</time>
      </trkpt>
      <trkpt lat="44.97796" lon="5.88478">
        <ele>1033.355622</ele>
        <time>2026-08-29T09:53:54.000Z</time>
      </trkpt>
      <trkpt lat="44.97788" lon="5.88471">
        <ele>1032.73737</ele>
        <time>2026-08-29T09:53:55.000Z</time>
      </trkpt>
      <trkpt lat="44.97779" lon="5.88463">
        <ele>1032.104232</ele>
        <time>2026-08-29T09:53:56.000Z</time>
      </trkpt>
      <trkpt lat="44.97771" lon="5.88455">
        <ele>1031.46405</ele>
        <time>2026-08-29T09:53:57.000Z</time>
      </trkpt>
      <trkpt lat="44.97763" lon="5.88446">
        <ele>1030.807793</ele>
        <time>2026-08-29T09:53:58.000Z</time>
      </trkpt>
      <trkpt lat="44.97755" lon="5.88437">
        <ele>1030.138119</ele>
        <time>2026-08-29T09:53:59.000Z</time>
      </trkpt>
      <trkpt lat="44.97748" lon="5.88426">
        <ele>1029.475286</ele>
        <time>2026-08-29T09:54:00.000Z</time>
      </trkpt>
      <trkpt lat="44.97741" lon="5.88415">
        <ele>1028.809109</ele>
        <time>2026-08-29T09:54:01.000Z</time>
      </trkpt>
      <trkpt lat="44.97734" lon="5.88404">
        <ele>1028.147214</ele>
        <time>2026-08-29T09:54:02.000Z</time>
      </trkpt>
      <trkpt lat="44.97727" lon="5.88393">
        <ele>1027.524815</ele>
        <time>2026-08-29T09:54:03.000Z</time>
      </trkpt>
      <trkpt lat="44.97719" lon="5.88383">
        <ele>1026.954661</ele>
        <time>2026-08-29T09:54:04.000Z</time>
      </trkpt>
      <trkpt lat="44.97711" lon="5.88372">
        <ele>1026.377156</ele>
        <time>2026-08-29T09:54:05.000Z</time>
      </trkpt>
      <trkpt lat="44.97703" lon="5.88362">
        <ele>1025.798176</ele>
        <time>2026-08-29T09:54:06.000Z</time>
      </trkpt>
      <trkpt lat="44.97695" lon="5.88353">
        <ele>1025.24295</ele>
        <time>2026-08-29T09:54:07.000Z</time>
      </trkpt>
      <trkpt lat="44.97687" lon="5.88344">
        <ele>1024.682491</ele>
        <time>2026-08-29T09:54:08.000Z</time>
      </trkpt>
      <trkpt lat="44.97678" lon="5.88336">
        <ele>1024.106724</ele>
        <time>2026-08-29T09:54:09.000Z</time>
      </trkpt>
      <trkpt lat="44.97669" lon="5.88328">
        <ele>1023.529696</ele>
        <time>2026-08-29T09:54:10.000Z</time>
      </trkpt>
      <trkpt lat="44.9766" lon="5.8832">
        <ele>1022.955249</ele>
        <time>2026-08-29T09:54:11.000Z</time>
      </trkpt>
      <trkpt lat="44.9765" lon="5.88313">
        <ele>1022.377422</ele>
        <time>2026-08-29T09:54:12.000Z</time>
      </trkpt>
      <trkpt lat="44.97641" lon="5.88305">
        <ele>1021.806111</ele>
        <time>2026-08-29T09:54:13.000Z</time>
      </trkpt>
      <trkpt lat="44.97631" lon="5.88299">
        <ele>1021.25166</ele>
        <time>2026-08-29T09:54:14.000Z</time>
      </trkpt>
      <trkpt lat="44.97622" lon="5.88294">
        <ele>1020.687826</ele>
        <time>2026-08-29T09:54:15.000Z</time>
      </trkpt>
      <trkpt lat="44.97612" lon="5.88288">
        <ele>1020.147424</ele>
        <time>2026-08-29T09:54:16.000Z</time>
      </trkpt>
      <trkpt lat="44.97603" lon="5.88283">
        <ele>1019.609903</ele>
        <time>2026-08-29T09:54:17.000Z</time>
      </trkpt>
      <trkpt lat="44.97594" lon="5.88278">
        <ele>1019.065991</ele>
        <time>2026-08-29T09:54:18.000Z</time>
      </trkpt>
      <trkpt lat="44.97584" lon="5.88272">
        <ele>1018.512764</ele>
        <time>2026-08-29T09:54:19.000Z</time>
      </trkpt>
      <trkpt lat="44.97575" lon="5.88266">
        <ele>1018.031819</ele>
        <time>2026-08-29T09:54:20.000Z</time>
      </trkpt>
      <trkpt lat="44.97566" lon="5.8826">
        <ele>1017.6856</ele>
        <time>2026-08-29T09:54:21.000Z</time>
      </trkpt>
      <trkpt lat="44.97556" lon="5.88254">
        <ele>1017.341191</ele>
        <time>2026-08-29T09:54:22.000Z</time>
      </trkpt>
      <trkpt lat="44.97547" lon="5.88249">
        <ele>1016.995488</ele>
        <time>2026-08-29T09:54:23.000Z</time>
      </trkpt>
      <trkpt lat="44.97537" lon="5.88243">
        <ele>1016.649786</ele>
        <time>2026-08-29T09:54:24.000Z</time>
      </trkpt>
      <trkpt lat="44.97528" lon="5.88238">
        <ele>1016.313093</ele>
        <time>2026-08-29T09:54:25.000Z</time>
      </trkpt>
      <trkpt lat="44.9752" lon="5.88233">
        <ele>1015.990322</ele>
        <time>2026-08-29T09:54:26.000Z</time>
      </trkpt>
      <trkpt lat="44.97511" lon="5.88227">
        <ele>1015.65938</ele>
        <time>2026-08-29T09:54:27.000Z</time>
      </trkpt>
      <trkpt lat="44.97502" lon="5.88222">
        <ele>1015.335648</ele>
        <time>2026-08-29T09:54:28.000Z</time>
      </trkpt>
      <trkpt lat="44.97493" lon="5.88217">
        <ele>1015.015032</ele>
        <time>2026-08-29T09:54:29.000Z</time>
      </trkpt>
      <trkpt lat="44.97485" lon="5.88211">
        <ele>1014.702596</ele>
        <time>2026-08-29T09:54:30.000Z</time>
      </trkpt>
      <trkpt lat="44.97476" lon="5.88207">
        <ele>1014.389837</ele>
        <time>2026-08-29T09:54:31.000Z</time>
      </trkpt>
      <trkpt lat="44.97468" lon="5.88201">
        <ele>1014.081488</ele>
        <time>2026-08-29T09:54:32.000Z</time>
      </trkpt>
      <trkpt lat="44.9746" lon="5.88196">
        <ele>1013.774091</ele>
        <time>2026-08-29T09:54:33.000Z</time>
      </trkpt>
      <trkpt lat="44.97452" lon="5.88191">
        <ele>1013.467884</ele>
        <time>2026-08-29T09:54:34.000Z</time>
      </trkpt>
      <trkpt lat="44.97444" lon="5.88186">
        <ele>1013.17707</ele>
        <time>2026-08-29T09:54:35.000Z</time>
      </trkpt>
      <trkpt lat="44.97436" lon="5.88182">
        <ele>1012.888179</ele>
        <time>2026-08-29T09:54:36.000Z</time>
      </trkpt>
      <trkpt lat="44.97428" lon="5.88177">
        <ele>1012.606502</ele>
        <time>2026-08-29T09:54:37.000Z</time>
      </trkpt>
      <trkpt lat="44.97421" lon="5.88172">
        <ele>1012.334191</ele>
        <time>2026-08-29T09:54:38.000Z</time>
      </trkpt>
      <trkpt lat="44.97414" lon="5.88168">
        <ele>1012.056593</ele>
        <time>2026-08-29T09:54:39.000Z</time>
      </trkpt>
      <trkpt lat="44.97406" lon="5.88164">
        <ele>1011.95227</ele>
        <time>2026-08-29T09:54:40.000Z</time>
      </trkpt>
      <trkpt lat="44.97398" lon="5.88159">
        <ele>1011.871626</ele>
        <time>2026-08-29T09:54:41.000Z</time>
      </trkpt>
      <trkpt lat="44.97391" lon="5.88155">
        <ele>1011.792556</ele>
        <time>2026-08-29T09:54:42.000Z</time>
      </trkpt>
      <trkpt lat="44.97384" lon="5.88151">
        <ele>1011.716603</ele>
        <time>2026-08-29T09:54:43.000Z</time>
      </trkpt>
      <trkpt lat="44.97376" lon="5.88148">
        <ele>1011.638764</ele>
        <time>2026-08-29T09:54:44.000Z</time>
      </trkpt>
      <trkpt lat="44.97369" lon="5.88145">
        <ele>1011.565616</ele>
        <time>2026-08-29T09:54:45.000Z</time>
      </trkpt>
      <trkpt lat="44.97362" lon="5.88141">
        <ele>1011.493849</ele>
        <time>2026-08-29T09:54:46.000Z</time>
      </trkpt>
      <trkpt lat="44.97355" lon="5.88138">
        <ele>1011.422708</ele>
        <time>2026-08-29T09:54:47.000Z</time>
      </trkpt>
      <trkpt lat="44.97349" lon="5.88136">
        <ele>1011.353091</ele>
        <time>2026-08-29T09:54:48.000Z</time>
      </trkpt>
      <trkpt lat="44.97342" lon="5.88134">
        <ele>1011.285912</ele>
        <time>2026-08-29T09:54:49.000Z</time>
      </trkpt>
      <trkpt lat="44.97336" lon="5.88132">
        <ele>1011.221283</ele>
        <time>2026-08-29T09:54:50.000Z</time>
      </trkpt>
      <trkpt lat="44.97329" lon="5.8813">
        <ele>1011.158025</ele>
        <time>2026-08-29T09:54:51.000Z</time>
      </trkpt>
      <trkpt lat="44.97323" lon="5.88128">
        <ele>1011.093536</ele>
        <time>2026-08-29T09:54:52.000Z</time>
      </trkpt>
      <trkpt lat="44.97317" lon="5.88126">
        <ele>1011.030529</ele>
        <time>2026-08-29T09:54:53.000Z</time>
      </trkpt>
      <trkpt lat="44.97311" lon="5.88124">
        <ele>1010.968711</ele>
        <time>2026-08-29T09:54:54.000Z</time>
      </trkpt>
      <trkpt lat="44.97305" lon="5.88121">
        <ele>1010.908578</ele>
        <time>2026-08-29T09:54:55.000Z</time>
      </trkpt>
      <trkpt lat="44.97299" lon="5.88119">
        <ele>1010.846953</ele>
        <time>2026-08-29T09:54:56.000Z</time>
      </trkpt>
      <trkpt lat="44.97293" lon="5.88116">
        <ele>1010.78848</ele>
        <time>2026-08-29T09:54:57.000Z</time>
      </trkpt>
      <trkpt lat="44.97288" lon="5.88113">
        <ele>1010.73094</ele>
        <time>2026-08-29T09:54:58.000Z</time>
      </trkpt>
      <trkpt lat="44.97282" lon="5.88111">
        <ele>1010.672466</ele>
        <time>2026-08-29T09:54:59.000Z</time>
      </trkpt>
      <trkpt lat="44.97277" lon="5.88108">
        <ele>1010.614453</ele>
        <time>2026-08-29T09:55:00.000Z</time>
      </trkpt>
      <trkpt lat="44.97271" lon="5.88105">
        <ele>1010.558288</ele>
        <time>2026-08-29T09:55:01.000Z</time>
      </trkpt>
      <trkpt lat="44.97266" lon="5.88102">
        <ele>1010.50191</ele>
        <time>2026-08-29T09:55:02.000Z</time>
      </trkpt>
      <trkpt lat="44.97261" lon="5.88099">
        <ele>1010.44457</ele>
        <time>2026-08-29T09:55:03.000Z</time>
      </trkpt>
      <trkpt lat="44.97255" lon="5.88095">
        <ele>1010.386152</ele>
        <time>2026-08-29T09:55:04.000Z</time>
      </trkpt>
      <trkpt lat="44.9725" lon="5.88091">
        <ele>1010.325241</ele>
        <time>2026-08-29T09:55:05.000Z</time>
      </trkpt>
      <trkpt lat="44.97244" lon="5.88087">
        <ele>1010.262784</ele>
        <time>2026-08-29T09:55:06.000Z</time>
      </trkpt>
      <trkpt lat="44.97238" lon="5.88082">
        <ele>1010.040289</ele>
        <time>2026-08-29T09:55:07.000Z</time>
      </trkpt>
      <trkpt lat="44.97232" lon="5.88077">
        <ele>1009.768993</ele>
        <time>2026-08-29T09:55:08.000Z</time>
      </trkpt>
      <trkpt lat="44.97226" lon="5.88071">
        <ele>1009.491886</ele>
        <time>2026-08-29T09:55:09.000Z</time>
      </trkpt>
      <trkpt lat="44.9722" lon="5.88066">
        <ele>1009.207013</ele>
        <time>2026-08-29T09:55:10.000Z</time>
      </trkpt>
      <trkpt lat="44.97214" lon="5.8806">
        <ele>1008.917394</ele>
        <time>2026-08-29T09:55:11.000Z</time>
      </trkpt>
      <trkpt lat="44.97208" lon="5.88054">
        <ele>1008.622804</ele>
        <time>2026-08-29T09:55:12.000Z</time>
      </trkpt>
      <trkpt lat="44.97201" lon="5.88048">
        <ele>1008.320204</ele>
        <time>2026-08-29T09:55:13.000Z</time>
      </trkpt>
      <trkpt lat="44.97195" lon="5.88042">
        <ele>1008.008502</ele>
        <time>2026-08-29T09:55:14.000Z</time>
      </trkpt>
      <trkpt lat="44.97188" lon="5.88035">
        <ele>1007.68412</ele>
        <time>2026-08-29T09:55:15.000Z</time>
      </trkpt>
      <trkpt lat="44.97181" lon="5.88028">
        <ele>1007.358067</ele>
        <time>2026-08-29T09:55:16.000Z</time>
      </trkpt>
      <trkpt lat="44.97174" lon="5.88022">
        <ele>1007.036871</ele>
        <time>2026-08-29T09:55:17.000Z</time>
      </trkpt>
      <trkpt lat="44.97167" lon="5.88015">
        <ele>1006.706072</ele>
        <time>2026-08-29T09:55:18.000Z</time>
      </trkpt>
      <trkpt lat="44.9716" lon="5.88008">
        <ele>1006.375384</ele>
        <time>2026-08-29T09:55:19.000Z</time>
      </trkpt>
      <trkpt lat="44.97153" lon="5.88001">
        <ele>1006.042855</ele>
        <time>2026-08-29T09:55:20.000Z</time>
      </trkpt>
      <trkpt lat="44.97145" lon="5.87995">
        <ele>1005.699056</ele>
        <time>2026-08-29T09:55:21.000Z</time>
      </trkpt>
      <trkpt lat="44.97138" lon="5.87988">
        <ele>1005.365027</ele>
        <time>2026-08-29T09:55:22.000Z</time>
      </trkpt>
      <trkpt lat="44.97131" lon="5.87981">
        <ele>1005.026254</ele>
        <time>2026-08-29T09:55:23.000Z</time>
      </trkpt>
      <trkpt lat="44.97123" lon="5.87974">
        <ele>1004.681219</ele>
        <time>2026-08-29T09:55:24.000Z</time>
      </trkpt>
      <trkpt lat="44.97116" lon="5.87967">
        <ele>1004.342598</ele>
        <time>2026-08-29T09:55:25.000Z</time>
      </trkpt>
      <trkpt lat="44.97109" lon="5.8796">
        <ele>1004.002069</ele>
        <time>2026-08-29T09:55:26.000Z</time>
      </trkpt>
      <trkpt lat="44.97101" lon="5.87954">
        <ele>1003.664796</ele>
        <time>2026-08-29T09:55:27.000Z</time>
      </trkpt>
      <trkpt lat="44.97094" lon="5.87947">
        <ele>1003.33253</ele>
        <time>2026-08-29T09:55:28.000Z</time>
      </trkpt>
      <trkpt lat="44.97087" lon="5.8794">
        <ele>1003.108395</ele>
        <time>2026-08-29T09:55:29.000Z</time>
      </trkpt>
      <trkpt lat="44.9708" lon="5.87934">
        <ele>1002.898748</ele>
        <time>2026-08-29T09:55:30.000Z</time>
      </trkpt>
      <trkpt lat="44.97073" lon="5.87927">
        <ele>1002.694443</ele>
        <time>2026-08-29T09:55:31.000Z</time>
      </trkpt>
      <trkpt lat="44.97066" lon="5.8792">
        <ele>1002.490138</ele>
        <time>2026-08-29T09:55:32.000Z</time>
      </trkpt>
      <trkpt lat="44.97059" lon="5.87914">
        <ele>1002.28478</ele>
        <time>2026-08-29T09:55:33.000Z</time>
      </trkpt>
      <trkpt lat="44.97052" lon="5.87907">
        <ele>1002.08241</ele>
        <time>2026-08-29T09:55:34.000Z</time>
      </trkpt>
      <trkpt lat="44.97045" lon="5.87901">
        <ele>1001.875747</ele>
        <time>2026-08-29T09:55:35.000Z</time>
      </trkpt>
      <trkpt lat="44.97038" lon="5.87895">
        <ele>1001.674139</ele>
        <time>2026-08-29T09:55:36.000Z</time>
      </trkpt>
      <trkpt lat="44.97031" lon="5.87888">
        <ele>1001.473663</ele>
        <time>2026-08-29T09:55:37.000Z</time>
      </trkpt>
      <trkpt lat="44.97024" lon="5.87882">
        <ele>1001.277105</ele>
        <time>2026-08-29T09:55:38.000Z</time>
      </trkpt>
      <trkpt lat="44.97018" lon="5.87876">
        <ele>1001.085773</ele>
        <time>2026-08-29T09:55:39.000Z</time>
      </trkpt>
      <trkpt lat="44.97012" lon="5.8787">
        <ele>1000.896305</ele>
        <time>2026-08-29T09:55:40.000Z</time>
      </trkpt>
      <trkpt lat="44.97005" lon="5.87864">
        <ele>1000.696761</ele>
        <time>2026-08-29T09:55:41.000Z</time>
      </trkpt>
      <trkpt lat="44.96998" lon="5.87857">
        <ele>1000.501318</ele>
        <time>2026-08-29T09:55:42.000Z</time>
      </trkpt>
      <trkpt lat="44.96991" lon="5.87852">
        <ele>1000.303291</ele>
        <time>2026-08-29T09:55:43.000Z</time>
      </trkpt>
      <trkpt lat="44.96984" lon="5.87846">
        <ele>1000.109459</ele>
        <time>2026-08-29T09:55:44.000Z</time>
      </trkpt>
      <trkpt lat="44.96978" lon="5.87841">
        <ele>999.924202</ele>
        <time>2026-08-29T09:55:45.000Z</time>
      </trkpt>
      <trkpt lat="44.96971" lon="5.87835">
        <ele>999.730397</ele>
        <time>2026-08-29T09:55:46.000Z</time>
      </trkpt>
      <trkpt lat="44.96964" lon="5.8783">
        <ele>999.536592</ele>
        <time>2026-08-29T09:55:47.000Z</time>
      </trkpt>
      <trkpt lat="44.96957" lon="5.87825">
        <ele>999.342787</ele>
        <time>2026-08-29T09:55:48.000Z</time>
      </trkpt>
      <trkpt lat="44.9695" lon="5.87819">
        <ele>999.155405</ele>
        <time>2026-08-29T09:55:49.000Z</time>
      </trkpt>
      <trkpt lat="44.96943" lon="5.87814">
        <ele>998.971296</ele>
        <time>2026-08-29T09:55:50.000Z</time>
      </trkpt>
      <trkpt lat="44.96937" lon="5.8781">
        <ele>998.862821</ele>
        <time>2026-08-29T09:55:51.000Z</time>
      </trkpt>
      <trkpt lat="44.9693" lon="5.87805">
        <ele>998.812609</ele>
        <time>2026-08-29T09:55:52.000Z</time>
      </trkpt>
      <trkpt lat="44.96923" lon="5.878">
        <ele>998.763149</ele>
        <time>2026-08-29T09:55:53.000Z</time>
      </trkpt>
      <trkpt lat="44.96917" lon="5.87796">
        <ele>998.71353</ele>
        <time>2026-08-29T09:55:54.000Z</time>
      </trkpt>
      <trkpt lat="44.9691" lon="5.87791">
        <ele>998.665477</ele>
        <time>2026-08-29T09:55:55.000Z</time>
      </trkpt>
      <trkpt lat="44.96904" lon="5.87787">
        <ele>998.617694</ele>
        <time>2026-08-29T09:55:56.000Z</time>
      </trkpt>
      <trkpt lat="44.96898" lon="5.87782">
        <ele>998.569701</ele>
        <time>2026-08-29T09:55:57.000Z</time>
      </trkpt>
      <trkpt lat="44.96891" lon="5.87778">
        <ele>998.523333</ele>
        <time>2026-08-29T09:55:58.000Z</time>
      </trkpt>
      <trkpt lat="44.96886" lon="5.87773">
        <ele>998.47891</ele>
        <time>2026-08-29T09:55:59.000Z</time>
      </trkpt>
      <trkpt lat="44.9688" lon="5.87769">
        <ele>998.434604</ele>
        <time>2026-08-29T09:56:00.000Z</time>
      </trkpt>
      <trkpt lat="44.96874" lon="5.87764">
        <ele>998.389951</ele>
        <time>2026-08-29T09:56:01.000Z</time>
      </trkpt>
      <trkpt lat="44.96868" lon="5.8776">
        <ele>998.343384</ele>
        <time>2026-08-29T09:56:02.000Z</time>
      </trkpt>
      <trkpt lat="44.96862" lon="5.87756">
        <ele>998.29945</ele>
        <time>2026-08-29T09:56:03.000Z</time>
      </trkpt>
      <trkpt lat="44.96856" lon="5.87752">
        <ele>998.253646</ele>
        <time>2026-08-29T09:56:04.000Z</time>
      </trkpt>
      <trkpt lat="44.96849" lon="5.87748">
        <ele>998.205975</ele>
        <time>2026-08-29T09:56:05.000Z</time>
      </trkpt>
      <trkpt lat="44.96843" lon="5.87745">
        <ele>998.159762</ele>
        <time>2026-08-29T09:56:06.000Z</time>
      </trkpt>
      <trkpt lat="44.96836" lon="5.87742">
        <ele>998.114183</ele>
        <time>2026-08-29T09:56:07.000Z</time>
      </trkpt>
      <trkpt lat="44.9683" lon="5.87739">
        <ele>998.069842</ele>
        <time>2026-08-29T09:56:08.000Z</time>
      </trkpt>
      <trkpt lat="44.96824" lon="5.87737">
        <ele>998.026554</ele>
        <time>2026-08-29T09:56:09.000Z</time>
      </trkpt>
      <trkpt lat="44.96817" lon="5.87735">
        <ele>997.982332</ele>
        <time>2026-08-29T09:56:10.000Z</time>
      </trkpt>
      <trkpt lat="44.96811" lon="5.87732">
        <ele>997.938219</ele>
        <time>2026-08-29T09:56:11.000Z</time>
      </trkpt>
      <trkpt lat="44.96805" lon="5.8773">
        <ele>997.8953</ele>
        <time>2026-08-29T09:56:12.000Z</time>
      </trkpt>
      <trkpt lat="44.96799" lon="5.87728">
        <ele>997.854855</ele>
        <time>2026-08-29T09:56:13.000Z</time>
      </trkpt>
      <trkpt lat="44.96793" lon="5.87726">
        <ele>997.812158</ele>
        <time>2026-08-29T09:56:14.000Z</time>
      </trkpt>
      <trkpt lat="44.96786" lon="5.87724">
        <ele>997.767776</ele>
        <time>2026-08-29T09:56:15.000Z</time>
      </trkpt>
      <trkpt lat="44.9678" lon="5.87722">
        <ele>997.724525</ele>
        <time>2026-08-29T09:56:16.000Z</time>
      </trkpt>
      <trkpt lat="44.96774" lon="5.87721">
        <ele>997.68221</ele>
        <time>2026-08-29T09:56:17.000Z</time>
      </trkpt>
      <trkpt lat="44.96768" lon="5.87719">
        <ele>997.714721</ele>
        <time>2026-08-29T09:56:18.000Z</time>
      </trkpt>
      <trkpt lat="44.96761" lon="5.87718">
        <ele>997.748157</ele>
        <time>2026-08-29T09:56:19.000Z</time>
      </trkpt>
      <trkpt lat="44.96755" lon="5.87716">
        <ele>997.781471</ele>
        <time>2026-08-29T09:56:20.000Z</time>
      </trkpt>
      <trkpt lat="44.96749" lon="5.87715">
        <ele>997.815439</ele>
        <time>2026-08-29T09:56:21.000Z</time>
      </trkpt>
      <trkpt lat="44.96743" lon="5.87713">
        <ele>997.848034</ele>
        <time>2026-08-29T09:56:22.000Z</time>
      </trkpt>
      <trkpt lat="44.96737" lon="5.87711">
        <ele>997.88108</ele>
        <time>2026-08-29T09:56:23.000Z</time>
      </trkpt>
      <trkpt lat="44.96731" lon="5.8771">
        <ele>997.913326</ele>
        <time>2026-08-29T09:56:24.000Z</time>
      </trkpt>
      <trkpt lat="44.96726" lon="5.87709">
        <ele>997.944569</ele>
        <time>2026-08-29T09:56:25.000Z</time>
      </trkpt>
      <trkpt lat="44.9672" lon="5.87707">
        <ele>997.975279</ele>
        <time>2026-08-29T09:56:26.000Z</time>
      </trkpt>
      <trkpt lat="44.96714" lon="5.87706">
        <ele>998.006459</ele>
        <time>2026-08-29T09:56:27.000Z</time>
      </trkpt>
      <trkpt lat="44.96709" lon="5.87704">
        <ele>998.038174</ele>
        <time>2026-08-29T09:56:28.000Z</time>
      </trkpt>
      <trkpt lat="44.96703" lon="5.87702">
        <ele>998.067441</ele>
        <time>2026-08-29T09:56:29.000Z</time>
      </trkpt>
      <trkpt lat="44.96698" lon="5.87701">
        <ele>998.096101</ele>
        <time>2026-08-29T09:56:30.000Z</time>
      </trkpt>
      <trkpt lat="44.96693" lon="5.87699">
        <ele>998.124162</ele>
        <time>2026-08-29T09:56:31.000Z</time>
      </trkpt>
      <trkpt lat="44.96689" lon="5.87697">
        <ele>998.149938</ele>
        <time>2026-08-29T09:56:32.000Z</time>
      </trkpt>
      <trkpt lat="44.96684" lon="5.87695">
        <ele>998.177185</ele>
        <time>2026-08-29T09:56:33.000Z</time>
      </trkpt>
      <trkpt lat="44.96679" lon="5.87694">
        <ele>998.20296</ele>
        <time>2026-08-29T09:56:34.000Z</time>
      </trkpt>
      <trkpt lat="44.96675" lon="5.87691">
        <ele>998.228551</ele>
        <time>2026-08-29T09:56:35.000Z</time>
      </trkpt>
      <trkpt lat="44.9667" lon="5.87689">
        <ele>998.253379</ele>
        <time>2026-08-29T09:56:36.000Z</time>
      </trkpt>
      <trkpt lat="44.96666" lon="5.87687">
        <ele>998.277703</ele>
        <time>2026-08-29T09:56:37.000Z</time>
      </trkpt>
      <trkpt lat="44.96662" lon="5.87684">
        <ele>998.303172</ele>
        <time>2026-08-29T09:56:38.000Z</time>
      </trkpt>
      <trkpt lat="44.96657" lon="5.87682">
        <ele>998.328138</ele>
        <time>2026-08-29T09:56:39.000Z</time>
      </trkpt>
      <trkpt lat="44.96653" lon="5.8768">
        <ele>998.352103</ele>
        <time>2026-08-29T09:56:40.000Z</time>
      </trkpt>
      <trkpt lat="44.96649" lon="5.87677">
        <ele>998.377437</ele>
        <time>2026-08-29T09:56:41.000Z</time>
      </trkpt>
      <trkpt lat="44.96644" lon="5.87675">
        <ele>998.404051</ele>
        <time>2026-08-29T09:56:42.000Z</time>
      </trkpt>
      <trkpt lat="44.9664" lon="5.87672">
        <ele>998.429805</ele>
        <time>2026-08-29T09:56:43.000Z</time>
      </trkpt>
      <trkpt lat="44.96635" lon="5.8767">
        <ele>998.456058</ele>
        <time>2026-08-29T09:56:44.000Z</time>
      </trkpt>
      <trkpt lat="44.96631" lon="5.87667">
        <ele>998.482458</ele>
        <time>2026-08-29T09:56:45.000Z</time>
      </trkpt>
      <trkpt lat="44.96626" lon="5.87664">
        <ele>998.508839</ele>
        <time>2026-08-29T09:56:46.000Z</time>
      </trkpt>
      <trkpt lat="44.96622" lon="5.87661">
        <ele>998.536881</ele>
        <time>2026-08-29T09:56:47.000Z</time>
      </trkpt>
      <trkpt lat="44.96617" lon="5.87658">
        <ele>998.566215</ele>
        <time>2026-08-29T09:56:48.000Z</time>
      </trkpt>
      <trkpt lat="44.96612" lon="5.87654">
        <ele>998.5934</ele>
        <time>2026-08-29T09:56:49.000Z</time>
      </trkpt>
      <trkpt lat="44.96608" lon="5.87651">
        <ele>998.621246</ele>
        <time>2026-08-29T09:56:50.000Z</time>
      </trkpt>
      <trkpt lat="44.96603" lon="5.87647">
        <ele>998.650115</ele>
        <time>2026-08-29T09:56:51.000Z</time>
      </trkpt>
      <trkpt lat="44.96598" lon="5.87644">
        <ele>998.550942</ele>
        <time>2026-08-29T09:56:52.000Z</time>
      </trkpt>
      <trkpt lat="44.96593" lon="5.8764">
        <ele>998.437055</ele>
        <time>2026-08-29T09:56:53.000Z</time>
      </trkpt>
      <trkpt lat="44.96588" lon="5.87637">
        <ele>998.325519</ele>
        <time>2026-08-29T09:56:54.000Z</time>
      </trkpt>
      <trkpt lat="44.96583" lon="5.87633">
        <ele>998.208574</ele>
        <time>2026-08-29T09:56:55.000Z</time>
      </trkpt>
      <trkpt lat="44.96578" lon="5.87629">
        <ele>998.090993</ele>
        <time>2026-08-29T09:56:56.000Z</time>
      </trkpt>
      <trkpt lat="44.96572" lon="5.87626">
        <ele>997.969791</ele>
        <time>2026-08-29T09:56:57.000Z</time>
      </trkpt>
      <trkpt lat="44.96567" lon="5.87622">
        <ele>997.851641</ele>
        <time>2026-08-29T09:56:58.000Z</time>
      </trkpt>
      <trkpt lat="44.96562" lon="5.87618">
        <ele>997.73341</ele>
        <time>2026-08-29T09:56:59.000Z</time>
      </trkpt>
      <trkpt lat="44.96557" lon="5.87614">
        <ele>997.613382</ele>
        <time>2026-08-29T09:57:00.000Z</time>
      </trkpt>
      <trkpt lat="44.96552" lon="5.8761">
        <ele>997.49591</ele>
        <time>2026-08-29T09:57:01.000Z</time>
      </trkpt>
      <trkpt lat="44.96547" lon="5.87606">
        <ele>997.376952</ele>
        <time>2026-08-29T09:57:02.000Z</time>
      </trkpt>
      <trkpt lat="44.96542" lon="5.87601">
        <ele>997.263944</ele>
        <time>2026-08-29T09:57:03.000Z</time>
      </trkpt>
      <trkpt lat="44.96538" lon="5.87597">
        <ele>997.151779</ele>
        <time>2026-08-29T09:57:04.000Z</time>
      </trkpt>
      <trkpt lat="44.96533" lon="5.87592">
        <ele>997.040389</ele>
        <time>2026-08-29T09:57:05.000Z</time>
      </trkpt>
      <trkpt lat="44.96528" lon="5.87587">
        <ele>996.918313</ele>
        <time>2026-08-29T09:57:06.000Z</time>
      </trkpt>
      <trkpt lat="44.96524" lon="5.87582">
        <ele>996.804287</ele>
        <time>2026-08-29T09:57:07.000Z</time>
      </trkpt>
      <trkpt lat="44.9652" lon="5.87577">
        <ele>996.690913</ele>
        <time>2026-08-29T09:57:08.000Z</time>
      </trkpt>
      <trkpt lat="44.96515" lon="5.87572">
        <ele>996.57908</ele>
        <time>2026-08-29T09:57:09.000Z</time>
      </trkpt>
      <trkpt lat="44.96511" lon="5.87566">
        <ele>996.46637</ele>
        <time>2026-08-29T09:57:10.000Z</time>
      </trkpt>
      <trkpt lat="44.96507" lon="5.87561">
        <ele>996.352203</ele>
        <time>2026-08-29T09:57:11.000Z</time>
      </trkpt>
      <trkpt lat="44.96503" lon="5.87555">
        <ele>996.23451</ele>
        <time>2026-08-29T09:57:12.000Z</time>
      </trkpt>
      <trkpt lat="44.96499" lon="5.8755">
        <ele>996.118335</ele>
        <time>2026-08-29T09:57:13.000Z</time>
      </trkpt>
      <trkpt lat="44.96494" lon="5.87544">
        <ele>996.001719</ele>
        <time>2026-08-29T09:57:14.000Z</time>
      </trkpt>
      <trkpt lat="44.9649" lon="5.87539">
        <ele>995.878164</ele>
        <time>2026-08-29T09:57:15.000Z</time>
      </trkpt>
      <trkpt lat="44.96485" lon="5.87533">
        <ele>995.751741</ele>
        <time>2026-08-29T09:57:16.000Z</time>
      </trkpt>
      <trkpt lat="44.9648" lon="5.87527">
        <ele>995.619862</ele>
        <time>2026-08-29T09:57:17.000Z</time>
      </trkpt>
      <trkpt lat="44.96475" lon="5.87521">
        <ele>995.485843</ele>
        <time>2026-08-29T09:57:18.000Z</time>
      </trkpt>
      <trkpt lat="44.9647" lon="5.87515">
        <ele>995.352441</ele>
        <time>2026-08-29T09:57:19.000Z</time>
      </trkpt>
      <trkpt lat="44.96465" lon="5.87508">
        <ele>995.220561</ele>
        <time>2026-08-29T09:57:20.000Z</time>
      </trkpt>
      <trkpt lat="44.9646" lon="5.87502">
        <ele>995.083414</ele>
        <time>2026-08-29T09:57:21.000Z</time>
      </trkpt>
      <trkpt lat="44.96454" lon="5.87496">
        <ele>994.842424</ele>
        <time>2026-08-29T09:57:22.000Z</time>
      </trkpt>
      <trkpt lat="44.96449" lon="5.87489">
        <ele>994.539351</ele>
        <time>2026-08-29T09:57:23.000Z</time>
      </trkpt>
      <trkpt lat="44.96443" lon="5.87483">
        <ele>994.232663</ele>
        <time>2026-08-29T09:57:24.000Z</time>
      </trkpt>
      <trkpt lat="44.96437" lon="5.87476">
        <ele>993.916338</ele>
        <time>2026-08-29T09:57:25.000Z</time>
      </trkpt>
      <trkpt lat="44.96431" lon="5.87468">
        <ele>993.584126</ele>
        <time>2026-08-29T09:57:26.000Z</time>
      </trkpt>
      <trkpt lat="44.96425" lon="5.87461">
        <ele>993.259571</ele>
        <time>2026-08-29T09:57:27.000Z</time>
      </trkpt>
      <trkpt lat="44.96419" lon="5.87454">
        <ele>992.932409</ele>
        <time>2026-08-29T09:57:28.000Z</time>
      </trkpt>
      <trkpt lat="44.96413" lon="5.87447">
        <ele>992.603635</ele>
        <time>2026-08-29T09:57:29.000Z</time>
      </trkpt>
      <trkpt lat="44.96406" lon="5.8744">
        <ele>992.258081</ele>
        <time>2026-08-29T09:57:30.000Z</time>
      </trkpt>
      <trkpt lat="44.96399" lon="5.87434">
        <ele>991.922685</ele>
        <time>2026-08-29T09:57:31.000Z</time>
      </trkpt>
      <trkpt lat="44.96393" lon="5.87428">
        <ele>991.588923</ele>
        <time>2026-08-29T09:57:32.000Z</time>
      </trkpt>
      <trkpt lat="44.96386" lon="5.87421">
        <ele>991.249808</ele>
        <time>2026-08-29T09:57:33.000Z</time>
      </trkpt>
      <trkpt lat="44.96379" lon="5.87415">
        <ele>990.905197</ele>
        <time>2026-08-29T09:57:34.000Z</time>
      </trkpt>
      <trkpt lat="44.96371" lon="5.87409">
        <ele>990.562102</ele>
        <time>2026-08-29T09:57:35.000Z</time>
      </trkpt>
      <trkpt lat="44.96364" lon="5.87403">
        <ele>990.211153</ele>
        <time>2026-08-29T09:57:36.000Z</time>
      </trkpt>
      <trkpt lat="44.96357" lon="5.87398">
        <ele>989.862054</ele>
        <time>2026-08-29T09:57:37.000Z</time>
      </trkpt>
      <trkpt lat="44.96349" lon="5.87393">
        <ele>989.520595</ele>
        <time>2026-08-29T09:57:38.000Z</time>
      </trkpt>
      <trkpt lat="44.96342" lon="5.87388">
        <ele>989.181507</ele>
        <time>2026-08-29T09:57:39.000Z</time>
      </trkpt>
      <trkpt lat="44.96334" lon="5.87384">
        <ele>988.840878</ele>
        <time>2026-08-29T09:57:40.000Z</time>
      </trkpt>
      <trkpt lat="44.96326" lon="5.8738">
        <ele>988.505536</ele>
        <time>2026-08-29T09:57:41.000Z</time>
      </trkpt>
      <trkpt lat="44.96319" lon="5.87376">
        <ele>988.16916</ele>
        <time>2026-08-29T09:57:42.000Z</time>
      </trkpt>
      <trkpt lat="44.96311" lon="5.87373">
        <ele>987.84507</ele>
        <time>2026-08-29T09:57:43.000Z</time>
      </trkpt>
      <trkpt lat="44.96304" lon="5.8737">
        <ele>987.515276</ele>
        <time>2026-08-29T09:57:44.000Z</time>
      </trkpt>
      <trkpt lat="44.96296" lon="5.87367">
        <ele>987.142457</ele>
        <time>2026-08-29T09:57:45.000Z</time>
      </trkpt>
      <trkpt lat="44.96289" lon="5.87363">
        <ele>986.772089</ele>
        <time>2026-08-29T09:57:46.000Z</time>
      </trkpt>
      <trkpt lat="44.96282" lon="5.87359">
        <ele>986.403664</ele>
        <time>2026-08-29T09:57:47.000Z</time>
      </trkpt>
      <trkpt lat="44.96274" lon="5.87355">
        <ele>986.030011</ele>
        <time>2026-08-29T09:57:48.000Z</time>
      </trkpt>
      <trkpt lat="44.96267" lon="5.8735">
        <ele>985.653591</ele>
        <time>2026-08-29T09:57:49.000Z</time>
      </trkpt>
      <trkpt lat="44.9626" lon="5.87345">
        <ele>985.278256</ele>
        <time>2026-08-29T09:57:50.000Z</time>
      </trkpt>
      <trkpt lat="44.96253" lon="5.87339">
        <ele>984.898128</ele>
        <time>2026-08-29T09:57:51.000Z</time>
      </trkpt>
      <trkpt lat="44.96246" lon="5.87334">
        <ele>984.518796</ele>
        <time>2026-08-29T09:57:52.000Z</time>
      </trkpt>
      <trkpt lat="44.96239" lon="5.87328">
        <ele>984.127879</ele>
        <time>2026-08-29T09:57:53.000Z</time>
      </trkpt>
      <trkpt lat="44.96232" lon="5.87322">
        <ele>983.725372</ele>
        <time>2026-08-29T09:57:54.000Z</time>
      </trkpt>
      <trkpt lat="44.96225" lon="5.87316">
        <ele>983.322116</ele>
        <time>2026-08-29T09:57:55.000Z</time>
      </trkpt>
      <trkpt lat="44.96217" lon="5.8731">
        <ele>982.916341</ele>
        <time>2026-08-29T09:57:56.000Z</time>
      </trkpt>
      <trkpt lat="44.9621" lon="5.87304">
        <ele>982.516342</ele>
        <time>2026-08-29T09:57:57.000Z</time>
      </trkpt>
      <trkpt lat="44.96202" lon="5.87299">
        <ele>982.104104</ele>
        <time>2026-08-29T09:57:58.000Z</time>
      </trkpt>
      <trkpt lat="44.96194" lon="5.87294">
        <ele>981.697596</ele>
        <time>2026-08-29T09:57:59.000Z</time>
      </trkpt>
      <trkpt lat="44.96186" lon="5.87289">
        <ele>981.286761</ele>
        <time>2026-08-29T09:58:00.000Z</time>
      </trkpt>
      <trkpt lat="44.96178" lon="5.87284">
        <ele>980.873679</ele>
        <time>2026-08-29T09:58:01.000Z</time>
      </trkpt>
      <trkpt lat="44.9617" lon="5.8728">
        <ele>980.464176</ele>
        <time>2026-08-29T09:58:02.000Z</time>
      </trkpt>
      <trkpt lat="44.96162" lon="5.87276">
        <ele>980.058032</ele>
        <time>2026-08-29T09:58:03.000Z</time>
      </trkpt>
      <trkpt lat="44.96153" lon="5.87274">
        <ele>979.640621</ele>
        <time>2026-08-29T09:58:04.000Z</time>
      </trkpt>
      <trkpt lat="44.96144" lon="5.87273">
        <ele>979.222467</ele>
        <time>2026-08-29T09:58:05.000Z</time>
      </trkpt>
      <trkpt lat="44.96135" lon="5.87274">
        <ele>978.820813</ele>
        <time>2026-08-29T09:58:06.000Z</time>
      </trkpt>
      <trkpt lat="44.96127" lon="5.87277">
        <ele>978.441338</ele>
        <time>2026-08-29T09:58:07.000Z</time>
      </trkpt>
      <trkpt lat="44.96118" lon="5.87281">
        <ele>978.062819</ele>
        <time>2026-08-29T09:58:08.000Z</time>
      </trkpt>
      <trkpt lat="44.96109" lon="5.87284">
        <ele>977.6843</ele>
        <time>2026-08-29T09:58:09.000Z</time>
      </trkpt>
      <trkpt lat="44.96101" lon="5.87288">
        <ele>977.315441</ele>
        <time>2026-08-29T09:58:10.000Z</time>
      </trkpt>
      <trkpt lat="44.96092" lon="5.87291">
        <ele>976.9514</ele>
        <time>2026-08-29T09:58:11.000Z</time>
      </trkpt>
      <trkpt lat="44.96084" lon="5.87294">
        <ele>976.595398</ele>
        <time>2026-08-29T09:58:12.000Z</time>
      </trkpt>
      <trkpt lat="44.96076" lon="5.87297">
        <ele>976.245761</ele>
        <time>2026-08-29T09:58:13.000Z</time>
      </trkpt>
      <trkpt lat="44.96068" lon="5.873">
        <ele>975.900193</ele>
        <time>2026-08-29T09:58:14.000Z</time>
      </trkpt>
      <trkpt lat="44.96059" lon="5.87302">
        <ele>975.537058</ele>
        <time>2026-08-29T09:58:15.000Z</time>
      </trkpt>
      <trkpt lat="44.96051" lon="5.87304">
        <ele>975.169478</ele>
        <time>2026-08-29T09:58:16.000Z</time>
      </trkpt>
      <trkpt lat="44.96042" lon="5.87306">
        <ele>974.808012</ele>
        <time>2026-08-29T09:58:17.000Z</time>
      </trkpt>
      <trkpt lat="44.96033" lon="5.87306">
        <ele>974.444155</ele>
        <time>2026-08-29T09:58:18.000Z</time>
      </trkpt>
      <trkpt lat="44.96025" lon="5.87306">
        <ele>974.076712</ele>
        <time>2026-08-29T09:58:19.000Z</time>
      </trkpt>
      <trkpt lat="44.96016" lon="5.87306">
        <ele>973.705046</ele>
        <time>2026-08-29T09:58:20.000Z</time>
      </trkpt>
      <trkpt lat="44.96007" lon="5.87306">
        <ele>973.34173</ele>
        <time>2026-08-29T09:58:21.000Z</time>
      </trkpt>
      <trkpt lat="44.95998" lon="5.87305">
        <ele>972.973705</ele>
        <time>2026-08-29T09:58:22.000Z</time>
      </trkpt>
      <trkpt lat="44.95989" lon="5.87304">
        <ele>972.609849</ele>
        <time>2026-08-29T09:58:23.000Z</time>
      </trkpt>
      <trkpt lat="44.95981" lon="5.87304">
        <ele>972.241978</ele>
        <time>2026-08-29T09:58:24.000Z</time>
      </trkpt>
      <trkpt lat="44.95972" lon="5.87303">
        <ele>971.873953</ele>
        <time>2026-08-29T09:58:25.000Z</time>
      </trkpt>
      <trkpt lat="44.95963" lon="5.87302">
        <ele>971.507925</ele>
        <time>2026-08-29T09:58:26.000Z</time>
      </trkpt>
      <trkpt lat="44.95954" lon="5.873">
        <ele>971.072538</ele>
        <time>2026-08-29T09:58:27.000Z</time>
      </trkpt>
      <trkpt lat="44.95946" lon="5.87297">
        <ele>970.64531</ele>
        <time>2026-08-29T09:58:28.000Z</time>
      </trkpt>
      <trkpt lat="44.95937" lon="5.87294">
        <ele>970.202562</ele>
        <time>2026-08-29T09:58:29.000Z</time>
      </trkpt>
      <trkpt lat="44.95928" lon="5.87291">
        <ele>969.772412</ele>
        <time>2026-08-29T09:58:30.000Z</time>
      </trkpt>
      <trkpt lat="44.95919" lon="5.87288">
        <ele>969.32743</ele>
        <time>2026-08-29T09:58:31.000Z</time>
      </trkpt>
      <trkpt lat="44.9591" lon="5.87285">
        <ele>968.874474</ele>
        <time>2026-08-29T09:58:32.000Z</time>
      </trkpt>
      <trkpt lat="44.959" lon="5.87281">
        <ele>968.403596</ele>
        <time>2026-08-29T09:58:33.000Z</time>
      </trkpt>
      <trkpt lat="44.95892" lon="5.87275">
        <ele>967.962331</ele>
        <time>2026-08-29T09:58:34.000Z</time>
      </trkpt>
      <trkpt lat="44.95885" lon="5.87268">
        <ele>967.537882</ele>
        <time>2026-08-29T09:58:35.000Z</time>
      </trkpt>
      <trkpt lat="44.95878" lon="5.8726">
        <ele>967.081564</ele>
        <time>2026-08-29T09:58:36.000Z</time>
      </trkpt>
      <trkpt lat="44.9587" lon="5.87251">
        <ele>966.624857</ele>
        <time>2026-08-29T09:58:37.000Z</time>
      </trkpt>
      <trkpt lat="44.95863" lon="5.87241">
        <ele>966.150566</ele>
        <time>2026-08-29T09:58:38.000Z</time>
      </trkpt>
      <trkpt lat="44.95856" lon="5.87233">
        <ele>965.700137</ele>
        <time>2026-08-29T09:58:39.000Z</time>
      </trkpt>
      <trkpt lat="44.95848" lon="5.87226">
        <ele>965.249937</ele>
        <time>2026-08-29T09:58:40.000Z</time>
      </trkpt>
      <trkpt lat="44.9584" lon="5.87219">
        <ele>964.791682</ele>
        <time>2026-08-29T09:58:41.000Z</time>
      </trkpt>
      <trkpt lat="44.95832" lon="5.87212">
        <ele>964.350055</ele>
        <time>2026-08-29T09:58:42.000Z</time>
      </trkpt>
      <trkpt lat="44.95824" lon="5.87206">
        <ele>963.914304</ele>
        <time>2026-08-29T09:58:43.000Z</time>
      </trkpt>
      <trkpt lat="44.95815" lon="5.872">
        <ele>963.459737</ele>
        <time>2026-08-29T09:58:44.000Z</time>
      </trkpt>
      <trkpt lat="44.95807" lon="5.87194">
        <ele>963.007959</ele>
        <time>2026-08-29T09:58:45.000Z</time>
      </trkpt>
      <trkpt lat="44.958" lon="5.87186">
        <ele>962.707037</ele>
        <time>2026-08-29T09:58:46.000Z</time>
      </trkpt>
      <trkpt lat="44.95793" lon="5.87177">
        <ele>962.464492</ele>
        <time>2026-08-29T09:58:47.000Z</time>
      </trkpt>
      <trkpt lat="44.95787" lon="5.87167">
        <ele>962.215103</ele>
        <time>2026-08-29T09:58:48.000Z</time>
      </trkpt>
      <trkpt lat="44.95781" lon="5.87156">
        <ele>961.955095</ele>
        <time>2026-08-29T09:58:49.000Z</time>
      </trkpt>
      <trkpt lat="44.95776" lon="5.87144">
        <ele>961.708361</ele>
        <time>2026-08-29T09:58:50.000Z</time>
      </trkpt>
      <trkpt lat="44.95771" lon="5.87133">
        <ele>961.465548</ele>
        <time>2026-08-29T09:58:51.000Z</time>
      </trkpt>
      <trkpt lat="44.95768" lon="5.8712">
        <ele>961.225675</ele>
        <time>2026-08-29T09:58:52.000Z</time>
      </trkpt>
      <trkpt lat="44.95765" lon="5.87108">
        <ele>960.990833</ele>
        <time>2026-08-29T09:58:53.000Z</time>
      </trkpt>
      <trkpt lat="44.95762" lon="5.87096">
        <ele>960.758855</ele>
        <time>2026-08-29T09:58:54.000Z</time>
      </trkpt>
      <trkpt lat="44.95759" lon="5.87085">
        <ele>960.531519</ele>
        <time>2026-08-29T09:58:55.000Z</time>
      </trkpt>
      <trkpt lat="44.95755" lon="5.87074">
        <ele>960.311751</ele>
        <time>2026-08-29T09:58:56.000Z</time>
      </trkpt>
      <trkpt lat="44.9575" lon="5.87064">
        <ele>960.089177</ele>
        <time>2026-08-29T09:58:57.000Z</time>
      </trkpt>
      <trkpt lat="44.95745" lon="5.87054">
        <ele>959.866657</ele>
        <time>2026-08-29T09:58:58.000Z</time>
      </trkpt>
      <trkpt lat="44.9574" lon="5.87045">
        <ele>959.645696</ele>
        <time>2026-08-29T09:58:59.000Z</time>
      </trkpt>
      <trkpt lat="44.95734" lon="5.87037">
        <ele>959.429678</ele>
        <time>2026-08-29T09:59:00.000Z</time>
      </trkpt>
      <trkpt lat="44.95728" lon="5.87028">
        <ele>959.21328</ele>
        <time>2026-08-29T09:59:01.000Z</time>
      </trkpt>
      <trkpt lat="44.95721" lon="5.87021">
        <ele>959.000891</ele>
        <time>2026-08-29T09:59:02.000Z</time>
      </trkpt>
      <trkpt lat="44.95714" lon="5.87015">
        <ele>958.782185</ele>
        <time>2026-08-29T09:59:03.000Z</time>
      </trkpt>
      <trkpt lat="44.95707" lon="5.87009">
        <ele>958.567015</ele>
        <time>2026-08-29T09:59:04.000Z</time>
      </trkpt>
      <trkpt lat="44.957" lon="5.87003">
        <ele>958.355422</ele>
        <time>2026-08-29T09:59:05.000Z</time>
      </trkpt>
      <trkpt lat="44.95692" lon="5.86999">
        <ele>958.165604</ele>
        <time>2026-08-29T09:59:06.000Z</time>
      </trkpt>
      <trkpt lat="44.95685" lon="5.86995">
        <ele>958.016373</ele>
        <time>2026-08-29T09:59:07.000Z</time>
      </trkpt>
      <trkpt lat="44.95677" lon="5.86991">
        <ele>957.873109</ele>
        <time>2026-08-29T09:59:08.000Z</time>
      </trkpt>
      <trkpt lat="44.95669" lon="5.86987">
        <ele>957.725212</ele>
        <time>2026-08-29T09:59:09.000Z</time>
      </trkpt>
      <trkpt lat="44.95662" lon="5.86984">
        <ele>957.583244</ele>
        <time>2026-08-29T09:59:10.000Z</time>
      </trkpt>
      <trkpt lat="44.95654" lon="5.8698">
        <ele>957.44376</ele>
        <time>2026-08-29T09:59:11.000Z</time>
      </trkpt>
      <trkpt lat="44.95647" lon="5.86977">
        <ele>957.30733</ele>
        <time>2026-08-29T09:59:12.000Z</time>
      </trkpt>
      <trkpt lat="44.9564" lon="5.86974">
        <ele>957.165767</ele>
        <time>2026-08-29T09:59:13.000Z</time>
      </trkpt>
      <trkpt lat="44.95632" lon="5.86972">
        <ele>957.026876</ele>
        <time>2026-08-29T09:59:14.000Z</time>
      </trkpt>
      <trkpt lat="44.95625" lon="5.86969">
        <ele>956.89149</ele>
        <time>2026-08-29T09:59:15.000Z</time>
      </trkpt>
      <trkpt lat="44.95618" lon="5.86967">
        <ele>956.758442</ele>
        <time>2026-08-29T09:59:16.000Z</time>
      </trkpt>
      <trkpt lat="44.9561" lon="5.86965">
        <ele>956.621324</ele>
        <time>2026-08-29T09:59:17.000Z</time>
      </trkpt>
      <trkpt lat="44.95603" lon="5.86963">
        <ele>956.482634</ele>
        <time>2026-08-29T09:59:18.000Z</time>
      </trkpt>
      <trkpt lat="44.95595" lon="5.86962">
        <ele>956.34075</ele>
        <time>2026-08-29T09:59:19.000Z</time>
      </trkpt>
      <trkpt lat="44.95587" lon="5.86961">
        <ele>956.197538</ele>
        <time>2026-08-29T09:59:20.000Z</time>
      </trkpt>
      <trkpt lat="44.95579" lon="5.8696">
        <ele>956.05791</ele>
        <time>2026-08-29T09:59:21.000Z</time>
      </trkpt>
      <trkpt lat="44.95572" lon="5.86959">
        <ele>955.920778</ele>
        <time>2026-08-29T09:59:22.000Z</time>
      </trkpt>
      <trkpt lat="44.95564" lon="5.86959">
        <ele>955.780096</ele>
        <time>2026-08-29T09:59:23.000Z</time>
      </trkpt>
      <trkpt lat="44.95556" lon="5.86958">
        <ele>955.637613</ele>
        <time>2026-08-29T09:59:24.000Z</time>
      </trkpt>
      <trkpt lat="44.95548" lon="5.86958">
        <ele>955.495131</ele>
        <time>2026-08-29T09:59:25.000Z</time>
      </trkpt>
      <trkpt lat="44.9554" lon="5.86957">
        <ele>955.354397</ele>
        <time>2026-08-29T09:59:26.000Z</time>
      </trkpt>
      <trkpt lat="44.95532" lon="5.86957">
        <ele>955.2154</ele>
        <time>2026-08-29T09:59:27.000Z</time>
      </trkpt>
      <trkpt lat="44.95525" lon="5.86956">
        <ele>955.078036</ele>
        <time>2026-08-29T09:59:28.000Z</time>
      </trkpt>
      <trkpt lat="44.95517" lon="5.86955">
        <ele>954.949285</ele>
        <time>2026-08-29T09:59:29.000Z</time>
      </trkpt>
      <trkpt lat="44.9551" lon="5.86953">
        <ele>954.853427</ele>
        <time>2026-08-29T09:59:30.000Z</time>
      </trkpt>
      <trkpt lat="44.95503" lon="5.86952">
        <ele>954.760109</ele>
        <time>2026-08-29T09:59:31.000Z</time>
      </trkpt>
      <trkpt lat="44.95497" lon="5.8695">
        <ele>954.666375</ele>
        <time>2026-08-29T09:59:32.000Z</time>
      </trkpt>
      <trkpt lat="44.9549" lon="5.86947">
        <ele>954.569103</ele>
        <time>2026-08-29T09:59:33.000Z</time>
      </trkpt>
      <trkpt lat="44.95483" lon="5.86945">
        <ele>954.475369</ele>
        <time>2026-08-29T09:59:34.000Z</time>
      </trkpt>
      <trkpt lat="44.95477" lon="5.86942">
        <ele>954.387647</ele>
        <time>2026-08-29T09:59:35.000Z</time>
      </trkpt>
      <trkpt lat="44.9547" lon="5.8694">
        <ele>954.299392</ele>
        <time>2026-08-29T09:59:36.000Z</time>
      </trkpt>
      <trkpt lat="44.95464" lon="5.86937">
        <ele>954.211137</ele>
        <time>2026-08-29T09:59:37.000Z</time>
      </trkpt>
      <trkpt lat="44.95458" lon="5.86934">
        <ele>954.124826</ele>
        <time>2026-08-29T09:59:38.000Z</time>
      </trkpt>
      <trkpt lat="44.95452" lon="5.8693">
        <ele>954.038514</ele>
        <time>2026-08-29T09:59:39.000Z</time>
      </trkpt>
      <trkpt lat="44.95446" lon="5.86926">
        <ele>953.950788</ele>
        <time>2026-08-29T09:59:40.000Z</time>
      </trkpt>
      <trkpt lat="44.9544" lon="5.86923">
        <ele>953.863029</ele>
        <time>2026-08-29T09:59:41.000Z</time>
      </trkpt>
      <trkpt lat="44.95434" lon="5.86918">
        <ele>953.770128</ele>
        <time>2026-08-29T09:59:42.000Z</time>
      </trkpt>
      <trkpt lat="44.95428" lon="5.86913">
        <ele>953.681326</ele>
        <time>2026-08-29T09:59:43.000Z</time>
      </trkpt>
      <trkpt lat="44.95423" lon="5.86907">
        <ele>953.590374</ele>
        <time>2026-08-29T09:59:44.000Z</time>
      </trkpt>
      <trkpt lat="44.95417" lon="5.86902">
        <ele>953.499294</ele>
        <time>2026-08-29T09:59:45.000Z</time>
      </trkpt>
      <trkpt lat="44.95411" lon="5.86897">
        <ele>953.407823</ele>
        <time>2026-08-29T09:59:46.000Z</time>
      </trkpt>
      <trkpt lat="44.95406" lon="5.86892">
        <ele>953.321163</ele>
        <time>2026-08-29T09:59:47.000Z</time>
      </trkpt>
      <trkpt lat="44.954" lon="5.86888">
        <ele>953.228733</ele>
        <time>2026-08-29T09:59:48.000Z</time>
      </trkpt>
      <trkpt lat="44.95393" lon="5.86883">
        <ele>953.13233</ele>
        <time>2026-08-29T09:59:49.000Z</time>
      </trkpt>
      <trkpt lat="44.95387" lon="5.86878">
        <ele>953.040082</ele>
        <time>2026-08-29T09:59:50.000Z</time>
      </trkpt>
      <trkpt lat="44.95381" lon="5.86874">
        <ele>952.946644</ele>
        <time>2026-08-29T09:59:51.000Z</time>
      </trkpt>
      <trkpt lat="44.95375" lon="5.86869">
        <ele>952.853206</ele>
        <time>2026-08-29T09:59:52.000Z</time>
      </trkpt>
      <trkpt lat="44.95369" lon="5.86864">
        <ele>952.761464</ele>
        <time>2026-08-29T09:59:53.000Z</time>
      </trkpt>
      <trkpt lat="44.95363" lon="5.8686">
        <ele>952.66596</ele>
        <time>2026-08-29T09:59:54.000Z</time>
      </trkpt>
      <trkpt lat="44.95357" lon="5.86856">
        <ele>952.576205</ele>
        <time>2026-08-29T09:59:55.000Z</time>
      </trkpt>
      <trkpt lat="44.9535" lon="5.86851">
        <ele>952.503696</ele>
        <time>2026-08-29T09:59:56.000Z</time>
      </trkpt>
      <trkpt lat="44.95344" lon="5.86848">
        <ele>952.436535</ele>
        <time>2026-08-29T09:59:57.000Z</time>
      </trkpt>
      <trkpt lat="44.95337" lon="5.86844">
        <ele>952.370134</ele>
        <time>2026-08-29T09:59:58.000Z</time>
      </trkpt>
      <trkpt lat="44.95331" lon="5.8684">
        <ele>952.301979</ele>
        <time>2026-08-29T09:59:59.000Z</time>
      </trkpt>
      <trkpt lat="44.95324" lon="5.86837">
        <ele>952.233481</ele>
        <time>2026-08-29T10:00:00.000Z</time>
      </trkpt>
      <trkpt lat="44.95318" lon="5.86834">
        <ele>952.168575</ele>
        <time>2026-08-29T10:00:01.000Z</time>
      </trkpt>
      <trkpt lat="44.95311" lon="5.86831">
        <ele>952.104215</ele>
        <time>2026-08-29T10:00:02.000Z</time>
      </trkpt>
      <trkpt lat="44.95304" lon="5.86828">
        <ele>952.036922</ele>
        <time>2026-08-29T10:00:03.000Z</time>
      </trkpt>
      <trkpt lat="44.95297" lon="5.86826">
        <ele>951.970609</ele>
        <time>2026-08-29T10:00:04.000Z</time>
      </trkpt>
      <trkpt lat="44.95291" lon="5.86824">
        <ele>951.90457</ele>
        <time>2026-08-29T10:00:05.000Z</time>
      </trkpt>
      <trkpt lat="44.95284" lon="5.86823">
        <ele>951.839196</ele>
        <time>2026-08-29T10:00:06.000Z</time>
      </trkpt>
      <trkpt lat="44.95277" lon="5.86822">
        <ele>951.772785</ele>
        <time>2026-08-29T10:00:07.000Z</time>
      </trkpt>
      <trkpt lat="44.9527" lon="5.86821">
        <ele>951.704807</ele>
        <time>2026-08-29T10:00:08.000Z</time>
      </trkpt>
      <trkpt lat="44.95263" lon="5.8682">
        <ele>951.636209</ele>
        <time>2026-08-29T10:00:09.000Z</time>
      </trkpt>
      <trkpt lat="44.95256" lon="5.8682">
        <ele>951.568513</ele>
        <time>2026-08-29T10:00:10.000Z</time>
      </trkpt>
      <trkpt lat="44.95249" lon="5.86819">
        <ele>951.501701</ele>
        <time>2026-08-29T10:00:11.000Z</time>
      </trkpt>
      <trkpt lat="44.95241" lon="5.86819">
        <ele>951.434045</ele>
        <time>2026-08-29T10:00:12.000Z</time>
      </trkpt>
      <trkpt lat="44.95235" lon="5.86818">
        <ele>951.369926</ele>
        <time>2026-08-29T10:00:13.000Z</time>
      </trkpt>
      <trkpt lat="44.95228" lon="5.86818">
        <ele>951.304134</ele>
        <time>2026-08-29T10:00:14.000Z</time>
      </trkpt>
      <trkpt lat="44.95221" lon="5.86818">
        <ele>951.23935</ele>
        <time>2026-08-29T10:00:15.000Z</time>
      </trkpt>
      <trkpt lat="44.95214" lon="5.86818">
        <ele>951.174565</ele>
        <time>2026-08-29T10:00:16.000Z</time>
      </trkpt>
      <trkpt lat="44.95207" lon="5.86818">
        <ele>951.109781</ele>
        <time>2026-08-29T10:00:17.000Z</time>
      </trkpt>
      <trkpt lat="44.95201" lon="5.86818">
        <ele>951.04403</ele>
        <time>2026-08-29T10:00:18.000Z</time>
      </trkpt>
      <trkpt lat="44.95193" lon="5.86817">
        <ele>950.976334</ele>
        <time>2026-08-29T10:00:19.000Z</time>
      </trkpt>
      <trkpt lat="44.95186" lon="5.86816">
        <ele>950.908037</ele>
        <time>2026-08-29T10:00:20.000Z</time>
      </trkpt>
      <trkpt lat="44.9518" lon="5.86814">
        <ele>950.843184</ele>
        <time>2026-08-29T10:00:21.000Z</time>
      </trkpt>
      <trkpt lat="44.95173" lon="5.86812">
        <ele>950.722458</ele>
        <time>2026-08-29T10:00:22.000Z</time>
      </trkpt>
      <trkpt lat="44.95166" lon="5.8681">
        <ele>950.596735</ele>
        <time>2026-08-29T10:00:23.000Z</time>
      </trkpt>
      <trkpt lat="44.95159" lon="5.86807">
        <ele>950.469765</ele>
        <time>2026-08-29T10:00:24.000Z</time>
      </trkpt>
      <trkpt lat="44.95152" lon="5.86804">
        <ele>950.343054</ele>
        <time>2026-08-29T10:00:25.000Z</time>
      </trkpt>
      <trkpt lat="44.95146" lon="5.86801">
        <ele>950.220987</ele>
        <time>2026-08-29T10:00:26.000Z</time>
      </trkpt>
      <trkpt lat="44.95139" lon="5.86797">
        <ele>950.098828</ele>
        <time>2026-08-29T10:00:27.000Z</time>
      </trkpt>
      <trkpt lat="44.95133" lon="5.86793">
        <ele>949.975718</ele>
        <time>2026-08-29T10:00:28.000Z</time>
      </trkpt>
      <trkpt lat="44.95127" lon="5.86789">
        <ele>949.8511</ele>
        <time>2026-08-29T10:00:29.000Z</time>
      </trkpt>
      <trkpt lat="44.95121" lon="5.86785">
        <ele>949.735523</ele>
        <time>2026-08-29T10:00:30.000Z</time>
      </trkpt>
      <trkpt lat="44.95115" lon="5.8678">
        <ele>949.619115</ele>
        <time>2026-08-29T10:00:31.000Z</time>
      </trkpt>
      <trkpt lat="44.95109" lon="5.86775">
        <ele>949.495938</ele>
        <time>2026-08-29T10:00:32.000Z</time>
      </trkpt>
      <trkpt lat="44.95104" lon="5.86769">
        <ele>949.371362</ele>
        <time>2026-08-29T10:00:33.000Z</time>
      </trkpt>
      <trkpt lat="44.95098" lon="5.86763">
        <ele>949.246058</ele>
        <time>2026-08-29T10:00:34.000Z</time>
      </trkpt>
      <trkpt lat="44.95092" lon="5.86758">
        <ele>949.122942</ele>
        <time>2026-08-29T10:00:35.000Z</time>
      </trkpt>
      <trkpt lat="44.95086" lon="5.86752">
        <ele>948.99907</ele>
        <time>2026-08-29T10:00:36.000Z</time>
      </trkpt>
      <trkpt lat="44.95081" lon="5.86747">
        <ele>948.877369</ele>
        <time>2026-08-29T10:00:37.000Z</time>
      </trkpt>
      <trkpt lat="44.95075" lon="5.86742">
        <ele>948.754713</ele>
        <time>2026-08-29T10:00:38.000Z</time>
      </trkpt>
      <trkpt lat="44.95069" lon="5.86737">
        <ele>948.637904</ele>
        <time>2026-08-29T10:00:39.000Z</time>
      </trkpt>
      <trkpt lat="44.95063" lon="5.86732">
        <ele>948.513129</ele>
        <time>2026-08-29T10:00:40.000Z</time>
      </trkpt>
      <trkpt lat="44.95056" lon="5.86728">
        <ele>948.385314</ele>
        <time>2026-08-29T10:00:41.000Z</time>
      </trkpt>
      <trkpt lat="44.9505" lon="5.86724">
        <ele>948.258035</ele>
        <time>2026-08-29T10:00:42.000Z</time>
      </trkpt>
      <trkpt lat="44.95043" lon="5.86719">
        <ele>948.126397</ele>
        <time>2026-08-29T10:00:43.000Z</time>
      </trkpt>
      <trkpt lat="44.95037" lon="5.86714">
        <ele>947.994296</ele>
        <time>2026-08-29T10:00:44.000Z</time>
      </trkpt>
      <trkpt lat="44.9503" lon="5.86709">
        <ele>947.863051</ele>
        <time>2026-08-29T10:00:45.000Z</time>
      </trkpt>
      <trkpt lat="44.95023" lon="5.86705">
        <ele>947.73095</ele>
        <time>2026-08-29T10:00:46.000Z</time>
      </trkpt>
      <trkpt lat="44.95017" lon="5.867">
        <ele>947.583768</ele>
        <time>2026-08-29T10:00:47.000Z</time>
      </trkpt>
      <trkpt lat="44.9501" lon="5.86696">
        <ele>947.409375</ele>
        <time>2026-08-29T10:00:48.000Z</time>
      </trkpt>
      <trkpt lat="44.95003" lon="5.86691">
        <ele>947.231415</ele>
        <time>2026-08-29T10:00:49.000Z</time>
      </trkpt>
      <trkpt lat="44.94997" lon="5.86686">
        <ele>947.056147</ele>
        <time>2026-08-29T10:00:50.000Z</time>
      </trkpt>
      <trkpt lat="44.9499" lon="5.86682">
        <ele>946.882346</ele>
        <time>2026-08-29T10:00:51.000Z</time>
      </trkpt>
      <trkpt lat="44.94983" lon="5.86678">
        <ele>946.699859</ele>
        <time>2026-08-29T10:00:52.000Z</time>
      </trkpt>
      <trkpt lat="44.94975" lon="5.86674">
        <ele>946.513603</ele>
        <time>2026-08-29T10:00:53.000Z</time>
      </trkpt>
      <trkpt lat="44.94968" lon="5.8667">
        <ele>946.331412</ele>
        <time>2026-08-29T10:00:54.000Z</time>
      </trkpt>
      <trkpt lat="44.94961" lon="5.86665">
        <ele>946.151341</ele>
        <time>2026-08-29T10:00:55.000Z</time>
      </trkpt>
      <trkpt lat="44.94954" lon="5.86661">
        <ele>945.964484</ele>
        <time>2026-08-29T10:00:56.000Z</time>
      </trkpt>
      <trkpt lat="44.94947" lon="5.86657">
        <ele>945.781996</ele>
        <time>2026-08-29T10:00:57.000Z</time>
      </trkpt>
      <trkpt lat="44.94939" lon="5.86653">
        <ele>945.599577</ele>
        <time>2026-08-29T10:00:58.000Z</time>
      </trkpt>
      <trkpt lat="44.94932" lon="5.86649">
        <ele>945.405545</ele>
        <time>2026-08-29T10:00:59.000Z</time>
      </trkpt>
      <trkpt lat="44.94924" lon="5.86646">
        <ele>945.225878</ele>
        <time>2026-08-29T10:01:00.000Z</time>
      </trkpt>
      <trkpt lat="44.94917" lon="5.86643">
        <ele>945.03967</ele>
        <time>2026-08-29T10:01:01.000Z</time>
      </trkpt>
      <trkpt lat="44.94909" lon="5.8664">
        <ele>944.849191</ele>
        <time>2026-08-29T10:01:02.000Z</time>
      </trkpt>
      <trkpt lat="44.94901" lon="5.86637">
        <ele>944.655995</ele>
        <time>2026-08-29T10:01:03.000Z</time>
      </trkpt>
      <trkpt lat="44.94893" lon="5.86633">
        <ele>944.463252</ele>
        <time>2026-08-29T10:01:04.000Z</time>
      </trkpt>
      <trkpt lat="44.94886" lon="5.86632">
        <ele>944.287007</ele>
        <time>2026-08-29T10:01:05.000Z</time>
      </trkpt>
      <trkpt lat="44.94879" lon="5.86631">
        <ele>944.12161</ele>
        <time>2026-08-29T10:01:06.000Z</time>
      </trkpt>
      <trkpt lat="44.94872" lon="5.86629">
        <ele>943.972109</ele>
        <time>2026-08-29T10:01:07.000Z</time>
      </trkpt>
      <trkpt lat="44.94865" lon="5.86626">
        <ele>943.783323</ele>
        <time>2026-08-29T10:01:08.000Z</time>
      </trkpt>
      <trkpt lat="44.94856" lon="5.86625">
        <ele>943.588947</ele>
        <time>2026-08-29T10:01:09.000Z</time>
      </trkpt>
      <trkpt lat="44.94849" lon="5.86622">
        <ele>943.405307</ele>
        <time>2026-08-29T10:01:10.000Z</time>
      </trkpt>
      <trkpt lat="44.94841" lon="5.8662">
        <ele>943.192882</ele>
        <time>2026-08-29T10:01:11.000Z</time>
      </trkpt>
      <trkpt lat="44.94834" lon="5.86618">
        <ele>942.990558</ele>
        <time>2026-08-29T10:01:12.000Z</time>
      </trkpt>
      <trkpt lat="44.94827" lon="5.86616">
        <ele>942.789771</ele>
        <time>2026-08-29T10:01:13.000Z</time>
      </trkpt>
      <trkpt lat="44.9482" lon="5.86612">
        <ele>942.580152</ele>
        <time>2026-08-29T10:01:14.000Z</time>
      </trkpt>
      <trkpt lat="44.94812" lon="5.86608">
        <ele>942.350376</ele>
        <time>2026-08-29T10:01:15.000Z</time>
      </trkpt>
      <trkpt lat="44.94804" lon="5.86605">
        <ele>942.137915</ele>
        <time>2026-08-29T10:01:16.000Z</time>
      </trkpt>
      <trkpt lat="44.94796" lon="5.86603">
        <ele>941.921197</ele>
        <time>2026-08-29T10:01:17.000Z</time>
      </trkpt>
      <trkpt lat="44.94788" lon="5.866">
        <ele>941.694354</ele>
        <time>2026-08-29T10:01:18.000Z</time>
      </trkpt>
      <trkpt lat="44.94781" lon="5.86596">
        <ele>941.476476</ele>
        <time>2026-08-29T10:01:19.000Z</time>
      </trkpt>
      <trkpt lat="44.94773" lon="5.86593">
        <ele>941.265728</ele>
        <time>2026-08-29T10:01:20.000Z</time>
      </trkpt>
      <trkpt lat="44.94766" lon="5.86589">
        <ele>941.054337</ele>
        <time>2026-08-29T10:01:21.000Z</time>
      </trkpt>
      <trkpt lat="44.94759" lon="5.86585">
        <ele>940.838763</ele>
        <time>2026-08-29T10:01:22.000Z</time>
      </trkpt>
      <trkpt lat="44.94752" lon="5.8658">
        <ele>940.631621</ele>
        <time>2026-08-29T10:01:23.000Z</time>
      </trkpt>
      <trkpt lat="44.94745" lon="5.86576">
        <ele>940.421988</ele>
        <time>2026-08-29T10:01:24.000Z</time>
      </trkpt>
      <trkpt lat="44.94738" lon="5.86571">
        <ele>940.217318</ele>
        <time>2026-08-29T10:01:25.000Z</time>
      </trkpt>
      <trkpt lat="44.94731" lon="5.86566">
        <ele>940.006826</ele>
        <time>2026-08-29T10:01:26.000Z</time>
      </trkpt>
      <trkpt lat="44.94725" lon="5.86561">
        <ele>939.802703</ele>
        <time>2026-08-29T10:01:27.000Z</time>
      </trkpt>
      <trkpt lat="44.94718" lon="5.86556">
        <ele>939.590086</ele>
        <time>2026-08-29T10:01:28.000Z</time>
      </trkpt>
      <trkpt lat="44.94711" lon="5.8655">
        <ele>939.384559</ele>
        <time>2026-08-29T10:01:29.000Z</time>
      </trkpt>
      <trkpt lat="44.94705" lon="5.86545">
        <ele>939.176678</ele>
        <time>2026-08-29T10:01:30.000Z</time>
      </trkpt>
      <trkpt lat="44.94698" lon="5.8654">
        <ele>938.964425</ele>
        <time>2026-08-29T10:01:31.000Z</time>
      </trkpt>
      <trkpt lat="44.94691" lon="5.86535">
        <ele>938.754792</ele>
        <time>2026-08-29T10:01:32.000Z</time>
      </trkpt>
      <trkpt lat="44.94684" lon="5.86531">
        <ele>938.54499</ele>
        <time>2026-08-29T10:01:33.000Z</time>
      </trkpt>
      <trkpt lat="44.94677" lon="5.86526">
        <ele>938.48903</ele>
        <time>2026-08-29T10:01:34.000Z</time>
      </trkpt>
      <trkpt lat="44.94671" lon="5.86521">
        <ele>938.452732</ele>
        <time>2026-08-29T10:01:35.000Z</time>
      </trkpt>
      <trkpt lat="44.94664" lon="5.86515">
        <ele>938.417419</ele>
        <time>2026-08-29T10:01:36.000Z</time>
      </trkpt>
      <trkpt lat="44.94658" lon="5.8651">
        <ele>938.382107</ele>
        <time>2026-08-29T10:01:37.000Z</time>
      </trkpt>
      <trkpt lat="44.94651" lon="5.86505">
        <ele>938.347543</ele>
        <time>2026-08-29T10:01:38.000Z</time>
      </trkpt>
      <trkpt lat="44.94645" lon="5.86499">
        <ele>938.313662</ele>
        <time>2026-08-29T10:01:39.000Z</time>
      </trkpt>
      <trkpt lat="44.9464" lon="5.86493">
        <ele>938.280384</ele>
        <time>2026-08-29T10:01:40.000Z</time>
      </trkpt>
      <trkpt lat="44.94634" lon="5.86487">
        <ele>938.247574</ele>
        <time>2026-08-29T10:01:41.000Z</time>
      </trkpt>
      <trkpt lat="44.94629" lon="5.86481">
        <ele>938.215643</ele>
        <time>2026-08-29T10:01:42.000Z</time>
      </trkpt>
      <trkpt lat="44.94624" lon="5.86476">
        <ele>938.184838</ele>
        <time>2026-08-29T10:01:43.000Z</time>
      </trkpt>
      <trkpt lat="44.94619" lon="5.8647">
        <ele>938.156559</ele>
        <time>2026-08-29T10:01:44.000Z</time>
      </trkpt>
      <trkpt lat="44.94615" lon="5.86465">
        <ele>938.128441</ele>
        <time>2026-08-29T10:01:45.000Z</time>
      </trkpt>
      <trkpt lat="44.94611" lon="5.86459">
        <ele>938.099812</ele>
        <time>2026-08-29T10:01:46.000Z</time>
      </trkpt>
      <trkpt lat="44.94606" lon="5.86453">
        <ele>938.071183</ele>
        <time>2026-08-29T10:01:47.000Z</time>
      </trkpt>
      <trkpt lat="44.94602" lon="5.86447">
        <ele>938.04348</ele>
        <time>2026-08-29T10:01:48.000Z</time>
      </trkpt>
      <trkpt lat="44.94599" lon="5.86442">
        <ele>938.018743</ele>
        <time>2026-08-29T10:01:49.000Z</time>
      </trkpt>
      <trkpt lat="44.94595" lon="5.86436">
        <ele>937.992243</ele>
        <time>2026-08-29T10:01:50.000Z</time>
      </trkpt>
      <trkpt lat="44.94591" lon="5.8643">
        <ele>937.965331</ele>
        <time>2026-08-29T10:01:51.000Z</time>
      </trkpt>
      <trkpt lat="44.94587" lon="5.86424">
        <ele>937.938083</ele>
        <time>2026-08-29T10:01:52.000Z</time>
      </trkpt>
      <trkpt lat="44.94582" lon="5.86419">
        <ele>937.911406</ele>
        <time>2026-08-29T10:01:53.000Z</time>
      </trkpt>
      <trkpt lat="44.94578" lon="5.86414">
        <ele>937.884866</ele>
        <time>2026-08-29T10:01:54.000Z</time>
      </trkpt>
      <trkpt lat="44.94574" lon="5.86409">
        <ele>937.858849</ele>
        <time>2026-08-29T10:01:55.000Z</time>
      </trkpt>
      <trkpt lat="44.94569" lon="5.86404">
        <ele>937.831521</ele>
        <time>2026-08-29T10:01:56.000Z</time>
      </trkpt>
      <trkpt lat="44.94565" lon="5.86399">
        <ele>937.80514</ele>
        <time>2026-08-29T10:01:57.000Z</time>
      </trkpt>
      <trkpt lat="44.94561" lon="5.86394">
        <ele>937.778806</ele>
        <time>2026-08-29T10:01:58.000Z</time>
      </trkpt>
      <trkpt lat="44.94556" lon="5.8639">
        <ele>937.752491</ele>
        <time>2026-08-29T10:01:59.000Z</time>
      </trkpt>
      <trkpt lat="44.94552" lon="5.86385">
        <ele>937.726562</ele>
        <time>2026-08-29T10:02:00.000Z</time>
      </trkpt>
      <trkpt lat="44.94547" lon="5.86381">
        <ele>937.700251</ele>
        <time>2026-08-29T10:02:01.000Z</time>
      </trkpt>
      <trkpt lat="44.94543" lon="5.86376">
        <ele>937.674519</ele>
        <time>2026-08-29T10:02:02.000Z</time>
      </trkpt>
      <trkpt lat="44.94539" lon="5.86371">
        <ele>937.750327</ele>
        <time>2026-08-29T10:02:03.000Z</time>
      </trkpt>
      <trkpt lat="44.94535" lon="5.86366">
        <ele>937.853288</ele>
        <time>2026-08-29T10:02:04.000Z</time>
      </trkpt>
      <trkpt lat="44.94531" lon="5.86361">
        <ele>937.954861</ele>
        <time>2026-08-29T10:02:05.000Z</time>
      </trkpt>
      <trkpt lat="44.94529" lon="5.86355">
        <ele>938.053099</ele>
        <time>2026-08-29T10:02:06.000Z</time>
      </trkpt>
      <trkpt lat="44.94526" lon="5.86349">
        <ele>938.148123</ele>
        <time>2026-08-29T10:02:07.000Z</time>
      </trkpt>
      <trkpt lat="44.94524" lon="5.86343">
        <ele>938.247108</ele>
        <time>2026-08-29T10:02:08.000Z</time>
      </trkpt>
      <trkpt lat="44.94522" lon="5.86337">
        <ele>938.34239</ele>
        <time>2026-08-29T10:02:09.000Z</time>
      </trkpt>
      <trkpt lat="44.9452" lon="5.86331">
        <ele>938.437672</ele>
        <time>2026-08-29T10:02:10.000Z</time>
      </trkpt>
      <trkpt lat="44.94517" lon="5.86325">
        <ele>938.534895</ele>
        <time>2026-08-29T10:02:11.000Z</time>
      </trkpt>
      <trkpt lat="44.94515" lon="5.86319">
        <ele>938.629254</ele>
        <time>2026-08-29T10:02:12.000Z</time>
      </trkpt>
      <trkpt lat="44.94512" lon="5.86313">
        <ele>938.723871</ele>
        <time>2026-08-29T10:02:13.000Z</time>
      </trkpt>
      <trkpt lat="44.94509" lon="5.86307">
        <ele>938.818488</ele>
        <time>2026-08-29T10:02:14.000Z</time>
      </trkpt>
      <trkpt lat="44.94506" lon="5.86302">
        <ele>938.914707</ele>
        <time>2026-08-29T10:02:15.000Z</time>
      </trkpt>
      <trkpt lat="44.94503" lon="5.86297">
        <ele>939.009472</ele>
        <time>2026-08-29T10:02:16.000Z</time>
      </trkpt>
      <trkpt lat="44.945" lon="5.86292">
        <ele>939.103151</ele>
        <time>2026-08-29T10:02:17.000Z</time>
      </trkpt>
      <trkpt lat="44.94497" lon="5.86286">
        <ele>939.200676</ele>
        <time>2026-08-29T10:02:18.000Z</time>
      </trkpt>
      <trkpt lat="44.94493" lon="5.86282">
        <ele>939.296909</ele>
        <time>2026-08-29T10:02:19.000Z</time>
      </trkpt>
      <trkpt lat="44.9449" lon="5.86277">
        <ele>939.393141</ele>
        <time>2026-08-29T10:02:20.000Z</time>
      </trkpt>
      <trkpt lat="44.94486" lon="5.86272">
        <ele>939.493721</ele>
        <time>2026-08-29T10:02:21.000Z</time>
      </trkpt>
      <trkpt lat="44.94483" lon="5.86267">
        <ele>939.588986</ele>
        <time>2026-08-29T10:02:22.000Z</time>
      </trkpt>
      <trkpt lat="44.94479" lon="5.86263">
        <ele>939.679583</ele>
        <time>2026-08-29T10:02:23.000Z</time>
      </trkpt>
      <trkpt lat="44.94476" lon="5.86259">
        <ele>939.770656</ele>
        <time>2026-08-29T10:02:24.000Z</time>
      </trkpt>
      <trkpt lat="44.94472" lon="5.86255">
        <ele>939.864224</ele>
        <time>2026-08-29T10:02:25.000Z</time>
      </trkpt>
      <trkpt lat="44.94468" lon="5.86252">
        <ele>939.95391</ele>
        <time>2026-08-29T10:02:26.000Z</time>
      </trkpt>
      <trkpt lat="44.94464" lon="5.86249">
        <ele>940.037709</ele>
        <time>2026-08-29T10:02:27.000Z</time>
      </trkpt>
      <trkpt lat="44.94461" lon="5.86245">
        <ele>940.124724</ele>
        <time>2026-08-29T10:02:28.000Z</time>
      </trkpt>
      <trkpt lat="44.94457" lon="5.86241">
        <ele>940.208549</ele>
        <time>2026-08-29T10:02:29.000Z</time>
      </trkpt>
      <trkpt lat="44.94454" lon="5.86238">
        <ele>940.294078</ele>
        <time>2026-08-29T10:02:30.000Z</time>
      </trkpt>
      <trkpt lat="44.94451" lon="5.86234">
        <ele>940.378373</ele>
        <time>2026-08-29T10:02:31.000Z</time>
      </trkpt>
      <trkpt lat="44.94447" lon="5.8623">
        <ele>940.459953</ele>
        <time>2026-08-29T10:02:32.000Z</time>
      </trkpt>
      <trkpt lat="44.94444" lon="5.86226">
        <ele>940.546651</ele>
        <time>2026-08-29T10:02:33.000Z</time>
      </trkpt>
      <trkpt lat="44.94441" lon="5.86222">
        <ele>940.630946</ele>
        <time>2026-08-29T10:02:34.000Z</time>
      </trkpt>
      <trkpt lat="44.94438" lon="5.86218">
        <ele>940.716729</ele>
        <time>2026-08-29T10:02:35.000Z</time>
      </trkpt>
      <trkpt lat="44.94435" lon="5.86214">
        <ele>940.800052</ele>
        <time>2026-08-29T10:02:36.000Z</time>
      </trkpt>
      <trkpt lat="44.94432" lon="5.8621">
        <ele>940.878253</ele>
        <time>2026-08-29T10:02:37.000Z</time>
      </trkpt>
      <trkpt lat="44.94429" lon="5.86205">
        <ele>940.963565</ele>
        <time>2026-08-29T10:02:38.000Z</time>
      </trkpt>
      <trkpt lat="44.94426" lon="5.86201">
        <ele>941.044883</ele>
        <time>2026-08-29T10:02:39.000Z</time>
      </trkpt>
      <trkpt lat="44.94424" lon="5.86196">
        <ele>941.125151</ele>
        <time>2026-08-29T10:02:40.000Z</time>
      </trkpt>
      <trkpt lat="44.94421" lon="5.86192">
        <ele>941.200529</ele>
        <time>2026-08-29T10:02:41.000Z</time>
      </trkpt>
      <trkpt lat="44.94419" lon="5.86188">
        <ele>941.325892</ele>
        <time>2026-08-29T10:02:42.000Z</time>
      </trkpt>
      <trkpt lat="44.94416" lon="5.86184">
        <ele>941.467925</ele>
        <time>2026-08-29T10:02:43.000Z</time>
      </trkpt>
      <trkpt lat="44.94414" lon="5.8618">
        <ele>941.609957</ele>
        <time>2026-08-29T10:02:44.000Z</time>
      </trkpt>
      <trkpt lat="44.94412" lon="5.86176">
        <ele>941.751596</ele>
        <time>2026-08-29T10:02:45.000Z</time>
      </trkpt>
      <trkpt lat="44.94409" lon="5.86172">
        <ele>941.900853</ele>
        <time>2026-08-29T10:02:46.000Z</time>
      </trkpt>
      <trkpt lat="44.94407" lon="5.86168">
        <ele>942.047078</ele>
        <time>2026-08-29T10:02:47.000Z</time>
      </trkpt>
      <trkpt lat="44.94405" lon="5.86164">
        <ele>942.184141</ele>
        <time>2026-08-29T10:02:48.000Z</time>
      </trkpt>
      <trkpt lat="44.94402" lon="5.86161">
        <ele>942.309483</ele>
        <time>2026-08-29T10:02:49.000Z</time>
      </trkpt>
      <trkpt lat="44.944" lon="5.86157">
        <ele>942.454093</ele>
        <time>2026-08-29T10:02:50.000Z</time>
      </trkpt>
      <trkpt lat="44.94397" lon="5.86153">
        <ele>942.597875</ele>
        <time>2026-08-29T10:02:51.000Z</time>
      </trkpt>
      <trkpt lat="44.94395" lon="5.86149">
        <ele>942.741993</ele>
        <time>2026-08-29T10:02:52.000Z</time>
      </trkpt>
      <trkpt lat="44.94393" lon="5.86145">
        <ele>942.894573</ele>
        <time>2026-08-29T10:02:53.000Z</time>
      </trkpt>
      <trkpt lat="44.94391" lon="5.8614">
        <ele>943.054362</ele>
        <time>2026-08-29T10:02:54.000Z</time>
      </trkpt>
      <trkpt lat="44.94389" lon="5.86135">
        <ele>943.20945</ele>
        <time>2026-08-29T10:02:55.000Z</time>
      </trkpt>
      <trkpt lat="44.94387" lon="5.8613">
        <ele>943.366883</ele>
        <time>2026-08-29T10:02:56.000Z</time>
      </trkpt>
      <trkpt lat="44.94384" lon="5.86125">
        <ele>943.51964</ele>
        <time>2026-08-29T10:02:57.000Z</time>
      </trkpt>
      <trkpt lat="44.94383" lon="5.8612">
        <ele>943.667154</ele>
        <time>2026-08-29T10:02:58.000Z</time>
      </trkpt>
      <trkpt lat="44.94381" lon="5.86116">
        <ele>943.808403</ele>
        <time>2026-08-29T10:02:59.000Z</time>
      </trkpt>
      <trkpt lat="44.9438" lon="5.86111">
        <ele>943.937697</ele>
        <time>2026-08-29T10:03:00.000Z</time>
      </trkpt>
      <trkpt lat="44.94378" lon="5.86108">
        <ele>944.057278</ele>
        <time>2026-08-29T10:03:01.000Z</time>
      </trkpt>
      <trkpt lat="44.94377" lon="5.86105">
        <ele>944.154386</ele>
        <time>2026-08-29T10:03:02.000Z</time>
      </trkpt>
      <trkpt lat="44.94376" lon="5.86102">
        <ele>944.232303</ele>
        <time>2026-08-29T10:03:03.000Z</time>
      </trkpt>
      <trkpt lat="44.94376" lon="5.861">
        <ele>944.303645</ele>
        <time>2026-08-29T10:03:04.000Z</time>
      </trkpt>
      <trkpt lat="44.94375" lon="5.86099">
        <ele>944.332852</ele>
        <time>2026-08-29T10:03:05.000Z</time>
      </trkpt>
      <trkpt lat="44.94375" lon="5.86098">
        <ele>944.355343</ele>
        <time>2026-08-29T10:03:06.000Z</time>
      </trkpt>
      <trkpt lat="44.94375" lon="5.86098">
        <ele>944.368223</ele>
        <time>2026-08-29T10:03:07.000Z</time>
      </trkpt>
      <trkpt lat="44.94369" lon="5.86097">
        <ele>944.589705</ele>
        <time>2026-08-29T10:04:15.000Z</time>
      </trkpt>
      <trkpt lat="44.94368" lon="5.86095">
        <ele>944.659542</ele>
        <time>2026-08-29T10:04:16.000Z</time>
      </trkpt>
      <trkpt lat="44.94368" lon="5.86092">
        <ele>944.746146</ele>
        <time>2026-08-29T10:04:17.000Z</time>
      </trkpt>
      <trkpt lat="44.94367" lon="5.86089">
        <ele>944.831688</ele>
        <time>2026-08-29T10:04:18.000Z</time>
      </trkpt>
      <trkpt lat="44.94366" lon="5.86087">
        <ele>944.90814</ele>
        <time>2026-08-29T10:04:19.000Z</time>
      </trkpt>
      <trkpt lat="44.94366" lon="5.86085">
        <ele>944.967909</ele>
        <time>2026-08-29T10:04:20.000Z</time>
      </trkpt>
      <trkpt lat="44.94366" lon="5.86083">
        <ele>944.998389</ele>
        <time>2026-08-29T10:04:21.000Z</time>
      </trkpt>
      <trkpt lat="44.94366" lon="5.86083">
        <ele>945.009716</ele>
        <time>2026-08-29T10:04:22.000Z</time>
      </trkpt>
      <trkpt lat="44.94364" lon="5.86079">
        <ele>945.133189</ele>
        <time>2026-08-29T10:05:15.000Z</time>
      </trkpt>
      <trkpt lat="44.94362" lon="5.86077">
        <ele>945.215765</ele>
        <time>2026-08-29T10:05:16.000Z</time>
      </trkpt>
      <trkpt lat="44.94361" lon="5.86075">
        <ele>945.29453</ele>
        <time>2026-08-29T10:05:17.000Z</time>
      </trkpt>
      <trkpt lat="44.9436" lon="5.86072">
        <ele>945.384081</ele>
        <time>2026-08-29T10:05:18.000Z</time>
      </trkpt>
      <trkpt lat="44.94359" lon="5.86069">
        <ele>945.4783</ele>
        <time>2026-08-29T10:05:19.000Z</time>
      </trkpt>
      <trkpt lat="44.94358" lon="5.86067">
        <ele>945.568262</ele>
        <time>2026-08-29T10:05:20.000Z</time>
      </trkpt>
      <trkpt lat="44.94356" lon="5.86064">
        <ele>945.662605</ele>
        <time>2026-08-29T10:05:21.000Z</time>
      </trkpt>
      <trkpt lat="44.94355" lon="5.8606">
        <ele>945.781771</ele>
        <time>2026-08-29T10:05:22.000Z</time>
      </trkpt>
      <trkpt lat="44.94353" lon="5.86057">
        <ele>945.898463</ele>
        <time>2026-08-29T10:05:23.000Z</time>
      </trkpt>
      <trkpt lat="44.94351" lon="5.86053">
        <ele>946.012871</ele>
        <time>2026-08-29T10:05:24.000Z</time>
      </trkpt>
      <trkpt lat="44.94349" lon="5.8605">
        <ele>946.132273</ele>
        <time>2026-08-29T10:05:25.000Z</time>
      </trkpt>
      <trkpt lat="44.94347" lon="5.86046">
        <ele>946.258377</ele>
        <time>2026-08-29T10:05:26.000Z</time>
      </trkpt>
      <trkpt lat="44.94345" lon="5.86043">
        <ele>946.390878</ele>
        <time>2026-08-29T10:05:27.000Z</time>
      </trkpt>
      <trkpt lat="44.94343" lon="5.86039">
        <ele>946.525803</ele>
        <time>2026-08-29T10:05:28.000Z</time>
      </trkpt>
      <trkpt lat="44.94341" lon="5.86035">
        <ele>946.669406</ele>
        <time>2026-08-29T10:05:29.000Z</time>
      </trkpt>
      <trkpt lat="44.94338" lon="5.86031">
        <ele>946.818665</ele>
        <time>2026-08-29T10:05:30.000Z</time>
      </trkpt>
      <trkpt lat="44.94335" lon="5.86027">
        <ele>946.977968</ele>
        <time>2026-08-29T10:05:31.000Z</time>
      </trkpt>
      <trkpt lat="44.94332" lon="5.86023">
        <ele>947.13853</ele>
        <time>2026-08-29T10:05:32.000Z</time>
      </trkpt>
      <trkpt lat="44.94328" lon="5.8602">
        <ele>947.306981</ele>
        <time>2026-08-29T10:05:33.000Z</time>
      </trkpt>
      <trkpt lat="44.94324" lon="5.86017">
        <ele>947.479408</ele>
        <time>2026-08-29T10:05:34.000Z</time>
      </trkpt>
      <trkpt lat="44.94321" lon="5.86013">
        <ele>947.644338</ele>
        <time>2026-08-29T10:05:35.000Z</time>
      </trkpt>
      <trkpt lat="44.94317" lon="5.8601">
        <ele>947.808635</ele>
        <time>2026-08-29T10:05:36.000Z</time>
      </trkpt>
      <trkpt lat="44.94314" lon="5.86008">
        <ele>947.961447</ele>
        <time>2026-08-29T10:05:37.000Z</time>
      </trkpt>
      <trkpt lat="44.9431" lon="5.86005">
        <ele>948.106844</ele>
        <time>2026-08-29T10:05:38.000Z</time>
      </trkpt>
      <trkpt lat="44.94308" lon="5.86002">
        <ele>948.275482</ele>
        <time>2026-08-29T10:05:39.000Z</time>
      </trkpt>
      <trkpt lat="44.94305" lon="5.86">
        <ele>948.491737</ele>
        <time>2026-08-29T10:05:40.000Z</time>
      </trkpt>
      <trkpt lat="44.94302" lon="5.85997">
        <ele>948.716532</ele>
        <time>2026-08-29T10:05:41.000Z</time>
      </trkpt>
      <trkpt lat="44.943" lon="5.85994">
        <ele>948.93841</ele>
        <time>2026-08-29T10:05:42.000Z</time>
      </trkpt>
      <trkpt lat="44.94297" lon="5.85992">
        <ele>949.173108</ele>
        <time>2026-08-29T10:05:43.000Z</time>
      </trkpt>
      <trkpt lat="44.94294" lon="5.85989">
        <ele>949.397785</ele>
        <time>2026-08-29T10:05:44.000Z</time>
      </trkpt>
      <trkpt lat="44.94291" lon="5.85986">
        <ele>949.63172</ele>
        <time>2026-08-29T10:05:45.000Z</time>
      </trkpt>
      <trkpt lat="44.9429" lon="5.85982">
        <ele>949.854259</ele>
        <time>2026-08-29T10:05:46.000Z</time>
      </trkpt>
      <trkpt lat="44.94288" lon="5.85979">
        <ele>950.034824</ele>
        <time>2026-08-29T10:05:47.000Z</time>
      </trkpt>
      <trkpt lat="44.94287" lon="5.85976">
        <ele>950.234739</ele>
        <time>2026-08-29T10:05:48.000Z</time>
      </trkpt>
      <trkpt lat="44.94285" lon="5.85972">
        <ele>950.437506</ele>
        <time>2026-08-29T10:05:49.000Z</time>
      </trkpt>
      <trkpt lat="44.94284" lon="5.85969">
        <ele>950.648532</ele>
        <time>2026-08-29T10:05:50.000Z</time>
      </trkpt>
      <trkpt lat="44.94282" lon="5.85965">
        <ele>950.83661</ele>
        <time>2026-08-29T10:05:51.000Z</time>
      </trkpt>
      <trkpt lat="44.94281" lon="5.85962">
        <ele>951.024687</ele>
        <time>2026-08-29T10:05:52.000Z</time>
      </trkpt>
      <trkpt lat="44.9428" lon="5.85958">
        <ele>951.224602</ele>
        <time>2026-08-29T10:05:53.000Z</time>
      </trkpt>
      <trkpt lat="44.94278" lon="5.85955">
        <ele>951.41268</ele>
        <time>2026-08-29T10:05:54.000Z</time>
      </trkpt>
      <trkpt lat="44.94277" lon="5.85951">
        <ele>951.594624</ele>
        <time>2026-08-29T10:05:55.000Z</time>
      </trkpt>
      <trkpt lat="44.94276" lon="5.85948">
        <ele>951.775861</ele>
        <time>2026-08-29T10:05:56.000Z</time>
      </trkpt>
      <trkpt lat="44.94275" lon="5.85944">
        <ele>951.955056</ele>
        <time>2026-08-29T10:05:57.000Z</time>
      </trkpt>
      <trkpt lat="44.94274" lon="5.85941">
        <ele>952.125303</ele>
        <time>2026-08-29T10:05:58.000Z</time>
      </trkpt>
      <trkpt lat="44.94273" lon="5.85938">
        <ele>952.300191</ele>
        <time>2026-08-29T10:05:59.000Z</time>
      </trkpt>
      <trkpt lat="44.94272" lon="5.85935">
        <ele>952.472312</ele>
        <time>2026-08-29T10:06:00.000Z</time>
      </trkpt>
      <trkpt lat="44.94271" lon="5.85932">
        <ele>952.629313</ele>
        <time>2026-08-29T10:06:01.000Z</time>
      </trkpt>
      <trkpt lat="44.9427" lon="5.85929">
        <ele>952.800512</ele>
        <time>2026-08-29T10:06:02.000Z</time>
      </trkpt>
      <trkpt lat="44.94268" lon="5.85926">
        <ele>952.987312</ele>
        <time>2026-08-29T10:06:03.000Z</time>
      </trkpt>
      <trkpt lat="44.94267" lon="5.85922">
        <ele>953.17539</ele>
        <time>2026-08-29T10:06:04.000Z</time>
      </trkpt>
      <trkpt lat="44.94266" lon="5.85919">
        <ele>953.355956</ele>
        <time>2026-08-29T10:06:05.000Z</time>
      </trkpt>
      <trkpt lat="44.94264" lon="5.85916">
        <ele>953.547398</ele>
        <time>2026-08-29T10:06:06.000Z</time>
      </trkpt>
      <trkpt lat="44.94263" lon="5.85912">
        <ele>953.746534</ele>
        <time>2026-08-29T10:06:07.000Z</time>
      </trkpt>
      <trkpt lat="44.94262" lon="5.85909">
        <ele>953.930345</ele>
        <time>2026-08-29T10:06:08.000Z</time>
      </trkpt>
      <trkpt lat="44.9426" lon="5.85906">
        <ele>954.114155</ele>
        <time>2026-08-29T10:06:09.000Z</time>
      </trkpt>
      <trkpt lat="44.94259" lon="5.85903">
        <ele>954.289043</ele>
        <time>2026-08-29T10:06:10.000Z</time>
      </trkpt>
      <trkpt lat="44.94257" lon="5.859">
        <ele>954.463932</ele>
        <time>2026-08-29T10:06:11.000Z</time>
      </trkpt>
      <trkpt lat="44.94256" lon="5.85897">
        <ele>954.643473</ele>
        <time>2026-08-29T10:06:12.000Z</time>
      </trkpt>
      <trkpt lat="44.94254" lon="5.85894">
        <ele>954.799301</ele>
        <time>2026-08-29T10:06:13.000Z</time>
      </trkpt>
      <trkpt lat="44.94253" lon="5.85892">
        <ele>954.966353</ele>
        <time>2026-08-29T10:06:14.000Z</time>
      </trkpt>
      <trkpt lat="44.94251" lon="5.85889">
        <ele>955.135081</ele>
        <time>2026-08-29T10:06:15.000Z</time>
      </trkpt>
      <trkpt lat="44.94249" lon="5.85887">
        <ele>955.306464</ele>
        <time>2026-08-29T10:06:16.000Z</time>
      </trkpt>
      <trkpt lat="44.94248" lon="5.85884">
        <ele>955.473532</ele>
        <time>2026-08-29T10:06:17.000Z</time>
      </trkpt>
      <trkpt lat="44.94247" lon="5.85881">
        <ele>955.633041</ele>
        <time>2026-08-29T10:06:18.000Z</time>
      </trkpt>
      <trkpt lat="44.94245" lon="5.85879">
        <ele>955.805311</ele>
        <time>2026-08-29T10:06:19.000Z</time>
      </trkpt>
      <trkpt lat="44.94243" lon="5.85876">
        <ele>955.978873</ele>
        <time>2026-08-29T10:06:20.000Z</time>
      </trkpt>
      <trkpt lat="44.94241" lon="5.85874">
        <ele>956.162495</ele>
        <time>2026-08-29T10:06:21.000Z</time>
      </trkpt>
      <trkpt lat="44.9424" lon="5.85871">
        <ele>956.333878</ele>
        <time>2026-08-29T10:06:22.000Z</time>
      </trkpt>
      <trkpt lat="44.94238" lon="5.85868">
        <ele>956.504786</ele>
        <time>2026-08-29T10:06:23.000Z</time>
      </trkpt>
      <trkpt lat="44.94236" lon="5.85865">
        <ele>956.677056</ele>
        <time>2026-08-29T10:06:24.000Z</time>
      </trkpt>
      <trkpt lat="44.94235" lon="5.85863">
        <ele>956.86032</ele>
        <time>2026-08-29T10:06:25.000Z</time>
      </trkpt>
      <trkpt lat="44.94233" lon="5.8586">
        <ele>957.045622</ele>
        <time>2026-08-29T10:06:26.000Z</time>
      </trkpt>
      <trkpt lat="44.94231" lon="5.85857">
        <ele>957.213302</ele>
        <time>2026-08-29T10:06:27.000Z</time>
      </trkpt>
      <trkpt lat="44.9423" lon="5.85855">
        <ele>957.380355</ele>
        <time>2026-08-29T10:06:28.000Z</time>
      </trkpt>
      <trkpt lat="44.94228" lon="5.85852">
        <ele>957.560875</ele>
        <time>2026-08-29T10:06:29.000Z</time>
      </trkpt>
      <trkpt lat="44.94226" lon="5.85849">
        <ele>957.739641</ele>
        <time>2026-08-29T10:06:30.000Z</time>
      </trkpt>
      <trkpt lat="44.94225" lon="5.85846">
        <ele>957.89915</ele>
        <time>2026-08-29T10:06:31.000Z</time>
      </trkpt>
      <trkpt lat="44.94223" lon="5.85844">
        <ele>958.069336</ele>
        <time>2026-08-29T10:06:32.000Z</time>
      </trkpt>
      <trkpt lat="44.94221" lon="5.85841">
        <ele>958.238063</ele>
        <time>2026-08-29T10:06:33.000Z</time>
      </trkpt>
      <trkpt lat="44.94219" lon="5.85839">
        <ele>958.406549</ele>
        <time>2026-08-29T10:06:34.000Z</time>
      </trkpt>
      <trkpt lat="44.94218" lon="5.85837">
        <ele>958.567065</ele>
        <time>2026-08-29T10:06:35.000Z</time>
      </trkpt>
      <trkpt lat="44.94216" lon="5.85835">
        <ele>958.717232</ele>
        <time>2026-08-29T10:06:36.000Z</time>
      </trkpt>
      <trkpt lat="44.94214" lon="5.85833">
        <ele>958.887418</ele>
        <time>2026-08-29T10:06:37.000Z</time>
      </trkpt>
      <trkpt lat="44.94213" lon="5.8583">
        <ele>959.043246</ele>
        <time>2026-08-29T10:06:38.000Z</time>
      </trkpt>
      <trkpt lat="44.94211" lon="5.85828">
        <ele>959.201768</ele>
        <time>2026-08-29T10:06:39.000Z</time>
      </trkpt>
      <trkpt lat="44.94209" lon="5.85826">
        <ele>959.38539</ele>
        <time>2026-08-29T10:06:40.000Z</time>
      </trkpt>
      <trkpt lat="44.94207" lon="5.85823">
        <ele>959.558953</ele>
        <time>2026-08-29T10:06:41.000Z</time>
      </trkpt>
      <trkpt lat="44.94205" lon="5.85821">
        <ele>959.716415</ele>
        <time>2026-08-29T10:06:42.000Z</time>
      </trkpt>
      <trkpt lat="44.94204" lon="5.85819">
        <ele>959.868531</ele>
        <time>2026-08-29T10:06:43.000Z</time>
      </trkpt>
      <trkpt lat="44.94202" lon="5.85817">
        <ele>960.039915</ele>
        <time>2026-08-29T10:06:44.000Z</time>
      </trkpt>
      <trkpt lat="44.94201" lon="5.85814">
        <ele>960.190983</ele>
        <time>2026-08-29T10:06:45.000Z</time>
      </trkpt>
      <trkpt lat="44.94199" lon="5.85811">
        <ele>960.365797</ele>
        <time>2026-08-29T10:06:46.000Z</time>
      </trkpt>
      <trkpt lat="44.94198" lon="5.85809">
        <ele>960.516779</ele>
        <time>2026-08-29T10:06:47.000Z</time>
      </trkpt>
      <trkpt lat="44.94197" lon="5.85806">
        <ele>960.659275</ele>
        <time>2026-08-29T10:06:48.000Z</time>
      </trkpt>
      <trkpt lat="44.94195" lon="5.85804">
        <ele>960.783033</ele>
        <time>2026-08-29T10:06:49.000Z</time>
      </trkpt>
      <trkpt lat="44.94194" lon="5.85802">
        <ele>960.890017</ele>
        <time>2026-08-29T10:06:50.000Z</time>
      </trkpt>
      <trkpt lat="44.94193" lon="5.85799">
        <ele>961.011193</ele>
        <time>2026-08-29T10:06:51.000Z</time>
      </trkpt>
      <trkpt lat="44.94193" lon="5.85796">
        <ele>961.114222</ele>
        <time>2026-08-29T10:06:52.000Z</time>
      </trkpt>
      <trkpt lat="44.94193" lon="5.85794">
        <ele>961.219183</ele>
        <time>2026-08-29T10:06:53.000Z</time>
      </trkpt>
      <trkpt lat="44.94192" lon="5.85791">
        <ele>961.332146</ele>
        <time>2026-08-29T10:06:54.000Z</time>
      </trkpt>
      <trkpt lat="44.94192" lon="5.85789">
        <ele>961.439245</ele>
        <time>2026-08-29T10:06:55.000Z</time>
      </trkpt>
      <trkpt lat="44.94192" lon="5.85786">
        <ele>961.549813</ele>
        <time>2026-08-29T10:06:56.000Z</time>
      </trkpt>
      <trkpt lat="44.94192" lon="5.85783">
        <ele>961.670805</ele>
        <time>2026-08-29T10:06:57.000Z</time>
      </trkpt>
      <trkpt lat="44.94193" lon="5.8578">
        <ele>961.792409</ele>
        <time>2026-08-29T10:06:58.000Z</time>
      </trkpt>
      <trkpt lat="44.94193" lon="5.85777">
        <ele>961.909384</ele>
        <time>2026-08-29T10:06:59.000Z</time>
      </trkpt>
      <trkpt lat="44.94194" lon="5.85775">
        <ele>962.012413</ele>
        <time>2026-08-29T10:07:00.000Z</time>
      </trkpt>
      <trkpt lat="44.94194" lon="5.85772">
        <ele>962.131733</ele>
        <time>2026-08-29T10:07:01.000Z</time>
      </trkpt>
      <trkpt lat="44.94194" lon="5.85769">
        <ele>962.244697</ele>
        <time>2026-08-29T10:07:02.000Z</time>
      </trkpt>
      <trkpt lat="44.94195" lon="5.85767">
        <ele>962.358611</ele>
        <time>2026-08-29T10:07:03.000Z</time>
      </trkpt>
      <trkpt lat="44.94196" lon="5.85764">
        <ele>962.46491</ele>
        <time>2026-08-29T10:07:04.000Z</time>
      </trkpt>
      <trkpt lat="44.94196" lon="5.85761">
        <ele>962.590383</ele>
        <time>2026-08-29T10:07:05.000Z</time>
      </trkpt>
      <trkpt lat="44.94197" lon="5.85759">
        <ele>962.710247</ele>
        <time>2026-08-29T10:07:06.000Z</time>
      </trkpt>
      <trkpt lat="44.94198" lon="5.85756">
        <ele>962.822235</ele>
        <time>2026-08-29T10:07:07.000Z</time>
      </trkpt>
      <trkpt lat="44.94198" lon="5.85754">
        <ele>962.931194</ele>
        <time>2026-08-29T10:07:08.000Z</time>
      </trkpt>
      <trkpt lat="44.94199" lon="5.85751">
        <ele>963.049716</ele>
        <time>2026-08-29T10:07:09.000Z</time>
      </trkpt>
      <trkpt lat="44.942" lon="5.85748">
        <ele>963.16207</ele>
        <time>2026-08-29T10:07:10.000Z</time>
      </trkpt>
      <trkpt lat="44.94201" lon="5.85746">
        <ele>963.278167</ele>
        <time>2026-08-29T10:07:11.000Z</time>
      </trkpt>
      <trkpt lat="44.94201" lon="5.85743">
        <ele>963.395918</ele>
        <time>2026-08-29T10:07:12.000Z</time>
      </trkpt>
      <trkpt lat="44.94202" lon="5.8574">
        <ele>963.510207</ele>
        <time>2026-08-29T10:07:13.000Z</time>
      </trkpt>
      <trkpt lat="44.94202" lon="5.85738">
        <ele>963.618309</ele>
        <time>2026-08-29T10:07:14.000Z</time>
      </trkpt>
      <trkpt lat="44.94203" lon="5.85735">
        <ele>963.739913</ele>
        <time>2026-08-29T10:07:15.000Z</time>
      </trkpt>
      <trkpt lat="44.94204" lon="5.85733">
        <ele>963.858436</ele>
        <time>2026-08-29T10:07:16.000Z</time>
      </trkpt>
      <trkpt lat="44.94205" lon="5.8573">
        <ele>963.983909</ele>
        <time>2026-08-29T10:07:17.000Z</time>
      </trkpt>
      <trkpt lat="44.94205" lon="5.85727">
        <ele>964.107981</ele>
        <time>2026-08-29T10:07:18.000Z</time>
      </trkpt>
      <trkpt lat="44.94206" lon="5.85723">
        <ele>964.245139</ele>
        <time>2026-08-29T10:07:19.000Z</time>
      </trkpt>
      <trkpt lat="44.94206" lon="5.85721">
        <ele>964.363394</ele>
        <time>2026-08-29T10:07:20.000Z</time>
      </trkpt>
      <trkpt lat="44.94207" lon="5.85718">
        <ele>964.483196</ele>
        <time>2026-08-29T10:07:21.000Z</time>
      </trkpt>
      <trkpt lat="44.94207" lon="5.85715">
        <ele>964.606923</ele>
        <time>2026-08-29T10:07:22.000Z</time>
      </trkpt>
      <trkpt lat="44.94208" lon="5.85712">
        <ele>964.736278</ele>
        <time>2026-08-29T10:07:23.000Z</time>
      </trkpt>
      <trkpt lat="44.94208" lon="5.85709">
        <ele>964.871911</ele>
        <time>2026-08-29T10:07:24.000Z</time>
      </trkpt>
      <trkpt lat="44.94209" lon="5.85706">
        <ele>965.002112</ele>
        <time>2026-08-29T10:07:25.000Z</time>
      </trkpt>
      <trkpt lat="44.94209" lon="5.85703">
        <ele>965.129775</ele>
        <time>2026-08-29T10:07:26.000Z</time>
      </trkpt>
      <trkpt lat="44.9421" lon="5.857">
        <ele>965.254788</ele>
        <time>2026-08-29T10:07:27.000Z</time>
      </trkpt>
      <trkpt lat="44.94211" lon="5.85697">
        <ele>965.375964</ele>
        <time>2026-08-29T10:07:28.000Z</time>
      </trkpt>
      <trkpt lat="44.94212" lon="5.85694">
        <ele>965.499615</ele>
        <time>2026-08-29T10:07:29.000Z</time>
      </trkpt>
      <trkpt lat="44.94213" lon="5.85692">
        <ele>965.618137</ele>
        <time>2026-08-29T10:07:30.000Z</time>
      </trkpt>
      <trkpt lat="44.94213" lon="5.85689">
        <ele>965.728469</ele>
        <time>2026-08-29T10:07:31.000Z</time>
      </trkpt>
      <trkpt lat="44.94214" lon="5.85686">
        <ele>965.842758</ele>
        <time>2026-08-29T10:07:32.000Z</time>
      </trkpt>
      <trkpt lat="44.94214" lon="5.85684">
        <ele>965.958646</ele>
        <time>2026-08-29T10:07:33.000Z</time>
      </trkpt>
      <trkpt lat="44.94215" lon="5.85681">
        <ele>966.076396</ele>
        <time>2026-08-29T10:07:34.000Z</time>
      </trkpt>
      <trkpt lat="44.94215" lon="5.85678">
        <ele>966.193371</ele>
        <time>2026-08-29T10:07:35.000Z</time>
      </trkpt>
      <trkpt lat="44.94216" lon="5.85675">
        <ele>966.317097</ele>
        <time>2026-08-29T10:07:36.000Z</time>
      </trkpt>
      <trkpt lat="44.94216" lon="5.85672">
        <ele>966.439327</ele>
        <time>2026-08-29T10:07:37.000Z</time>
      </trkpt>
      <trkpt lat="44.94217" lon="5.85669">
        <ele>966.565539</ele>
        <time>2026-08-29T10:07:38.000Z</time>
      </trkpt>
      <trkpt lat="44.94217" lon="5.85666">
        <ele>966.690552</ele>
        <time>2026-08-29T10:07:39.000Z</time>
      </trkpt>
      <trkpt lat="44.94218" lon="5.85663">
        <ele>966.80652</ele>
        <time>2026-08-29T10:07:40.000Z</time>
      </trkpt>
      <trkpt lat="44.94218" lon="5.8566">
        <ele>966.939591</ele>
        <time>2026-08-29T10:07:41.000Z</time>
      </trkpt>
      <trkpt lat="44.94218" lon="5.85657">
        <ele>967.05961</ele>
        <time>2026-08-29T10:07:42.000Z</time>
      </trkpt>
      <trkpt lat="44.94219" lon="5.85654">
        <ele>967.195172</ele>
        <time>2026-08-29T10:07:43.000Z</time>
      </trkpt>
      <trkpt lat="44.9422" lon="5.85651">
        <ele>967.340175</ele>
        <time>2026-08-29T10:07:44.000Z</time>
      </trkpt>
      <trkpt lat="44.9422" lon="5.85648">
        <ele>967.475296</ele>
        <time>2026-08-29T10:07:45.000Z</time>
      </trkpt>
      <trkpt lat="44.94221" lon="5.85645">
        <ele>967.596287</ele>
        <time>2026-08-29T10:07:46.000Z</time>
      </trkpt>
      <trkpt lat="44.94221" lon="5.85642">
        <ele>967.733445</ele>
        <time>2026-08-29T10:07:47.000Z</time>
      </trkpt>
      <trkpt lat="44.94222" lon="5.85638">
        <ele>967.870603</ele>
        <time>2026-08-29T10:07:48.000Z</time>
      </trkpt>
      <trkpt lat="44.94223" lon="5.85635">
        <ele>968.003673</ele>
        <time>2026-08-29T10:07:49.000Z</time>
      </trkpt>
      <trkpt lat="44.94223" lon="5.85632">
        <ele>968.131335</ele>
        <time>2026-08-29T10:07:50.000Z</time>
      </trkpt>
      <trkpt lat="44.94224" lon="5.85629">
        <ele>968.262943</ele>
        <time>2026-08-29T10:07:51.000Z</time>
      </trkpt>
      <trkpt lat="44.94224" lon="5.85626">
        <ele>968.389155</ele>
        <time>2026-08-29T10:07:52.000Z</time>
      </trkpt>
      <trkpt lat="44.94224" lon="5.85623">
        <ele>968.524416</ele>
        <time>2026-08-29T10:07:53.000Z</time>
      </trkpt>
      <trkpt lat="44.94224" lon="5.8562">
        <ele>968.656603</ele>
        <time>2026-08-29T10:07:54.000Z</time>
      </trkpt>
      <trkpt lat="44.94224" lon="5.85616">
        <ele>968.800977</ele>
        <time>2026-08-29T10:07:55.000Z</time>
      </trkpt>
      <trkpt lat="44.94223" lon="5.85612">
        <ele>968.957814</ele>
        <time>2026-08-29T10:07:56.000Z</time>
      </trkpt>
      <trkpt lat="44.94223" lon="5.8561">
        <ele>969.068146</ele>
        <time>2026-08-29T10:07:57.000Z</time>
      </trkpt>
      <trkpt lat="44.9422" lon="5.85607">
        <ele>969.235928</ele>
        <time>2026-08-29T10:07:58.000Z</time>
      </trkpt>
      <trkpt lat="44.94218" lon="5.85605">
        <ele>969.387816</ele>
        <time>2026-08-29T10:07:59.000Z</time>
      </trkpt>
      <trkpt lat="44.94216" lon="5.85602">
        <ele>969.561895</ele>
        <time>2026-08-29T10:08:00.000Z</time>
      </trkpt>
      <trkpt lat="44.94214" lon="5.85598">
        <ele>969.766865</ele>
        <time>2026-08-29T10:08:01.000Z</time>
      </trkpt>
      <trkpt lat="44.94211" lon="5.85595">
        <ele>969.971835</ele>
        <time>2026-08-29T10:08:02.000Z</time>
      </trkpt>
      <trkpt lat="44.94208" lon="5.85591">
        <ele>970.193645</ele>
        <time>2026-08-29T10:08:03.000Z</time>
      </trkpt>
      <trkpt lat="44.94205" lon="5.85588">
        <ele>970.435493</ele>
        <time>2026-08-29T10:08:04.000Z</time>
      </trkpt>
      <trkpt lat="44.94202" lon="5.85584">
        <ele>970.674148</ele>
        <time>2026-08-29T10:08:05.000Z</time>
      </trkpt>
      <trkpt lat="44.94199" lon="5.85579">
        <ele>970.921397</ele>
        <time>2026-08-29T10:08:06.000Z</time>
      </trkpt>
      <trkpt lat="44.94197" lon="5.85574">
        <ele>971.113244</ele>
        <time>2026-08-29T10:08:07.000Z</time>
      </trkpt>
      <trkpt lat="44.94194" lon="5.85569">
        <ele>971.298188</ele>
        <time>2026-08-29T10:08:08.000Z</time>
      </trkpt>
      <trkpt lat="44.94192" lon="5.85563">
        <ele>971.483381</ele>
        <time>2026-08-29T10:08:09.000Z</time>
      </trkpt>
      <trkpt lat="44.94189" lon="5.85558">
        <ele>971.668325</ele>
        <time>2026-08-29T10:08:10.000Z</time>
      </trkpt>
      <trkpt lat="44.94187" lon="5.85552">
        <ele>971.846514</ele>
        <time>2026-08-29T10:08:11.000Z</time>
      </trkpt>
      <trkpt lat="44.94185" lon="5.85547">
        <ele>972.024703</ele>
        <time>2026-08-29T10:08:12.000Z</time>
      </trkpt>
      <trkpt lat="44.94182" lon="5.85542">
        <ele>972.200809</ele>
        <time>2026-08-29T10:08:13.000Z</time>
      </trkpt>
      <trkpt lat="44.9418" lon="5.85536">
        <ele>972.381448</ele>
        <time>2026-08-29T10:08:14.000Z</time>
      </trkpt>
      <trkpt lat="44.94178" lon="5.85531">
        <ele>972.550561</ele>
        <time>2026-08-29T10:08:15.000Z</time>
      </trkpt>
      <trkpt lat="44.94176" lon="5.85526">
        <ele>972.721479</ele>
        <time>2026-08-29T10:08:16.000Z</time>
      </trkpt>
      <trkpt lat="44.94174" lon="5.85521">
        <ele>972.892665</ele>
        <time>2026-08-29T10:08:17.000Z</time>
      </trkpt>
      <trkpt lat="44.94171" lon="5.85516">
        <ele>973.061779</ele>
        <time>2026-08-29T10:08:18.000Z</time>
      </trkpt>
      <trkpt lat="44.94169" lon="5.85511">
        <ele>973.221426</ele>
        <time>2026-08-29T10:08:19.000Z</time>
      </trkpt>
      <trkpt lat="44.94168" lon="5.85507">
        <ele>973.371612</ele>
        <time>2026-08-29T10:08:20.000Z</time>
      </trkpt>
      <trkpt lat="44.94166" lon="5.85502">
        <ele>973.52478</ele>
        <time>2026-08-29T10:08:21.000Z</time>
      </trkpt>
      <trkpt lat="44.94164" lon="5.85498">
        <ele>973.674966</ele>
        <time>2026-08-29T10:08:22.000Z</time>
      </trkpt>
      <trkpt lat="44.94162" lon="5.85493">
        <ele>973.816137</ele>
        <time>2026-08-29T10:08:23.000Z</time>
      </trkpt>
      <trkpt lat="44.94161" lon="5.85489">
        <ele>973.963044</ele>
        <time>2026-08-29T10:08:24.000Z</time>
      </trkpt>
      <trkpt lat="44.94158" lon="5.85485">
        <ele>974.108237</ele>
        <time>2026-08-29T10:08:25.000Z</time>
      </trkpt>
      <trkpt lat="44.94156" lon="5.85481">
        <ele>974.24869</ele>
        <time>2026-08-29T10:08:26.000Z</time>
      </trkpt>
      <trkpt lat="44.94154" lon="5.85477">
        <ele>974.375115</ele>
        <time>2026-08-29T10:08:27.000Z</time>
      </trkpt>
      <trkpt lat="44.94152" lon="5.85474">
        <ele>974.504045</ele>
        <time>2026-08-29T10:08:28.000Z</time>
      </trkpt>
      <trkpt lat="44.94151" lon="5.8547">
        <ele>974.628048</ele>
        <time>2026-08-29T10:08:29.000Z</time>
      </trkpt>
      <trkpt lat="44.94149" lon="5.85467">
        <ele>974.749715</ele>
        <time>2026-08-29T10:08:30.000Z</time>
      </trkpt>
      <trkpt lat="44.94147" lon="5.85463">
        <ele>974.87614</ele>
        <time>2026-08-29T10:08:31.000Z</time>
      </trkpt>
      <trkpt lat="44.94145" lon="5.8546">
        <ele>974.993415</ele>
        <time>2026-08-29T10:08:32.000Z</time>
      </trkpt>
      <trkpt lat="44.94144" lon="5.85456">
        <ele>975.108645</ele>
        <time>2026-08-29T10:08:33.000Z</time>
      </trkpt>
      <trkpt lat="44.94143" lon="5.85453">
        <ele>975.216894</ele>
        <time>2026-08-29T10:08:34.000Z</time>
      </trkpt>
      <trkpt lat="44.94142" lon="5.8545">
        <ele>975.326658</ele>
        <time>2026-08-29T10:08:35.000Z</time>
      </trkpt>
      <trkpt lat="44.94141" lon="5.85446">
        <ele>975.431208</ele>
        <time>2026-08-29T10:08:36.000Z</time>
      </trkpt>
      <trkpt lat="44.94139" lon="5.85443">
        <ele>975.539457</ele>
        <time>2026-08-29T10:08:37.000Z</time>
      </trkpt>
      <trkpt lat="44.94138" lon="5.8544">
        <ele>975.650219</ele>
        <time>2026-08-29T10:08:38.000Z</time>
      </trkpt>
      <trkpt lat="44.94137" lon="5.85436">
        <ele>975.758468</ele>
        <time>2026-08-29T10:08:39.000Z</time>
      </trkpt>
      <trkpt lat="44.94135" lon="5.85433">
        <ele>975.866717</ele>
        <time>2026-08-29T10:08:40.000Z</time>
      </trkpt>
      <trkpt lat="44.94134" lon="5.8543">
        <ele>975.976992</ele>
        <time>2026-08-29T10:08:41.000Z</time>
      </trkpt>
      <trkpt lat="44.94132" lon="5.85426">
        <ele>976.089403</ele>
        <time>2026-08-29T10:08:42.000Z</time>
      </trkpt>
      <trkpt lat="44.94131" lon="5.85423">
        <ele>976.207801</ele>
        <time>2026-08-29T10:08:43.000Z</time>
      </trkpt>
      <trkpt lat="44.9413" lon="5.85419">
        <ele>976.324827</ele>
        <time>2026-08-29T10:08:44.000Z</time>
      </trkpt>
      <trkpt lat="44.94128" lon="5.85416">
        <ele>976.432492</ele>
        <time>2026-08-29T10:08:45.000Z</time>
      </trkpt>
      <trkpt lat="44.94126" lon="5.85413">
        <ele>976.544902</ele>
        <time>2026-08-29T10:08:46.000Z</time>
      </trkpt>
      <trkpt lat="44.94125" lon="5.8541">
        <ele>976.659735</ele>
        <time>2026-08-29T10:08:47.000Z</time>
      </trkpt>
      <trkpt lat="44.94123" lon="5.85406">
        <ele>976.776891</ele>
        <time>2026-08-29T10:08:48.000Z</time>
      </trkpt>
      <trkpt lat="44.94121" lon="5.85403">
        <ele>976.893876</ele>
        <time>2026-08-29T10:08:49.000Z</time>
      </trkpt>
      <trkpt lat="44.94119" lon="5.854">
        <ele>977.014102</ele>
        <time>2026-08-29T10:08:50.000Z</time>
      </trkpt>
      <trkpt lat="44.94118" lon="5.85397">
        <ele>977.131087</ele>
        <time>2026-08-29T10:08:51.000Z</time>
      </trkpt>
      <trkpt lat="44.94116" lon="5.85393">
        <ele>977.238914</ele>
        <time>2026-08-29T10:08:52.000Z</time>
      </trkpt>
      <trkpt lat="44.94115" lon="5.8539">
        <ele>977.348924</ele>
        <time>2026-08-29T10:08:53.000Z</time>
      </trkpt>
      <trkpt lat="44.94113" lon="5.85387">
        <ele>977.463604</ele>
        <time>2026-08-29T10:08:54.000Z</time>
      </trkpt>
      <trkpt lat="44.94112" lon="5.85384">
        <ele>977.578254</ele>
        <time>2026-08-29T10:08:55.000Z</time>
      </trkpt>
      <trkpt lat="44.9411" lon="5.85381">
        <ele>977.685886</ele>
        <time>2026-08-29T10:08:56.000Z</time>
      </trkpt>
      <trkpt lat="44.94109" lon="5.85377">
        <ele>977.798297</ele>
        <time>2026-08-29T10:08:57.000Z</time>
      </trkpt>
      <trkpt lat="44.94107" lon="5.85374">
        <ele>977.900262</ele>
        <time>2026-08-29T10:08:58.000Z</time>
      </trkpt>
      <trkpt lat="44.94106" lon="5.85371">
        <ele>978.009158</ele>
        <time>2026-08-29T10:08:59.000Z</time>
      </trkpt>
      <trkpt lat="44.94105" lon="5.85367">
        <ele>978.117342</ele>
        <time>2026-08-29T10:09:00.000Z</time>
      </trkpt>
      <trkpt lat="44.94104" lon="5.85364">
        <ele>978.226239</ele>
        <time>2026-08-29T10:09:01.000Z</time>
      </trkpt>
      <trkpt lat="44.94103" lon="5.8536">
        <ele>978.297709</ele>
        <time>2026-08-29T10:09:02.000Z</time>
      </trkpt>
      <trkpt lat="44.94102" lon="5.85357">
        <ele>978.357125</ele>
        <time>2026-08-29T10:09:03.000Z</time>
      </trkpt>
      <trkpt lat="44.941" lon="5.85353">
        <ele>978.42537</ele>
        <time>2026-08-29T10:09:04.000Z</time>
      </trkpt>
      <trkpt lat="44.94099" lon="5.85349">
        <ele>978.485658</ele>
        <time>2026-08-29T10:09:05.000Z</time>
      </trkpt>
      <trkpt lat="44.94098" lon="5.85346">
        <ele>978.545947</ele>
        <time>2026-08-29T10:09:06.000Z</time>
      </trkpt>
      <trkpt lat="44.94097" lon="5.85342">
        <ele>978.611815</ele>
        <time>2026-08-29T10:09:07.000Z</time>
      </trkpt>
      <trkpt lat="44.94095" lon="5.85338">
        <ele>978.685995</ele>
        <time>2026-08-29T10:09:08.000Z</time>
      </trkpt>
      <trkpt lat="44.94093" lon="5.85334">
        <ele>978.765232</ele>
        <time>2026-08-29T10:09:09.000Z</time>
      </trkpt>
      <trkpt lat="44.9409" lon="5.8533">
        <ele>978.843282</ele>
        <time>2026-08-29T10:09:10.000Z</time>
      </trkpt>
      <trkpt lat="44.94088" lon="5.85326">
        <ele>978.927921</ele>
        <time>2026-08-29T10:09:11.000Z</time>
      </trkpt>
      <trkpt lat="44.94085" lon="5.85323">
        <ele>979.007127</ele>
        <time>2026-08-29T10:09:12.000Z</time>
      </trkpt>
      <trkpt lat="44.94083" lon="5.85319">
        <ele>979.081194</ele>
        <time>2026-08-29T10:09:13.000Z</time>
      </trkpt>
      <trkpt lat="44.94081" lon="5.85315">
        <ele>979.158069</ele>
        <time>2026-08-29T10:09:14.000Z</time>
      </trkpt>
      <trkpt lat="44.94079" lon="5.85311">
        <ele>979.229602</ele>
        <time>2026-08-29T10:09:15.000Z</time>
      </trkpt>
      <trkpt lat="44.94077" lon="5.85307">
        <ele>979.302411</ele>
        <time>2026-08-29T10:09:16.000Z</time>
      </trkpt>
      <trkpt lat="44.94075" lon="5.85303">
        <ele>979.377754</ele>
        <time>2026-08-29T10:09:17.000Z</time>
      </trkpt>
      <trkpt lat="44.94072" lon="5.853">
        <ele>979.455765</ele>
        <time>2026-08-29T10:09:18.000Z</time>
      </trkpt>
      <trkpt lat="44.9407" lon="5.85296">
        <ele>979.530062</ele>
        <time>2026-08-29T10:09:19.000Z</time>
      </trkpt>
      <trkpt lat="44.94068" lon="5.85293">
        <ele>979.591224</ele>
        <time>2026-08-29T10:09:20.000Z</time>
      </trkpt>
      <trkpt lat="44.94065" lon="5.85291">
        <ele>979.668761</ele>
        <time>2026-08-29T10:09:21.000Z</time>
      </trkpt>
      <trkpt lat="44.94062" lon="5.85289">
        <ele>979.737566</ele>
        <time>2026-08-29T10:09:22.000Z</time>
      </trkpt>
      <trkpt lat="44.94059" lon="5.85288">
        <ele>979.802062</ele>
        <time>2026-08-29T10:09:23.000Z</time>
      </trkpt>
      <trkpt lat="44.94057" lon="5.85286">
        <ele>979.859175</ele>
        <time>2026-08-29T10:09:24.000Z</time>
      </trkpt>
      <trkpt lat="44.94054" lon="5.85285">
        <ele>979.928302</ele>
        <time>2026-08-29T10:09:25.000Z</time>
      </trkpt>
      <trkpt lat="44.9405" lon="5.85283">
        <ele>980.020102</ele>
        <time>2026-08-29T10:09:26.000Z</time>
      </trkpt>
      <trkpt lat="44.94046" lon="5.85281">
        <ele>980.108188</ele>
        <time>2026-08-29T10:09:27.000Z</time>
      </trkpt>
      <trkpt lat="44.94043" lon="5.85278">
        <ele>980.193389</ele>
        <time>2026-08-29T10:09:28.000Z</time>
      </trkpt>
      <trkpt lat="44.94039" lon="5.85276">
        <ele>980.280525</ele>
        <time>2026-08-29T10:09:29.000Z</time>
      </trkpt>
      <trkpt lat="44.94036" lon="5.85273">
        <ele>980.364504</ele>
        <time>2026-08-29T10:09:30.000Z</time>
      </trkpt>
      <trkpt lat="44.94032" lon="5.8527">
        <ele>980.453771</ele>
        <time>2026-08-29T10:09:31.000Z</time>
      </trkpt>
      <trkpt lat="44.94028" lon="5.85267">
        <ele>980.547835</ele>
        <time>2026-08-29T10:09:32.000Z</time>
      </trkpt>
      <trkpt lat="44.94025" lon="5.85263">
        <ele>980.643719</ele>
        <time>2026-08-29T10:09:33.000Z</time>
      </trkpt>
      <trkpt lat="44.94022" lon="5.85258">
        <ele>980.740546</ele>
        <time>2026-08-29T10:09:34.000Z</time>
      </trkpt>
      <trkpt lat="44.9402" lon="5.85252">
        <ele>980.838491</ele>
        <time>2026-08-29T10:09:35.000Z</time>
      </trkpt>
      <trkpt lat="44.94019" lon="5.85246">
        <ele>980.941776</ele>
        <time>2026-08-29T10:09:36.000Z</time>
      </trkpt>
      <trkpt lat="44.94019" lon="5.85239">
        <ele>981.05404</ele>
        <time>2026-08-29T10:09:37.000Z</time>
      </trkpt>
      <trkpt lat="44.94019" lon="5.85232">
        <ele>981.155729</ele>
        <time>2026-08-29T10:09:38.000Z</time>
      </trkpt>
      <trkpt lat="44.94018" lon="5.85225">
        <ele>981.258952</ele>
        <time>2026-08-29T10:09:39.000Z</time>
      </trkpt>
      <trkpt lat="44.94018" lon="5.85218">
        <ele>981.365244</ele>
        <time>2026-08-29T10:09:40.000Z</time>
      </trkpt>
      <trkpt lat="44.94018" lon="5.85212">
        <ele>981.469889</ele>
        <time>2026-08-29T10:09:41.000Z</time>
      </trkpt>
      <trkpt lat="44.94018" lon="5.85205">
        <ele>981.576337</ele>
        <time>2026-08-29T10:09:42.000Z</time>
      </trkpt>
      <trkpt lat="44.94017" lon="5.85198">
        <ele>981.684317</ele>
        <time>2026-08-29T10:09:43.000Z</time>
      </trkpt>
      <trkpt lat="44.94015" lon="5.85191">
        <ele>981.798106</ele>
        <time>2026-08-29T10:09:44.000Z</time>
      </trkpt>
      <trkpt lat="44.94013" lon="5.85185">
        <ele>981.897654</ele>
        <time>2026-08-29T10:09:45.000Z</time>
      </trkpt>
      <trkpt lat="44.9401" lon="5.85181">
        <ele>982.000057</ele>
        <time>2026-08-29T10:09:46.000Z</time>
      </trkpt>
      <trkpt lat="44.94005" lon="5.85178">
        <ele>982.115457</ele>
        <time>2026-08-29T10:09:47.000Z</time>
      </trkpt>
      <trkpt lat="44.94" lon="5.85177">
        <ele>982.319777</ele>
        <time>2026-08-29T10:09:48.000Z</time>
      </trkpt>
      <trkpt lat="44.93995" lon="5.85177">
        <ele>982.613575</ele>
        <time>2026-08-29T10:09:49.000Z</time>
      </trkpt>
      <trkpt lat="44.9399" lon="5.85178">
        <ele>982.903871</ele>
        <time>2026-08-29T10:09:50.000Z</time>
      </trkpt>
      <trkpt lat="44.93986" lon="5.85179">
        <ele>983.17626</ele>
        <time>2026-08-29T10:09:51.000Z</time>
      </trkpt>
      <trkpt lat="44.93981" lon="5.85181">
        <ele>983.442848</ele>
        <time>2026-08-29T10:09:52.000Z</time>
      </trkpt>
      <trkpt lat="44.93977" lon="5.85182">
        <ele>983.708387</ele>
        <time>2026-08-29T10:09:53.000Z</time>
      </trkpt>
      <trkpt lat="44.93973" lon="5.85183">
        <ele>983.96051</ele>
        <time>2026-08-29T10:09:54.000Z</time>
      </trkpt>
      <trkpt lat="44.93969" lon="5.85183">
        <ele>984.206352</ele>
        <time>2026-08-29T10:09:55.000Z</time>
      </trkpt>
      <trkpt lat="44.93965" lon="5.85182">
        <ele>984.446312</ele>
        <time>2026-08-29T10:09:56.000Z</time>
      </trkpt>
      <trkpt lat="44.93961" lon="5.85182">
        <ele>984.681509</ele>
        <time>2026-08-29T10:09:57.000Z</time>
      </trkpt>
      <trkpt lat="44.93958" lon="5.8518">
        <ele>984.882346</ele>
        <time>2026-08-29T10:09:58.000Z</time>
      </trkpt>
      <trkpt lat="44.93955" lon="5.85179">
        <ele>985.054777</ele>
        <time>2026-08-29T10:09:59.000Z</time>
      </trkpt>
      <trkpt lat="44.93953" lon="5.85177">
        <ele>985.217683</ele>
        <time>2026-08-29T10:10:00.000Z</time>
      </trkpt>
      <trkpt lat="44.9395" lon="5.85175">
        <ele>985.389927</ele>
        <time>2026-08-29T10:10:01.000Z</time>
      </trkpt>
      <trkpt lat="44.93948" lon="5.85173">
        <ele>985.567414</ele>
        <time>2026-08-29T10:10:02.000Z</time>
      </trkpt>
      <trkpt lat="44.93945" lon="5.85171">
        <ele>985.746968</ele>
        <time>2026-08-29T10:10:03.000Z</time>
      </trkpt>
      <trkpt lat="44.93942" lon="5.85169">
        <ele>985.933169</ele>
        <time>2026-08-29T10:10:04.000Z</time>
      </trkpt>
      <trkpt lat="44.9394" lon="5.85167">
        <ele>986.104691</ele>
        <time>2026-08-29T10:10:05.000Z</time>
      </trkpt>
      <trkpt lat="44.93938" lon="5.85164">
        <ele>986.283463</ele>
        <time>2026-08-29T10:10:06.000Z</time>
      </trkpt>
      <trkpt lat="44.93936" lon="5.85162">
        <ele>986.425633</ele>
        <time>2026-08-29T10:10:07.000Z</time>
      </trkpt>
      <trkpt lat="44.93933" lon="5.8516">
        <ele>986.590571</ele>
        <time>2026-08-29T10:10:08.000Z</time>
      </trkpt>
      <trkpt lat="44.93931" lon="5.85159">
        <ele>986.764159</ele>
        <time>2026-08-29T10:10:09.000Z</time>
      </trkpt>
      <trkpt lat="44.93928" lon="5.85157">
        <ele>986.930499</ele>
        <time>2026-08-29T10:10:10.000Z</time>
      </trkpt>
      <trkpt lat="44.93926" lon="5.85155">
        <ele>987.098724</ele>
        <time>2026-08-29T10:10:11.000Z</time>
      </trkpt>
      <trkpt lat="44.93923" lon="5.85153">
        <ele>987.275945</ele>
        <time>2026-08-29T10:10:12.000Z</time>
      </trkpt>
      <trkpt lat="44.93921" lon="5.85152">
        <ele>987.422939</ele>
        <time>2026-08-29T10:10:13.000Z</time>
      </trkpt>
      <trkpt lat="44.93918" lon="5.85151">
        <ele>987.589755</ele>
        <time>2026-08-29T10:10:14.000Z</time>
      </trkpt>
      <trkpt lat="44.93915" lon="5.85149">
        <ele>987.766455</ele>
        <time>2026-08-29T10:10:15.000Z</time>
      </trkpt>
      <trkpt lat="44.93912" lon="5.85148">
        <ele>987.953383</ele>
        <time>2026-08-29T10:10:16.000Z</time>
      </trkpt>
      <trkpt lat="44.93909" lon="5.85147">
        <ele>988.131392</ele>
        <time>2026-08-29T10:10:17.000Z</time>
      </trkpt>
      <trkpt lat="44.93907" lon="5.85146">
        <ele>988.298734</ele>
        <time>2026-08-29T10:10:18.000Z</time>
      </trkpt>
      <trkpt lat="44.93904" lon="5.85145">
        <ele>988.461451</ele>
        <time>2026-08-29T10:10:19.000Z</time>
      </trkpt>
      <trkpt lat="44.93901" lon="5.85144">
        <ele>988.631144</ele>
        <time>2026-08-29T10:10:20.000Z</time>
      </trkpt>
      <trkpt lat="44.93899" lon="5.85143">
        <ele>988.799613</ele>
        <time>2026-08-29T10:10:21.000Z</time>
      </trkpt>
      <trkpt lat="44.93896" lon="5.85142">
        <ele>988.983481</ele>
        <time>2026-08-29T10:10:22.000Z</time>
      </trkpt>
      <trkpt lat="44.93892" lon="5.85142">
        <ele>989.176079</ele>
        <time>2026-08-29T10:10:23.000Z</time>
      </trkpt>
      <trkpt lat="44.93889" lon="5.85141">
        <ele>989.350407</ele>
        <time>2026-08-29T10:10:24.000Z</time>
      </trkpt>
      <trkpt lat="44.93887" lon="5.85141">
        <ele>989.524321</ele>
        <time>2026-08-29T10:10:25.000Z</time>
      </trkpt>
      <trkpt lat="44.93884" lon="5.85141">
        <ele>989.674262</ele>
        <time>2026-08-29T10:10:26.000Z</time>
      </trkpt>
      <trkpt lat="44.93882" lon="5.85142">
        <ele>989.824684</ele>
        <time>2026-08-29T10:10:27.000Z</time>
      </trkpt>
      <trkpt lat="44.93879" lon="5.85142">
        <ele>989.974625</ele>
        <time>2026-08-29T10:10:28.000Z</time>
      </trkpt>
      <trkpt lat="44.93876" lon="5.85142">
        <ele>990.137384</ele>
        <time>2026-08-29T10:10:29.000Z</time>
      </trkpt>
      <trkpt lat="44.93874" lon="5.85142">
        <ele>990.293492</ele>
        <time>2026-08-29T10:10:30.000Z</time>
      </trkpt>
      <trkpt lat="44.93871" lon="5.85143">
        <ele>990.462695</ele>
        <time>2026-08-29T10:10:31.000Z</time>
      </trkpt>
      <trkpt lat="44.93868" lon="5.85143">
        <ele>990.625067</ele>
        <time>2026-08-29T10:10:32.000Z</time>
      </trkpt>
      <trkpt lat="44.93865" lon="5.85143">
        <ele>990.792934</ele>
        <time>2026-08-29T10:10:33.000Z</time>
      </trkpt>
      <trkpt lat="44.93863" lon="5.85143">
        <ele>990.955028</ele>
        <time>2026-08-29T10:10:34.000Z</time>
      </trkpt>
      <trkpt lat="44.9386" lon="5.85144">
        <ele>991.111826</ele>
        <time>2026-08-29T10:10:35.000Z</time>
      </trkpt>
      <trkpt lat="44.93858" lon="5.85144">
        <ele>991.255963</ele>
        <time>2026-08-29T10:10:36.000Z</time>
      </trkpt>
      <trkpt lat="44.93855" lon="5.85144">
        <ele>991.411897</ele>
        <time>2026-08-29T10:10:37.000Z</time>
      </trkpt>
      <trkpt lat="44.93853" lon="5.85143">
        <ele>991.570579</ele>
        <time>2026-08-29T10:10:38.000Z</time>
      </trkpt>
      <trkpt lat="44.9385" lon="5.85143">
        <ele>991.721</ele>
        <time>2026-08-29T10:10:39.000Z</time>
      </trkpt>
      <trkpt lat="44.93847" lon="5.85142">
        <ele>991.879682</ele>
        <time>2026-08-29T10:10:40.000Z</time>
      </trkpt>
      <trkpt lat="44.93845" lon="5.85142">
        <ele>992.044257</ele>
        <time>2026-08-29T10:10:41.000Z</time>
      </trkpt>
      <trkpt lat="44.93842" lon="5.85141">
        <ele>992.195527</ele>
        <time>2026-08-29T10:10:42.000Z</time>
      </trkpt>
      <trkpt lat="44.9384" lon="5.8514">
        <ele>992.360102</ele>
        <time>2026-08-29T10:10:43.000Z</time>
      </trkpt>
      <trkpt lat="44.93837" lon="5.8514">
        <ele>992.516498</ele>
        <time>2026-08-29T10:10:44.000Z</time>
      </trkpt>
      <trkpt lat="44.93835" lon="5.85139">
        <ele>992.661382</ele>
        <time>2026-08-29T10:10:45.000Z</time>
      </trkpt>
      <trkpt lat="44.93832" lon="5.85139">
        <ele>992.817489</ele>
        <time>2026-08-29T10:10:46.000Z</time>
      </trkpt>
      <trkpt lat="44.9383" lon="5.85139">
        <ele>992.972323</ele>
        <time>2026-08-29T10:10:47.000Z</time>
      </trkpt>
      <trkpt lat="44.93827" lon="5.85139">
        <ele>993.163254</ele>
        <time>2026-08-29T10:10:48.000Z</time>
      </trkpt>
      <trkpt lat="44.93825" lon="5.85138">
        <ele>993.354185</ele>
        <time>2026-08-29T10:10:49.000Z</time>
      </trkpt>
      <trkpt lat="44.93822" lon="5.85138">
        <ele>993.545116</ele>
        <time>2026-08-29T10:10:50.000Z</time>
      </trkpt>
      <trkpt lat="44.9382" lon="5.85137">
        <ele>993.728509</ele>
        <time>2026-08-29T10:10:51.000Z</time>
      </trkpt>
      <trkpt lat="44.93817" lon="5.85137">
        <ele>993.910638</ele>
        <time>2026-08-29T10:10:52.000Z</time>
      </trkpt>
      <trkpt lat="44.93815" lon="5.85137">
        <ele>994.109765</ele>
        <time>2026-08-29T10:10:53.000Z</time>
      </trkpt>
      <trkpt lat="44.93812" lon="5.85137">
        <ele>994.292211</ele>
        <time>2026-08-29T10:10:54.000Z</time>
      </trkpt>
      <trkpt lat="44.9381" lon="5.85136">
        <ele>994.47631</ele>
        <time>2026-08-29T10:10:55.000Z</time>
      </trkpt>
      <trkpt lat="44.93808" lon="5.85136">
        <ele>994.653802</ele>
        <time>2026-08-29T10:10:56.000Z</time>
      </trkpt>
      <trkpt lat="44.93805" lon="5.85135">
        <ele>994.85933</ele>
        <time>2026-08-29T10:10:57.000Z</time>
      </trkpt>
      <trkpt lat="44.93802" lon="5.85135">
        <ele>995.060188</ele>
        <time>2026-08-29T10:10:58.000Z</time>
      </trkpt>
      <trkpt lat="44.938" lon="5.85134">
        <ele>995.250589</ele>
        <time>2026-08-29T10:10:59.000Z</time>
      </trkpt>
      <trkpt lat="44.93798" lon="5.85134">
        <ele>995.4122</ele>
        <time>2026-08-29T10:11:00.000Z</time>
      </trkpt>
      <trkpt lat="44.93795" lon="5.85133">
        <ele>995.581299</ele>
        <time>2026-08-29T10:11:01.000Z</time>
      </trkpt>
      <trkpt lat="44.93793" lon="5.85133">
        <ele>995.763745</ele>
        <time>2026-08-29T10:11:02.000Z</time>
      </trkpt>
      <trkpt lat="44.93791" lon="5.85133">
        <ele>995.94034</ele>
        <time>2026-08-29T10:11:03.000Z</time>
      </trkpt>
      <trkpt lat="44.93789" lon="5.85132">
        <ele>996.108669</ele>
        <time>2026-08-29T10:11:04.000Z</time>
      </trkpt>
      <trkpt lat="44.93786" lon="5.85132">
        <ele>996.268845</ele>
        <time>2026-08-29T10:11:05.000Z</time>
      </trkpt>
      <trkpt lat="44.93784" lon="5.85132">
        <ele>996.459776</ele>
        <time>2026-08-29T10:11:06.000Z</time>
      </trkpt>
      <trkpt lat="44.93782" lon="5.85132">
        <ele>996.634399</ele>
        <time>2026-08-29T10:11:07.000Z</time>
      </trkpt>
      <trkpt lat="44.93779" lon="5.85132">
        <ele>996.824801</ele>
        <time>2026-08-29T10:11:08.000Z</time>
      </trkpt>
      <trkpt lat="44.93777" lon="5.85132">
        <ele>997.015202</ele>
        <time>2026-08-29T10:11:09.000Z</time>
      </trkpt>
      <trkpt lat="44.93774" lon="5.85131">
        <ele>997.183531</ele>
        <time>2026-08-29T10:11:10.000Z</time>
      </trkpt>
      <trkpt lat="44.93772" lon="5.85131">
        <ele>997.358072</ele>
        <time>2026-08-29T10:11:11.000Z</time>
      </trkpt>
      <trkpt lat="44.9377" lon="5.85132">
        <ele>997.525369</ele>
        <time>2026-08-29T10:11:12.000Z</time>
      </trkpt>
      <trkpt lat="44.93768" lon="5.85132">
        <ele>997.692407</ele>
        <time>2026-08-29T10:11:13.000Z</time>
      </trkpt>
      <trkpt lat="44.93765" lon="5.85132">
        <ele>997.866948</ele>
        <time>2026-08-29T10:11:14.000Z</time>
      </trkpt>
      <trkpt lat="44.93763" lon="5.85132">
        <ele>998.026402</ele>
        <time>2026-08-29T10:11:15.000Z</time>
      </trkpt>
      <trkpt lat="44.93761" lon="5.85132">
        <ele>998.185765</ele>
        <time>2026-08-29T10:11:16.000Z</time>
      </trkpt>
      <trkpt lat="44.93759" lon="5.85132">
        <ele>998.360388</ele>
        <time>2026-08-29T10:11:17.000Z</time>
      </trkpt>
      <trkpt lat="44.93757" lon="5.85132">
        <ele>998.527427</ele>
        <time>2026-08-29T10:11:18.000Z</time>
      </trkpt>
      <trkpt lat="44.93755" lon="5.85131">
        <ele>998.670624</ele>
        <time>2026-08-29T10:11:19.000Z</time>
      </trkpt>
      <trkpt lat="44.93753" lon="5.8513">
        <ele>998.816402</ele>
        <time>2026-08-29T10:11:20.000Z</time>
      </trkpt>
      <trkpt lat="44.93751" lon="5.8513">
        <ele>998.966856</ele>
        <time>2026-08-29T10:11:21.000Z</time>
      </trkpt>
      <trkpt lat="44.93749" lon="5.85129">
        <ele>999.124598</ele>
        <time>2026-08-29T10:11:22.000Z</time>
      </trkpt>
      <trkpt lat="44.93747" lon="5.85128">
        <ele>999.280961</ele>
        <time>2026-08-29T10:11:23.000Z</time>
      </trkpt>
      <trkpt lat="44.93745" lon="5.85128">
        <ele>999.441766</ele>
        <time>2026-08-29T10:11:24.000Z</time>
      </trkpt>
      <trkpt lat="44.93743" lon="5.85127">
        <ele>999.606822</ele>
        <time>2026-08-29T10:11:25.000Z</time>
      </trkpt>
      <trkpt lat="44.93741" lon="5.85126">
        <ele>999.766111</ele>
        <time>2026-08-29T10:11:26.000Z</time>
      </trkpt>
      <trkpt lat="44.93739" lon="5.85125">
        <ele>999.927112</ele>
        <time>2026-08-29T10:11:27.000Z</time>
      </trkpt>
      <trkpt lat="44.93738" lon="5.85123">
        <ele>1000.048708</ele>
        <time>2026-08-29T10:11:28.000Z</time>
      </trkpt>
      <trkpt lat="44.93736" lon="5.85122">
        <ele>1000.206648</ele>
        <time>2026-08-29T10:11:29.000Z</time>
      </trkpt>
      <trkpt lat="44.93734" lon="5.85121">
        <ele>1000.374822</ele>
        <time>2026-08-29T10:11:30.000Z</time>
      </trkpt>
      <trkpt lat="44.93732" lon="5.8512">
        <ele>1000.539719</ele>
        <time>2026-08-29T10:11:31.000Z</time>
      </trkpt>
      <trkpt lat="44.9373" lon="5.85119">
        <ele>1000.713711</ele>
        <time>2026-08-29T10:11:32.000Z</time>
      </trkpt>
      <trkpt lat="44.93728" lon="5.85118">
        <ele>1000.864755</ele>
        <time>2026-08-29T10:11:33.000Z</time>
      </trkpt>
      <trkpt lat="44.93726" lon="5.85116">
        <ele>1001.020687</ele>
        <time>2026-08-29T10:11:34.000Z</time>
      </trkpt>
      <trkpt lat="44.93724" lon="5.85115">
        <ele>1001.199264</ele>
        <time>2026-08-29T10:11:35.000Z</time>
      </trkpt>
      <trkpt lat="44.93722" lon="5.85113">
        <ele>1001.373686</ele>
        <time>2026-08-29T10:11:36.000Z</time>
      </trkpt>
      <trkpt lat="44.9372" lon="5.85111">
        <ele>1001.550341</ele>
        <time>2026-08-29T10:11:37.000Z</time>
      </trkpt>
      <trkpt lat="44.93718" lon="5.8511">
        <ele>1001.724763</ele>
        <time>2026-08-29T10:11:38.000Z</time>
      </trkpt>
      <trkpt lat="44.93716" lon="5.85108">
        <ele>1001.910143</ele>
        <time>2026-08-29T10:11:39.000Z</time>
      </trkpt>
      <trkpt lat="44.93714" lon="5.85107">
        <ele>1002.08872</ele>
        <time>2026-08-29T10:11:40.000Z</time>
      </trkpt>
      <trkpt lat="44.93711" lon="5.85105">
        <ele>1002.276713</ele>
        <time>2026-08-29T10:11:41.000Z</time>
      </trkpt>
      <trkpt lat="44.9371" lon="5.85103">
        <ele>1002.437936</ele>
        <time>2026-08-29T10:11:42.000Z</time>
      </trkpt>
      <trkpt lat="44.93708" lon="5.85102">
        <ele>1002.605006</ele>
        <time>2026-08-29T10:11:43.000Z</time>
      </trkpt>
      <trkpt lat="44.93706" lon="5.851">
        <ele>1002.769319</ele>
        <time>2026-08-29T10:11:44.000Z</time>
      </trkpt>
      <trkpt lat="44.93704" lon="5.85099">
        <ele>1002.953591</ele>
        <time>2026-08-29T10:11:45.000Z</time>
      </trkpt>
      <trkpt lat="44.93702" lon="5.85097">
        <ele>1003.136493</ele>
        <time>2026-08-29T10:11:46.000Z</time>
      </trkpt>
      <trkpt lat="44.93699" lon="5.85096">
        <ele>1003.311875</ele>
        <time>2026-08-29T10:11:47.000Z</time>
      </trkpt>
      <trkpt lat="44.93697" lon="5.85095">
        <ele>1003.501761</ele>
        <time>2026-08-29T10:11:48.000Z</time>
      </trkpt>
      <trkpt lat="44.93695" lon="5.85095">
        <ele>1003.697543</ele>
        <time>2026-08-29T10:11:49.000Z</time>
      </trkpt>
      <trkpt lat="44.93692" lon="5.85094">
        <ele>1003.898401</ele>
        <time>2026-08-29T10:11:50.000Z</time>
      </trkpt>
      <trkpt lat="44.93689" lon="5.85093">
        <ele>1004.108923</ele>
        <time>2026-08-29T10:11:51.000Z</time>
      </trkpt>
      <trkpt lat="44.93687" lon="5.85092">
        <ele>1004.286024</ele>
        <time>2026-08-29T10:11:52.000Z</time>
      </trkpt>
      <trkpt lat="44.93685" lon="5.8509">
        <ele>1004.444084</ele>
        <time>2026-08-29T10:11:53.000Z</time>
      </trkpt>
      <trkpt lat="44.93683" lon="5.85088">
        <ele>1004.630489</ele>
        <time>2026-08-29T10:11:54.000Z</time>
      </trkpt>
      <trkpt lat="44.93681" lon="5.85087">
        <ele>1004.809065</ele>
        <time>2026-08-29T10:11:55.000Z</time>
      </trkpt>
      <trkpt lat="44.93679" lon="5.85085">
        <ele>1004.970454</ele>
        <time>2026-08-29T10:11:56.000Z</time>
      </trkpt>
      <trkpt lat="44.93678" lon="5.85084">
        <ele>1005.12256</ele>
        <time>2026-08-29T10:11:57.000Z</time>
      </trkpt>
      <trkpt lat="44.93676" lon="5.85082">
        <ele>1005.287734</ele>
        <time>2026-08-29T10:11:58.000Z</time>
      </trkpt>
      <trkpt lat="44.93674" lon="5.85081">
        <ele>1005.445795</ele>
        <time>2026-08-29T10:11:59.000Z</time>
      </trkpt>
      <trkpt lat="44.93672" lon="5.85079">
        <ele>1005.597901</ele>
        <time>2026-08-29T10:12:00.000Z</time>
      </trkpt>
      <trkpt lat="44.9367" lon="5.85077">
        <ele>1005.765761</ele>
        <time>2026-08-29T10:12:01.000Z</time>
      </trkpt>
      <trkpt lat="44.93668" lon="5.85076">
        <ele>1005.951142</ele>
        <time>2026-08-29T10:12:02.000Z</time>
      </trkpt>
      <trkpt lat="44.93666" lon="5.85074">
        <ele>1006.134817</ele>
        <time>2026-08-29T10:12:03.000Z</time>
      </trkpt>
      <trkpt lat="44.93664" lon="5.85073">
        <ele>1006.297439</ele>
        <time>2026-08-29T10:12:04.000Z</time>
      </trkpt>
      <trkpt lat="44.93662" lon="5.85071">
        <ele>1006.473657</ele>
        <time>2026-08-29T10:12:05.000Z</time>
      </trkpt>
      <trkpt lat="44.9366" lon="5.8507">
        <ele>1006.647162</ele>
        <time>2026-08-29T10:12:06.000Z</time>
      </trkpt>
      <trkpt lat="44.93658" lon="5.85069">
        <ele>1006.807323</ele>
        <time>2026-08-29T10:12:07.000Z</time>
      </trkpt>
      <trkpt lat="44.93656" lon="5.85068">
        <ele>1006.952499</ele>
        <time>2026-08-29T10:12:08.000Z</time>
      </trkpt>
      <trkpt lat="44.93654" lon="5.85067">
        <ele>1007.116676</ele>
        <time>2026-08-29T10:12:09.000Z</time>
      </trkpt>
      <trkpt lat="44.93652" lon="5.85066">
        <ele>1007.262354</ele>
        <time>2026-08-29T10:12:10.000Z</time>
      </trkpt>
      <trkpt lat="44.9365" lon="5.85065">
        <ele>1007.421794</ele>
        <time>2026-08-29T10:12:11.000Z</time>
      </trkpt>
      <trkpt lat="44.93647" lon="5.85064">
        <ele>1007.605497</ele>
        <time>2026-08-29T10:12:12.000Z</time>
      </trkpt>
      <trkpt lat="44.93645" lon="5.85063">
        <ele>1007.779841</ele>
        <time>2026-08-29T10:12:13.000Z</time>
      </trkpt>
      <trkpt lat="44.93642" lon="5.85063">
        <ele>1007.957231</ele>
        <time>2026-08-29T10:12:14.000Z</time>
      </trkpt>
      <trkpt lat="44.9364" lon="5.85063">
        <ele>1008.12875</ele>
        <time>2026-08-29T10:12:15.000Z</time>
      </trkpt>
      <trkpt lat="44.93638" lon="5.85062">
        <ele>1008.256406</ele>
        <time>2026-08-29T10:12:16.000Z</time>
      </trkpt>
      <trkpt lat="44.93636" lon="5.85062">
        <ele>1008.397898</ele>
        <time>2026-08-29T10:12:17.000Z</time>
      </trkpt>
      <trkpt lat="44.93633" lon="5.85062">
        <ele>1008.581994</ele>
        <time>2026-08-29T10:12:18.000Z</time>
      </trkpt>
      <trkpt lat="44.93631" lon="5.85062">
        <ele>1008.773935</ele>
        <time>2026-08-29T10:12:19.000Z</time>
      </trkpt>
      <trkpt lat="44.93628" lon="5.85061">
        <ele>1008.951819</ele>
        <time>2026-08-29T10:12:20.000Z</time>
      </trkpt>
      <trkpt lat="44.93626" lon="5.8506">
        <ele>1009.141082</ele>
        <time>2026-08-29T10:12:21.000Z</time>
      </trkpt>
      <trkpt lat="44.93623" lon="5.8506">
        <ele>1009.330344</ele>
        <time>2026-08-29T10:12:22.000Z</time>
      </trkpt>
      <trkpt lat="44.93621" lon="5.85059">
        <ele>1009.499081</ele>
        <time>2026-08-29T10:12:23.000Z</time>
      </trkpt>
      <trkpt lat="44.93618" lon="5.85058">
        <ele>1009.672344</ele>
        <time>2026-08-29T10:12:24.000Z</time>
      </trkpt>
      <trkpt lat="44.93616" lon="5.85057">
        <ele>1009.85086</ele>
        <time>2026-08-29T10:12:25.000Z</time>
      </trkpt>
      <trkpt lat="44.93613" lon="5.85057">
        <ele>1010.040123</ele>
        <time>2026-08-29T10:12:26.000Z</time>
      </trkpt>
      <trkpt lat="44.93611" lon="5.85056">
        <ele>1010.232064</ele>
        <time>2026-08-29T10:12:27.000Z</time>
      </trkpt>
      <trkpt lat="44.93608" lon="5.85055">
        <ele>1010.414467</ele>
        <time>2026-08-29T10:12:28.000Z</time>
      </trkpt>
      <trkpt lat="44.93605" lon="5.85055">
        <ele>1010.600727</ele>
        <time>2026-08-29T10:12:29.000Z</time>
      </trkpt>
      <trkpt lat="44.93603" lon="5.85054">
        <ele>1010.776288</ele>
        <time>2026-08-29T10:12:30.000Z</time>
      </trkpt>
      <trkpt lat="44.93601" lon="5.85053">
        <ele>1010.956481</ele>
        <time>2026-08-29T10:12:31.000Z</time>
      </trkpt>
      <trkpt lat="44.93599" lon="5.85052">
        <ele>1011.08018</ele>
        <time>2026-08-29T10:12:32.000Z</time>
      </trkpt>
      <trkpt lat="44.93598" lon="5.85051">
        <ele>1011.195958</ele>
        <time>2026-08-29T10:12:33.000Z</time>
      </trkpt>
      <trkpt lat="44.93596" lon="5.8505">
        <ele>1011.336132</ele>
        <time>2026-08-29T10:12:34.000Z</time>
      </trkpt>
      <trkpt lat="44.93593" lon="5.85049">
        <ele>1011.511692</ele>
        <time>2026-08-29T10:12:35.000Z</time>
      </trkpt>
      <trkpt lat="44.93591" lon="5.85049">
        <ele>1011.690979</ele>
        <time>2026-08-29T10:12:36.000Z</time>
      </trkpt>
      <trkpt lat="44.93588" lon="5.85048">
        <ele>1011.879113</ele>
        <time>2026-08-29T10:12:37.000Z</time>
      </trkpt>
      <trkpt lat="44.93586" lon="5.85046">
        <ele>1012.04971</ele>
        <time>2026-08-29T10:12:38.000Z</time>
      </trkpt>
      <trkpt lat="44.93584" lon="5.85045">
        <ele>1012.203598</ele>
        <time>2026-08-29T10:12:39.000Z</time>
      </trkpt>
      <trkpt lat="44.93582" lon="5.85044">
        <ele>1012.375279</ele>
        <time>2026-08-29T10:12:40.000Z</time>
      </trkpt>
      <trkpt lat="44.9358" lon="5.85043">
        <ele>1012.518879</ele>
        <time>2026-08-29T10:12:41.000Z</time>
      </trkpt>
      <trkpt lat="44.93578" lon="5.85042">
        <ele>1012.649378</ele>
        <time>2026-08-29T10:12:42.000Z</time>
      </trkpt>
      <trkpt lat="44.93576" lon="5.85041">
        <ele>1012.821699</ele>
        <time>2026-08-29T10:12:43.000Z</time>
      </trkpt>
      <trkpt lat="44.93573" lon="5.85041">
        <ele>1013.020232</ele>
        <time>2026-08-29T10:12:44.000Z</time>
      </trkpt>
      <trkpt lat="44.9357" lon="5.85041">
        <ele>1013.226788</ele>
        <time>2026-08-29T10:12:45.000Z</time>
      </trkpt>
      <trkpt lat="44.93567" lon="5.8504">
        <ele>1013.412307</ele>
        <time>2026-08-29T10:12:46.000Z</time>
      </trkpt>
      <trkpt lat="44.93565" lon="5.85039">
        <ele>1013.60639</ele>
        <time>2026-08-29T10:12:47.000Z</time>
      </trkpt>
      <trkpt lat="44.93562" lon="5.85039">
        <ele>1013.786582</ele>
        <time>2026-08-29T10:12:48.000Z</time>
      </trkpt>
      <trkpt lat="44.9356" lon="5.85038">
        <ele>1013.970679</ele>
        <time>2026-08-29T10:12:49.000Z</time>
      </trkpt>
      <trkpt lat="44.93557" lon="5.85039">
        <ele>1014.140436</ele>
        <time>2026-08-29T10:12:50.000Z</time>
      </trkpt>
      <trkpt lat="44.93555" lon="5.85038">
        <ele>1014.317473</ele>
        <time>2026-08-29T10:12:51.000Z</time>
      </trkpt>
      <trkpt lat="44.93552" lon="5.85038">
        <ele>1014.501909</ele>
        <time>2026-08-29T10:12:52.000Z</time>
      </trkpt>
      <trkpt lat="44.9355" lon="5.85038">
        <ele>1014.686006</ele>
        <time>2026-08-29T10:12:53.000Z</time>
      </trkpt>
      <trkpt lat="44.93548" lon="5.85039">
        <ele>1014.821822</ele>
        <time>2026-08-29T10:12:54.000Z</time>
      </trkpt>
      <trkpt lat="44.93545" lon="5.85039">
        <ele>1014.994143</ele>
        <time>2026-08-29T10:12:55.000Z</time>
      </trkpt>
      <trkpt lat="44.93543" lon="5.85039">
        <ele>1015.178239</ele>
        <time>2026-08-29T10:12:56.000Z</time>
      </trkpt>
      <trkpt lat="44.9354" lon="5.8504">
        <ele>1015.355629</ele>
        <time>2026-08-29T10:12:57.000Z</time>
      </trkpt>
      <trkpt lat="44.93538" lon="5.8504">
        <ele>1015.51832</ele>
        <time>2026-08-29T10:12:58.000Z</time>
      </trkpt>
      <trkpt lat="44.93535" lon="5.8504">
        <ele>1015.703231</ele>
        <time>2026-08-29T10:12:59.000Z</time>
      </trkpt>
      <trkpt lat="44.93533" lon="5.8504">
        <ele>1015.853048</ele>
        <time>2026-08-29T10:13:00.000Z</time>
      </trkpt>
      <trkpt lat="44.93531" lon="5.85041">
        <ele>1016.001605</ele>
        <time>2026-08-29T10:13:01.000Z</time>
      </trkpt>
      <trkpt lat="44.93528" lon="5.8504">
        <ele>1016.194133</ele>
        <time>2026-08-29T10:13:02.000Z</time>
      </trkpt>
      <trkpt lat="44.93526" lon="5.8504">
        <ele>1016.350959</ele>
        <time>2026-08-29T10:13:03.000Z</time>
      </trkpt>
      <trkpt lat="44.93524" lon="5.85041">
        <ele>1016.521306</ele>
        <time>2026-08-29T10:13:04.000Z</time>
      </trkpt>
      <trkpt lat="44.93521" lon="5.85041">
        <ele>1016.692167</ele>
        <time>2026-08-29T10:13:05.000Z</time>
      </trkpt>
      <trkpt lat="44.93519" lon="5.85041">
        <ele>1016.840977</ele>
        <time>2026-08-29T10:13:06.000Z</time>
      </trkpt>
      <trkpt lat="44.93517" lon="5.85042">
        <ele>1016.996842</ele>
        <time>2026-08-29T10:13:07.000Z</time>
      </trkpt>
      <trkpt lat="44.93515" lon="5.85041">
        <ele>1017.138334</ele>
        <time>2026-08-29T10:13:08.000Z</time>
      </trkpt>
      <trkpt lat="44.93513" lon="5.85042">
        <ele>1017.307071</ele>
        <time>2026-08-29T10:13:09.000Z</time>
      </trkpt>
      <trkpt lat="44.9351" lon="5.85043">
        <ele>1017.471599</ele>
        <time>2026-08-29T10:13:10.000Z</time>
      </trkpt>
      <trkpt lat="44.93508" lon="5.85043">
        <ele>1017.63544</ele>
        <time>2026-08-29T10:13:11.000Z</time>
      </trkpt>
      <trkpt lat="44.93507" lon="5.85043">
        <ele>1017.751297</ele>
        <time>2026-08-29T10:13:12.000Z</time>
      </trkpt>
      <trkpt lat="44.93504" lon="5.85043">
        <ele>1017.899771</ele>
        <time>2026-08-29T10:13:13.000Z</time>
      </trkpt>
      <trkpt lat="44.93502" lon="5.85043">
        <ele>1018.063612</ele>
        <time>2026-08-29T10:13:14.000Z</time>
      </trkpt>
      <trkpt lat="44.935" lon="5.85043">
        <ele>1018.233591</ele>
        <time>2026-08-29T10:13:15.000Z</time>
      </trkpt>
      <trkpt lat="44.93498" lon="5.85043">
        <ele>1018.375789</ele>
        <time>2026-08-29T10:13:16.000Z</time>
      </trkpt>
      <trkpt lat="44.93495" lon="5.85043">
        <ele>1018.538402</ele>
        <time>2026-08-29T10:13:17.000Z</time>
      </trkpt>
      <trkpt lat="44.93493" lon="5.85043">
        <ele>1018.722226</ele>
        <time>2026-08-29T10:13:18.000Z</time>
      </trkpt>
      <trkpt lat="44.93491" lon="5.85042">
        <ele>1018.87977</ele>
        <time>2026-08-29T10:13:19.000Z</time>
      </trkpt>
      <trkpt lat="44.93488" lon="5.85043">
        <ele>1019.040384</ele>
        <time>2026-08-29T10:13:20.000Z</time>
      </trkpt>
      <trkpt lat="44.93486" lon="5.85044">
        <ele>1019.205747</ele>
        <time>2026-08-29T10:13:21.000Z</time>
      </trkpt>
      <trkpt lat="44.93484" lon="5.85044">
        <ele>1019.376008</ele>
        <time>2026-08-29T10:13:22.000Z</time>
      </trkpt>
      <trkpt lat="44.93481" lon="5.85044">
        <ele>1019.551493</ele>
        <time>2026-08-29T10:13:23.000Z</time>
      </trkpt>
      <trkpt lat="44.93479" lon="5.85044">
        <ele>1019.686619</ele>
        <time>2026-08-29T10:13:24.000Z</time>
      </trkpt>
      <trkpt lat="44.93477" lon="5.85044">
        <ele>1019.84345</ele>
        <time>2026-08-29T10:13:25.000Z</time>
      </trkpt>
      <trkpt lat="44.93474" lon="5.85044">
        <ele>1020.005197</ele>
        <time>2026-08-29T10:13:26.000Z</time>
      </trkpt>
      <trkpt lat="44.93472" lon="5.85043">
        <ele>1020.161374</ele>
        <time>2026-08-29T10:13:27.000Z</time>
      </trkpt>
      <trkpt lat="44.9347" lon="5.85043">
        <ele>1020.310864</ele>
        <time>2026-08-29T10:13:28.000Z</time>
      </trkpt>
      <trkpt lat="44.93468" lon="5.85043">
        <ele>1020.446411</ele>
        <time>2026-08-29T10:13:29.000Z</time>
      </trkpt>
      <trkpt lat="44.93465" lon="5.85042">
        <ele>1020.639938</ele>
        <time>2026-08-29T10:13:30.000Z</time>
      </trkpt>
      <trkpt lat="44.93463" lon="5.85041">
        <ele>1020.795604</ele>
        <time>2026-08-29T10:13:31.000Z</time>
      </trkpt>
      <trkpt lat="44.93461" lon="5.85041">
        <ele>1020.937854</ele>
        <time>2026-08-29T10:13:32.000Z</time>
      </trkpt>
      <trkpt lat="44.93458" lon="5.85041">
        <ele>1021.106407</ele>
        <time>2026-08-29T10:13:33.000Z</time>
      </trkpt>
      <trkpt lat="44.93456" lon="5.85041">
        <ele>1021.2755</ele>
        <time>2026-08-29T10:13:34.000Z</time>
      </trkpt>
      <trkpt lat="44.93453" lon="5.85041">
        <ele>1021.464445</ele>
        <time>2026-08-29T10:13:35.000Z</time>
      </trkpt>
      <trkpt lat="44.9345" lon="5.85041">
        <ele>1021.655308</ele>
        <time>2026-08-29T10:13:36.000Z</time>
      </trkpt>
      <trkpt lat="44.93447" lon="5.85041">
        <ele>1021.851275</ele>
        <time>2026-08-29T10:13:37.000Z</time>
      </trkpt>
      <trkpt lat="44.93445" lon="5.85041">
        <ele>1022.006941</ele>
        <time>2026-08-29T10:13:38.000Z</time>
      </trkpt>
      <trkpt lat="44.93442" lon="5.85041">
        <ele>1022.182166</ele>
        <time>2026-08-29T10:13:39.000Z</time>
      </trkpt>
      <trkpt lat="44.9344" lon="5.8504">
        <ele>1022.35393</ele>
        <time>2026-08-29T10:13:40.000Z</time>
      </trkpt>
      <trkpt lat="44.93437" lon="5.8504">
        <ele>1022.531478</ele>
        <time>2026-08-29T10:13:41.000Z</time>
      </trkpt>
      <trkpt lat="44.93435" lon="5.85039">
        <ele>1022.719593</ele>
        <time>2026-08-29T10:13:42.000Z</time>
      </trkpt>
      <trkpt lat="44.93432" lon="5.85038">
        <ele>1022.915966</ele>
        <time>2026-08-29T10:13:43.000Z</time>
      </trkpt>
      <trkpt lat="44.93429" lon="5.85038">
        <ele>1023.071632</ele>
        <time>2026-08-29T10:13:44.000Z</time>
      </trkpt>
      <trkpt lat="44.93427" lon="5.85038">
        <ele>1023.226712</ele>
        <time>2026-08-29T10:13:45.000Z</time>
      </trkpt>
      <trkpt lat="44.93425" lon="5.85037">
        <ele>1023.357922</ele>
        <time>2026-08-29T10:13:46.000Z</time>
      </trkpt>
      <trkpt lat="44.93423" lon="5.85037">
        <ele>1023.509904</ele>
        <time>2026-08-29T10:13:47.000Z</time>
      </trkpt>
      <trkpt lat="44.93421" lon="5.85036">
        <ele>1023.673554</ele>
        <time>2026-08-29T10:13:48.000Z</time>
      </trkpt>
      <trkpt lat="44.93418" lon="5.85035">
        <ele>1023.851102</ele>
        <time>2026-08-29T10:13:49.000Z</time>
      </trkpt>
      <trkpt lat="44.93416" lon="5.85034">
        <ele>1023.986159</ele>
        <time>2026-08-29T10:13:50.000Z</time>
      </trkpt>
      <trkpt lat="44.93414" lon="5.85034">
        <ele>1024.155252</ele>
        <time>2026-08-29T10:13:51.000Z</time>
      </trkpt>
      <trkpt lat="44.93412" lon="5.85033">
        <ele>1024.26098</ele>
        <time>2026-08-29T10:13:52.000Z</time>
      </trkpt>
      <trkpt lat="44.93409" lon="5.85032">
        <ele>1024.466734</ele>
        <time>2026-08-29T10:13:53.000Z</time>
      </trkpt>
      <trkpt lat="44.93407" lon="5.85031">
        <ele>1024.651738</ele>
        <time>2026-08-29T10:13:54.000Z</time>
      </trkpt>
      <trkpt lat="44.93404" lon="5.85031">
        <ele>1024.842601</ele>
        <time>2026-08-29T10:13:55.000Z</time>
      </trkpt>
      <trkpt lat="44.93401" lon="5.8503">
        <ele>1025.014181</ele>
        <time>2026-08-29T10:13:56.000Z</time>
      </trkpt>
      <trkpt lat="44.93399" lon="5.85029">
        <ele>1025.171809</ele>
        <time>2026-08-29T10:13:57.000Z</time>
      </trkpt>
      <trkpt lat="44.93396" lon="5.85028">
        <ele>1025.358771</ele>
        <time>2026-08-29T10:13:58.000Z</time>
      </trkpt>
      <trkpt lat="44.93394" lon="5.85028">
        <ele>1025.514071</ele>
        <time>2026-08-29T10:13:59.000Z</time>
      </trkpt>
      <trkpt lat="44.93392" lon="5.85027">
        <ele>1025.670903</ele>
        <time>2026-08-29T10:14:00.000Z</time>
      </trkpt>
      <trkpt lat="44.9339" lon="5.85027">
        <ele>1025.81917</ele>
        <time>2026-08-29T10:14:01.000Z</time>
      </trkpt>
      <trkpt lat="44.93387" lon="5.85027">
        <ele>1025.962694</ele>
        <time>2026-08-29T10:14:02.000Z</time>
      </trkpt>
      <trkpt lat="44.93385" lon="5.85027">
        <ele>1026.125073</ele>
        <time>2026-08-29T10:14:03.000Z</time>
      </trkpt>
      <trkpt lat="44.93383" lon="5.85026">
        <ele>1026.273647</ele>
        <time>2026-08-29T10:14:04.000Z</time>
      </trkpt>
      <trkpt lat="44.93381" lon="5.85026">
        <ele>1026.428947</ele>
        <time>2026-08-29T10:14:05.000Z</time>
      </trkpt>
      <trkpt lat="44.93378" lon="5.85026">
        <ele>1026.585779</ele>
        <time>2026-08-29T10:14:06.000Z</time>
      </trkpt>
      <trkpt lat="44.93376" lon="5.85026">
        <ele>1026.740786</ele>
        <time>2026-08-29T10:14:07.000Z</time>
      </trkpt>
      <trkpt lat="44.93374" lon="5.85026">
        <ele>1026.88913</ele>
        <time>2026-08-29T10:14:08.000Z</time>
      </trkpt>
      <trkpt lat="44.93371" lon="5.85026">
        <ele>1027.071157</ele>
        <time>2026-08-29T10:14:09.000Z</time>
      </trkpt>
      <trkpt lat="44.93368" lon="5.85025">
        <ele>1027.247418</ele>
        <time>2026-08-29T10:14:10.000Z</time>
      </trkpt>
      <trkpt lat="44.93366" lon="5.85026">
        <ele>1027.416981</ele>
        <time>2026-08-29T10:14:11.000Z</time>
      </trkpt>
      <trkpt lat="44.93363" lon="5.85027">
        <ele>1027.594929</ele>
        <time>2026-08-29T10:14:12.000Z</time>
      </trkpt>
      <trkpt lat="44.93361" lon="5.85027">
        <ele>1027.750595</ele>
        <time>2026-08-29T10:14:13.000Z</time>
      </trkpt>
      <trkpt lat="44.93359" lon="5.85027">
        <ele>1027.885468</ele>
        <time>2026-08-29T10:14:14.000Z</time>
      </trkpt>
      <trkpt lat="44.93357" lon="5.85027">
        <ele>1028.047285</ele>
        <time>2026-08-29T10:14:15.000Z</time>
      </trkpt>
      <trkpt lat="44.93354" lon="5.85027">
        <ele>1028.219048</ele>
        <time>2026-08-29T10:14:16.000Z</time>
      </trkpt>
      <trkpt lat="44.93352" lon="5.85027">
        <ele>1028.382544</ele>
        <time>2026-08-29T10:14:17.000Z</time>
      </trkpt>
      <trkpt lat="44.9335" lon="5.85026">
        <ele>1028.526069</ele>
        <time>2026-08-29T10:14:18.000Z</time>
      </trkpt>
      <trkpt lat="44.93348" lon="5.85026">
        <ele>1028.661195</ele>
        <time>2026-08-29T10:14:19.000Z</time>
      </trkpt>
      <trkpt lat="44.93345" lon="5.85026">
        <ele>1028.83642</ele>
        <time>2026-08-29T10:14:20.000Z</time>
      </trkpt>
      <trkpt lat="44.93343" lon="5.85026">
        <ele>1028.984764</ele>
        <time>2026-08-29T10:14:21.000Z</time>
      </trkpt>
      <trkpt lat="44.93341" lon="5.85027">
        <ele>1029.129158</ele>
        <time>2026-08-29T10:14:22.000Z</time>
      </trkpt>
      <trkpt lat="44.93339" lon="5.85027">
        <ele>1029.284824</ele>
        <time>2026-08-29T10:14:23.000Z</time>
      </trkpt>
      <trkpt lat="44.93336" lon="5.85027">
        <ele>1029.433168</ele>
        <time>2026-08-29T10:14:24.000Z</time>
      </trkpt>
      <trkpt lat="44.93335" lon="5.85027">
        <ele>1029.541945</ele>
        <time>2026-08-29T10:14:25.000Z</time>
      </trkpt>
      <trkpt lat="44.93333" lon="5.85026">
        <ele>1029.673155</ele>
        <time>2026-08-29T10:14:26.000Z</time>
      </trkpt>
      <trkpt lat="44.9333" lon="5.85025">
        <ele>1029.844919</ele>
        <time>2026-08-29T10:14:27.000Z</time>
      </trkpt>
      <trkpt lat="44.93328" lon="5.85025">
        <ele>1030.007297</ele>
        <time>2026-08-29T10:14:28.000Z</time>
      </trkpt>
      <trkpt lat="44.93326" lon="5.85025">
        <ele>1030.156254</ele>
        <time>2026-08-29T10:14:29.000Z</time>
      </trkpt>
      <trkpt lat="44.93323" lon="5.85025">
        <ele>1030.324807</ele>
        <time>2026-08-29T10:14:30.000Z</time>
      </trkpt>
      <trkpt lat="44.93321" lon="5.85024">
        <ele>1030.487185</ele>
        <time>2026-08-29T10:14:31.000Z</time>
      </trkpt>
      <trkpt lat="44.93319" lon="5.85024">
        <ele>1030.635529</ele>
        <time>2026-08-29T10:14:32.000Z</time>
      </trkpt>
      <trkpt lat="44.93316" lon="5.85024">
        <ele>1030.791196</ele>
        <time>2026-08-29T10:14:33.000Z</time>
      </trkpt>
      <trkpt lat="44.93314" lon="5.85025">
        <ele>1030.962096</ele>
        <time>2026-08-29T10:14:34.000Z</time>
      </trkpt>
      <trkpt lat="44.93311" lon="5.85025">
        <ele>1031.131659</ele>
        <time>2026-08-29T10:14:35.000Z</time>
      </trkpt>
      <trkpt lat="44.93309" lon="5.85025">
        <ele>1031.266448</ele>
        <time>2026-08-29T10:14:36.000Z</time>
      </trkpt>
      <trkpt lat="44.93307" lon="5.85025">
        <ele>1031.401236</ele>
        <time>2026-08-29T10:14:37.000Z</time>
      </trkpt>
      <trkpt lat="44.93305" lon="5.85025">
        <ele>1031.566688</ele>
        <time>2026-08-29T10:14:38.000Z</time>
      </trkpt>
      <trkpt lat="44.93303" lon="5.85025">
        <ele>1031.717297</ele>
        <time>2026-08-29T10:14:39.000Z</time>
      </trkpt>
      <trkpt lat="44.933" lon="5.85025">
        <ele>1031.888423</ele>
        <time>2026-08-29T10:14:40.000Z</time>
      </trkpt>
      <trkpt lat="44.93298" lon="5.85025">
        <ele>1032.055191</ele>
        <time>2026-08-29T10:14:41.000Z</time>
      </trkpt>
      <trkpt lat="44.93296" lon="5.85025">
        <ele>1032.2058</ele>
        <time>2026-08-29T10:14:42.000Z</time>
      </trkpt>
      <trkpt lat="44.93293" lon="5.85025">
        <ele>1032.376858</ele>
        <time>2026-08-29T10:14:43.000Z</time>
      </trkpt>
      <trkpt lat="44.93291" lon="5.85025">
        <ele>1032.555351</ele>
        <time>2026-08-29T10:14:44.000Z</time>
      </trkpt>
      <trkpt lat="44.93288" lon="5.85025">
        <ele>1032.726477</ele>
        <time>2026-08-29T10:14:45.000Z</time>
      </trkpt>
      <trkpt lat="44.93286" lon="5.85025">
        <ele>1032.884149</ele>
        <time>2026-08-29T10:14:46.000Z</time>
      </trkpt>
      <trkpt lat="44.93284" lon="5.85024">
        <ele>1033.036616</ele>
        <time>2026-08-29T10:14:47.000Z</time>
      </trkpt>
      <trkpt lat="44.93281" lon="5.85025">
        <ele>1033.194658</ele>
        <time>2026-08-29T10:14:48.000Z</time>
      </trkpt>
      <trkpt lat="44.93279" lon="5.85025">
        <ele>1033.352701</ele>
        <time>2026-08-29T10:14:49.000Z</time>
      </trkpt>
      <trkpt lat="44.93276" lon="5.85025">
        <ele>1033.524375</ele>
        <time>2026-08-29T10:14:50.000Z</time>
      </trkpt>
      <trkpt lat="44.93274" lon="5.85026">
        <ele>1033.697885</ele>
        <time>2026-08-29T10:14:51.000Z</time>
      </trkpt>
      <trkpt lat="44.93271" lon="5.85026">
        <ele>1033.876837</ele>
        <time>2026-08-29T10:14:52.000Z</time>
      </trkpt>
      <trkpt lat="44.93269" lon="5.85027">
        <ele>1034.038911</ele>
        <time>2026-08-29T10:14:53.000Z</time>
      </trkpt>
      <trkpt lat="44.93267" lon="5.85027">
        <ele>1034.196954</ele>
        <time>2026-08-29T10:14:54.000Z</time>
      </trkpt>
      <trkpt lat="44.93264" lon="5.85027">
        <ele>1034.354626</ele>
        <time>2026-08-29T10:14:55.000Z</time>
      </trkpt>
      <trkpt lat="44.93262" lon="5.85028">
        <ele>1034.535728</ele>
        <time>2026-08-29T10:14:56.000Z</time>
      </trkpt>
      <trkpt lat="44.9326" lon="5.85028">
        <ele>1034.69429</ele>
        <time>2026-08-29T10:14:57.000Z</time>
      </trkpt>
      <trkpt lat="44.93257" lon="5.85028">
        <ele>1034.844899</ele>
        <time>2026-08-29T10:14:58.000Z</time>
      </trkpt>
      <trkpt lat="44.93255" lon="5.85028">
        <ele>1034.981831</ele>
        <time>2026-08-29T10:14:59.000Z</time>
      </trkpt>
      <trkpt lat="44.93253" lon="5.85028">
        <ele>1035.125602</ele>
        <time>2026-08-29T10:15:00.000Z</time>
      </trkpt>
      <trkpt lat="44.93251" lon="5.85028">
        <ele>1035.276133</ele>
        <time>2026-08-29T10:15:01.000Z</time>
      </trkpt>
      <trkpt lat="44.93249" lon="5.85028">
        <ele>1035.440634</ele>
        <time>2026-08-29T10:15:02.000Z</time>
      </trkpt>
      <trkpt lat="44.93247" lon="5.85029">
        <ele>1035.580532</ele>
        <time>2026-08-29T10:15:03.000Z</time>
      </trkpt>
      <trkpt lat="44.93244" lon="5.8503">
        <ele>1035.738665</ele>
        <time>2026-08-29T10:15:04.000Z</time>
      </trkpt>
      <trkpt lat="44.93242" lon="5.8503">
        <ele>1035.910817</ele>
        <time>2026-08-29T10:15:05.000Z</time>
      </trkpt>
      <trkpt lat="44.93239" lon="5.85031">
        <ele>1036.088981</ele>
        <time>2026-08-29T10:15:06.000Z</time>
      </trkpt>
      <trkpt lat="44.93237" lon="5.85031">
        <ele>1036.253268</ele>
        <time>2026-08-29T10:15:07.000Z</time>
      </trkpt>
      <trkpt lat="44.93235" lon="5.85031">
        <ele>1036.418623</ele>
        <time>2026-08-29T10:15:08.000Z</time>
      </trkpt>
      <trkpt lat="44.93232" lon="5.85031">
        <ele>1036.563045</ele>
        <time>2026-08-29T10:15:09.000Z</time>
      </trkpt>
      <trkpt lat="44.9323" lon="5.85032">
        <ele>1036.714276</ele>
        <time>2026-08-29T10:15:10.000Z</time>
      </trkpt>
      <trkpt lat="44.93228" lon="5.85032">
        <ele>1036.880268</ele>
        <time>2026-08-29T10:15:11.000Z</time>
      </trkpt>
      <trkpt lat="44.93225" lon="5.85032">
        <ele>1037.045622</ele>
        <time>2026-08-29T10:15:12.000Z</time>
      </trkpt>
      <trkpt lat="44.93223" lon="5.85033">
        <ele>1037.207697</ele>
        <time>2026-08-29T10:15:13.000Z</time>
      </trkpt>
      <trkpt lat="44.93221" lon="5.85033">
        <ele>1037.365368</ele>
        <time>2026-08-29T10:15:14.000Z</time>
      </trkpt>
      <trkpt lat="44.93218" lon="5.85034">
        <ele>1037.53136</ele>
        <time>2026-08-29T10:15:15.000Z</time>
      </trkpt>
      <trkpt lat="44.93216" lon="5.85034">
        <ele>1037.696218</ele>
        <time>2026-08-29T10:15:16.000Z</time>
      </trkpt>
      <trkpt lat="44.93214" lon="5.85034">
        <ele>1037.839988</ele>
        <time>2026-08-29T10:15:17.000Z</time>
      </trkpt>
      <trkpt lat="44.93212" lon="5.85035">
        <ele>1037.996705</ele>
        <time>2026-08-29T10:15:18.000Z</time>
      </trkpt>
      <trkpt lat="44.93209" lon="5.85036">
        <ele>1038.181082</ele>
        <time>2026-08-29T10:15:19.000Z</time>
      </trkpt>
      <trkpt lat="44.93207" lon="5.85036">
        <ele>1038.332855</ele>
        <time>2026-08-29T10:15:20.000Z</time>
      </trkpt>
      <trkpt lat="44.93205" lon="5.85038">
        <ele>1038.492538</ele>
        <time>2026-08-29T10:15:21.000Z</time>
      </trkpt>
      <trkpt lat="44.93203" lon="5.85038">
        <ele>1038.623978</ele>
        <time>2026-08-29T10:15:22.000Z</time>
      </trkpt>
      <trkpt lat="44.932" lon="5.85038">
        <ele>1038.795036</ele>
        <time>2026-08-29T10:15:23.000Z</time>
      </trkpt>
      <trkpt lat="44.93198" lon="5.85038">
        <ele>1038.95241</ele>
        <time>2026-08-29T10:15:24.000Z</time>
      </trkpt>
      <trkpt lat="44.93196" lon="5.85038">
        <ele>1039.116697</ele>
        <time>2026-08-29T10:15:25.000Z</time>
      </trkpt>
      <trkpt lat="44.93193" lon="5.85038">
        <ele>1039.27474</ele>
        <time>2026-08-29T10:15:26.000Z</time>
      </trkpt>
      <trkpt lat="44.93191" lon="5.85039">
        <ele>1039.418755</ele>
        <time>2026-08-29T10:15:27.000Z</time>
      </trkpt>
      <trkpt lat="44.93189" lon="5.85039">
        <ele>1039.572066</ele>
        <time>2026-08-29T10:15:28.000Z</time>
      </trkpt>
      <trkpt lat="44.93187" lon="5.85039">
        <ele>1039.736567</ele>
        <time>2026-08-29T10:15:29.000Z</time>
      </trkpt>
      <trkpt lat="44.93184" lon="5.8504">
        <ele>1039.908241</ele>
        <time>2026-08-29T10:15:30.000Z</time>
      </trkpt>
      <trkpt lat="44.93182" lon="5.85039">
        <ele>1040.084767</ele>
        <time>2026-08-29T10:15:31.000Z</time>
      </trkpt>
      <trkpt lat="44.93179" lon="5.85039">
        <ele>1040.250122</ele>
        <time>2026-08-29T10:15:32.000Z</time>
      </trkpt>
      <trkpt lat="44.93177" lon="5.8504">
        <ele>1040.415477</ele>
        <time>2026-08-29T10:15:33.000Z</time>
      </trkpt>
      <trkpt lat="44.93175" lon="5.8504">
        <ele>1040.546291</ele>
        <time>2026-08-29T10:15:34.000Z</time>
      </trkpt>
      <trkpt lat="44.93173" lon="5.8504">
        <ele>1040.669548</ele>
        <time>2026-08-29T10:15:35.000Z</time>
      </trkpt>
      <trkpt lat="44.93171" lon="5.85039">
        <ele>1040.803901</ele>
        <time>2026-08-29T10:15:36.000Z</time>
      </trkpt>
      <trkpt lat="44.93169" lon="5.85038">
        <ele>1040.964886</ele>
        <time>2026-08-29T10:15:37.000Z</time>
      </trkpt>
      <trkpt lat="44.93167" lon="5.85038">
        <ele>1041.102502</ele>
        <time>2026-08-29T10:15:38.000Z</time>
      </trkpt>
      <trkpt lat="44.93165" lon="5.85038">
        <ele>1041.247491</ele>
        <time>2026-08-29T10:15:39.000Z</time>
      </trkpt>
      <trkpt lat="44.93162" lon="5.85038">
        <ele>1041.432234</ele>
        <time>2026-08-29T10:15:40.000Z</time>
      </trkpt>
      <trkpt lat="44.9316" lon="5.85038">
        <ele>1041.597091</ele>
        <time>2026-08-29T10:15:41.000Z</time>
      </trkpt>
      <trkpt lat="44.93157" lon="5.85038">
        <ele>1041.761378</ele>
        <time>2026-08-29T10:15:42.000Z</time>
      </trkpt>
      <trkpt lat="44.93155" lon="5.85038">
        <ele>1041.92588</ele>
        <time>2026-08-29T10:15:43.000Z</time>
      </trkpt>
      <trkpt lat="44.93153" lon="5.85038">
        <ele>1042.091234</ele>
        <time>2026-08-29T10:15:44.000Z</time>
      </trkpt>
      <trkpt lat="44.9315" lon="5.85038">
        <ele>1042.256092</ele>
        <time>2026-08-29T10:15:45.000Z</time>
      </trkpt>
      <trkpt lat="44.93148" lon="5.85039">
        <ele>1042.416127</ele>
        <time>2026-08-29T10:15:46.000Z</time>
      </trkpt>
      <trkpt lat="44.93145" lon="5.85039">
        <ele>1042.601882</ele>
        <time>2026-08-29T10:15:47.000Z</time>
      </trkpt>
      <trkpt lat="44.93143" lon="5.8504">
        <ele>1042.761917</ele>
        <time>2026-08-29T10:15:48.000Z</time>
      </trkpt>
      <trkpt lat="44.9314" lon="5.8504">
        <ele>1042.932975</ele>
        <time>2026-08-29T10:15:49.000Z</time>
      </trkpt>
      <trkpt lat="44.93138" lon="5.85039">
        <ele>1043.084748</ele>
        <time>2026-08-29T10:15:50.000Z</time>
      </trkpt>
      <trkpt lat="44.93136" lon="5.85039">
        <ele>1043.242122</ele>
        <time>2026-08-29T10:15:51.000Z</time>
      </trkpt>
      <trkpt lat="44.93134" lon="5.85039">
        <ele>1043.38581</ele>
        <time>2026-08-29T10:15:52.000Z</time>
      </trkpt>
      <trkpt lat="44.93132" lon="5.8504">
        <ele>1043.525709</ele>
        <time>2026-08-29T10:15:53.000Z</time>
      </trkpt>
      <trkpt lat="44.93129" lon="5.8504">
        <ele>1043.683157</ele>
        <time>2026-08-29T10:15:54.000Z</time>
      </trkpt>
      <trkpt lat="44.93127" lon="5.8504">
        <ele>1043.825619</ele>
        <time>2026-08-29T10:15:55.000Z</time>
      </trkpt>
      <trkpt lat="44.93125" lon="5.8504">
        <ele>1043.973852</ele>
        <time>2026-08-29T10:15:56.000Z</time>
      </trkpt>
      <trkpt lat="44.93123" lon="5.8504">
        <ele>1044.141522</ele>
        <time>2026-08-29T10:15:57.000Z</time>
      </trkpt>
      <trkpt lat="44.9312" lon="5.8504">
        <ele>1044.315337</ele>
        <time>2026-08-29T10:15:58.000Z</time>
      </trkpt>
      <trkpt lat="44.93118" lon="5.8504">
        <ele>1044.482472</ele>
        <time>2026-08-29T10:15:59.000Z</time>
      </trkpt>
      <trkpt lat="44.93115" lon="5.8504">
        <ele>1044.669648</ele>
        <time>2026-08-29T10:16:00.000Z</time>
      </trkpt>
      <trkpt lat="44.93113" lon="5.8504">
        <ele>1044.817881</ele>
        <time>2026-08-29T10:16:01.000Z</time>
      </trkpt>
      <trkpt lat="44.9311" lon="5.8504">
        <ele>1044.978266</ele>
        <time>2026-08-29T10:16:02.000Z</time>
      </trkpt>
      <trkpt lat="44.93108" lon="5.8504">
        <ele>1045.139764</ele>
        <time>2026-08-29T10:16:03.000Z</time>
      </trkpt>
      <trkpt lat="44.93105" lon="5.85039">
        <ele>1045.307901</ele>
        <time>2026-08-29T10:16:04.000Z</time>
      </trkpt>
      <trkpt lat="44.93103" lon="5.8504">
        <ele>1045.438965</ele>
        <time>2026-08-29T10:16:05.000Z</time>
      </trkpt>
      <trkpt lat="44.93101" lon="5.85041">
        <ele>1045.604907</ele>
        <time>2026-08-29T10:16:06.000Z</time>
      </trkpt>
      <trkpt lat="44.93098" lon="5.85043">
        <ele>1045.798794</ele>
        <time>2026-08-29T10:16:07.000Z</time>
      </trkpt>
      <trkpt lat="44.93095" lon="5.85043">
        <ele>1045.992593</ele>
        <time>2026-08-29T10:16:08.000Z</time>
      </trkpt>
      <trkpt lat="44.93093" lon="5.85043">
        <ele>1046.181199</ele>
        <time>2026-08-29T10:16:09.000Z</time>
      </trkpt>
      <trkpt lat="44.9309" lon="5.85043">
        <ele>1046.368375</ele>
        <time>2026-08-29T10:16:10.000Z</time>
      </trkpt>
      <trkpt lat="44.93087" lon="5.85043">
        <ele>1046.542384</ele>
        <time>2026-08-29T10:16:11.000Z</time>
      </trkpt>
      <trkpt lat="44.93084" lon="5.85042">
        <ele>1046.732408</ele>
        <time>2026-08-29T10:16:12.000Z</time>
      </trkpt>
      <trkpt lat="44.93082" lon="5.85042">
        <ele>1046.900078</ele>
        <time>2026-08-29T10:16:13.000Z</time>
      </trkpt>
      <trkpt lat="44.93079" lon="5.85042">
        <ele>1047.068215</ele>
        <time>2026-08-29T10:16:14.000Z</time>
      </trkpt>
      <trkpt lat="44.93077" lon="5.85043">
        <ele>1047.251662</ele>
        <time>2026-08-29T10:16:15.000Z</time>
      </trkpt>
      <trkpt lat="44.93074" lon="5.85043">
        <ele>1047.412674</ele>
        <time>2026-08-29T10:16:16.000Z</time>
      </trkpt>
      <trkpt lat="44.93072" lon="5.85044">
        <ele>1047.583976</ele>
        <time>2026-08-29T10:16:17.000Z</time>
      </trkpt>
      <trkpt lat="44.93069" lon="5.85044">
        <ele>1047.778006</ele>
        <time>2026-08-29T10:16:18.000Z</time>
      </trkpt>
      <trkpt lat="44.93066" lon="5.85044">
        <ele>1047.951821</ele>
        <time>2026-08-29T10:16:19.000Z</time>
      </trkpt>
      <trkpt lat="44.93064" lon="5.85044">
        <ele>1048.112486</ele>
        <time>2026-08-29T10:16:20.000Z</time>
      </trkpt>
      <trkpt lat="44.93061" lon="5.85044">
        <ele>1048.286494</ele>
        <time>2026-08-29T10:16:21.000Z</time>
      </trkpt>
      <trkpt lat="44.93059" lon="5.85045">
        <ele>1048.45383</ele>
        <time>2026-08-29T10:16:22.000Z</time>
      </trkpt>
      <trkpt lat="44.93056" lon="5.85045">
        <ele>1048.614842</ele>
        <time>2026-08-29T10:16:23.000Z</time>
      </trkpt>
      <trkpt lat="44.93054" lon="5.85045">
        <ele>1048.789172</ele>
        <time>2026-08-29T10:16:24.000Z</time>
      </trkpt>
      <trkpt lat="44.93051" lon="5.85046">
        <ele>1048.965226</ele>
        <time>2026-08-29T10:16:25.000Z</time>
      </trkpt>
      <trkpt lat="44.93049" lon="5.85046">
        <ele>1049.148674</ele>
        <time>2026-08-29T10:16:26.000Z</time>
      </trkpt>
      <trkpt lat="44.93046" lon="5.85047">
        <ele>1049.322489</ele>
        <time>2026-08-29T10:16:27.000Z</time>
      </trkpt>
      <trkpt lat="44.93043" lon="5.85047">
        <ele>1049.511095</ele>
        <time>2026-08-29T10:16:28.000Z</time>
      </trkpt>
      <trkpt lat="44.93041" lon="5.85047">
        <ele>1049.67155</ele>
        <time>2026-08-29T10:16:29.000Z</time>
      </trkpt>
      <trkpt lat="44.93038" lon="5.85048">
        <ele>1049.852974</ele>
        <time>2026-08-29T10:16:30.000Z</time>
      </trkpt>
      <trkpt lat="44.93036" lon="5.85048">
        <ele>1050.020643</ele>
        <time>2026-08-29T10:16:31.000Z</time>
      </trkpt>
      <trkpt lat="44.93033" lon="5.85048">
        <ele>1050.194652</ele>
        <time>2026-08-29T10:16:32.000Z</time>
      </trkpt>
      <trkpt lat="44.9303" lon="5.85049">
        <ele>1050.394142</ele>
        <time>2026-08-29T10:16:33.000Z</time>
      </trkpt>
      <trkpt lat="44.93027" lon="5.85049">
        <ele>1050.581498</ele>
        <time>2026-08-29T10:16:34.000Z</time>
      </trkpt>
      <trkpt lat="44.93025" lon="5.85049">
        <ele>1050.761993</ele>
        <time>2026-08-29T10:16:35.000Z</time>
      </trkpt>
      <trkpt lat="44.93022" lon="5.8505">
        <ele>1050.938048</ele>
        <time>2026-08-29T10:16:36.000Z</time>
      </trkpt>
      <trkpt lat="44.9302" lon="5.8505">
        <ele>1051.092041</ele>
        <time>2026-08-29T10:16:37.000Z</time>
      </trkpt>
      <trkpt lat="44.93017" lon="5.8505">
        <ele>1051.266371</ele>
        <time>2026-08-29T10:16:38.000Z</time>
      </trkpt>
      <trkpt lat="44.93014" lon="5.85051">
        <ele>1051.464865</ele>
        <time>2026-08-29T10:16:39.000Z</time>
      </trkpt>
      <trkpt lat="44.93012" lon="5.85052">
        <ele>1051.632535</ele>
        <time>2026-08-29T10:16:40.000Z</time>
      </trkpt>
      <trkpt lat="44.93009" lon="5.85052">
        <ele>1051.813958</ele>
        <time>2026-08-29T10:16:41.000Z</time>
      </trkpt>
      <trkpt lat="44.93006" lon="5.85053">
        <ele>1051.990013</ele>
        <time>2026-08-29T10:16:42.000Z</time>
      </trkpt>
      <trkpt lat="44.93004" lon="5.85053">
        <ele>1052.144006</ele>
        <time>2026-08-29T10:16:43.000Z</time>
      </trkpt>
      <trkpt lat="44.93002" lon="5.85054">
        <ele>1052.315308</ele>
        <time>2026-08-29T10:16:44.000Z</time>
      </trkpt>
      <trkpt lat="44.92999" lon="5.85054">
        <ele>1052.463541</ele>
        <time>2026-08-29T10:16:45.000Z</time>
      </trkpt>
      <trkpt lat="44.92997" lon="5.85055">
        <ele>1052.646333</ele>
        <time>2026-08-29T10:16:46.000Z</time>
      </trkpt>
      <trkpt lat="44.92994" lon="5.85055">
        <ele>1052.806788</ele>
        <time>2026-08-29T10:16:47.000Z</time>
      </trkpt>
      <trkpt lat="44.92992" lon="5.85056">
        <ele>1052.991148</ele>
        <time>2026-08-29T10:16:48.000Z</time>
      </trkpt>
      <trkpt lat="44.92989" lon="5.85057">
        <ele>1053.167203</ele>
        <time>2026-08-29T10:16:49.000Z</time>
      </trkpt>
      <trkpt lat="44.92986" lon="5.85057">
        <ele>1053.347699</ele>
        <time>2026-08-29T10:16:50.000Z</time>
      </trkpt>
      <trkpt lat="44.92984" lon="5.85058">
        <ele>1053.531146</ele>
        <time>2026-08-29T10:16:51.000Z</time>
      </trkpt>
      <trkpt lat="44.92981" lon="5.85058">
        <ele>1053.704897</ele>
        <time>2026-08-29T10:16:52.000Z</time>
      </trkpt>
      <trkpt lat="44.92978" lon="5.85058">
        <ele>1053.888345</ele>
        <time>2026-08-29T10:16:53.000Z</time>
      </trkpt>
      <trkpt lat="44.92976" lon="5.85059">
        <ele>1054.066171</ele>
        <time>2026-08-29T10:16:54.000Z</time>
      </trkpt>
      <trkpt lat="44.92973" lon="5.8506">
        <ele>1054.24305</ele>
        <time>2026-08-29T10:16:55.000Z</time>
      </trkpt>
      <trkpt lat="44.92971" lon="5.8506">
        <ele>1054.411784</ele>
        <time>2026-08-29T10:16:56.000Z</time>
      </trkpt>
      <trkpt lat="44.92968" lon="5.85061">
        <ele>1054.567297</ele>
        <time>2026-08-29T10:16:57.000Z</time>
      </trkpt>
      <trkpt lat="44.92966" lon="5.85062">
        <ele>1054.725591</ele>
        <time>2026-08-29T10:16:58.000Z</time>
      </trkpt>
      <trkpt lat="44.92964" lon="5.85063">
        <ele>1054.902043</ele>
        <time>2026-08-29T10:16:59.000Z</time>
      </trkpt>
      <trkpt lat="44.92961" lon="5.85064">
        <ele>1055.075681</ele>
        <time>2026-08-29T10:17:00.000Z</time>
      </trkpt>
      <trkpt lat="44.92959" lon="5.85065">
        <ele>1055.254573</ele>
        <time>2026-08-29T10:17:01.000Z</time>
      </trkpt>
      <trkpt lat="44.92956" lon="5.85065">
        <ele>1055.415028</ele>
        <time>2026-08-29T10:17:02.000Z</time>
      </trkpt>
      <trkpt lat="44.92954" lon="5.85065">
        <ele>1055.589807</ele>
        <time>2026-08-29T10:17:03.000Z</time>
      </trkpt>
      <trkpt lat="44.92951" lon="5.85065">
        <ele>1055.757143</ele>
        <time>2026-08-29T10:17:04.000Z</time>
      </trkpt>
      <trkpt lat="44.92949" lon="5.85065">
        <ele>1055.915516</ele>
        <time>2026-08-29T10:17:05.000Z</time>
      </trkpt>
      <trkpt lat="44.92946" lon="5.85066">
        <ele>1056.082428</ele>
        <time>2026-08-29T10:17:06.000Z</time>
      </trkpt>
      <trkpt lat="44.92944" lon="5.85067">
        <ele>1056.241474</ele>
        <time>2026-08-29T10:17:07.000Z</time>
      </trkpt>
      <trkpt lat="44.92941" lon="5.85068">
        <ele>1056.409686</ele>
        <time>2026-08-29T10:17:08.000Z</time>
      </trkpt>
      <trkpt lat="44.92939" lon="5.85068">
        <ele>1056.556177</ele>
        <time>2026-08-29T10:17:09.000Z</time>
      </trkpt>
      <trkpt lat="44.92936" lon="5.85069">
        <ele>1056.720428</ele>
        <time>2026-08-29T10:17:10.000Z</time>
      </trkpt>
      <trkpt lat="44.92934" lon="5.8507">
        <ele>1056.892</ele>
        <time>2026-08-29T10:17:11.000Z</time>
      </trkpt>
      <trkpt lat="44.92931" lon="5.85071">
        <ele>1057.039852</ele>
        <time>2026-08-29T10:17:12.000Z</time>
      </trkpt>
      <trkpt lat="44.92929" lon="5.85071">
        <ele>1057.200152</ele>
        <time>2026-08-29T10:17:13.000Z</time>
      </trkpt>
      <trkpt lat="44.92926" lon="5.85072">
        <ele>1057.363241</ele>
        <time>2026-08-29T10:17:14.000Z</time>
      </trkpt>
      <trkpt lat="44.92923" lon="5.85073">
        <ele>1057.545811</ele>
        <time>2026-08-29T10:17:15.000Z</time>
      </trkpt>
      <trkpt lat="44.92921" lon="5.85075">
        <ele>1057.696562</ele>
        <time>2026-08-29T10:17:16.000Z</time>
      </trkpt>
      <trkpt lat="44.92919" lon="5.85075">
        <ele>1057.845292</ele>
        <time>2026-08-29T10:17:17.000Z</time>
      </trkpt>
      <trkpt lat="44.92917" lon="5.85076">
        <ele>1058.004794</ele>
        <time>2026-08-29T10:17:18.000Z</time>
      </trkpt>
      <trkpt lat="44.92914" lon="5.85077">
        <ele>1058.160676</ele>
        <time>2026-08-29T10:17:19.000Z</time>
      </trkpt>
      <trkpt lat="44.92912" lon="5.85078">
        <ele>1058.321787</ele>
        <time>2026-08-29T10:17:20.000Z</time>
      </trkpt>
      <trkpt lat="44.92909" lon="5.85079">
        <ele>1058.472656</ele>
        <time>2026-08-29T10:17:21.000Z</time>
      </trkpt>
      <trkpt lat="44.92907" lon="5.8508">
        <ele>1058.622393</ele>
        <time>2026-08-29T10:17:22.000Z</time>
      </trkpt>
      <trkpt lat="44.92905" lon="5.85081">
        <ele>1058.78057</ele>
        <time>2026-08-29T10:17:23.000Z</time>
      </trkpt>
      <trkpt lat="44.92902" lon="5.85081">
        <ele>1058.925358</ele>
        <time>2026-08-29T10:17:24.000Z</time>
      </trkpt>
      <trkpt lat="44.929" lon="5.85083">
        <ele>1059.096929</ele>
        <time>2026-08-29T10:17:25.000Z</time>
      </trkpt>
      <trkpt lat="44.92898" lon="5.85083">
        <ele>1059.247799</ele>
        <time>2026-08-29T10:17:26.000Z</time>
      </trkpt>
      <trkpt lat="44.92895" lon="5.85084">
        <ele>1059.403681</ele>
        <time>2026-08-29T10:17:27.000Z</time>
      </trkpt>
      <trkpt lat="44.92893" lon="5.85085">
        <ele>1059.55455</ele>
        <time>2026-08-29T10:17:28.000Z</time>
      </trkpt>
      <trkpt lat="44.9289" lon="5.85086">
        <ele>1059.720076</ele>
        <time>2026-08-29T10:17:29.000Z</time>
      </trkpt>
      <trkpt lat="44.92888" lon="5.85087">
        <ele>1059.874149</ele>
        <time>2026-08-29T10:17:30.000Z</time>
      </trkpt>
      <trkpt lat="44.92885" lon="5.85088">
        <ele>1060.039675</ele>
        <time>2026-08-29T10:17:31.000Z</time>
      </trkpt>
      <trkpt lat="44.92883" lon="5.85089">
        <ele>1060.197853</ele>
        <time>2026-08-29T10:17:32.000Z</time>
      </trkpt>
      <trkpt lat="44.92881" lon="5.8509">
        <ele>1060.352848</ele>
        <time>2026-08-29T10:17:33.000Z</time>
      </trkpt>
      <trkpt lat="44.92878" lon="5.8509">
        <ele>1060.511453</ele>
        <time>2026-08-29T10:17:34.000Z</time>
      </trkpt>
      <trkpt lat="44.92876" lon="5.85091">
        <ele>1060.681795</ele>
        <time>2026-08-29T10:17:35.000Z</time>
      </trkpt>
      <trkpt lat="44.92873" lon="5.85092">
        <ele>1060.835867</ele>
        <time>2026-08-29T10:17:36.000Z</time>
      </trkpt>
      <trkpt lat="44.92871" lon="5.85092">
        <ele>1060.994472</ele>
        <time>2026-08-29T10:17:37.000Z</time>
      </trkpt>
      <trkpt lat="44.92868" lon="5.85092">
        <ele>1061.139865</ele>
        <time>2026-08-29T10:17:38.000Z</time>
      </trkpt>
      <trkpt lat="44.92866" lon="5.85093">
        <ele>1061.275304</ele>
        <time>2026-08-29T10:17:39.000Z</time>
      </trkpt>
      <trkpt lat="44.92864" lon="5.85094">
        <ele>1061.431186</ele>
        <time>2026-08-29T10:17:40.000Z</time>
      </trkpt>
      <trkpt lat="44.92862" lon="5.85095">
        <ele>1061.563876</ele>
        <time>2026-08-29T10:17:41.000Z</time>
      </trkpt>
      <trkpt lat="44.9286" lon="5.85096">
        <ele>1061.722399</ele>
        <time>2026-08-29T10:17:42.000Z</time>
      </trkpt>
      <trkpt lat="44.92858" lon="5.85098">
        <ele>1061.880922</ele>
        <time>2026-08-29T10:17:43.000Z</time>
      </trkpt>
      <trkpt lat="44.92855" lon="5.851">
        <ele>1062.052698</ele>
        <time>2026-08-29T10:17:44.000Z</time>
      </trkpt>
      <trkpt lat="44.92853" lon="5.85101">
        <ele>1062.218602</ele>
        <time>2026-08-29T10:17:45.000Z</time>
      </trkpt>
      <trkpt lat="44.92851" lon="5.85103">
        <ele>1062.373029</ele>
        <time>2026-08-29T10:17:46.000Z</time>
      </trkpt>
      <trkpt lat="44.92848" lon="5.85104">
        <ele>1062.509426</ele>
        <time>2026-08-29T10:17:47.000Z</time>
      </trkpt>
      <trkpt lat="44.92846" lon="5.85105">
        <ele>1062.673676</ele>
        <time>2026-08-29T10:17:48.000Z</time>
      </trkpt>
      <trkpt lat="44.92844" lon="5.85105">
        <ele>1062.828592</ele>
        <time>2026-08-29T10:17:49.000Z</time>
      </trkpt>
      <trkpt lat="44.92841" lon="5.85106">
        <ele>1062.97612</ele>
        <time>2026-08-29T10:17:50.000Z</time>
      </trkpt>
      <trkpt lat="44.92839" lon="5.85108">
        <ele>1063.126871</ele>
        <time>2026-08-29T10:17:51.000Z</time>
      </trkpt>
      <trkpt lat="44.92837" lon="5.85109">
        <ele>1063.287811</ele>
        <time>2026-08-29T10:17:52.000Z</time>
      </trkpt>
      <trkpt lat="44.92834" lon="5.8511">
        <ele>1063.43868</ele>
        <time>2026-08-29T10:17:53.000Z</time>
      </trkpt>
      <trkpt lat="44.92832" lon="5.85112">
        <ele>1063.591045</ele>
        <time>2026-08-29T10:17:54.000Z</time>
      </trkpt>
      <trkpt lat="44.9283" lon="5.85113">
        <ele>1063.757265</ele>
        <time>2026-08-29T10:17:55.000Z</time>
      </trkpt>
      <trkpt lat="44.92828" lon="5.85114">
        <ele>1063.914235</ele>
        <time>2026-08-29T10:17:56.000Z</time>
      </trkpt>
      <trkpt lat="44.92826" lon="5.85115">
        <ele>1064.060331</ele>
        <time>2026-08-29T10:17:57.000Z</time>
      </trkpt>
      <trkpt lat="44.92823" lon="5.85116">
        <ele>1064.206427</ele>
        <time>2026-08-29T10:17:58.000Z</time>
      </trkpt>
      <trkpt lat="44.92821" lon="5.85117">
        <ele>1064.356163</ele>
        <time>2026-08-29T10:17:59.000Z</time>
      </trkpt>
      <trkpt lat="44.92819" lon="5.85118">
        <ele>1064.497804</ele>
        <time>2026-08-29T10:18:00.000Z</time>
      </trkpt>
      <trkpt lat="44.92816" lon="5.85118">
        <ele>1064.650111</ele>
        <time>2026-08-29T10:18:01.000Z</time>
      </trkpt>
      <trkpt lat="44.92814" lon="5.85118">
        <ele>1064.814529</ele>
        <time>2026-08-29T10:18:02.000Z</time>
      </trkpt>
      <trkpt lat="44.92811" lon="5.85118">
        <ele>1064.985266</ele>
        <time>2026-08-29T10:18:03.000Z</time>
      </trkpt>
      <trkpt lat="44.92808" lon="5.85118">
        <ele>1065.162493</ele>
        <time>2026-08-29T10:18:04.000Z</time>
      </trkpt>
      <trkpt lat="44.92805" lon="5.85119">
        <ele>1065.360289</ele>
        <time>2026-08-29T10:18:05.000Z</time>
      </trkpt>
      <trkpt lat="44.92803" lon="5.85119">
        <ele>1065.531495</ele>
        <time>2026-08-29T10:18:06.000Z</time>
      </trkpt>
      <trkpt lat="44.928" lon="5.8512">
        <ele>1065.719258</ele>
        <time>2026-08-29T10:18:07.000Z</time>
      </trkpt>
      <trkpt lat="44.92797" lon="5.85122">
        <ele>1065.920433</ele>
        <time>2026-08-29T10:18:08.000Z</time>
      </trkpt>
      <trkpt lat="44.92794" lon="5.85123">
        <ele>1066.109736</ele>
        <time>2026-08-29T10:18:09.000Z</time>
      </trkpt>
      <trkpt lat="44.92791" lon="5.85125">
        <ele>1066.31182</ele>
        <time>2026-08-29T10:18:10.000Z</time>
      </trkpt>
      <trkpt lat="44.92788" lon="5.85126">
        <ele>1066.484598</ele>
        <time>2026-08-29T10:18:11.000Z</time>
      </trkpt>
      <trkpt lat="44.92785" lon="5.85127">
        <ele>1066.678472</ele>
        <time>2026-08-29T10:18:12.000Z</time>
      </trkpt>
      <trkpt lat="44.92783" lon="5.85128">
        <ele>1066.863441</ele>
        <time>2026-08-29T10:18:13.000Z</time>
      </trkpt>
      <trkpt lat="44.9278" lon="5.85129">
        <ele>1067.04237</ele>
        <time>2026-08-29T10:18:14.000Z</time>
      </trkpt>
      <trkpt lat="44.92777" lon="5.85131">
        <ele>1067.229723</ele>
        <time>2026-08-29T10:18:15.000Z</time>
      </trkpt>
      <trkpt lat="44.92773" lon="5.85132">
        <ele>1067.404752</ele>
        <time>2026-08-29T10:18:16.000Z</time>
      </trkpt>
      <trkpt lat="44.92771" lon="5.85133">
        <ele>1067.560194</ele>
        <time>2026-08-29T10:18:17.000Z</time>
      </trkpt>
      <trkpt lat="44.92767" lon="5.85135">
        <ele>1067.723492</ele>
        <time>2026-08-29T10:18:18.000Z</time>
      </trkpt>
      <trkpt lat="44.92765" lon="5.85135">
        <ele>1067.86768</ele>
        <time>2026-08-29T10:18:19.000Z</time>
      </trkpt>
      <trkpt lat="44.92762" lon="5.85136">
        <ele>1068.012953</ele>
        <time>2026-08-29T10:18:20.000Z</time>
      </trkpt>
      <trkpt lat="44.92759" lon="5.85136">
        <ele>1068.15132</ele>
        <time>2026-08-29T10:18:21.000Z</time>
      </trkpt>
      <trkpt lat="44.92756" lon="5.85136">
        <ele>1068.299523</ele>
        <time>2026-08-29T10:18:22.000Z</time>
      </trkpt>
      <trkpt lat="44.92753" lon="5.85136">
        <ele>1068.463647</ele>
        <time>2026-08-29T10:18:23.000Z</time>
      </trkpt>
      <trkpt lat="44.9275" lon="5.85137">
        <ele>1068.617596</ele>
        <time>2026-08-29T10:18:24.000Z</time>
      </trkpt>
      <trkpt lat="44.92747" lon="5.85138">
        <ele>1068.773572</ele>
        <time>2026-08-29T10:18:25.000Z</time>
      </trkpt>
      <trkpt lat="44.92744" lon="5.85138">
        <ele>1068.92752</ele>
        <time>2026-08-29T10:18:26.000Z</time>
      </trkpt>
      <trkpt lat="44.92741" lon="5.8514">
        <ele>1069.101637</ele>
        <time>2026-08-29T10:18:27.000Z</time>
      </trkpt>
      <trkpt lat="44.92738" lon="5.85142">
        <ele>1069.281095</ele>
        <time>2026-08-29T10:18:28.000Z</time>
      </trkpt>
      <trkpt lat="44.92734" lon="5.85143">
        <ele>1069.456124</ele>
        <time>2026-08-29T10:18:29.000Z</time>
      </trkpt>
      <trkpt lat="44.92731" lon="5.85144">
        <ele>1069.607817</ele>
        <time>2026-08-29T10:18:30.000Z</time>
      </trkpt>
      <trkpt lat="44.92729" lon="5.85143">
        <ele>1069.751596</ele>
        <time>2026-08-29T10:18:31.000Z</time>
      </trkpt>
      <trkpt lat="44.92726" lon="5.85143">
        <ele>1069.894829</ele>
        <time>2026-08-29T10:18:32.000Z</time>
      </trkpt>
      <trkpt lat="44.92723" lon="5.85144">
        <ele>1070.022667</ele>
        <time>2026-08-29T10:18:33.000Z</time>
      </trkpt>
      <trkpt lat="44.92721" lon="5.85145">
        <ele>1070.154473</ele>
        <time>2026-08-29T10:18:34.000Z</time>
      </trkpt>
      <trkpt lat="44.92718" lon="5.85146">
        <ele>1070.293171</ele>
        <time>2026-08-29T10:18:35.000Z</time>
      </trkpt>
      <trkpt lat="44.92716" lon="5.85146">
        <ele>1070.434901</ele>
        <time>2026-08-29T10:18:36.000Z</time>
      </trkpt>
      <trkpt lat="44.92713" lon="5.85147">
        <ele>1070.585208</ele>
        <time>2026-08-29T10:18:37.000Z</time>
      </trkpt>
      <trkpt lat="44.9271" lon="5.85148">
        <ele>1070.723905</ele>
        <time>2026-08-29T10:18:38.000Z</time>
      </trkpt>
      <trkpt lat="44.92707" lon="5.85148">
        <ele>1070.852445</ele>
        <time>2026-08-29T10:18:39.000Z</time>
      </trkpt>
      <trkpt lat="44.92705" lon="5.85149">
        <ele>1070.983405</ele>
        <time>2026-08-29T10:18:40.000Z</time>
      </trkpt>
      <trkpt lat="44.92702" lon="5.85149">
        <ele>1071.116237</ele>
        <time>2026-08-29T10:18:41.000Z</time>
      </trkpt>
      <trkpt lat="44.92699" lon="5.85149">
        <ele>1071.266543</ele>
        <time>2026-08-29T10:18:42.000Z</time>
      </trkpt>
      <trkpt lat="44.92697" lon="5.8515">
        <ele>1071.41685</ele>
        <time>2026-08-29T10:18:43.000Z</time>
      </trkpt>
      <trkpt lat="44.92694" lon="5.85151">
        <ele>1071.571646</ele>
        <time>2026-08-29T10:18:44.000Z</time>
      </trkpt>
      <trkpt lat="44.92691" lon="5.85151">
        <ele>1071.725977</ele>
        <time>2026-08-29T10:18:45.000Z</time>
      </trkpt>
      <trkpt lat="44.92688" lon="5.85152">
        <ele>1071.866921</ele>
        <time>2026-08-29T10:18:46.000Z</time>
      </trkpt>
      <trkpt lat="44.92685" lon="5.85153">
        <ele>1072.031137</ele>
        <time>2026-08-29T10:18:47.000Z</time>
      </trkpt>
      <trkpt lat="44.92682" lon="5.85155">
        <ele>1072.196347</ele>
        <time>2026-08-29T10:18:48.000Z</time>
      </trkpt>
      <trkpt lat="44.92679" lon="5.85156">
        <ele>1072.360564</ele>
        <time>2026-08-29T10:18:49.000Z</time>
      </trkpt>
      <trkpt lat="44.92676" lon="5.85157">
        <ele>1072.511144</ele>
        <time>2026-08-29T10:18:50.000Z</time>
      </trkpt>
      <trkpt lat="44.92673" lon="5.85157">
        <ele>1072.649842</ele>
        <time>2026-08-29T10:18:51.000Z</time>
      </trkpt>
      <trkpt lat="44.9267" lon="5.85159">
        <ele>1072.807623</ele>
        <time>2026-08-29T10:18:52.000Z</time>
      </trkpt>
      <trkpt lat="44.92667" lon="5.8516">
        <ele>1072.953358</ele>
        <time>2026-08-29T10:18:53.000Z</time>
      </trkpt>
      <trkpt lat="44.92665" lon="5.85162">
        <ele>1073.096844</ele>
        <time>2026-08-29T10:18:54.000Z</time>
      </trkpt>
      <trkpt lat="44.92662" lon="5.85163">
        <ele>1073.232791</ele>
        <time>2026-08-29T10:18:55.000Z</time>
      </trkpt>
      <trkpt lat="44.9266" lon="5.85164">
        <ele>1073.379734</ele>
        <time>2026-08-29T10:18:56.000Z</time>
      </trkpt>
      <trkpt lat="44.92657" lon="5.85164">
        <ele>1073.507917</ele>
        <time>2026-08-29T10:18:57.000Z</time>
      </trkpt>
      <trkpt lat="44.92654" lon="5.85165">
        <ele>1073.652526</ele>
        <time>2026-08-29T10:18:58.000Z</time>
      </trkpt>
      <trkpt lat="44.92652" lon="5.85166">
        <ele>1073.79513</ele>
        <time>2026-08-29T10:18:59.000Z</time>
      </trkpt>
      <trkpt lat="44.92649" lon="5.85167">
        <ele>1073.941078</ele>
        <time>2026-08-29T10:19:00.000Z</time>
      </trkpt>
      <trkpt lat="44.92646" lon="5.85168">
        <ele>1074.081323</ele>
        <time>2026-08-29T10:19:01.000Z</time>
      </trkpt>
      <trkpt lat="44.92644" lon="5.85169">
        <ele>1074.21727</ele>
        <time>2026-08-29T10:19:02.000Z</time>
      </trkpt>
      <trkpt lat="44.92641" lon="5.85169">
        <ele>1074.356392</ele>
        <time>2026-08-29T10:19:03.000Z</time>
      </trkpt>
      <trkpt lat="44.92638" lon="5.8517">
        <ele>1074.498996</ele>
        <time>2026-08-29T10:19:04.000Z</time>
      </trkpt>
      <trkpt lat="44.92636" lon="5.85172">
        <ele>1074.639906</ele>
        <time>2026-08-29T10:19:05.000Z</time>
      </trkpt>
      <trkpt lat="44.92633" lon="5.85173">
        <ele>1074.786849</ele>
        <time>2026-08-29T10:19:06.000Z</time>
      </trkpt>
      <trkpt lat="44.9263" lon="5.85173">
        <ele>1074.91968</ele>
        <time>2026-08-29T10:19:07.000Z</time>
      </trkpt>
      <trkpt lat="44.92627" lon="5.85174">
        <ele>1075.065628</ele>
        <time>2026-08-29T10:19:08.000Z</time>
      </trkpt>
      <trkpt lat="44.92625" lon="5.85174">
        <ele>1075.204325</ele>
        <time>2026-08-29T10:19:09.000Z</time>
      </trkpt>
      <trkpt lat="44.92622" lon="5.85175">
        <ele>1075.341088</ele>
        <time>2026-08-29T10:19:10.000Z</time>
      </trkpt>
      <trkpt lat="44.9262" lon="5.85176">
        <ele>1075.477851</ele>
        <time>2026-08-29T10:19:11.000Z</time>
      </trkpt>
      <trkpt lat="44.92617" lon="5.85177">
        <ele>1075.627341</ele>
        <time>2026-08-29T10:19:12.000Z</time>
      </trkpt>
      <trkpt lat="44.92614" lon="5.85178">
        <ele>1075.768285</ele>
        <time>2026-08-29T10:19:13.000Z</time>
      </trkpt>
      <trkpt lat="44.92611" lon="5.85179">
        <ele>1075.909228</ele>
        <time>2026-08-29T10:19:14.000Z</time>
      </trkpt>
      <trkpt lat="44.92609" lon="5.85179">
        <ele>1076.038782</ele>
        <time>2026-08-29T10:19:15.000Z</time>
      </trkpt>
      <trkpt lat="44.92606" lon="5.8518">
        <ele>1076.18297</ele>
        <time>2026-08-29T10:19:16.000Z</time>
      </trkpt>
      <trkpt lat="44.92603" lon="5.8518">
        <ele>1076.322646</ele>
        <time>2026-08-29T10:19:17.000Z</time>
      </trkpt>
      <trkpt lat="44.92601" lon="5.85181">
        <ele>1076.5176</ele>
        <time>2026-08-29T10:19:18.000Z</time>
      </trkpt>
      <trkpt lat="44.92598" lon="5.85182">
        <ele>1076.715833</ele>
        <time>2026-08-29T10:19:19.000Z</time>
      </trkpt>
      <trkpt lat="44.92595" lon="5.85182">
        <ele>1076.900481</ele>
        <time>2026-08-29T10:19:20.000Z</time>
      </trkpt>
      <trkpt lat="44.92593" lon="5.85182">
        <ele>1077.085197</ele>
        <time>2026-08-29T10:19:21.000Z</time>
      </trkpt>
      <trkpt lat="44.9259" lon="5.85182">
        <ele>1077.276947</ele>
        <time>2026-08-29T10:19:22.000Z</time>
      </trkpt>
      <trkpt lat="44.92588" lon="5.85182">
        <ele>1077.440367</ele>
        <time>2026-08-29T10:19:23.000Z</time>
      </trkpt>
      <trkpt lat="44.92585" lon="5.85183">
        <ele>1077.604019</ele>
        <time>2026-08-29T10:19:24.000Z</time>
      </trkpt>
      <trkpt lat="44.92583" lon="5.85182">
        <ele>1077.782701</ele>
        <time>2026-08-29T10:19:25.000Z</time>
      </trkpt>
      <trkpt lat="44.9258" lon="5.85182">
        <ele>1077.960887</ele>
        <time>2026-08-29T10:19:26.000Z</time>
      </trkpt>
      <trkpt lat="44.92578" lon="5.85181">
        <ele>1078.154996</ele>
        <time>2026-08-29T10:19:27.000Z</time>
      </trkpt>
      <trkpt lat="44.92575" lon="5.85181">
        <ele>1078.340736</ele>
        <time>2026-08-29T10:19:28.000Z</time>
      </trkpt>
      <trkpt lat="44.92573" lon="5.8518">
        <ele>1078.519418</ele>
        <time>2026-08-29T10:19:29.000Z</time>
      </trkpt>
      <trkpt lat="44.9257" lon="5.8518">
        <ele>1078.705158</ele>
        <time>2026-08-29T10:19:30.000Z</time>
      </trkpt>
      <trkpt lat="44.92567" lon="5.8518">
        <ele>1078.89151</ele>
        <time>2026-08-29T10:19:31.000Z</time>
      </trkpt>
      <trkpt lat="44.92565" lon="5.85179">
        <ele>1079.077862</ele>
        <time>2026-08-29T10:19:32.000Z</time>
      </trkpt>
      <trkpt lat="44.92562" lon="5.85179">
        <ele>1079.284061</ele>
        <time>2026-08-29T10:19:33.000Z</time>
      </trkpt>
      <trkpt lat="44.92559" lon="5.85178">
        <ele>1079.492213</ele>
        <time>2026-08-29T10:19:34.000Z</time>
      </trkpt>
      <trkpt lat="44.92556" lon="5.85178">
        <ele>1079.699695</ele>
        <time>2026-08-29T10:19:35.000Z</time>
      </trkpt>
      <trkpt lat="44.92553" lon="5.85178">
        <ele>1079.905649</ele>
        <time>2026-08-29T10:19:36.000Z</time>
      </trkpt>
      <trkpt lat="44.92551" lon="5.85177">
        <ele>1080.09904</ele>
        <time>2026-08-29T10:19:37.000Z</time>
      </trkpt>
      <trkpt lat="44.92548" lon="5.85177">
        <ele>1080.266132</ele>
        <time>2026-08-29T10:19:38.000Z</time>
      </trkpt>
      <trkpt lat="44.92546" lon="5.85176">
        <ele>1080.461085</ele>
        <time>2026-08-29T10:19:39.000Z</time>
      </trkpt>
      <trkpt lat="44.92543" lon="5.85175">
        <ele>1080.643635</ele>
        <time>2026-08-29T10:19:40.000Z</time>
      </trkpt>
      <trkpt lat="44.9254" lon="5.85174">
        <ele>1080.860454</ele>
        <time>2026-08-29T10:19:41.000Z</time>
      </trkpt>
      <trkpt lat="44.92538" lon="5.85172">
        <ele>1081.049652</ele>
        <time>2026-08-29T10:19:42.000Z</time>
      </trkpt>
      <trkpt lat="44.92535" lon="5.85171">
        <ele>1081.230462</ele>
        <time>2026-08-29T10:19:43.000Z</time>
      </trkpt>
      <trkpt lat="44.92533" lon="5.8517">
        <ele>1081.406398</ele>
        <time>2026-08-29T10:19:44.000Z</time>
      </trkpt>
      <trkpt lat="44.92531" lon="5.85169">
        <ele>1081.590808</ele>
        <time>2026-08-29T10:19:45.000Z</time>
      </trkpt>
      <trkpt lat="44.92528" lon="5.85167">
        <ele>1081.762708</ele>
        <time>2026-08-29T10:19:46.000Z</time>
      </trkpt>
      <trkpt lat="44.92526" lon="5.85165">
        <ele>1081.951285</ele>
        <time>2026-08-29T10:19:47.000Z</time>
      </trkpt>
      <trkpt lat="44.92524" lon="5.85162">
        <ele>1082.135703</ele>
        <time>2026-08-29T10:19:48.000Z</time>
      </trkpt>
      <trkpt lat="44.92523" lon="5.85159">
        <ele>1082.320829</ele>
        <time>2026-08-29T10:19:49.000Z</time>
      </trkpt>
      <trkpt lat="44.92523" lon="5.85155">
        <ele>1082.503707</ele>
        <time>2026-08-29T10:19:50.000Z</time>
      </trkpt>
      <trkpt lat="44.92522" lon="5.85151">
        <ele>1082.706014</ele>
        <time>2026-08-29T10:19:51.000Z</time>
      </trkpt>
      <trkpt lat="44.92522" lon="5.85148">
        <ele>1082.902632</ele>
        <time>2026-08-29T10:19:52.000Z</time>
      </trkpt>
      <trkpt lat="44.92523" lon="5.85143">
        <ele>1083.141616</ele>
        <time>2026-08-29T10:19:53.000Z</time>
      </trkpt>
      <trkpt lat="44.92524" lon="5.85138">
        <ele>1083.392843</ele>
        <time>2026-08-29T10:19:54.000Z</time>
      </trkpt>
      <trkpt lat="44.92526" lon="5.85134">
        <ele>1083.623132</ele>
        <time>2026-08-29T10:19:55.000Z</time>
      </trkpt>
      <trkpt lat="44.92527" lon="5.8513">
        <ele>1083.857222</ele>
        <time>2026-08-29T10:19:56.000Z</time>
      </trkpt>
      <trkpt lat="44.92529" lon="5.85126">
        <ele>1084.115763</ele>
        <time>2026-08-29T10:19:57.000Z</time>
      </trkpt>
      <trkpt lat="44.92532" lon="5.85123">
        <ele>1084.35364</ele>
        <time>2026-08-29T10:19:58.000Z</time>
      </trkpt>
      <trkpt lat="44.92534" lon="5.8512">
        <ele>1084.577145</ele>
        <time>2026-08-29T10:19:59.000Z</time>
      </trkpt>
      <trkpt lat="44.92537" lon="5.85118">
        <ele>1084.815124</ele>
        <time>2026-08-29T10:20:00.000Z</time>
      </trkpt>
      <trkpt lat="44.9254" lon="5.85115">
        <ele>1085.015627</ele>
        <time>2026-08-29T10:20:01.000Z</time>
      </trkpt>
      <trkpt lat="44.92541" lon="5.85114">
        <ele>1085.18096</ele>
        <time>2026-08-29T10:20:02.000Z</time>
      </trkpt>
      <trkpt lat="44.92543" lon="5.85112">
        <ele>1085.349248</ele>
        <time>2026-08-29T10:20:03.000Z</time>
      </trkpt>
      <trkpt lat="44.92545" lon="5.8511">
        <ele>1085.508981</ele>
        <time>2026-08-29T10:20:04.000Z</time>
      </trkpt>
      <trkpt lat="44.92547" lon="5.85108">
        <ele>1085.669801</ele>
        <time>2026-08-29T10:20:05.000Z</time>
      </trkpt>
      <trkpt lat="44.92549" lon="5.85107">
        <ele>1085.828326</ele>
        <time>2026-08-29T10:20:06.000Z</time>
      </trkpt>
      <trkpt lat="44.92551" lon="5.85106">
        <ele>1085.980521</ele>
        <time>2026-08-29T10:20:07.000Z</time>
      </trkpt>
      <trkpt lat="44.92553" lon="5.85104">
        <ele>1086.125602</ele>
        <time>2026-08-29T10:20:08.000Z</time>
      </trkpt>
      <trkpt lat="44.92555" lon="5.85103">
        <ele>1086.260572</ele>
        <time>2026-08-29T10:20:09.000Z</time>
      </trkpt>
      <trkpt lat="44.92556" lon="5.85101">
        <ele>1086.404149</ele>
        <time>2026-08-29T10:20:10.000Z</time>
      </trkpt>
      <trkpt lat="44.92558" lon="5.851">
        <ele>1086.546504</ele>
        <time>2026-08-29T10:20:11.000Z</time>
      </trkpt>
      <trkpt lat="44.9256" lon="5.85099">
        <ele>1086.698698</ele>
        <time>2026-08-29T10:20:12.000Z</time>
      </trkpt>
      <trkpt lat="44.92562" lon="5.85097">
        <ele>1086.848633</ele>
        <time>2026-08-29T10:20:13.000Z</time>
      </trkpt>
      <trkpt lat="44.92563" lon="5.85096">
        <ele>1086.979723</ele>
        <time>2026-08-29T10:20:14.000Z</time>
      </trkpt>
      <trkpt lat="44.92565" lon="5.85095">
        <ele>1087.125658</ele>
        <time>2026-08-29T10:20:15.000Z</time>
      </trkpt>
      <trkpt lat="44.92567" lon="5.85093">
        <ele>1087.282015</ele>
        <time>2026-08-29T10:20:16.000Z</time>
      </trkpt>
      <trkpt lat="44.92569" lon="5.85092">
        <ele>1087.441747</ele>
        <time>2026-08-29T10:20:17.000Z</time>
      </trkpt>
      <trkpt lat="44.92571" lon="5.8509">
        <ele>1087.590203</ele>
        <time>2026-08-29T10:20:18.000Z</time>
      </trkpt>
      <trkpt lat="44.92572" lon="5.85087">
        <ele>1087.757388</ele>
        <time>2026-08-29T10:20:19.000Z</time>
      </trkpt>
      <trkpt lat="44.92574" lon="5.85086">
        <ele>1087.911168</ele>
        <time>2026-08-29T10:20:20.000Z</time>
      </trkpt>
      <trkpt lat="44.92576" lon="5.85083">
        <ele>1088.068404</ele>
        <time>2026-08-29T10:20:21.000Z</time>
      </trkpt>
      <trkpt lat="44.92578" lon="5.85082">
        <ele>1088.214339</ele>
        <time>2026-08-29T10:20:22.000Z</time>
      </trkpt>
      <trkpt lat="44.92579" lon="5.8508">
        <ele>1088.35942</ele>
        <time>2026-08-29T10:20:23.000Z</time>
      </trkpt>
      <trkpt lat="44.92581" lon="5.85078">
        <ele>1088.492278</ele>
        <time>2026-08-29T10:20:24.000Z</time>
      </trkpt>
      <trkpt lat="44.92582" lon="5.85077">
        <ele>1088.620302</ele>
        <time>2026-08-29T10:20:25.000Z</time>
      </trkpt>
      <trkpt lat="44.92583" lon="5.85075">
        <ele>1088.736102</ele>
        <time>2026-08-29T10:20:26.000Z</time>
      </trkpt>
      <trkpt lat="44.92584" lon="5.85073">
        <ele>1088.881372</ele>
        <time>2026-08-29T10:20:27.000Z</time>
      </trkpt>
      <trkpt lat="44.92586" lon="5.85071">
        <ele>1089.014867</ele>
        <time>2026-08-29T10:20:28.000Z</time>
      </trkpt>
      <trkpt lat="44.92587" lon="5.85069">
        <ele>1089.157162</ele>
        <time>2026-08-29T10:20:29.000Z</time>
      </trkpt>
      <trkpt lat="44.92589" lon="5.85068">
        <ele>1089.322093</ele>
        <time>2026-08-29T10:20:30.000Z</time>
      </trkpt>
      <trkpt lat="44.9259" lon="5.85066">
        <ele>1089.47221</ele>
        <time>2026-08-29T10:20:31.000Z</time>
      </trkpt>
      <trkpt lat="44.92591" lon="5.85064">
        <ele>1089.634567</ele>
        <time>2026-08-29T10:20:32.000Z</time>
      </trkpt>
      <trkpt lat="44.92593" lon="5.85062">
        <ele>1089.794997</ele>
        <time>2026-08-29T10:20:33.000Z</time>
      </trkpt>
      <trkpt lat="44.92594" lon="5.8506">
        <ele>1089.977204</ele>
        <time>2026-08-29T10:20:34.000Z</time>
      </trkpt>
      <trkpt lat="44.92596" lon="5.85059">
        <ele>1090.138404</ele>
        <time>2026-08-29T10:20:35.000Z</time>
      </trkpt>
      <trkpt lat="44.92597" lon="5.85057">
        <ele>1090.292847</ele>
        <time>2026-08-29T10:20:36.000Z</time>
      </trkpt>
      <trkpt lat="44.92599" lon="5.85055">
        <ele>1090.461643</ele>
        <time>2026-08-29T10:20:37.000Z</time>
      </trkpt>
      <trkpt lat="44.926" lon="5.85054">
        <ele>1090.616086</ele>
        <time>2026-08-29T10:20:38.000Z</time>
      </trkpt>
      <trkpt lat="44.92601" lon="5.85052">
        <ele>1090.757608</ele>
        <time>2026-08-29T10:20:39.000Z</time>
      </trkpt>
      <trkpt lat="44.92602" lon="5.8505">
        <ele>1090.911379</ele>
        <time>2026-08-29T10:20:40.000Z</time>
      </trkpt>
      <trkpt lat="44.92604" lon="5.85049">
        <ele>1091.066737</ele>
        <time>2026-08-29T10:20:41.000Z</time>
      </trkpt>
      <trkpt lat="44.92605" lon="5.85047">
        <ele>1091.231588</ele>
        <time>2026-08-29T10:20:42.000Z</time>
      </trkpt>
      <trkpt lat="44.92607" lon="5.85045">
        <ele>1091.410854</ele>
        <time>2026-08-29T10:20:43.000Z</time>
      </trkpt>
      <trkpt lat="44.92608" lon="5.85043">
        <ele>1091.581621</ele>
        <time>2026-08-29T10:20:44.000Z</time>
      </trkpt>
      <trkpt lat="44.9261" lon="5.85041">
        <ele>1091.737742</ele>
        <time>2026-08-29T10:20:45.000Z</time>
      </trkpt>
      <trkpt lat="44.92611" lon="5.8504">
        <ele>1091.906539</ele>
        <time>2026-08-29T10:20:46.000Z</time>
      </trkpt>
      <trkpt lat="44.92612" lon="5.85038">
        <ele>1092.068895</ele>
        <time>2026-08-29T10:20:47.000Z</time>
      </trkpt>
      <trkpt lat="44.92614" lon="5.85036">
        <ele>1092.214651</ele>
        <time>2026-08-29T10:20:48.000Z</time>
      </trkpt>
      <trkpt lat="44.92615" lon="5.85034">
        <ele>1092.373261</ele>
        <time>2026-08-29T10:20:49.000Z</time>
      </trkpt>
      <trkpt lat="44.92616" lon="5.85032">
        <ele>1092.533691</ele>
        <time>2026-08-29T10:20:50.000Z</time>
      </trkpt>
      <trkpt lat="44.92617" lon="5.8503">
        <ele>1092.689813</ele>
        <time>2026-08-29T10:20:51.000Z</time>
      </trkpt>
      <trkpt lat="44.92619" lon="5.85029">
        <ele>1092.841745</ele>
        <time>2026-08-29T10:20:52.000Z</time>
      </trkpt>
      <trkpt lat="44.9262" lon="5.85027">
        <ele>1093.016937</ele>
        <time>2026-08-29T10:20:53.000Z</time>
      </trkpt>
      <trkpt lat="44.92621" lon="5.85025">
        <ele>1093.180468</ele>
        <time>2026-08-29T10:20:54.000Z</time>
      </trkpt>
      <trkpt lat="44.92623" lon="5.85023">
        <ele>1093.320301</ele>
        <time>2026-08-29T10:20:55.000Z</time>
      </trkpt>
      <trkpt lat="44.92624" lon="5.85021">
        <ele>1093.513011</ele>
        <time>2026-08-29T10:20:56.000Z</time>
      </trkpt>
      <trkpt lat="44.92626" lon="5.85019">
        <ele>1093.675367</ele>
        <time>2026-08-29T10:20:57.000Z</time>
      </trkpt>
      <trkpt lat="44.92627" lon="5.85017">
        <ele>1093.848157</ele>
        <time>2026-08-29T10:20:58.000Z</time>
      </trkpt>
      <trkpt lat="44.92629" lon="5.85015">
        <ele>1094.013007</ele>
        <time>2026-08-29T10:20:59.000Z</time>
      </trkpt>
      <trkpt lat="44.9263" lon="5.85014">
        <ele>1094.175363</ele>
        <time>2026-08-29T10:21:00.000Z</time>
      </trkpt>
      <trkpt lat="44.92632" lon="5.85012">
        <ele>1094.358595</ele>
        <time>2026-08-29T10:21:01.000Z</time>
      </trkpt>
      <trkpt lat="44.92633" lon="5.8501">
        <ele>1094.548334</ele>
        <time>2026-08-29T10:21:02.000Z</time>
      </trkpt>
      <trkpt lat="44.92635" lon="5.85008">
        <ele>1094.720233</ele>
        <time>2026-08-29T10:21:03.000Z</time>
      </trkpt>
      <trkpt lat="44.92636" lon="5.85007">
        <ele>1094.86734</ele>
        <time>2026-08-29T10:21:04.000Z</time>
      </trkpt>
      <trkpt lat="44.92638" lon="5.85005">
        <ele>1095.03219</ele>
        <time>2026-08-29T10:21:05.000Z</time>
      </trkpt>
      <trkpt lat="44.92639" lon="5.85003">
        <ele>1095.189805</ele>
        <time>2026-08-29T10:21:06.000Z</time>
      </trkpt>
      <trkpt lat="44.9264" lon="5.85002">
        <ele>1095.329638</ele>
        <time>2026-08-29T10:21:07.000Z</time>
      </trkpt>
      <trkpt lat="44.92641" lon="5.84999">
        <ele>1095.488247</ele>
        <time>2026-08-29T10:21:08.000Z</time>
      </trkpt>
      <trkpt lat="44.92643" lon="5.84998">
        <ele>1095.65995</ele>
        <time>2026-08-29T10:21:09.000Z</time>
      </trkpt>
      <trkpt lat="44.92644" lon="5.84995">
        <ele>1095.838643</ele>
        <time>2026-08-29T10:21:10.000Z</time>
      </trkpt>
      <trkpt lat="44.92645" lon="5.84993">
        <ele>1096.002498</ele>
        <time>2026-08-29T10:21:11.000Z</time>
      </trkpt>
      <trkpt lat="44.92647" lon="5.84991">
        <ele>1096.173265</ele>
        <time>2026-08-29T10:21:12.000Z</time>
      </trkpt>
      <trkpt lat="44.92648" lon="5.8499">
        <ele>1096.342061</ele>
        <time>2026-08-29T10:21:13.000Z</time>
      </trkpt>
      <trkpt lat="44.9265" lon="5.84988">
        <ele>1096.513763</ele>
        <time>2026-08-29T10:21:14.000Z</time>
      </trkpt>
      <trkpt lat="44.92652" lon="5.84986">
        <ele>1096.696995</ele>
        <time>2026-08-29T10:21:15.000Z</time>
      </trkpt>
      <trkpt lat="44.92653" lon="5.84984">
        <ele>1096.875625</ele>
        <time>2026-08-29T10:21:16.000Z</time>
      </trkpt>
      <trkpt lat="44.92655" lon="5.84982">
        <ele>1097.061536</ele>
        <time>2026-08-29T10:21:17.000Z</time>
      </trkpt>
      <trkpt lat="44.92656" lon="5.8498">
        <ele>1097.226386</ele>
        <time>2026-08-29T10:21:18.000Z</time>
      </trkpt>
      <trkpt lat="44.92658" lon="5.84978">
        <ele>1097.403287</ele>
        <time>2026-08-29T10:21:19.000Z</time>
      </trkpt>
      <trkpt lat="44.92659" lon="5.84976">
        <ele>1097.578706</ele>
        <time>2026-08-29T10:21:20.000Z</time>
      </trkpt>
      <trkpt lat="44.92661" lon="5.84974">
        <ele>1097.749472</ele>
        <time>2026-08-29T10:21:21.000Z</time>
      </trkpt>
      <trkpt lat="44.92662" lon="5.84972">
        <ele>1097.926373</ele>
        <time>2026-08-29T10:21:22.000Z</time>
      </trkpt>
      <trkpt lat="44.92664" lon="5.84971">
        <ele>1098.084705</ele>
        <time>2026-08-29T10:21:23.000Z</time>
      </trkpt>
      <trkpt lat="44.92665" lon="5.84969">
        <ele>1098.273843</ele>
        <time>2026-08-29T10:21:24.000Z</time>
      </trkpt>
      <trkpt lat="44.92667" lon="5.84967">
        <ele>1098.444609</ele>
        <time>2026-08-29T10:21:25.000Z</time>
      </trkpt>
      <trkpt lat="44.92668" lon="5.84965">
        <ele>1098.605808</ele>
        <time>2026-08-29T10:21:26.000Z</time>
      </trkpt>
      <trkpt lat="44.9267" lon="5.84964">
        <ele>1098.767218</ele>
        <time>2026-08-29T10:21:27.000Z</time>
      </trkpt>
      <trkpt lat="44.92672" lon="5.84962">
        <ele>1098.942637</ele>
        <time>2026-08-29T10:21:28.000Z</time>
      </trkpt>
      <trkpt lat="44.92673" lon="5.84961">
        <ele>1099.125027</ele>
        <time>2026-08-29T10:21:29.000Z</time>
      </trkpt>
      <trkpt lat="44.92675" lon="5.84959">
        <ele>1099.300446</ele>
        <time>2026-08-29T10:21:30.000Z</time>
      </trkpt>
      <trkpt lat="44.92677" lon="5.84957">
        <ele>1099.472148</ele>
        <time>2026-08-29T10:21:31.000Z</time>
      </trkpt>
      <trkpt lat="44.92678" lon="5.84956">
        <ele>1099.644046</ele>
        <time>2026-08-29T10:21:32.000Z</time>
      </trkpt>
      <trkpt lat="44.92679" lon="5.84954">
        <ele>1099.794163</ele>
        <time>2026-08-29T10:21:33.000Z</time>
      </trkpt>
      <trkpt lat="44.92681" lon="5.84952">
        <ele>1099.944859</ele>
        <time>2026-08-29T10:21:34.000Z</time>
      </trkpt>
      <trkpt lat="44.92682" lon="5.8495">
        <ele>1100.109709</ele>
        <time>2026-08-29T10:21:35.000Z</time>
      </trkpt>
      <trkpt lat="44.92683" lon="5.84948">
        <ele>1100.268884</ele>
        <time>2026-08-29T10:21:36.000Z</time>
      </trkpt>
      <trkpt lat="44.92685" lon="5.84946">
        <ele>1100.435387</ele>
        <time>2026-08-29T10:21:37.000Z</time>
      </trkpt>
      <trkpt lat="44.92686" lon="5.84944">
        <ele>1100.610523</ele>
        <time>2026-08-29T10:21:38.000Z</time>
      </trkpt>
      <trkpt lat="44.92688" lon="5.84942">
        <ele>1100.80039</ele>
        <time>2026-08-29T10:21:39.000Z</time>
      </trkpt>
      <trkpt lat="44.92689" lon="5.8494">
        <ele>1100.975809</ele>
        <time>2026-08-29T10:21:40.000Z</time>
      </trkpt>
      <trkpt lat="44.92691" lon="5.84938">
        <ele>1101.180427</ele>
        <time>2026-08-29T10:21:41.000Z</time>
      </trkpt>
      <trkpt lat="44.92693" lon="5.84936">
        <ele>1101.38364</ele>
        <time>2026-08-29T10:21:42.000Z</time>
      </trkpt>
      <trkpt lat="44.92694" lon="5.84933">
        <ele>1101.583795</ele>
        <time>2026-08-29T10:21:43.000Z</time>
      </trkpt>
      <trkpt lat="44.92696" lon="5.84931">
        <ele>1101.773662</ele>
        <time>2026-08-29T10:21:44.000Z</time>
      </trkpt>
      <trkpt lat="44.92697" lon="5.84929">
        <ele>1101.959109</ele>
        <time>2026-08-29T10:21:45.000Z</time>
      </trkpt>
      <trkpt lat="44.92699" lon="5.84926">
        <ele>1102.142585</ele>
        <time>2026-08-29T10:21:46.000Z</time>
      </trkpt>
      <trkpt lat="44.927" lon="5.84924">
        <ele>1102.319486</ele>
        <time>2026-08-29T10:21:47.000Z</time>
      </trkpt>
      <trkpt lat="44.92702" lon="5.84923">
        <ele>1102.501875</ele>
        <time>2026-08-29T10:21:48.000Z</time>
      </trkpt>
      <trkpt lat="44.92703" lon="5.8492">
        <ele>1102.685352</ele>
        <time>2026-08-29T10:21:49.000Z</time>
      </trkpt>
      <trkpt lat="44.92705" lon="5.84918">
        <ele>1102.864616</ele>
        <time>2026-08-29T10:21:50.000Z</time>
      </trkpt>
      <trkpt lat="44.92707" lon="5.84917">
        <ele>1103.039807</ele>
        <time>2026-08-29T10:21:51.000Z</time>
      </trkpt>
      <trkpt lat="44.92708" lon="5.84915">
        <ele>1103.222012</ele>
        <time>2026-08-29T10:21:52.000Z</time>
      </trkpt>
      <trkpt lat="44.9271" lon="5.84913">
        <ele>1103.403134</ele>
        <time>2026-08-29T10:21:53.000Z</time>
      </trkpt>
      <trkpt lat="44.92711" lon="5.84911">
        <ele>1103.57193</ele>
        <time>2026-08-29T10:21:54.000Z</time>
      </trkpt>
      <trkpt lat="44.92713" lon="5.84909">
        <ele>1103.74883</ele>
        <time>2026-08-29T10:21:55.000Z</time>
      </trkpt>
      <trkpt lat="44.92714" lon="5.84907">
        <ele>1103.942092</ele>
        <time>2026-08-29T10:21:56.000Z</time>
      </trkpt>
      <trkpt lat="44.92715" lon="5.84905">
        <ele>1104.112857</ele>
        <time>2026-08-29T10:21:57.000Z</time>
      </trkpt>
      <trkpt lat="44.92717" lon="5.84902">
        <ele>1104.308636</ele>
        <time>2026-08-29T10:21:58.000Z</time>
      </trkpt>
      <trkpt lat="44.92719" lon="5.849">
        <ele>1104.50504</ele>
        <time>2026-08-29T10:21:59.000Z</time>
      </trkpt>
      <trkpt lat="44.9272" lon="5.84898">
        <ele>1104.701861</ele>
        <time>2026-08-29T10:22:00.000Z</time>
      </trkpt>
      <trkpt lat="44.92722" lon="5.84896">
        <ele>1104.912873</ele>
        <time>2026-08-29T10:22:01.000Z</time>
      </trkpt>
      <trkpt lat="44.92723" lon="5.84893">
        <ele>1105.088722</ele>
        <time>2026-08-29T10:22:02.000Z</time>
      </trkpt>
      <trkpt lat="44.92725" lon="5.84891">
        <ele>1105.290417</ele>
        <time>2026-08-29T10:22:03.000Z</time>
      </trkpt>
      <trkpt lat="44.92726" lon="5.84888">
        <ele>1105.471583</ele>
        <time>2026-08-29T10:22:04.000Z</time>
      </trkpt>
      <trkpt lat="44.92727" lon="5.84886">
        <ele>1105.652724</ele>
        <time>2026-08-29T10:22:05.000Z</time>
      </trkpt>
      <trkpt lat="44.92728" lon="5.84883">
        <ele>1105.838626</ele>
        <time>2026-08-29T10:22:06.000Z</time>
      </trkpt>
      <trkpt lat="44.92729" lon="5.84881">
        <ele>1106.024467</ele>
        <time>2026-08-29T10:22:07.000Z</time>
      </trkpt>
      <trkpt lat="44.92731" lon="5.84878">
        <ele>1106.230451</ele>
        <time>2026-08-29T10:22:08.000Z</time>
      </trkpt>
      <trkpt lat="44.92732" lon="5.84876">
        <ele>1106.42749</ele>
        <time>2026-08-29T10:22:09.000Z</time>
      </trkpt>
      <trkpt lat="44.92734" lon="5.84873">
        <ele>1106.618888</ele>
        <time>2026-08-29T10:22:10.000Z</time>
      </trkpt>
      <trkpt lat="44.92735" lon="5.8487">
        <ele>1106.825629</ele>
        <time>2026-08-29T10:22:11.000Z</time>
      </trkpt>
      <trkpt lat="44.92736" lon="5.84868">
        <ele>1107.002361</ele>
        <time>2026-08-29T10:22:12.000Z</time>
      </trkpt>
      <trkpt lat="44.92737" lon="5.84865">
        <ele>1107.188263</ele>
        <time>2026-08-29T10:22:13.000Z</time>
      </trkpt>
      <trkpt lat="44.92738" lon="5.84863">
        <ele>1107.374164</ele>
        <time>2026-08-29T10:22:14.000Z</time>
      </trkpt>
      <trkpt lat="44.92739" lon="5.84861">
        <ele>1107.545097</ele>
        <time>2026-08-29T10:22:15.000Z</time>
      </trkpt>
      <trkpt lat="44.92741" lon="5.84858">
        <ele>1107.721469</ele>
        <time>2026-08-29T10:22:16.000Z</time>
      </trkpt>
      <trkpt lat="44.92741" lon="5.84856">
        <ele>1107.895956</ele>
        <time>2026-08-29T10:22:17.000Z</time>
      </trkpt>
      <trkpt lat="44.92743" lon="5.84853">
        <ele>1108.076796</ele>
        <time>2026-08-29T10:22:18.000Z</time>
      </trkpt>
      <trkpt lat="44.92744" lon="5.84851">
        <ele>1108.273886</ele>
        <time>2026-08-29T10:22:19.000Z</time>
      </trkpt>
      <trkpt lat="44.92745" lon="5.84848">
        <ele>1108.445578</ele>
        <time>2026-08-29T10:22:20.000Z</time>
      </trkpt>
      <trkpt lat="44.92746" lon="5.84846">
        <ele>1108.622551</ele>
        <time>2026-08-29T10:22:21.000Z</time>
      </trkpt>
      <trkpt lat="44.92747" lon="5.84843">
        <ele>1108.7984</ele>
        <time>2026-08-29T10:22:22.000Z</time>
      </trkpt>
      <trkpt lat="44.92748" lon="5.84841">
        <ele>1108.984821</ele>
        <time>2026-08-29T10:22:23.000Z</time>
      </trkpt>
      <trkpt lat="44.92749" lon="5.84839">
        <ele>1109.166886</ele>
        <time>2026-08-29T10:22:24.000Z</time>
      </trkpt>
      <trkpt lat="44.92751" lon="5.84836">
        <ele>1109.362796</ele>
        <time>2026-08-29T10:22:25.000Z</time>
      </trkpt>
      <trkpt lat="44.92752" lon="5.84833">
        <ele>1109.549218</ele>
        <time>2026-08-29T10:22:26.000Z</time>
      </trkpt>
      <trkpt lat="44.92753" lon="5.84831">
        <ele>1109.74078</ele>
        <time>2026-08-29T10:22:27.000Z</time>
      </trkpt>
      <trkpt lat="44.92754" lon="5.84828">
        <ele>1109.933802</ele>
        <time>2026-08-29T10:22:28.000Z</time>
      </trkpt>
      <trkpt lat="44.92755" lon="5.84825">
        <ele>1110.105201</ele>
        <time>2026-08-29T10:22:29.000Z</time>
      </trkpt>
      <trkpt lat="44.92756" lon="5.84823">
        <ele>1110.302291</ele>
        <time>2026-08-29T10:22:30.000Z</time>
      </trkpt>
      <trkpt lat="44.92757" lon="5.8482">
        <ele>1110.473125</ele>
        <time>2026-08-29T10:22:31.000Z</time>
      </trkpt>
      <trkpt lat="44.92758" lon="5.84818">
        <ele>1110.65524</ele>
        <time>2026-08-29T10:22:32.000Z</time>
      </trkpt>
      <trkpt lat="44.92759" lon="5.84816">
        <ele>1110.834564</ele>
        <time>2026-08-29T10:22:33.000Z</time>
      </trkpt>
      <trkpt lat="44.9276" lon="5.84813">
        <ele>1111.026126</ele>
        <time>2026-08-29T10:22:34.000Z</time>
      </trkpt>
      <trkpt lat="44.92761" lon="5.8481">
        <ele>1111.200612</ele>
        <time>2026-08-29T10:22:35.000Z</time>
      </trkpt>
      <trkpt lat="44.92762" lon="5.84808">
        <ele>1111.366736</ele>
        <time>2026-08-29T10:22:36.000Z</time>
      </trkpt>
      <trkpt lat="44.92763" lon="5.84805">
        <ele>1111.530006</ele>
        <time>2026-08-29T10:22:37.000Z</time>
      </trkpt>
      <trkpt lat="44.92764" lon="5.84803">
        <ele>1111.705974</ele>
        <time>2026-08-29T10:22:38.000Z</time>
      </trkpt>
      <trkpt lat="44.92765" lon="5.84801">
        <ele>1111.857062</ele>
        <time>2026-08-29T10:22:39.000Z</time>
      </trkpt>
      <trkpt lat="44.92766" lon="5.84799">
        <ele>1112.02422</ele>
        <time>2026-08-29T10:22:40.000Z</time>
      </trkpt>
      <trkpt lat="44.92766" lon="5.84796">
        <ele>1112.212799</ele>
        <time>2026-08-29T10:22:41.000Z</time>
      </trkpt>
      <trkpt lat="44.92768" lon="5.84794">
        <ele>1112.378898</ele>
        <time>2026-08-29T10:22:42.000Z</time>
      </trkpt>
      <trkpt lat="44.92768" lon="5.84791">
        <ele>1112.561663</ele>
        <time>2026-08-29T10:22:43.000Z</time>
      </trkpt>
      <trkpt lat="44.92769" lon="5.84788">
        <ele>1112.736148</ele>
        <time>2026-08-29T10:22:44.000Z</time>
      </trkpt>
      <trkpt lat="44.9277" lon="5.84786">
        <ele>1112.922569</ele>
        <time>2026-08-29T10:22:45.000Z</time>
      </trkpt>
      <trkpt lat="44.92771" lon="5.84783">
        <ele>1113.093968</ele>
        <time>2026-08-29T10:22:46.000Z</time>
      </trkpt>
      <trkpt lat="44.92772" lon="5.84781">
        <ele>1113.269936</ele>
        <time>2026-08-29T10:22:47.000Z</time>
      </trkpt>
      <trkpt lat="44.92773" lon="5.84778">
        <ele>1113.464822</ele>
        <time>2026-08-29T10:22:48.000Z</time>
      </trkpt>
      <trkpt lat="44.92774" lon="5.84775">
        <ele>1113.64079</ele>
        <time>2026-08-29T10:22:49.000Z</time>
      </trkpt>
      <trkpt lat="44.92775" lon="5.84773">
        <ele>1113.806914</ele>
        <time>2026-08-29T10:22:50.000Z</time>
      </trkpt>
      <trkpt lat="44.92776" lon="5.8477">
        <ele>1113.990592</ele>
        <time>2026-08-29T10:22:51.000Z</time>
      </trkpt>
      <trkpt lat="44.92777" lon="5.84768">
        <ele>1114.177013</ele>
        <time>2026-08-29T10:22:52.000Z</time>
      </trkpt>
      <trkpt lat="44.92778" lon="5.84765">
        <ele>1114.364905</ele>
        <time>2026-08-29T10:22:53.000Z</time>
      </trkpt>
      <trkpt lat="44.92778" lon="5.84762">
        <ele>1114.556776</ele>
        <time>2026-08-29T10:22:54.000Z</time>
      </trkpt>
      <trkpt lat="44.92779" lon="5.84759">
        <ele>1114.733749</ele>
        <time>2026-08-29T10:22:55.000Z</time>
      </trkpt>
      <trkpt lat="44.9278" lon="5.84757">
        <ele>1114.909596</ele>
        <time>2026-08-29T10:22:56.000Z</time>
      </trkpt>
      <trkpt lat="44.92781" lon="5.84754">
        <ele>1115.086327</ele>
        <time>2026-08-29T10:22:57.000Z</time>
      </trkpt>
      <trkpt lat="44.92782" lon="5.84752">
        <ele>1115.264456</ele>
        <time>2026-08-29T10:22:58.000Z</time>
      </trkpt>
      <trkpt lat="44.92783" lon="5.84749">
        <ele>1115.437076</ele>
        <time>2026-08-29T10:22:59.000Z</time>
      </trkpt>
      <trkpt lat="44.92784" lon="5.84746">
        <ele>1115.630097</ele>
        <time>2026-08-29T10:23:00.000Z</time>
      </trkpt>
      <trkpt lat="44.92785" lon="5.84744">
        <ele>1115.808226</ele>
        <time>2026-08-29T10:23:01.000Z</time>
      </trkpt>
      <trkpt lat="44.92785" lon="5.84741">
        <ele>1115.988282</ele>
        <time>2026-08-29T10:23:02.000Z</time>
      </trkpt>
      <trkpt lat="44.92786" lon="5.84738">
        <ele>1116.176861</ele>
        <time>2026-08-29T10:23:03.000Z</time>
      </trkpt>
      <trkpt lat="44.92787" lon="5.84736">
        <ele>1116.353592</ele>
        <time>2026-08-29T10:23:04.000Z</time>
      </trkpt>
      <trkpt lat="44.92788" lon="5.84733">
        <ele>1116.52499</ele>
        <time>2026-08-29T10:23:05.000Z</time>
      </trkpt>
      <trkpt lat="44.92789" lon="5.84731">
        <ele>1116.712536</ele>
        <time>2026-08-29T10:23:06.000Z</time>
      </trkpt>
      <trkpt lat="44.9279" lon="5.84728">
        <ele>1116.896214</ele>
        <time>2026-08-29T10:23:07.000Z</time>
      </trkpt>
      <trkpt lat="44.92791" lon="5.84725">
        <ele>1117.082635</ele>
        <time>2026-08-29T10:23:08.000Z</time>
      </trkpt>
      <trkpt lat="44.92792" lon="5.84722">
        <ele>1117.274196</ele>
        <time>2026-08-29T10:23:09.000Z</time>
      </trkpt>
      <trkpt lat="44.92792" lon="5.8472">
        <ele>1117.447406</ele>
        <time>2026-08-29T10:23:10.000Z</time>
      </trkpt>
      <trkpt lat="44.92793" lon="5.84717">
        <ele>1117.616264</ele>
        <time>2026-08-29T10:23:11.000Z</time>
      </trkpt>
      <trkpt lat="44.92794" lon="5.84715">
        <ele>1117.785122</ele>
        <time>2026-08-29T10:23:12.000Z</time>
      </trkpt>
      <trkpt lat="44.92795" lon="5.84712">
        <ele>1117.965268</ele>
        <time>2026-08-29T10:23:13.000Z</time>
      </trkpt>
      <trkpt lat="44.92795" lon="5.84709">
        <ele>1118.128537</ele>
        <time>2026-08-29T10:23:14.000Z</time>
      </trkpt>
      <trkpt lat="44.92796" lon="5.84707">
        <ele>1118.289448</ele>
        <time>2026-08-29T10:23:15.000Z</time>
      </trkpt>
      <trkpt lat="44.92798" lon="5.84705">
        <ele>1118.460379</ele>
        <time>2026-08-29T10:23:16.000Z</time>
      </trkpt>
      <trkpt lat="44.92798" lon="5.84702">
        <ele>1118.634554</ele>
        <time>2026-08-29T10:23:17.000Z</time>
      </trkpt>
      <trkpt lat="44.92799" lon="5.847">
        <ele>1118.802865</ele>
        <time>2026-08-29T10:23:18.000Z</time>
      </trkpt>
      <trkpt lat="44.92799" lon="5.84697">
        <ele>1118.971177</ele>
        <time>2026-08-29T10:23:19.000Z</time>
      </trkpt>
      <trkpt lat="44.928" lon="5.84695">
        <ele>1119.139489</ele>
        <time>2026-08-29T10:23:20.000Z</time>
      </trkpt>
      <trkpt lat="44.92801" lon="5.84692">
        <ele>1119.313663</ele>
        <time>2026-08-29T10:23:21.000Z</time>
      </trkpt>
      <trkpt lat="44.92801" lon="5.84689">
        <ele>1119.486283</ele>
        <time>2026-08-29T10:23:22.000Z</time>
      </trkpt>
      <trkpt lat="44.92802" lon="5.84687">
        <ele>1119.657682</ele>
        <time>2026-08-29T10:23:23.000Z</time>
      </trkpt>
      <trkpt lat="44.92803" lon="5.84685">
        <ele>1119.818592</ele>
        <time>2026-08-29T10:23:24.000Z</time>
      </trkpt>
      <trkpt lat="44.92804" lon="5.84682">
        <ele>1119.969457</ele>
        <time>2026-08-29T10:23:25.000Z</time>
      </trkpt>
      <trkpt lat="44.92805" lon="5.8468">
        <ele>1120.132726</ele>
        <time>2026-08-29T10:23:26.000Z</time>
      </trkpt>
      <trkpt lat="44.92806" lon="5.84678">
        <ele>1120.300379</ele>
        <time>2026-08-29T10:23:27.000Z</time>
      </trkpt>
      <trkpt lat="44.92806" lon="5.84675">
        <ele>1120.47457</ele>
        <time>2026-08-29T10:23:28.000Z</time>
      </trkpt>
      <trkpt lat="44.92807" lon="5.84673">
        <ele>1120.6316</ele>
        <time>2026-08-29T10:23:29.000Z</time>
      </trkpt>
      <trkpt lat="44.92808" lon="5.8467">
        <ele>1120.823308</ele>
        <time>2026-08-29T10:23:30.000Z</time>
      </trkpt>
      <trkpt lat="44.92809" lon="5.84668">
        <ele>1121.00138</ele>
        <time>2026-08-29T10:23:31.000Z</time>
      </trkpt>
      <trkpt lat="44.9281" lon="5.84665">
        <ele>1121.183941</ele>
        <time>2026-08-29T10:23:32.000Z</time>
      </trkpt>
      <trkpt lat="44.92811" lon="5.84662">
        <ele>1121.366253</ele>
        <time>2026-08-29T10:23:33.000Z</time>
      </trkpt>
      <trkpt lat="44.92812" lon="5.8466">
        <ele>1121.55314</ele>
        <time>2026-08-29T10:23:34.000Z</time>
      </trkpt>
      <trkpt lat="44.92813" lon="5.84657">
        <ele>1121.738976</ele>
        <time>2026-08-29T10:23:35.000Z</time>
      </trkpt>
      <trkpt lat="44.92813" lon="5.84654">
        <ele>1121.920337</ele>
        <time>2026-08-29T10:23:36.000Z</time>
      </trkpt>
      <trkpt lat="44.92814" lon="5.84652">
        <ele>1122.106079</ele>
        <time>2026-08-29T10:23:37.000Z</time>
      </trkpt>
      <trkpt lat="44.92814" lon="5.84649">
        <ele>1122.299904</ele>
        <time>2026-08-29T10:23:38.000Z</time>
      </trkpt>
      <trkpt lat="44.92814" lon="5.84646">
        <ele>1122.495587</ele>
        <time>2026-08-29T10:23:39.000Z</time>
      </trkpt>
      <trkpt lat="44.92815" lon="5.84643">
        <ele>1122.65832</ele>
        <time>2026-08-29T10:23:40.000Z</time>
      </trkpt>
      <trkpt lat="44.92815" lon="5.8464">
        <ele>1122.838122</ele>
        <time>2026-08-29T10:23:41.000Z</time>
      </trkpt>
      <trkpt lat="44.92816" lon="5.84638">
        <ele>1123.023864</ele>
        <time>2026-08-29T10:23:42.000Z</time>
      </trkpt>
      <trkpt lat="44.92816" lon="5.84635">
        <ele>1123.215692</ele>
        <time>2026-08-29T10:23:43.000Z</time>
      </trkpt>
      <trkpt lat="44.92817" lon="5.84632">
        <ele>1123.394373</ele>
        <time>2026-08-29T10:23:44.000Z</time>
      </trkpt>
      <trkpt lat="44.92817" lon="5.84629">
        <ele>1123.559452</ele>
        <time>2026-08-29T10:23:45.000Z</time>
      </trkpt>
      <trkpt lat="44.92817" lon="5.84627">
        <ele>1123.731115</ele>
        <time>2026-08-29T10:23:46.000Z</time>
      </trkpt>
      <trkpt lat="44.92817" lon="5.84624">
        <ele>1123.921802</ele>
        <time>2026-08-29T10:23:47.000Z</time>
      </trkpt>
      <trkpt lat="44.92817" lon="5.84621">
        <ele>1124.093231</ele>
        <time>2026-08-29T10:23:48.000Z</time>
      </trkpt>
      <trkpt lat="44.92816" lon="5.84618">
        <ele>1124.265596</ele>
        <time>2026-08-29T10:23:49.000Z</time>
      </trkpt>
      <trkpt lat="44.92816" lon="5.84616">
        <ele>1124.431646</ele>
        <time>2026-08-29T10:23:50.000Z</time>
      </trkpt>
      <trkpt lat="44.92816" lon="5.84613">
        <ele>1124.623475</ele>
        <time>2026-08-29T10:23:51.000Z</time>
      </trkpt>
      <trkpt lat="44.92815" lon="5.8461">
        <ele>1124.797102</ele>
        <time>2026-08-29T10:23:52.000Z</time>
      </trkpt>
      <trkpt lat="44.92815" lon="5.84607">
        <ele>1124.978463</ele>
        <time>2026-08-29T10:23:53.000Z</time>
      </trkpt>
      <trkpt lat="44.92814" lon="5.84605">
        <ele>1125.161024</ele>
        <time>2026-08-29T10:23:54.000Z</time>
      </trkpt>
      <trkpt lat="44.92813" lon="5.84602">
        <ele>1125.319865</ele>
        <time>2026-08-29T10:23:55.000Z</time>
      </trkpt>
      <trkpt lat="44.92813" lon="5.846">
        <ele>1125.478707</ele>
        <time>2026-08-29T10:23:56.000Z</time>
      </trkpt>
      <trkpt lat="44.92812" lon="5.84597">
        <ele>1125.6494</ele>
        <time>2026-08-29T10:23:57.000Z</time>
      </trkpt>
      <trkpt lat="44.92812" lon="5.84595">
        <ele>1125.808241</ele>
        <time>2026-08-29T10:23:58.000Z</time>
      </trkpt>
      <trkpt lat="44.9281" lon="5.84593">
        <ele>1125.974692</ele>
        <time>2026-08-29T10:23:59.000Z</time>
      </trkpt>
      <trkpt lat="44.9281" lon="5.84591">
        <ele>1126.136016</ele>
        <time>2026-08-29T10:24:00.000Z</time>
      </trkpt>
      <trkpt lat="44.92809" lon="5.84588">
        <ele>1126.297341</ele>
        <time>2026-08-29T10:24:01.000Z</time>
      </trkpt>
      <trkpt lat="44.92808" lon="5.84586">
        <ele>1126.471532</ele>
        <time>2026-08-29T10:24:02.000Z</time>
      </trkpt>
      <trkpt lat="44.92807" lon="5.84584">
        <ele>1126.653057</ele>
        <time>2026-08-29T10:24:03.000Z</time>
      </trkpt>
      <trkpt lat="44.92806" lon="5.84582">
        <ele>1126.80889</ele>
        <time>2026-08-29T10:24:04.000Z</time>
      </trkpt>
      <trkpt lat="44.92805" lon="5.8458">
        <ele>1126.952671</ele>
        <time>2026-08-29T10:24:05.000Z</time>
      </trkpt>
      <trkpt lat="44.92804" lon="5.84577">
        <ele>1127.105812</ele>
        <time>2026-08-29T10:24:06.000Z</time>
      </trkpt>
      <trkpt lat="44.92804" lon="5.84575">
        <ele>1127.254302</ele>
        <time>2026-08-29T10:24:07.000Z</time>
      </trkpt>
      <trkpt lat="44.92804" lon="5.84573">
        <ele>1127.413143</ele>
        <time>2026-08-29T10:24:08.000Z</time>
      </trkpt>
      <trkpt lat="44.92803" lon="5.84571">
        <ele>1127.558993</ele>
        <time>2026-08-29T10:24:09.000Z</time>
      </trkpt>
      <trkpt lat="44.92802" lon="5.84568">
        <ele>1127.708681</ele>
        <time>2026-08-29T10:24:10.000Z</time>
      </trkpt>
      <trkpt lat="44.92801" lon="5.84566">
        <ele>1127.861822</ele>
        <time>2026-08-29T10:24:11.000Z</time>
      </trkpt>
      <trkpt lat="44.92801" lon="5.84564">
        <ele>1127.997843</ele>
        <time>2026-08-29T10:24:12.000Z</time>
      </trkpt>
      <trkpt lat="44.92801" lon="5.84562">
        <ele>1128.142058</ele>
        <time>2026-08-29T10:24:13.000Z</time>
      </trkpt>
      <trkpt lat="44.928" lon="5.8456">
        <ele>1128.284309</ele>
        <time>2026-08-29T10:24:14.000Z</time>
      </trkpt>
      <trkpt lat="44.928" lon="5.84558">
        <ele>1128.428524</ele>
        <time>2026-08-29T10:24:15.000Z</time>
      </trkpt>
      <trkpt lat="44.928" lon="5.84555">
        <ele>1128.564545</ele>
        <time>2026-08-29T10:24:16.000Z</time>
      </trkpt>
      <trkpt lat="44.92799" lon="5.84553">
        <ele>1128.714919</ele>
        <time>2026-08-29T10:24:17.000Z</time>
      </trkpt>
      <trkpt lat="44.92799" lon="5.84551">
        <ele>1128.865292</ele>
        <time>2026-08-29T10:24:18.000Z</time>
      </trkpt>
      <trkpt lat="44.92799" lon="5.84548">
        <ele>1129.024023</ele>
        <time>2026-08-29T10:24:19.000Z</time>
      </trkpt>
      <trkpt lat="44.92799" lon="5.84546">
        <ele>1129.185018</ele>
        <time>2026-08-29T10:24:20.000Z</time>
      </trkpt>
      <trkpt lat="44.92799" lon="5.84543">
        <ele>1129.356447</ele>
        <time>2026-08-29T10:24:21.000Z</time>
      </trkpt>
      <trkpt lat="44.92799" lon="5.84541">
        <ele>1129.52177</ele>
        <time>2026-08-29T10:24:22.000Z</time>
      </trkpt>
      <trkpt lat="44.928" lon="5.84538">
        <ele>1129.701573</ele>
        <time>2026-08-29T10:24:23.000Z</time>
      </trkpt>
      <trkpt lat="44.928" lon="5.84535">
        <ele>1129.861313</ele>
        <time>2026-08-29T10:24:24.000Z</time>
      </trkpt>
      <trkpt lat="44.928" lon="5.84533">
        <ele>1130.027365</ele>
        <time>2026-08-29T10:24:25.000Z</time>
      </trkpt>
      <trkpt lat="44.92801" lon="5.8453">
        <ele>1130.192307</ele>
        <time>2026-08-29T10:24:26.000Z</time>
      </trkpt>
      <trkpt lat="44.92801" lon="5.84527">
        <ele>1130.37805</ele>
        <time>2026-08-29T10:24:27.000Z</time>
      </trkpt>
      <trkpt lat="44.92802" lon="5.84525">
        <ele>1130.540784</ele>
        <time>2026-08-29T10:24:28.000Z</time>
      </trkpt>
      <trkpt lat="44.92802" lon="5.84522">
        <ele>1130.717396</ele>
        <time>2026-08-29T10:24:29.000Z</time>
      </trkpt>
      <trkpt lat="44.92803" lon="5.8452">
        <ele>1130.88013</ele>
        <time>2026-08-29T10:24:30.000Z</time>
      </trkpt>
      <trkpt lat="44.92803" lon="5.84517">
        <ele>1131.033563</ele>
        <time>2026-08-29T10:24:31.000Z</time>
      </trkpt>
      <trkpt lat="44.92803" lon="5.84515">
        <ele>1131.192547</ele>
        <time>2026-08-29T10:24:32.000Z</time>
      </trkpt>
      <trkpt lat="44.92803" lon="5.84512">
        <ele>1131.363976</ele>
        <time>2026-08-29T10:24:33.000Z</time>
      </trkpt>
      <trkpt lat="44.92803" lon="5.84509">
        <ele>1131.537503</ele>
        <time>2026-08-29T10:24:34.000Z</time>
      </trkpt>
      <trkpt lat="44.92804" lon="5.84507">
        <ele>1131.698498</ele>
        <time>2026-08-29T10:24:35.000Z</time>
      </trkpt>
      <trkpt lat="44.92804" lon="5.84504">
        <ele>1131.886087</ele>
        <time>2026-08-29T10:24:36.000Z</time>
      </trkpt>
      <trkpt lat="44.92804" lon="5.84501">
        <ele>1132.053345</ele>
        <time>2026-08-29T10:24:37.000Z</time>
      </trkpt>
      <trkpt lat="44.92804" lon="5.84499">
        <ele>1132.213085</ele>
        <time>2026-08-29T10:24:38.000Z</time>
      </trkpt>
      <trkpt lat="44.92805" lon="5.84496">
        <ele>1132.380343</ele>
        <time>2026-08-29T10:24:39.000Z</time>
      </trkpt>
      <trkpt lat="44.92805" lon="5.84494">
        <ele>1132.539185</ele>
        <time>2026-08-29T10:24:40.000Z</time>
      </trkpt>
      <trkpt lat="44.92806" lon="5.84491">
        <ele>1132.704127</ele>
        <time>2026-08-29T10:24:41.000Z</time>
      </trkpt>
      <trkpt lat="44.92806" lon="5.84489">
        <ele>1132.863868</ele>
        <time>2026-08-29T10:24:42.000Z</time>
      </trkpt>
      <trkpt lat="44.92806" lon="5.84486">
        <ele>1133.023608</ele>
        <time>2026-08-29T10:24:43.000Z</time>
      </trkpt>
      <trkpt lat="44.92806" lon="5.84484">
        <ele>1133.176253</ele>
        <time>2026-08-29T10:24:44.000Z</time>
      </trkpt>
      <trkpt lat="44.92807" lon="5.84482">
        <ele>1133.330991</ele>
        <time>2026-08-29T10:24:45.000Z</time>
      </trkpt>
      <trkpt lat="44.92807" lon="5.84479">
        <ele>1133.489975</ele>
        <time>2026-08-29T10:24:46.000Z</time>
      </trkpt>
      <trkpt lat="44.92807" lon="5.84477">
        <ele>1133.658907</ele>
        <time>2026-08-29T10:24:47.000Z</time>
      </trkpt>
      <trkpt lat="44.92807" lon="5.84474">
        <ele>1133.815454</ele>
        <time>2026-08-29T10:24:48.000Z</time>
      </trkpt>
      <trkpt lat="44.92808" lon="5.84472">
        <ele>1133.974295</ele>
        <time>2026-08-29T10:24:49.000Z</time>
      </trkpt>
      <trkpt lat="44.92808" lon="5.84469">
        <ele>1134.127056</ele>
        <time>2026-08-29T10:24:50.000Z</time>
      </trkpt>
      <trkpt lat="44.92809" lon="5.84467">
        <ele>1134.270838</ele>
        <time>2026-08-29T10:24:51.000Z</time>
      </trkpt>
      <trkpt lat="44.92809" lon="5.84465">
        <ele>1134.427384</ele>
        <time>2026-08-29T10:24:52.000Z</time>
      </trkpt>
      <trkpt lat="44.92809" lon="5.84462">
        <ele>1134.586115</ele>
        <time>2026-08-29T10:24:53.000Z</time>
      </trkpt>
      <trkpt lat="44.9281" lon="5.8446">
        <ele>1134.752166</ele>
        <time>2026-08-29T10:24:54.000Z</time>
      </trkpt>
      <trkpt lat="44.9281" lon="5.84458">
        <ele>1134.896381</ele>
        <time>2026-08-29T10:24:55.000Z</time>
      </trkpt>
      <trkpt lat="44.9281" lon="5.84455">
        <ele>1135.055365</ele>
        <time>2026-08-29T10:24:56.000Z</time>
      </trkpt>
      <trkpt lat="44.9281" lon="5.84452">
        <ele>1135.227028</ele>
        <time>2026-08-29T10:24:57.000Z</time>
      </trkpt>
      <trkpt lat="44.9281" lon="5.8445">
        <ele>1135.386011</ele>
        <time>2026-08-29T10:24:58.000Z</time>
      </trkpt>
      <trkpt lat="44.92811" lon="5.84448">
        <ele>1135.542558</ele>
        <time>2026-08-29T10:24:59.000Z</time>
      </trkpt>
      <trkpt lat="44.92811" lon="5.84445">
        <ele>1135.726903</ele>
        <time>2026-08-29T10:25:00.000Z</time>
      </trkpt>
      <trkpt lat="44.92812" lon="5.84442">
        <ele>1135.891709</ele>
        <time>2026-08-29T10:25:01.000Z</time>
      </trkpt>
      <trkpt lat="44.92812" lon="5.8444">
        <ele>1136.04447</ele>
        <time>2026-08-29T10:25:02.000Z</time>
      </trkpt>
      <trkpt lat="44.92813" lon="5.84438">
        <ele>1136.203311</ele>
        <time>2026-08-29T10:25:03.000Z</time>
      </trkpt>
      <trkpt lat="44.92813" lon="5.84435">
        <ele>1136.27786</ele>
        <time>2026-08-29T10:25:04.000Z</time>
      </trkpt>
      <trkpt lat="44.92814" lon="5.84433">
        <ele>1136.255493</ele>
        <time>2026-08-29T10:25:05.000Z</time>
      </trkpt>
      <trkpt lat="44.92814" lon="5.8443">
        <ele>1136.233943</ele>
        <time>2026-08-29T10:25:06.000Z</time>
      </trkpt>
      <trkpt lat="44.92815" lon="5.84428">
        <ele>1136.211576</ele>
        <time>2026-08-29T10:25:07.000Z</time>
      </trkpt>
      <trkpt lat="44.92815" lon="5.84425">
        <ele>1136.189661</ele>
        <time>2026-08-29T10:25:08.000Z</time>
      </trkpt>
      <trkpt lat="44.92816" lon="5.84423">
        <ele>1136.167341</ele>
        <time>2026-08-29T10:25:09.000Z</time>
      </trkpt>
      <trkpt lat="44.92817" lon="5.8442">
        <ele>1136.144565</ele>
        <time>2026-08-29T10:25:10.000Z</time>
      </trkpt>
      <trkpt lat="44.92818" lon="5.84417">
        <ele>1136.120693</ele>
        <time>2026-08-29T10:25:11.000Z</time>
      </trkpt>
      <trkpt lat="44.92818" lon="5.84415">
        <ele>1136.096822</ele>
        <time>2026-08-29T10:25:12.000Z</time>
      </trkpt>
      <trkpt lat="44.92819" lon="5.84412">
        <ele>1136.073538</ele>
        <time>2026-08-29T10:25:13.000Z</time>
      </trkpt>
      <trkpt lat="44.9282" lon="5.8441">
        <ele>1136.049699</ele>
        <time>2026-08-29T10:25:14.000Z</time>
      </trkpt>
      <trkpt lat="44.92821" lon="5.84407">
        <ele>1136.027882</ele>
        <time>2026-08-29T10:25:15.000Z</time>
      </trkpt>
      <trkpt lat="44.92822" lon="5.84405">
        <ele>1136.001298</ele>
        <time>2026-08-29T10:25:16.000Z</time>
      </trkpt>
      <trkpt lat="44.92823" lon="5.84402">
        <ele>1135.976733</ele>
        <time>2026-08-29T10:25:17.000Z</time>
      </trkpt>
      <trkpt lat="44.92825" lon="5.844">
        <ele>1135.952943</ele>
        <time>2026-08-29T10:25:18.000Z</time>
      </trkpt>
      <trkpt lat="44.92826" lon="5.84397">
        <ele>1135.927867</ele>
        <time>2026-08-29T10:25:19.000Z</time>
      </trkpt>
      <trkpt lat="44.92827" lon="5.84395">
        <ele>1135.902101</ele>
        <time>2026-08-29T10:25:20.000Z</time>
      </trkpt>
      <trkpt lat="44.92828" lon="5.84392">
        <ele>1135.877025</ele>
        <time>2026-08-29T10:25:21.000Z</time>
      </trkpt>
      <trkpt lat="44.92829" lon="5.8439">
        <ele>1135.8506</ele>
        <time>2026-08-29T10:25:22.000Z</time>
      </trkpt>
      <trkpt lat="44.92831" lon="5.84387">
        <ele>1135.822107</ele>
        <time>2026-08-29T10:25:23.000Z</time>
      </trkpt>
      <trkpt lat="44.92832" lon="5.84384">
        <ele>1135.793649</ele>
        <time>2026-08-29T10:25:24.000Z</time>
      </trkpt>
      <trkpt lat="44.92834" lon="5.84381">
        <ele>1135.763832</ele>
        <time>2026-08-29T10:25:25.000Z</time>
      </trkpt>
      <trkpt lat="44.92835" lon="5.84379">
        <ele>1135.73797</ele>
        <time>2026-08-29T10:25:26.000Z</time>
      </trkpt>
      <trkpt lat="44.92836" lon="5.84376">
        <ele>1135.710765</ele>
        <time>2026-08-29T10:25:27.000Z</time>
      </trkpt>
      <trkpt lat="44.92837" lon="5.84374">
        <ele>1135.68967</ele>
        <time>2026-08-29T10:25:28.000Z</time>
      </trkpt>
      <trkpt lat="44.92838" lon="5.84371">
        <ele>1135.666551</ele>
        <time>2026-08-29T10:25:29.000Z</time>
      </trkpt>
      <trkpt lat="44.9284" lon="5.84369">
        <ele>1135.640068</ele>
        <time>2026-08-29T10:25:30.000Z</time>
      </trkpt>
      <trkpt lat="44.92842" lon="5.84367">
        <ele>1135.611805</ele>
        <time>2026-08-29T10:25:31.000Z</time>
      </trkpt>
      <trkpt lat="44.92844" lon="5.84365">
        <ele>1135.581016</ele>
        <time>2026-08-29T10:25:32.000Z</time>
      </trkpt>
      <trkpt lat="44.92846" lon="5.84362">
        <ele>1135.549617</ele>
        <time>2026-08-29T10:25:33.000Z</time>
      </trkpt>
      <trkpt lat="44.92847" lon="5.84359">
        <ele>1135.519801</ele>
        <time>2026-08-29T10:25:34.000Z</time>
      </trkpt>
      <trkpt lat="44.92849" lon="5.84356">
        <ele>1135.48587</ele>
        <time>2026-08-29T10:25:35.000Z</time>
      </trkpt>
      <trkpt lat="44.92851" lon="5.84353">
        <ele>1135.454613</ele>
        <time>2026-08-29T10:25:36.000Z</time>
      </trkpt>
      <trkpt lat="44.92852" lon="5.84351">
        <ele>1135.429001</ele>
        <time>2026-08-29T10:25:37.000Z</time>
      </trkpt>
      <trkpt lat="44.92853" lon="5.84349">
        <ele>1135.411072</ele>
        <time>2026-08-29T10:25:38.000Z</time>
      </trkpt>
      <trkpt lat="44.92854" lon="5.84349">
        <ele>1135.404808</ele>
        <time>2026-08-29T10:25:39.000Z</time>
      </trkpt>
      <trkpt lat="44.92854" lon="5.84347">
        <ele>1135.385235</ele>
        <time>2026-08-29T10:26:16.000Z</time>
      </trkpt>
      <trkpt lat="44.92856" lon="5.84345">
        <ele>1135.364097</ele>
        <time>2026-08-29T10:26:17.000Z</time>
      </trkpt>
      <trkpt lat="44.92857" lon="5.84343">
        <ele>1135.339332</ele>
        <time>2026-08-29T10:26:18.000Z</time>
      </trkpt>
      <trkpt lat="44.92859" lon="5.8434">
        <ele>1135.309142</ele>
        <time>2026-08-29T10:26:19.000Z</time>
      </trkpt>
      <trkpt lat="44.92861" lon="5.84337">
        <ele>1135.277124</ele>
        <time>2026-08-29T10:26:20.000Z</time>
      </trkpt>
      <trkpt lat="44.92863" lon="5.84334">
        <ele>1135.2421</ele>
        <time>2026-08-29T10:26:21.000Z</time>
      </trkpt>
      <trkpt lat="44.92865" lon="5.84331">
        <ele>1135.206787</ele>
        <time>2026-08-29T10:26:22.000Z</time>
      </trkpt>
      <trkpt lat="44.92867" lon="5.84327">
        <ele>1135.168797</ele>
        <time>2026-08-29T10:26:23.000Z</time>
      </trkpt>
      <trkpt lat="44.92869" lon="5.84323">
        <ele>1135.128045</ele>
        <time>2026-08-29T10:26:24.000Z</time>
      </trkpt>
      <trkpt lat="44.92871" lon="5.8432">
        <ele>1135.085584</ele>
        <time>2026-08-29T10:26:25.000Z</time>
      </trkpt>
      <trkpt lat="44.92874" lon="5.84316">
        <ele>1135.040299</ele>
        <time>2026-08-29T10:26:26.000Z</time>
      </trkpt>
      <trkpt lat="44.92877" lon="5.84311">
        <ele>1134.991183</ele>
        <time>2026-08-29T10:26:27.000Z</time>
      </trkpt>
      <trkpt lat="44.9288" lon="5.84307">
        <ele>1134.939057</ele>
        <time>2026-08-29T10:26:28.000Z</time>
      </trkpt>
      <trkpt lat="44.92884" lon="5.84303">
        <ele>1134.882985</ele>
        <time>2026-08-29T10:26:29.000Z</time>
      </trkpt>
      <trkpt lat="44.92888" lon="5.84299">
        <ele>1134.822609</ele>
        <time>2026-08-29T10:26:30.000Z</time>
      </trkpt>
      <trkpt lat="44.92893" lon="5.84296">
        <ele>1134.758241</ele>
        <time>2026-08-29T10:26:31.000Z</time>
      </trkpt>
      <trkpt lat="44.92898" lon="5.84293">
        <ele>1134.692103</ele>
        <time>2026-08-29T10:26:32.000Z</time>
      </trkpt>
      <trkpt lat="44.92905" lon="5.84293">
        <ele>1134.61689</ele>
        <time>2026-08-29T10:26:33.000Z</time>
      </trkpt>
      <trkpt lat="44.92912" lon="5.84293">
        <ele>1134.537113</ele>
        <time>2026-08-29T10:26:34.000Z</time>
      </trkpt>
      <trkpt lat="44.92919" lon="5.84294">
        <ele>1134.454762</ele>
        <time>2026-08-29T10:26:35.000Z</time>
      </trkpt>
      <trkpt lat="44.92925" lon="5.84295">
        <ele>1134.375216</ele>
        <time>2026-08-29T10:26:36.000Z</time>
      </trkpt>
      <trkpt lat="44.92933" lon="5.84297">
        <ele>1134.286868</ele>
        <time>2026-08-29T10:26:37.000Z</time>
      </trkpt>
      <trkpt lat="44.92941" lon="5.84299">
        <ele>1134.190445</ele>
        <time>2026-08-29T10:26:38.000Z</time>
      </trkpt>
      <trkpt lat="44.92949" lon="5.84299">
        <ele>1133.45348</ele>
        <time>2026-08-29T10:26:39.000Z</time>
      </trkpt>
      <trkpt lat="44.92958" lon="5.84299">
        <ele>1132.575964</ele>
        <time>2026-08-29T10:26:40.000Z</time>
      </trkpt>
      <trkpt lat="44.92968" lon="5.84299">
        <ele>1131.648758</ele>
        <time>2026-08-29T10:26:41.000Z</time>
      </trkpt>
      <trkpt lat="44.92978" lon="5.84298">
        <ele>1130.65983</ele>
        <time>2026-08-29T10:26:42.000Z</time>
      </trkpt>
      <trkpt lat="44.92988" lon="5.84297">
        <ele>1129.653298</ele>
        <time>2026-08-29T10:26:43.000Z</time>
      </trkpt>
      <trkpt lat="44.92999" lon="5.84295">
        <ele>1128.560682</ele>
        <time>2026-08-29T10:26:44.000Z</time>
      </trkpt>
      <trkpt lat="44.9301" lon="5.84292">
        <ele>1127.424397</ele>
        <time>2026-08-29T10:26:45.000Z</time>
      </trkpt>
      <trkpt lat="44.93021" lon="5.84287">
        <ele>1126.285817</ele>
        <time>2026-08-29T10:26:46.000Z</time>
      </trkpt>
      <trkpt lat="44.93034" lon="5.84279">
        <ele>1124.914797</ele>
        <time>2026-08-29T10:26:47.000Z</time>
      </trkpt>
      <trkpt lat="44.93046" lon="5.84271">
        <ele>1123.567823</ele>
        <time>2026-08-29T10:26:48.000Z</time>
      </trkpt>
      <trkpt lat="44.93059" lon="5.84262">
        <ele>1122.205256</ele>
        <time>2026-08-29T10:26:49.000Z</time>
      </trkpt>
      <trkpt lat="44.93071" lon="5.84253">
        <ele>1120.813163</ele>
        <time>2026-08-29T10:26:50.000Z</time>
      </trkpt>
      <trkpt lat="44.93084" lon="5.84245">
        <ele>1119.454234</ele>
        <time>2026-08-29T10:26:51.000Z</time>
      </trkpt>
      <trkpt lat="44.93097" lon="5.84237">
        <ele>1118.005365</ele>
        <time>2026-08-29T10:26:52.000Z</time>
      </trkpt>
      <trkpt lat="44.9311" lon="5.84227">
        <ele>1116.539072</ele>
        <time>2026-08-29T10:26:53.000Z</time>
      </trkpt>
      <trkpt lat="44.93122" lon="5.84213">
        <ele>1114.816925</ele>
        <time>2026-08-29T10:26:54.000Z</time>
      </trkpt>
      <trkpt lat="44.93131" lon="5.84197">
        <ele>1113.178572</ele>
        <time>2026-08-29T10:26:55.000Z</time>
      </trkpt>
      <trkpt lat="44.93139" lon="5.8418">
        <ele>1111.51671</ele>
        <time>2026-08-29T10:26:56.000Z</time>
      </trkpt>
      <trkpt lat="44.93148" lon="5.84161">
        <ele>1109.781845</ele>
        <time>2026-08-29T10:26:57.000Z</time>
      </trkpt>
      <trkpt lat="44.93156" lon="5.84142">
        <ele>1108.027549</ele>
        <time>2026-08-29T10:26:58.000Z</time>
      </trkpt>
      <trkpt lat="44.93164" lon="5.84123">
        <ele>1106.241114</ele>
        <time>2026-08-29T10:26:59.000Z</time>
      </trkpt>
      <trkpt lat="44.93173" lon="5.84105">
        <ele>1104.491861</ele>
        <time>2026-08-29T10:27:00.000Z</time>
      </trkpt>
      <trkpt lat="44.93179" lon="5.84084">
        <ele>1102.723563</ele>
        <time>2026-08-29T10:27:01.000Z</time>
      </trkpt>
      <trkpt lat="44.93185" lon="5.84064">
        <ele>1100.961482</ele>
        <time>2026-08-29T10:27:02.000Z</time>
      </trkpt>
      <trkpt lat="44.93189" lon="5.84042">
        <ele>1099.182635</ele>
        <time>2026-08-29T10:27:03.000Z</time>
      </trkpt>
      <trkpt lat="44.93193" lon="5.84021">
        <ele>1097.418554</ele>
        <time>2026-08-29T10:27:04.000Z</time>
      </trkpt>
      <trkpt lat="44.93196" lon="5.84001">
        <ele>1095.771755</ele>
        <time>2026-08-29T10:27:05.000Z</time>
      </trkpt>
      <trkpt lat="44.93198" lon="5.83982">
        <ele>1094.2116</ele>
        <time>2026-08-29T10:27:06.000Z</time>
      </trkpt>
      <trkpt lat="44.93197" lon="5.83963">
        <ele>1092.701241</ele>
        <time>2026-08-29T10:27:07.000Z</time>
      </trkpt>
      <trkpt lat="44.93195" lon="5.83945">
        <ele>1091.178529</ele>
        <time>2026-08-29T10:27:08.000Z</time>
      </trkpt>
      <trkpt lat="44.93191" lon="5.83928">
        <ele>1089.715136</ele>
        <time>2026-08-29T10:27:09.000Z</time>
      </trkpt>
      <trkpt lat="44.93184" lon="5.83911">
        <ele>1088.116167</ele>
        <time>2026-08-29T10:27:10.000Z</time>
      </trkpt>
      <trkpt lat="44.93182" lon="5.83894">
        <ele>1086.720715</ele>
        <time>2026-08-29T10:27:11.000Z</time>
      </trkpt>
      <trkpt lat="44.93181" lon="5.83876">
        <ele>1085.193179</ele>
        <time>2026-08-29T10:27:12.000Z</time>
      </trkpt>
      <trkpt lat="44.93181" lon="5.83856">
        <ele>1083.571721</ele>
        <time>2026-08-29T10:27:13.000Z</time>
      </trkpt>
      <trkpt lat="44.93182" lon="5.83839">
        <ele>1082.143041</ele>
        <time>2026-08-29T10:27:14.000Z</time>
      </trkpt>
      <trkpt lat="44.93184" lon="5.83822">
        <ele>1080.810032</ele>
        <time>2026-08-29T10:27:15.000Z</time>
      </trkpt>
      <trkpt lat="44.93187" lon="5.83808">
        <ele>1079.602935</ele>
        <time>2026-08-29T10:27:16.000Z</time>
      </trkpt>
      <trkpt lat="44.9319" lon="5.83796">
        <ele>1078.521657</ele>
        <time>2026-08-29T10:27:17.000Z</time>
      </trkpt>
      <trkpt lat="44.93195" lon="5.83785">
        <ele>1077.489524</ele>
        <time>2026-08-29T10:27:18.000Z</time>
      </trkpt>
      <trkpt lat="44.93198" lon="5.83774">
        <ele>1076.469685</ele>
        <time>2026-08-29T10:27:19.000Z</time>
      </trkpt>
      <trkpt lat="44.93197" lon="5.83763">
        <ele>1075.629301</ele>
        <time>2026-08-29T10:27:20.000Z</time>
      </trkpt>
      <trkpt lat="44.93193" lon="5.83756">
        <ele>1074.90854</ele>
        <time>2026-08-29T10:27:21.000Z</time>
      </trkpt>
      <trkpt lat="44.93185" lon="5.83759">
        <ele>1074.085568</ele>
        <time>2026-08-29T10:27:22.000Z</time>
      </trkpt>
      <trkpt lat="44.93181" lon="5.83764">
        <ele>1073.57901</ele>
        <time>2026-08-29T10:27:23.000Z</time>
      </trkpt>
      <trkpt lat="44.93175" lon="5.83771">
        <ele>1072.801671</ele>
        <time>2026-08-29T10:27:24.000Z</time>
      </trkpt>
      <trkpt lat="44.93168" lon="5.8378">
        <ele>1071.867095</ele>
        <time>2026-08-29T10:27:25.000Z</time>
      </trkpt>
      <trkpt lat="44.93161" lon="5.83789">
        <ele>1070.915069</ele>
        <time>2026-08-29T10:27:26.000Z</time>
      </trkpt>
      <trkpt lat="44.93153" lon="5.83798">
        <ele>1069.886775</ele>
        <time>2026-08-29T10:27:27.000Z</time>
      </trkpt>
      <trkpt lat="44.93145" lon="5.83808">
        <ele>1068.839903</ele>
        <time>2026-08-29T10:27:28.000Z</time>
      </trkpt>
      <trkpt lat="44.93137" lon="5.83817">
        <ele>1067.745676</ele>
        <time>2026-08-29T10:27:29.000Z</time>
      </trkpt>
      <trkpt lat="44.93128" lon="5.83826">
        <ele>1066.626885</ele>
        <time>2026-08-29T10:27:30.000Z</time>
      </trkpt>
      <trkpt lat="44.93119" lon="5.83836">
        <ele>1065.540401</ele>
        <time>2026-08-29T10:27:31.000Z</time>
      </trkpt>
      <trkpt lat="44.93113" lon="5.83848">
        <ele>1064.483759</ele>
        <time>2026-08-29T10:27:32.000Z</time>
      </trkpt>
      <trkpt lat="44.93107" lon="5.8386">
        <ele>1063.439973</ele>
        <time>2026-08-29T10:27:33.000Z</time>
      </trkpt>
      <trkpt lat="44.93102" lon="5.83871">
        <ele>1062.535596</ele>
        <time>2026-08-29T10:27:34.000Z</time>
      </trkpt>
      <trkpt lat="44.93096" lon="5.83879">
        <ele>1061.725137</ele>
        <time>2026-08-29T10:27:35.000Z</time>
      </trkpt>
      <trkpt lat="44.93088" lon="5.83883">
        <ele>1060.862193</ele>
        <time>2026-08-29T10:27:36.000Z</time>
      </trkpt>
      <trkpt lat="44.93082" lon="5.83881">
        <ele>1060.225921</ele>
        <time>2026-08-29T10:27:37.000Z</time>
      </trkpt>
      <trkpt lat="44.93083" lon="5.83868">
        <ele>1059.302119</ele>
        <time>2026-08-29T10:27:38.000Z</time>
      </trkpt>
      <trkpt lat="44.93083" lon="5.83856">
        <ele>1058.455053</ele>
        <time>2026-08-29T10:27:39.000Z</time>
      </trkpt>
      <trkpt lat="44.93081" lon="5.83845">
        <ele>1057.615941</ele>
        <time>2026-08-29T10:27:40.000Z</time>
      </trkpt>
      <trkpt lat="44.93079" lon="5.83832">
        <ele>1056.695545</ele>
        <time>2026-08-29T10:27:41.000Z</time>
      </trkpt>
      <trkpt lat="44.93078" lon="5.83818">
        <ele>1055.716164</ele>
        <time>2026-08-29T10:27:42.000Z</time>
      </trkpt>
      <trkpt lat="44.93077" lon="5.83803">
        <ele>1054.673006</ele>
        <time>2026-08-29T10:27:43.000Z</time>
      </trkpt>
      <trkpt lat="44.93079" lon="5.83788">
        <ele>1053.581459</ele>
        <time>2026-08-29T10:27:44.000Z</time>
      </trkpt>
      <trkpt lat="44.93081" lon="5.83773">
        <ele>1052.469879</ele>
        <time>2026-08-29T10:27:45.000Z</time>
      </trkpt>
      <trkpt lat="44.93084" lon="5.83757">
        <ele>1051.329114</ele>
        <time>2026-08-29T10:27:46.000Z</time>
      </trkpt>
      <trkpt lat="44.9309" lon="5.83742">
        <ele>1050.111205</ele>
        <time>2026-08-29T10:27:47.000Z</time>
      </trkpt>
      <trkpt lat="44.93096" lon="5.83727">
        <ele>1048.872051</ele>
        <time>2026-08-29T10:27:48.000Z</time>
      </trkpt>
      <trkpt lat="44.93103" lon="5.83713">
        <ele>1047.653433</ele>
        <time>2026-08-29T10:27:49.000Z</time>
      </trkpt>
      <trkpt lat="44.93114" lon="5.83702">
        <ele>1046.34722</ele>
        <time>2026-08-29T10:27:50.000Z</time>
      </trkpt>
      <trkpt lat="44.93124" lon="5.83692">
        <ele>1045.10229</ele>
        <time>2026-08-29T10:27:51.000Z</time>
      </trkpt>
      <trkpt lat="44.93134" lon="5.83681">
        <ele>1043.839061</ele>
        <time>2026-08-29T10:27:52.000Z</time>
      </trkpt>
      <trkpt lat="44.93143" lon="5.83668">
        <ele>1042.550578</ele>
        <time>2026-08-29T10:27:53.000Z</time>
      </trkpt>
      <trkpt lat="44.93152" lon="5.83655">
        <ele>1041.272296</ele>
        <time>2026-08-29T10:27:54.000Z</time>
      </trkpt>
      <trkpt lat="44.9316" lon="5.83641">
        <ele>1039.976797</ele>
        <time>2026-08-29T10:27:55.000Z</time>
      </trkpt>
      <trkpt lat="44.93169" lon="5.83626">
        <ele>1038.64947</ele>
        <time>2026-08-29T10:27:56.000Z</time>
      </trkpt>
      <trkpt lat="44.93178" lon="5.83613">
        <ele>1037.351638</ele>
        <time>2026-08-29T10:27:57.000Z</time>
      </trkpt>
      <trkpt lat="44.93186" lon="5.836">
        <ele>1036.1085</ele>
        <time>2026-08-29T10:27:58.000Z</time>
      </trkpt>
      <trkpt lat="44.93192" lon="5.83587">
        <ele>1035.021773</ele>
        <time>2026-08-29T10:27:59.000Z</time>
      </trkpt>
      <trkpt lat="44.93197" lon="5.83571">
        <ele>1033.836973</ele>
        <time>2026-08-29T10:28:00.000Z</time>
      </trkpt>
      <trkpt lat="44.93195" lon="5.83556">
        <ele>1032.74443</ele>
        <time>2026-08-29T10:28:01.000Z</time>
      </trkpt>
      <trkpt lat="44.9319" lon="5.83541">
        <ele>1031.615422</ele>
        <time>2026-08-29T10:28:02.000Z</time>
      </trkpt>
      <trkpt lat="44.93183" lon="5.83528">
        <ele>1030.438209</ele>
        <time>2026-08-29T10:28:03.000Z</time>
      </trkpt>
      <trkpt lat="44.93176" lon="5.83515">
        <ele>1029.280374</ele>
        <time>2026-08-29T10:28:04.000Z</time>
      </trkpt>
      <trkpt lat="44.93168" lon="5.83502">
        <ele>1028.058222</ele>
        <time>2026-08-29T10:28:05.000Z</time>
      </trkpt>
      <trkpt lat="44.93159" lon="5.83489">
        <ele>1026.782951</ele>
        <time>2026-08-29T10:28:06.000Z</time>
      </trkpt>
      <trkpt lat="44.9315" lon="5.83475">
        <ele>1025.458085</ele>
        <time>2026-08-29T10:28:07.000Z</time>
      </trkpt>
      <trkpt lat="44.9314" lon="5.83462">
        <ele>1024.126481</ele>
        <time>2026-08-29T10:28:08.000Z</time>
      </trkpt>
      <trkpt lat="44.93134" lon="5.83446">
        <ele>1022.825953</ele>
        <time>2026-08-29T10:28:09.000Z</time>
      </trkpt>
      <trkpt lat="44.93128" lon="5.83428">
        <ele>1021.478957</ele>
        <time>2026-08-29T10:28:10.000Z</time>
      </trkpt>
      <trkpt lat="44.93123" lon="5.8341">
        <ele>1020.06539</ele>
        <time>2026-08-29T10:28:11.000Z</time>
      </trkpt>
      <trkpt lat="44.93122" lon="5.8339">
        <ele>1018.660144</ele>
        <time>2026-08-29T10:28:12.000Z</time>
      </trkpt>
      <trkpt lat="44.93124" lon="5.83372">
        <ele>1017.343173</ele>
        <time>2026-08-29T10:28:13.000Z</time>
      </trkpt>
      <trkpt lat="44.93126" lon="5.83353">
        <ele>1015.961217</ele>
        <time>2026-08-29T10:28:14.000Z</time>
      </trkpt>
      <trkpt lat="44.93129" lon="5.83334">
        <ele>1014.572195</ele>
        <time>2026-08-29T10:28:15.000Z</time>
      </trkpt>
      <trkpt lat="44.93132" lon="5.83315">
        <ele>1013.18002</ele>
        <time>2026-08-29T10:28:16.000Z</time>
      </trkpt>
      <trkpt lat="44.93138" lon="5.83298">
        <ele>1011.794482</ele>
        <time>2026-08-29T10:28:17.000Z</time>
      </trkpt>
      <trkpt lat="44.93145" lon="5.83282">
        <ele>1010.410899</ele>
        <time>2026-08-29T10:28:18.000Z</time>
      </trkpt>
      <trkpt lat="44.93154" lon="5.83266">
        <ele>1009.014037</ele>
        <time>2026-08-29T10:28:19.000Z</time>
      </trkpt>
      <trkpt lat="44.93163" lon="5.83253">
        <ele>1007.631525</ele>
        <time>2026-08-29T10:28:20.000Z</time>
      </trkpt>
      <trkpt lat="44.93173" lon="5.83241">
        <ele>1006.318955</ele>
        <time>2026-08-29T10:28:21.000Z</time>
      </trkpt>
      <trkpt lat="44.93184" lon="5.8323">
        <ele>1004.99122</ele>
        <time>2026-08-29T10:28:22.000Z</time>
      </trkpt>
      <trkpt lat="44.93194" lon="5.83219">
        <ele>1003.651576</ele>
        <time>2026-08-29T10:28:23.000Z</time>
      </trkpt>
      <trkpt lat="44.93206" lon="5.8321">
        <ele>1002.284078</ele>
        <time>2026-08-29T10:28:24.000Z</time>
      </trkpt>
      <trkpt lat="44.93218" lon="5.83201">
        <ele>1000.918202</ele>
        <time>2026-08-29T10:28:25.000Z</time>
      </trkpt>
      <trkpt lat="44.93231" lon="5.83192">
        <ele>999.532549</ele>
        <time>2026-08-29T10:28:26.000Z</time>
      </trkpt>
      <trkpt lat="44.93243" lon="5.83184">
        <ele>998.143927</ele>
        <time>2026-08-29T10:28:27.000Z</time>
      </trkpt>
      <trkpt lat="44.93256" lon="5.83176">
        <ele>996.791008</ele>
        <time>2026-08-29T10:28:28.000Z</time>
      </trkpt>
      <trkpt lat="44.93269" lon="5.8317">
        <ele>995.439452</ele>
        <time>2026-08-29T10:28:29.000Z</time>
      </trkpt>
      <trkpt lat="44.93282" lon="5.83164">
        <ele>994.043698</ele>
        <time>2026-08-29T10:28:30.000Z</time>
      </trkpt>
      <trkpt lat="44.93295" lon="5.83159">
        <ele>992.657519</ele>
        <time>2026-08-29T10:28:31.000Z</time>
      </trkpt>
      <trkpt lat="44.93309" lon="5.83153">
        <ele>991.27725</ele>
        <time>2026-08-29T10:28:32.000Z</time>
      </trkpt>
      <trkpt lat="44.93322" lon="5.83149">
        <ele>989.875376</ele>
        <time>2026-08-29T10:28:33.000Z</time>
      </trkpt>
      <trkpt lat="44.93336" lon="5.83143">
        <ele>988.466245</ele>
        <time>2026-08-29T10:28:34.000Z</time>
      </trkpt>
      <trkpt lat="44.9335" lon="5.83138">
        <ele>987.028208</ele>
        <time>2026-08-29T10:28:35.000Z</time>
      </trkpt>
      <trkpt lat="44.93363" lon="5.83132">
        <ele>985.6059</ele>
        <time>2026-08-29T10:28:36.000Z</time>
      </trkpt>
      <trkpt lat="44.93377" lon="5.83125">
        <ele>984.280677</ele>
        <time>2026-08-29T10:28:37.000Z</time>
      </trkpt>
      <trkpt lat="44.9339" lon="5.83119">
        <ele>982.99384</ele>
        <time>2026-08-29T10:28:38.000Z</time>
      </trkpt>
      <trkpt lat="44.93403" lon="5.83112">
        <ele>981.740349</ele>
        <time>2026-08-29T10:28:39.000Z</time>
      </trkpt>
      <trkpt lat="44.93415" lon="5.83104">
        <ele>980.512591</ele>
        <time>2026-08-29T10:28:40.000Z</time>
      </trkpt>
      <trkpt lat="44.93428" lon="5.83095">
        <ele>979.218724</ele>
        <time>2026-08-29T10:28:41.000Z</time>
      </trkpt>
      <trkpt lat="44.93441" lon="5.83085">
        <ele>977.895988</ele>
        <time>2026-08-29T10:28:42.000Z</time>
      </trkpt>
      <trkpt lat="44.93454" lon="5.83075">
        <ele>976.522623</ele>
        <time>2026-08-29T10:28:43.000Z</time>
      </trkpt>
      <trkpt lat="44.93467" lon="5.83064">
        <ele>975.146272</ele>
        <time>2026-08-29T10:28:44.000Z</time>
      </trkpt>
      <trkpt lat="44.9348" lon="5.83054">
        <ele>973.771506</ele>
        <time>2026-08-29T10:28:45.000Z</time>
      </trkpt>
      <trkpt lat="44.93493" lon="5.83042">
        <ele>972.423557</ele>
        <time>2026-08-29T10:28:46.000Z</time>
      </trkpt>
      <trkpt lat="44.93505" lon="5.83031">
        <ele>971.083924</ele>
        <time>2026-08-29T10:28:47.000Z</time>
      </trkpt>
      <trkpt lat="44.93518" lon="5.8302">
        <ele>969.731701</ele>
        <time>2026-08-29T10:28:48.000Z</time>
      </trkpt>
      <trkpt lat="44.93529" lon="5.83009">
        <ele>968.48565</ele>
        <time>2026-08-29T10:28:49.000Z</time>
      </trkpt>
      <trkpt lat="44.9354" lon="5.82999">
        <ele>967.393891</ele>
        <time>2026-08-29T10:28:50.000Z</time>
      </trkpt>
      <trkpt lat="44.9355" lon="5.82989">
        <ele>966.368019</ele>
        <time>2026-08-29T10:28:51.000Z</time>
      </trkpt>
      <trkpt lat="44.93559" lon="5.82979">
        <ele>965.398214</ele>
        <time>2026-08-29T10:28:52.000Z</time>
      </trkpt>
      <trkpt lat="44.93565" lon="5.82968">
        <ele>964.557787</ele>
        <time>2026-08-29T10:28:53.000Z</time>
      </trkpt>
      <trkpt lat="44.9357" lon="5.82956">
        <ele>963.728997</ele>
        <time>2026-08-29T10:28:54.000Z</time>
      </trkpt>
      <trkpt lat="44.93573" lon="5.82942">
        <ele>962.882654</ele>
        <time>2026-08-29T10:28:55.000Z</time>
      </trkpt>
      <trkpt lat="44.93573" lon="5.82929">
        <ele>962.118138</ele>
        <time>2026-08-29T10:28:56.000Z</time>
      </trkpt>
      <trkpt lat="44.93571" lon="5.82917">
        <ele>961.35683</ele>
        <time>2026-08-29T10:28:57.000Z</time>
      </trkpt>
      <trkpt lat="44.93568" lon="5.82904">
        <ele>960.533518</ele>
        <time>2026-08-29T10:28:58.000Z</time>
      </trkpt>
      <trkpt lat="44.93565" lon="5.82891">
        <ele>959.728407</ele>
        <time>2026-08-29T10:28:59.000Z</time>
      </trkpt>
      <trkpt lat="44.93562" lon="5.82878">
        <ele>958.904213</ele>
        <time>2026-08-29T10:29:00.000Z</time>
      </trkpt>
      <trkpt lat="44.93559" lon="5.82865">
        <ele>958.079872</ele>
        <time>2026-08-29T10:29:01.000Z</time>
      </trkpt>
      <trkpt lat="44.93555" lon="5.82852">
        <ele>957.255799</ele>
        <time>2026-08-29T10:29:02.000Z</time>
      </trkpt>
      <trkpt lat="44.93552" lon="5.82839">
        <ele>956.461601</ele>
        <time>2026-08-29T10:29:03.000Z</time>
      </trkpt>
      <trkpt lat="44.93547" lon="5.82828">
        <ele>955.668226</ele>
        <time>2026-08-29T10:29:04.000Z</time>
      </trkpt>
      <trkpt lat="44.9354" lon="5.82818">
        <ele>954.8111</ele>
        <time>2026-08-29T10:29:05.000Z</time>
      </trkpt>
      <trkpt lat="44.9353" lon="5.82811">
        <ele>953.911385</ele>
        <time>2026-08-29T10:29:06.000Z</time>
      </trkpt>
      <trkpt lat="44.93521" lon="5.82804">
        <ele>953.286938</ele>
        <time>2026-08-29T10:29:07.000Z</time>
      </trkpt>
      <trkpt lat="44.93512" lon="5.82797">
        <ele>952.716009</ele>
        <time>2026-08-29T10:29:08.000Z</time>
      </trkpt>
      <trkpt lat="44.93506" lon="5.82787">
        <ele>952.207544</ele>
        <time>2026-08-29T10:29:09.000Z</time>
      </trkpt>
      <trkpt lat="44.93503" lon="5.82774">
        <ele>951.668042</ele>
        <time>2026-08-29T10:29:10.000Z</time>
      </trkpt>
      <trkpt lat="44.93502" lon="5.8276">
        <ele>951.111304</ele>
        <time>2026-08-29T10:29:11.000Z</time>
      </trkpt>
      <trkpt lat="44.93501" lon="5.82746">
        <ele>950.542701</ele>
        <time>2026-08-29T10:29:12.000Z</time>
      </trkpt>
      <trkpt lat="44.93499" lon="5.82732">
        <ele>949.970973</ele>
        <time>2026-08-29T10:29:13.000Z</time>
      </trkpt>
      <trkpt lat="44.93498" lon="5.82717">
        <ele>949.373258</ele>
        <time>2026-08-29T10:29:14.000Z</time>
      </trkpt>
      <trkpt lat="44.93496" lon="5.82702">
        <ele>948.777558</ele>
        <time>2026-08-29T10:29:15.000Z</time>
      </trkpt>
      <trkpt lat="44.93494" lon="5.82688">
        <ele>948.209752</ele>
        <time>2026-08-29T10:29:16.000Z</time>
      </trkpt>
      <trkpt lat="44.93493" lon="5.82673">
        <ele>947.632205</ele>
        <time>2026-08-29T10:29:17.000Z</time>
      </trkpt>
      <trkpt lat="44.93492" lon="5.82659">
        <ele>947.070407</ele>
        <time>2026-08-29T10:29:18.000Z</time>
      </trkpt>
      <trkpt lat="44.93491" lon="5.82645">
        <ele>946.512545</ele>
        <time>2026-08-29T10:29:19.000Z</time>
      </trkpt>
      <trkpt lat="44.9349" lon="5.82631">
        <ele>945.972074</ele>
        <time>2026-08-29T10:29:20.000Z</time>
      </trkpt>
      <trkpt lat="44.9349" lon="5.82618">
        <ele>945.456461</ele>
        <time>2026-08-29T10:29:21.000Z</time>
      </trkpt>
      <trkpt lat="44.93489" lon="5.82605">
        <ele>944.941122</ele>
        <time>2026-08-29T10:29:22.000Z</time>
      </trkpt>
      <trkpt lat="44.93488" lon="5.82593">
        <ele>944.45012</ele>
        <time>2026-08-29T10:29:23.000Z</time>
      </trkpt>
      <trkpt lat="44.93486" lon="5.82582">
        <ele>943.979548</ele>
        <time>2026-08-29T10:29:24.000Z</time>
      </trkpt>
      <trkpt lat="44.93483" lon="5.82571">
        <ele>943.75747</ele>
        <time>2026-08-29T10:29:25.000Z</time>
      </trkpt>
      <trkpt lat="44.93481" lon="5.82559">
        <ele>943.807861</ele>
        <time>2026-08-29T10:29:26.000Z</time>
      </trkpt>
      <trkpt lat="44.93479" lon="5.82549">
        <ele>943.854244</ele>
        <time>2026-08-29T10:29:27.000Z</time>
      </trkpt>
      <trkpt lat="44.93475" lon="5.82539">
        <ele>943.9029</ele>
        <time>2026-08-29T10:29:28.000Z</time>
      </trkpt>
      <trkpt lat="44.93471" lon="5.8253">
        <ele>943.947303</ele>
        <time>2026-08-29T10:29:29.000Z</time>
      </trkpt>
      <trkpt lat="44.93469" lon="5.82522">
        <ele>943.981504</ele>
        <time>2026-08-29T10:29:30.000Z</time>
      </trkpt>
      <trkpt lat="44.93467" lon="5.82518">
        <ele>944.003953</ele>
        <time>2026-08-29T10:29:31.000Z</time>
      </trkpt>
      <trkpt lat="44.93466" lon="5.82514">
        <ele>944.022103</ele>
        <time>2026-08-29T10:29:32.000Z</time>
      </trkpt>
      <trkpt lat="44.93466" lon="5.82512">
        <ele>944.030376</ele>
        <time>2026-08-29T10:29:33.000Z</time>
      </trkpt>
      <trkpt lat="44.93466" lon="5.82511">
        <ele>944.034412</ele>
        <time>2026-08-29T10:29:34.000Z</time>
      </trkpt>
      <trkpt lat="44.93465" lon="5.82511">
        <ele>944.038643</ele>
        <time>2026-08-29T10:29:35.000Z</time>
      </trkpt>
      <trkpt lat="44.93465" lon="5.82511">
        <ele>944.039498</ele>
        <time>2026-08-29T10:29:36.000Z</time>
      </trkpt>
      <trkpt lat="44.93468" lon="5.82505">
        <ele>944.069198</ele>
        <time>2026-08-29T10:31:10.000Z</time>
      </trkpt>
      <trkpt lat="44.93468" lon="5.82503">
        <ele>944.080313</ele>
        <time>2026-08-29T10:31:11.000Z</time>
      </trkpt>
      <trkpt lat="44.93469" lon="5.82502">
        <ele>944.086642</ele>
        <time>2026-08-29T10:31:12.000Z</time>
      </trkpt>
      <trkpt lat="44.93469" lon="5.82501">
        <ele>944.090114</ele>
        <time>2026-08-29T10:31:13.000Z</time>
      </trkpt>
      <trkpt lat="44.93471" lon="5.825">
        <ele>944.099596</ele>
        <time>2026-08-29T10:31:17.000Z</time>
      </trkpt>
      <trkpt lat="44.93472" lon="5.825">
        <ele>944.104599</ele>
        <time>2026-08-29T10:31:18.000Z</time>
      </trkpt>
      <trkpt lat="44.93472" lon="5.825">
        <ele>944.109728</ele>
        <time>2026-08-29T10:31:19.000Z</time>
      </trkpt>
      <trkpt lat="44.93473" lon="5.82499">
        <ele>944.111491</ele>
        <time>2026-08-29T10:31:20.000Z</time>
      </trkpt>
      <trkpt lat="44.93473" lon="5.82494">
        <ele>944.13361</ele>
        <time>2026-08-29T10:31:55.000Z</time>
      </trkpt>
      <trkpt lat="44.93474" lon="5.82491">
        <ele>944.147631</ele>
        <time>2026-08-29T10:31:56.000Z</time>
      </trkpt>
      <trkpt lat="44.93474" lon="5.82488">
        <ele>944.16055</ele>
        <time>2026-08-29T10:31:57.000Z</time>
      </trkpt>
      <trkpt lat="44.93475" lon="5.82485">
        <ele>944.174737</ele>
        <time>2026-08-29T10:31:58.000Z</time>
      </trkpt>
      <trkpt lat="44.93477" lon="5.82482">
        <ele>944.188438</ele>
        <time>2026-08-29T10:31:59.000Z</time>
      </trkpt>
      <trkpt lat="44.93478" lon="5.8248">
        <ele>944.202409</ele>
        <time>2026-08-29T10:32:00.000Z</time>
      </trkpt>
      <trkpt lat="44.93479" lon="5.82477">
        <ele>944.216864</ele>
        <time>2026-08-29T10:32:01.000Z</time>
      </trkpt>
      <trkpt lat="44.9348" lon="5.82474">
        <ele>944.2317</ele>
        <time>2026-08-29T10:32:02.000Z</time>
      </trkpt>
      <trkpt lat="44.93481" lon="5.8247">
        <ele>944.247058</ele>
        <time>2026-08-29T10:32:03.000Z</time>
      </trkpt>
      <trkpt lat="44.93482" lon="5.82467">
        <ele>944.262076</ele>
        <time>2026-08-29T10:32:04.000Z</time>
      </trkpt>
      <trkpt lat="44.93484" lon="5.82465">
        <ele>944.276908</ele>
        <time>2026-08-29T10:32:05.000Z</time>
      </trkpt>
      <trkpt lat="44.93485" lon="5.82462">
        <ele>944.29128</ele>
        <time>2026-08-29T10:32:06.000Z</time>
      </trkpt>
      <trkpt lat="44.93487" lon="5.82459">
        <ele>944.307065</ele>
        <time>2026-08-29T10:32:07.000Z</time>
      </trkpt>
      <trkpt lat="44.93488" lon="5.82456">
        <ele>944.323479</ele>
        <time>2026-08-29T10:32:08.000Z</time>
      </trkpt>
      <trkpt lat="44.9349" lon="5.82452">
        <ele>944.341352</ele>
        <time>2026-08-29T10:32:09.000Z</time>
      </trkpt>
      <trkpt lat="44.93491" lon="5.82449">
        <ele>944.358857</ele>
        <time>2026-08-29T10:32:10.000Z</time>
      </trkpt>
      <trkpt lat="44.93493" lon="5.82445">
        <ele>944.377566</ele>
        <time>2026-08-29T10:32:11.000Z</time>
      </trkpt>
      <trkpt lat="44.93494" lon="5.82441">
        <ele>944.397161</ele>
        <time>2026-08-29T10:32:12.000Z</time>
      </trkpt>
      <trkpt lat="44.93496" lon="5.82437">
        <ele>944.416757</ele>
        <time>2026-08-29T10:32:13.000Z</time>
      </trkpt>
      <trkpt lat="44.93498" lon="5.82433">
        <ele>944.437763</ele>
        <time>2026-08-29T10:32:14.000Z</time>
      </trkpt>
      <trkpt lat="44.935" lon="5.82429">
        <ele>944.458729</ele>
        <time>2026-08-29T10:32:15.000Z</time>
      </trkpt>
      <trkpt lat="44.93502" lon="5.82425">
        <ele>944.479695</ele>
        <time>2026-08-29T10:32:16.000Z</time>
      </trkpt>
      <trkpt lat="44.93503" lon="5.8242">
        <ele>944.500102</ele>
        <time>2026-08-29T10:32:17.000Z</time>
      </trkpt>
      <trkpt lat="44.93505" lon="5.82416">
        <ele>944.521068</ele>
        <time>2026-08-29T10:32:18.000Z</time>
      </trkpt>
      <trkpt lat="44.93507" lon="5.82412">
        <ele>944.542393</ele>
        <time>2026-08-29T10:32:19.000Z</time>
      </trkpt>
      <trkpt lat="44.93509" lon="5.82408">
        <ele>944.564406</ele>
        <time>2026-08-29T10:32:20.000Z</time>
      </trkpt>
      <trkpt lat="44.93511" lon="5.82404">
        <ele>944.585732</ele>
        <time>2026-08-29T10:32:21.000Z</time>
      </trkpt>
      <trkpt lat="44.93513" lon="5.82399">
        <ele>944.607474</ele>
        <time>2026-08-29T10:32:22.000Z</time>
      </trkpt>
      <trkpt lat="44.93514" lon="5.82394">
        <ele>944.630056</ele>
        <time>2026-08-29T10:32:23.000Z</time>
      </trkpt>
      <trkpt lat="44.93516" lon="5.8239">
        <ele>944.651984</ele>
        <time>2026-08-29T10:32:24.000Z</time>
      </trkpt>
      <trkpt lat="44.93518" lon="5.82385">
        <ele>944.673265</ele>
        <time>2026-08-29T10:32:25.000Z</time>
      </trkpt>
      <trkpt lat="44.93519" lon="5.82381">
        <ele>944.695714</ele>
        <time>2026-08-29T10:32:26.000Z</time>
      </trkpt>
      <trkpt lat="44.9352" lon="5.82376">
        <ele>944.718719</ele>
        <time>2026-08-29T10:32:27.000Z</time>
      </trkpt>
      <trkpt lat="44.93521" lon="5.8237">
        <ele>944.742206</ele>
        <time>2026-08-29T10:32:28.000Z</time>
      </trkpt>
      <trkpt lat="44.93522" lon="5.82365">
        <ele>944.765526</ele>
        <time>2026-08-29T10:32:29.000Z</time>
      </trkpt>
      <trkpt lat="44.93523" lon="5.8236">
        <ele>944.788293</ele>
        <time>2026-08-29T10:32:30.000Z</time>
      </trkpt>
      <trkpt lat="44.93524" lon="5.82355">
        <ele>944.809124</ele>
        <time>2026-08-29T10:32:31.000Z</time>
      </trkpt>
      <trkpt lat="44.93524" lon="5.8235">
        <ele>944.91962</ele>
        <time>2026-08-29T10:32:32.000Z</time>
      </trkpt>
      <trkpt lat="44.93525" lon="5.82346">
        <ele>945.102768</ele>
        <time>2026-08-29T10:32:33.000Z</time>
      </trkpt>
      <trkpt lat="44.93525" lon="5.82342">
        <ele>945.29484</ele>
        <time>2026-08-29T10:32:34.000Z</time>
      </trkpt>
      <trkpt lat="44.93525" lon="5.82337">
        <ele>945.492181</ele>
        <time>2026-08-29T10:32:35.000Z</time>
      </trkpt>
      <trkpt lat="44.93525" lon="5.82333">
        <ele>945.685799</ele>
        <time>2026-08-29T10:32:36.000Z</time>
      </trkpt>
      <trkpt lat="44.93526" lon="5.82329">
        <ele>945.879398</ele>
        <time>2026-08-29T10:32:37.000Z</time>
      </trkpt>
      <trkpt lat="44.93527" lon="5.82325">
        <ele>946.062526</ele>
        <time>2026-08-29T10:32:38.000Z</time>
      </trkpt>
      <trkpt lat="44.93527" lon="5.82322">
        <ele>946.196605</ele>
        <time>2026-08-29T10:32:39.000Z</time>
      </trkpt>
      <trkpt lat="44.93528" lon="5.82318">
        <ele>946.381785</ele>
        <time>2026-08-29T10:32:40.000Z</time>
      </trkpt>
      <trkpt lat="44.93529" lon="5.82315">
        <ele>946.556446</ele>
        <time>2026-08-29T10:32:41.000Z</time>
      </trkpt>
      <trkpt lat="44.9353" lon="5.82311">
        <ele>946.734089</ele>
        <time>2026-08-29T10:32:42.000Z</time>
      </trkpt>
      <trkpt lat="44.93532" lon="5.82307">
        <ele>946.913561</ele>
        <time>2026-08-29T10:32:43.000Z</time>
      </trkpt>
      <trkpt lat="44.93533" lon="5.82304">
        <ele>947.103912</ele>
        <time>2026-08-29T10:32:44.000Z</time>
      </trkpt>
      <trkpt lat="44.93535" lon="5.823">
        <ele>947.290402</ele>
        <time>2026-08-29T10:32:45.000Z</time>
      </trkpt>
      <trkpt lat="44.93536" lon="5.82297">
        <ele>947.472669</ele>
        <time>2026-08-29T10:32:46.000Z</time>
      </trkpt>
      <trkpt lat="44.93538" lon="5.82294">
        <ele>947.651282</ele>
        <time>2026-08-29T10:32:47.000Z</time>
      </trkpt>
      <trkpt lat="44.9354" lon="5.82291">
        <ele>947.816858</ele>
        <time>2026-08-29T10:32:48.000Z</time>
      </trkpt>
      <trkpt lat="44.93542" lon="5.82288">
        <ele>947.982433</ele>
        <time>2026-08-29T10:32:49.000Z</time>
      </trkpt>
      <trkpt lat="44.93544" lon="5.82285">
        <ele>948.151286</ele>
        <time>2026-08-29T10:32:50.000Z</time>
      </trkpt>
      <trkpt lat="44.93545" lon="5.82282">
        <ele>948.334345</ele>
        <time>2026-08-29T10:32:51.000Z</time>
      </trkpt>
      <trkpt lat="44.93547" lon="5.8228">
        <ele>948.499921</ele>
        <time>2026-08-29T10:32:52.000Z</time>
      </trkpt>
      <trkpt lat="44.93549" lon="5.82277">
        <ele>948.679628</ele>
        <time>2026-08-29T10:32:53.000Z</time>
      </trkpt>
      <trkpt lat="44.93551" lon="5.82274">
        <ele>948.863601</ele>
        <time>2026-08-29T10:32:54.000Z</time>
      </trkpt>
      <trkpt lat="44.93553" lon="5.82271">
        <ele>949.043309</ele>
        <time>2026-08-29T10:32:55.000Z</time>
      </trkpt>
      <trkpt lat="44.93555" lon="5.82268">
        <ele>949.231661</ele>
        <time>2026-08-29T10:32:56.000Z</time>
      </trkpt>
      <trkpt lat="44.93557" lon="5.82264">
        <ele>949.410655</ele>
        <time>2026-08-29T10:32:57.000Z</time>
      </trkpt>
      <trkpt lat="44.93559" lon="5.82261">
        <ele>949.601226</ele>
        <time>2026-08-29T10:32:58.000Z</time>
      </trkpt>
      <trkpt lat="44.93561" lon="5.82259">
        <ele>949.766801</ele>
        <time>2026-08-29T10:32:59.000Z</time>
      </trkpt>
      <trkpt lat="44.93563" lon="5.82256">
        <ele>949.938985</ele>
        <time>2026-08-29T10:33:00.000Z</time>
      </trkpt>
      <trkpt lat="44.93565" lon="5.82252">
        <ele>950.142572</ele>
        <time>2026-08-29T10:33:01.000Z</time>
      </trkpt>
      <trkpt lat="44.93567" lon="5.82249">
        <ele>950.356926</ele>
        <time>2026-08-29T10:33:02.000Z</time>
      </trkpt>
      <trkpt lat="44.93569" lon="5.82247">
        <ele>950.484862</ele>
        <time>2026-08-29T10:33:03.000Z</time>
      </trkpt>
      <trkpt lat="44.9357" lon="5.82244">
        <ele>950.660428</ele>
        <time>2026-08-29T10:33:04.000Z</time>
      </trkpt>
      <trkpt lat="44.93573" lon="5.82241">
        <ele>950.86402</ele>
        <time>2026-08-29T10:33:05.000Z</time>
      </trkpt>
      <trkpt lat="44.93575" lon="5.82238">
        <ele>951.055571</ele>
        <time>2026-08-29T10:33:06.000Z</time>
      </trkpt>
      <trkpt lat="44.93577" lon="5.82236">
        <ele>951.219321</ele>
        <time>2026-08-29T10:33:07.000Z</time>
      </trkpt>
      <trkpt lat="44.93579" lon="5.82233">
        <ele>951.362249</ele>
        <time>2026-08-29T10:33:08.000Z</time>
      </trkpt>
      <trkpt lat="44.9358" lon="5.82231">
        <ele>951.512707</ele>
        <time>2026-08-29T10:33:09.000Z</time>
      </trkpt>
      <trkpt lat="44.93582" lon="5.82228">
        <ele>951.659885</ele>
        <time>2026-08-29T10:33:10.000Z</time>
      </trkpt>
      <trkpt lat="44.93584" lon="5.82226">
        <ele>951.81598</ele>
        <time>2026-08-29T10:33:11.000Z</time>
      </trkpt>
      <trkpt lat="44.93585" lon="5.82224">
        <ele>951.958908</ele>
        <time>2026-08-29T10:33:12.000Z</time>
      </trkpt>
      <trkpt lat="44.93587" lon="5.82221">
        <ele>952.109367</ele>
        <time>2026-08-29T10:33:13.000Z</time>
      </trkpt>
      <trkpt lat="44.93589" lon="5.82219">
        <ele>952.274861</ele>
        <time>2026-08-29T10:33:14.000Z</time>
      </trkpt>
      <trkpt lat="44.93591" lon="5.82216">
        <ele>952.43861</ele>
        <time>2026-08-29T10:33:15.000Z</time>
      </trkpt>
      <trkpt lat="44.93592" lon="5.82214">
        <ele>952.596618</ele>
        <time>2026-08-29T10:33:16.000Z</time>
      </trkpt>
      <trkpt lat="44.93594" lon="5.82211">
        <ele>952.771082</ele>
        <time>2026-08-29T10:33:17.000Z</time>
      </trkpt>
      <trkpt lat="44.93596" lon="5.82208">
        <ele>952.931727</ele>
        <time>2026-08-29T10:33:18.000Z</time>
      </trkpt>
      <trkpt lat="44.93597" lon="5.82206">
        <ele>953.082185</ele>
        <time>2026-08-29T10:33:19.000Z</time>
      </trkpt>
      <trkpt lat="44.93599" lon="5.82203">
        <ele>953.25859</ele>
        <time>2026-08-29T10:33:20.000Z</time>
      </trkpt>
      <trkpt lat="44.93601" lon="5.822">
        <ele>953.422732</ele>
        <time>2026-08-29T10:33:21.000Z</time>
      </trkpt>
      <trkpt lat="44.93602" lon="5.82197">
        <ele>953.583075</ele>
        <time>2026-08-29T10:33:22.000Z</time>
      </trkpt>
      <trkpt lat="44.93604" lon="5.82194">
        <ele>953.739779</ele>
        <time>2026-08-29T10:33:23.000Z</time>
      </trkpt>
      <trkpt lat="44.93605" lon="5.82191">
        <ele>953.893611</ele>
        <time>2026-08-29T10:33:24.000Z</time>
      </trkpt>
      <trkpt lat="44.93606" lon="5.82188">
        <ele>954.039386</ele>
        <time>2026-08-29T10:33:25.000Z</time>
      </trkpt>
      <trkpt lat="44.93607" lon="5.82186">
        <ele>954.175423</ele>
        <time>2026-08-29T10:33:26.000Z</time>
      </trkpt>
      <trkpt lat="44.93608" lon="5.82183">
        <ele>954.307521</ele>
        <time>2026-08-29T10:33:27.000Z</time>
      </trkpt>
      <trkpt lat="44.9361" lon="5.82181">
        <ele>954.435456</ele>
        <time>2026-08-29T10:33:28.000Z</time>
      </trkpt>
      <trkpt lat="44.93611" lon="5.82179">
        <ele>954.559997</ele>
        <time>2026-08-29T10:33:29.000Z</time>
      </trkpt>
      <trkpt lat="44.93612" lon="5.82177">
        <ele>954.673065</ele>
        <time>2026-08-29T10:33:30.000Z</time>
      </trkpt>
      <trkpt lat="44.93613" lon="5.82175">
        <ele>954.793309</ele>
        <time>2026-08-29T10:33:31.000Z</time>
      </trkpt>
      <trkpt lat="44.93614" lon="5.82172">
        <ele>954.907713</ele>
        <time>2026-08-29T10:33:32.000Z</time>
      </trkpt>
      <trkpt lat="44.93615" lon="5.8217">
        <ele>955.015392</ele>
        <time>2026-08-29T10:33:33.000Z</time>
      </trkpt>
      <trkpt lat="44.93615" lon="5.82168">
        <ele>955.108271</ele>
        <time>2026-08-29T10:33:34.000Z</time>
      </trkpt>
      <trkpt lat="44.93616" lon="5.82166">
        <ele>955.2177</ele>
        <time>2026-08-29T10:33:35.000Z</time>
      </trkpt>
      <trkpt lat="44.93617" lon="5.82163">
        <ele>955.340181</ele>
        <time>2026-08-29T10:33:36.000Z</time>
      </trkpt>
      <trkpt lat="44.93618" lon="5.82161">
        <ele>955.46143</ele>
        <time>2026-08-29T10:33:37.000Z</time>
      </trkpt>
      <trkpt lat="44.93618" lon="5.82159">
        <ele>955.577311</ele>
        <time>2026-08-29T10:33:38.000Z</time>
      </trkpt>
      <trkpt lat="44.93619" lon="5.82156">
        <ele>955.698559</ele>
        <time>2026-08-29T10:33:39.000Z</time>
      </trkpt>
      <trkpt lat="44.9362" lon="5.82154">
        <ele>955.827765</ele>
        <time>2026-08-29T10:33:40.000Z</time>
      </trkpt>
      <trkpt lat="44.93621" lon="5.82151">
        <ele>955.939531</ele>
        <time>2026-08-29T10:33:41.000Z</time>
      </trkpt>
      <trkpt lat="44.93621" lon="5.82149">
        <ele>956.057378</ele>
        <time>2026-08-29T10:33:42.000Z</time>
      </trkpt>
      <trkpt lat="44.93622" lon="5.82146">
        <ele>956.166557</ele>
        <time>2026-08-29T10:33:43.000Z</time>
      </trkpt>
      <trkpt lat="44.93622" lon="5.82144">
        <ele>956.309128</ele>
        <time>2026-08-29T10:33:44.000Z</time>
      </trkpt>
      <trkpt lat="44.93623" lon="5.82141">
        <ele>956.451443</ele>
        <time>2026-08-29T10:33:45.000Z</time>
      </trkpt>
      <trkpt lat="44.93624" lon="5.82139">
        <ele>956.574581</ele>
        <time>2026-08-29T10:33:46.000Z</time>
      </trkpt>
      <trkpt lat="44.93625" lon="5.82137">
        <ele>956.700485</ele>
        <time>2026-08-29T10:33:47.000Z</time>
      </trkpt>
      <trkpt lat="44.93625" lon="5.82134">
        <ele>956.828486</ele>
        <time>2026-08-29T10:33:48.000Z</time>
      </trkpt>
      <trkpt lat="44.93626" lon="5.82132">
        <ele>956.963687</ele>
        <time>2026-08-29T10:33:49.000Z</time>
      </trkpt>
      <trkpt lat="44.93627" lon="5.82129">
        <ele>957.089501</ele>
        <time>2026-08-29T10:33:50.000Z</time>
      </trkpt>
      <trkpt lat="44.93627" lon="5.82127">
        <ele>957.223306</ele>
        <time>2026-08-29T10:33:51.000Z</time>
      </trkpt>
      <trkpt lat="44.93627" lon="5.82124">
        <ele>957.353952</ele>
        <time>2026-08-29T10:33:52.000Z</time>
      </trkpt>
      <trkpt lat="44.93628" lon="5.82122">
        <ele>957.481953</ele>
        <time>2026-08-29T10:33:53.000Z</time>
      </trkpt>
      <trkpt lat="44.93628" lon="5.82119">
        <ele>957.630535</ele>
        <time>2026-08-29T10:33:54.000Z</time>
      </trkpt>
      <trkpt lat="44.93629" lon="5.82116">
        <ele>957.784057</ele>
        <time>2026-08-29T10:33:55.000Z</time>
      </trkpt>
      <trkpt lat="44.93629" lon="5.82113">
        <ele>957.939051</ele>
        <time>2026-08-29T10:33:56.000Z</time>
      </trkpt>
      <trkpt lat="44.9363" lon="5.8211">
        <ele>958.086172</ele>
        <time>2026-08-29T10:33:57.000Z</time>
      </trkpt>
      <trkpt lat="44.9363" lon="5.82107">
        <ele>958.259502</ele>
        <time>2026-08-29T10:33:58.000Z</time>
      </trkpt>
      <trkpt lat="44.9363" lon="5.82104">
        <ele>958.380406</ele>
        <time>2026-08-29T10:33:59.000Z</time>
      </trkpt>
      <trkpt lat="44.93631" lon="5.82102">
        <ele>958.506331</ele>
        <time>2026-08-29T10:34:00.000Z</time>
      </trkpt>
      <trkpt lat="44.93631" lon="5.82099">
        <ele>958.647142</ele>
        <time>2026-08-29T10:34:01.000Z</time>
      </trkpt>
      <trkpt lat="44.93631" lon="5.82096">
        <ele>958.783665</ele>
        <time>2026-08-29T10:34:02.000Z</time>
      </trkpt>
      <trkpt lat="44.93631" lon="5.82094">
        <ele>958.914418</ele>
        <time>2026-08-29T10:34:03.000Z</time>
      </trkpt>
      <trkpt lat="44.93631" lon="5.82091">
        <ele>959.060431</ele>
        <time>2026-08-29T10:34:04.000Z</time>
      </trkpt>
      <trkpt lat="44.93631" lon="5.82088">
        <ele>959.201421</ele>
        <time>2026-08-29T10:34:05.000Z</time>
      </trkpt>
      <trkpt lat="44.93631" lon="5.82085">
        <ele>959.342232</ele>
        <time>2026-08-29T10:34:06.000Z</time>
      </trkpt>
      <trkpt lat="44.93631" lon="5.82083">
        <ele>959.478014</ele>
        <time>2026-08-29T10:34:07.000Z</time>
      </trkpt>
      <trkpt lat="44.93631" lon="5.8208">
        <ele>959.624544</ele>
        <time>2026-08-29T10:34:08.000Z</time>
      </trkpt>
      <trkpt lat="44.93631" lon="5.82077">
        <ele>959.76607</ele>
        <time>2026-08-29T10:34:09.000Z</time>
      </trkpt>
      <trkpt lat="44.93631" lon="5.82074">
        <ele>959.912601</ele>
        <time>2026-08-29T10:34:10.000Z</time>
      </trkpt>
      <trkpt lat="44.93632" lon="5.82071">
        <ele>960.048093</ele>
        <time>2026-08-29T10:34:11.000Z</time>
      </trkpt>
      <trkpt lat="44.93632" lon="5.82069">
        <ele>960.181898</ele>
        <time>2026-08-29T10:34:12.000Z</time>
      </trkpt>
      <trkpt lat="44.93633" lon="5.82066">
        <ele>960.334265</ele>
        <time>2026-08-29T10:34:13.000Z</time>
      </trkpt>
      <trkpt lat="44.93633" lon="5.82063">
        <ele>960.487786</ele>
        <time>2026-08-29T10:34:14.000Z</time>
      </trkpt>
      <trkpt lat="44.93633" lon="5.8206">
        <ele>960.641308</ele>
        <time>2026-08-29T10:34:15.000Z</time>
      </trkpt>
      <trkpt lat="44.93634" lon="5.82057">
        <ele>960.784958</ele>
        <time>2026-08-29T10:34:16.000Z</time>
      </trkpt>
      <trkpt lat="44.93634" lon="5.82054">
        <ele>960.946577</ele>
        <time>2026-08-29T10:34:17.000Z</time>
      </trkpt>
      <trkpt lat="44.93635" lon="5.82051">
        <ele>961.093698</ele>
        <time>2026-08-29T10:34:18.000Z</time>
      </trkpt>
      <trkpt lat="44.93635" lon="5.82048">
        <ele>961.242281</ele>
        <time>2026-08-29T10:34:19.000Z</time>
      </trkpt>
      <trkpt lat="44.93636" lon="5.82045">
        <ele>961.390863</ele>
        <time>2026-08-29T10:34:20.000Z</time>
      </trkpt>
      <trkpt lat="44.93636" lon="5.82043">
        <ele>961.533278</ele>
        <time>2026-08-29T10:34:21.000Z</time>
      </trkpt>
      <trkpt lat="44.93636" lon="5.8204">
        <ele>961.686799</ele>
        <time>2026-08-29T10:34:22.000Z</time>
      </trkpt>
      <trkpt lat="44.93637" lon="5.82037">
        <ele>961.840043</ele>
        <time>2026-08-29T10:34:23.000Z</time>
      </trkpt>
      <trkpt lat="44.93638" lon="5.82034">
        <ele>962.002265</ele>
        <time>2026-08-29T10:34:24.000Z</time>
      </trkpt>
      <trkpt lat="44.93639" lon="5.82031">
        <ele>962.166123</ele>
        <time>2026-08-29T10:34:25.000Z</time>
      </trkpt>
      <trkpt lat="44.9364" lon="5.82028">
        <ele>962.322786</ele>
        <time>2026-08-29T10:34:26.000Z</time>
      </trkpt>
      <trkpt lat="44.93641" lon="5.82025">
        <ele>962.486644</ele>
        <time>2026-08-29T10:34:27.000Z</time>
      </trkpt>
      <trkpt lat="44.93642" lon="5.82023">
        <ele>962.622384</ele>
        <time>2026-08-29T10:34:28.000Z</time>
      </trkpt>
      <trkpt lat="44.93643" lon="5.8202">
        <ele>962.770415</ele>
        <time>2026-08-29T10:34:29.000Z</time>
      </trkpt>
      <trkpt lat="44.93645" lon="5.82018">
        <ele>962.93881</ele>
        <time>2026-08-29T10:34:30.000Z</time>
      </trkpt>
      <trkpt lat="44.93646" lon="5.82015">
        <ele>963.094899</ele>
        <time>2026-08-29T10:34:31.000Z</time>
      </trkpt>
      <trkpt lat="44.93647" lon="5.82012">
        <ele>963.271424</ele>
        <time>2026-08-29T10:34:32.000Z</time>
      </trkpt>
      <trkpt lat="44.93649" lon="5.8201">
        <ele>963.423971</ele>
        <time>2026-08-29T10:34:33.000Z</time>
      </trkpt>
      <trkpt lat="44.9365" lon="5.82007">
        <ele>963.608678</ele>
        <time>2026-08-29T10:34:34.000Z</time>
      </trkpt>
      <trkpt lat="44.93652" lon="5.82004">
        <ele>963.774471</ele>
        <time>2026-08-29T10:34:35.000Z</time>
      </trkpt>
      <trkpt lat="44.93653" lon="5.82002">
        <ele>963.939279</ele>
        <time>2026-08-29T10:34:36.000Z</time>
      </trkpt>
      <trkpt lat="44.93655" lon="5.82">
        <ele>964.101447</ele>
        <time>2026-08-29T10:34:37.000Z</time>
      </trkpt>
      <trkpt lat="44.93657" lon="5.81997">
        <ele>964.270936</ele>
        <time>2026-08-29T10:34:38.000Z</time>
      </trkpt>
      <trkpt lat="44.93658" lon="5.81994">
        <ele>964.448014</ele>
        <time>2026-08-29T10:34:39.000Z</time>
      </trkpt>
      <trkpt lat="44.9366" lon="5.81992">
        <ele>964.609019</ele>
        <time>2026-08-29T10:34:40.000Z</time>
      </trkpt>
      <trkpt lat="44.93661" lon="5.8199">
        <ele>964.784857</ele>
        <time>2026-08-29T10:34:41.000Z</time>
      </trkpt>
      <trkpt lat="44.93663" lon="5.81988">
        <ele>964.942024</ele>
        <time>2026-08-29T10:34:42.000Z</time>
      </trkpt>
      <trkpt lat="44.93665" lon="5.81985">
        <ele>965.107817</ele>
        <time>2026-08-29T10:34:43.000Z</time>
      </trkpt>
      <trkpt lat="44.93667" lon="5.81983">
        <ele>965.273192</ele>
        <time>2026-08-29T10:34:44.000Z</time>
      </trkpt>
      <trkpt lat="44.93668" lon="5.81981">
        <ele>965.432821</ele>
        <time>2026-08-29T10:34:45.000Z</time>
      </trkpt>
      <trkpt lat="44.9367" lon="5.8198">
        <ele>965.581287</ele>
        <time>2026-08-29T10:34:46.000Z</time>
      </trkpt>
      <trkpt lat="44.93672" lon="5.81978">
        <ele>965.741062</ele>
        <time>2026-08-29T10:34:47.000Z</time>
      </trkpt>
      <trkpt lat="44.93674" lon="5.81977">
        <ele>965.906883</ele>
        <time>2026-08-29T10:34:48.000Z</time>
      </trkpt>
      <trkpt lat="44.93676" lon="5.81975">
        <ele>966.072703</ele>
        <time>2026-08-29T10:34:49.000Z</time>
      </trkpt>
      <trkpt lat="44.93678" lon="5.81973">
        <ele>966.229844</ele>
        <time>2026-08-29T10:34:50.000Z</time>
      </trkpt>
      <trkpt lat="44.9368" lon="5.81972">
        <ele>966.389619</ele>
        <time>2026-08-29T10:34:51.000Z</time>
      </trkpt>
      <trkpt lat="44.93682" lon="5.8197">
        <ele>966.549394</ele>
        <time>2026-08-29T10:34:52.000Z</time>
      </trkpt>
      <trkpt lat="44.93684" lon="5.81968">
        <ele>966.712678</ele>
        <time>2026-08-29T10:34:53.000Z</time>
      </trkpt>
      <trkpt lat="44.93686" lon="5.81967">
        <ele>966.873544</ele>
        <time>2026-08-29T10:34:54.000Z</time>
      </trkpt>
      <trkpt lat="44.93688" lon="5.81965">
        <ele>967.034409</ele>
        <time>2026-08-29T10:34:55.000Z</time>
      </trkpt>
      <trkpt lat="44.9369" lon="5.81964">
        <ele>967.193522</ele>
        <time>2026-08-29T10:34:56.000Z</time>
      </trkpt>
      <trkpt lat="44.93692" lon="5.81963">
        <ele>967.352092</ele>
        <time>2026-08-29T10:34:57.000Z</time>
      </trkpt>
      <trkpt lat="44.93694" lon="5.81962">
        <ele>967.506459</ele>
        <time>2026-08-29T10:34:58.000Z</time>
      </trkpt>
      <trkpt lat="44.93696" lon="5.8196">
        <ele>967.667389</ele>
        <time>2026-08-29T10:34:59.000Z</time>
      </trkpt>
      <trkpt lat="44.93698" lon="5.81959">
        <ele>967.826501</ele>
        <time>2026-08-29T10:35:00.000Z</time>
      </trkpt>
      <trkpt lat="44.937" lon="5.81958">
        <ele>967.989214</ele>
        <time>2026-08-29T10:35:01.000Z</time>
      </trkpt>
      <trkpt lat="44.93703" lon="5.81957">
        <ele>968.156751</ele>
        <time>2026-08-29T10:35:02.000Z</time>
      </trkpt>
      <trkpt lat="44.93705" lon="5.81956">
        <ele>968.334668</ele>
        <time>2026-08-29T10:35:03.000Z</time>
      </trkpt>
      <trkpt lat="44.93707" lon="5.81955">
        <ele>968.507174</ele>
        <time>2026-08-29T10:35:04.000Z</time>
      </trkpt>
      <trkpt lat="44.93709" lon="5.81954">
        <ele>968.669886</ele>
        <time>2026-08-29T10:35:05.000Z</time>
      </trkpt>
      <trkpt lat="44.93712" lon="5.81953">
        <ele>968.839434</ele>
        <time>2026-08-29T10:35:06.000Z</time>
      </trkpt>
      <trkpt lat="44.93714" lon="5.81952">
        <ele>969.001984</ele>
        <time>2026-08-29T10:35:07.000Z</time>
      </trkpt>
      <trkpt lat="44.93716" lon="5.81951">
        <ele>969.143494</ele>
        <time>2026-08-29T10:35:08.000Z</time>
      </trkpt>
      <trkpt lat="44.93718" lon="5.8195">
        <ele>969.291069</ele>
        <time>2026-08-29T10:35:09.000Z</time>
      </trkpt>
      <trkpt lat="44.9372" lon="5.81948">
        <ele>969.440091</ele>
        <time>2026-08-29T10:35:10.000Z</time>
      </trkpt>
      <trkpt lat="44.93723" lon="5.81947">
        <ele>969.587666</ele>
        <time>2026-08-29T10:35:11.000Z</time>
      </trkpt>
      <trkpt lat="44.93725" lon="5.81946">
        <ele>969.736688</ele>
        <time>2026-08-29T10:35:12.000Z</time>
      </trkpt>
      <trkpt lat="44.93727" lon="5.81945">
        <ele>969.88571</ele>
        <time>2026-08-29T10:35:13.000Z</time>
      </trkpt>
      <trkpt lat="44.93729" lon="5.81944">
        <ele>970.037987</ele>
        <time>2026-08-29T10:35:14.000Z</time>
      </trkpt>
      <trkpt lat="44.93731" lon="5.81943">
        <ele>970.191653</ele>
        <time>2026-08-29T10:35:15.000Z</time>
      </trkpt>
      <trkpt lat="44.93734" lon="5.81942">
        <ele>970.336714</ele>
        <time>2026-08-29T10:35:16.000Z</time>
      </trkpt>
      <trkpt lat="44.93736" lon="5.81941">
        <ele>970.487968</ele>
        <time>2026-08-29T10:35:17.000Z</time>
      </trkpt>
      <trkpt lat="44.93738" lon="5.8194">
        <ele>970.640366</ele>
        <time>2026-08-29T10:35:18.000Z</time>
      </trkpt>
      <trkpt lat="44.9374" lon="5.8194">
        <ele>970.78662</ele>
        <time>2026-08-29T10:35:19.000Z</time>
      </trkpt>
      <trkpt lat="44.93743" lon="5.81939">
        <ele>970.945181</ele>
        <time>2026-08-29T10:35:20.000Z</time>
      </trkpt>
      <trkpt lat="44.93745" lon="5.81938">
        <ele>971.096435</ele>
        <time>2026-08-29T10:35:21.000Z</time>
      </trkpt>
      <trkpt lat="44.93747" lon="5.81937">
        <ele>971.241496</ele>
        <time>2026-08-29T10:35:22.000Z</time>
      </trkpt>
      <trkpt lat="44.93749" lon="5.81936">
        <ele>971.381628</ele>
        <time>2026-08-29T10:35:23.000Z</time>
      </trkpt>
      <trkpt lat="44.93752" lon="5.81935">
        <ele>971.527882</ele>
        <time>2026-08-29T10:35:24.000Z</time>
      </trkpt>
      <trkpt lat="44.93754" lon="5.81934">
        <ele>971.675457</ele>
        <time>2026-08-29T10:35:25.000Z</time>
      </trkpt>
      <trkpt lat="44.93756" lon="5.81933">
        <ele>971.836574</ele>
        <time>2026-08-29T10:35:26.000Z</time>
      </trkpt>
      <trkpt lat="44.93759" lon="5.81932">
        <ele>971.996354</ele>
        <time>2026-08-29T10:35:27.000Z</time>
      </trkpt>
      <trkpt lat="44.93761" lon="5.81931">
        <ele>972.160037</ele>
        <time>2026-08-29T10:35:28.000Z</time>
      </trkpt>
      <trkpt lat="44.93764" lon="5.8193">
        <ele>972.318598</ele>
        <time>2026-08-29T10:35:29.000Z</time>
      </trkpt>
      <trkpt lat="44.93766" lon="5.81929">
        <ele>972.484513</ele>
        <time>2026-08-29T10:35:30.000Z</time>
      </trkpt>
      <trkpt lat="44.93769" lon="5.81928">
        <ele>972.651716</ele>
        <time>2026-08-29T10:35:31.000Z</time>
      </trkpt>
      <trkpt lat="44.93771" lon="5.81927">
        <ele>972.814285</ele>
        <time>2026-08-29T10:35:32.000Z</time>
      </trkpt>
      <trkpt lat="44.93773" lon="5.81926">
        <ele>972.971746</ele>
        <time>2026-08-29T10:35:33.000Z</time>
      </trkpt>
      <trkpt lat="44.93776" lon="5.81925">
        <ele>973.124144</ele>
        <time>2026-08-29T10:35:34.000Z</time>
      </trkpt>
      <trkpt lat="44.93778" lon="5.81925">
        <ele>973.281606</ele>
        <time>2026-08-29T10:35:35.000Z</time>
      </trkpt>
      <trkpt lat="44.9378" lon="5.81924">
        <ele>973.438091</ele>
        <time>2026-08-29T10:35:36.000Z</time>
      </trkpt>
      <trkpt lat="44.93783" lon="5.81923">
        <ele>973.597871</ele>
        <time>2026-08-29T10:35:37.000Z</time>
      </trkpt>
      <trkpt lat="44.93785" lon="5.81922">
        <ele>973.76044</ele>
        <time>2026-08-29T10:35:38.000Z</time>
      </trkpt>
      <trkpt lat="44.93788" lon="5.81921">
        <ele>973.92301</ele>
        <time>2026-08-29T10:35:39.000Z</time>
      </trkpt>
      <trkpt lat="44.9379" lon="5.8192">
        <ele>974.086693</ele>
        <time>2026-08-29T10:35:40.000Z</time>
      </trkpt>
      <trkpt lat="44.93792" lon="5.81919">
        <ele>974.23693</ele>
        <time>2026-08-29T10:35:41.000Z</time>
      </trkpt>
      <trkpt lat="44.93795" lon="5.81918">
        <ele>974.388184</ele>
        <time>2026-08-29T10:35:42.000Z</time>
      </trkpt>
      <trkpt lat="44.93797" lon="5.81918">
        <ele>974.544669</ele>
        <time>2026-08-29T10:35:43.000Z</time>
      </trkpt>
      <trkpt lat="44.93799" lon="5.81917">
        <ele>974.69402</ele>
        <time>2026-08-29T10:35:44.000Z</time>
      </trkpt>
      <trkpt lat="44.93802" lon="5.81916">
        <ele>974.855946</ele>
        <time>2026-08-29T10:35:45.000Z</time>
      </trkpt>
      <trkpt lat="44.93805" lon="5.81916">
        <ele>975.024958</ele>
        <time>2026-08-29T10:35:46.000Z</time>
      </trkpt>
      <trkpt lat="44.93807" lon="5.81915">
        <ele>975.187702</ele>
        <time>2026-08-29T10:35:47.000Z</time>
      </trkpt>
      <trkpt lat="44.93809" lon="5.81914">
        <ele>975.344188</ele>
        <time>2026-08-29T10:35:48.000Z</time>
      </trkpt>
      <trkpt lat="44.93812" lon="5.81913">
        <ele>975.495442</ele>
        <time>2026-08-29T10:35:49.000Z</time>
      </trkpt>
      <trkpt lat="44.93814" lon="5.81913">
        <ele>975.646695</ele>
        <time>2026-08-29T10:35:50.000Z</time>
      </trkpt>
      <trkpt lat="44.93816" lon="5.81912">
        <ele>975.800547</ele>
        <time>2026-08-29T10:35:51.000Z</time>
      </trkpt>
      <trkpt lat="44.93819" lon="5.81912">
        <ele>975.96423</ele>
        <time>2026-08-29T10:35:52.000Z</time>
      </trkpt>
      <trkpt lat="44.93821" lon="5.81911">
        <ele>976.12489</ele>
        <time>2026-08-29T10:35:53.000Z</time>
      </trkpt>
      <trkpt lat="44.93824" lon="5.81911">
        <ele>976.30573</ele>
        <time>2026-08-29T10:35:54.000Z</time>
      </trkpt>
      <trkpt lat="44.93827" lon="5.8191">
        <ele>976.481019</ele>
        <time>2026-08-29T10:35:55.000Z</time>
      </trkpt>
      <trkpt lat="44.9383" lon="5.81909">
        <ele>976.653087</ele>
        <time>2026-08-29T10:35:56.000Z</time>
      </trkpt>
      <trkpt lat="44.93832" lon="5.81908">
        <ele>976.831323</ele>
        <time>2026-08-29T10:35:57.000Z</time>
      </trkpt>
      <trkpt lat="44.93835" lon="5.81907">
        <ele>977.000336</ele>
        <time>2026-08-29T10:35:58.000Z</time>
      </trkpt>
      <trkpt lat="44.93837" lon="5.81906">
        <ele>977.164019</ele>
        <time>2026-08-29T10:35:59.000Z</time>
      </trkpt>
      <trkpt lat="44.9384" lon="5.81905">
        <ele>977.329933</ele>
        <time>2026-08-29T10:36:00.000Z</time>
      </trkpt>
      <trkpt lat="44.93842" lon="5.81904">
        <ele>977.497136</ele>
        <time>2026-08-29T10:36:01.000Z</time>
      </trkpt>
      <trkpt lat="44.93845" lon="5.81904">
        <ele>977.659062</ele>
        <time>2026-08-29T10:36:02.000Z</time>
      </trkpt>
      <trkpt lat="44.93847" lon="5.81903">
        <ele>977.828074</ele>
        <time>2026-08-29T10:36:03.000Z</time>
      </trkpt>
      <trkpt lat="44.9385" lon="5.81902">
        <ele>977.99563</ele>
        <time>2026-08-29T10:36:04.000Z</time>
      </trkpt>
      <trkpt lat="44.93853" lon="5.81901">
        <ele>978.173866</ele>
        <time>2026-08-29T10:36:05.000Z</time>
      </trkpt>
      <trkpt lat="44.93855" lon="5.819">
        <ele>978.339781</ele>
        <time>2026-08-29T10:36:06.000Z</time>
      </trkpt>
      <trkpt lat="44.93858" lon="5.81899">
        <ele>978.505695</ele>
        <time>2026-08-29T10:36:07.000Z</time>
      </trkpt>
      <trkpt lat="44.9386" lon="5.81898">
        <ele>978.67161</ele>
        <time>2026-08-29T10:36:08.000Z</time>
      </trkpt>
      <trkpt lat="44.93863" lon="5.81898">
        <ele>978.835293</ele>
        <time>2026-08-29T10:36:09.000Z</time>
      </trkpt>
      <trkpt lat="44.93865" lon="5.81897">
        <ele>979.00736</ele>
        <time>2026-08-29T10:36:10.000Z</time>
      </trkpt>
      <trkpt lat="44.93868" lon="5.81896">
        <ele>979.178296</ele>
        <time>2026-08-29T10:36:11.000Z</time>
      </trkpt>
      <trkpt lat="44.93871" lon="5.81895">
        <ele>979.351605</ele>
        <time>2026-08-29T10:36:12.000Z</time>
      </trkpt>
      <trkpt lat="44.93873" lon="5.81894">
        <ele>979.518808</ele>
        <time>2026-08-29T10:36:13.000Z</time>
      </trkpt>
      <trkpt lat="44.93875" lon="5.81892">
        <ele>979.688268</ele>
        <time>2026-08-29T10:36:14.000Z</time>
      </trkpt>
      <trkpt lat="44.93878" lon="5.81891">
        <ele>979.858378</ele>
        <time>2026-08-29T10:36:15.000Z</time>
      </trkpt>
      <trkpt lat="44.9388" lon="5.8189">
        <ele>980.004632</ele>
        <time>2026-08-29T10:36:16.000Z</time>
      </trkpt>
      <trkpt lat="44.93883" lon="5.81888">
        <ele>980.172213</ele>
        <time>2026-08-29T10:36:17.000Z</time>
      </trkpt>
      <trkpt lat="44.93885" lon="5.81887">
        <ele>980.343937</ele>
        <time>2026-08-29T10:36:18.000Z</time>
      </trkpt>
      <trkpt lat="44.93887" lon="5.81885">
        <ele>980.48918</ele>
        <time>2026-08-29T10:36:19.000Z</time>
      </trkpt>
      <trkpt lat="44.9389" lon="5.81884">
        <ele>980.618579</ele>
        <time>2026-08-29T10:36:20.000Z</time>
      </trkpt>
      <trkpt lat="44.93892" lon="5.81883">
        <ele>980.743518</ele>
        <time>2026-08-29T10:36:21.000Z</time>
      </trkpt>
      <trkpt lat="44.93895" lon="5.81881">
        <ele>980.868456</ele>
        <time>2026-08-29T10:36:22.000Z</time>
      </trkpt>
      <trkpt lat="44.93897" lon="5.8188">
        <ele>980.994734</ele>
        <time>2026-08-29T10:36:23.000Z</time>
      </trkpt>
      <trkpt lat="44.939" lon="5.81878">
        <ele>981.119673</ele>
        <time>2026-08-29T10:36:24.000Z</time>
      </trkpt>
      <trkpt lat="44.93902" lon="5.81877">
        <ele>981.251735</ele>
        <time>2026-08-29T10:36:25.000Z</time>
      </trkpt>
      <trkpt lat="44.93905" lon="5.81875">
        <ele>981.384444</ele>
        <time>2026-08-29T10:36:26.000Z</time>
      </trkpt>
      <trkpt lat="44.93907" lon="5.81874">
        <ele>981.513843</ele>
        <time>2026-08-29T10:36:27.000Z</time>
      </trkpt>
      <trkpt lat="44.9391" lon="5.81872">
        <ele>981.647346</ele>
        <time>2026-08-29T10:36:28.000Z</time>
      </trkpt>
      <trkpt lat="44.93912" lon="5.81871">
        <ele>981.780849</ele>
        <time>2026-08-29T10:36:29.000Z</time>
      </trkpt>
      <trkpt lat="44.93915" lon="5.81869">
        <ele>981.910248</ele>
        <time>2026-08-29T10:36:30.000Z</time>
      </trkpt>
      <trkpt lat="44.93917" lon="5.81868">
        <ele>982.040941</ele>
        <time>2026-08-29T10:36:31.000Z</time>
      </trkpt>
      <trkpt lat="44.9392" lon="5.81866">
        <ele>982.175956</ele>
        <time>2026-08-29T10:36:32.000Z</time>
      </trkpt>
      <trkpt lat="44.93922" lon="5.81864">
        <ele>982.310971</ele>
        <time>2026-08-29T10:36:33.000Z</time>
      </trkpt>
      <trkpt lat="44.93924" lon="5.81862">
        <ele>982.435872</ele>
        <time>2026-08-29T10:36:34.000Z</time>
      </trkpt>
      <trkpt lat="44.93927" lon="5.81861">
        <ele>982.565057</ele>
        <time>2026-08-29T10:36:35.000Z</time>
      </trkpt>
      <trkpt lat="44.93929" lon="5.81859">
        <ele>982.697118</ele>
        <time>2026-08-29T10:36:36.000Z</time>
      </trkpt>
      <trkpt lat="44.93932" lon="5.81858">
        <ele>982.841208</ele>
        <time>2026-08-29T10:36:37.000Z</time>
      </trkpt>
      <trkpt lat="44.93935" lon="5.81856">
        <ele>982.968901</ele>
        <time>2026-08-29T10:36:38.000Z</time>
      </trkpt>
      <trkpt lat="44.93937" lon="5.81855">
        <ele>983.104036</ele>
        <time>2026-08-29T10:36:39.000Z</time>
      </trkpt>
      <trkpt lat="44.93939" lon="5.81853">
        <ele>983.227395</ele>
        <time>2026-08-29T10:36:40.000Z</time>
      </trkpt>
      <trkpt lat="44.93942" lon="5.81852">
        <ele>983.356795</ele>
        <time>2026-08-29T10:36:41.000Z</time>
      </trkpt>
      <trkpt lat="44.93944" lon="5.8185">
        <ele>983.485979</ele>
        <time>2026-08-29T10:36:42.000Z</time>
      </trkpt>
      <trkpt lat="44.93947" lon="5.81848">
        <ele>983.620994</ele>
        <time>2026-08-29T10:36:43.000Z</time>
      </trkpt>
      <trkpt lat="44.93949" lon="5.81846">
        <ele>983.748687</ele>
        <time>2026-08-29T10:36:44.000Z</time>
      </trkpt>
      <trkpt lat="44.93952" lon="5.81845">
        <ele>983.88219</ele>
        <time>2026-08-29T10:36:45.000Z</time>
      </trkpt>
      <trkpt lat="44.93954" lon="5.81844">
        <ele>984.003597</ele>
        <time>2026-08-29T10:36:46.000Z</time>
      </trkpt>
      <trkpt lat="44.93957" lon="5.81842">
        <ele>984.137481</ele>
        <time>2026-08-29T10:36:47.000Z</time>
      </trkpt>
      <trkpt lat="44.93959" lon="5.8184">
        <ele>984.269858</ele>
        <time>2026-08-29T10:36:48.000Z</time>
      </trkpt>
      <trkpt lat="44.93962" lon="5.81839">
        <ele>984.393537</ele>
        <time>2026-08-29T10:36:49.000Z</time>
      </trkpt>
      <trkpt lat="44.93964" lon="5.81838">
        <ele>984.509329</ele>
        <time>2026-08-29T10:36:50.000Z</time>
      </trkpt>
      <trkpt lat="44.93966" lon="5.81837">
        <ele>984.640941</ele>
        <time>2026-08-29T10:36:51.000Z</time>
      </trkpt>
      <trkpt lat="44.93969" lon="5.81836">
        <ele>984.769124</ele>
        <time>2026-08-29T10:36:52.000Z</time>
      </trkpt>
      <trkpt lat="44.93972" lon="5.81834">
        <ele>984.906978</ele>
        <time>2026-08-29T10:36:53.000Z</time>
      </trkpt>
      <trkpt lat="44.93974" lon="5.81832">
        <ele>985.040481</ele>
        <time>2026-08-29T10:36:54.000Z</time>
      </trkpt>
      <trkpt lat="44.93977" lon="5.81831">
        <ele>985.172542</ele>
        <time>2026-08-29T10:36:55.000Z</time>
      </trkpt>
      <trkpt lat="44.93979" lon="5.81829">
        <ele>985.305251</ele>
        <time>2026-08-29T10:36:56.000Z</time>
      </trkpt>
      <trkpt lat="44.93982" lon="5.81828">
        <ele>985.431528</ele>
        <time>2026-08-29T10:36:57.000Z</time>
      </trkpt>
      <trkpt lat="44.93984" lon="5.81826">
        <ele>985.572379</ele>
        <time>2026-08-29T10:36:58.000Z</time>
      </trkpt>
      <trkpt lat="44.93987" lon="5.81824">
        <ele>985.710233</ele>
        <time>2026-08-29T10:36:59.000Z</time>
      </trkpt>
      <trkpt lat="44.93989" lon="5.81823">
        <ele>985.842294</ele>
        <time>2026-08-29T10:37:00.000Z</time>
      </trkpt>
      <trkpt lat="44.93992" lon="5.81822">
        <ele>985.962694</ele>
        <time>2026-08-29T10:37:01.000Z</time>
      </trkpt>
      <trkpt lat="44.93994" lon="5.8182">
        <ele>986.077498</ele>
        <time>2026-08-29T10:37:02.000Z</time>
      </trkpt>
      <trkpt lat="44.93996" lon="5.81818">
        <ele>986.203776</ele>
        <time>2026-08-29T10:37:03.000Z</time>
      </trkpt>
      <trkpt lat="44.93999" lon="5.81817">
        <ele>986.334522</ele>
        <time>2026-08-29T10:37:04.000Z</time>
      </trkpt>
      <trkpt lat="44.94001" lon="5.81815">
        <ele>986.463705</ele>
        <time>2026-08-29T10:37:05.000Z</time>
      </trkpt>
      <trkpt lat="44.94003" lon="5.81814">
        <ele>986.588644</ele>
        <time>2026-08-29T10:37:06.000Z</time>
      </trkpt>
      <trkpt lat="44.94006" lon="5.81812">
        <ele>986.719238</ele>
        <time>2026-08-29T10:37:07.000Z</time>
      </trkpt>
      <trkpt lat="44.94009" lon="5.81811">
        <ele>986.857628</ele>
        <time>2026-08-29T10:37:08.000Z</time>
      </trkpt>
      <trkpt lat="44.94011" lon="5.8181">
        <ele>986.992839</ele>
        <time>2026-08-29T10:37:09.000Z</time>
      </trkpt>
      <trkpt lat="44.94014" lon="5.81808">
        <ele>987.11774</ele>
        <time>2026-08-29T10:37:10.000Z</time>
      </trkpt>
      <trkpt lat="44.94016" lon="5.81807">
        <ele>987.249801</ele>
        <time>2026-08-29T10:37:11.000Z</time>
      </trkpt>
      <trkpt lat="44.94019" lon="5.81806">
        <ele>987.384108</ele>
        <time>2026-08-29T10:37:12.000Z</time>
      </trkpt>
      <trkpt lat="44.94022" lon="5.81805">
        <ele>987.519319</ele>
        <time>2026-08-29T10:37:13.000Z</time>
      </trkpt>
      <trkpt lat="44.94024" lon="5.81803">
        <ele>987.658919</ele>
        <time>2026-08-29T10:37:14.000Z</time>
      </trkpt>
      <trkpt lat="44.94027" lon="5.81801">
        <ele>987.79887</ele>
        <time>2026-08-29T10:37:15.000Z</time>
      </trkpt>
      <trkpt lat="44.94029" lon="5.81798">
        <ele>987.954203</ele>
        <time>2026-08-29T10:37:16.000Z</time>
      </trkpt>
      <trkpt lat="44.94032" lon="5.81796">
        <ele>988.109471</ele>
        <time>2026-08-29T10:37:17.000Z</time>
      </trkpt>
      <trkpt lat="44.94035" lon="5.81793">
        <ele>988.267302</ele>
        <time>2026-08-29T10:37:18.000Z</time>
      </trkpt>
      <trkpt lat="44.94037" lon="5.8179">
        <ele>988.420576</ele>
        <time>2026-08-29T10:37:19.000Z</time>
      </trkpt>
      <trkpt lat="44.94039" lon="5.81787">
        <ele>988.566667</ele>
        <time>2026-08-29T10:37:20.000Z</time>
      </trkpt>
      <trkpt lat="44.94042" lon="5.81785">
        <ele>988.708151</ele>
        <time>2026-08-29T10:37:21.000Z</time>
      </trkpt>
      <trkpt lat="44.94044" lon="5.81782">
        <ele>988.86166</ele>
        <time>2026-08-29T10:37:22.000Z</time>
      </trkpt>
      <trkpt lat="44.94047" lon="5.81779">
        <ele>989.009996</ele>
        <time>2026-08-29T10:37:23.000Z</time>
      </trkpt>
      <trkpt lat="44.94049" lon="5.81776">
        <ele>989.133074</ele>
        <time>2026-08-29T10:37:24.000Z</time>
      </trkpt>
      <trkpt lat="44.94051" lon="5.81773">
        <ele>989.239437</ele>
        <time>2026-08-29T10:37:25.000Z</time>
      </trkpt>
      <trkpt lat="44.94054" lon="5.8177">
        <ele>989.351251</ele>
        <time>2026-08-29T10:37:26.000Z</time>
      </trkpt>
      <trkpt lat="44.94057" lon="5.81767">
        <ele>989.460106</ele>
        <time>2026-08-29T10:37:27.000Z</time>
      </trkpt>
      <trkpt lat="44.94059" lon="5.81764">
        <ele>989.566116</ele>
        <time>2026-08-29T10:37:28.000Z</time>
      </trkpt>
      <trkpt lat="44.94062" lon="5.81762">
        <ele>989.676043</ele>
        <time>2026-08-29T10:37:29.000Z</time>
      </trkpt>
      <trkpt lat="44.94065" lon="5.81759">
        <ele>989.778082</ele>
        <time>2026-08-29T10:37:30.000Z</time>
      </trkpt>
      <trkpt lat="44.94067" lon="5.81756">
        <ele>989.880488</ele>
        <time>2026-08-29T10:37:31.000Z</time>
      </trkpt>
      <trkpt lat="44.9407" lon="5.81753">
        <ele>989.987905</ele>
        <time>2026-08-29T10:37:32.000Z</time>
      </trkpt>
      <trkpt lat="44.94072" lon="5.8175">
        <ele>990.090311</ele>
        <time>2026-08-29T10:37:33.000Z</time>
      </trkpt>
      <trkpt lat="44.94074" lon="5.81748">
        <ele>990.188321</ele>
        <time>2026-08-29T10:37:34.000Z</time>
      </trkpt>
      <trkpt lat="44.94077" lon="5.81745">
        <ele>990.28925</ele>
        <time>2026-08-29T10:37:35.000Z</time>
      </trkpt>
      <trkpt lat="44.94079" lon="5.81742">
        <ele>990.3927</ele>
        <time>2026-08-29T10:37:36.000Z</time>
      </trkpt>
      <trkpt lat="44.94082" lon="5.81739">
        <ele>990.502911</ele>
        <time>2026-08-29T10:37:37.000Z</time>
      </trkpt>
      <trkpt lat="44.94084" lon="5.81736">
        <ele>990.609273</ele>
        <time>2026-08-29T10:37:38.000Z</time>
      </trkpt>
      <trkpt lat="44.94087" lon="5.81733">
        <ele>990.718127</ele>
        <time>2026-08-29T10:37:39.000Z</time>
      </trkpt>
      <trkpt lat="44.9409" lon="5.8173">
        <ele>990.826733</ele>
        <time>2026-08-29T10:37:40.000Z</time>
      </trkpt>
      <trkpt lat="44.94092" lon="5.81727">
        <ele>990.93415</ele>
        <time>2026-08-29T10:37:41.000Z</time>
      </trkpt>
      <trkpt lat="44.94095" lon="5.81724">
        <ele>991.039041</ele>
        <time>2026-08-29T10:37:42.000Z</time>
      </trkpt>
      <trkpt lat="44.94097" lon="5.81721">
        <ele>991.141446</ele>
        <time>2026-08-29T10:37:43.000Z</time>
      </trkpt>
      <trkpt lat="44.94099" lon="5.81718">
        <ele>991.248456</ele>
        <time>2026-08-29T10:37:44.000Z</time>
      </trkpt>
      <trkpt lat="44.94102" lon="5.81715">
        <ele>991.352368</ele>
        <time>2026-08-29T10:37:45.000Z</time>
      </trkpt>
      <trkpt lat="44.94104" lon="5.81712">
        <ele>991.45873</ele>
        <time>2026-08-29T10:37:46.000Z</time>
      </trkpt>
      <trkpt lat="44.94107" lon="5.81709">
        <ele>991.562642</ele>
        <time>2026-08-29T10:37:47.000Z</time>
      </trkpt>
      <trkpt lat="44.94109" lon="5.81706">
        <ele>991.673586</ele>
        <time>2026-08-29T10:37:48.000Z</time>
      </trkpt>
      <trkpt lat="44.94112" lon="5.81703">
        <ele>991.781448</ele>
        <time>2026-08-29T10:37:49.000Z</time>
      </trkpt>
      <trkpt lat="44.94114" lon="5.817">
        <ele>991.88536</ele>
        <time>2026-08-29T10:37:50.000Z</time>
      </trkpt>
      <trkpt lat="44.94117" lon="5.81697">
        <ele>991.990807</ele>
        <time>2026-08-29T10:37:51.000Z</time>
      </trkpt>
      <trkpt lat="44.94119" lon="5.81694">
        <ele>992.101127</ele>
        <time>2026-08-29T10:37:52.000Z</time>
      </trkpt>
      <trkpt lat="44.94122" lon="5.8169">
        <ele>992.208989</ele>
        <time>2026-08-29T10:37:53.000Z</time>
      </trkpt>
      <trkpt lat="44.94124" lon="5.81688">
        <ele>992.318969</ele>
        <time>2026-08-29T10:37:54.000Z</time>
      </trkpt>
      <trkpt lat="44.94127" lon="5.81684">
        <ele>992.424415</ele>
        <time>2026-08-29T10:37:55.000Z</time>
      </trkpt>
      <trkpt lat="44.94129" lon="5.81682">
        <ele>992.525344</ele>
        <time>2026-08-29T10:37:56.000Z</time>
      </trkpt>
      <trkpt lat="44.94131" lon="5.81679">
        <ele>992.628421</ele>
        <time>2026-08-29T10:37:57.000Z</time>
      </trkpt>
      <trkpt lat="44.94134" lon="5.81675">
        <ele>992.737018</ele>
        <time>2026-08-29T10:37:58.000Z</time>
      </trkpt>
      <trkpt lat="44.94136" lon="5.81672">
        <ele>992.844026</ele>
        <time>2026-08-29T10:37:59.000Z</time>
      </trkpt>
      <trkpt lat="44.94139" lon="5.81669">
        <ele>992.952623</ele>
        <time>2026-08-29T10:38:00.000Z</time>
      </trkpt>
      <trkpt lat="44.94141" lon="5.81666">
        <ele>993.06004</ele>
        <time>2026-08-29T10:38:01.000Z</time>
      </trkpt>
      <trkpt lat="44.94144" lon="5.81663">
        <ele>993.166337</ele>
        <time>2026-08-29T10:38:02.000Z</time>
      </trkpt>
      <trkpt lat="44.94146" lon="5.81659">
        <ele>993.274934</ele>
        <time>2026-08-29T10:38:03.000Z</time>
      </trkpt>
      <trkpt lat="44.94148" lon="5.81656">
        <ele>993.378846</ele>
        <time>2026-08-29T10:38:04.000Z</time>
      </trkpt>
      <trkpt lat="44.94151" lon="5.81653">
        <ele>993.474862</ele>
        <time>2026-08-29T10:38:05.000Z</time>
      </trkpt>
      <trkpt lat="44.94153" lon="5.81651">
        <ele>993.571601</ele>
        <time>2026-08-29T10:38:06.000Z</time>
      </trkpt>
      <trkpt lat="44.94156" lon="5.81649">
        <ele>993.672669</ele>
        <time>2026-08-29T10:38:07.000Z</time>
      </trkpt>
      <trkpt lat="44.94158" lon="5.81646">
        <ele>993.769636</ele>
        <time>2026-08-29T10:38:08.000Z</time>
      </trkpt>
      <trkpt lat="44.9416" lon="5.81643">
        <ele>993.870392</ele>
        <time>2026-08-29T10:38:09.000Z</time>
      </trkpt>
      <trkpt lat="44.94162" lon="5.8164">
        <ele>993.971147</ele>
        <time>2026-08-29T10:38:10.000Z</time>
      </trkpt>
      <trkpt lat="44.94164" lon="5.81637">
        <ele>994.069128</ele>
        <time>2026-08-29T10:38:11.000Z</time>
      </trkpt>
      <trkpt lat="44.94167" lon="5.81634">
        <ele>994.169284</ele>
        <time>2026-08-29T10:38:12.000Z</time>
      </trkpt>
      <trkpt lat="44.94169" lon="5.8163">
        <ele>994.271136</ele>
        <time>2026-08-29T10:38:13.000Z</time>
      </trkpt>
      <trkpt lat="44.94171" lon="5.81627">
        <ele>994.382444</ele>
        <time>2026-08-29T10:38:14.000Z</time>
      </trkpt>
      <trkpt lat="44.94173" lon="5.81623">
        <ele>994.491297</ele>
        <time>2026-08-29T10:38:15.000Z</time>
      </trkpt>
      <trkpt lat="44.94175" lon="5.81619">
        <ele>994.596335</ele>
        <time>2026-08-29T10:38:16.000Z</time>
      </trkpt>
      <trkpt lat="44.94177" lon="5.81615">
        <ele>994.70707</ele>
        <time>2026-08-29T10:38:17.000Z</time>
      </trkpt>
      <trkpt lat="44.94179" lon="5.81611">
        <ele>994.823227</ele>
        <time>2026-08-29T10:38:18.000Z</time>
      </trkpt>
      <trkpt lat="44.94181" lon="5.81607">
        <ele>994.924281</ele>
        <time>2026-08-29T10:38:19.000Z</time>
      </trkpt>
      <trkpt lat="44.94183" lon="5.81603">
        <ele>994.971887</ele>
        <time>2026-08-29T10:38:20.000Z</time>
      </trkpt>
      <trkpt lat="44.94184" lon="5.81599">
        <ele>995.024332</ele>
        <time>2026-08-29T10:38:21.000Z</time>
      </trkpt>
      <trkpt lat="44.94186" lon="5.81595">
        <ele>995.076242</ele>
        <time>2026-08-29T10:38:22.000Z</time>
      </trkpt>
      <trkpt lat="44.94188" lon="5.81591">
        <ele>995.125727</ele>
        <time>2026-08-29T10:38:23.000Z</time>
      </trkpt>
      <trkpt lat="44.9419" lon="5.81586">
        <ele>995.177584</ele>
        <time>2026-08-29T10:38:24.000Z</time>
      </trkpt>
      <trkpt lat="44.94192" lon="5.81582">
        <ele>995.230289</ele>
        <time>2026-08-29T10:38:25.000Z</time>
      </trkpt>
      <trkpt lat="44.94194" lon="5.81579">
        <ele>995.283327</ele>
        <time>2026-08-29T10:38:26.000Z</time>
      </trkpt>
      <trkpt lat="44.94197" lon="5.81575">
        <ele>995.334454</ele>
        <time>2026-08-29T10:38:27.000Z</time>
      </trkpt>
      <trkpt lat="44.94199" lon="5.81571">
        <ele>995.390026</ele>
        <time>2026-08-29T10:38:28.000Z</time>
      </trkpt>
      <trkpt lat="44.94202" lon="5.81566">
        <ele>995.447876</ele>
        <time>2026-08-29T10:38:29.000Z</time>
      </trkpt>
      <trkpt lat="44.94204" lon="5.81562">
        <ele>995.50469</ele>
        <time>2026-08-29T10:38:30.000Z</time>
      </trkpt>
      <trkpt lat="44.94207" lon="5.81559">
        <ele>995.563598</ele>
        <time>2026-08-29T10:38:31.000Z</time>
      </trkpt>
      <trkpt lat="44.9421" lon="5.81555">
        <ele>995.621091</ele>
        <time>2026-08-29T10:38:32.000Z</time>
      </trkpt>
      <trkpt lat="44.94213" lon="5.81551">
        <ele>995.679678</ele>
        <time>2026-08-29T10:38:33.000Z</time>
      </trkpt>
      <trkpt lat="44.94216" lon="5.81547">
        <ele>995.73753</ele>
        <time>2026-08-29T10:38:34.000Z</time>
      </trkpt>
      <trkpt lat="44.94219" lon="5.81543">
        <ele>995.797513</ele>
        <time>2026-08-29T10:38:35.000Z</time>
      </trkpt>
      <trkpt lat="44.94222" lon="5.81539">
        <ele>995.857899</ele>
        <time>2026-08-29T10:38:36.000Z</time>
      </trkpt>
      <trkpt lat="44.94225" lon="5.81536">
        <ele>995.916285</ele>
        <time>2026-08-29T10:38:37.000Z</time>
      </trkpt>
      <trkpt lat="44.94228" lon="5.81533">
        <ele>995.971592</ele>
        <time>2026-08-29T10:38:38.000Z</time>
      </trkpt>
      <trkpt lat="44.94231" lon="5.81529">
        <ele>996.027039</ele>
        <time>2026-08-29T10:38:39.000Z</time>
      </trkpt>
      <trkpt lat="44.94234" lon="5.81526">
        <ele>996.083838</ele>
        <time>2026-08-29T10:38:40.000Z</time>
      </trkpt>
      <trkpt lat="44.94237" lon="5.81522">
        <ele>996.141082</ele>
        <time>2026-08-29T10:38:41.000Z</time>
      </trkpt>
      <trkpt lat="44.94239" lon="5.81518">
        <ele>996.196785</ele>
        <time>2026-08-29T10:38:42.000Z</time>
      </trkpt>
      <trkpt lat="44.94242" lon="5.81515">
        <ele>996.250348</ele>
        <time>2026-08-29T10:38:43.000Z</time>
      </trkpt>
      <trkpt lat="44.94245" lon="5.81511">
        <ele>996.306465</ele>
        <time>2026-08-29T10:38:44.000Z</time>
      </trkpt>
      <trkpt lat="44.94248" lon="5.81508">
        <ele>996.363957</ele>
        <time>2026-08-29T10:38:45.000Z</time>
      </trkpt>
      <trkpt lat="44.94251" lon="5.81504">
        <ele>996.419301</ele>
        <time>2026-08-29T10:38:46.000Z</time>
      </trkpt>
      <trkpt lat="44.94253" lon="5.815">
        <ele>996.472864</ele>
        <time>2026-08-29T10:38:47.000Z</time>
      </trkpt>
      <trkpt lat="44.94256" lon="5.81497">
        <ele>996.524288</ele>
        <time>2026-08-29T10:38:48.000Z</time>
      </trkpt>
      <trkpt lat="44.94259" lon="5.81494">
        <ele>996.576563</ele>
        <time>2026-08-29T10:38:49.000Z</time>
      </trkpt>
      <trkpt lat="44.94261" lon="5.81491">
        <ele>996.627753</ele>
        <time>2026-08-29T10:38:50.000Z</time>
      </trkpt>
      <trkpt lat="44.94264" lon="5.81488">
        <ele>996.677144</ele>
        <time>2026-08-29T10:38:51.000Z</time>
      </trkpt>
      <trkpt lat="44.94266" lon="5.81485">
        <ele>996.726419</ele>
        <time>2026-08-29T10:38:52.000Z</time>
      </trkpt>
      <trkpt lat="44.94269" lon="5.81481">
        <ele>996.777168</ele>
        <time>2026-08-29T10:38:53.000Z</time>
      </trkpt>
      <trkpt lat="44.94271" lon="5.81477">
        <ele>996.832209</ele>
        <time>2026-08-29T10:38:54.000Z</time>
      </trkpt>
      <trkpt lat="44.94274" lon="5.81473">
        <ele>996.889771</ele>
        <time>2026-08-29T10:38:55.000Z</time>
      </trkpt>
      <trkpt lat="44.94277" lon="5.81469">
        <ele>996.952004</ele>
        <time>2026-08-29T10:38:56.000Z</time>
      </trkpt>
      <trkpt lat="44.9428" lon="5.81464">
        <ele>997.016938</ele>
        <time>2026-08-29T10:38:57.000Z</time>
      </trkpt>
      <trkpt lat="44.94283" lon="5.81459">
        <ele>997.083455</ele>
        <time>2026-08-29T10:38:58.000Z</time>
      </trkpt>
      <trkpt lat="44.94285" lon="5.81454">
        <ele>997.149852</ele>
        <time>2026-08-29T10:38:59.000Z</time>
      </trkpt>
      <trkpt lat="44.94288" lon="5.81449">
        <ele>997.219861</ele>
        <time>2026-08-29T10:39:00.000Z</time>
      </trkpt>
      <trkpt lat="44.94291" lon="5.81444">
        <ele>997.289626</ele>
        <time>2026-08-29T10:39:01.000Z</time>
      </trkpt>
      <trkpt lat="44.94294" lon="5.81439">
        <ele>997.357887</ele>
        <time>2026-08-29T10:39:02.000Z</time>
      </trkpt>
      <trkpt lat="44.94297" lon="5.81433">
        <ele>997.430295</ele>
        <time>2026-08-29T10:39:03.000Z</time>
      </trkpt>
      <trkpt lat="44.94301" lon="5.81428">
        <ele>997.506817</ele>
        <time>2026-08-29T10:39:04.000Z</time>
      </trkpt>
      <trkpt lat="44.94304" lon="5.81422">
        <ele>997.542845</ele>
        <time>2026-08-29T10:39:05.000Z</time>
      </trkpt>
      <trkpt lat="44.94307" lon="5.81416">
        <ele>997.488392</ele>
        <time>2026-08-29T10:39:06.000Z</time>
      </trkpt>
      <trkpt lat="44.9431" lon="5.8141">
        <ele>997.43452</ele>
        <time>2026-08-29T10:39:07.000Z</time>
      </trkpt>
      <trkpt lat="44.94313" lon="5.81404">
        <ele>997.378855</ele>
        <time>2026-08-29T10:39:08.000Z</time>
      </trkpt>
      <trkpt lat="44.94317" lon="5.81398">
        <ele>997.322611</ele>
        <time>2026-08-29T10:39:09.000Z</time>
      </trkpt>
      <trkpt lat="44.9432" lon="5.81392">
        <ele>997.264574</ele>
        <time>2026-08-29T10:39:10.000Z</time>
      </trkpt>
      <trkpt lat="44.94323" lon="5.81385">
        <ele>997.206536</ele>
        <time>2026-08-29T10:39:11.000Z</time>
      </trkpt>
      <trkpt lat="44.94327" lon="5.81379">
        <ele>997.14844</ele>
        <time>2026-08-29T10:39:12.000Z</time>
      </trkpt>
      <trkpt lat="44.94331" lon="5.81373">
        <ele>997.089125</ele>
        <time>2026-08-29T10:39:13.000Z</time>
      </trkpt>
      <trkpt lat="44.94334" lon="5.81366">
        <ele>997.028663</ele>
        <time>2026-08-29T10:39:14.000Z</time>
      </trkpt>
      <trkpt lat="44.94338" lon="5.8136">
        <ele>996.966985</ele>
        <time>2026-08-29T10:39:15.000Z</time>
      </trkpt>
      <trkpt lat="44.94342" lon="5.81353">
        <ele>996.903437</ele>
        <time>2026-08-29T10:39:16.000Z</time>
      </trkpt>
      <trkpt lat="44.94346" lon="5.81346">
        <ele>996.839889</ele>
        <time>2026-08-29T10:39:17.000Z</time>
      </trkpt>
      <trkpt lat="44.94349" lon="5.8134">
        <ele>996.776994</ele>
        <time>2026-08-29T10:39:18.000Z</time>
      </trkpt>
      <trkpt lat="44.94354" lon="5.81333">
        <ele>996.710996</ele>
        <time>2026-08-29T10:39:19.000Z</time>
      </trkpt>
      <trkpt lat="44.94358" lon="5.81326">
        <ele>996.643097</ele>
        <time>2026-08-29T10:39:20.000Z</time>
      </trkpt>
      <trkpt lat="44.94363" lon="5.81319">
        <ele>996.575026</ele>
        <time>2026-08-29T10:39:21.000Z</time>
      </trkpt>
      <trkpt lat="44.94367" lon="5.81313">
        <ele>996.506455</ele>
        <time>2026-08-29T10:39:22.000Z</time>
      </trkpt>
      <trkpt lat="44.94372" lon="5.81307">
        <ele>996.438376</ele>
        <time>2026-08-29T10:39:23.000Z</time>
      </trkpt>
      <trkpt lat="44.94377" lon="5.81301">
        <ele>996.371418</ele>
        <time>2026-08-29T10:39:24.000Z</time>
      </trkpt>
      <trkpt lat="44.94383" lon="5.81295">
        <ele>996.302089</ele>
        <time>2026-08-29T10:39:25.000Z</time>
      </trkpt>
      <trkpt lat="44.94388" lon="5.8129">
        <ele>996.23572</ele>
        <time>2026-08-29T10:39:26.000Z</time>
      </trkpt>
      <trkpt lat="44.94394" lon="5.81285">
        <ele>996.169193</ele>
        <time>2026-08-29T10:39:27.000Z</time>
      </trkpt>
      <trkpt lat="44.94399" lon="5.81281">
        <ele>996.101058</ele>
        <time>2026-08-29T10:39:28.000Z</time>
      </trkpt>
      <trkpt lat="44.94405" lon="5.81277">
        <ele>996.033265</ele>
        <time>2026-08-29T10:39:29.000Z</time>
      </trkpt>
      <trkpt lat="44.94411" lon="5.81273">
        <ele>995.964559</ele>
        <time>2026-08-29T10:39:30.000Z</time>
      </trkpt>
      <trkpt lat="44.94417" lon="5.8127">
        <ele>995.897213</ele>
        <time>2026-08-29T10:39:31.000Z</time>
      </trkpt>
      <trkpt lat="44.94423" lon="5.81267">
        <ele>995.832559</ele>
        <time>2026-08-29T10:39:32.000Z</time>
      </trkpt>
      <trkpt lat="44.94429" lon="5.81264">
        <ele>995.768807</ele>
        <time>2026-08-29T10:39:33.000Z</time>
      </trkpt>
      <trkpt lat="44.94435" lon="5.81262">
        <ele>995.706652</ele>
        <time>2026-08-29T10:39:34.000Z</time>
      </trkpt>
      <trkpt lat="44.94441" lon="5.8126">
        <ele>995.75729</ele>
        <time>2026-08-29T10:39:35.000Z</time>
      </trkpt>
      <trkpt lat="44.94446" lon="5.81259">
        <ele>995.82273</ele>
        <time>2026-08-29T10:39:36.000Z</time>
      </trkpt>
      <trkpt lat="44.94452" lon="5.81257">
        <ele>995.885724</ele>
        <time>2026-08-29T10:39:37.000Z</time>
      </trkpt>
      <trkpt lat="44.94457" lon="5.81256">
        <ele>995.948718</ele>
        <time>2026-08-29T10:39:38.000Z</time>
      </trkpt>
      <trkpt lat="44.94462" lon="5.81254">
        <ele>996.013206</ele>
        <time>2026-08-29T10:39:39.000Z</time>
      </trkpt>
      <trkpt lat="44.94468" lon="5.81252">
        <ele>996.076762</ele>
        <time>2026-08-29T10:39:40.000Z</time>
      </trkpt>
      <trkpt lat="44.94473" lon="5.8125">
        <ele>996.1388</ele>
        <time>2026-08-29T10:39:41.000Z</time>
      </trkpt>
      <trkpt lat="44.94478" lon="5.81248">
        <ele>996.198773</ele>
        <time>2026-08-29T10:39:42.000Z</time>
      </trkpt>
      <trkpt lat="44.94483" lon="5.81246">
        <ele>996.256713</ele>
        <time>2026-08-29T10:39:43.000Z</time>
      </trkpt>
      <trkpt lat="44.94488" lon="5.81244">
        <ele>996.317342</ele>
        <time>2026-08-29T10:39:44.000Z</time>
      </trkpt>
      <trkpt lat="44.94492" lon="5.81242">
        <ele>996.373047</ele>
        <time>2026-08-29T10:39:45.000Z</time>
      </trkpt>
      <trkpt lat="44.94497" lon="5.81241">
        <ele>996.431895</ele>
        <time>2026-08-29T10:39:46.000Z</time>
      </trkpt>
      <trkpt lat="44.94502" lon="5.81239">
        <ele>996.492076</ele>
        <time>2026-08-29T10:39:47.000Z</time>
      </trkpt>
      <trkpt lat="44.94507" lon="5.81236">
        <ele>996.552091</ele>
        <time>2026-08-29T10:39:48.000Z</time>
      </trkpt>
      <trkpt lat="44.94512" lon="5.81235">
        <ele>996.613396</ele>
        <time>2026-08-29T10:39:49.000Z</time>
      </trkpt>
      <trkpt lat="44.94517" lon="5.81233">
        <ele>996.671119</ele>
        <time>2026-08-29T10:39:50.000Z</time>
      </trkpt>
      <trkpt lat="44.94522" lon="5.81231">
        <ele>996.728669</ele>
        <time>2026-08-29T10:39:51.000Z</time>
      </trkpt>
      <trkpt lat="44.94526" lon="5.81229">
        <ele>996.782392</ele>
        <time>2026-08-29T10:39:52.000Z</time>
      </trkpt>
      <trkpt lat="44.9453" lon="5.81227">
        <ele>996.837224</ele>
        <time>2026-08-29T10:39:53.000Z</time>
      </trkpt>
      <trkpt lat="44.94535" lon="5.81225">
        <ele>996.887577</ele>
        <time>2026-08-29T10:39:54.000Z</time>
      </trkpt>
      <trkpt lat="44.94539" lon="5.81224">
        <ele>996.936804</ele>
        <time>2026-08-29T10:39:55.000Z</time>
      </trkpt>
      <trkpt lat="44.94543" lon="5.81222">
        <ele>996.985471</ele>
        <time>2026-08-29T10:39:56.000Z</time>
      </trkpt>
      <trkpt lat="44.94547" lon="5.81221">
        <ele>997.034911</ele>
        <time>2026-08-29T10:39:57.000Z</time>
      </trkpt>
      <trkpt lat="44.94551" lon="5.81219">
        <ele>997.083462</ele>
        <time>2026-08-29T10:39:58.000Z</time>
      </trkpt>
      <trkpt lat="44.94555" lon="5.81217">
        <ele>997.134023</ele>
        <time>2026-08-29T10:39:59.000Z</time>
      </trkpt>
      <trkpt lat="44.94559" lon="5.81216">
        <ele>997.184376</ele>
        <time>2026-08-29T10:40:00.000Z</time>
      </trkpt>
      <trkpt lat="44.94563" lon="5.81214">
        <ele>997.233816</ele>
        <time>2026-08-29T10:40:01.000Z</time>
      </trkpt>
      <trkpt lat="44.94568" lon="5.81213">
        <ele>997.284597</ele>
        <time>2026-08-29T10:40:02.000Z</time>
      </trkpt>
      <trkpt lat="44.94572" lon="5.81211">
        <ele>997.335611</ele>
        <time>2026-08-29T10:40:03.000Z</time>
      </trkpt>
      <trkpt lat="44.94576" lon="5.81209">
        <ele>997.387676</ele>
        <time>2026-08-29T10:40:04.000Z</time>
      </trkpt>
      <trkpt lat="44.9458" lon="5.81207">
        <ele>997.437829</ele>
        <time>2026-08-29T10:40:05.000Z</time>
      </trkpt>
      <trkpt lat="44.94584" lon="5.81205">
        <ele>997.487732</ele>
        <time>2026-08-29T10:40:06.000Z</time>
      </trkpt>
      <trkpt lat="44.94588" lon="5.81203">
        <ele>997.535682</ele>
        <time>2026-08-29T10:40:07.000Z</time>
      </trkpt>
      <trkpt lat="44.94592" lon="5.81201">
        <ele>997.583121</ele>
        <time>2026-08-29T10:40:08.000Z</time>
      </trkpt>
      <trkpt lat="44.94596" lon="5.812">
        <ele>997.629705</ele>
        <time>2026-08-29T10:40:09.000Z</time>
      </trkpt>
      <trkpt lat="44.946" lon="5.81198">
        <ele>997.676035</ele>
        <time>2026-08-29T10:40:10.000Z</time>
      </trkpt>
      <trkpt lat="44.94604" lon="5.81196">
        <ele>997.724355</ele>
        <time>2026-08-29T10:40:11.000Z</time>
      </trkpt>
      <trkpt lat="44.94608" lon="5.81195">
        <ele>997.775136</ele>
        <time>2026-08-29T10:40:12.000Z</time>
      </trkpt>
      <trkpt lat="44.94612" lon="5.81193">
        <ele>997.864926</ele>
        <time>2026-08-29T10:40:13.000Z</time>
      </trkpt>
      <trkpt lat="44.94616" lon="5.81191">
        <ele>997.976508</ele>
        <time>2026-08-29T10:40:14.000Z</time>
      </trkpt>
      <trkpt lat="44.9462" lon="5.81189">
        <ele>998.085068</ele>
        <time>2026-08-29T10:40:15.000Z</time>
      </trkpt>
      <trkpt lat="44.94624" lon="5.81187">
        <ele>998.192435</ele>
        <time>2026-08-29T10:40:16.000Z</time>
      </trkpt>
      <trkpt lat="44.94627" lon="5.81185">
        <ele>998.29501</ele>
        <time>2026-08-29T10:40:17.000Z</time>
      </trkpt>
      <trkpt lat="44.94631" lon="5.81183">
        <ele>998.401135</ele>
        <time>2026-08-29T10:40:18.000Z</time>
      </trkpt>
      <trkpt lat="44.94635" lon="5.81181">
        <ele>998.504831</ele>
        <time>2026-08-29T10:40:19.000Z</time>
      </trkpt>
      <trkpt lat="44.94639" lon="5.81179">
        <ele>998.610956</ele>
        <time>2026-08-29T10:40:20.000Z</time>
      </trkpt>
      <trkpt lat="44.94643" lon="5.81177">
        <ele>998.714058</ele>
        <time>2026-08-29T10:40:21.000Z</time>
      </trkpt>
      <trkpt lat="44.94647" lon="5.81175">
        <ele>998.814726</ele>
        <time>2026-08-29T10:40:22.000Z</time>
      </trkpt>
      <trkpt lat="44.9465" lon="5.81173">
        <ele>998.912964</ele>
        <time>2026-08-29T10:40:23.000Z</time>
      </trkpt>
      <trkpt lat="44.94654" lon="5.81172">
        <ele>999.016067</ele>
        <time>2026-08-29T10:40:24.000Z</time>
      </trkpt>
      <trkpt lat="44.94658" lon="5.8117">
        <ele>999.117977</ele>
        <time>2026-08-29T10:40:25.000Z</time>
      </trkpt>
      <trkpt lat="44.94661" lon="5.81168">
        <ele>999.220553</ele>
        <time>2026-08-29T10:40:26.000Z</time>
      </trkpt>
      <trkpt lat="44.94665" lon="5.81165">
        <ele>999.32792</ele>
        <time>2026-08-29T10:40:27.000Z</time>
      </trkpt>
      <trkpt lat="44.94669" lon="5.81163">
        <ele>999.435286</ele>
        <time>2026-08-29T10:40:28.000Z</time>
      </trkpt>
      <trkpt lat="44.94673" lon="5.81162">
        <ele>999.536785</ele>
        <time>2026-08-29T10:40:29.000Z</time>
      </trkpt>
      <trkpt lat="44.94677" lon="5.8116">
        <ele>999.641779</ele>
        <time>2026-08-29T10:40:30.000Z</time>
      </trkpt>
      <trkpt lat="44.94681" lon="5.81158">
        <ele>999.747324</ele>
        <time>2026-08-29T10:40:31.000Z</time>
      </trkpt>
      <trkpt lat="44.94684" lon="5.81157">
        <ele>999.844591</ele>
        <time>2026-08-29T10:40:32.000Z</time>
      </trkpt>
      <trkpt lat="44.94688" lon="5.81155">
        <ele>999.940408</ele>
        <time>2026-08-29T10:40:33.000Z</time>
      </trkpt>
      <trkpt lat="44.94692" lon="5.81154">
        <ele>1000.041907</ele>
        <time>2026-08-29T10:40:34.000Z</time>
      </trkpt>
      <trkpt lat="44.94695" lon="5.81152">
        <ele>1000.144482</ele>
        <time>2026-08-29T10:40:35.000Z</time>
      </trkpt>
      <trkpt lat="44.94699" lon="5.8115">
        <ele>1000.254256</ele>
        <time>2026-08-29T10:40:36.000Z</time>
      </trkpt>
      <trkpt lat="44.94703" lon="5.81147">
        <ele>1000.365352</ele>
        <time>2026-08-29T10:40:37.000Z</time>
      </trkpt>
      <trkpt lat="44.94707" lon="5.81145">
        <ele>1000.47338</ele>
        <time>2026-08-29T10:40:38.000Z</time>
      </trkpt>
      <trkpt lat="44.94711" lon="5.81143">
        <ele>1000.580747</ele>
        <time>2026-08-29T10:40:39.000Z</time>
      </trkpt>
      <trkpt lat="44.94715" lon="5.81141">
        <ele>1000.679607</ele>
        <time>2026-08-29T10:40:40.000Z</time>
      </trkpt>
      <trkpt lat="44.94718" lon="5.81139">
        <ele>1000.778468</ele>
        <time>2026-08-29T10:40:41.000Z</time>
      </trkpt>
      <trkpt lat="44.94722" lon="5.81137">
        <ele>1000.87798</ele>
        <time>2026-08-29T10:40:42.000Z</time>
      </trkpt>
      <trkpt lat="44.94726" lon="5.81135">
        <ele>1000.979254</ele>
        <time>2026-08-29T10:40:43.000Z</time>
      </trkpt>
      <trkpt lat="44.94729" lon="5.81133">
        <ele>1001.076377</ele>
        <time>2026-08-29T10:40:44.000Z</time>
      </trkpt>
      <trkpt lat="44.94733" lon="5.81132">
        <ele>1001.174615</ele>
        <time>2026-08-29T10:40:45.000Z</time>
      </trkpt>
      <trkpt lat="44.94736" lon="5.81129">
        <ele>1001.27316</ele>
        <time>2026-08-29T10:40:46.000Z</time>
      </trkpt>
      <trkpt lat="44.9474" lon="5.81127">
        <ele>1001.376428</ele>
        <time>2026-08-29T10:40:47.000Z</time>
      </trkpt>
      <trkpt lat="44.94744" lon="5.81126">
        <ele>1001.473512</ele>
        <time>2026-08-29T10:40:48.000Z</time>
      </trkpt>
      <trkpt lat="44.94747" lon="5.81124">
        <ele>1001.570635</ele>
        <time>2026-08-29T10:40:49.000Z</time>
      </trkpt>
      <trkpt lat="44.94751" lon="5.81122">
        <ele>1001.671909</ele>
        <time>2026-08-29T10:40:50.000Z</time>
      </trkpt>
      <trkpt lat="44.94755" lon="5.8112">
        <ele>1001.776903</ele>
        <time>2026-08-29T10:40:51.000Z</time>
      </trkpt>
      <trkpt lat="44.94759" lon="5.81118">
        <ele>1001.882448</ele>
        <time>2026-08-29T10:40:52.000Z</time>
      </trkpt>
      <trkpt lat="44.94762" lon="5.81116">
        <ele>1001.981308</ele>
        <time>2026-08-29T10:40:53.000Z</time>
      </trkpt>
      <trkpt lat="44.94766" lon="5.81114">
        <ele>1002.081389</ele>
        <time>2026-08-29T10:40:54.000Z</time>
      </trkpt>
      <trkpt lat="44.94769" lon="5.81112">
        <ele>1002.180901</ele>
        <time>2026-08-29T10:40:55.000Z</time>
      </trkpt>
      <trkpt lat="44.94773" lon="5.8111">
        <ele>1002.277985</ele>
        <time>2026-08-29T10:40:56.000Z</time>
      </trkpt>
      <trkpt lat="44.94777" lon="5.81108">
        <ele>1002.382302</ele>
        <time>2026-08-29T10:40:57.000Z</time>
      </trkpt>
      <trkpt lat="44.9478" lon="5.81106">
        <ele>1002.454964</ele>
        <time>2026-08-29T10:40:58.000Z</time>
      </trkpt>
      <trkpt lat="44.94784" lon="5.81104">
        <ele>1002.514795</ele>
        <time>2026-08-29T10:40:59.000Z</time>
      </trkpt>
      <trkpt lat="44.94788" lon="5.81102">
        <ele>1002.574999</ele>
        <time>2026-08-29T10:41:00.000Z</time>
      </trkpt>
      <trkpt lat="44.94792" lon="5.811">
        <ele>1002.633831</ele>
        <time>2026-08-29T10:41:01.000Z</time>
      </trkpt>
      <trkpt lat="44.94795" lon="5.81098">
        <ele>1002.692282</ele>
        <time>2026-08-29T10:41:02.000Z</time>
      </trkpt>
      <trkpt lat="44.94799" lon="5.81096">
        <ele>1002.750733</ele>
        <time>2026-08-29T10:41:03.000Z</time>
      </trkpt>
      <trkpt lat="44.94803" lon="5.81094">
        <ele>1002.809962</ele>
        <time>2026-08-29T10:41:04.000Z</time>
      </trkpt>
      <trkpt lat="44.94807" lon="5.81092">
        <ele>1002.869793</ele>
        <time>2026-08-29T10:41:05.000Z</time>
      </trkpt>
      <trkpt lat="44.94811" lon="5.8109">
        <ele>1002.934881</ele>
        <time>2026-08-29T10:41:06.000Z</time>
      </trkpt>
      <trkpt lat="44.94815" lon="5.81087">
        <ele>1002.999416</ele>
        <time>2026-08-29T10:41:07.000Z</time>
      </trkpt>
      <trkpt lat="44.94819" lon="5.81085">
        <ele>1003.063414</ele>
        <time>2026-08-29T10:41:08.000Z</time>
      </trkpt>
      <trkpt lat="44.94823" lon="5.81083">
        <ele>1003.129585</ele>
        <time>2026-08-29T10:41:09.000Z</time>
      </trkpt>
      <trkpt lat="44.94827" lon="5.81081">
        <ele>1003.196713</ele>
        <time>2026-08-29T10:41:10.000Z</time>
      </trkpt>
      <trkpt lat="44.94832" lon="5.81079">
        <ele>1003.264189</ele>
        <time>2026-08-29T10:41:11.000Z</time>
      </trkpt>
      <trkpt lat="44.94836" lon="5.81077">
        <ele>1003.33036</ele>
        <time>2026-08-29T10:41:12.000Z</time>
      </trkpt>
      <trkpt lat="44.9484" lon="5.81076">
        <ele>1003.397664</ele>
        <time>2026-08-29T10:41:13.000Z</time>
      </trkpt>
      <trkpt lat="44.94845" lon="5.81074">
        <ele>1003.464139</ele>
        <time>2026-08-29T10:41:14.000Z</time>
      </trkpt>
      <trkpt lat="44.94849" lon="5.81072">
        <ele>1003.534294</ele>
        <time>2026-08-29T10:41:15.000Z</time>
      </trkpt>
      <trkpt lat="44.94854" lon="5.8107">
        <ele>1003.60276</ele>
        <time>2026-08-29T10:41:16.000Z</time>
      </trkpt>
      <trkpt lat="44.94858" lon="5.81069">
        <ele>1003.672415</ele>
        <time>2026-08-29T10:41:17.000Z</time>
      </trkpt>
      <trkpt lat="44.94863" lon="5.81067">
        <ele>1003.740402</ele>
        <time>2026-08-29T10:41:18.000Z</time>
      </trkpt>
      <trkpt lat="44.94867" lon="5.81066">
        <ele>1003.807185</ele>
        <time>2026-08-29T10:41:19.000Z</time>
      </trkpt>
      <trkpt lat="44.94872" lon="5.81064">
        <ele>1003.875404</ele>
        <time>2026-08-29T10:41:20.000Z</time>
      </trkpt>
      <trkpt lat="44.94876" lon="5.81063">
        <ele>1003.94195</ele>
        <time>2026-08-29T10:41:21.000Z</time>
      </trkpt>
      <trkpt lat="44.94881" lon="5.81061">
        <ele>1004.013533</ele>
        <time>2026-08-29T10:41:22.000Z</time>
      </trkpt>
      <trkpt lat="44.94886" lon="5.8106">
        <ele>1004.086807</ele>
        <time>2026-08-29T10:41:23.000Z</time>
      </trkpt>
      <trkpt lat="44.94891" lon="5.81058">
        <ele>1004.159821</ele>
        <time>2026-08-29T10:41:24.000Z</time>
      </trkpt>
      <trkpt lat="44.94895" lon="5.81056">
        <ele>1004.230692</ele>
        <time>2026-08-29T10:41:25.000Z</time>
      </trkpt>
      <trkpt lat="44.949" lon="5.81055">
        <ele>1004.299907</ele>
        <time>2026-08-29T10:41:26.000Z</time>
      </trkpt>
      <trkpt lat="44.94904" lon="5.81054">
        <ele>1004.367894</ele>
        <time>2026-08-29T10:41:27.000Z</time>
      </trkpt>
      <trkpt lat="44.94909" lon="5.81052">
        <ele>1004.43444</ele>
        <time>2026-08-29T10:41:28.000Z</time>
      </trkpt>
      <trkpt lat="44.94913" lon="5.81051">
        <ele>1004.500559</ele>
        <time>2026-08-29T10:41:29.000Z</time>
      </trkpt>
      <trkpt lat="44.94918" lon="5.8105">
        <ele>1004.567617</ele>
        <time>2026-08-29T10:41:30.000Z</time>
      </trkpt>
      <trkpt lat="44.94922" lon="5.8105">
        <ele>1004.637246</ele>
        <time>2026-08-29T10:41:31.000Z</time>
      </trkpt>
      <trkpt lat="44.94927" lon="5.81049">
        <ele>1004.707094</ele>
        <time>2026-08-29T10:41:32.000Z</time>
      </trkpt>
      <trkpt lat="44.94931" lon="5.81048">
        <ele>1004.77255</ele>
        <time>2026-08-29T10:41:33.000Z</time>
      </trkpt>
      <trkpt lat="44.94936" lon="5.81047">
        <ele>1004.838006</ele>
        <time>2026-08-29T10:41:34.000Z</time>
      </trkpt>
      <trkpt lat="44.94941" lon="5.81047">
        <ele>1004.907737</ele>
        <time>2026-08-29T10:41:35.000Z</time>
      </trkpt>
      <trkpt lat="44.94945" lon="5.81046">
        <ele>1004.977116</ele>
        <time>2026-08-29T10:41:36.000Z</time>
      </trkpt>
      <trkpt lat="44.9495" lon="5.81045">
        <ele>1005.045635</ele>
        <time>2026-08-29T10:41:37.000Z</time>
      </trkpt>
      <trkpt lat="44.94954" lon="5.81044">
        <ele>1005.14996</ele>
        <time>2026-08-29T10:41:38.000Z</time>
      </trkpt>
      <trkpt lat="44.94959" lon="5.81043">
        <ele>1005.263099</ele>
        <time>2026-08-29T10:41:39.000Z</time>
      </trkpt>
      <trkpt lat="44.94963" lon="5.81043">
        <ele>1005.380377</ele>
        <time>2026-08-29T10:41:40.000Z</time>
      </trkpt>
      <trkpt lat="44.94967" lon="5.81042">
        <ele>1005.497295</ele>
        <time>2026-08-29T10:41:41.000Z</time>
      </trkpt>
      <trkpt lat="44.94972" lon="5.81042">
        <ele>1005.619652</ele>
        <time>2026-08-29T10:41:42.000Z</time>
      </trkpt>
      <trkpt lat="44.94977" lon="5.81041">
        <ele>1005.744829</ele>
        <time>2026-08-29T10:41:43.000Z</time>
      </trkpt>
      <trkpt lat="44.94981" lon="5.81041">
        <ele>1005.864152</ele>
        <time>2026-08-29T10:41:44.000Z</time>
      </trkpt>
      <trkpt lat="44.94986" lon="5.8104">
        <ele>1005.98107</ele>
        <time>2026-08-29T10:41:45.000Z</time>
      </trkpt>
      <trkpt lat="44.9499" lon="5.8104">
        <ele>1006.095209</ele>
        <time>2026-08-29T10:41:46.000Z</time>
      </trkpt>
      <trkpt lat="44.94994" lon="5.81039">
        <ele>1006.209349</ele>
        <time>2026-08-29T10:41:47.000Z</time>
      </trkpt>
      <trkpt lat="44.94998" lon="5.81039">
        <ele>1006.320656</ele>
        <time>2026-08-29T10:41:48.000Z</time>
      </trkpt>
      <trkpt lat="44.95003" lon="5.81039">
        <ele>1006.429398</ele>
        <time>2026-08-29T10:41:49.000Z</time>
      </trkpt>
      <trkpt lat="44.95007" lon="5.81039">
        <ele>1006.543306</ele>
        <time>2026-08-29T10:41:50.000Z</time>
      </trkpt>
      <trkpt lat="44.95011" lon="5.81039">
        <ele>1006.657338</ele>
        <time>2026-08-29T10:41:51.000Z</time>
      </trkpt>
      <trkpt lat="44.95015" lon="5.8104">
        <ele>1006.769149</ele>
        <time>2026-08-29T10:41:52.000Z</time>
      </trkpt>
      <trkpt lat="44.9502" lon="5.8104">
        <ele>1006.886067</ele>
        <time>2026-08-29T10:41:53.000Z</time>
      </trkpt>
      <trkpt lat="44.95024" lon="5.8104">
        <ele>1006.994921</ele>
        <time>2026-08-29T10:41:54.000Z</time>
      </trkpt>
      <trkpt lat="44.95028" lon="5.8104">
        <ele>1007.103533</ele>
        <time>2026-08-29T10:41:55.000Z</time>
      </trkpt>
      <trkpt lat="44.95032" lon="5.81041">
        <ele>1007.209546</ele>
        <time>2026-08-29T10:41:56.000Z</time>
      </trkpt>
      <trkpt lat="44.95036" lon="5.81041">
        <ele>1007.323824</ele>
        <time>2026-08-29T10:41:57.000Z</time>
      </trkpt>
      <trkpt lat="44.95041" lon="5.81042">
        <ele>1007.440742</ele>
        <time>2026-08-29T10:41:58.000Z</time>
      </trkpt>
      <trkpt lat="44.95045" lon="5.81042">
        <ele>1007.557525</ele>
        <time>2026-08-29T10:41:59.000Z</time>
      </trkpt>
      <trkpt lat="44.95049" lon="5.81042">
        <ele>1007.666266</ele>
        <time>2026-08-29T10:42:00.000Z</time>
      </trkpt>
      <trkpt lat="44.95053" lon="5.81043">
        <ele>1007.778077</ele>
        <time>2026-08-29T10:42:01.000Z</time>
      </trkpt>
      <trkpt lat="44.95057" lon="5.81043">
        <ele>1007.8818</ele>
        <time>2026-08-29T10:42:02.000Z</time>
      </trkpt>
      <trkpt lat="44.95061" lon="5.81043">
        <ele>1007.98245</ele>
        <time>2026-08-29T10:42:03.000Z</time>
      </trkpt>
      <trkpt lat="44.95065" lon="5.81043">
        <ele>1008.088397</ele>
        <time>2026-08-29T10:42:04.000Z</time>
      </trkpt>
      <trkpt lat="44.95069" lon="5.81043">
        <ele>1008.19436</ele>
        <time>2026-08-29T10:42:05.000Z</time>
      </trkpt>
      <trkpt lat="44.95073" lon="5.81043">
        <ele>1008.300324</ele>
        <time>2026-08-29T10:42:06.000Z</time>
      </trkpt>
      <trkpt lat="44.95077" lon="5.81043">
        <ele>1008.406271</ele>
        <time>2026-08-29T10:42:07.000Z</time>
      </trkpt>
      <trkpt lat="44.95081" lon="5.81043">
        <ele>1008.512284</ele>
        <time>2026-08-29T10:42:08.000Z</time>
      </trkpt>
      <trkpt lat="44.95085" lon="5.81042">
        <ele>1008.624534</ele>
        <time>2026-08-29T10:42:09.000Z</time>
      </trkpt>
      <trkpt lat="44.9509" lon="5.81041">
        <ele>1008.741847</ele>
        <time>2026-08-29T10:42:10.000Z</time>
      </trkpt>
      <trkpt lat="44.95094" lon="5.81039">
        <ele>1008.860114</ele>
        <time>2026-08-29T10:42:11.000Z</time>
      </trkpt>
      <trkpt lat="44.95098" lon="5.81037">
        <ele>1008.963761</ele>
        <time>2026-08-29T10:42:12.000Z</time>
      </trkpt>
      <trkpt lat="44.95101" lon="5.81035">
        <ele>1009.073652</ele>
        <time>2026-08-29T10:42:13.000Z</time>
      </trkpt>
      <trkpt lat="44.95105" lon="5.81033">
        <ele>1009.187341</ele>
        <time>2026-08-29T10:42:14.000Z</time>
      </trkpt>
      <trkpt lat="44.95109" lon="5.8103">
        <ele>1009.29764</ele>
        <time>2026-08-29T10:42:15.000Z</time>
      </trkpt>
      <trkpt lat="44.95113" lon="5.81028">
        <ele>1009.403259</ele>
        <time>2026-08-29T10:42:16.000Z</time>
      </trkpt>
      <trkpt lat="44.95116" lon="5.81026">
        <ele>1009.511333</ele>
        <time>2026-08-29T10:42:17.000Z</time>
      </trkpt>
      <trkpt lat="44.9512" lon="5.81023">
        <ele>1009.618398</ele>
        <time>2026-08-29T10:42:18.000Z</time>
      </trkpt>
      <trkpt lat="44.95124" lon="5.81021">
        <ele>1009.731829</ele>
        <time>2026-08-29T10:42:19.000Z</time>
      </trkpt>
      <trkpt lat="44.95128" lon="5.81019">
        <ele>1009.847651</ele>
        <time>2026-08-29T10:42:20.000Z</time>
      </trkpt>
      <trkpt lat="44.95132" lon="5.81016">
        <ele>1009.976599</ele>
        <time>2026-08-29T10:42:21.000Z</time>
      </trkpt>
      <trkpt lat="44.95136" lon="5.81014">
        <ele>1010.100402</ele>
        <time>2026-08-29T10:42:22.000Z</time>
      </trkpt>
      <trkpt lat="44.9514" lon="5.81011">
        <ele>1010.22852</ele>
        <time>2026-08-29T10:42:23.000Z</time>
      </trkpt>
      <trkpt lat="44.95144" lon="5.81009">
        <ele>1010.344998</ele>
        <time>2026-08-29T10:42:24.000Z</time>
      </trkpt>
      <trkpt lat="44.95148" lon="5.81007">
        <ele>1010.473116</ele>
        <time>2026-08-29T10:42:25.000Z</time>
      </trkpt>
      <trkpt lat="44.95152" lon="5.81005">
        <ele>1010.604463</ele>
        <time>2026-08-29T10:42:26.000Z</time>
      </trkpt>
      <trkpt lat="44.95156" lon="5.81003">
        <ele>1010.724788</ele>
        <time>2026-08-29T10:42:27.000Z</time>
      </trkpt>
      <trkpt lat="44.9516" lon="5.81001">
        <ele>1010.851998</ele>
        <time>2026-08-29T10:42:28.000Z</time>
      </trkpt>
      <trkpt lat="44.95164" lon="5.80999">
        <ele>1010.979208</ele>
        <time>2026-08-29T10:42:29.000Z</time>
      </trkpt>
      <trkpt lat="44.95168" lon="5.80997">
        <ele>1011.106417</ele>
        <time>2026-08-29T10:42:30.000Z</time>
      </trkpt>
      <trkpt lat="44.95172" lon="5.80996">
        <ele>1011.231817</ele>
        <time>2026-08-29T10:42:31.000Z</time>
      </trkpt>
      <trkpt lat="44.95176" lon="5.80994">
        <ele>1011.359039</ele>
        <time>2026-08-29T10:42:32.000Z</time>
      </trkpt>
      <trkpt lat="44.9518" lon="5.80993">
        <ele>1011.480045</ele>
        <time>2026-08-29T10:42:33.000Z</time>
      </trkpt>
      <trkpt lat="44.95184" lon="5.80992">
        <ele>1011.602708</ele>
        <time>2026-08-29T10:42:34.000Z</time>
      </trkpt>
      <trkpt lat="44.95188" lon="5.80991">
        <ele>1011.725033</ele>
        <time>2026-08-29T10:42:35.000Z</time>
      </trkpt>
      <trkpt lat="44.95193" lon="5.80991">
        <ele>1011.846357</ele>
        <time>2026-08-29T10:42:36.000Z</time>
      </trkpt>
      <trkpt lat="44.95197" lon="5.8099">
        <ele>1011.964946</ele>
        <time>2026-08-29T10:42:37.000Z</time>
      </trkpt>
      <trkpt lat="44.95201" lon="5.80989">
        <ele>1012.083774</ele>
        <time>2026-08-29T10:42:38.000Z</time>
      </trkpt>
      <trkpt lat="44.95204" lon="5.80989">
        <ele>1012.193573</ele>
        <time>2026-08-29T10:42:39.000Z</time>
      </trkpt>
      <trkpt lat="44.95208" lon="5.80988">
        <ele>1012.31196</ele>
        <time>2026-08-29T10:42:40.000Z</time>
      </trkpt>
      <trkpt lat="44.95212" lon="5.80988">
        <ele>1012.435854</ele>
        <time>2026-08-29T10:42:41.000Z</time>
      </trkpt>
      <trkpt lat="44.95217" lon="5.80988">
        <ele>1012.556801</ele>
        <time>2026-08-29T10:42:42.000Z</time>
      </trkpt>
      <trkpt lat="44.95221" lon="5.80987">
        <ele>1012.677838</ele>
        <time>2026-08-29T10:42:43.000Z</time>
      </trkpt>
      <trkpt lat="44.95225" lon="5.80987">
        <ele>1012.801819</ele>
        <time>2026-08-29T10:42:44.000Z</time>
      </trkpt>
      <trkpt lat="44.95229" lon="5.80987">
        <ele>1012.916968</ele>
        <time>2026-08-29T10:42:45.000Z</time>
      </trkpt>
      <trkpt lat="44.95233" lon="5.80987">
        <ele>1013.038005</ele>
        <time>2026-08-29T10:42:46.000Z</time>
      </trkpt>
      <trkpt lat="44.95237" lon="5.80986">
        <ele>1013.156227</ele>
        <time>2026-08-29T10:42:47.000Z</time>
      </trkpt>
      <trkpt lat="44.95241" lon="5.80986">
        <ele>1013.277748</ele>
        <time>2026-08-29T10:42:48.000Z</time>
      </trkpt>
      <trkpt lat="44.95245" lon="5.80985">
        <ele>1013.40173</ele>
        <time>2026-08-29T10:42:49.000Z</time>
      </trkpt>
      <trkpt lat="44.95249" lon="5.80985">
        <ele>1013.528655</ele>
        <time>2026-08-29T10:42:50.000Z</time>
      </trkpt>
      <trkpt lat="44.95254" lon="5.80985">
        <ele>1013.65276</ele>
        <time>2026-08-29T10:42:51.000Z</time>
      </trkpt>
      <trkpt lat="44.95258" lon="5.80984">
        <ele>1013.776653</ele>
        <time>2026-08-29T10:42:52.000Z</time>
      </trkpt>
      <trkpt lat="44.95262" lon="5.80984">
        <ele>1013.903579</ele>
        <time>2026-08-29T10:42:53.000Z</time>
      </trkpt>
      <trkpt lat="44.95266" lon="5.80984">
        <ele>1014.02756</ele>
        <time>2026-08-29T10:42:54.000Z</time>
      </trkpt>
      <trkpt lat="44.9527" lon="5.80983">
        <ele>1014.149082</ele>
        <time>2026-08-29T10:42:55.000Z</time>
      </trkpt>
      <trkpt lat="44.95275" lon="5.80982">
        <ele>1014.277236</ele>
        <time>2026-08-29T10:42:56.000Z</time>
      </trkpt>
      <trkpt lat="44.95279" lon="5.80982">
        <ele>1014.395826</ele>
        <time>2026-08-29T10:42:57.000Z</time>
      </trkpt>
      <trkpt lat="44.95283" lon="5.80981">
        <ele>1014.508167</ele>
        <time>2026-08-29T10:42:58.000Z</time>
      </trkpt>
      <trkpt lat="44.95286" lon="5.8098">
        <ele>1014.618519</ele>
        <time>2026-08-29T10:42:59.000Z</time>
      </trkpt>
      <trkpt lat="44.9529" lon="5.8098">
        <ele>1014.728317</ele>
        <time>2026-08-29T10:43:00.000Z</time>
      </trkpt>
      <trkpt lat="44.95294" lon="5.80979">
        <ele>1014.846704</ele>
        <time>2026-08-29T10:43:01.000Z</time>
      </trkpt>
      <trkpt lat="44.95298" lon="5.80979">
        <ele>1014.955787</ele>
        <time>2026-08-29T10:43:02.000Z</time>
      </trkpt>
      <trkpt lat="44.95302" lon="5.80979">
        <ele>1015.071971</ele>
        <time>2026-08-29T10:43:03.000Z</time>
      </trkpt>
      <trkpt lat="44.95306" lon="5.80978">
        <ele>1015.143702</ele>
        <time>2026-08-29T10:43:04.000Z</time>
      </trkpt>
      <trkpt lat="44.9531" lon="5.80978">
        <ele>1015.16</ele>
        <time>2026-08-29T10:43:05.000Z</time>
      </trkpt>
      <trkpt lat="44.95314" lon="5.80978">
        <ele>1015.176299</ele>
        <time>2026-08-29T10:43:06.000Z</time>
      </trkpt>
      <trkpt lat="44.95318" lon="5.80977">
        <ele>1015.193867</ele>
        <time>2026-08-29T10:43:07.000Z</time>
      </trkpt>
      <trkpt lat="44.95322" lon="5.80977">
        <ele>1015.210625</ele>
        <time>2026-08-29T10:43:08.000Z</time>
      </trkpt>
      <trkpt lat="44.95327" lon="5.80976">
        <ele>1015.23063</ele>
        <time>2026-08-29T10:43:09.000Z</time>
      </trkpt>
      <trkpt lat="44.95332" lon="5.80976">
        <ele>1015.24977</ele>
        <time>2026-08-29T10:43:10.000Z</time>
      </trkpt>
      <trkpt lat="44.95336" lon="5.80976">
        <ele>1015.26769</ele>
        <time>2026-08-29T10:43:11.000Z</time>
      </trkpt>
      <trkpt lat="44.9534" lon="5.80976">
        <ele>1015.285627</ele>
        <time>2026-08-29T10:43:12.000Z</time>
      </trkpt>
      <trkpt lat="44.95345" lon="5.80976">
        <ele>1015.30599</ele>
        <time>2026-08-29T10:43:13.000Z</time>
      </trkpt>
      <trkpt lat="44.9535" lon="5.80977">
        <ele>1015.325148</ele>
        <time>2026-08-29T10:43:14.000Z</time>
      </trkpt>
      <trkpt lat="44.95355" lon="5.80977">
        <ele>1015.345175</ele>
        <time>2026-08-29T10:43:15.000Z</time>
      </trkpt>
      <trkpt lat="44.9536" lon="5.80978">
        <ele>1015.364085</ele>
        <time>2026-08-29T10:43:16.000Z</time>
      </trkpt>
      <trkpt lat="44.95364" lon="5.80979">
        <ele>1015.382925</ele>
        <time>2026-08-29T10:43:17.000Z</time>
      </trkpt>
      <trkpt lat="44.95369" lon="5.8098">
        <ele>1015.403085</ele>
        <time>2026-08-29T10:43:18.000Z</time>
      </trkpt>
      <trkpt lat="44.95374" lon="5.80981">
        <ele>1015.42369</ele>
        <time>2026-08-29T10:43:19.000Z</time>
      </trkpt>
      <trkpt lat="44.95379" lon="5.80983">
        <ele>1015.442734</ele>
        <time>2026-08-29T10:43:20.000Z</time>
      </trkpt>
      <trkpt lat="44.95383" lon="5.80984">
        <ele>1015.462535</ele>
        <time>2026-08-29T10:43:21.000Z</time>
      </trkpt>
      <trkpt lat="44.95388" lon="5.80986">
        <ele>1015.483477</ele>
        <time>2026-08-29T10:43:22.000Z</time>
      </trkpt>
      <trkpt lat="44.95393" lon="5.80987">
        <ele>1015.503597</ele>
        <time>2026-08-29T10:43:23.000Z</time>
      </trkpt>
      <trkpt lat="44.95398" lon="5.80988">
        <ele>1015.521445</ele>
        <time>2026-08-29T10:43:24.000Z</time>
      </trkpt>
      <trkpt lat="44.95402" lon="5.80989">
        <ele>1015.539876</ele>
        <time>2026-08-29T10:43:25.000Z</time>
      </trkpt>
      <trkpt lat="44.95407" lon="5.8099">
        <ele>1015.560036</ele>
        <time>2026-08-29T10:43:26.000Z</time>
      </trkpt>
      <trkpt lat="44.95412" lon="5.8099">
        <ele>1015.581219</ele>
        <time>2026-08-29T10:43:27.000Z</time>
      </trkpt>
      <trkpt lat="44.95417" lon="5.8099">
        <ele>1015.6028</ele>
        <time>2026-08-29T10:43:28.000Z</time>
      </trkpt>
      <trkpt lat="44.95424" lon="5.80987">
        <ele>1015.631308</ele>
        <time>2026-08-29T10:43:29.000Z</time>
      </trkpt>
      <trkpt lat="44.95429" lon="5.80983">
        <ele>1015.655263</ele>
        <time>2026-08-29T10:43:30.000Z</time>
      </trkpt>
      <trkpt lat="44.95432" lon="5.80975">
        <ele>1015.678999</ele>
        <time>2026-08-29T10:43:31.000Z</time>
      </trkpt>
      <trkpt lat="44.95434" lon="5.80968">
        <ele>1015.701594</ele>
        <time>2026-08-29T10:43:32.000Z</time>
      </trkpt>
      <trkpt lat="44.95435" lon="5.80961">
        <ele>1015.723303</ele>
        <time>2026-08-29T10:43:33.000Z</time>
      </trkpt>
      <trkpt lat="44.95435" lon="5.80954">
        <ele>1015.743779</ele>
        <time>2026-08-29T10:43:34.000Z</time>
      </trkpt>
      <trkpt lat="44.95434" lon="5.80947">
        <ele>1015.763137</ele>
        <time>2026-08-29T10:43:35.000Z</time>
      </trkpt>
      <trkpt lat="44.95431" lon="5.80942">
        <ele>1015.781343</ele>
        <time>2026-08-29T10:43:36.000Z</time>
      </trkpt>
      <trkpt lat="44.95429" lon="5.80936">
        <ele>1015.800179</ele>
        <time>2026-08-29T10:43:37.000Z</time>
      </trkpt>
      <trkpt lat="44.95426" lon="5.80931">
        <ele>1015.81947</ele>
        <time>2026-08-29T10:43:38.000Z</time>
      </trkpt>
      <trkpt lat="44.95423" lon="5.80925">
        <ele>1015.839254</ele>
        <time>2026-08-29T10:43:39.000Z</time>
      </trkpt>
      <trkpt lat="44.95421" lon="5.8092">
        <ele>1015.857849</ele>
        <time>2026-08-29T10:43:40.000Z</time>
      </trkpt>
      <trkpt lat="44.95418" lon="5.80915">
        <ele>1015.89723</ele>
        <time>2026-08-29T10:43:41.000Z</time>
      </trkpt>
      <trkpt lat="44.95415" lon="5.8091">
        <ele>1015.967287</ele>
        <time>2026-08-29T10:43:42.000Z</time>
      </trkpt>
      <trkpt lat="44.95413" lon="5.80904">
        <ele>1016.037345</ele>
        <time>2026-08-29T10:43:43.000Z</time>
      </trkpt>
      <trkpt lat="44.9541" lon="5.80899">
        <ele>1016.106694</ele>
        <time>2026-08-29T10:43:44.000Z</time>
      </trkpt>
      <trkpt lat="44.95407" lon="5.80894">
        <ele>1016.175819</ele>
        <time>2026-08-29T10:43:45.000Z</time>
      </trkpt>
      <trkpt lat="44.95405" lon="5.80889">
        <ele>1016.246728</ele>
        <time>2026-08-29T10:43:46.000Z</time>
      </trkpt>
      <trkpt lat="44.95402" lon="5.80883">
        <ele>1016.320286</ele>
        <time>2026-08-29T10:43:47.000Z</time>
      </trkpt>
      <trkpt lat="44.95399" lon="5.80878">
        <ele>1016.39475</ele>
        <time>2026-08-29T10:43:48.000Z</time>
      </trkpt>
      <trkpt lat="44.95396" lon="5.80872">
        <ele>1016.468317</ele>
        <time>2026-08-29T10:43:49.000Z</time>
      </trkpt>
      <trkpt lat="44.95395" lon="5.80866">
        <ele>1016.543667</ele>
        <time>2026-08-29T10:43:50.000Z</time>
      </trkpt>
      <trkpt lat="44.95393" lon="5.80859">
        <ele>1016.620437</ele>
        <time>2026-08-29T10:43:51.000Z</time>
      </trkpt>
      <trkpt lat="44.95391" lon="5.80852">
        <ele>1016.696691</ele>
        <time>2026-08-29T10:43:52.000Z</time>
      </trkpt>
      <trkpt lat="44.9539" lon="5.80846">
        <ele>1016.765428</ele>
        <time>2026-08-29T10:43:53.000Z</time>
      </trkpt>
      <trkpt lat="44.95389" lon="5.8084">
        <ele>1016.833491</ele>
        <time>2026-08-29T10:43:54.000Z</time>
      </trkpt>
      <trkpt lat="44.95387" lon="5.80834">
        <ele>1016.902088</ele>
        <time>2026-08-29T10:43:55.000Z</time>
      </trkpt>
      <trkpt lat="44.95385" lon="5.80829">
        <ele>1016.970685</ele>
        <time>2026-08-29T10:43:56.000Z</time>
      </trkpt>
      <trkpt lat="44.95384" lon="5.80822">
        <ele>1017.042189</ele>
        <time>2026-08-29T10:43:57.000Z</time>
      </trkpt>
      <trkpt lat="44.95383" lon="5.80816">
        <ele>1017.113692</ele>
        <time>2026-08-29T10:43:58.000Z</time>
      </trkpt>
      <trkpt lat="44.95382" lon="5.8081">
        <ele>1017.181384</ele>
        <time>2026-08-29T10:43:59.000Z</time>
      </trkpt>
      <trkpt lat="44.95381" lon="5.80804">
        <ele>1017.248247</ele>
        <time>2026-08-29T10:44:00.000Z</time>
      </trkpt>
      <trkpt lat="44.95381" lon="5.80797">
        <ele>1017.318833</ele>
        <time>2026-08-29T10:44:01.000Z</time>
      </trkpt>
      <trkpt lat="44.95381" lon="5.8079">
        <ele>1017.391638</ele>
        <time>2026-08-29T10:44:02.000Z</time>
      </trkpt>
      <trkpt lat="44.95382" lon="5.80785">
        <ele>1017.455517</ele>
        <time>2026-08-29T10:44:03.000Z</time>
      </trkpt>
      <trkpt lat="44.95384" lon="5.80779">
        <ele>1017.525627</ele>
        <time>2026-08-29T10:44:04.000Z</time>
      </trkpt>
      <trkpt lat="44.95385" lon="5.80772">
        <ele>1017.597275</ele>
        <time>2026-08-29T10:44:05.000Z</time>
      </trkpt>
      <trkpt lat="44.95387" lon="5.80767">
        <ele>1017.667043</ele>
        <time>2026-08-29T10:44:06.000Z</time>
      </trkpt>
      <trkpt lat="44.9539" lon="5.80761">
        <ele>1017.735469</ele>
        <time>2026-08-29T10:44:07.000Z</time>
      </trkpt>
      <trkpt lat="44.95392" lon="5.80756">
        <ele>1017.801963</ele>
        <time>2026-08-29T10:44:08.000Z</time>
      </trkpt>
      <trkpt lat="44.95395" lon="5.80752">
        <ele>1017.864608</ele>
        <time>2026-08-29T10:44:09.000Z</time>
      </trkpt>
      <trkpt lat="44.95398" lon="5.80749">
        <ele>1017.924811</ele>
        <time>2026-08-29T10:44:10.000Z</time>
      </trkpt>
      <trkpt lat="44.95401" lon="5.80746">
        <ele>1017.983725</ele>
        <time>2026-08-29T10:44:11.000Z</time>
      </trkpt>
      <trkpt lat="44.95404" lon="5.80743">
        <ele>1018.038883</ele>
        <time>2026-08-29T10:44:12.000Z</time>
      </trkpt>
      <trkpt lat="44.95407" lon="5.8074">
        <ele>1018.092161</ele>
        <time>2026-08-29T10:44:13.000Z</time>
      </trkpt>
      <trkpt lat="44.9541" lon="5.80737">
        <ele>1018.143562</ele>
        <time>2026-08-29T10:44:14.000Z</time>
      </trkpt>
      <trkpt lat="44.95413" lon="5.80735">
        <ele>1018.193688</ele>
        <time>2026-08-29T10:44:15.000Z</time>
      </trkpt>
      <trkpt lat="44.95415" lon="5.80732">
        <ele>1018.242553</ele>
        <time>2026-08-29T10:44:16.000Z</time>
      </trkpt>
      <trkpt lat="44.95418" lon="5.8073">
        <ele>1018.289616</ele>
        <time>2026-08-29T10:44:17.000Z</time>
      </trkpt>
      <trkpt lat="44.9542" lon="5.80727">
        <ele>1018.334319</ele>
        <time>2026-08-29T10:44:18.000Z</time>
      </trkpt>
      <trkpt lat="44.95422" lon="5.80724">
        <ele>1018.383185</ele>
        <time>2026-08-29T10:44:19.000Z</time>
      </trkpt>
      <trkpt lat="44.95425" lon="5.80721">
        <ele>1018.430932</ele>
        <time>2026-08-29T10:44:20.000Z</time>
      </trkpt>
      <trkpt lat="44.95427" lon="5.80719">
        <ele>1018.479204</ele>
        <time>2026-08-29T10:44:21.000Z</time>
      </trkpt>
      <trkpt lat="44.9543" lon="5.80716">
        <ele>1018.524391</ele>
        <time>2026-08-29T10:44:22.000Z</time>
      </trkpt>
      <trkpt lat="44.95432" lon="5.80714">
        <ele>1018.568254</ele>
        <time>2026-08-29T10:44:23.000Z</time>
      </trkpt>
      <trkpt lat="44.95434" lon="5.80711">
        <ele>1018.611088</ele>
        <time>2026-08-29T10:44:24.000Z</time>
      </trkpt>
      <trkpt lat="44.95436" lon="5.80709">
        <ele>1018.536882</ele>
        <time>2026-08-29T10:44:25.000Z</time>
      </trkpt>
      <trkpt lat="44.95438" lon="5.80705">
        <ele>1018.380449</ele>
        <time>2026-08-29T10:44:26.000Z</time>
      </trkpt>
      <trkpt lat="44.95439" lon="5.80702">
        <ele>1018.226188</ele>
        <time>2026-08-29T10:44:27.000Z</time>
      </trkpt>
      <trkpt lat="44.95439" lon="5.80698">
        <ele>1018.061102</ele>
        <time>2026-08-29T10:44:28.000Z</time>
      </trkpt>
      <trkpt lat="44.95439" lon="5.80693">
        <ele>1017.872869</ele>
        <time>2026-08-29T10:44:29.000Z</time>
      </trkpt>
      <trkpt lat="44.95438" lon="5.80688">
        <ele>1017.643296</ele>
        <time>2026-08-29T10:44:30.000Z</time>
      </trkpt>
      <trkpt lat="44.95435" lon="5.80681">
        <ele>1017.355192</ele>
        <time>2026-08-29T10:44:31.000Z</time>
      </trkpt>
      <trkpt lat="44.95431" lon="5.80675">
        <ele>1017.019641</ele>
        <time>2026-08-29T10:44:32.000Z</time>
      </trkpt>
      <trkpt lat="44.95427" lon="5.80668">
        <ele>1016.672328</ele>
        <time>2026-08-29T10:44:33.000Z</time>
      </trkpt>
      <trkpt lat="44.95422" lon="5.80662">
        <ele>1016.283113</ele>
        <time>2026-08-29T10:44:34.000Z</time>
      </trkpt>
      <trkpt lat="44.95416" lon="5.80656">
        <ele>1015.864012</ele>
        <time>2026-08-29T10:44:35.000Z</time>
      </trkpt>
      <trkpt lat="44.95409" lon="5.80651">
        <ele>1015.434146</ele>
        <time>2026-08-29T10:44:36.000Z</time>
      </trkpt>
      <trkpt lat="44.95403" lon="5.80645">
        <ele>1015.017524</ele>
        <time>2026-08-29T10:44:37.000Z</time>
      </trkpt>
      <trkpt lat="44.95396" lon="5.8064">
        <ele>1014.559935</ele>
        <time>2026-08-29T10:44:38.000Z</time>
      </trkpt>
      <trkpt lat="44.95389" lon="5.80635">
        <ele>1014.116302</ele>
        <time>2026-08-29T10:44:39.000Z</time>
      </trkpt>
      <trkpt lat="44.95381" lon="5.80631">
        <ele>1013.664459</ele>
        <time>2026-08-29T10:44:40.000Z</time>
      </trkpt>
      <trkpt lat="44.95373" lon="5.80627">
        <ele>1013.205531</ele>
        <time>2026-08-29T10:44:41.000Z</time>
      </trkpt>
      <trkpt lat="44.95366" lon="5.80625">
        <ele>1012.754718</ele>
        <time>2026-08-29T10:44:42.000Z</time>
      </trkpt>
      <trkpt lat="44.95358" lon="5.80624">
        <ele>1012.303359</ele>
        <time>2026-08-29T10:44:43.000Z</time>
      </trkpt>
      <trkpt lat="44.95349" lon="5.80625">
        <ele>1011.840067</ele>
        <time>2026-08-29T10:44:44.000Z</time>
      </trkpt>
      <trkpt lat="44.95341" lon="5.80627">
        <ele>1011.374514</ele>
        <time>2026-08-29T10:44:45.000Z</time>
      </trkpt>
      <trkpt lat="44.95333" lon="5.80628">
        <ele>1010.898219</ele>
        <time>2026-08-29T10:44:46.000Z</time>
      </trkpt>
      <trkpt lat="44.95324" lon="5.80628">
        <ele>1010.390795</ele>
        <time>2026-08-29T10:44:47.000Z</time>
      </trkpt>
      <trkpt lat="44.95315" lon="5.80628">
        <ele>1009.865859</ele>
        <time>2026-08-29T10:44:48.000Z</time>
      </trkpt>
      <trkpt lat="44.95305" lon="5.80626">
        <ele>1009.322278</ele>
        <time>2026-08-29T10:44:49.000Z</time>
      </trkpt>
      <trkpt lat="44.95295" lon="5.80625">
        <ele>1008.765756</ele>
        <time>2026-08-29T10:44:50.000Z</time>
      </trkpt>
      <trkpt lat="44.95285" lon="5.80622">
        <ele>1008.095953</ele>
        <time>2026-08-29T10:44:51.000Z</time>
      </trkpt>
      <trkpt lat="44.95276" lon="5.80618">
        <ele>1007.306931</ele>
        <time>2026-08-29T10:44:52.000Z</time>
      </trkpt>
      <trkpt lat="44.95266" lon="5.80614">
        <ele>1006.518441</ele>
        <time>2026-08-29T10:44:53.000Z</time>
      </trkpt>
      <trkpt lat="44.95256" lon="5.80607">
        <ele>1005.645431</ele>
        <time>2026-08-29T10:44:54.000Z</time>
      </trkpt>
      <trkpt lat="44.95245" lon="5.80601">
        <ele>1004.767989</ele>
        <time>2026-08-29T10:44:55.000Z</time>
      </trkpt>
      <trkpt lat="44.95235" lon="5.80594">
        <ele>1003.904728</ele>
        <time>2026-08-29T10:44:56.000Z</time>
      </trkpt>
      <trkpt lat="44.95225" lon="5.80587">
        <ele>1003.02271</ele>
        <time>2026-08-29T10:44:57.000Z</time>
      </trkpt>
      <trkpt lat="44.95215" lon="5.80581">
        <ele>1002.143082</ele>
        <time>2026-08-29T10:44:58.000Z</time>
      </trkpt>
      <trkpt lat="44.95204" lon="5.80574">
        <ele>1001.237581</ele>
        <time>2026-08-29T10:44:59.000Z</time>
      </trkpt>
      <trkpt lat="44.95193" lon="5.80567">
        <ele>1000.317327</ele>
        <time>2026-08-29T10:45:00.000Z</time>
      </trkpt>
      <trkpt lat="44.95182" lon="5.80561">
        <ele>999.38688</ele>
        <time>2026-08-29T10:45:01.000Z</time>
      </trkpt>
      <trkpt lat="44.95171" lon="5.80555">
        <ele>998.438694</ele>
        <time>2026-08-29T10:45:02.000Z</time>
      </trkpt>
      <trkpt lat="44.95159" lon="5.80549">
        <ele>997.488908</ele>
        <time>2026-08-29T10:45:03.000Z</time>
      </trkpt>
      <trkpt lat="44.95148" lon="5.80543">
        <ele>996.518257</ele>
        <time>2026-08-29T10:45:04.000Z</time>
      </trkpt>
      <trkpt lat="44.95136" lon="5.80536">
        <ele>995.53629</ele>
        <time>2026-08-29T10:45:05.000Z</time>
      </trkpt>
      <trkpt lat="44.95124" lon="5.80529">
        <ele>994.54711</ele>
        <time>2026-08-29T10:45:06.000Z</time>
      </trkpt>
      <trkpt lat="44.95112" lon="5.80522">
        <ele>993.515479</ele>
        <time>2026-08-29T10:45:07.000Z</time>
      </trkpt>
      <trkpt lat="44.951" lon="5.80515">
        <ele>992.474857</ele>
        <time>2026-08-29T10:45:08.000Z</time>
      </trkpt>
      <trkpt lat="44.95088" lon="5.80509">
        <ele>991.418337</ele>
        <time>2026-08-29T10:45:09.000Z</time>
      </trkpt>
      <trkpt lat="44.95075" lon="5.80505">
        <ele>990.357475</ele>
        <time>2026-08-29T10:45:10.000Z</time>
      </trkpt>
      <trkpt lat="44.95062" lon="5.80501">
        <ele>989.272838</ele>
        <time>2026-08-29T10:45:11.000Z</time>
      </trkpt>
      <trkpt lat="44.95048" lon="5.80499">
        <ele>988.189915</ele>
        <time>2026-08-29T10:45:12.000Z</time>
      </trkpt>
      <trkpt lat="44.95035" lon="5.80498">
        <ele>987.103043</ele>
        <time>2026-08-29T10:45:13.000Z</time>
      </trkpt>
      <trkpt lat="44.95021" lon="5.80497">
        <ele>986.016544</ele>
        <time>2026-08-29T10:45:14.000Z</time>
      </trkpt>
      <trkpt lat="44.95008" lon="5.80495">
        <ele>984.922027</ele>
        <time>2026-08-29T10:45:15.000Z</time>
      </trkpt>
      <trkpt lat="44.94994" lon="5.80494">
        <ele>983.818733</ele>
        <time>2026-08-29T10:45:16.000Z</time>
      </trkpt>
      <trkpt lat="44.9498" lon="5.80492">
        <ele>982.706554</ele>
        <time>2026-08-29T10:45:17.000Z</time>
      </trkpt>
      <trkpt lat="44.94967" lon="5.8049">
        <ele>981.63223</ele>
        <time>2026-08-29T10:45:18.000Z</time>
      </trkpt>
      <trkpt lat="44.94954" lon="5.80487">
        <ele>980.58022</ele>
        <time>2026-08-29T10:45:19.000Z</time>
      </trkpt>
      <trkpt lat="44.94942" lon="5.80482">
        <ele>979.526735</ele>
        <time>2026-08-29T10:45:20.000Z</time>
      </trkpt>
      <trkpt lat="44.9493" lon="5.80474">
        <ele>978.453384</ele>
        <time>2026-08-29T10:45:21.000Z</time>
      </trkpt>
      <trkpt lat="44.9492" lon="5.80462">
        <ele>977.414436</ele>
        <time>2026-08-29T10:45:22.000Z</time>
      </trkpt>
      <trkpt lat="44.94912" lon="5.80449">
        <ele>976.397121</ele>
        <time>2026-08-29T10:45:23.000Z</time>
      </trkpt>
      <trkpt lat="44.94905" lon="5.80435">
        <ele>975.355324</ele>
        <time>2026-08-29T10:45:24.000Z</time>
      </trkpt>
      <trkpt lat="44.94901" lon="5.80418">
        <ele>974.347162</ele>
        <time>2026-08-29T10:45:25.000Z</time>
      </trkpt>
      <trkpt lat="44.94899" lon="5.80402">
        <ele>973.349894</ele>
        <time>2026-08-29T10:45:26.000Z</time>
      </trkpt>
      <trkpt lat="44.94896" lon="5.80384">
        <ele>972.318301</ele>
        <time>2026-08-29T10:45:27.000Z</time>
      </trkpt>
      <trkpt lat="44.94895" lon="5.80367">
        <ele>971.288851</ele>
        <time>2026-08-29T10:45:28.000Z</time>
      </trkpt>
      <trkpt lat="44.94893" lon="5.80349">
        <ele>970.273082</ele>
        <time>2026-08-29T10:45:29.000Z</time>
      </trkpt>
      <trkpt lat="44.94892" lon="5.80332">
        <ele>969.256279</ele>
        <time>2026-08-29T10:45:30.000Z</time>
      </trkpt>
      <trkpt lat="44.94888" lon="5.80316">
        <ele>968.290615</ele>
        <time>2026-08-29T10:45:31.000Z</time>
      </trkpt>
      <trkpt lat="44.94884" lon="5.803">
        <ele>967.290682</ele>
        <time>2026-08-29T10:45:32.000Z</time>
      </trkpt>
      <trkpt lat="44.94879" lon="5.80285">
        <ele>966.298453</ele>
        <time>2026-08-29T10:45:33.000Z</time>
      </trkpt>
      <trkpt lat="44.94872" lon="5.80271">
        <ele>965.328008</ele>
        <time>2026-08-29T10:45:34.000Z</time>
      </trkpt>
      <trkpt lat="44.9486" lon="5.80263">
        <ele>964.185608</ele>
        <time>2026-08-29T10:45:35.000Z</time>
      </trkpt>
      <trkpt lat="44.94848" lon="5.80258">
        <ele>963.044998</ele>
        <time>2026-08-29T10:45:36.000Z</time>
      </trkpt>
      <trkpt lat="44.94836" lon="5.80254">
        <ele>962.001414</ele>
        <time>2026-08-29T10:45:37.000Z</time>
      </trkpt>
      <trkpt lat="44.94824" lon="5.80253">
        <ele>960.928567</ele>
        <time>2026-08-29T10:45:38.000Z</time>
      </trkpt>
      <trkpt lat="44.94811" lon="5.80253">
        <ele>959.847803</ele>
        <time>2026-08-29T10:45:39.000Z</time>
      </trkpt>
      <trkpt lat="44.94799" lon="5.80254">
        <ele>958.748571</ele>
        <time>2026-08-29T10:45:40.000Z</time>
      </trkpt>
      <trkpt lat="44.94786" lon="5.80255">
        <ele>957.631637</ele>
        <time>2026-08-29T10:45:41.000Z</time>
      </trkpt>
      <trkpt lat="44.94773" lon="5.80256">
        <ele>956.498048</ele>
        <time>2026-08-29T10:45:42.000Z</time>
      </trkpt>
      <trkpt lat="44.9476" lon="5.80256">
        <ele>955.347616</ele>
        <time>2026-08-29T10:45:43.000Z</time>
      </trkpt>
      <trkpt lat="44.94747" lon="5.80254">
        <ele>954.210341</ele>
        <time>2026-08-29T10:45:44.000Z</time>
      </trkpt>
      <trkpt lat="44.94734" lon="5.80252">
        <ele>953.06691</ele>
        <time>2026-08-29T10:45:45.000Z</time>
      </trkpt>
      <trkpt lat="44.94721" lon="5.80249">
        <ele>951.930372</ele>
        <time>2026-08-29T10:45:46.000Z</time>
      </trkpt>
      <trkpt lat="44.94708" lon="5.80246">
        <ele>950.793834</ele>
        <time>2026-08-29T10:45:47.000Z</time>
      </trkpt>
      <trkpt lat="44.94695" lon="5.80243">
        <ele>949.645837</ele>
        <time>2026-08-29T10:45:48.000Z</time>
      </trkpt>
      <trkpt lat="44.94682" lon="5.8024">
        <ele>948.535591</ele>
        <time>2026-08-29T10:45:49.000Z</time>
      </trkpt>
      <trkpt lat="44.94668" lon="5.80237">
        <ele>947.411463</ele>
        <time>2026-08-29T10:45:50.000Z</time>
      </trkpt>
      <trkpt lat="44.94655" lon="5.80234">
        <ele>946.270904</ele>
        <time>2026-08-29T10:45:51.000Z</time>
      </trkpt>
      <trkpt lat="44.94641" lon="5.80231">
        <ele>945.131306</ele>
        <time>2026-08-29T10:45:52.000Z</time>
      </trkpt>
      <trkpt lat="44.94628" lon="5.80228">
        <ele>943.969674</ele>
        <time>2026-08-29T10:45:53.000Z</time>
      </trkpt>
      <trkpt lat="44.94614" lon="5.80225">
        <ele>942.798948</ele>
        <time>2026-08-29T10:45:54.000Z</time>
      </trkpt>
      <trkpt lat="44.946" lon="5.80222">
        <ele>941.617282</ele>
        <time>2026-08-29T10:45:55.000Z</time>
      </trkpt>
      <trkpt lat="44.94586" lon="5.80218">
        <ele>940.440865</ele>
        <time>2026-08-29T10:45:56.000Z</time>
      </trkpt>
      <trkpt lat="44.94572" lon="5.80215">
        <ele>939.239832</ele>
        <time>2026-08-29T10:45:57.000Z</time>
      </trkpt>
      <trkpt lat="44.94558" lon="5.80211">
        <ele>938.048013</ele>
        <time>2026-08-29T10:45:58.000Z</time>
      </trkpt>
      <trkpt lat="44.94543" lon="5.80208">
        <ele>936.859041</ele>
        <time>2026-08-29T10:45:59.000Z</time>
      </trkpt>
      <trkpt lat="44.94529" lon="5.80205">
        <ele>935.681724</ele>
        <time>2026-08-29T10:46:00.000Z</time>
      </trkpt>
      <trkpt lat="44.94515" lon="5.80203">
        <ele>934.494188</ele>
        <time>2026-08-29T10:46:01.000Z</time>
      </trkpt>
      <trkpt lat="44.94501" lon="5.80199">
        <ele>933.403368</ele>
        <time>2026-08-29T10:46:02.000Z</time>
      </trkpt>
      <trkpt lat="44.94487" lon="5.80195">
        <ele>932.319098</ele>
        <time>2026-08-29T10:46:03.000Z</time>
      </trkpt>
      <trkpt lat="44.94473" lon="5.80192">
        <ele>931.228278</ele>
        <time>2026-08-29T10:46:04.000Z</time>
      </trkpt>
      <trkpt lat="44.94459" lon="5.80189">
        <ele>930.138377</ele>
        <time>2026-08-29T10:46:05.000Z</time>
      </trkpt>
      <trkpt lat="44.94445" lon="5.80185">
        <ele>929.080321</ele>
        <time>2026-08-29T10:46:06.000Z</time>
      </trkpt>
      <trkpt lat="44.94432" lon="5.80182">
        <ele>928.090785</ele>
        <time>2026-08-29T10:46:07.000Z</time>
      </trkpt>
      <trkpt lat="44.94421" lon="5.80179">
        <ele>927.170662</ele>
        <time>2026-08-29T10:46:08.000Z</time>
      </trkpt>
      <trkpt lat="44.94409" lon="5.80177">
        <ele>926.27398</ele>
        <time>2026-08-29T10:46:09.000Z</time>
      </trkpt>
      <trkpt lat="44.94397" lon="5.80174">
        <ele>925.370672</ele>
        <time>2026-08-29T10:46:10.000Z</time>
      </trkpt>
      <trkpt lat="44.94386" lon="5.80172">
        <ele>924.515847</ele>
        <time>2026-08-29T10:46:11.000Z</time>
      </trkpt>
      <trkpt lat="44.94376" lon="5.80169">
        <ele>923.707038</ele>
        <time>2026-08-29T10:46:12.000Z</time>
      </trkpt>
      <trkpt lat="44.94366" lon="5.80167">
        <ele>922.945769</ele>
        <time>2026-08-29T10:46:13.000Z</time>
      </trkpt>
      <trkpt lat="44.94357" lon="5.80163">
        <ele>922.219601</ele>
        <time>2026-08-29T10:46:14.000Z</time>
      </trkpt>
      <trkpt lat="44.94349" lon="5.80157">
        <ele>921.51098</ele>
        <time>2026-08-29T10:46:15.000Z</time>
      </trkpt>
      <trkpt lat="44.94341" lon="5.80148">
        <ele>920.836843</ele>
        <time>2026-08-29T10:46:16.000Z</time>
      </trkpt>
      <trkpt lat="44.94337" lon="5.80136">
        <ele>920.464347</ele>
        <time>2026-08-29T10:46:17.000Z</time>
      </trkpt>
      <trkpt lat="44.94334" lon="5.80124">
        <ele>920.124878</ele>
        <time>2026-08-29T10:46:18.000Z</time>
      </trkpt>
      <trkpt lat="44.94334" lon="5.80111">
        <ele>919.774326</ele>
        <time>2026-08-29T10:46:19.000Z</time>
      </trkpt>
      <trkpt lat="44.94335" lon="5.80098">
        <ele>919.419538</ele>
        <time>2026-08-29T10:46:20.000Z</time>
      </trkpt>
      <trkpt lat="44.94337" lon="5.80086">
        <ele>919.079189</ele>
        <time>2026-08-29T10:46:21.000Z</time>
      </trkpt>
      <trkpt lat="44.9434" lon="5.80074">
        <ele>918.744327</ele>
        <time>2026-08-29T10:46:22.000Z</time>
      </trkpt>
      <trkpt lat="44.94341" lon="5.80062">
        <ele>918.405822</ele>
        <time>2026-08-29T10:46:23.000Z</time>
      </trkpt>
      <trkpt lat="44.94343" lon="5.80049">
        <ele>918.066647</ele>
        <time>2026-08-29T10:46:24.000Z</time>
      </trkpt>
      <trkpt lat="44.94343" lon="5.80037">
        <ele>917.741304</ele>
        <time>2026-08-29T10:46:25.000Z</time>
      </trkpt>
      <trkpt lat="44.94341" lon="5.80025">
        <ele>917.41755</ele>
        <time>2026-08-29T10:46:26.000Z</time>
      </trkpt>
      <trkpt lat="44.94339" lon="5.80014">
        <ele>917.091772</ele>
        <time>2026-08-29T10:46:27.000Z</time>
      </trkpt>
      <trkpt lat="44.94336" lon="5.80002">
        <ele>916.772396</ele>
        <time>2026-08-29T10:46:28.000Z</time>
      </trkpt>
      <trkpt lat="44.94332" lon="5.79991">
        <ele>916.437486</ele>
        <time>2026-08-29T10:46:29.000Z</time>
      </trkpt>
      <trkpt lat="44.94328" lon="5.79981">
        <ele>916.121363</ele>
        <time>2026-08-29T10:46:30.000Z</time>
      </trkpt>
      <trkpt lat="44.94324" lon="5.7997">
        <ele>915.793272</ele>
        <time>2026-08-29T10:46:31.000Z</time>
      </trkpt>
      <trkpt lat="44.94319" lon="5.7996">
        <ele>915.468269</ele>
        <time>2026-08-29T10:46:32.000Z</time>
      </trkpt>
      <trkpt lat="44.94314" lon="5.7995">
        <ele>915.136869</ele>
        <time>2026-08-29T10:46:33.000Z</time>
      </trkpt>
      <trkpt lat="44.9431" lon="5.7994">
        <ele>914.818447</ele>
        <time>2026-08-29T10:46:34.000Z</time>
      </trkpt>
      <trkpt lat="44.94306" lon="5.7993">
        <ele>914.51194</ele>
        <time>2026-08-29T10:46:35.000Z</time>
      </trkpt>
      <trkpt lat="44.94301" lon="5.7992">
        <ele>914.199896</ele>
        <time>2026-08-29T10:46:36.000Z</time>
      </trkpt>
      <trkpt lat="44.94297" lon="5.79911">
        <ele>913.921683</ele>
        <time>2026-08-29T10:46:37.000Z</time>
      </trkpt>
      <trkpt lat="44.94292" lon="5.79901">
        <ele>913.684869</ele>
        <time>2026-08-29T10:46:38.000Z</time>
      </trkpt>
      <trkpt lat="44.94288" lon="5.79891">
        <ele>913.449632</ele>
        <time>2026-08-29T10:46:39.000Z</time>
      </trkpt>
      <trkpt lat="44.94283" lon="5.79882">
        <ele>913.216283</ele>
        <time>2026-08-29T10:46:40.000Z</time>
      </trkpt>
      <trkpt lat="44.94279" lon="5.79873">
        <ele>912.97959</ele>
        <time>2026-08-29T10:46:41.000Z</time>
      </trkpt>
      <trkpt lat="44.94275" lon="5.79863">
        <ele>912.742601</ele>
        <time>2026-08-29T10:46:42.000Z</time>
      </trkpt>
      <trkpt lat="44.9427" lon="5.79853">
        <ele>912.502092</ele>
        <time>2026-08-29T10:46:43.000Z</time>
      </trkpt>
      <trkpt lat="44.94266" lon="5.79843">
        <ele>912.263345</ele>
        <time>2026-08-29T10:46:44.000Z</time>
      </trkpt>
      <trkpt lat="44.94262" lon="5.79834">
        <ele>912.026651</ele>
        <time>2026-08-29T10:46:45.000Z</time>
      </trkpt>
      <trkpt lat="44.94257" lon="5.79824">
        <ele>911.786654</ele>
        <time>2026-08-29T10:46:46.000Z</time>
      </trkpt>
      <trkpt lat="44.94252" lon="5.79815">
        <ele>911.551376</ele>
        <time>2026-08-29T10:46:47.000Z</time>
      </trkpt>
      <trkpt lat="44.94247" lon="5.79806">
        <ele>911.316268</ele>
        <time>2026-08-29T10:46:48.000Z</time>
      </trkpt>
      <trkpt lat="44.94242" lon="5.79797">
        <ele>911.069472</ele>
        <time>2026-08-29T10:46:49.000Z</time>
      </trkpt>
      <trkpt lat="44.94237" lon="5.79787">
        <ele>910.826098</ele>
        <time>2026-08-29T10:46:50.000Z</time>
      </trkpt>
      <trkpt lat="44.94232" lon="5.79778">
        <ele>910.586036</ele>
        <time>2026-08-29T10:46:51.000Z</time>
      </trkpt>
      <trkpt lat="44.94227" lon="5.79768">
        <ele>910.34435</ele>
        <time>2026-08-29T10:46:52.000Z</time>
      </trkpt>
      <trkpt lat="44.94222" lon="5.79759">
        <ele>910.098946</ele>
        <time>2026-08-29T10:46:53.000Z</time>
      </trkpt>
      <trkpt lat="44.94216" lon="5.7975">
        <ele>909.851478</ele>
        <time>2026-08-29T10:46:54.000Z</time>
      </trkpt>
      <trkpt lat="44.9421" lon="5.79742">
        <ele>909.605826</ele>
        <time>2026-08-29T10:46:55.000Z</time>
      </trkpt>
      <trkpt lat="44.94204" lon="5.79734">
        <ele>909.360318</ele>
        <time>2026-08-29T10:46:56.000Z</time>
      </trkpt>
      <trkpt lat="44.94197" lon="5.79727">
        <ele>909.115111</ele>
        <time>2026-08-29T10:46:57.000Z</time>
      </trkpt>
      <trkpt lat="44.94191" lon="5.7972">
        <ele>908.868981</ele>
        <time>2026-08-29T10:46:58.000Z</time>
      </trkpt>
      <trkpt lat="44.94184" lon="5.79714">
        <ele>908.632991</ele>
        <time>2026-08-29T10:46:59.000Z</time>
      </trkpt>
      <trkpt lat="44.94176" lon="5.79708">
        <ele>908.405369</ele>
        <time>2026-08-29T10:47:00.000Z</time>
      </trkpt>
      <trkpt lat="44.94169" lon="5.79702">
        <ele>908.183069</ele>
        <time>2026-08-29T10:47:01.000Z</time>
      </trkpt>
      <trkpt lat="44.94162" lon="5.79697">
        <ele>907.957048</ele>
        <time>2026-08-29T10:47:02.000Z</time>
      </trkpt>
      <trkpt lat="44.94155" lon="5.79693">
        <ele>907.734222</ele>
        <time>2026-08-29T10:47:03.000Z</time>
      </trkpt>
      <trkpt lat="44.94147" lon="5.79689">
        <ele>907.510474</ele>
        <time>2026-08-29T10:47:04.000Z</time>
      </trkpt>
      <trkpt lat="44.9414" lon="5.79685">
        <ele>907.283982</ele>
        <time>2026-08-29T10:47:05.000Z</time>
      </trkpt>
      <trkpt lat="44.94132" lon="5.79681">
        <ele>907.055603</ele>
        <time>2026-08-29T10:47:06.000Z</time>
      </trkpt>
      <trkpt lat="44.94124" lon="5.79677">
        <ele>906.825304</ele>
        <time>2026-08-29T10:47:07.000Z</time>
      </trkpt>
      <trkpt lat="44.94116" lon="5.79673">
        <ele>906.59952</ele>
        <time>2026-08-29T10:47:08.000Z</time>
      </trkpt>
      <trkpt lat="44.94109" lon="5.79669">
        <ele>906.375611</ele>
        <time>2026-08-29T10:47:09.000Z</time>
      </trkpt>
      <trkpt lat="44.94101" lon="5.79665">
        <ele>906.153119</ele>
        <time>2026-08-29T10:47:10.000Z</time>
      </trkpt>
      <trkpt lat="44.94094" lon="5.7966">
        <ele>905.929926</ele>
        <time>2026-08-29T10:47:11.000Z</time>
      </trkpt>
      <trkpt lat="44.94087" lon="5.79656">
        <ele>905.709655</ele>
        <time>2026-08-29T10:47:12.000Z</time>
      </trkpt>
      <trkpt lat="44.94079" lon="5.79652">
        <ele>905.493464</ele>
        <time>2026-08-29T10:47:13.000Z</time>
      </trkpt>
      <trkpt lat="44.94072" lon="5.79648">
        <ele>905.274939</ele>
        <time>2026-08-29T10:47:14.000Z</time>
      </trkpt>
      <trkpt lat="44.94065" lon="5.79644">
        <ele>905.060348</ele>
        <time>2026-08-29T10:47:15.000Z</time>
      </trkpt>
      <trkpt lat="44.94057" lon="5.79641">
        <ele>904.840509</ele>
        <time>2026-08-29T10:47:16.000Z</time>
      </trkpt>
      <trkpt lat="44.9405" lon="5.79637">
        <ele>904.623295</ele>
        <time>2026-08-29T10:47:17.000Z</time>
      </trkpt>
      <trkpt lat="44.94042" lon="5.79634">
        <ele>904.406713</ele>
        <time>2026-08-29T10:47:18.000Z</time>
      </trkpt>
      <trkpt lat="44.94035" lon="5.7963">
        <ele>904.190131</ele>
        <time>2026-08-29T10:47:19.000Z</time>
      </trkpt>
      <trkpt lat="44.94028" lon="5.79626">
        <ele>903.968996</ele>
        <time>2026-08-29T10:47:20.000Z</time>
      </trkpt>
      <trkpt lat="44.9402" lon="5.79622">
        <ele>903.79317</ele>
        <time>2026-08-29T10:47:21.000Z</time>
      </trkpt>
      <trkpt lat="44.94013" lon="5.79618">
        <ele>903.825462</ele>
        <time>2026-08-29T10:47:22.000Z</time>
      </trkpt>
      <trkpt lat="44.94005" lon="5.79614">
        <ele>903.857289</ele>
        <time>2026-08-29T10:47:23.000Z</time>
      </trkpt>
      <trkpt lat="44.93997" lon="5.7961">
        <ele>903.889764</ele>
        <time>2026-08-29T10:47:24.000Z</time>
      </trkpt>
      <trkpt lat="44.93989" lon="5.79607">
        <ele>903.922437</ele>
        <time>2026-08-29T10:47:25.000Z</time>
      </trkpt>
      <trkpt lat="44.93981" lon="5.79603">
        <ele>903.955026</ele>
        <time>2026-08-29T10:47:26.000Z</time>
      </trkpt>
      <trkpt lat="44.93973" lon="5.79601">
        <ele>903.987721</ele>
        <time>2026-08-29T10:47:27.000Z</time>
      </trkpt>
      <trkpt lat="44.93965" lon="5.79598">
        <ele>904.019527</ele>
        <time>2026-08-29T10:47:28.000Z</time>
      </trkpt>
      <trkpt lat="44.93958" lon="5.79596">
        <ele>904.050505</ele>
        <time>2026-08-29T10:47:29.000Z</time>
      </trkpt>
      <trkpt lat="44.93951" lon="5.79595">
        <ele>904.07624</ele>
        <time>2026-08-29T10:47:30.000Z</time>
      </trkpt>
      <trkpt lat="44.93946" lon="5.79594">
        <ele>904.096801</ele>
        <time>2026-08-29T10:47:31.000Z</time>
      </trkpt>
      <trkpt lat="44.93943" lon="5.79594">
        <ele>904.110325</ele>
        <time>2026-08-29T10:47:32.000Z</time>
      </trkpt>
      <trkpt lat="44.93941" lon="5.79593">
        <ele>904.116678</ele>
        <time>2026-08-29T10:47:33.000Z</time>
      </trkpt>
      <trkpt lat="44.9394" lon="5.79593">
        <ele>904.118723</ele>
        <time>2026-08-29T10:47:34.000Z</time>
      </trkpt>
      <trkpt lat="44.93941" lon="5.79597">
        <ele>904.130661</ele>
        <time>2026-08-29T10:48:56.000Z</time>
      </trkpt>
      <trkpt lat="44.93943" lon="5.79599">
        <ele>904.138407</ele>
        <time>2026-08-29T10:48:57.000Z</time>
      </trkpt>
      <trkpt lat="44.93945" lon="5.79599">
        <ele>904.148345</ele>
        <time>2026-08-29T10:48:58.000Z</time>
      </trkpt>
      <trkpt lat="44.93948" lon="5.796">
        <ele>904.159103</ele>
        <time>2026-08-29T10:48:59.000Z</time>
      </trkpt>
      <trkpt lat="44.93951" lon="5.796">
        <ele>904.171029</ele>
        <time>2026-08-29T10:49:00.000Z</time>
      </trkpt>
      <trkpt lat="44.93954" lon="5.79601">
        <ele>904.182955</ele>
        <time>2026-08-29T10:49:01.000Z</time>
      </trkpt>
      <trkpt lat="44.93957" lon="5.79602">
        <ele>904.194845</ele>
        <time>2026-08-29T10:49:02.000Z</time>
      </trkpt>
      <trkpt lat="44.9396" lon="5.79602">
        <ele>904.206291</ele>
        <time>2026-08-29T10:49:03.000Z</time>
      </trkpt>
      <trkpt lat="44.93963" lon="5.79603">
        <ele>904.217095</ele>
        <time>2026-08-29T10:49:04.000Z</time>
      </trkpt>
      <trkpt lat="44.93965" lon="5.79603">
        <ele>904.228288</ele>
        <time>2026-08-29T10:49:05.000Z</time>
      </trkpt>
      <trkpt lat="44.93968" lon="5.79604">
        <ele>904.239207</ele>
        <time>2026-08-29T10:49:06.000Z</time>
      </trkpt>
      <trkpt lat="44.93971" lon="5.79605">
        <ele>904.251279</ele>
        <time>2026-08-29T10:49:07.000Z</time>
      </trkpt>
      <trkpt lat="44.93974" lon="5.79606">
        <ele>904.262796</ele>
        <time>2026-08-29T10:49:08.000Z</time>
      </trkpt>
      <trkpt lat="44.93977" lon="5.79608">
        <ele>904.274397</ele>
        <time>2026-08-29T10:49:09.000Z</time>
      </trkpt>
      <trkpt lat="44.9398" lon="5.79609">
        <ele>904.286372</ele>
        <time>2026-08-29T10:49:10.000Z</time>
      </trkpt>
      <trkpt lat="44.93982" lon="5.7961">
        <ele>904.298159</ele>
        <time>2026-08-29T10:49:11.000Z</time>
      </trkpt>
      <trkpt lat="44.93985" lon="5.79612">
        <ele>904.310155</ele>
        <time>2026-08-29T10:49:12.000Z</time>
      </trkpt>
      <trkpt lat="44.93988" lon="5.79614">
        <ele>904.322878</ele>
        <time>2026-08-29T10:49:13.000Z</time>
      </trkpt>
      <trkpt lat="44.93991" lon="5.79615">
        <ele>904.335967</ele>
        <time>2026-08-29T10:49:14.000Z</time>
      </trkpt>
      <trkpt lat="44.93994" lon="5.79617">
        <ele>904.348618</ele>
        <time>2026-08-29T10:49:15.000Z</time>
      </trkpt>
      <trkpt lat="44.93998" lon="5.79618">
        <ele>904.36165</ele>
        <time>2026-08-29T10:49:16.000Z</time>
      </trkpt>
      <trkpt lat="44.94001" lon="5.79619">
        <ele>904.373922</ele>
        <time>2026-08-29T10:49:17.000Z</time>
      </trkpt>
      <trkpt lat="44.94003" lon="5.7962">
        <ele>904.385613</ele>
        <time>2026-08-29T10:49:18.000Z</time>
      </trkpt>
      <trkpt lat="44.94006" lon="5.79622">
        <ele>904.396934</ele>
        <time>2026-08-29T10:49:19.000Z</time>
      </trkpt>
      <trkpt lat="44.94009" lon="5.79623">
        <ele>904.408828</ele>
        <time>2026-08-29T10:49:20.000Z</time>
      </trkpt>
      <trkpt lat="44.94012" lon="5.79624">
        <ele>904.421556</ele>
        <time>2026-08-29T10:49:21.000Z</time>
      </trkpt>
      <trkpt lat="44.94015" lon="5.79626">
        <ele>904.433908</ele>
        <time>2026-08-29T10:49:22.000Z</time>
      </trkpt>
      <trkpt lat="44.94018" lon="5.79627">
        <ele>904.44618</ele>
        <time>2026-08-29T10:49:23.000Z</time>
      </trkpt>
      <trkpt lat="44.94021" lon="5.79628">
        <ele>904.458243</ele>
        <time>2026-08-29T10:49:24.000Z</time>
      </trkpt>
      <trkpt lat="44.94024" lon="5.7963">
        <ele>904.47003</ele>
        <time>2026-08-29T10:49:25.000Z</time>
      </trkpt>
      <trkpt lat="44.94026" lon="5.79631">
        <ele>904.481258</ele>
        <time>2026-08-29T10:49:26.000Z</time>
      </trkpt>
      <trkpt lat="44.94029" lon="5.79632">
        <ele>904.49221</ele>
        <time>2026-08-29T10:49:27.000Z</time>
      </trkpt>
      <trkpt lat="44.94032" lon="5.79634">
        <ele>904.56308</ele>
        <time>2026-08-29T10:49:28.000Z</time>
      </trkpt>
      <trkpt lat="44.94034" lon="5.79635">
        <ele>904.656601</ele>
        <time>2026-08-29T10:49:29.000Z</time>
      </trkpt>
      <trkpt lat="44.94037" lon="5.79635">
        <ele>904.752005</ele>
        <time>2026-08-29T10:49:30.000Z</time>
      </trkpt>
      <trkpt lat="44.9404" lon="5.79635">
        <ele>904.847046</ele>
        <time>2026-08-29T10:49:31.000Z</time>
      </trkpt>
      <trkpt lat="44.94042" lon="5.79633">
        <ele>904.94031</ele>
        <time>2026-08-29T10:49:32.000Z</time>
      </trkpt>
      <trkpt lat="44.94044" lon="5.7963">
        <ele>905.034679</ele>
        <time>2026-08-29T10:49:33.000Z</time>
      </trkpt>
      <trkpt lat="44.94045" lon="5.79626">
        <ele>905.13234</ele>
        <time>2026-08-29T10:49:34.000Z</time>
      </trkpt>
      <trkpt lat="44.94046" lon="5.79622">
        <ele>905.232172</ele>
        <time>2026-08-29T10:49:35.000Z</time>
      </trkpt>
      <trkpt lat="44.94046" lon="5.79618">
        <ele>905.328215</ele>
        <time>2026-08-29T10:49:36.000Z</time>
      </trkpt>
      <trkpt lat="44.94046" lon="5.79614">
        <ele>905.427122</ele>
        <time>2026-08-29T10:49:37.000Z</time>
      </trkpt>
      <trkpt lat="44.94045" lon="5.79611">
        <ele>905.508557</ele>
        <time>2026-08-29T10:49:38.000Z</time>
      </trkpt>
      <trkpt lat="44.94044" lon="5.79607">
        <ele>905.595661</ele>
        <time>2026-08-29T10:49:39.000Z</time>
      </trkpt>
      <trkpt lat="44.94043" lon="5.79604">
        <ele>905.678326</ele>
        <time>2026-08-29T10:49:40.000Z</time>
      </trkpt>
      <trkpt lat="44.94043" lon="5.79601">
        <ele>905.762409</ele>
        <time>2026-08-29T10:49:41.000Z</time>
      </trkpt>
      <trkpt lat="44.94042" lon="5.79598">
        <ele>905.838703</ele>
        <time>2026-08-29T10:49:42.000Z</time>
      </trkpt>
      <trkpt lat="44.94041" lon="5.79595">
        <ele>905.915821</ele>
        <time>2026-08-29T10:49:43.000Z</time>
      </trkpt>
      <trkpt lat="44.94041" lon="5.79592">
        <ele>905.98602</ele>
        <time>2026-08-29T10:49:44.000Z</time>
      </trkpt>
      <trkpt lat="44.94041" lon="5.79587">
        <ele>906.089202</ele>
        <time>2026-08-29T10:49:45.000Z</time>
      </trkpt>
      <trkpt lat="44.9404" lon="5.79584">
        <ele>906.185748</ele>
        <time>2026-08-29T10:49:46.000Z</time>
      </trkpt>
      <trkpt lat="44.94039" lon="5.7958">
        <ele>906.276317</ele>
        <time>2026-08-29T10:49:47.000Z</time>
      </trkpt>
      <trkpt lat="44.94038" lon="5.79577">
        <ele>906.358686</ele>
        <time>2026-08-29T10:49:48.000Z</time>
      </trkpt>
      <trkpt lat="44.94037" lon="5.79574">
        <ele>906.444048</ele>
        <time>2026-08-29T10:49:49.000Z</time>
      </trkpt>
      <trkpt lat="44.94036" lon="5.79571">
        <ele>906.507261</ele>
        <time>2026-08-29T10:49:50.000Z</time>
      </trkpt>
      <trkpt lat="44.94036" lon="5.79567">
        <ele>906.603029</ele>
        <time>2026-08-29T10:49:51.000Z</time>
      </trkpt>
      <trkpt lat="44.94036" lon="5.79563">
        <ele>906.69955</ele>
        <time>2026-08-29T10:49:52.000Z</time>
      </trkpt>
      <trkpt lat="44.94035" lon="5.7956">
        <ele>906.781767</ele>
        <time>2026-08-29T10:49:53.000Z</time>
      </trkpt>
      <trkpt lat="44.94035" lon="5.79557">
        <ele>906.862747</ele>
        <time>2026-08-29T10:49:54.000Z</time>
      </trkpt>
      <trkpt lat="44.94034" lon="5.79554">
        <ele>906.949644</ele>
        <time>2026-08-29T10:49:55.000Z</time>
      </trkpt>
      <trkpt lat="44.94032" lon="5.79551">
        <ele>907.030131</ele>
        <time>2026-08-29T10:49:56.000Z</time>
      </trkpt>
      <trkpt lat="44.9403" lon="5.79549">
        <ele>907.119097</ele>
        <time>2026-08-29T10:49:57.000Z</time>
      </trkpt>
      <trkpt lat="44.94028" lon="5.79548">
        <ele>907.199487</ele>
        <time>2026-08-29T10:49:58.000Z</time>
      </trkpt>
      <trkpt lat="44.94025" lon="5.79546">
        <ele>907.289495</ele>
        <time>2026-08-29T10:49:59.000Z</time>
      </trkpt>
      <trkpt lat="44.94023" lon="5.79543">
        <ele>907.378122</ele>
        <time>2026-08-29T10:50:00.000Z</time>
      </trkpt>
      <trkpt lat="44.94021" lon="5.79541">
        <ele>907.473835</ele>
        <time>2026-08-29T10:50:01.000Z</time>
      </trkpt>
      <trkpt lat="44.94019" lon="5.79538">
        <ele>907.564365</ele>
        <time>2026-08-29T10:50:02.000Z</time>
      </trkpt>
      <trkpt lat="44.94018" lon="5.79535">
        <ele>907.65553</ele>
        <time>2026-08-29T10:50:03.000Z</time>
      </trkpt>
      <trkpt lat="44.94017" lon="5.79532">
        <ele>907.743879</ele>
        <time>2026-08-29T10:50:04.000Z</time>
      </trkpt>
      <trkpt lat="44.94015" lon="5.79529">
        <ele>907.828141</ele>
        <time>2026-08-29T10:50:05.000Z</time>
      </trkpt>
      <trkpt lat="44.94014" lon="5.79525">
        <ele>907.918765</ele>
        <time>2026-08-29T10:50:06.000Z</time>
      </trkpt>
      <trkpt lat="44.94012" lon="5.79522">
        <ele>908.014977</ele>
        <time>2026-08-29T10:50:07.000Z</time>
      </trkpt>
      <trkpt lat="44.94011" lon="5.79519">
        <ele>908.105112</ele>
        <time>2026-08-29T10:50:08.000Z</time>
      </trkpt>
      <trkpt lat="44.94009" lon="5.79516">
        <ele>908.201247</ele>
        <time>2026-08-29T10:50:09.000Z</time>
      </trkpt>
      <trkpt lat="44.94008" lon="5.79512">
        <ele>908.305289</ele>
        <time>2026-08-29T10:50:10.000Z</time>
      </trkpt>
      <trkpt lat="44.94006" lon="5.79509">
        <ele>908.407146</ele>
        <time>2026-08-29T10:50:11.000Z</time>
      </trkpt>
      <trkpt lat="44.94004" lon="5.79505">
        <ele>908.507124</ele>
        <time>2026-08-29T10:50:12.000Z</time>
      </trkpt>
      <trkpt lat="44.94003" lon="5.79502">
        <ele>908.60944</ele>
        <time>2026-08-29T10:50:13.000Z</time>
      </trkpt>
      <trkpt lat="44.94001" lon="5.79498">
        <ele>908.717172</ele>
        <time>2026-08-29T10:50:14.000Z</time>
      </trkpt>
      <trkpt lat="44.93999" lon="5.79494">
        <ele>908.81706</ele>
        <time>2026-08-29T10:50:15.000Z</time>
      </trkpt>
      <trkpt lat="44.93998" lon="5.79491">
        <ele>908.917734</ele>
        <time>2026-08-29T10:50:16.000Z</time>
      </trkpt>
      <trkpt lat="44.93997" lon="5.79487">
        <ele>909.013219</ele>
        <time>2026-08-29T10:50:17.000Z</time>
      </trkpt>
      <trkpt lat="44.93996" lon="5.79483">
        <ele>909.109372</ele>
        <time>2026-08-29T10:50:18.000Z</time>
      </trkpt>
      <trkpt lat="44.93995" lon="5.7948">
        <ele>909.19113</ele>
        <time>2026-08-29T10:50:19.000Z</time>
      </trkpt>
      <trkpt lat="44.93995" lon="5.79476">
        <ele>909.283877</ele>
        <time>2026-08-29T10:50:20.000Z</time>
      </trkpt>
      <trkpt lat="44.93994" lon="5.79472">
        <ele>909.381311</ele>
        <time>2026-08-29T10:50:21.000Z</time>
      </trkpt>
      <trkpt lat="44.93994" lon="5.79469">
        <ele>909.468294</ele>
        <time>2026-08-29T10:50:22.000Z</time>
      </trkpt>
      <trkpt lat="44.93994" lon="5.79465">
        <ele>909.566677</ele>
        <time>2026-08-29T10:50:23.000Z</time>
      </trkpt>
      <trkpt lat="44.93994" lon="5.7946">
        <ele>909.669916</ele>
        <time>2026-08-29T10:50:24.000Z</time>
      </trkpt>
      <trkpt lat="44.93994" lon="5.79456">
        <ele>909.78035</ele>
        <time>2026-08-29T10:50:25.000Z</time>
      </trkpt>
      <trkpt lat="44.93994" lon="5.79451">
        <ele>909.887284</ele>
        <time>2026-08-29T10:50:26.000Z</time>
      </trkpt>
      <trkpt lat="44.93995" lon="5.79446">
        <ele>910.014976</ele>
        <time>2026-08-29T10:50:27.000Z</time>
      </trkpt>
      <trkpt lat="44.93996" lon="5.79441">
        <ele>910.147509</ele>
        <time>2026-08-29T10:50:28.000Z</time>
      </trkpt>
      <trkpt lat="44.93997" lon="5.79435">
        <ele>910.29856</ele>
        <time>2026-08-29T10:50:29.000Z</time>
      </trkpt>
      <trkpt lat="44.93998" lon="5.79428">
        <ele>910.455832</ele>
        <time>2026-08-29T10:50:30.000Z</time>
      </trkpt>
      <trkpt lat="44.94" lon="5.79422">
        <ele>910.53544</ele>
        <time>2026-08-29T10:50:31.000Z</time>
      </trkpt>
      <trkpt lat="44.94001" lon="5.79414">
        <ele>910.236502</ele>
        <time>2026-08-29T10:50:32.000Z</time>
      </trkpt>
      <trkpt lat="44.94001" lon="5.79408">
        <ele>909.952464</ele>
        <time>2026-08-29T10:50:33.000Z</time>
      </trkpt>
      <trkpt lat="44.94002" lon="5.794">
        <ele>909.629375</ele>
        <time>2026-08-29T10:50:34.000Z</time>
      </trkpt>
      <trkpt lat="44.94004" lon="5.79392">
        <ele>909.272331</ele>
        <time>2026-08-29T10:50:35.000Z</time>
      </trkpt>
      <trkpt lat="44.94005" lon="5.79383">
        <ele>908.907413</ele>
        <time>2026-08-29T10:50:36.000Z</time>
      </trkpt>
      <trkpt lat="44.94007" lon="5.79374">
        <ele>908.522748</ele>
        <time>2026-08-29T10:50:37.000Z</time>
      </trkpt>
      <trkpt lat="44.94009" lon="5.79364">
        <ele>908.118392</ele>
        <time>2026-08-29T10:50:38.000Z</time>
      </trkpt>
      <trkpt lat="44.9401" lon="5.79355">
        <ele>907.707381</ele>
        <time>2026-08-29T10:50:39.000Z</time>
      </trkpt>
      <trkpt lat="44.94012" lon="5.79345">
        <ele>907.292145</ele>
        <time>2026-08-29T10:50:40.000Z</time>
      </trkpt>
      <trkpt lat="44.94013" lon="5.79335">
        <ele>906.872875</ele>
        <time>2026-08-29T10:50:41.000Z</time>
      </trkpt>
      <trkpt lat="44.94015" lon="5.79324">
        <ele>906.438502</ele>
        <time>2026-08-29T10:50:42.000Z</time>
      </trkpt>
      <trkpt lat="44.94016" lon="5.79314">
        <ele>906.000078</ele>
        <time>2026-08-29T10:50:43.000Z</time>
      </trkpt>
      <trkpt lat="44.94017" lon="5.79303">
        <ele>905.541383</ele>
        <time>2026-08-29T10:50:44.000Z</time>
      </trkpt>
      <trkpt lat="44.94019" lon="5.79292">
        <ele>905.067404</ele>
        <time>2026-08-29T10:50:45.000Z</time>
      </trkpt>
      <trkpt lat="44.94021" lon="5.7928">
        <ele>904.582981</ele>
        <time>2026-08-29T10:50:46.000Z</time>
      </trkpt>
      <trkpt lat="44.94023" lon="5.79269">
        <ele>904.091921</ele>
        <time>2026-08-29T10:50:47.000Z</time>
      </trkpt>
      <trkpt lat="44.94025" lon="5.79256">
        <ele>903.573479</ele>
        <time>2026-08-29T10:50:48.000Z</time>
      </trkpt>
      <trkpt lat="44.94028" lon="5.79244">
        <ele>903.043809</ele>
        <time>2026-08-29T10:50:49.000Z</time>
      </trkpt>
      <trkpt lat="44.94031" lon="5.79232">
        <ele>902.512177</ele>
        <time>2026-08-29T10:50:50.000Z</time>
      </trkpt>
      <trkpt lat="44.94036" lon="5.79221">
        <ele>901.967887</ele>
        <time>2026-08-29T10:50:51.000Z</time>
      </trkpt>
      <trkpt lat="44.94042" lon="5.79211">
        <ele>901.412364</ele>
        <time>2026-08-29T10:50:52.000Z</time>
      </trkpt>
      <trkpt lat="44.94049" lon="5.79201">
        <ele>900.830978</ele>
        <time>2026-08-29T10:50:53.000Z</time>
      </trkpt>
      <trkpt lat="44.94057" lon="5.79191">
        <ele>900.244414</ele>
        <time>2026-08-29T10:50:54.000Z</time>
      </trkpt>
      <trkpt lat="44.94064" lon="5.79181">
        <ele>899.636835</ele>
        <time>2026-08-29T10:50:55.000Z</time>
      </trkpt>
      <trkpt lat="44.94072" lon="5.79172">
        <ele>899.029365</ele>
        <time>2026-08-29T10:50:56.000Z</time>
      </trkpt>
      <trkpt lat="44.94079" lon="5.79163">
        <ele>898.409825</ele>
        <time>2026-08-29T10:50:57.000Z</time>
      </trkpt>
      <trkpt lat="44.94086" lon="5.79153">
        <ele>897.811465</ele>
        <time>2026-08-29T10:50:58.000Z</time>
      </trkpt>
      <trkpt lat="44.94093" lon="5.79144">
        <ele>897.229542</ele>
        <time>2026-08-29T10:50:59.000Z</time>
      </trkpt>
      <trkpt lat="44.941" lon="5.79136">
        <ele>896.689234</ele>
        <time>2026-08-29T10:51:00.000Z</time>
      </trkpt>
      <trkpt lat="44.94106" lon="5.79128">
        <ele>896.181988</ele>
        <time>2026-08-29T10:51:01.000Z</time>
      </trkpt>
      <trkpt lat="44.94112" lon="5.79122">
        <ele>895.708448</ele>
        <time>2026-08-29T10:51:02.000Z</time>
      </trkpt>
      <trkpt lat="44.94117" lon="5.79115">
        <ele>895.272326</ele>
        <time>2026-08-29T10:51:03.000Z</time>
      </trkpt>
      <trkpt lat="44.94121" lon="5.79108">
        <ele>894.889342</ele>
        <time>2026-08-29T10:51:04.000Z</time>
      </trkpt>
      <trkpt lat="44.94123" lon="5.79098">
        <ele>894.466578</ele>
        <time>2026-08-29T10:51:05.000Z</time>
      </trkpt>
      <trkpt lat="44.94123" lon="5.79089">
        <ele>894.0583</ele>
        <time>2026-08-29T10:51:06.000Z</time>
      </trkpt>
      <trkpt lat="44.94122" lon="5.79079">
        <ele>893.629699</ele>
        <time>2026-08-29T10:51:07.000Z</time>
      </trkpt>
      <trkpt lat="44.94119" lon="5.79069">
        <ele>893.140618</ele>
        <time>2026-08-29T10:51:08.000Z</time>
      </trkpt>
      <trkpt lat="44.94117" lon="5.79058">
        <ele>892.665866</ele>
        <time>2026-08-29T10:51:09.000Z</time>
      </trkpt>
      <trkpt lat="44.94114" lon="5.79049">
        <ele>892.223857</ele>
        <time>2026-08-29T10:51:10.000Z</time>
      </trkpt>
      <trkpt lat="44.94113" lon="5.7904">
        <ele>891.834367</ele>
        <time>2026-08-29T10:51:11.000Z</time>
      </trkpt>
      <trkpt lat="44.94114" lon="5.79032">
        <ele>891.480099</ele>
        <time>2026-08-29T10:51:12.000Z</time>
      </trkpt>
      <trkpt lat="44.94117" lon="5.79025">
        <ele>891.130657</ele>
        <time>2026-08-29T10:51:13.000Z</time>
      </trkpt>
      <trkpt lat="44.9412" lon="5.79018">
        <ele>890.767996</ele>
        <time>2026-08-29T10:51:14.000Z</time>
      </trkpt>
      <trkpt lat="44.94125" lon="5.79012">
        <ele>890.392711</ele>
        <time>2026-08-29T10:51:15.000Z</time>
      </trkpt>
      <trkpt lat="44.9413" lon="5.79007">
        <ele>890.014206</ele>
        <time>2026-08-29T10:51:16.000Z</time>
      </trkpt>
      <trkpt lat="44.94135" lon="5.79002">
        <ele>889.619957</ele>
        <time>2026-08-29T10:51:17.000Z</time>
      </trkpt>
      <trkpt lat="44.94141" lon="5.78998">
        <ele>889.229032</ele>
        <time>2026-08-29T10:51:18.000Z</time>
      </trkpt>
      <trkpt lat="44.94147" lon="5.78994">
        <ele>889.120265</ele>
        <time>2026-08-29T10:51:19.000Z</time>
      </trkpt>
      <trkpt lat="44.94152" lon="5.78989">
        <ele>889.135197</ele>
        <time>2026-08-29T10:51:20.000Z</time>
      </trkpt>
      <trkpt lat="44.94158" lon="5.78984">
        <ele>889.150303</ele>
        <time>2026-08-29T10:51:21.000Z</time>
      </trkpt>
      <trkpt lat="44.94163" lon="5.78979">
        <ele>889.165306</ele>
        <time>2026-08-29T10:51:22.000Z</time>
      </trkpt>
      <trkpt lat="44.94167" lon="5.78973">
        <ele>889.180054</ele>
        <time>2026-08-29T10:51:23.000Z</time>
      </trkpt>
      <trkpt lat="44.94172" lon="5.78966">
        <ele>889.194572</ele>
        <time>2026-08-29T10:51:24.000Z</time>
      </trkpt>
      <trkpt lat="44.94176" lon="5.7896">
        <ele>889.208325</ele>
        <time>2026-08-29T10:51:25.000Z</time>
      </trkpt>
      <trkpt lat="44.9418" lon="5.78954">
        <ele>889.222218</ele>
        <time>2026-08-29T10:51:26.000Z</time>
      </trkpt>
      <trkpt lat="44.94183" lon="5.78946">
        <ele>889.236496</ele>
        <time>2026-08-29T10:51:27.000Z</time>
      </trkpt>
      <trkpt lat="44.94187" lon="5.78939">
        <ele>889.250813</ele>
        <time>2026-08-29T10:51:28.000Z</time>
      </trkpt>
      <trkpt lat="44.94189" lon="5.78931">
        <ele>889.264862</ele>
        <time>2026-08-29T10:51:29.000Z</time>
      </trkpt>
      <trkpt lat="44.94192" lon="5.78923">
        <ele>889.279282</ele>
        <time>2026-08-29T10:51:30.000Z</time>
      </trkpt>
      <trkpt lat="44.94194" lon="5.78915">
        <ele>889.294</ele>
        <time>2026-08-29T10:51:31.000Z</time>
      </trkpt>
      <trkpt lat="44.94195" lon="5.78906">
        <ele>889.308005</ele>
        <time>2026-08-29T10:51:32.000Z</time>
      </trkpt>
      <trkpt lat="44.94196" lon="5.78898">
        <ele>889.321743</ele>
        <time>2026-08-29T10:51:33.000Z</time>
      </trkpt>
      <trkpt lat="44.94198" lon="5.7889">
        <ele>889.335913</ele>
        <time>2026-08-29T10:51:34.000Z</time>
      </trkpt>
      <trkpt lat="44.94199" lon="5.78881">
        <ele>889.350659</ele>
        <time>2026-08-29T10:51:35.000Z</time>
      </trkpt>
      <trkpt lat="44.942" lon="5.78872">
        <ele>889.36515</ele>
        <time>2026-08-29T10:51:36.000Z</time>
      </trkpt>
      <trkpt lat="44.94201" lon="5.78864">
        <ele>889.379277</ele>
        <time>2026-08-29T10:51:37.000Z</time>
      </trkpt>
      <trkpt lat="44.94203" lon="5.78855">
        <ele>889.392966</ele>
        <time>2026-08-29T10:51:38.000Z</time>
      </trkpt>
      <trkpt lat="44.94204" lon="5.78847">
        <ele>889.406704</ele>
        <time>2026-08-29T10:51:39.000Z</time>
      </trkpt>
      <trkpt lat="44.94205" lon="5.78839">
        <ele>889.420432</ele>
        <time>2026-08-29T10:51:40.000Z</time>
      </trkpt>
      <trkpt lat="44.94205" lon="5.7883">
        <ele>889.434359</ele>
        <time>2026-08-29T10:51:41.000Z</time>
      </trkpt>
      <trkpt lat="44.94205" lon="5.78822">
        <ele>889.448092</ele>
        <time>2026-08-29T10:51:42.000Z</time>
      </trkpt>
      <trkpt lat="44.94205" lon="5.78814">
        <ele>889.461895</ele>
        <time>2026-08-29T10:51:43.000Z</time>
      </trkpt>
      <trkpt lat="44.94204" lon="5.78805">
        <ele>889.475187</ele>
        <time>2026-08-29T10:51:44.000Z</time>
      </trkpt>
      <trkpt lat="44.94204" lon="5.78797">
        <ele>889.488438</ele>
        <time>2026-08-29T10:51:45.000Z</time>
      </trkpt>
      <trkpt lat="44.94204" lon="5.78789">
        <ele>889.501362</ele>
        <time>2026-08-29T10:51:46.000Z</time>
      </trkpt>
      <trkpt lat="44.94203" lon="5.78782">
        <ele>889.513806</ele>
        <time>2026-08-29T10:51:47.000Z</time>
      </trkpt>
      <trkpt lat="44.94203" lon="5.78774">
        <ele>889.531717</ele>
        <time>2026-08-29T10:51:48.000Z</time>
      </trkpt>
      <trkpt lat="44.94203" lon="5.78766">
        <ele>889.603524</ele>
        <time>2026-08-29T10:51:49.000Z</time>
      </trkpt>
      <trkpt lat="44.94204" lon="5.78759">
        <ele>889.674703</ele>
        <time>2026-08-29T10:51:50.000Z</time>
      </trkpt>
      <trkpt lat="44.94205" lon="5.78751">
        <ele>889.744512</ele>
        <time>2026-08-29T10:51:51.000Z</time>
      </trkpt>
      <trkpt lat="44.94206" lon="5.78744">
        <ele>889.814532</ele>
        <time>2026-08-29T10:51:52.000Z</time>
      </trkpt>
      <trkpt lat="44.94206" lon="5.78737">
        <ele>889.882307</ele>
        <time>2026-08-29T10:51:53.000Z</time>
      </trkpt>
      <trkpt lat="44.94207" lon="5.78729">
        <ele>889.95396</ele>
        <time>2026-08-29T10:51:54.000Z</time>
      </trkpt>
      <trkpt lat="44.94208" lon="5.78721">
        <ele>890.026739</ele>
        <time>2026-08-29T10:51:55.000Z</time>
      </trkpt>
      <trkpt lat="44.94209" lon="5.78714">
        <ele>890.099135</ele>
        <time>2026-08-29T10:51:56.000Z</time>
      </trkpt>
      <trkpt lat="44.94209" lon="5.78706">
        <ele>890.171531</ele>
        <time>2026-08-29T10:51:57.000Z</time>
      </trkpt>
      <trkpt lat="44.9421" lon="5.78698">
        <ele>890.244786</ele>
        <time>2026-08-29T10:51:58.000Z</time>
      </trkpt>
      <trkpt lat="44.94212" lon="5.78691">
        <ele>890.319514</ele>
        <time>2026-08-29T10:51:59.000Z</time>
      </trkpt>
      <trkpt lat="44.94213" lon="5.78683">
        <ele>890.39118</ele>
        <time>2026-08-29T10:52:00.000Z</time>
      </trkpt>
      <trkpt lat="44.94215" lon="5.78676">
        <ele>890.46462</ele>
        <time>2026-08-29T10:52:01.000Z</time>
      </trkpt>
      <trkpt lat="44.94217" lon="5.78668">
        <ele>890.539835</ele>
        <time>2026-08-29T10:52:02.000Z</time>
      </trkpt>
      <trkpt lat="44.94219" lon="5.78661">
        <ele>890.613318</ele>
        <time>2026-08-29T10:52:03.000Z</time>
      </trkpt>
      <trkpt lat="44.94222" lon="5.78654">
        <ele>890.686451</ele>
        <time>2026-08-29T10:52:04.000Z</time>
      </trkpt>
      <trkpt lat="44.94223" lon="5.78646">
        <ele>890.759891</ele>
        <time>2026-08-29T10:52:05.000Z</time>
      </trkpt>
      <trkpt lat="44.94225" lon="5.78639">
        <ele>890.832047</ele>
        <time>2026-08-29T10:52:06.000Z</time>
      </trkpt>
      <trkpt lat="44.94226" lon="5.78631">
        <ele>890.90315</ele>
        <time>2026-08-29T10:52:07.000Z</time>
      </trkpt>
      <trkpt lat="44.94228" lon="5.78624">
        <ele>890.976727</ele>
        <time>2026-08-29T10:52:08.000Z</time>
      </trkpt>
      <trkpt lat="44.94229" lon="5.78617">
        <ele>891.045324</ele>
        <time>2026-08-29T10:52:09.000Z</time>
      </trkpt>
      <trkpt lat="44.94231" lon="5.7861">
        <ele>891.112577</ele>
        <time>2026-08-29T10:52:10.000Z</time>
      </trkpt>
      <trkpt lat="44.94233" lon="5.78603">
        <ele>891.178951</ele>
        <time>2026-08-29T10:52:11.000Z</time>
      </trkpt>
      <trkpt lat="44.94234" lon="5.78596">
        <ele>891.248847</ele>
        <time>2026-08-29T10:52:12.000Z</time>
      </trkpt>
      <trkpt lat="44.94236" lon="5.7859">
        <ele>891.315799</ele>
        <time>2026-08-29T10:52:13.000Z</time>
      </trkpt>
      <trkpt lat="44.94238" lon="5.78583">
        <ele>891.383931</ele>
        <time>2026-08-29T10:52:14.000Z</time>
      </trkpt>
      <trkpt lat="44.9424" lon="5.78576">
        <ele>891.453416</ele>
        <time>2026-08-29T10:52:15.000Z</time>
      </trkpt>
      <trkpt lat="44.94242" lon="5.78569">
        <ele>891.524316</ele>
        <time>2026-08-29T10:52:16.000Z</time>
      </trkpt>
      <trkpt lat="44.94244" lon="5.78562">
        <ele>891.594947</ele>
        <time>2026-08-29T10:52:17.000Z</time>
      </trkpt>
      <trkpt lat="44.94246" lon="5.78554">
        <ele>891.669686</ele>
        <time>2026-08-29T10:52:18.000Z</time>
      </trkpt>
      <trkpt lat="44.94248" lon="5.78547">
        <ele>891.739139</ele>
        <time>2026-08-29T10:52:19.000Z</time>
      </trkpt>
      <trkpt lat="44.9425" lon="5.7854">
        <ele>891.811759</ele>
        <time>2026-08-29T10:52:20.000Z</time>
      </trkpt>
      <trkpt lat="44.94252" lon="5.78533">
        <ele>891.883518</ele>
        <time>2026-08-29T10:52:21.000Z</time>
      </trkpt>
      <trkpt lat="44.94254" lon="5.78526">
        <ele>891.91639</ele>
        <time>2026-08-29T10:52:22.000Z</time>
      </trkpt>
      <trkpt lat="44.94255" lon="5.78518">
        <ele>891.941093</ele>
        <time>2026-08-29T10:52:23.000Z</time>
      </trkpt>
      <trkpt lat="44.94257" lon="5.78511">
        <ele>891.965796</ele>
        <time>2026-08-29T10:52:24.000Z</time>
      </trkpt>
      <trkpt lat="44.94259" lon="5.78504">
        <ele>891.992146</ele>
        <time>2026-08-29T10:52:25.000Z</time>
      </trkpt>
      <trkpt lat="44.94261" lon="5.78496">
        <ele>892.018499</ele>
        <time>2026-08-29T10:52:26.000Z</time>
      </trkpt>
      <trkpt lat="44.94262" lon="5.78488">
        <ele>892.046267</ele>
        <time>2026-08-29T10:52:27.000Z</time>
      </trkpt>
      <trkpt lat="44.94264" lon="5.7848">
        <ele>892.073364</ele>
        <time>2026-08-29T10:52:28.000Z</time>
      </trkpt>
      <trkpt lat="44.94265" lon="5.78472">
        <ele>892.099405</ele>
        <time>2026-08-29T10:52:29.000Z</time>
      </trkpt>
      <trkpt lat="44.94266" lon="5.78464">
        <ele>892.124711</ele>
        <time>2026-08-29T10:52:30.000Z</time>
      </trkpt>
      <trkpt lat="44.94268" lon="5.78457">
        <ele>892.149918</ele>
        <time>2026-08-29T10:52:31.000Z</time>
      </trkpt>
      <trkpt lat="44.94269" lon="5.78449">
        <ele>892.17481</ele>
        <time>2026-08-29T10:52:32.000Z</time>
      </trkpt>
      <trkpt lat="44.94271" lon="5.78442">
        <ele>892.199513</ele>
        <time>2026-08-29T10:52:33.000Z</time>
      </trkpt>
      <trkpt lat="44.94272" lon="5.78435">
        <ele>892.223728</ele>
        <time>2026-08-29T10:52:34.000Z</time>
      </trkpt>
      <trkpt lat="44.94273" lon="5.78428">
        <ele>892.247766</ele>
        <time>2026-08-29T10:52:35.000Z</time>
      </trkpt>
      <trkpt lat="44.94275" lon="5.78421">
        <ele>892.270857</ele>
        <time>2026-08-29T10:52:36.000Z</time>
      </trkpt>
      <trkpt lat="44.94276" lon="5.78414">
        <ele>892.293434</ele>
        <time>2026-08-29T10:52:37.000Z</time>
      </trkpt>
      <trkpt lat="44.94277" lon="5.78407">
        <ele>892.316641</ele>
        <time>2026-08-29T10:52:38.000Z</time>
      </trkpt>
      <trkpt lat="44.94278" lon="5.784">
        <ele>892.339211</ele>
        <time>2026-08-29T10:52:39.000Z</time>
      </trkpt>
      <trkpt lat="44.94279" lon="5.78393">
        <ele>892.361864</ele>
        <time>2026-08-29T10:52:40.000Z</time>
      </trkpt>
      <trkpt lat="44.94279" lon="5.78385">
        <ele>892.387866</ele>
        <time>2026-08-29T10:52:41.000Z</time>
      </trkpt>
      <trkpt lat="44.94278" lon="5.78377">
        <ele>892.415505</ele>
        <time>2026-08-29T10:52:42.000Z</time>
      </trkpt>
      <trkpt lat="44.94278" lon="5.78368">
        <ele>892.444107</ele>
        <time>2026-08-29T10:52:43.000Z</time>
      </trkpt>
      <trkpt lat="44.94278" lon="5.78359">
        <ele>892.472709</ele>
        <time>2026-08-29T10:52:44.000Z</time>
      </trkpt>
      <trkpt lat="44.94279" lon="5.7835">
        <ele>892.501439</ele>
        <time>2026-08-29T10:52:45.000Z</time>
      </trkpt>
      <trkpt lat="44.9428" lon="5.78341">
        <ele>892.530917</ele>
        <time>2026-08-29T10:52:46.000Z</time>
      </trkpt>
      <trkpt lat="44.9428" lon="5.78333">
        <ele>892.559971</ele>
        <time>2026-08-29T10:52:47.000Z</time>
      </trkpt>
      <trkpt lat="44.94281" lon="5.78324">
        <ele>892.588804</ele>
        <time>2026-08-29T10:52:48.000Z</time>
      </trkpt>
      <trkpt lat="44.94282" lon="5.78315">
        <ele>892.617056</ele>
        <time>2026-08-29T10:52:49.000Z</time>
      </trkpt>
      <trkpt lat="44.94283" lon="5.78307">
        <ele>892.645316</ele>
        <time>2026-08-29T10:52:50.000Z</time>
      </trkpt>
      <trkpt lat="44.94285" lon="5.78299">
        <ele>892.671674</ele>
        <time>2026-08-29T10:52:51.000Z</time>
      </trkpt>
      <trkpt lat="44.94286" lon="5.7829">
        <ele>892.6993</ele>
        <time>2026-08-29T10:52:52.000Z</time>
      </trkpt>
      <trkpt lat="44.94287" lon="5.78283">
        <ele>892.721514</ele>
        <time>2026-08-29T10:52:53.000Z</time>
      </trkpt>
      <trkpt lat="44.94289" lon="5.78275">
        <ele>892.725593</ele>
        <time>2026-08-29T10:52:54.000Z</time>
      </trkpt>
      <trkpt lat="44.9429" lon="5.78267">
        <ele>892.729625</ele>
        <time>2026-08-29T10:52:55.000Z</time>
      </trkpt>
      <trkpt lat="44.94291" lon="5.78259">
        <ele>892.733511</ele>
        <time>2026-08-29T10:52:56.000Z</time>
      </trkpt>
      <trkpt lat="44.94292" lon="5.78252">
        <ele>892.737366</ele>
        <time>2026-08-29T10:52:57.000Z</time>
      </trkpt>
      <trkpt lat="44.94294" lon="5.78244">
        <ele>892.741303</ele>
        <time>2026-08-29T10:52:58.000Z</time>
      </trkpt>
      <trkpt lat="44.94295" lon="5.78236">
        <ele>892.745334</ele>
        <time>2026-08-29T10:52:59.000Z</time>
      </trkpt>
      <trkpt lat="44.94296" lon="5.78228">
        <ele>892.749188</ele>
        <time>2026-08-29T10:53:00.000Z</time>
      </trkpt>
      <trkpt lat="44.94298" lon="5.7822">
        <ele>892.753155</ele>
        <time>2026-08-29T10:53:01.000Z</time>
      </trkpt>
      <trkpt lat="44.94299" lon="5.78212">
        <ele>892.757257</ele>
        <time>2026-08-29T10:53:02.000Z</time>
      </trkpt>
      <trkpt lat="44.943" lon="5.78204">
        <ele>892.761468</ele>
        <time>2026-08-29T10:53:03.000Z</time>
      </trkpt>
      <trkpt lat="44.94301" lon="5.78195">
        <ele>892.765915</ele>
        <time>2026-08-29T10:53:04.000Z</time>
      </trkpt>
      <trkpt lat="44.94302" lon="5.78187">
        <ele>892.770174</ele>
        <time>2026-08-29T10:53:05.000Z</time>
      </trkpt>
      <trkpt lat="44.94303" lon="5.78178">
        <ele>892.774495</ele>
        <time>2026-08-29T10:53:06.000Z</time>
      </trkpt>
      <trkpt lat="44.94305" lon="5.78169">
        <ele>892.778816</ele>
        <time>2026-08-29T10:53:07.000Z</time>
      </trkpt>
      <trkpt lat="44.94306" lon="5.78161">
        <ele>892.783007</ele>
        <time>2026-08-29T10:53:08.000Z</time>
      </trkpt>
      <trkpt lat="44.94307" lon="5.78153">
        <ele>892.787198</ele>
        <time>2026-08-29T10:53:09.000Z</time>
      </trkpt>
      <trkpt lat="44.94309" lon="5.78145">
        <ele>892.791356</ele>
        <time>2026-08-29T10:53:10.000Z</time>
      </trkpt>
      <trkpt lat="44.9431" lon="5.78136">
        <ele>892.795498</ele>
        <time>2026-08-29T10:53:11.000Z</time>
      </trkpt>
      <trkpt lat="44.94311" lon="5.78128">
        <ele>892.799609</ele>
        <time>2026-08-29T10:53:12.000Z</time>
      </trkpt>
      <trkpt lat="44.94313" lon="5.7812">
        <ele>892.803785</ele>
        <time>2026-08-29T10:53:13.000Z</time>
      </trkpt>
      <trkpt lat="44.94314" lon="5.78112">
        <ele>892.807943</ele>
        <time>2026-08-29T10:53:14.000Z</time>
      </trkpt>
      <trkpt lat="44.94316" lon="5.78104">
        <ele>892.811946</ele>
        <time>2026-08-29T10:53:15.000Z</time>
      </trkpt>
      <trkpt lat="44.94317" lon="5.78096">
        <ele>892.816009</ele>
        <time>2026-08-29T10:53:16.000Z</time>
      </trkpt>
      <trkpt lat="44.94318" lon="5.78088">
        <ele>892.820119</ele>
        <time>2026-08-29T10:53:17.000Z</time>
      </trkpt>
      <trkpt lat="44.9432" lon="5.7808">
        <ele>892.82417</ele>
        <time>2026-08-29T10:53:18.000Z</time>
      </trkpt>
      <trkpt lat="44.94322" lon="5.78072">
        <ele>892.828214</ele>
        <time>2026-08-29T10:53:19.000Z</time>
      </trkpt>
      <trkpt lat="44.94324" lon="5.78064">
        <ele>892.832304</ele>
        <time>2026-08-29T10:53:20.000Z</time>
      </trkpt>
      <trkpt lat="44.94326" lon="5.78057">
        <ele>892.836378</ele>
        <time>2026-08-29T10:53:21.000Z</time>
      </trkpt>
      <trkpt lat="44.94328" lon="5.78049">
        <ele>892.840446</ele>
        <time>2026-08-29T10:53:22.000Z</time>
      </trkpt>
      <trkpt lat="44.9433" lon="5.78042">
        <ele>892.844213</ele>
        <time>2026-08-29T10:53:23.000Z</time>
      </trkpt>
      <trkpt lat="44.94332" lon="5.78035">
        <ele>892.86691</ele>
        <time>2026-08-29T10:53:24.000Z</time>
      </trkpt>
      <trkpt lat="44.94334" lon="5.78028">
        <ele>892.91319</ele>
        <time>2026-08-29T10:53:25.000Z</time>
      </trkpt>
      <trkpt lat="44.94336" lon="5.78022">
        <ele>892.955481</ele>
        <time>2026-08-29T10:53:26.000Z</time>
      </trkpt>
      <trkpt lat="44.94338" lon="5.78017">
        <ele>892.991244</ele>
        <time>2026-08-29T10:53:27.000Z</time>
      </trkpt>
      <trkpt lat="44.9434" lon="5.78012">
        <ele>893.023327</ele>
        <time>2026-08-29T10:53:28.000Z</time>
      </trkpt>
      <trkpt lat="44.94342" lon="5.78009">
        <ele>893.05297</ele>
        <time>2026-08-29T10:53:29.000Z</time>
      </trkpt>
      <trkpt lat="44.94345" lon="5.78007">
        <ele>893.083565</ele>
        <time>2026-08-29T10:53:30.000Z</time>
      </trkpt>
      <trkpt lat="44.94349" lon="5.78006">
        <ele>893.115864</ele>
        <time>2026-08-29T10:53:31.000Z</time>
      </trkpt>
      <trkpt lat="44.94353" lon="5.78005">
        <ele>893.151291</ele>
        <time>2026-08-29T10:53:32.000Z</time>
      </trkpt>
      <trkpt lat="44.94357" lon="5.78005">
        <ele>893.19</ele>
        <time>2026-08-29T10:53:33.000Z</time>
      </trkpt>
      <trkpt lat="44.94361" lon="5.78004">
        <ele>893.227957</ele>
        <time>2026-08-29T10:53:34.000Z</time>
      </trkpt>
      <trkpt lat="44.94366" lon="5.78003">
        <ele>893.26868</ele>
        <time>2026-08-29T10:53:35.000Z</time>
      </trkpt>
      <trkpt lat="44.94371" lon="5.78002">
        <ele>893.308627</ele>
        <time>2026-08-29T10:53:36.000Z</time>
      </trkpt>
      <trkpt lat="44.94375" lon="5.78001">
        <ele>893.348482</ele>
        <time>2026-08-29T10:53:37.000Z</time>
      </trkpt>
      <trkpt lat="44.9438" lon="5.78">
        <ele>893.388428</ele>
        <time>2026-08-29T10:53:38.000Z</time>
      </trkpt>
      <trkpt lat="44.94384" lon="5.77999">
        <ele>893.429151</ele>
        <time>2026-08-29T10:53:39.000Z</time>
      </trkpt>
      <trkpt lat="44.94389" lon="5.77999">
        <ele>893.470535</ele>
        <time>2026-08-29T10:53:40.000Z</time>
      </trkpt>
      <trkpt lat="44.94394" lon="5.77998">
        <ele>893.51285</ele>
        <time>2026-08-29T10:53:41.000Z</time>
      </trkpt>
      <trkpt lat="44.94398" lon="5.77997">
        <ele>893.555166</ele>
        <time>2026-08-29T10:53:42.000Z</time>
      </trkpt>
      <trkpt lat="44.94403" lon="5.77997">
        <ele>893.598354</ele>
        <time>2026-08-29T10:53:43.000Z</time>
      </trkpt>
      <trkpt lat="44.94408" lon="5.77996">
        <ele>893.642358</ele>
        <time>2026-08-29T10:53:44.000Z</time>
      </trkpt>
      <trkpt lat="44.94413" lon="5.77995">
        <ele>893.686485</ele>
        <time>2026-08-29T10:53:45.000Z</time>
      </trkpt>
      <trkpt lat="44.94418" lon="5.77994">
        <ele>893.730685</ele>
        <time>2026-08-29T10:53:46.000Z</time>
      </trkpt>
      <trkpt lat="44.94423" lon="5.77993">
        <ele>893.77394</ele>
        <time>2026-08-29T10:53:47.000Z</time>
      </trkpt>
      <trkpt lat="44.94428" lon="5.77992">
        <ele>893.819091</ele>
        <time>2026-08-29T10:53:48.000Z</time>
      </trkpt>
      <trkpt lat="44.94433" lon="5.77992">
        <ele>893.864089</ele>
        <time>2026-08-29T10:53:49.000Z</time>
      </trkpt>
      <trkpt lat="44.94439" lon="5.77991">
        <ele>893.90892</ele>
        <time>2026-08-29T10:53:50.000Z</time>
      </trkpt>
      <trkpt lat="44.94444" lon="5.7799">
        <ele>893.953046</ele>
        <time>2026-08-29T10:53:51.000Z</time>
      </trkpt>
      <trkpt lat="44.94449" lon="5.7799">
        <ele>893.997172</ele>
        <time>2026-08-29T10:53:52.000Z</time>
      </trkpt>
      <trkpt lat="44.94454" lon="5.77989">
        <ele>894.041233</ele>
        <time>2026-08-29T10:53:53.000Z</time>
      </trkpt>
      <trkpt lat="44.94459" lon="5.77988">
        <ele>894.086231</ele>
        <time>2026-08-29T10:53:54.000Z</time>
      </trkpt>
      <trkpt lat="44.94464" lon="5.77987">
        <ele>894.130514</ele>
        <time>2026-08-29T10:53:55.000Z</time>
      </trkpt>
      <trkpt lat="44.94469" lon="5.77986">
        <ele>894.174888</ele>
        <time>2026-08-29T10:53:56.000Z</time>
      </trkpt>
      <trkpt lat="44.94474" lon="5.77985">
        <ele>894.218143</ele>
        <time>2026-08-29T10:53:57.000Z</time>
      </trkpt>
      <trkpt lat="44.94478" lon="5.77985">
        <ele>894.2604</ele>
        <time>2026-08-29T10:53:58.000Z</time>
      </trkpt>
      <trkpt lat="44.94483" lon="5.77984">
        <ele>894.303588</ele>
        <time>2026-08-29T10:53:59.000Z</time>
      </trkpt>
      <trkpt lat="44.94488" lon="5.77983">
        <ele>894.347788</ele>
        <time>2026-08-29T10:54:00.000Z</time>
      </trkpt>
      <trkpt lat="44.94493" lon="5.77982">
        <ele>894.390172</ele>
        <time>2026-08-29T10:54:01.000Z</time>
      </trkpt>
      <trkpt lat="44.94498" lon="5.77981">
        <ele>894.439563</ele>
        <time>2026-08-29T10:54:02.000Z</time>
      </trkpt>
      <trkpt lat="44.94503" lon="5.77981">
        <ele>894.516798</ele>
        <time>2026-08-29T10:54:03.000Z</time>
      </trkpt>
      <trkpt lat="44.94507" lon="5.7798">
        <ele>894.591037</ele>
        <time>2026-08-29T10:54:04.000Z</time>
      </trkpt>
      <trkpt lat="44.94512" lon="5.77979">
        <ele>894.665277</ele>
        <time>2026-08-29T10:54:05.000Z</time>
      </trkpt>
      <trkpt lat="44.94517" lon="5.77978">
        <ele>894.741212</ele>
        <time>2026-08-29T10:54:06.000Z</time>
      </trkpt>
      <trkpt lat="44.94522" lon="5.77978">
        <ele>894.818343</ele>
        <time>2026-08-29T10:54:07.000Z</time>
      </trkpt>
      <trkpt lat="44.94527" lon="5.77977">
        <ele>894.895578</ele>
        <time>2026-08-29T10:54:08.000Z</time>
      </trkpt>
      <trkpt lat="44.94532" lon="5.77976">
        <ele>894.972933</ele>
        <time>2026-08-29T10:54:09.000Z</time>
      </trkpt>
      <trkpt lat="44.94536" lon="5.77975">
        <ele>895.048607</ele>
        <time>2026-08-29T10:54:10.000Z</time>
      </trkpt>
      <trkpt lat="44.94541" lon="5.77975">
        <ele>895.122988</ele>
        <time>2026-08-29T10:54:11.000Z</time>
      </trkpt>
      <trkpt lat="44.94546" lon="5.77974">
        <ele>895.200223</ele>
        <time>2026-08-29T10:54:12.000Z</time>
      </trkpt>
      <trkpt lat="44.94551" lon="5.77973">
        <ele>895.276158</ele>
        <time>2026-08-29T10:54:13.000Z</time>
      </trkpt>
      <trkpt lat="44.94556" lon="5.77972">
        <ele>895.351955</ele>
        <time>2026-08-29T10:54:14.000Z</time>
      </trkpt>
      <trkpt lat="44.94561" lon="5.77971">
        <ele>895.42919</ele>
        <time>2026-08-29T10:54:15.000Z</time>
      </trkpt>
      <trkpt lat="44.94565" lon="5.77971">
        <ele>895.504987</ele>
        <time>2026-08-29T10:54:16.000Z</time>
      </trkpt>
      <trkpt lat="44.9457" lon="5.7797">
        <ele>895.581245</ele>
        <time>2026-08-29T10:54:17.000Z</time>
      </trkpt>
      <trkpt lat="44.94575" lon="5.77968">
        <ele>895.659052</ele>
        <time>2026-08-29T10:54:18.000Z</time>
      </trkpt>
      <trkpt lat="44.9458" lon="5.77968">
        <ele>895.733433</ele>
        <time>2026-08-29T10:54:19.000Z</time>
      </trkpt>
      <trkpt lat="44.94585" lon="5.77967">
        <ele>895.809002</ele>
        <time>2026-08-29T10:54:20.000Z</time>
      </trkpt>
      <trkpt lat="44.94589" lon="5.77966">
        <ele>895.884677</ele>
        <time>2026-08-29T10:54:21.000Z</time>
      </trkpt>
      <trkpt lat="44.94594" lon="5.77966">
        <ele>895.960246</ele>
        <time>2026-08-29T10:54:22.000Z</time>
      </trkpt>
      <trkpt lat="44.94599" lon="5.77965">
        <ele>896.035651</ele>
        <time>2026-08-29T10:54:23.000Z</time>
      </trkpt>
      <trkpt lat="44.94604" lon="5.77965">
        <ele>896.111057</ele>
        <time>2026-08-29T10:54:24.000Z</time>
      </trkpt>
      <trkpt lat="44.94609" lon="5.77964">
        <ele>896.186536</ele>
        <time>2026-08-29T10:54:25.000Z</time>
      </trkpt>
      <trkpt lat="44.94613" lon="5.77964">
        <ele>896.26358</ele>
        <time>2026-08-29T10:54:26.000Z</time>
      </trkpt>
      <trkpt lat="44.94618" lon="5.77963">
        <ele>896.339148</ele>
        <time>2026-08-29T10:54:27.000Z</time>
      </trkpt>
      <trkpt lat="44.94623" lon="5.77963">
        <ele>896.416192</ele>
        <time>2026-08-29T10:54:28.000Z</time>
      </trkpt>
      <trkpt lat="44.94628" lon="5.77962">
        <ele>896.490199</ele>
        <time>2026-08-29T10:54:29.000Z</time>
      </trkpt>
      <trkpt lat="44.94633" lon="5.77962">
        <ele>896.565604</ele>
        <time>2026-08-29T10:54:30.000Z</time>
      </trkpt>
      <trkpt lat="44.94637" lon="5.77961">
        <ele>896.639386</ele>
        <time>2026-08-29T10:54:31.000Z</time>
      </trkpt>
      <trkpt lat="44.94642" lon="5.77961">
        <ele>896.714735</ele>
        <time>2026-08-29T10:54:32.000Z</time>
      </trkpt>
      <trkpt lat="44.94647" lon="5.77961">
        <ele>896.788475</ele>
        <time>2026-08-29T10:54:33.000Z</time>
      </trkpt>
      <trkpt lat="44.94652" lon="5.77961">
        <ele>896.862215</ele>
        <time>2026-08-29T10:54:34.000Z</time>
      </trkpt>
      <trkpt lat="44.94656" lon="5.77961">
        <ele>896.93749</ele>
        <time>2026-08-29T10:54:35.000Z</time>
      </trkpt>
      <trkpt lat="44.94661" lon="5.77961">
        <ele>897.014341</ele>
        <time>2026-08-29T10:54:36.000Z</time>
      </trkpt>
      <trkpt lat="44.94666" lon="5.77961">
        <ele>897.091256</ele>
        <time>2026-08-29T10:54:37.000Z</time>
      </trkpt>
      <trkpt lat="44.94671" lon="5.77961">
        <ele>897.166564</ele>
        <time>2026-08-29T10:54:38.000Z</time>
      </trkpt>
      <trkpt lat="44.94676" lon="5.77962">
        <ele>897.243479</ele>
        <time>2026-08-29T10:54:39.000Z</time>
      </trkpt>
      <trkpt lat="44.94681" lon="5.77962">
        <ele>897.309258</ele>
        <time>2026-08-29T10:54:40.000Z</time>
      </trkpt>
      <trkpt lat="44.94685" lon="5.77962">
        <ele>897.373614</ele>
        <time>2026-08-29T10:54:41.000Z</time>
      </trkpt>
      <trkpt lat="44.9469" lon="5.77962">
        <ele>897.437971</ele>
        <time>2026-08-29T10:54:42.000Z</time>
      </trkpt>
      <trkpt lat="44.94695" lon="5.77963">
        <ele>897.502378</ele>
        <time>2026-08-29T10:54:43.000Z</time>
      </trkpt>
      <trkpt lat="44.94699" lon="5.77963">
        <ele>897.566785</ele>
        <time>2026-08-29T10:54:44.000Z</time>
      </trkpt>
      <trkpt lat="44.94704" lon="5.77964">
        <ele>897.633924</ele>
        <time>2026-08-29T10:54:45.000Z</time>
      </trkpt>
      <trkpt lat="44.94709" lon="5.77964">
        <ele>897.701125</ele>
        <time>2026-08-29T10:54:46.000Z</time>
      </trkpt>
      <trkpt lat="44.94714" lon="5.77965">
        <ele>897.768403</ele>
        <time>2026-08-29T10:54:47.000Z</time>
      </trkpt>
      <trkpt lat="44.94719" lon="5.77965">
        <ele>897.835604</ele>
        <time>2026-08-29T10:54:48.000Z</time>
      </trkpt>
      <trkpt lat="44.94724" lon="5.77966">
        <ele>897.900359</ele>
        <time>2026-08-29T10:54:49.000Z</time>
      </trkpt>
      <trkpt lat="44.94728" lon="5.77967">
        <ele>897.965006</ele>
        <time>2026-08-29T10:54:50.000Z</time>
      </trkpt>
      <trkpt lat="44.94733" lon="5.77967">
        <ele>898.028293</ele>
        <time>2026-08-29T10:54:51.000Z</time>
      </trkpt>
      <trkpt lat="44.94738" lon="5.77968">
        <ele>898.09158</ele>
        <time>2026-08-29T10:54:52.000Z</time>
      </trkpt>
      <trkpt lat="44.94742" lon="5.77969">
        <ele>898.156227</ele>
        <time>2026-08-29T10:54:53.000Z</time>
      </trkpt>
      <trkpt lat="44.94747" lon="5.7797">
        <ele>898.220874</ele>
        <time>2026-08-29T10:54:54.000Z</time>
      </trkpt>
      <trkpt lat="44.94752" lon="5.7797">
        <ele>898.284397</ele>
        <time>2026-08-29T10:54:55.000Z</time>
      </trkpt>
      <trkpt lat="44.94756" lon="5.77971">
        <ele>898.349153</ele>
        <time>2026-08-29T10:54:56.000Z</time>
      </trkpt>
      <trkpt lat="44.94761" lon="5.77972">
        <ele>898.415387</ele>
        <time>2026-08-29T10:54:57.000Z</time>
      </trkpt>
      <trkpt lat="44.94766" lon="5.77973">
        <ele>898.481302</ele>
        <time>2026-08-29T10:54:58.000Z</time>
      </trkpt>
      <trkpt lat="44.94771" lon="5.77973">
        <ele>898.545949</ele>
        <time>2026-08-29T10:54:59.000Z</time>
      </trkpt>
      <trkpt lat="44.94775" lon="5.77974">
        <ele>898.610827</ele>
        <time>2026-08-29T10:55:00.000Z</time>
      </trkpt>
      <trkpt lat="44.9478" lon="5.77975">
        <ele>898.675706</ele>
        <time>2026-08-29T10:55:01.000Z</time>
      </trkpt>
      <trkpt lat="44.94785" lon="5.77976">
        <ele>898.739369</ele>
        <time>2026-08-29T10:55:02.000Z</time>
      </trkpt>
      <trkpt lat="44.94789" lon="5.77977">
        <ele>898.804385</ele>
        <time>2026-08-29T10:55:03.000Z</time>
      </trkpt>
      <trkpt lat="44.94794" lon="5.77978">
        <ele>898.871063</ele>
        <time>2026-08-29T10:55:04.000Z</time>
      </trkpt>
      <trkpt lat="44.94799" lon="5.7798">
        <ele>898.934881</ele>
        <time>2026-08-29T10:55:05.000Z</time>
      </trkpt>
      <trkpt lat="44.94803" lon="5.77981">
        <ele>899.000048</ele>
        <time>2026-08-29T10:55:06.000Z</time>
      </trkpt>
      <trkpt lat="44.94808" lon="5.77982">
        <ele>899.063866</ele>
        <time>2026-08-29T10:55:07.000Z</time>
      </trkpt>
      <trkpt lat="44.94813" lon="5.77983">
        <ele>899.127683</ele>
        <time>2026-08-29T10:55:08.000Z</time>
      </trkpt>
      <trkpt lat="44.94817" lon="5.77984">
        <ele>899.191853</ele>
        <time>2026-08-29T10:55:09.000Z</time>
      </trkpt>
      <trkpt lat="44.94822" lon="5.77986">
        <ele>899.256219</ele>
        <time>2026-08-29T10:55:10.000Z</time>
      </trkpt>
      <trkpt lat="44.94826" lon="5.77987">
        <ele>899.320795</ele>
        <time>2026-08-29T10:55:11.000Z</time>
      </trkpt>
      <trkpt lat="44.94831" lon="5.77989">
        <ele>899.384269</ele>
        <time>2026-08-29T10:55:12.000Z</time>
      </trkpt>
      <trkpt lat="44.94835" lon="5.7799">
        <ele>899.446184</ele>
        <time>2026-08-29T10:55:13.000Z</time>
      </trkpt>
      <trkpt lat="44.9484" lon="5.77992">
        <ele>899.505946</ele>
        <time>2026-08-29T10:55:14.000Z</time>
      </trkpt>
      <trkpt lat="44.94844" lon="5.77994">
        <ele>899.564394</ele>
        <time>2026-08-29T10:55:15.000Z</time>
      </trkpt>
      <trkpt lat="44.94847" lon="5.77995">
        <ele>899.619533</ele>
        <time>2026-08-29T10:55:16.000Z</time>
      </trkpt>
      <trkpt lat="44.94851" lon="5.77998">
        <ele>899.675347</ele>
        <time>2026-08-29T10:55:17.000Z</time>
      </trkpt>
      <trkpt lat="44.94855" lon="5.78">
        <ele>899.72932</ele>
        <time>2026-08-29T10:55:18.000Z</time>
      </trkpt>
      <trkpt lat="44.94858" lon="5.78003">
        <ele>899.780782</ele>
        <time>2026-08-29T10:55:19.000Z</time>
      </trkpt>
      <trkpt lat="44.94862" lon="5.78007">
        <ele>899.832743</ele>
        <time>2026-08-29T10:55:20.000Z</time>
      </trkpt>
      <trkpt lat="44.94865" lon="5.78009">
        <ele>899.885616</ele>
        <time>2026-08-29T10:55:21.000Z</time>
      </trkpt>
      <trkpt lat="44.94869" lon="5.78011">
        <ele>899.936698</ele>
        <time>2026-08-29T10:55:22.000Z</time>
      </trkpt>
      <trkpt lat="44.94873" lon="5.78013">
        <ele>899.986978</ele>
        <time>2026-08-29T10:55:23.000Z</time>
      </trkpt>
      <trkpt lat="44.94877" lon="5.78013">
        <ele>900.036139</ele>
        <time>2026-08-29T10:55:24.000Z</time>
      </trkpt>
      <trkpt lat="44.94881" lon="5.78011">
        <ele>900.085608</ele>
        <time>2026-08-29T10:55:25.000Z</time>
      </trkpt>
      <trkpt lat="44.94884" lon="5.78008">
        <ele>900.130884</ele>
        <time>2026-08-29T10:55:26.000Z</time>
      </trkpt>
      <trkpt lat="44.94886" lon="5.78004">
        <ele>900.179313</ele>
        <time>2026-08-29T10:55:27.000Z</time>
      </trkpt>
      <trkpt lat="44.94886" lon="5.77998">
        <ele>900.230511</ele>
        <time>2026-08-29T10:55:28.000Z</time>
      </trkpt>
      <trkpt lat="44.94887" lon="5.77992">
        <ele>900.283247</ele>
        <time>2026-08-29T10:55:29.000Z</time>
      </trkpt>
      <trkpt lat="44.94887" lon="5.77986">
        <ele>900.337689</ele>
        <time>2026-08-29T10:55:30.000Z</time>
      </trkpt>
      <trkpt lat="44.94886" lon="5.7798">
        <ele>900.393983</ele>
        <time>2026-08-29T10:55:31.000Z</time>
      </trkpt>
      <trkpt lat="44.94886" lon="5.77973">
        <ele>900.451167</ele>
        <time>2026-08-29T10:55:32.000Z</time>
      </trkpt>
      <trkpt lat="44.94886" lon="5.77966">
        <ele>900.512683</ele>
        <time>2026-08-29T10:55:33.000Z</time>
      </trkpt>
      <trkpt lat="44.94886" lon="5.77959">
        <ele>900.575408</ele>
        <time>2026-08-29T10:55:34.000Z</time>
      </trkpt>
      <trkpt lat="44.94888" lon="5.77952">
        <ele>900.639335</ele>
        <time>2026-08-29T10:55:35.000Z</time>
      </trkpt>
      <trkpt lat="44.94889" lon="5.77946">
        <ele>900.702836</ele>
        <time>2026-08-29T10:55:36.000Z</time>
      </trkpt>
      <trkpt lat="44.94891" lon="5.77939">
        <ele>900.76467</ele>
        <time>2026-08-29T10:55:37.000Z</time>
      </trkpt>
      <trkpt lat="44.94894" lon="5.77934">
        <ele>900.825285</ele>
        <time>2026-08-29T10:55:38.000Z</time>
      </trkpt>
      <trkpt lat="44.94898" lon="5.77929">
        <ele>900.884075</ele>
        <time>2026-08-29T10:55:39.000Z</time>
      </trkpt>
      <trkpt lat="44.94901" lon="5.77925">
        <ele>900.944036</ele>
        <time>2026-08-29T10:55:40.000Z</time>
      </trkpt>
      <trkpt lat="44.94905" lon="5.77921">
        <ele>901.002681</ele>
        <time>2026-08-29T10:55:41.000Z</time>
      </trkpt>
      <trkpt lat="44.94909" lon="5.77917">
        <ele>901.060815</ele>
        <time>2026-08-29T10:55:42.000Z</time>
      </trkpt>
      <trkpt lat="44.94913" lon="5.77914">
        <ele>901.115649</ele>
        <time>2026-08-29T10:55:43.000Z</time>
      </trkpt>
      <trkpt lat="44.94917" lon="5.77912">
        <ele>901.170049</ele>
        <time>2026-08-29T10:55:44.000Z</time>
      </trkpt>
      <trkpt lat="44.94921" lon="5.7791">
        <ele>901.226297</ele>
        <time>2026-08-29T10:55:45.000Z</time>
      </trkpt>
      <trkpt lat="44.94925" lon="5.7791">
        <ele>901.280822</ele>
        <time>2026-08-29T10:55:46.000Z</time>
      </trkpt>
      <trkpt lat="44.94929" lon="5.77909">
        <ele>901.335718</ele>
        <time>2026-08-29T10:55:47.000Z</time>
      </trkpt>
      <trkpt lat="44.94934" lon="5.77908">
        <ele>901.390477</ele>
        <time>2026-08-29T10:55:48.000Z</time>
      </trkpt>
      <trkpt lat="44.94937" lon="5.77908">
        <ele>901.437094</ele>
        <time>2026-08-29T10:55:49.000Z</time>
      </trkpt>
      <trkpt lat="44.94941" lon="5.77908">
        <ele>901.478664</ele>
        <time>2026-08-29T10:55:50.000Z</time>
      </trkpt>
      <trkpt lat="44.94944" lon="5.77907">
        <ele>901.519601</ele>
        <time>2026-08-29T10:55:51.000Z</time>
      </trkpt>
      <trkpt lat="44.94947" lon="5.77906">
        <ele>901.560702</ele>
        <time>2026-08-29T10:55:52.000Z</time>
      </trkpt>
      <trkpt lat="44.94951" lon="5.77906">
        <ele>901.608579</ele>
        <time>2026-08-29T10:55:53.000Z</time>
      </trkpt>
      <trkpt lat="44.94955" lon="5.77906">
        <ele>901.661494</ele>
        <time>2026-08-29T10:55:54.000Z</time>
      </trkpt>
      <trkpt lat="44.9496" lon="5.77906">
        <ele>901.718433</ele>
        <time>2026-08-29T10:55:55.000Z</time>
      </trkpt>
      <trkpt lat="44.94964" lon="5.77905">
        <ele>901.775684</ele>
        <time>2026-08-29T10:55:56.000Z</time>
      </trkpt>
      <trkpt lat="44.94969" lon="5.77904">
        <ele>901.83805</ele>
        <time>2026-08-29T10:55:57.000Z</time>
      </trkpt>
      <trkpt lat="44.94974" lon="5.77902">
        <ele>901.89838</ele>
        <time>2026-08-29T10:55:58.000Z</time>
      </trkpt>
      <trkpt lat="44.94978" lon="5.77901">
        <ele>901.958393</ele>
        <time>2026-08-29T10:55:59.000Z</time>
      </trkpt>
      <trkpt lat="44.94983" lon="5.779">
        <ele>902.022379</ele>
        <time>2026-08-29T10:56:00.000Z</time>
      </trkpt>
      <trkpt lat="44.94988" lon="5.77899">
        <ele>902.089234</ele>
        <time>2026-08-29T10:56:01.000Z</time>
      </trkpt>
      <trkpt lat="44.94992" lon="5.77898">
        <ele>902.158621</ele>
        <time>2026-08-29T10:56:02.000Z</time>
      </trkpt>
      <trkpt lat="44.94997" lon="5.77897">
        <ele>902.223749</ele>
        <time>2026-08-29T10:56:03.000Z</time>
      </trkpt>
      <trkpt lat="44.95001" lon="5.77897">
        <ele>902.288521</ele>
        <time>2026-08-29T10:56:04.000Z</time>
      </trkpt>
      <trkpt lat="44.95006" lon="5.77896">
        <ele>902.353292</ele>
        <time>2026-08-29T10:56:05.000Z</time>
      </trkpt>
      <trkpt lat="44.9501" lon="5.77895">
        <ele>902.415443</ele>
        <time>2026-08-29T10:56:06.000Z</time>
      </trkpt>
      <trkpt lat="44.95015" lon="5.77895">
        <ele>902.478788</ele>
        <time>2026-08-29T10:56:07.000Z</time>
      </trkpt>
      <trkpt lat="44.95019" lon="5.77894">
        <ele>902.541236</ele>
        <time>2026-08-29T10:56:08.000Z</time>
      </trkpt>
      <trkpt lat="44.95023" lon="5.77893">
        <ele>902.606111</ele>
        <time>2026-08-29T10:56:09.000Z</time>
      </trkpt>
      <trkpt lat="44.95028" lon="5.77892">
        <ele>902.668138</ele>
        <time>2026-08-29T10:56:10.000Z</time>
      </trkpt>
      <trkpt lat="44.95032" lon="5.77891">
        <ele>902.73171</ele>
        <time>2026-08-29T10:56:11.000Z</time>
      </trkpt>
      <trkpt lat="44.95036" lon="5.77891">
        <ele>902.793537</ele>
        <time>2026-08-29T10:56:12.000Z</time>
      </trkpt>
      <trkpt lat="44.95041" lon="5.7789">
        <ele>902.857109</ele>
        <time>2026-08-29T10:56:13.000Z</time>
      </trkpt>
      <trkpt lat="44.95045" lon="5.77889">
        <ele>902.917839</ele>
        <time>2026-08-29T10:56:14.000Z</time>
      </trkpt>
      <trkpt lat="44.95049" lon="5.77889">
        <ele>902.978162</ele>
        <time>2026-08-29T10:56:15.000Z</time>
      </trkpt>
      <trkpt lat="44.95053" lon="5.77888">
        <ele>903.039989</ele>
        <time>2026-08-29T10:56:16.000Z</time>
      </trkpt>
      <trkpt lat="44.95058" lon="5.77888">
        <ele>903.101908</ele>
        <time>2026-08-29T10:56:17.000Z</time>
      </trkpt>
      <trkpt lat="44.95062" lon="5.77887">
        <ele>903.1642</ele>
        <time>2026-08-29T10:56:18.000Z</time>
      </trkpt>
      <trkpt lat="44.95066" lon="5.77885">
        <ele>903.227919</ele>
        <time>2026-08-29T10:56:19.000Z</time>
      </trkpt>
      <trkpt lat="44.95071" lon="5.77884">
        <ele>903.289533</ele>
        <time>2026-08-29T10:56:20.000Z</time>
      </trkpt>
      <trkpt lat="44.95075" lon="5.77883">
        <ele>903.350937</ele>
        <time>2026-08-29T10:56:21.000Z</time>
      </trkpt>
      <trkpt lat="44.95079" lon="5.77882">
        <ele>903.409753</ele>
        <time>2026-08-29T10:56:22.000Z</time>
      </trkpt>
      <trkpt lat="44.95083" lon="5.7788">
        <ele>903.468351</ele>
        <time>2026-08-29T10:56:23.000Z</time>
      </trkpt>
      <trkpt lat="44.95087" lon="5.77879">
        <ele>903.525469</ele>
        <time>2026-08-29T10:56:24.000Z</time>
      </trkpt>
      <trkpt lat="44.9509" lon="5.77877">
        <ele>903.576925</ele>
        <time>2026-08-29T10:56:25.000Z</time>
      </trkpt>
      <trkpt lat="44.95092" lon="5.77874">
        <ele>903.621428</ele>
        <time>2026-08-29T10:56:26.000Z</time>
      </trkpt>
      <trkpt lat="44.95095" lon="5.77871">
        <ele>903.667195</ele>
        <time>2026-08-29T10:56:27.000Z</time>
      </trkpt>
      <trkpt lat="44.95096" lon="5.77867">
        <ele>903.710439</ele>
        <time>2026-08-29T10:56:28.000Z</time>
      </trkpt>
      <trkpt lat="44.95097" lon="5.77863">
        <ele>903.749924</ele>
        <time>2026-08-29T10:56:29.000Z</time>
      </trkpt>
      <trkpt lat="44.95097" lon="5.77859">
        <ele>903.791529</ele>
        <time>2026-08-29T10:56:30.000Z</time>
      </trkpt>
      <trkpt lat="44.95097" lon="5.77856">
        <ele>903.82908</ele>
        <time>2026-08-29T10:56:31.000Z</time>
      </trkpt>
      <trkpt lat="44.95096" lon="5.77852">
        <ele>903.867282</ele>
        <time>2026-08-29T10:56:32.000Z</time>
      </trkpt>
      <trkpt lat="44.95095" lon="5.77848">
        <ele>903.908397</ele>
        <time>2026-08-29T10:56:33.000Z</time>
      </trkpt>
      <trkpt lat="44.95093" lon="5.77843">
        <ele>903.962832</ele>
        <time>2026-08-29T10:56:34.000Z</time>
      </trkpt>
      <trkpt lat="44.95092" lon="5.77838">
        <ele>904.019781</ele>
        <time>2026-08-29T10:56:35.000Z</time>
      </trkpt>
      <trkpt lat="44.9509" lon="5.77833">
        <ele>904.080647</ele>
        <time>2026-08-29T10:56:36.000Z</time>
      </trkpt>
      <trkpt lat="44.95088" lon="5.77827">
        <ele>904.139996</ele>
        <time>2026-08-29T10:56:37.000Z</time>
      </trkpt>
      <trkpt lat="44.95087" lon="5.77822">
        <ele>904.193587</ele>
        <time>2026-08-29T10:56:38.000Z</time>
      </trkpt>
      <trkpt lat="44.95085" lon="5.77818">
        <ele>904.247117</ele>
        <time>2026-08-29T10:56:39.000Z</time>
      </trkpt>
      <trkpt lat="44.95084" lon="5.77813">
        <ele>904.299768</ele>
        <time>2026-08-29T10:56:40.000Z</time>
      </trkpt>
      <trkpt lat="44.95083" lon="5.77808">
        <ele>904.35481</ele>
        <time>2026-08-29T10:56:41.000Z</time>
      </trkpt>
      <trkpt lat="44.95082" lon="5.77803">
        <ele>904.407787</ele>
        <time>2026-08-29T10:56:42.000Z</time>
      </trkpt>
      <trkpt lat="44.95081" lon="5.77797">
        <ele>904.463222</ele>
        <time>2026-08-29T10:56:43.000Z</time>
      </trkpt>
      <trkpt lat="44.95081" lon="5.77791">
        <ele>904.52568</ele>
        <time>2026-08-29T10:56:44.000Z</time>
      </trkpt>
      <trkpt lat="44.9508" lon="5.77785">
        <ele>904.563759</ele>
        <time>2026-08-29T10:56:45.000Z</time>
      </trkpt>
      <trkpt lat="44.9508" lon="5.77779">
        <ele>904.588366</ele>
        <time>2026-08-29T10:56:46.000Z</time>
      </trkpt>
      <trkpt lat="44.95079" lon="5.77774">
        <ele>904.612035</ele>
        <time>2026-08-29T10:56:47.000Z</time>
      </trkpt>
      <trkpt lat="44.95079" lon="5.77768">
        <ele>904.636531</ele>
        <time>2026-08-29T10:56:48.000Z</time>
      </trkpt>
      <trkpt lat="44.95079" lon="5.77762">
        <ele>904.661798</ele>
        <time>2026-08-29T10:56:49.000Z</time>
      </trkpt>
      <trkpt lat="44.95079" lon="5.77755">
        <ele>904.687066</ele>
        <time>2026-08-29T10:56:50.000Z</time>
      </trkpt>
      <trkpt lat="44.95079" lon="5.77749">
        <ele>904.712326</ele>
        <time>2026-08-29T10:56:51.000Z</time>
      </trkpt>
      <trkpt lat="44.95079" lon="5.77743">
        <ele>904.738422</ele>
        <time>2026-08-29T10:56:52.000Z</time>
      </trkpt>
      <trkpt lat="44.9508" lon="5.77737">
        <ele>904.76379</ele>
        <time>2026-08-29T10:56:53.000Z</time>
      </trkpt>
      <trkpt lat="44.9508" lon="5.77731">
        <ele>904.788644</ele>
        <time>2026-08-29T10:56:54.000Z</time>
      </trkpt>
      <trkpt lat="44.9508" lon="5.77725">
        <ele>904.81154</ele>
        <time>2026-08-29T10:56:55.000Z</time>
      </trkpt>
      <trkpt lat="44.95081" lon="5.77721">
        <ele>904.831554</ele>
        <time>2026-08-29T10:56:56.000Z</time>
      </trkpt>
      <trkpt lat="44.95081" lon="5.77717">
        <ele>904.84687</ele>
        <time>2026-08-29T10:56:57.000Z</time>
      </trkpt>
      <trkpt lat="44.95082" lon="5.77715">
        <ele>904.856045</ele>
        <time>2026-08-29T10:56:58.000Z</time>
      </trkpt>
      <trkpt lat="44.95082" lon="5.77714">
        <ele>904.859559</ele>
        <time>2026-08-29T10:56:59.000Z</time>
      </trkpt>
      <trkpt lat="44.95082" lon="5.77714">
        <ele>904.859559</ele>
        <time>2026-08-29T10:57:00.000Z</time>
      </trkpt>
      <trkpt lat="44.95081" lon="5.77709">
        <ele>904.880152</ele>
        <time>2026-08-29T10:57:55.000Z</time>
      </trkpt>
      <trkpt lat="44.95082" lon="5.77705">
        <ele>904.896809</ele>
        <time>2026-08-29T10:57:56.000Z</time>
      </trkpt>
      <trkpt lat="44.95082" lon="5.77701">
        <ele>904.914274</ele>
        <time>2026-08-29T10:57:57.000Z</time>
      </trkpt>
      <trkpt lat="44.95083" lon="5.77697">
        <ele>904.93283</ele>
        <time>2026-08-29T10:57:58.000Z</time>
      </trkpt>
      <trkpt lat="44.95084" lon="5.77692">
        <ele>904.953654</ele>
        <time>2026-08-29T10:57:59.000Z</time>
      </trkpt>
      <trkpt lat="44.95085" lon="5.77687">
        <ele>904.975168</ele>
        <time>2026-08-29T10:58:00.000Z</time>
      </trkpt>
      <trkpt lat="44.95085" lon="5.77681">
        <ele>904.99842</ele>
        <time>2026-08-29T10:58:01.000Z</time>
      </trkpt>
      <trkpt lat="44.95086" lon="5.77675">
        <ele>905.023703</ele>
        <time>2026-08-29T10:58:02.000Z</time>
      </trkpt>
      <trkpt lat="44.95087" lon="5.77669">
        <ele>905.049133</ele>
        <time>2026-08-29T10:58:03.000Z</time>
      </trkpt>
      <trkpt lat="44.95087" lon="5.77663">
        <ele>905.075541</ele>
        <time>2026-08-29T10:58:04.000Z</time>
      </trkpt>
      <trkpt lat="44.95088" lon="5.77657">
        <ele>905.101949</ele>
        <time>2026-08-29T10:58:05.000Z</time>
      </trkpt>
      <trkpt lat="44.95089" lon="5.7765">
        <ele>905.127753</ele>
        <time>2026-08-29T10:58:06.000Z</time>
      </trkpt>
      <trkpt lat="44.9509" lon="5.77644">
        <ele>905.155074</ele>
        <time>2026-08-29T10:58:07.000Z</time>
      </trkpt>
      <trkpt lat="44.9509" lon="5.77637">
        <ele>905.182711</ele>
        <time>2026-08-29T10:58:08.000Z</time>
      </trkpt>
      <trkpt lat="44.95091" lon="5.77631">
        <ele>905.210677</ele>
        <time>2026-08-29T10:58:09.000Z</time>
      </trkpt>
      <trkpt lat="44.95092" lon="5.77624">
        <ele>905.238814</ele>
        <time>2026-08-29T10:58:10.000Z</time>
      </trkpt>
      <trkpt lat="44.95093" lon="5.77617">
        <ele>905.266952</ele>
        <time>2026-08-29T10:58:11.000Z</time>
      </trkpt>
      <trkpt lat="44.95094" lon="5.7761">
        <ele>905.295599</ele>
        <time>2026-08-29T10:58:12.000Z</time>
      </trkpt>
      <trkpt lat="44.95094" lon="5.77604">
        <ele>905.324554</ele>
        <time>2026-08-29T10:58:13.000Z</time>
      </trkpt>
      <trkpt lat="44.95095" lon="5.77597">
        <ele>905.353201</ele>
        <time>2026-08-29T10:58:14.000Z</time>
      </trkpt>
      <trkpt lat="44.95096" lon="5.7759">
        <ele>905.381442</ele>
        <time>2026-08-29T10:58:15.000Z</time>
      </trkpt>
      <trkpt lat="44.95097" lon="5.77583">
        <ele>905.409488</ele>
        <time>2026-08-29T10:58:16.000Z</time>
      </trkpt>
      <trkpt lat="44.95098" lon="5.77577">
        <ele>905.437217</ele>
        <time>2026-08-29T10:58:17.000Z</time>
      </trkpt>
      <trkpt lat="44.95098" lon="5.7757">
        <ele>905.466171</ele>
        <time>2026-08-29T10:58:18.000Z</time>
      </trkpt>
      <trkpt lat="44.95099" lon="5.77563">
        <ele>905.495943</ele>
        <time>2026-08-29T10:58:19.000Z</time>
      </trkpt>
      <trkpt lat="44.951" lon="5.77556">
        <ele>905.526039</ele>
        <time>2026-08-29T10:58:20.000Z</time>
      </trkpt>
      <trkpt lat="44.95101" lon="5.77548">
        <ele>905.556423</ele>
        <time>2026-08-29T10:58:21.000Z</time>
      </trkpt>
      <trkpt lat="44.95102" lon="5.77541">
        <ele>905.586195</ele>
        <time>2026-08-29T10:58:22.000Z</time>
      </trkpt>
      <trkpt lat="44.95102" lon="5.77534">
        <ele>905.569694</ele>
        <time>2026-08-29T10:58:23.000Z</time>
      </trkpt>
      <trkpt lat="44.95103" lon="5.77527">
        <ele>905.510107</ele>
        <time>2026-08-29T10:58:24.000Z</time>
      </trkpt>
      <trkpt lat="44.95103" lon="5.77519">
        <ele>905.449637</ele>
        <time>2026-08-29T10:58:25.000Z</time>
      </trkpt>
      <trkpt lat="44.95104" lon="5.77512">
        <ele>905.390745</ele>
        <time>2026-08-29T10:58:26.000Z</time>
      </trkpt>
      <trkpt lat="44.95104" lon="5.77504">
        <ele>905.331064</ele>
        <time>2026-08-29T10:58:27.000Z</time>
      </trkpt>
      <trkpt lat="44.95105" lon="5.77496">
        <ele>905.270594</ele>
        <time>2026-08-29T10:58:28.000Z</time>
      </trkpt>
      <trkpt lat="44.95105" lon="5.77489">
        <ele>905.211007</ele>
        <time>2026-08-29T10:58:29.000Z</time>
      </trkpt>
      <trkpt lat="44.95105" lon="5.77481">
        <ele>905.150631</ele>
        <time>2026-08-29T10:58:30.000Z</time>
      </trkpt>
      <trkpt lat="44.95106" lon="5.77474">
        <ele>905.08926</ele>
        <time>2026-08-29T10:58:31.000Z</time>
      </trkpt>
      <trkpt lat="44.95107" lon="5.77466">
        <ele>905.028018</ele>
        <time>2026-08-29T10:58:32.000Z</time>
      </trkpt>
      <trkpt lat="44.95108" lon="5.77458">
        <ele>904.965217</ele>
        <time>2026-08-29T10:58:33.000Z</time>
      </trkpt>
      <trkpt lat="44.95109" lon="5.7745">
        <ele>904.902271</ele>
        <time>2026-08-29T10:58:34.000Z</time>
      </trkpt>
      <trkpt lat="44.95109" lon="5.77442">
        <ele>904.837067</ele>
        <time>2026-08-29T10:58:35.000Z</time>
      </trkpt>
      <trkpt lat="44.9511" lon="5.77434">
        <ele>904.771158</ele>
        <time>2026-08-29T10:58:36.000Z</time>
      </trkpt>
      <trkpt lat="44.9511" lon="5.77426">
        <ele>904.706108</ele>
        <time>2026-08-29T10:58:37.000Z</time>
      </trkpt>
      <trkpt lat="44.9511" lon="5.77417">
        <ele>904.640266</ele>
        <time>2026-08-29T10:58:38.000Z</time>
      </trkpt>
      <trkpt lat="44.95111" lon="5.77409">
        <ele>904.573483</ele>
        <time>2026-08-29T10:58:39.000Z</time>
      </trkpt>
      <trkpt lat="44.95111" lon="5.774">
        <ele>904.50502</ele>
        <time>2026-08-29T10:58:40.000Z</time>
      </trkpt>
      <trkpt lat="44.95112" lon="5.77392">
        <ele>904.438322</ele>
        <time>2026-08-29T10:58:41.000Z</time>
      </trkpt>
      <trkpt lat="44.95112" lon="5.77383">
        <ele>904.370833</ele>
        <time>2026-08-29T10:58:42.000Z</time>
      </trkpt>
      <trkpt lat="44.95113" lon="5.77375">
        <ele>904.30237</ele>
        <time>2026-08-29T10:58:43.000Z</time>
      </trkpt>
      <trkpt lat="44.95113" lon="5.77366">
        <ele>904.233788</ele>
        <time>2026-08-29T10:58:44.000Z</time>
      </trkpt>
      <trkpt lat="44.95114" lon="5.77358">
        <ele>904.164419</ele>
        <time>2026-08-29T10:58:45.000Z</time>
      </trkpt>
      <trkpt lat="44.95115" lon="5.77349">
        <ele>904.094263</ele>
        <time>2026-08-29T10:58:46.000Z</time>
      </trkpt>
      <trkpt lat="44.95115" lon="5.7734">
        <ele>904.024107</ele>
        <time>2026-08-29T10:58:47.000Z</time>
      </trkpt>
      <trkpt lat="44.95116" lon="5.77331">
        <ele>903.953164</ele>
        <time>2026-08-29T10:58:48.000Z</time>
      </trkpt>
      <trkpt lat="44.95117" lon="5.77322">
        <ele>903.88037</ele>
        <time>2026-08-29T10:58:49.000Z</time>
      </trkpt>
      <trkpt lat="44.95118" lon="5.77313">
        <ele>903.809294</ele>
        <time>2026-08-29T10:58:50.000Z</time>
      </trkpt>
      <trkpt lat="44.95118" lon="5.77304">
        <ele>903.737677</ele>
        <time>2026-08-29T10:58:51.000Z</time>
      </trkpt>
      <trkpt lat="44.95119" lon="5.77295">
        <ele>903.665815</ele>
        <time>2026-08-29T10:58:52.000Z</time>
      </trkpt>
      <trkpt lat="44.9512" lon="5.77286">
        <ele>903.594085</ele>
        <time>2026-08-29T10:58:53.000Z</time>
      </trkpt>
      <trkpt lat="44.95121" lon="5.77277">
        <ele>903.740753</ele>
        <time>2026-08-29T10:58:54.000Z</time>
      </trkpt>
      <trkpt lat="44.95121" lon="5.77268">
        <ele>903.909691</ele>
        <time>2026-08-29T10:58:55.000Z</time>
      </trkpt>
      <trkpt lat="44.95122" lon="5.77259">
        <ele>904.076769</ele>
        <time>2026-08-29T10:58:56.000Z</time>
      </trkpt>
      <trkpt lat="44.95122" lon="5.7725">
        <ele>904.245149</ele>
        <time>2026-08-29T10:58:57.000Z</time>
      </trkpt>
      <trkpt lat="44.95122" lon="5.77241">
        <ele>904.409626</ele>
        <time>2026-08-29T10:58:58.000Z</time>
      </trkpt>
      <trkpt lat="44.95122" lon="5.77232">
        <ele>904.575971</ele>
        <time>2026-08-29T10:58:59.000Z</time>
      </trkpt>
      <trkpt lat="44.95122" lon="5.77223">
        <ele>904.746218</ele>
        <time>2026-08-29T10:59:00.000Z</time>
      </trkpt>
      <trkpt lat="44.95122" lon="5.77214">
        <ele>904.918473</ele>
        <time>2026-08-29T10:59:01.000Z</time>
      </trkpt>
      <trkpt lat="44.95121" lon="5.77205">
        <ele>905.087184</ele>
        <time>2026-08-29T10:59:02.000Z</time>
      </trkpt>
      <trkpt lat="44.9512" lon="5.77196">
        <ele>905.257983</ele>
        <time>2026-08-29T10:59:03.000Z</time>
      </trkpt>
      <trkpt lat="44.9512" lon="5.77187">
        <ele>905.427847</ele>
        <time>2026-08-29T10:59:04.000Z</time>
      </trkpt>
      <trkpt lat="44.95119" lon="5.77178">
        <ele>905.590313</ele>
        <time>2026-08-29T10:59:05.000Z</time>
      </trkpt>
      <trkpt lat="44.95118" lon="5.7717">
        <ele>905.752414</ele>
        <time>2026-08-29T10:59:06.000Z</time>
      </trkpt>
      <trkpt lat="44.95117" lon="5.77162">
        <ele>905.905255</ele>
        <time>2026-08-29T10:59:07.000Z</time>
      </trkpt>
      <trkpt lat="44.95116" lon="5.77154">
        <ele>906.051881</ele>
        <time>2026-08-29T10:59:08.000Z</time>
      </trkpt>
      <trkpt lat="44.95116" lon="5.77146">
        <ele>906.194792</ele>
        <time>2026-08-29T10:59:09.000Z</time>
      </trkpt>
      <trkpt lat="44.95115" lon="5.77139">
        <ele>906.327898</ele>
        <time>2026-08-29T10:59:10.000Z</time>
      </trkpt>
      <trkpt lat="44.95115" lon="5.77132">
        <ele>906.453554</ele>
        <time>2026-08-29T10:59:11.000Z</time>
      </trkpt>
      <trkpt lat="44.95114" lon="5.77126">
        <ele>906.570886</ele>
        <time>2026-08-29T10:59:12.000Z</time>
      </trkpt>
      <trkpt lat="44.95114" lon="5.7712">
        <ele>906.680078</ele>
        <time>2026-08-29T10:59:13.000Z</time>
      </trkpt>
      <trkpt lat="44.95114" lon="5.77115">
        <ele>906.788759</ele>
        <time>2026-08-29T10:59:14.000Z</time>
      </trkpt>
      <trkpt lat="44.95113" lon="5.77109">
        <ele>906.890535</ele>
        <time>2026-08-29T10:59:15.000Z</time>
      </trkpt>
      <trkpt lat="44.95112" lon="5.77104">
        <ele>906.99313</ele>
        <time>2026-08-29T10:59:16.000Z</time>
      </trkpt>
      <trkpt lat="44.95112" lon="5.77099">
        <ele>907.094405</ele>
        <time>2026-08-29T10:59:17.000Z</time>
      </trkpt>
      <trkpt lat="44.95111" lon="5.77093">
        <ele>907.195108</ele>
        <time>2026-08-29T10:59:18.000Z</time>
      </trkpt>
      <trkpt lat="44.9511" lon="5.77089">
        <ele>907.285778</ele>
        <time>2026-08-29T10:59:19.000Z</time>
      </trkpt>
      <trkpt lat="44.9511" lon="5.77083">
        <ele>907.381998</ele>
        <time>2026-08-29T10:59:20.000Z</time>
      </trkpt>
      <trkpt lat="44.95109" lon="5.77078">
        <ele>907.480069</ele>
        <time>2026-08-29T10:59:21.000Z</time>
      </trkpt>
      <trkpt lat="44.95109" lon="5.77073">
        <ele>907.578141</ele>
        <time>2026-08-29T10:59:22.000Z</time>
      </trkpt>
      <trkpt lat="44.95108" lon="5.77068">
        <ele>907.676212</ele>
        <time>2026-08-29T10:59:23.000Z</time>
      </trkpt>
      <trkpt lat="44.95108" lon="5.77063">
        <ele>907.774284</ele>
        <time>2026-08-29T10:59:24.000Z</time>
      </trkpt>
      <trkpt lat="44.95107" lon="5.77058">
        <ele>907.868261</ele>
        <time>2026-08-29T10:59:25.000Z</time>
      </trkpt>
      <trkpt lat="44.95106" lon="5.77053">
        <ele>907.963565</ele>
        <time>2026-08-29T10:59:26.000Z</time>
      </trkpt>
      <trkpt lat="44.95104" lon="5.77048">
        <ele>908.06136</ele>
        <time>2026-08-29T10:59:27.000Z</time>
      </trkpt>
      <trkpt lat="44.95103" lon="5.77043">
        <ele>908.156664</ele>
        <time>2026-08-29T10:59:28.000Z</time>
      </trkpt>
      <trkpt lat="44.95103" lon="5.77038">
        <ele>908.250641</ele>
        <time>2026-08-29T10:59:29.000Z</time>
      </trkpt>
      <trkpt lat="44.95101" lon="5.77033">
        <ele>908.35544</ele>
        <time>2026-08-29T10:59:30.000Z</time>
      </trkpt>
      <trkpt lat="44.951" lon="5.77029">
        <ele>908.548228</ele>
        <time>2026-08-29T10:59:31.000Z</time>
      </trkpt>
      <trkpt lat="44.95098" lon="5.77024">
        <ele>908.745407</ele>
        <time>2026-08-29T10:59:32.000Z</time>
      </trkpt>
      <trkpt lat="44.95097" lon="5.77019">
        <ele>908.93689</ele>
        <time>2026-08-29T10:59:33.000Z</time>
      </trkpt>
      <trkpt lat="44.95095" lon="5.77015">
        <ele>909.123913</ele>
        <time>2026-08-29T10:59:34.000Z</time>
      </trkpt>
      <trkpt lat="44.95094" lon="5.77011">
        <ele>909.310128</ele>
        <time>2026-08-29T10:59:35.000Z</time>
      </trkpt>
      <trkpt lat="44.95092" lon="5.77007">
        <ele>909.495409</ele>
        <time>2026-08-29T10:59:36.000Z</time>
      </trkpt>
      <trkpt lat="44.9509" lon="5.77003">
        <ele>909.68057</ele>
        <time>2026-08-29T10:59:37.000Z</time>
      </trkpt>
      <trkpt lat="44.95088" lon="5.76999">
        <ele>909.862656</ele>
        <time>2026-08-29T10:59:38.000Z</time>
      </trkpt>
      <trkpt lat="44.95086" lon="5.76995">
        <ele>910.041968</ele>
        <time>2026-08-29T10:59:39.000Z</time>
      </trkpt>
      <trkpt lat="44.95083" lon="5.76991">
        <ele>910.222539</ele>
        <time>2026-08-29T10:59:40.000Z</time>
      </trkpt>
      <trkpt lat="44.95081" lon="5.76988">
        <ele>910.393939</ele>
        <time>2026-08-29T10:59:41.000Z</time>
      </trkpt>
      <trkpt lat="44.95079" lon="5.76985">
        <ele>910.570218</ele>
        <time>2026-08-29T10:59:42.000Z</time>
      </trkpt>
      <trkpt lat="44.95076" lon="5.76982">
        <ele>910.751953</ele>
        <time>2026-08-29T10:59:43.000Z</time>
      </trkpt>
      <trkpt lat="44.95074" lon="5.76979">
        <ele>910.920649</ele>
        <time>2026-08-29T10:59:44.000Z</time>
      </trkpt>
      <trkpt lat="44.95072" lon="5.76976">
        <ele>911.086626</ele>
        <time>2026-08-29T10:59:45.000Z</time>
      </trkpt>
      <trkpt lat="44.95069" lon="5.76973">
        <ele>911.266828</ele>
        <time>2026-08-29T10:59:46.000Z</time>
      </trkpt>
      <trkpt lat="44.95066" lon="5.7697">
        <ele>911.443781</ele>
        <time>2026-08-29T10:59:47.000Z</time>
      </trkpt>
      <trkpt lat="44.95064" lon="5.76967">
        <ele>911.605962</ele>
        <time>2026-08-29T10:59:48.000Z</time>
      </trkpt>
      <trkpt lat="44.95062" lon="5.76964">
        <ele>911.757636</ele>
        <time>2026-08-29T10:59:49.000Z</time>
      </trkpt>
      <trkpt lat="44.9506" lon="5.76962">
        <ele>911.901921</ele>
        <time>2026-08-29T10:59:50.000Z</time>
      </trkpt>
      <trkpt lat="44.95058" lon="5.7696">
        <ele>912.041575</ele>
        <time>2026-08-29T10:59:51.000Z</time>
      </trkpt>
      <trkpt lat="44.95056" lon="5.76957">
        <ele>912.184224</ele>
        <time>2026-08-29T10:59:52.000Z</time>
      </trkpt>
      <trkpt lat="44.95054" lon="5.76955">
        <ele>912.32552</ele>
        <time>2026-08-29T10:59:53.000Z</time>
      </trkpt>
      <trkpt lat="44.95052" lon="5.76952">
        <ele>912.466816</ele>
        <time>2026-08-29T10:59:54.000Z</time>
      </trkpt>
      <trkpt lat="44.9505" lon="5.7695">
        <ele>912.599025</ele>
        <time>2026-08-29T10:59:55.000Z</time>
      </trkpt>
      <trkpt lat="44.95048" lon="5.76947">
        <ele>912.728669</ele>
        <time>2026-08-29T10:59:56.000Z</time>
      </trkpt>
      <trkpt lat="44.95047" lon="5.76945">
        <ele>912.860879</ele>
        <time>2026-08-29T10:59:57.000Z</time>
      </trkpt>
      <trkpt lat="44.95045" lon="5.76942">
        <ele>912.993088</ele>
        <time>2026-08-29T10:59:58.000Z</time>
      </trkpt>
      <trkpt lat="44.95043" lon="5.7694">
        <ele>913.127921</ele>
        <time>2026-08-29T10:59:59.000Z</time>
      </trkpt>
      <trkpt lat="44.95041" lon="5.76938">
        <ele>913.264065</ele>
        <time>2026-08-29T11:00:00.000Z</time>
      </trkpt>
      <trkpt lat="44.95039" lon="5.76935">
        <ele>913.409246</ele>
        <time>2026-08-29T11:00:01.000Z</time>
      </trkpt>
      <trkpt lat="44.95037" lon="5.76933">
        <ele>913.545391</ele>
        <time>2026-08-29T11:00:02.000Z</time>
      </trkpt>
      <trkpt lat="44.95036" lon="5.7693">
        <ele>913.668539</ele>
        <time>2026-08-29T11:00:03.000Z</time>
      </trkpt>
      <trkpt lat="44.95034" lon="5.76928">
        <ele>913.799765</ele>
        <time>2026-08-29T11:00:04.000Z</time>
      </trkpt>
      <trkpt lat="44.95032" lon="5.76926">
        <ele>913.939938</ele>
        <time>2026-08-29T11:00:05.000Z</time>
      </trkpt>
      <trkpt lat="44.9503" lon="5.76923">
        <ele>914.08011</ele>
        <time>2026-08-29T11:00:06.000Z</time>
      </trkpt>
      <trkpt lat="44.95028" lon="5.76921">
        <ele>914.216254</ele>
        <time>2026-08-29T11:00:07.000Z</time>
      </trkpt>
      <trkpt lat="44.95026" lon="5.76918">
        <ele>914.356491</ele>
        <time>2026-08-29T11:00:08.000Z</time>
      </trkpt>
      <trkpt lat="44.95024" lon="5.76916">
        <ele>914.495184</ele>
        <time>2026-08-29T11:00:09.000Z</time>
      </trkpt>
      <trkpt lat="44.95022" lon="5.76913">
        <ele>914.630016</ele>
        <time>2026-08-29T11:00:10.000Z</time>
      </trkpt>
      <trkpt lat="44.95021" lon="5.76911">
        <ele>914.761093</ele>
        <time>2026-08-29T11:00:11.000Z</time>
      </trkpt>
      <trkpt lat="44.95019" lon="5.76908">
        <ele>914.90133</ele>
        <time>2026-08-29T11:00:12.000Z</time>
      </trkpt>
      <trkpt lat="44.95017" lon="5.76905">
        <ele>915.040806</ele>
        <time>2026-08-29T11:00:13.000Z</time>
      </trkpt>
      <trkpt lat="44.95015" lon="5.76902">
        <ele>915.186639</ele>
        <time>2026-08-29T11:00:14.000Z</time>
      </trkpt>
      <trkpt lat="44.95013" lon="5.769">
        <ele>915.326876</ele>
        <time>2026-08-29T11:00:15.000Z</time>
      </trkpt>
      <trkpt lat="44.95012" lon="5.76897">
        <ele>915.470829</ele>
        <time>2026-08-29T11:00:16.000Z</time>
      </trkpt>
      <trkpt lat="44.9501" lon="5.76894">
        <ele>915.621233</ele>
        <time>2026-08-29T11:00:17.000Z</time>
      </trkpt>
      <trkpt lat="44.95008" lon="5.76891">
        <ele>915.771637</ele>
        <time>2026-08-29T11:00:18.000Z</time>
      </trkpt>
      <trkpt lat="44.95006" lon="5.76889">
        <ele>915.919405</ele>
        <time>2026-08-29T11:00:19.000Z</time>
      </trkpt>
      <trkpt lat="44.95004" lon="5.76886">
        <ele>916.068814</ele>
        <time>2026-08-29T11:00:20.000Z</time>
      </trkpt>
      <trkpt lat="44.95002" lon="5.76883">
        <ele>916.210836</ele>
        <time>2026-08-29T11:00:21.000Z</time>
      </trkpt>
      <trkpt lat="44.95" lon="5.7688">
        <ele>916.362436</ele>
        <time>2026-08-29T11:00:22.000Z</time>
      </trkpt>
      <trkpt lat="44.94998" lon="5.76877">
        <ele>916.5193</ele>
        <time>2026-08-29T11:00:23.000Z</time>
      </trkpt>
      <trkpt lat="44.94996" lon="5.76874">
        <ele>916.676164</ele>
        <time>2026-08-29T11:00:24.000Z</time>
      </trkpt>
      <trkpt lat="44.94994" lon="5.76871">
        <ele>916.842142</ele>
        <time>2026-08-29T11:00:25.000Z</time>
      </trkpt>
      <trkpt lat="44.94992" lon="5.76868">
        <ele>917.007133</ele>
        <time>2026-08-29T11:00:26.000Z</time>
      </trkpt>
      <trkpt lat="44.9499" lon="5.76864">
        <ele>917.161675</ele>
        <time>2026-08-29T11:00:27.000Z</time>
      </trkpt>
      <trkpt lat="44.94988" lon="5.76861">
        <ele>917.322511</ele>
        <time>2026-08-29T11:00:28.000Z</time>
      </trkpt>
      <trkpt lat="44.94986" lon="5.76858">
        <ele>917.474111</ele>
        <time>2026-08-29T11:00:29.000Z</time>
      </trkpt>
      <trkpt lat="44.94984" lon="5.76855">
        <ele>917.625711</ele>
        <time>2026-08-29T11:00:30.000Z</time>
      </trkpt>
      <trkpt lat="44.94983" lon="5.76852">
        <ele>917.780253</ele>
        <time>2026-08-29T11:00:31.000Z</time>
      </trkpt>
      <trkpt lat="44.94981" lon="5.76848">
        <ele>917.940784</ele>
        <time>2026-08-29T11:00:32.000Z</time>
      </trkpt>
      <trkpt lat="44.94979" lon="5.76845">
        <ele>918.025085</ele>
        <time>2026-08-29T11:00:33.000Z</time>
      </trkpt>
      <trkpt lat="44.94977" lon="5.76841">
        <ele>918.10518</ele>
        <time>2026-08-29T11:00:34.000Z</time>
      </trkpt>
      <trkpt lat="44.94975" lon="5.76838">
        <ele>918.18123</ele>
        <time>2026-08-29T11:00:35.000Z</time>
      </trkpt>
      <trkpt lat="44.94974" lon="5.76834">
        <ele>918.264447</ele>
        <time>2026-08-29T11:00:36.000Z</time>
      </trkpt>
      <trkpt lat="44.94972" lon="5.7683">
        <ele>918.347663</ele>
        <time>2026-08-29T11:00:37.000Z</time>
      </trkpt>
      <trkpt lat="44.9497" lon="5.76826">
        <ele>918.430705</ele>
        <time>2026-08-29T11:00:38.000Z</time>
      </trkpt>
      <trkpt lat="44.94968" lon="5.76822">
        <ele>918.510884</ele>
        <time>2026-08-29T11:00:39.000Z</time>
      </trkpt>
      <trkpt lat="44.94967" lon="5.76818">
        <ele>918.591284</ele>
        <time>2026-08-29T11:00:40.000Z</time>
      </trkpt>
      <trkpt lat="44.94965" lon="5.76814">
        <ele>918.674789</ele>
        <time>2026-08-29T11:00:41.000Z</time>
      </trkpt>
      <trkpt lat="44.94963" lon="5.7681">
        <ele>918.756321</ele>
        <time>2026-08-29T11:00:42.000Z</time>
      </trkpt>
      <trkpt lat="44.94961" lon="5.76806">
        <ele>918.839358</ele>
        <time>2026-08-29T11:00:43.000Z</time>
      </trkpt>
      <trkpt lat="44.94959" lon="5.76803">
        <ele>918.923819</ele>
        <time>2026-08-29T11:00:44.000Z</time>
      </trkpt>
      <trkpt lat="44.94957" lon="5.76799">
        <ele>919.006801</ele>
        <time>2026-08-29T11:00:45.000Z</time>
      </trkpt>
      <trkpt lat="44.94955" lon="5.76795">
        <ele>919.092721</ele>
        <time>2026-08-29T11:00:46.000Z</time>
      </trkpt>
      <trkpt lat="44.94954" lon="5.76791">
        <ele>919.181625</ele>
        <time>2026-08-29T11:00:47.000Z</time>
      </trkpt>
      <trkpt lat="44.94951" lon="5.76787">
        <ele>919.271891</ele>
        <time>2026-08-29T11:00:48.000Z</time>
      </trkpt>
      <trkpt lat="44.94949" lon="5.76782">
        <ele>919.365202</ele>
        <time>2026-08-29T11:00:49.000Z</time>
      </trkpt>
      <trkpt lat="44.94947" lon="5.76779">
        <ele>919.457378</ele>
        <time>2026-08-29T11:00:50.000Z</time>
      </trkpt>
      <trkpt lat="44.94944" lon="5.76775">
        <ele>919.549297</ele>
        <time>2026-08-29T11:00:51.000Z</time>
      </trkpt>
      <trkpt lat="44.94942" lon="5.76771">
        <ele>919.641473</ele>
        <time>2026-08-29T11:00:52.000Z</time>
      </trkpt>
      <trkpt lat="44.94939" lon="5.76767">
        <ele>919.737511</ele>
        <time>2026-08-29T11:00:53.000Z</time>
      </trkpt>
      <trkpt lat="44.94937" lon="5.76763">
        <ele>919.83535</ele>
        <time>2026-08-29T11:00:54.000Z</time>
      </trkpt>
      <trkpt lat="44.94934" lon="5.76759">
        <ele>919.931962</ele>
        <time>2026-08-29T11:00:55.000Z</time>
      </trkpt>
      <trkpt lat="44.94931" lon="5.76755">
        <ele>920.027521</ele>
        <time>2026-08-29T11:00:56.000Z</time>
      </trkpt>
      <trkpt lat="44.94929" lon="5.76752">
        <ele>920.118358</ele>
        <time>2026-08-29T11:00:57.000Z</time>
      </trkpt>
      <trkpt lat="44.94926" lon="5.76748">
        <ele>920.210096</ele>
        <time>2026-08-29T11:00:58.000Z</time>
      </trkpt>
      <trkpt lat="44.94924" lon="5.76744">
        <ele>920.299611</ele>
        <time>2026-08-29T11:00:59.000Z</time>
      </trkpt>
      <trkpt lat="44.94922" lon="5.7674">
        <ele>920.389897</ele>
        <time>2026-08-29T11:01:00.000Z</time>
      </trkpt>
      <trkpt lat="44.9492" lon="5.76736">
        <ele>920.481615</ele>
        <time>2026-08-29T11:01:01.000Z</time>
      </trkpt>
      <trkpt lat="44.94918" lon="5.76731">
        <ele>920.575755</ele>
        <time>2026-08-29T11:01:02.000Z</time>
      </trkpt>
      <trkpt lat="44.94916" lon="5.76726">
        <ele>920.675406</ele>
        <time>2026-08-29T11:01:03.000Z</time>
      </trkpt>
      <trkpt lat="44.94914" lon="5.76721">
        <ele>920.779189</ele>
        <time>2026-08-29T11:01:04.000Z</time>
      </trkpt>
      <trkpt lat="44.94914" lon="5.76715">
        <ele>920.888085</ele>
        <time>2026-08-29T11:01:05.000Z</time>
      </trkpt>
      <trkpt lat="44.94913" lon="5.76709">
        <ele>920.991727</ele>
        <time>2026-08-29T11:01:06.000Z</time>
      </trkpt>
      <trkpt lat="44.94912" lon="5.76704">
        <ele>921.09367</ele>
        <time>2026-08-29T11:01:07.000Z</time>
      </trkpt>
      <trkpt lat="44.94912" lon="5.76698">
        <ele>921.195613</ele>
        <time>2026-08-29T11:01:08.000Z</time>
      </trkpt>
      <trkpt lat="44.94912" lon="5.76692">
        <ele>921.29909</ele>
        <time>2026-08-29T11:01:09.000Z</time>
      </trkpt>
      <trkpt lat="44.94912" lon="5.76686">
        <ele>921.404349</ele>
        <time>2026-08-29T11:01:10.000Z</time>
      </trkpt>
      <trkpt lat="44.94912" lon="5.7668">
        <ele>921.511392</ele>
        <time>2026-08-29T11:01:11.000Z</time>
      </trkpt>
      <trkpt lat="44.94913" lon="5.76674">
        <ele>921.620218</ele>
        <time>2026-08-29T11:01:12.000Z</time>
      </trkpt>
      <trkpt lat="44.94913" lon="5.76668">
        <ele>921.727705</ele>
        <time>2026-08-29T11:01:13.000Z</time>
      </trkpt>
      <trkpt lat="44.94913" lon="5.76662">
        <ele>921.837229</ele>
        <time>2026-08-29T11:01:14.000Z</time>
      </trkpt>
      <trkpt lat="44.94914" lon="5.76656">
        <ele>921.944715</ele>
        <time>2026-08-29T11:01:15.000Z</time>
      </trkpt>
      <trkpt lat="44.94914" lon="5.7665">
        <ele>922.052791</ele>
        <time>2026-08-29T11:01:16.000Z</time>
      </trkpt>
      <trkpt lat="44.94915" lon="5.76644">
        <ele>922.163927</ele>
        <time>2026-08-29T11:01:17.000Z</time>
      </trkpt>
      <trkpt lat="44.94917" lon="5.76638">
        <ele>922.275131</ele>
        <time>2026-08-29T11:01:18.000Z</time>
      </trkpt>
      <trkpt lat="44.94918" lon="5.76632">
        <ele>922.387097</ele>
        <time>2026-08-29T11:01:19.000Z</time>
      </trkpt>
      <trkpt lat="44.9492" lon="5.76627">
        <ele>922.51133</ele>
        <time>2026-08-29T11:01:20.000Z</time>
      </trkpt>
      <trkpt lat="44.94922" lon="5.76622">
        <ele>922.708375</ele>
        <time>2026-08-29T11:01:21.000Z</time>
      </trkpt>
      <trkpt lat="44.94925" lon="5.76617">
        <ele>922.900464</ele>
        <time>2026-08-29T11:01:22.000Z</time>
      </trkpt>
      <trkpt lat="44.94928" lon="5.76613">
        <ele>923.081856</ele>
        <time>2026-08-29T11:01:23.000Z</time>
      </trkpt>
      <trkpt lat="44.94931" lon="5.7661">
        <ele>923.255827</ele>
        <time>2026-08-29T11:01:24.000Z</time>
      </trkpt>
      <trkpt lat="44.94933" lon="5.76607">
        <ele>923.420006</ele>
        <time>2026-08-29T11:01:25.000Z</time>
      </trkpt>
      <trkpt lat="44.94936" lon="5.76604">
        <ele>923.582209</ele>
        <time>2026-08-29T11:01:26.000Z</time>
      </trkpt>
      <trkpt lat="44.94939" lon="5.76601">
        <ele>923.740592</ele>
        <time>2026-08-29T11:01:27.000Z</time>
      </trkpt>
      <trkpt lat="44.94942" lon="5.76599">
        <ele>923.893252</ele>
        <time>2026-08-29T11:01:28.000Z</time>
      </trkpt>
      <trkpt lat="44.94944" lon="5.76597">
        <ele>924.036573</ele>
        <time>2026-08-29T11:01:29.000Z</time>
      </trkpt>
      <trkpt lat="44.94947" lon="5.76594">
        <ele>924.184682</ele>
        <time>2026-08-29T11:01:30.000Z</time>
      </trkpt>
      <trkpt lat="44.9495" lon="5.76593">
        <ele>924.321444</ele>
        <time>2026-08-29T11:01:31.000Z</time>
      </trkpt>
      <trkpt lat="44.94952" lon="5.7659">
        <ele>924.463037</ele>
        <time>2026-08-29T11:01:32.000Z</time>
      </trkpt>
      <trkpt lat="44.94955" lon="5.76588">
        <ele>924.608659</ele>
        <time>2026-08-29T11:01:33.000Z</time>
      </trkpt>
      <trkpt lat="44.94958" lon="5.76586">
        <ele>924.751092</ele>
        <time>2026-08-29T11:01:34.000Z</time>
      </trkpt>
      <trkpt lat="44.94961" lon="5.76584">
        <ele>924.899201</ele>
        <time>2026-08-29T11:01:35.000Z</time>
      </trkpt>
      <trkpt lat="44.94963" lon="5.76582">
        <ele>925.044327</ele>
        <time>2026-08-29T11:01:36.000Z</time>
      </trkpt>
      <trkpt lat="44.94966" lon="5.7658">
        <ele>925.179602</ele>
        <time>2026-08-29T11:01:37.000Z</time>
      </trkpt>
      <trkpt lat="44.94969" lon="5.76579">
        <ele>925.31951</ele>
        <time>2026-08-29T11:01:38.000Z</time>
      </trkpt>
      <trkpt lat="44.94972" lon="5.76577">
        <ele>925.463235</ele>
        <time>2026-08-29T11:01:39.000Z</time>
      </trkpt>
      <trkpt lat="44.94975" lon="5.76575">
        <ele>925.615515</ele>
        <time>2026-08-29T11:01:40.000Z</time>
      </trkpt>
      <trkpt lat="44.94977" lon="5.76574">
        <ele>925.753218</ele>
        <time>2026-08-29T11:01:41.000Z</time>
      </trkpt>
      <trkpt lat="44.9498" lon="5.76572">
        <ele>925.890013</ele>
        <time>2026-08-29T11:01:42.000Z</time>
      </trkpt>
      <trkpt lat="44.94983" lon="5.76571">
        <ele>926.026807</ele>
        <time>2026-08-29T11:01:43.000Z</time>
      </trkpt>
      <trkpt lat="44.94985" lon="5.76569">
        <ele>926.163602</ele>
        <time>2026-08-29T11:01:44.000Z</time>
      </trkpt>
      <trkpt lat="44.94988" lon="5.76567">
        <ele>926.297455</ele>
        <time>2026-08-29T11:01:45.000Z</time>
      </trkpt>
      <trkpt lat="44.94991" lon="5.76566">
        <ele>926.434249</ele>
        <time>2026-08-29T11:01:46.000Z</time>
      </trkpt>
      <trkpt lat="44.94994" lon="5.76564">
        <ele>926.577433</ele>
        <time>2026-08-29T11:01:47.000Z</time>
      </trkpt>
      <trkpt lat="44.94996" lon="5.76563">
        <ele>926.71982</ele>
        <time>2026-08-29T11:01:48.000Z</time>
      </trkpt>
      <trkpt lat="44.94999" lon="5.76561">
        <ele>926.863545</ele>
        <time>2026-08-29T11:01:49.000Z</time>
      </trkpt>
      <trkpt lat="44.95002" lon="5.76559">
        <ele>927.012896</ele>
        <time>2026-08-29T11:01:50.000Z</time>
      </trkpt>
      <trkpt lat="44.95005" lon="5.76557">
        <ele>927.158021</ele>
        <time>2026-08-29T11:01:51.000Z</time>
      </trkpt>
      <trkpt lat="44.95008" lon="5.76555">
        <ele>927.30202</ele>
        <time>2026-08-29T11:01:52.000Z</time>
      </trkpt>
      <trkpt lat="44.95011" lon="5.76553">
        <ele>927.45001</ele>
        <time>2026-08-29T11:01:53.000Z</time>
      </trkpt>
      <trkpt lat="44.95013" lon="5.76552">
        <ele>927.582508</ele>
        <time>2026-08-29T11:01:54.000Z</time>
      </trkpt>
      <trkpt lat="44.95016" lon="5.7655">
        <ele>927.715006</ele>
        <time>2026-08-29T11:01:55.000Z</time>
      </trkpt>
      <trkpt lat="44.95019" lon="5.76548">
        <ele>927.858731</ele>
        <time>2026-08-29T11:01:56.000Z</time>
      </trkpt>
      <trkpt lat="44.95021" lon="5.76546">
        <ele>928.003856</ele>
        <time>2026-08-29T11:01:57.000Z</time>
      </trkpt>
      <trkpt lat="44.95024" lon="5.76545">
        <ele>928.151846</ele>
        <time>2026-08-29T11:01:58.000Z</time>
      </trkpt>
      <trkpt lat="44.95027" lon="5.76543">
        <ele>928.301665</ele>
        <time>2026-08-29T11:01:59.000Z</time>
      </trkpt>
      <trkpt lat="44.9503" lon="5.76541">
        <ele>928.444052</ele>
        <time>2026-08-29T11:02:00.000Z</time>
      </trkpt>
      <trkpt lat="44.95033" lon="5.7654">
        <ele>928.57655</ele>
        <time>2026-08-29T11:02:01.000Z</time>
      </trkpt>
      <trkpt lat="44.95035" lon="5.76538">
        <ele>928.716036</ele>
        <time>2026-08-29T11:02:02.000Z</time>
      </trkpt>
      <trkpt lat="44.95038" lon="5.76536">
        <ele>928.855944</ele>
        <time>2026-08-29T11:02:03.000Z</time>
      </trkpt>
      <trkpt lat="44.95041" lon="5.76535">
        <ele>929.000231</ele>
        <time>2026-08-29T11:02:04.000Z</time>
      </trkpt>
      <trkpt lat="44.95044" lon="5.76533">
        <ele>929.145687</ele>
        <time>2026-08-29T11:02:05.000Z</time>
      </trkpt>
      <trkpt lat="44.95047" lon="5.76531">
        <ele>929.285173</ele>
        <time>2026-08-29T11:02:06.000Z</time>
      </trkpt>
      <trkpt lat="44.95049" lon="5.7653">
        <ele>929.428897</ele>
        <time>2026-08-29T11:02:07.000Z</time>
      </trkpt>
      <trkpt lat="44.95052" lon="5.76528">
        <ele>929.567209</ele>
        <time>2026-08-29T11:02:08.000Z</time>
      </trkpt>
      <trkpt lat="44.95055" lon="5.76526">
        <ele>929.711207</ele>
        <time>2026-08-29T11:02:09.000Z</time>
      </trkpt>
      <trkpt lat="44.95057" lon="5.76524">
        <ele>929.85364</ele>
        <time>2026-08-29T11:02:10.000Z</time>
      </trkpt>
      <trkpt lat="44.9506" lon="5.76522">
        <ele>929.990434</ele>
        <time>2026-08-29T11:02:11.000Z</time>
      </trkpt>
      <trkpt lat="44.95063" lon="5.7652">
        <ele>930.121647</ele>
        <time>2026-08-29T11:02:12.000Z</time>
      </trkpt>
      <trkpt lat="44.95065" lon="5.76519">
        <ele>930.252859</ele>
        <time>2026-08-29T11:02:13.000Z</time>
      </trkpt>
      <trkpt lat="44.95068" lon="5.76517">
        <ele>930.386712</ele>
        <time>2026-08-29T11:02:14.000Z</time>
      </trkpt>
      <trkpt lat="44.95071" lon="5.76516">
        <ele>930.523506</ele>
        <time>2026-08-29T11:02:15.000Z</time>
      </trkpt>
      <trkpt lat="44.95073" lon="5.76514">
        <ele>930.64915</ele>
        <time>2026-08-29T11:02:16.000Z</time>
      </trkpt>
      <trkpt lat="44.95076" lon="5.76513">
        <ele>930.781648</ele>
        <time>2026-08-29T11:02:17.000Z</time>
      </trkpt>
      <trkpt lat="44.95078" lon="5.76511">
        <ele>930.921345</ele>
        <time>2026-08-29T11:02:18.000Z</time>
      </trkpt>
      <trkpt lat="44.95081" lon="5.76509">
        <ele>931.078093</ele>
        <time>2026-08-29T11:02:19.000Z</time>
      </trkpt>
      <trkpt lat="44.95084" lon="5.76507">
        <ele>931.23178</ele>
        <time>2026-08-29T11:02:20.000Z</time>
      </trkpt>
      <trkpt lat="44.95086" lon="5.76505">
        <ele>931.394865</ele>
        <time>2026-08-29T11:02:21.000Z</time>
      </trkpt>
      <trkpt lat="44.95089" lon="5.76503">
        <ele>931.551613</ele>
        <time>2026-08-29T11:02:22.000Z</time>
      </trkpt>
      <trkpt lat="44.95092" lon="5.76502">
        <ele>931.708836</ele>
        <time>2026-08-29T11:02:23.000Z</time>
      </trkpt>
      <trkpt lat="44.95095" lon="5.765">
        <ele>931.868845</ele>
        <time>2026-08-29T11:02:24.000Z</time>
      </trkpt>
      <trkpt lat="44.95098" lon="5.76499">
        <ele>932.032303</ele>
        <time>2026-08-29T11:02:25.000Z</time>
      </trkpt>
      <trkpt lat="44.951" lon="5.76497">
        <ele>932.186026</ele>
        <time>2026-08-29T11:02:26.000Z</time>
      </trkpt>
      <trkpt lat="44.95103" lon="5.76495">
        <ele>932.333345</ele>
        <time>2026-08-29T11:02:27.000Z</time>
      </trkpt>
      <trkpt lat="44.95106" lon="5.76494">
        <ele>932.488544</ele>
        <time>2026-08-29T11:02:28.000Z</time>
      </trkpt>
      <trkpt lat="44.95108" lon="5.76492">
        <ele>932.651629</ele>
        <time>2026-08-29T11:02:29.000Z</time>
      </trkpt>
      <trkpt lat="44.95111" lon="5.7649">
        <ele>932.818713</ele>
        <time>2026-08-29T11:02:30.000Z</time>
      </trkpt>
      <trkpt lat="44.95114" lon="5.76489">
        <ele>932.984594</ele>
        <time>2026-08-29T11:02:31.000Z</time>
      </trkpt>
      <trkpt lat="44.95117" lon="5.76487">
        <ele>933.154301</ele>
        <time>2026-08-29T11:02:32.000Z</time>
      </trkpt>
      <trkpt lat="44.9512" lon="5.76485">
        <ele>933.322135</ele>
        <time>2026-08-29T11:02:33.000Z</time>
      </trkpt>
      <trkpt lat="44.95123" lon="5.76483">
        <ele>933.480503</ele>
        <time>2026-08-29T11:02:34.000Z</time>
      </trkpt>
      <trkpt lat="44.95126" lon="5.76481">
        <ele>933.648337</ele>
        <time>2026-08-29T11:02:35.000Z</time>
      </trkpt>
      <trkpt lat="44.95129" lon="5.7648">
        <ele>933.818044</ele>
        <time>2026-08-29T11:02:36.000Z</time>
      </trkpt>
      <trkpt lat="44.95132" lon="5.76478">
        <ele>933.989169</ele>
        <time>2026-08-29T11:02:37.000Z</time>
      </trkpt>
      <trkpt lat="44.95135" lon="5.76476">
        <ele>934.147748</ele>
        <time>2026-08-29T11:02:38.000Z</time>
      </trkpt>
      <trkpt lat="44.95138" lon="5.76475">
        <ele>934.311205</ele>
        <time>2026-08-29T11:02:39.000Z</time>
      </trkpt>
      <trkpt lat="44.9514" lon="5.76473">
        <ele>934.474663</ele>
        <time>2026-08-29T11:02:40.000Z</time>
      </trkpt>
      <trkpt lat="44.95143" lon="5.76471">
        <ele>934.6411</ele>
        <time>2026-08-29T11:02:41.000Z</time>
      </trkpt>
      <trkpt lat="44.95146" lon="5.76469">
        <ele>934.805828</ele>
        <time>2026-08-29T11:02:42.000Z</time>
      </trkpt>
      <trkpt lat="44.95149" lon="5.76467">
        <ele>934.962575</ele>
        <time>2026-08-29T11:02:43.000Z</time>
      </trkpt>
      <trkpt lat="44.95152" lon="5.76465">
        <ele>935.12888</ele>
        <time>2026-08-29T11:02:44.000Z</time>
      </trkpt>
      <trkpt lat="44.95154" lon="5.76464">
        <ele>935.287459</ele>
        <time>2026-08-29T11:02:45.000Z</time>
      </trkpt>
      <trkpt lat="44.95157" lon="5.76462">
        <ele>935.444681</ele>
        <time>2026-08-29T11:02:46.000Z</time>
      </trkpt>
      <trkpt lat="44.9516" lon="5.76461">
        <ele>935.597006</ele>
        <time>2026-08-29T11:02:47.000Z</time>
      </trkpt>
      <trkpt lat="44.95163" lon="5.76459">
        <ele>935.751751</ele>
        <time>2026-08-29T11:02:48.000Z</time>
      </trkpt>
      <trkpt lat="44.95166" lon="5.76458">
        <ele>935.915208</ele>
        <time>2026-08-29T11:02:49.000Z</time>
      </trkpt>
      <trkpt lat="44.95168" lon="5.76456">
        <ele>936.070407</ele>
        <time>2026-08-29T11:02:50.000Z</time>
      </trkpt>
      <trkpt lat="44.95171" lon="5.76454">
        <ele>936.235252</ele>
        <time>2026-08-29T11:02:51.000Z</time>
      </trkpt>
      <trkpt lat="44.95174" lon="5.76453">
        <ele>936.398337</ele>
        <time>2026-08-29T11:02:52.000Z</time>
      </trkpt>
      <trkpt lat="44.95177" lon="5.76451">
        <ele>936.566171</ele>
        <time>2026-08-29T11:02:53.000Z</time>
      </trkpt>
      <trkpt lat="44.9518" lon="5.76449">
        <ele>936.735878</ele>
        <time>2026-08-29T11:02:54.000Z</time>
      </trkpt>
      <trkpt lat="44.95183" lon="5.76447">
        <ele>936.909159</ele>
        <time>2026-08-29T11:02:55.000Z</time>
      </trkpt>
      <trkpt lat="44.95186" lon="5.76446">
        <ele>937.089996</ele>
        <time>2026-08-29T11:02:56.000Z</time>
      </trkpt>
      <trkpt lat="44.95189" lon="5.76443">
        <ele>937.265777</ele>
        <time>2026-08-29T11:02:57.000Z</time>
      </trkpt>
      <trkpt lat="44.95192" lon="5.76442">
        <ele>937.436902</ele>
        <time>2026-08-29T11:02:58.000Z</time>
      </trkpt>
      <trkpt lat="44.95195" lon="5.7644">
        <ele>937.612871</ele>
        <time>2026-08-29T11:02:59.000Z</time>
      </trkpt>
      <trkpt lat="44.95199" lon="5.76438">
        <ele>937.789888</ele>
        <time>2026-08-29T11:03:00.000Z</time>
      </trkpt>
      <trkpt lat="44.95202" lon="5.76437">
        <ele>937.965858</ele>
        <time>2026-08-29T11:03:01.000Z</time>
      </trkpt>
      <trkpt lat="44.95205" lon="5.76435">
        <ele>938.148101</ele>
        <time>2026-08-29T11:03:02.000Z</time>
      </trkpt>
      <trkpt lat="44.95208" lon="5.76433">
        <ele>938.320712</ele>
        <time>2026-08-29T11:03:03.000Z</time>
      </trkpt>
      <trkpt lat="44.95211" lon="5.76431">
        <ele>938.493323</ele>
        <time>2026-08-29T11:03:04.000Z</time>
      </trkpt>
      <trkpt lat="44.95214" lon="5.76429">
        <ele>938.656408</ele>
        <time>2026-08-29T11:03:05.000Z</time>
      </trkpt>
      <trkpt lat="44.95217" lon="5.76427">
        <ele>938.825837</ele>
        <time>2026-08-29T11:03:06.000Z</time>
      </trkpt>
      <trkpt lat="44.95219" lon="5.76425">
        <ele>938.993671</ele>
        <time>2026-08-29T11:03:07.000Z</time>
      </trkpt>
      <trkpt lat="44.95222" lon="5.76423">
        <ele>939.163377</ele>
        <time>2026-08-29T11:03:08.000Z</time>
      </trkpt>
      <trkpt lat="44.95226" lon="5.76422">
        <ele>939.335419</ele>
        <time>2026-08-29T11:03:09.000Z</time>
      </trkpt>
      <trkpt lat="44.95229" lon="5.7642">
        <ele>939.502502</ele>
        <time>2026-08-29T11:03:10.000Z</time>
      </trkpt>
      <trkpt lat="44.95232" lon="5.76419">
        <ele>939.669585</ele>
        <time>2026-08-29T11:03:11.000Z</time>
      </trkpt>
      <trkpt lat="44.95235" lon="5.76417">
        <ele>939.844176</ele>
        <time>2026-08-29T11:03:12.000Z</time>
      </trkpt>
      <trkpt lat="44.95237" lon="5.76415">
        <ele>940.010613</ele>
        <time>2026-08-29T11:03:13.000Z</time>
      </trkpt>
      <trkpt lat="44.9524" lon="5.76413">
        <ele>940.181737</ele>
        <time>2026-08-29T11:03:14.000Z</time>
      </trkpt>
      <trkpt lat="44.95243" lon="5.76411">
        <ele>940.351777</ele>
        <time>2026-08-29T11:03:15.000Z</time>
      </trkpt>
      <trkpt lat="44.95246" lon="5.7641">
        <ele>940.543159</ele>
        <time>2026-08-29T11:03:16.000Z</time>
      </trkpt>
      <trkpt lat="44.95249" lon="5.76408">
        <ele>940.728983</ele>
        <time>2026-08-29T11:03:17.000Z</time>
      </trkpt>
      <trkpt lat="44.95252" lon="5.76406">
        <ele>940.914808</ele>
        <time>2026-08-29T11:03:18.000Z</time>
      </trkpt>
      <trkpt lat="44.95254" lon="5.76404">
        <ele>941.104792</ele>
        <time>2026-08-29T11:03:19.000Z</time>
      </trkpt>
      <trkpt lat="44.95257" lon="5.76401">
        <ele>941.302212</ele>
        <time>2026-08-29T11:03:20.000Z</time>
      </trkpt>
      <trkpt lat="44.9526" lon="5.76399">
        <ele>941.498916</ele>
        <time>2026-08-29T11:03:21.000Z</time>
      </trkpt>
      <trkpt lat="44.95263" lon="5.76397">
        <ele>941.686426</ele>
        <time>2026-08-29T11:03:22.000Z</time>
      </trkpt>
      <trkpt lat="44.95266" lon="5.76396">
        <ele>941.887601</ele>
        <time>2026-08-29T11:03:23.000Z</time>
      </trkpt>
      <trkpt lat="44.95269" lon="5.76394">
        <ele>942.078845</ele>
        <time>2026-08-29T11:03:24.000Z</time>
      </trkpt>
      <trkpt lat="44.95271" lon="5.76391">
        <ele>942.268151</ele>
        <time>2026-08-29T11:03:25.000Z</time>
      </trkpt>
      <trkpt lat="44.95274" lon="5.76389">
        <ele>942.449994</ele>
        <time>2026-08-29T11:03:26.000Z</time>
      </trkpt>
      <trkpt lat="44.95276" lon="5.76387">
        <ele>942.639299</ele>
        <time>2026-08-29T11:03:27.000Z</time>
      </trkpt>
      <trkpt lat="44.95279" lon="5.76384">
        <ele>942.828605</ele>
        <time>2026-08-29T11:03:28.000Z</time>
      </trkpt>
      <trkpt lat="44.95281" lon="5.76382">
        <ele>943.015602</ele>
        <time>2026-08-29T11:03:29.000Z</time>
      </trkpt>
      <trkpt lat="44.95284" lon="5.76379">
        <ele>943.204818</ele>
        <time>2026-08-29T11:03:30.000Z</time>
      </trkpt>
      <trkpt lat="44.95286" lon="5.76376">
        <ele>943.388213</ele>
        <time>2026-08-29T11:03:31.000Z</time>
      </trkpt>
      <trkpt lat="44.95288" lon="5.76373">
        <ele>943.562892</ele>
        <time>2026-08-29T11:03:32.000Z</time>
      </trkpt>
      <trkpt lat="44.9529" lon="5.7637">
        <ele>943.732558</ele>
        <time>2026-08-29T11:03:33.000Z</time>
      </trkpt>
      <trkpt lat="44.95292" lon="5.76367">
        <ele>943.912749</ele>
        <time>2026-08-29T11:03:34.000Z</time>
      </trkpt>
      <trkpt lat="44.95294" lon="5.76364">
        <ele>944.092482</ele>
        <time>2026-08-29T11:03:35.000Z</time>
      </trkpt>
      <trkpt lat="44.95295" lon="5.7636">
        <ele>944.27565</ele>
        <time>2026-08-29T11:03:36.000Z</time>
      </trkpt>
      <trkpt lat="44.95297" lon="5.76357">
        <ele>944.459032</ele>
        <time>2026-08-29T11:03:37.000Z</time>
      </trkpt>
      <trkpt lat="44.95299" lon="5.76353">
        <ele>944.639246</ele>
        <time>2026-08-29T11:03:38.000Z</time>
      </trkpt>
      <trkpt lat="44.953" lon="5.7635">
        <ele>944.808935</ele>
        <time>2026-08-29T11:03:39.000Z</time>
      </trkpt>
      <trkpt lat="44.95301" lon="5.76346">
        <ele>944.996635</ele>
        <time>2026-08-29T11:03:40.000Z</time>
      </trkpt>
      <trkpt lat="44.95303" lon="5.76342">
        <ele>945.191099</ele>
        <time>2026-08-29T11:03:41.000Z</time>
      </trkpt>
      <trkpt lat="44.95305" lon="5.76338">
        <ele>945.382577</ele>
        <time>2026-08-29T11:03:42.000Z</time>
      </trkpt>
      <trkpt lat="44.95306" lon="5.76334">
        <ele>945.567385</ele>
        <time>2026-08-29T11:03:43.000Z</time>
      </trkpt>
      <trkpt lat="44.95307" lon="5.7633">
        <ele>945.763762</ele>
        <time>2026-08-29T11:03:44.000Z</time>
      </trkpt>
      <trkpt lat="44.95309" lon="5.76326">
        <ele>945.947213</ele>
        <time>2026-08-29T11:03:45.000Z</time>
      </trkpt>
      <trkpt lat="44.9531" lon="5.76323">
        <ele>946.126716</ele>
        <time>2026-08-29T11:03:46.000Z</time>
      </trkpt>
      <trkpt lat="44.95311" lon="5.76319">
        <ele>946.30622</ele>
        <time>2026-08-29T11:03:47.000Z</time>
      </trkpt>
      <trkpt lat="44.95312" lon="5.76315">
        <ele>946.493635</ele>
        <time>2026-08-29T11:03:48.000Z</time>
      </trkpt>
      <trkpt lat="44.95314" lon="5.76311">
        <ele>946.681335</ele>
        <time>2026-08-29T11:03:49.000Z</time>
      </trkpt>
      <trkpt lat="44.95315" lon="5.76307">
        <ele>946.863407</ele>
        <time>2026-08-29T11:03:50.000Z</time>
      </trkpt>
      <trkpt lat="44.95316" lon="5.76303">
        <ele>947.04291</ele>
        <time>2026-08-29T11:03:51.000Z</time>
      </trkpt>
      <trkpt lat="44.95317" lon="5.763">
        <ele>947.220017</ele>
        <time>2026-08-29T11:03:52.000Z</time>
      </trkpt>
      <trkpt lat="44.95318" lon="5.76296">
        <ele>947.399521</ele>
        <time>2026-08-29T11:03:53.000Z</time>
      </trkpt>
      <trkpt lat="44.9532" lon="5.76292">
        <ele>947.575093</ele>
        <time>2026-08-29T11:03:54.000Z</time>
      </trkpt>
      <trkpt lat="44.95321" lon="5.76288">
        <ele>947.761059</ele>
        <time>2026-08-29T11:03:55.000Z</time>
      </trkpt>
      <trkpt lat="44.95322" lon="5.76284">
        <ele>947.949702</ele>
        <time>2026-08-29T11:03:56.000Z</time>
      </trkpt>
      <trkpt lat="44.95324" lon="5.76281">
        <ele>948.126901</ele>
        <time>2026-08-29T11:03:57.000Z</time>
      </trkpt>
      <trkpt lat="44.95325" lon="5.76277">
        <ele>948.3051</ele>
        <time>2026-08-29T11:03:58.000Z</time>
      </trkpt>
      <trkpt lat="44.95327" lon="5.76273">
        <ele>948.503306</ele>
        <time>2026-08-29T11:03:59.000Z</time>
      </trkpt>
      <trkpt lat="44.95328" lon="5.76269">
        <ele>948.691005</ele>
        <time>2026-08-29T11:04:00.000Z</time>
      </trkpt>
      <trkpt lat="44.95329" lon="5.76265">
        <ele>948.874456</ele>
        <time>2026-08-29T11:04:01.000Z</time>
      </trkpt>
      <trkpt lat="44.9533" lon="5.76261">
        <ele>949.049346</ele>
        <time>2026-08-29T11:04:02.000Z</time>
      </trkpt>
      <trkpt lat="44.95331" lon="5.76258">
        <ele>949.214547</ele>
        <time>2026-08-29T11:04:03.000Z</time>
      </trkpt>
      <trkpt lat="44.95333" lon="5.76254">
        <ele>949.386207</ele>
        <time>2026-08-29T11:04:04.000Z</time>
      </trkpt>
      <trkpt lat="44.95334" lon="5.76251">
        <ele>949.563314</ele>
        <time>2026-08-29T11:04:05.000Z</time>
      </trkpt>
      <trkpt lat="44.95335" lon="5.76247">
        <ele>949.746764</ele>
        <time>2026-08-29T11:04:06.000Z</time>
      </trkpt>
      <trkpt lat="44.95336" lon="5.76243">
        <ele>949.924962</ele>
        <time>2026-08-29T11:04:07.000Z</time>
      </trkpt>
      <trkpt lat="44.95337" lon="5.76239">
        <ele>950.095815</ele>
        <time>2026-08-29T11:04:08.000Z</time>
      </trkpt>
      <trkpt lat="44.95338" lon="5.76235">
        <ele>950.275318</ele>
        <time>2026-08-29T11:04:09.000Z</time>
      </trkpt>
      <trkpt lat="44.9534" lon="5.76232">
        <ele>950.453516</ele>
        <time>2026-08-29T11:04:10.000Z</time>
      </trkpt>
      <trkpt lat="44.95341" lon="5.76228">
        <ele>950.627861</ele>
        <time>2026-08-29T11:04:11.000Z</time>
      </trkpt>
      <trkpt lat="44.95343" lon="5.76225">
        <ele>950.807603</ele>
        <time>2026-08-29T11:04:12.000Z</time>
      </trkpt>
      <trkpt lat="44.95344" lon="5.76221">
        <ele>950.980437</ele>
        <time>2026-08-29T11:04:13.000Z</time>
      </trkpt>
      <trkpt lat="44.95346" lon="5.76218">
        <ele>951.160651</ele>
        <time>2026-08-29T11:04:14.000Z</time>
      </trkpt>
      <trkpt lat="44.95347" lon="5.76214">
        <ele>951.318862</ele>
        <time>2026-08-29T11:04:15.000Z</time>
      </trkpt>
      <trkpt lat="44.95348" lon="5.7621">
        <ele>951.450197</ele>
        <time>2026-08-29T11:04:16.000Z</time>
      </trkpt>
      <trkpt lat="44.95349" lon="5.76206">
        <ele>951.581946</ele>
        <time>2026-08-29T11:04:17.000Z</time>
      </trkpt>
      <trkpt lat="44.9535" lon="5.76202">
        <ele>951.721309</ele>
        <time>2026-08-29T11:04:18.000Z</time>
      </trkpt>
      <trkpt lat="44.95352" lon="5.76198">
        <ele>951.862598</ele>
        <time>2026-08-29T11:04:19.000Z</time>
      </trkpt>
      <trkpt lat="44.95353" lon="5.76195">
        <ele>951.99824</ele>
        <time>2026-08-29T11:04:20.000Z</time>
      </trkpt>
      <trkpt lat="44.95355" lon="5.76191">
        <ele>952.138778</ele>
        <time>2026-08-29T11:04:21.000Z</time>
      </trkpt>
      <trkpt lat="44.95356" lon="5.76187">
        <ele>952.277236</ele>
        <time>2026-08-29T11:04:22.000Z</time>
      </trkpt>
      <trkpt lat="44.95357" lon="5.76183">
        <ele>952.408027</ele>
        <time>2026-08-29T11:04:23.000Z</time>
      </trkpt>
      <trkpt lat="44.95359" lon="5.76179">
        <ele>952.540868</ele>
        <time>2026-08-29T11:04:24.000Z</time>
      </trkpt>
      <trkpt lat="44.9536" lon="5.76176">
        <ele>952.670858</ele>
        <time>2026-08-29T11:04:25.000Z</time>
      </trkpt>
      <trkpt lat="44.95361" lon="5.76172">
        <ele>952.799421</ele>
        <time>2026-08-29T11:04:26.000Z</time>
      </trkpt>
      <trkpt lat="44.95361" lon="5.76168">
        <ele>952.926294</ele>
        <time>2026-08-29T11:04:27.000Z</time>
      </trkpt>
      <trkpt lat="44.95362" lon="5.76164">
        <ele>953.051819</ele>
        <time>2026-08-29T11:04:28.000Z</time>
      </trkpt>
      <trkpt lat="44.95363" lon="5.7616">
        <ele>953.177343</ele>
        <time>2026-08-29T11:04:29.000Z</time>
      </trkpt>
      <trkpt lat="44.95364" lon="5.76156">
        <ele>953.314649</ele>
        <time>2026-08-29T11:04:30.000Z</time>
      </trkpt>
      <trkpt lat="44.95365" lon="5.76152">
        <ele>953.453477</ele>
        <time>2026-08-29T11:04:31.000Z</time>
      </trkpt>
      <trkpt lat="44.95366" lon="5.76148">
        <ele>953.580542</ele>
        <time>2026-08-29T11:04:32.000Z</time>
      </trkpt>
      <trkpt lat="44.95368" lon="5.76145">
        <ele>953.710599</ele>
        <time>2026-08-29T11:04:33.000Z</time>
      </trkpt>
      <trkpt lat="44.95369" lon="5.76141">
        <ele>953.836592</ele>
        <time>2026-08-29T11:04:34.000Z</time>
      </trkpt>
      <trkpt lat="44.9537" lon="5.76138">
        <ele>953.961137</ele>
        <time>2026-08-29T11:04:35.000Z</time>
      </trkpt>
      <trkpt lat="44.95372" lon="5.76134">
        <ele>954.093978</ele>
        <time>2026-08-29T11:04:36.000Z</time>
      </trkpt>
      <trkpt lat="44.95373" lon="5.7613">
        <ele>954.222842</ele>
        <time>2026-08-29T11:04:37.000Z</time>
      </trkpt>
      <trkpt lat="44.95374" lon="5.76126">
        <ele>954.367983</ele>
        <time>2026-08-29T11:04:38.000Z</time>
      </trkpt>
      <trkpt lat="44.95375" lon="5.76122">
        <ele>954.502299</ele>
        <time>2026-08-29T11:04:39.000Z</time>
      </trkpt>
      <trkpt lat="44.95376" lon="5.76118">
        <ele>954.629172</ele>
        <time>2026-08-29T11:04:40.000Z</time>
      </trkpt>
      <trkpt lat="44.95377" lon="5.76115">
        <ele>954.756237</ele>
        <time>2026-08-29T11:04:41.000Z</time>
      </trkpt>
      <trkpt lat="44.95379" lon="5.76111">
        <ele>954.897525</ele>
        <time>2026-08-29T11:04:42.000Z</time>
      </trkpt>
      <trkpt lat="44.9538" lon="5.76107">
        <ele>955.035982</ele>
        <time>2026-08-29T11:04:43.000Z</time>
      </trkpt>
      <trkpt lat="44.95381" lon="5.76103">
        <ele>955.174439</ele>
        <time>2026-08-29T11:04:44.000Z</time>
      </trkpt>
      <trkpt lat="44.95383" lon="5.76099">
        <ele>955.30523</ele>
        <time>2026-08-29T11:04:45.000Z</time>
      </trkpt>
      <trkpt lat="44.95384" lon="5.76095">
        <ele>955.443688</ele>
        <time>2026-08-29T11:04:46.000Z</time>
      </trkpt>
      <trkpt lat="44.95385" lon="5.76091">
        <ele>955.590678</ele>
        <time>2026-08-29T11:04:47.000Z</time>
      </trkpt>
      <trkpt lat="44.95387" lon="5.76087">
        <ele>955.72717</ele>
        <time>2026-08-29T11:04:48.000Z</time>
      </trkpt>
      <trkpt lat="44.95388" lon="5.76083">
        <ele>955.871303</ele>
        <time>2026-08-29T11:04:49.000Z</time>
      </trkpt>
      <trkpt lat="44.95389" lon="5.76079">
        <ele>956.01935</ele>
        <time>2026-08-29T11:04:50.000Z</time>
      </trkpt>
      <trkpt lat="44.95391" lon="5.76075">
        <ele>956.165483</ele>
        <time>2026-08-29T11:04:51.000Z</time>
      </trkpt>
      <trkpt lat="44.95392" lon="5.7607">
        <ele>956.31183</ele>
        <time>2026-08-29T11:04:52.000Z</time>
      </trkpt>
      <trkpt lat="44.95393" lon="5.76066">
        <ele>956.461127</ele>
        <time>2026-08-29T11:04:53.000Z</time>
      </trkpt>
      <trkpt lat="44.95395" lon="5.76062">
        <ele>956.610079</ele>
        <time>2026-08-29T11:04:54.000Z</time>
      </trkpt>
      <trkpt lat="44.95396" lon="5.76058">
        <ele>956.750617</ele>
        <time>2026-08-29T11:04:55.000Z</time>
      </trkpt>
      <trkpt lat="44.95398" lon="5.76054">
        <ele>956.896093</ele>
        <time>2026-08-29T11:04:56.000Z</time>
      </trkpt>
      <trkpt lat="44.95399" lon="5.7605">
        <ele>957.045045</ele>
        <time>2026-08-29T11:04:57.000Z</time>
      </trkpt>
      <trkpt lat="44.95401" lon="5.76046">
        <ele>957.189177</ele>
        <time>2026-08-29T11:04:58.000Z</time>
      </trkpt>
      <trkpt lat="44.95402" lon="5.76042">
        <ele>957.330465</ele>
        <time>2026-08-29T11:04:59.000Z</time>
      </trkpt>
      <trkpt lat="44.95404" lon="5.76037">
        <ele>957.484281</ele>
        <time>2026-08-29T11:05:00.000Z</time>
      </trkpt>
      <trkpt lat="44.95405" lon="5.76033">
        <ele>957.632521</ele>
        <time>2026-08-29T11:05:01.000Z</time>
      </trkpt>
      <trkpt lat="44.95407" lon="5.76029">
        <ele>957.780568</ele>
        <time>2026-08-29T11:05:02.000Z</time>
      </trkpt>
      <trkpt lat="44.95408" lon="5.76024">
        <ele>957.936204</ele>
        <time>2026-08-29T11:05:03.000Z</time>
      </trkpt>
      <trkpt lat="44.95409" lon="5.7602">
        <ele>958.081344</ele>
        <time>2026-08-29T11:05:04.000Z</time>
      </trkpt>
      <trkpt lat="44.95411" lon="5.76016">
        <ele>958.227476</ele>
        <time>2026-08-29T11:05:05.000Z</time>
      </trkpt>
      <trkpt lat="44.95412" lon="5.76012">
        <ele>958.373608</ele>
        <time>2026-08-29T11:05:06.000Z</time>
      </trkpt>
      <trkpt lat="44.95414" lon="5.76008">
        <ele>958.514896</ele>
        <time>2026-08-29T11:05:07.000Z</time>
      </trkpt>
      <trkpt lat="44.95415" lon="5.76004">
        <ele>958.662942</ele>
        <time>2026-08-29T11:05:08.000Z</time>
      </trkpt>
      <trkpt lat="44.95417" lon="5.75999">
        <ele>958.815685</ele>
        <time>2026-08-29T11:05:09.000Z</time>
      </trkpt>
      <trkpt lat="44.95418" lon="5.75995">
        <ele>958.964637</ele>
        <time>2026-08-29T11:05:10.000Z</time>
      </trkpt>
      <trkpt lat="44.95419" lon="5.75991">
        <ele>959.118526</ele>
        <time>2026-08-29T11:05:11.000Z</time>
      </trkpt>
      <trkpt lat="44.9542" lon="5.75986">
        <ele>959.260318</ele>
        <time>2026-08-29T11:05:12.000Z</time>
      </trkpt>
      <trkpt lat="44.95422" lon="5.75982">
        <ele>959.360035</ele>
        <time>2026-08-29T11:05:13.000Z</time>
      </trkpt>
      <trkpt lat="44.95423" lon="5.75978">
        <ele>959.41354</ele>
        <time>2026-08-29T11:05:14.000Z</time>
      </trkpt>
      <trkpt lat="44.95424" lon="5.75974">
        <ele>959.465545</ele>
        <time>2026-08-29T11:05:15.000Z</time>
      </trkpt>
      <trkpt lat="44.95425" lon="5.7597">
        <ele>959.517975</ele>
        <time>2026-08-29T11:05:16.000Z</time>
      </trkpt>
      <trkpt lat="44.95427" lon="5.75965">
        <ele>959.571038</ele>
        <time>2026-08-29T11:05:17.000Z</time>
      </trkpt>
      <trkpt lat="44.95428" lon="5.75961">
        <ele>959.625165</ele>
        <time>2026-08-29T11:05:18.000Z</time>
      </trkpt>
      <trkpt lat="44.95429" lon="5.75957">
        <ele>959.679954</ele>
        <time>2026-08-29T11:05:19.000Z</time>
      </trkpt>
      <trkpt lat="44.95431" lon="5.75952">
        <ele>959.736488</ele>
        <time>2026-08-29T11:05:20.000Z</time>
      </trkpt>
      <trkpt lat="44.95432" lon="5.75948">
        <ele>959.792331</ele>
        <time>2026-08-29T11:05:21.000Z</time>
      </trkpt>
      <trkpt lat="44.95433" lon="5.75943">
        <ele>959.847996</ele>
        <time>2026-08-29T11:05:22.000Z</time>
      </trkpt>
      <trkpt lat="44.95435" lon="5.75939">
        <ele>959.905574</ele>
        <time>2026-08-29T11:05:23.000Z</time>
      </trkpt>
      <trkpt lat="44.95436" lon="5.75935">
        <ele>959.962837</ele>
        <time>2026-08-29T11:05:24.000Z</time>
      </trkpt>
      <trkpt lat="44.95438" lon="5.7593">
        <ele>960.01868</ele>
        <time>2026-08-29T11:05:25.000Z</time>
      </trkpt>
      <trkpt lat="44.95439" lon="5.75926">
        <ele>960.074523</ele>
        <time>2026-08-29T11:05:26.000Z</time>
      </trkpt>
      <trkpt lat="44.95441" lon="5.75921">
        <ele>960.131056</ele>
        <time>2026-08-29T11:05:27.000Z</time>
      </trkpt>
      <trkpt lat="44.95442" lon="5.75917">
        <ele>960.187319</ele>
        <time>2026-08-29T11:05:28.000Z</time>
      </trkpt>
      <trkpt lat="44.95443" lon="5.75912">
        <ele>960.244654</ele>
        <time>2026-08-29T11:05:29.000Z</time>
      </trkpt>
      <trkpt lat="44.95445" lon="5.75908">
        <ele>960.300917</ele>
        <time>2026-08-29T11:05:30.000Z</time>
      </trkpt>
      <trkpt lat="44.95446" lon="5.75903">
        <ele>960.359544</ele>
        <time>2026-08-29T11:05:31.000Z</time>
      </trkpt>
      <trkpt lat="44.95448" lon="5.75899">
        <ele>960.418172</ele>
        <time>2026-08-29T11:05:32.000Z</time>
      </trkpt>
      <trkpt lat="44.95449" lon="5.75894">
        <ele>960.4768</ele>
        <time>2026-08-29T11:05:33.000Z</time>
      </trkpt>
      <trkpt lat="44.95451" lon="5.75889">
        <ele>960.536131</ele>
        <time>2026-08-29T11:05:34.000Z</time>
      </trkpt>
      <trkpt lat="44.95452" lon="5.75885">
        <ele>960.596227</ele>
        <time>2026-08-29T11:05:35.000Z</time>
      </trkpt>
      <trkpt lat="44.95453" lon="5.7588">
        <ele>960.653562</ele>
        <time>2026-08-29T11:05:36.000Z</time>
      </trkpt>
      <trkpt lat="44.95455" lon="5.75875">
        <ele>960.714136</ele>
        <time>2026-08-29T11:05:37.000Z</time>
      </trkpt>
      <trkpt lat="44.95456" lon="5.7587">
        <ele>960.773641</ele>
        <time>2026-08-29T11:05:38.000Z</time>
      </trkpt>
      <trkpt lat="44.95457" lon="5.75865">
        <ele>960.832044</ele>
        <time>2026-08-29T11:05:39.000Z</time>
      </trkpt>
      <trkpt lat="44.95458" lon="5.7586">
        <ele>960.892187</ele>
        <time>2026-08-29T11:05:40.000Z</time>
      </trkpt>
      <trkpt lat="44.95459" lon="5.75855">
        <ele>960.951692</ele>
        <time>2026-08-29T11:05:41.000Z</time>
      </trkpt>
      <trkpt lat="44.9546" lon="5.7585">
        <ele>961.013408</ele>
        <time>2026-08-29T11:05:42.000Z</time>
      </trkpt>
      <trkpt lat="44.95461" lon="5.75845">
        <ele>961.075619</ele>
        <time>2026-08-29T11:05:43.000Z</time>
      </trkpt>
      <trkpt lat="44.95462" lon="5.7584">
        <ele>961.138443</ele>
        <time>2026-08-29T11:05:44.000Z</time>
      </trkpt>
      <trkpt lat="44.95463" lon="5.75835">
        <ele>961.20266</ele>
        <time>2026-08-29T11:05:45.000Z</time>
      </trkpt>
      <trkpt lat="44.95464" lon="5.75829">
        <ele>961.264626</ele>
        <time>2026-08-29T11:05:46.000Z</time>
      </trkpt>
      <trkpt lat="44.95465" lon="5.75824">
        <ele>961.326341</ele>
        <time>2026-08-29T11:05:47.000Z</time>
      </trkpt>
      <trkpt lat="44.95467" lon="5.75819">
        <ele>961.390179</ele>
        <time>2026-08-29T11:05:48.000Z</time>
      </trkpt>
      <trkpt lat="44.95468" lon="5.75814">
        <ele>961.451894</ele>
        <time>2026-08-29T11:05:49.000Z</time>
      </trkpt>
      <trkpt lat="44.95469" lon="5.75809">
        <ele>961.513152</ele>
        <time>2026-08-29T11:05:50.000Z</time>
      </trkpt>
      <trkpt lat="44.9547" lon="5.75804">
        <ele>961.57475</ele>
        <time>2026-08-29T11:05:51.000Z</time>
      </trkpt>
      <trkpt lat="44.9547" lon="5.75799">
        <ele>961.636716</ele>
        <time>2026-08-29T11:05:52.000Z</time>
      </trkpt>
      <trkpt lat="44.95471" lon="5.75793">
        <ele>961.699807</ele>
        <time>2026-08-29T11:05:53.000Z</time>
      </trkpt>
      <trkpt lat="44.95472" lon="5.75788">
        <ele>961.767071</ele>
        <time>2026-08-29T11:05:54.000Z</time>
      </trkpt>
      <trkpt lat="44.95473" lon="5.75782">
        <ele>961.833374</ele>
        <time>2026-08-29T11:05:55.000Z</time>
      </trkpt>
      <trkpt lat="44.95473" lon="5.75776">
        <ele>961.901845</ele>
        <time>2026-08-29T11:05:56.000Z</time>
      </trkpt>
      <trkpt lat="44.95473" lon="5.7577">
        <ele>961.972473</ele>
        <time>2026-08-29T11:05:57.000Z</time>
      </trkpt>
      <trkpt lat="44.95473" lon="5.75764">
        <ele>962.041925</ele>
        <time>2026-08-29T11:05:58.000Z</time>
      </trkpt>
      <trkpt lat="44.95473" lon="5.75758">
        <ele>962.112534</ele>
        <time>2026-08-29T11:05:59.000Z</time>
      </trkpt>
      <trkpt lat="44.95473" lon="5.75751">
        <ele>962.189002</ele>
        <time>2026-08-29T11:06:00.000Z</time>
      </trkpt>
      <trkpt lat="44.95472" lon="5.75744">
        <ele>962.267985</ele>
        <time>2026-08-29T11:06:01.000Z</time>
      </trkpt>
      <trkpt lat="44.95472" lon="5.75737">
        <ele>962.173755</ele>
        <time>2026-08-29T11:06:02.000Z</time>
      </trkpt>
      <trkpt lat="44.95471" lon="5.7573">
        <ele>962.050575</ele>
        <time>2026-08-29T11:06:03.000Z</time>
      </trkpt>
      <trkpt lat="44.95469" lon="5.75723">
        <ele>961.920942</ele>
        <time>2026-08-29T11:06:04.000Z</time>
      </trkpt>
      <trkpt lat="44.95468" lon="5.75715">
        <ele>961.789434</ele>
        <time>2026-08-29T11:06:05.000Z</time>
      </trkpt>
      <trkpt lat="44.95466" lon="5.75708">
        <ele>961.655698</ele>
        <time>2026-08-29T11:06:06.000Z</time>
      </trkpt>
      <trkpt lat="44.95464" lon="5.757">
        <ele>961.518796</ele>
        <time>2026-08-29T11:06:07.000Z</time>
      </trkpt>
      <trkpt lat="44.95462" lon="5.75692">
        <ele>961.37627</ele>
        <time>2026-08-29T11:06:08.000Z</time>
      </trkpt>
      <trkpt lat="44.95459" lon="5.75684">
        <ele>961.229452</ele>
        <time>2026-08-29T11:06:09.000Z</time>
      </trkpt>
      <trkpt lat="44.95457" lon="5.75676">
        <ele>961.08137</ele>
        <time>2026-08-29T11:06:10.000Z</time>
      </trkpt>
      <trkpt lat="44.95455" lon="5.75668">
        <ele>960.930845</ele>
        <time>2026-08-29T11:06:11.000Z</time>
      </trkpt>
      <trkpt lat="44.95452" lon="5.75659">
        <ele>960.778764</ele>
        <time>2026-08-29T11:06:12.000Z</time>
      </trkpt>
      <trkpt lat="44.9545" lon="5.75651">
        <ele>960.620815</ele>
        <time>2026-08-29T11:06:13.000Z</time>
      </trkpt>
      <trkpt lat="44.95447" lon="5.75642">
        <ele>960.463413</ele>
        <time>2026-08-29T11:06:14.000Z</time>
      </trkpt>
      <trkpt lat="44.95444" lon="5.75634">
        <ele>960.315058</ele>
        <time>2026-08-29T11:06:15.000Z</time>
      </trkpt>
      <trkpt lat="44.95442" lon="5.75626">
        <ele>960.163222</ele>
        <time>2026-08-29T11:06:16.000Z</time>
      </trkpt>
      <trkpt lat="44.95439" lon="5.75618">
        <ele>960.010371</ele>
        <time>2026-08-29T11:06:17.000Z</time>
      </trkpt>
      <trkpt lat="44.95436" lon="5.75609">
        <ele>959.853163</ele>
        <time>2026-08-29T11:06:18.000Z</time>
      </trkpt>
      <trkpt lat="44.95433" lon="5.75601">
        <ele>959.69118</ele>
        <time>2026-08-29T11:06:19.000Z</time>
      </trkpt>
      <trkpt lat="44.95431" lon="5.75592">
        <ele>959.534413</ele>
        <time>2026-08-29T11:06:20.000Z</time>
      </trkpt>
      <trkpt lat="44.95428" lon="5.75583">
        <ele>959.380515</ele>
        <time>2026-08-29T11:06:21.000Z</time>
      </trkpt>
      <trkpt lat="44.95425" lon="5.75575">
        <ele>959.227392</ele>
        <time>2026-08-29T11:06:22.000Z</time>
      </trkpt>
      <trkpt lat="44.95422" lon="5.75567">
        <ele>959.075311</ele>
        <time>2026-08-29T11:06:23.000Z</time>
      </trkpt>
      <trkpt lat="44.9542" lon="5.75558">
        <ele>958.920208</ele>
        <time>2026-08-29T11:06:24.000Z</time>
      </trkpt>
      <trkpt lat="44.95418" lon="5.7555">
        <ele>958.770563</ele>
        <time>2026-08-29T11:06:25.000Z</time>
      </trkpt>
      <trkpt lat="44.95415" lon="5.75542">
        <ele>958.62277</ele>
        <time>2026-08-29T11:06:26.000Z</time>
      </trkpt>
      <trkpt lat="44.95412" lon="5.75534">
        <ele>958.471869</ele>
        <time>2026-08-29T11:06:27.000Z</time>
      </trkpt>
      <trkpt lat="44.95409" lon="5.75527">
        <ele>958.323748</ele>
        <time>2026-08-29T11:06:28.000Z</time>
      </trkpt>
      <trkpt lat="44.95405" lon="5.7552">
        <ele>958.1743</ele>
        <time>2026-08-29T11:06:29.000Z</time>
      </trkpt>
      <trkpt lat="44.95401" lon="5.75513">
        <ele>958.02369</ele>
        <time>2026-08-29T11:06:30.000Z</time>
      </trkpt>
      <trkpt lat="44.95396" lon="5.75507">
        <ele>957.93988</ele>
        <time>2026-08-29T11:06:31.000Z</time>
      </trkpt>
      <trkpt lat="44.95391" lon="5.75502">
        <ele>957.864709</ele>
        <time>2026-08-29T11:06:32.000Z</time>
      </trkpt>
      <trkpt lat="44.95386" lon="5.75498">
        <ele>957.79194</ele>
        <time>2026-08-29T11:06:33.000Z</time>
      </trkpt>
      <trkpt lat="44.95381" lon="5.75494">
        <ele>957.717295</ele>
        <time>2026-08-29T11:06:34.000Z</time>
      </trkpt>
      <trkpt lat="44.95376" lon="5.7549">
        <ele>957.647252</ele>
        <time>2026-08-29T11:06:35.000Z</time>
      </trkpt>
      <trkpt lat="44.95371" lon="5.75487">
        <ele>957.579798</ele>
        <time>2026-08-29T11:06:36.000Z</time>
      </trkpt>
      <trkpt lat="44.95366" lon="5.75484">
        <ele>957.511883</ele>
        <time>2026-08-29T11:06:37.000Z</time>
      </trkpt>
      <trkpt lat="44.95361" lon="5.75481">
        <ele>957.445113</ele>
        <time>2026-08-29T11:06:38.000Z</time>
      </trkpt>
      <trkpt lat="44.95356" lon="5.75478">
        <ele>957.378781</ele>
        <time>2026-08-29T11:06:39.000Z</time>
      </trkpt>
      <trkpt lat="44.95351" lon="5.75474">
        <ele>957.31355</ele>
        <time>2026-08-29T11:06:40.000Z</time>
      </trkpt>
      <trkpt lat="44.95349" lon="5.75471">
        <ele>957.269167</ele>
        <time>2026-08-29T11:06:41.000Z</time>
      </trkpt>
      <trkpt lat="44.95348" lon="5.75467">
        <ele>957.233991</ele>
        <time>2026-08-29T11:06:42.000Z</time>
      </trkpt>
      <trkpt lat="44.95349" lon="5.75462">
        <ele>957.195893</ele>
        <time>2026-08-29T11:06:43.000Z</time>
      </trkpt>
      <trkpt lat="44.9535" lon="5.75458">
        <ele>957.149938</ele>
        <time>2026-08-29T11:06:44.000Z</time>
      </trkpt>
      <trkpt lat="44.95353" lon="5.75453">
        <ele>957.09847</ele>
        <time>2026-08-29T11:06:45.000Z</time>
      </trkpt>
      <trkpt lat="44.95356" lon="5.75449">
        <ele>957.047681</ele>
        <time>2026-08-29T11:06:46.000Z</time>
      </trkpt>
      <trkpt lat="44.95358" lon="5.75444">
        <ele>956.994834</ele>
        <time>2026-08-29T11:06:47.000Z</time>
      </trkpt>
      <trkpt lat="44.95361" lon="5.75439">
        <ele>956.939882</ele>
        <time>2026-08-29T11:06:48.000Z</time>
      </trkpt>
      <trkpt lat="44.95364" lon="5.75434">
        <ele>956.884821</ele>
        <time>2026-08-29T11:06:49.000Z</time>
      </trkpt>
      <trkpt lat="44.95367" lon="5.75429">
        <ele>956.826044</ele>
        <time>2026-08-29T11:06:50.000Z</time>
      </trkpt>
      <trkpt lat="44.9537" lon="5.75423">
        <ele>956.766024</ele>
        <time>2026-08-29T11:06:51.000Z</time>
      </trkpt>
      <trkpt lat="44.95373" lon="5.75418">
        <ele>956.704649</ele>
        <time>2026-08-29T11:06:52.000Z</time>
      </trkpt>
      <trkpt lat="44.95376" lon="5.75412">
        <ele>956.64394</ele>
        <time>2026-08-29T11:06:53.000Z</time>
      </trkpt>
      <trkpt lat="44.95379" lon="5.75407">
        <ele>956.583272</ele>
        <time>2026-08-29T11:06:54.000Z</time>
      </trkpt>
      <trkpt lat="44.95381" lon="5.75401">
        <ele>956.522606</ele>
        <time>2026-08-29T11:06:55.000Z</time>
      </trkpt>
      <trkpt lat="44.95384" lon="5.75395">
        <ele>956.461231</ele>
        <time>2026-08-29T11:06:56.000Z</time>
      </trkpt>
      <trkpt lat="44.95387" lon="5.7539">
        <ele>956.401997</ele>
        <time>2026-08-29T11:06:57.000Z</time>
      </trkpt>
      <trkpt lat="44.9539" lon="5.75384">
        <ele>956.341303</ele>
        <time>2026-08-29T11:06:58.000Z</time>
      </trkpt>
      <trkpt lat="44.95393" lon="5.75378">
        <ele>956.27914</ele>
        <time>2026-08-29T11:06:59.000Z</time>
      </trkpt>
      <trkpt lat="44.95396" lon="5.75372">
        <ele>956.213484</ele>
        <time>2026-08-29T11:07:00.000Z</time>
      </trkpt>
      <trkpt lat="44.95399" lon="5.75366">
        <ele>956.147737</ele>
        <time>2026-08-29T11:07:01.000Z</time>
      </trkpt>
      <trkpt lat="44.95402" lon="5.7536">
        <ele>956.081302</ele>
        <time>2026-08-29T11:07:02.000Z</time>
      </trkpt>
      <trkpt lat="44.95406" lon="5.75353">
        <ele>956.007756</ele>
        <time>2026-08-29T11:07:03.000Z</time>
      </trkpt>
      <trkpt lat="44.9541" lon="5.75346">
        <ele>955.92993</ele>
        <time>2026-08-29T11:07:04.000Z</time>
      </trkpt>
      <trkpt lat="44.95414" lon="5.75339">
        <ele>955.852493</ele>
        <time>2026-08-29T11:07:05.000Z</time>
      </trkpt>
      <trkpt lat="44.95418" lon="5.75332">
        <ele>955.736162</ele>
        <time>2026-08-29T11:07:06.000Z</time>
      </trkpt>
      <trkpt lat="44.95422" lon="5.75326">
        <ele>955.467872</ele>
        <time>2026-08-29T11:07:07.000Z</time>
      </trkpt>
      <trkpt lat="44.95426" lon="5.75318">
        <ele>955.193334</ele>
        <time>2026-08-29T11:07:08.000Z</time>
      </trkpt>
      <trkpt lat="44.9543" lon="5.75311">
        <ele>954.912143</ele>
        <time>2026-08-29T11:07:09.000Z</time>
      </trkpt>
      <trkpt lat="44.95435" lon="5.75303">
        <ele>954.623621</ele>
        <time>2026-08-29T11:07:10.000Z</time>
      </trkpt>
      <trkpt lat="44.95439" lon="5.75295">
        <ele>954.332215</ele>
        <time>2026-08-29T11:07:11.000Z</time>
      </trkpt>
      <trkpt lat="44.95444" lon="5.75287">
        <ele>954.03278</ele>
        <time>2026-08-29T11:07:12.000Z</time>
      </trkpt>
      <trkpt lat="44.95449" lon="5.7528">
        <ele>953.735529</ele>
        <time>2026-08-29T11:07:13.000Z</time>
      </trkpt>
      <trkpt lat="44.95454" lon="5.75272">
        <ele>953.423491</ele>
        <time>2026-08-29T11:07:14.000Z</time>
      </trkpt>
      <trkpt lat="44.95459" lon="5.75264">
        <ele>953.112036</ele>
        <time>2026-08-29T11:07:15.000Z</time>
      </trkpt>
      <trkpt lat="44.95464" lon="5.75256">
        <ele>952.803295</ele>
        <time>2026-08-29T11:07:16.000Z</time>
      </trkpt>
      <trkpt lat="44.95469" lon="5.75248">
        <ele>952.49184</ele>
        <time>2026-08-29T11:07:17.000Z</time>
      </trkpt>
      <trkpt lat="44.95474" lon="5.7524">
        <ele>952.170544</ele>
        <time>2026-08-29T11:07:18.000Z</time>
      </trkpt>
      <trkpt lat="44.95479" lon="5.75231">
        <ele>951.835047</ele>
        <time>2026-08-29T11:07:19.000Z</time>
      </trkpt>
      <trkpt lat="44.95485" lon="5.75222">
        <ele>951.497362</ele>
        <time>2026-08-29T11:07:20.000Z</time>
      </trkpt>
      <trkpt lat="44.9549" lon="5.75214">
        <ele>951.162382</ele>
        <time>2026-08-29T11:07:21.000Z</time>
      </trkpt>
      <trkpt lat="44.95496" lon="5.75205">
        <ele>950.822498</ele>
        <time>2026-08-29T11:07:22.000Z</time>
      </trkpt>
      <trkpt lat="44.95501" lon="5.75196">
        <ele>950.482081</ele>
        <time>2026-08-29T11:07:23.000Z</time>
      </trkpt>
      <trkpt lat="44.95507" lon="5.75187">
        <ele>950.13181</ele>
        <time>2026-08-29T11:07:24.000Z</time>
      </trkpt>
      <trkpt lat="44.95512" lon="5.75178">
        <ele>949.783374</ele>
        <time>2026-08-29T11:07:25.000Z</time>
      </trkpt>
      <trkpt lat="44.95517" lon="5.75169">
        <ele>949.430078</ele>
        <time>2026-08-29T11:07:26.000Z</time>
      </trkpt>
      <trkpt lat="44.95523" lon="5.75159">
        <ele>949.073753</ele>
        <time>2026-08-29T11:07:27.000Z</time>
      </trkpt>
      <trkpt lat="44.95529" lon="5.7515">
        <ele>948.711458</ele>
        <time>2026-08-29T11:07:28.000Z</time>
      </trkpt>
      <trkpt lat="44.95535" lon="5.75141">
        <ele>948.350376</ele>
        <time>2026-08-29T11:07:29.000Z</time>
      </trkpt>
      <trkpt lat="44.9554" lon="5.75131">
        <ele>947.964469</ele>
        <time>2026-08-29T11:07:30.000Z</time>
      </trkpt>
      <trkpt lat="44.95546" lon="5.75122">
        <ele>947.576155</ele>
        <time>2026-08-29T11:07:31.000Z</time>
      </trkpt>
      <trkpt lat="44.95551" lon="5.75113">
        <ele>947.193091</ele>
        <time>2026-08-29T11:07:32.000Z</time>
      </trkpt>
      <trkpt lat="44.95557" lon="5.75103">
        <ele>946.820109</ele>
        <time>2026-08-29T11:07:33.000Z</time>
      </trkpt>
      <trkpt lat="44.95562" lon="5.75094">
        <ele>946.445091</ele>
        <time>2026-08-29T11:07:34.000Z</time>
      </trkpt>
      <trkpt lat="44.95568" lon="5.75085">
        <ele>946.059603</ele>
        <time>2026-08-29T11:07:35.000Z</time>
      </trkpt>
      <trkpt lat="44.95573" lon="5.75075">
        <ele>945.674115</ele>
        <time>2026-08-29T11:07:36.000Z</time>
      </trkpt>
      <trkpt lat="44.95579" lon="5.75066">
        <ele>945.290084</ele>
        <time>2026-08-29T11:07:37.000Z</time>
      </trkpt>
      <trkpt lat="44.95585" lon="5.75057">
        <ele>944.905455</ele>
        <time>2026-08-29T11:07:38.000Z</time>
      </trkpt>
      <trkpt lat="44.95591" lon="5.75048">
        <ele>944.511792</ele>
        <time>2026-08-29T11:07:39.000Z</time>
      </trkpt>
      <trkpt lat="44.95597" lon="5.75039">
        <ele>944.126489</ele>
        <time>2026-08-29T11:07:40.000Z</time>
      </trkpt>
      <trkpt lat="44.95603" lon="5.7503">
        <ele>943.732017</ele>
        <time>2026-08-29T11:07:41.000Z</time>
      </trkpt>
      <trkpt lat="44.95609" lon="5.75021">
        <ele>943.338976</ele>
        <time>2026-08-29T11:07:42.000Z</time>
      </trkpt>
      <trkpt lat="44.95616" lon="5.75013">
        <ele>942.940868</ele>
        <time>2026-08-29T11:07:43.000Z</time>
      </trkpt>
      <trkpt lat="44.95623" lon="5.75005">
        <ele>942.543664</ele>
        <time>2026-08-29T11:07:44.000Z</time>
      </trkpt>
      <trkpt lat="44.95631" lon="5.74998">
        <ele>942.133948</ele>
        <time>2026-08-29T11:07:45.000Z</time>
      </trkpt>
      <trkpt lat="44.95638" lon="5.7499">
        <ele>941.724176</ele>
        <time>2026-08-29T11:07:46.000Z</time>
      </trkpt>
      <trkpt lat="44.95646" lon="5.74984">
        <ele>941.320039</ele>
        <time>2026-08-29T11:07:47.000Z</time>
      </trkpt>
      <trkpt lat="44.95654" lon="5.74978">
        <ele>940.924935</ele>
        <time>2026-08-29T11:07:48.000Z</time>
      </trkpt>
      <trkpt lat="44.95662" lon="5.74973">
        <ele>940.522099</ele>
        <time>2026-08-29T11:07:49.000Z</time>
      </trkpt>
      <trkpt lat="44.95671" lon="5.74967">
        <ele>940.083748</ele>
        <time>2026-08-29T11:07:50.000Z</time>
      </trkpt>
      <trkpt lat="44.95679" lon="5.74961">
        <ele>939.626303</ele>
        <time>2026-08-29T11:07:51.000Z</time>
      </trkpt>
      <trkpt lat="44.95687" lon="5.74955">
        <ele>939.178684</ele>
        <time>2026-08-29T11:07:52.000Z</time>
      </trkpt>
      <trkpt lat="44.95694" lon="5.74947">
        <ele>938.724271</ele>
        <time>2026-08-29T11:07:53.000Z</time>
      </trkpt>
      <trkpt lat="44.95702" lon="5.74939">
        <ele>938.265538</ele>
        <time>2026-08-29T11:07:54.000Z</time>
      </trkpt>
      <trkpt lat="44.95709" lon="5.74931">
        <ele>937.80468</ele>
        <time>2026-08-29T11:07:55.000Z</time>
      </trkpt>
      <trkpt lat="44.95717" lon="5.74923">
        <ele>937.331329</ele>
        <time>2026-08-29T11:07:56.000Z</time>
      </trkpt>
      <trkpt lat="44.95724" lon="5.74914">
        <ele>936.858419</ele>
        <time>2026-08-29T11:07:57.000Z</time>
      </trkpt>
      <trkpt lat="44.95732" lon="5.74906">
        <ele>936.383709</ele>
        <time>2026-08-29T11:07:58.000Z</time>
      </trkpt>
      <trkpt lat="44.9574" lon="5.74898">
        <ele>935.902637</ele>
        <time>2026-08-29T11:07:59.000Z</time>
      </trkpt>
      <trkpt lat="44.95747" lon="5.74889">
        <ele>935.427099</ele>
        <time>2026-08-29T11:08:00.000Z</time>
      </trkpt>
      <trkpt lat="44.95755" lon="5.7488">
        <ele>934.951561</ele>
        <time>2026-08-29T11:08:01.000Z</time>
      </trkpt>
      <trkpt lat="44.95762" lon="5.74872">
        <ele>934.478941</ele>
        <time>2026-08-29T11:08:02.000Z</time>
      </trkpt>
      <trkpt lat="44.95771" lon="5.74865">
        <ele>934.000233</ele>
        <time>2026-08-29T11:08:03.000Z</time>
      </trkpt>
      <trkpt lat="44.95779" lon="5.74858">
        <ele>933.518321</ele>
        <time>2026-08-29T11:08:04.000Z</time>
      </trkpt>
      <trkpt lat="44.95788" lon="5.74851">
        <ele>933.023676</ele>
        <time>2026-08-29T11:08:05.000Z</time>
      </trkpt>
      <trkpt lat="44.95796" lon="5.74844">
        <ele>932.530763</ele>
        <time>2026-08-29T11:08:06.000Z</time>
      </trkpt>
      <trkpt lat="44.95805" lon="5.74836">
        <ele>932.036824</ele>
        <time>2026-08-29T11:08:07.000Z</time>
      </trkpt>
      <trkpt lat="44.95814" lon="5.74829">
        <ele>931.544669</ele>
        <time>2026-08-29T11:08:08.000Z</time>
      </trkpt>
      <trkpt lat="44.95822" lon="5.74822">
        <ele>930.939528</ele>
        <time>2026-08-29T11:08:09.000Z</time>
      </trkpt>
      <trkpt lat="44.95831" lon="5.74814">
        <ele>930.322341</ele>
        <time>2026-08-29T11:08:10.000Z</time>
      </trkpt>
      <trkpt lat="44.95839" lon="5.74806">
        <ele>929.708004</ele>
        <time>2026-08-29T11:08:11.000Z</time>
      </trkpt>
      <trkpt lat="44.95848" lon="5.74798">
        <ele>929.084557</ele>
        <time>2026-08-29T11:08:12.000Z</time>
      </trkpt>
      <trkpt lat="44.95856" lon="5.74789">
        <ele>928.46486</ele>
        <time>2026-08-29T11:08:13.000Z</time>
      </trkpt>
      <trkpt lat="44.95863" lon="5.74779">
        <ele>927.852688</ele>
        <time>2026-08-29T11:08:14.000Z</time>
      </trkpt>
      <trkpt lat="44.95869" lon="5.74768">
        <ele>927.245499</ele>
        <time>2026-08-29T11:08:15.000Z</time>
      </trkpt>
      <trkpt lat="44.95875" lon="5.74756">
        <ele>926.645458</ele>
        <time>2026-08-29T11:08:16.000Z</time>
      </trkpt>
      <trkpt lat="44.9588" lon="5.74744">
        <ele>926.063022</ele>
        <time>2026-08-29T11:08:17.000Z</time>
      </trkpt>
      <trkpt lat="44.95885" lon="5.74734">
        <ele>925.528426</ele>
        <time>2026-08-29T11:08:18.000Z</time>
      </trkpt>
      <trkpt lat="44.95889" lon="5.74724">
        <ele>925.024519</ele>
        <time>2026-08-29T11:08:19.000Z</time>
      </trkpt>
      <trkpt lat="44.95894" lon="5.74714">
        <ele>924.51547</ele>
        <time>2026-08-29T11:08:20.000Z</time>
      </trkpt>
      <trkpt lat="44.95899" lon="5.74704">
        <ele>923.992589</ele>
        <time>2026-08-29T11:08:21.000Z</time>
      </trkpt>
      <trkpt lat="44.95904" lon="5.74694">
        <ele>923.479379</ele>
        <time>2026-08-29T11:08:22.000Z</time>
      </trkpt>
      <trkpt lat="44.9591" lon="5.74687">
        <ele>922.990314</ele>
        <time>2026-08-29T11:08:23.000Z</time>
      </trkpt>
      <trkpt lat="44.95916" lon="5.74681">
        <ele>922.533154</ele>
        <time>2026-08-29T11:08:24.000Z</time>
      </trkpt>
      <trkpt lat="44.95924" lon="5.74678">
        <ele>922.062272</ele>
        <time>2026-08-29T11:08:25.000Z</time>
      </trkpt>
      <trkpt lat="44.95932" lon="5.74675">
        <ele>921.585527</ele>
        <time>2026-08-29T11:08:26.000Z</time>
      </trkpt>
      <trkpt lat="44.95939" lon="5.74672">
        <ele>921.090783</ele>
        <time>2026-08-29T11:08:27.000Z</time>
      </trkpt>
      <trkpt lat="44.95948" lon="5.74669">
        <ele>920.574407</ele>
        <time>2026-08-29T11:08:28.000Z</time>
      </trkpt>
      <trkpt lat="44.95957" lon="5.74665">
        <ele>920.107863</ele>
        <time>2026-08-29T11:08:29.000Z</time>
      </trkpt>
      <trkpt lat="44.95965" lon="5.74662">
        <ele>919.647345</ele>
        <time>2026-08-29T11:08:30.000Z</time>
      </trkpt>
      <trkpt lat="44.95974" lon="5.74658">
        <ele>919.166729</ele>
        <time>2026-08-29T11:08:31.000Z</time>
      </trkpt>
      <trkpt lat="44.95983" lon="5.74655">
        <ele>918.675084</ele>
        <time>2026-08-29T11:08:32.000Z</time>
      </trkpt>
      <trkpt lat="44.95992" lon="5.74651">
        <ele>918.191463</ele>
        <time>2026-08-29T11:08:33.000Z</time>
      </trkpt>
      <trkpt lat="44.96001" lon="5.74648">
        <ele>917.715877</ele>
        <time>2026-08-29T11:08:34.000Z</time>
      </trkpt>
      <trkpt lat="44.9601" lon="5.74644">
        <ele>917.224233</ele>
        <time>2026-08-29T11:08:35.000Z</time>
      </trkpt>
      <trkpt lat="44.96019" lon="5.7464">
        <ele>916.723519</ele>
        <time>2026-08-29T11:08:36.000Z</time>
      </trkpt>
      <trkpt lat="44.96028" lon="5.74636">
        <ele>916.216748</ele>
        <time>2026-08-29T11:08:37.000Z</time>
      </trkpt>
      <trkpt lat="44.96038" lon="5.74633">
        <ele>915.704011</ele>
        <time>2026-08-29T11:08:38.000Z</time>
      </trkpt>
      <trkpt lat="44.96047" lon="5.7463">
        <ele>915.196556</ele>
        <time>2026-08-29T11:08:39.000Z</time>
      </trkpt>
      <trkpt lat="44.96057" lon="5.74628">
        <ele>914.68862</ele>
        <time>2026-08-29T11:08:40.000Z</time>
      </trkpt>
      <trkpt lat="44.96067" lon="5.74629">
        <ele>914.182737</ele>
        <time>2026-08-29T11:08:41.000Z</time>
      </trkpt>
      <trkpt lat="44.96077" lon="5.74629">
        <ele>913.661312</ele>
        <time>2026-08-29T11:08:42.000Z</time>
      </trkpt>
      <trkpt lat="44.96087" lon="5.74628">
        <ele>913.132266</ele>
        <time>2026-08-29T11:08:43.000Z</time>
      </trkpt>
      <trkpt lat="44.96096" lon="5.74624">
        <ele>912.610513</ele>
        <time>2026-08-29T11:08:44.000Z</time>
      </trkpt>
      <trkpt lat="44.96106" lon="5.74618">
        <ele>912.080147</ele>
        <time>2026-08-29T11:08:45.000Z</time>
      </trkpt>
      <trkpt lat="44.96115" lon="5.74612">
        <ele>911.536186</ele>
        <time>2026-08-29T11:08:46.000Z</time>
      </trkpt>
      <trkpt lat="44.96124" lon="5.74605">
        <ele>910.990994</ele>
        <time>2026-08-29T11:08:47.000Z</time>
      </trkpt>
      <trkpt lat="44.96132" lon="5.74597">
        <ele>910.432762</ele>
        <time>2026-08-29T11:08:48.000Z</time>
      </trkpt>
      <trkpt lat="44.9614" lon="5.74589">
        <ele>909.879095</ele>
        <time>2026-08-29T11:08:49.000Z</time>
      </trkpt>
      <trkpt lat="44.96148" lon="5.74581">
        <ele>909.32746</ele>
        <time>2026-08-29T11:08:50.000Z</time>
      </trkpt>
      <trkpt lat="44.96156" lon="5.74572">
        <ele>908.767388</ele>
        <time>2026-08-29T11:08:51.000Z</time>
      </trkpt>
      <trkpt lat="44.96164" lon="5.74562">
        <ele>908.19541</ele>
        <time>2026-08-29T11:08:52.000Z</time>
      </trkpt>
      <trkpt lat="44.96171" lon="5.74552">
        <ele>907.616002</ele>
        <time>2026-08-29T11:08:53.000Z</time>
      </trkpt>
      <trkpt lat="44.96179" lon="5.74542">
        <ele>907.047163</ele>
        <time>2026-08-29T11:08:54.000Z</time>
      </trkpt>
      <trkpt lat="44.96185" lon="5.74531">
        <ele>906.485721</ele>
        <time>2026-08-29T11:08:55.000Z</time>
      </trkpt>
      <trkpt lat="44.9619" lon="5.74519">
        <ele>905.92722</ele>
        <time>2026-08-29T11:08:56.000Z</time>
      </trkpt>
      <trkpt lat="44.96194" lon="5.74505">
        <ele>905.356651</ele>
        <time>2026-08-29T11:08:57.000Z</time>
      </trkpt>
      <trkpt lat="44.96198" lon="5.74491">
        <ele>904.770423</ele>
        <time>2026-08-29T11:08:58.000Z</time>
      </trkpt>
      <trkpt lat="44.96201" lon="5.74477">
        <ele>904.175512</ele>
        <time>2026-08-29T11:08:59.000Z</time>
      </trkpt>
      <trkpt lat="44.96202" lon="5.74462">
        <ele>903.577761</ele>
        <time>2026-08-29T11:09:00.000Z</time>
      </trkpt>
      <trkpt lat="44.96203" lon="5.74447">
        <ele>902.976995</ele>
        <time>2026-08-29T11:09:01.000Z</time>
      </trkpt>
      <trkpt lat="44.96203" lon="5.74431">
        <ele>902.368878</ele>
        <time>2026-08-29T11:09:02.000Z</time>
      </trkpt>
      <trkpt lat="44.96202" lon="5.74416">
        <ele>901.75274</ele>
        <time>2026-08-29T11:09:03.000Z</time>
      </trkpt>
      <trkpt lat="44.96203" lon="5.744">
        <ele>901.128828</ele>
        <time>2026-08-29T11:09:04.000Z</time>
      </trkpt>
      <trkpt lat="44.96203" lon="5.74384">
        <ele>900.490236</ele>
        <time>2026-08-29T11:09:05.000Z</time>
      </trkpt>
      <trkpt lat="44.96203" lon="5.74369">
        <ele>899.863415</ele>
        <time>2026-08-29T11:09:06.000Z</time>
      </trkpt>
      <trkpt lat="44.96204" lon="5.74355">
        <ele>899.277462</ele>
        <time>2026-08-29T11:09:07.000Z</time>
      </trkpt>
      <trkpt lat="44.96204" lon="5.74342">
        <ele>898.748758</ele>
        <time>2026-08-29T11:09:08.000Z</time>
      </trkpt>
      <trkpt lat="44.96205" lon="5.74329">
        <ele>898.243398</ele>
        <time>2026-08-29T11:09:09.000Z</time>
      </trkpt>
      <trkpt lat="44.96205" lon="5.74317">
        <ele>897.745223</ele>
        <time>2026-08-29T11:09:10.000Z</time>
      </trkpt>
      <trkpt lat="44.96206" lon="5.74304">
        <ele>897.220585</ele>
        <time>2026-08-29T11:09:11.000Z</time>
      </trkpt>
      <trkpt lat="44.96206" lon="5.74291">
        <ele>896.695286</ele>
        <time>2026-08-29T11:09:12.000Z</time>
      </trkpt>
      <trkpt lat="44.96207" lon="5.74278">
        <ele>896.16464</ele>
        <time>2026-08-29T11:09:13.000Z</time>
      </trkpt>
      <trkpt lat="44.96211" lon="5.74266">
        <ele>895.612665</ele>
        <time>2026-08-29T11:09:14.000Z</time>
      </trkpt>
      <trkpt lat="44.96216" lon="5.74254">
        <ele>895.050884</ele>
        <time>2026-08-29T11:09:15.000Z</time>
      </trkpt>
      <trkpt lat="44.96222" lon="5.74243">
        <ele>894.480561</ele>
        <time>2026-08-29T11:09:16.000Z</time>
      </trkpt>
      <trkpt lat="44.96229" lon="5.74233">
        <ele>893.911498</ele>
        <time>2026-08-29T11:09:17.000Z</time>
      </trkpt>
      <trkpt lat="44.96236" lon="5.74223">
        <ele>893.333584</ele>
        <time>2026-08-29T11:09:18.000Z</time>
      </trkpt>
      <trkpt lat="44.96241" lon="5.74211">
        <ele>892.7653</ele>
        <time>2026-08-29T11:09:19.000Z</time>
      </trkpt>
      <trkpt lat="44.96245" lon="5.74198">
        <ele>892.197152</ele>
        <time>2026-08-29T11:09:20.000Z</time>
      </trkpt>
      <trkpt lat="44.96247" lon="5.74184">
        <ele>891.62761</ele>
        <time>2026-08-29T11:09:21.000Z</time>
      </trkpt>
      <trkpt lat="44.96246" lon="5.7417">
        <ele>891.056523</ele>
        <time>2026-08-29T11:09:22.000Z</time>
      </trkpt>
      <trkpt lat="44.96243" lon="5.74157">
        <ele>890.519508</ele>
        <time>2026-08-29T11:09:23.000Z</time>
      </trkpt>
      <trkpt lat="44.96238" lon="5.74145">
        <ele>889.987843</ele>
        <time>2026-08-29T11:09:24.000Z</time>
      </trkpt>
      <trkpt lat="44.96231" lon="5.74135">
        <ele>889.453671</ele>
        <time>2026-08-29T11:09:25.000Z</time>
      </trkpt>
      <trkpt lat="44.96222" lon="5.74128">
        <ele>888.919523</ele>
        <time>2026-08-29T11:09:26.000Z</time>
      </trkpt>
      <trkpt lat="44.96213" lon="5.74122">
        <ele>888.379325</ele>
        <time>2026-08-29T11:09:27.000Z</time>
      </trkpt>
      <trkpt lat="44.96203" lon="5.74118">
        <ele>887.84002</ele>
        <time>2026-08-29T11:09:28.000Z</time>
      </trkpt>
      <trkpt lat="44.96193" lon="5.74115">
        <ele>887.291269</ele>
        <time>2026-08-29T11:09:29.000Z</time>
      </trkpt>
      <trkpt lat="44.96183" lon="5.74111">
        <ele>886.729464</ele>
        <time>2026-08-29T11:09:30.000Z</time>
      </trkpt>
      <trkpt lat="44.96173" lon="5.74106">
        <ele>886.168741</ele>
        <time>2026-08-29T11:09:31.000Z</time>
      </trkpt>
      <trkpt lat="44.96164" lon="5.741">
        <ele>885.615738</ele>
        <time>2026-08-29T11:09:32.000Z</time>
      </trkpt>
      <trkpt lat="44.96153" lon="5.74094">
        <ele>885.011085</ele>
        <time>2026-08-29T11:09:33.000Z</time>
      </trkpt>
      <trkpt lat="44.96145" lon="5.74085">
        <ele>884.458989</ele>
        <time>2026-08-29T11:09:34.000Z</time>
      </trkpt>
      <trkpt lat="44.96138" lon="5.74075">
        <ele>883.926329</ele>
        <time>2026-08-29T11:09:35.000Z</time>
      </trkpt>
      <trkpt lat="44.96135" lon="5.74061">
        <ele>883.380476</ele>
        <time>2026-08-29T11:09:36.000Z</time>
      </trkpt>
      <trkpt lat="44.96133" lon="5.74046">
        <ele>882.818895</ele>
        <time>2026-08-29T11:09:37.000Z</time>
      </trkpt>
      <trkpt lat="44.96134" lon="5.74032">
        <ele>882.262653</ele>
        <time>2026-08-29T11:09:38.000Z</time>
      </trkpt>
      <trkpt lat="44.96136" lon="5.74017">
        <ele>881.704381</ele>
        <time>2026-08-29T11:09:39.000Z</time>
      </trkpt>
      <trkpt lat="44.9614" lon="5.74004">
        <ele>881.150655</ele>
        <time>2026-08-29T11:09:40.000Z</time>
      </trkpt>
      <trkpt lat="44.96146" lon="5.73993">
        <ele>880.575931</ele>
        <time>2026-08-29T11:09:41.000Z</time>
      </trkpt>
      <trkpt lat="44.96152" lon="5.73981">
        <ele>879.978056</ele>
        <time>2026-08-29T11:09:42.000Z</time>
      </trkpt>
      <trkpt lat="44.96158" lon="5.73968">
        <ele>879.38656</ele>
        <time>2026-08-29T11:09:43.000Z</time>
      </trkpt>
      <trkpt lat="44.96164" lon="5.73956">
        <ele>878.78875</ele>
        <time>2026-08-29T11:09:44.000Z</time>
      </trkpt>
      <trkpt lat="44.9617" lon="5.73944">
        <ele>878.190949</ele>
        <time>2026-08-29T11:09:45.000Z</time>
      </trkpt>
      <trkpt lat="44.96176" lon="5.73932">
        <ele>877.589288</ele>
        <time>2026-08-29T11:09:46.000Z</time>
      </trkpt>
      <trkpt lat="44.9618" lon="5.73919">
        <ele>876.999601</ele>
        <time>2026-08-29T11:09:47.000Z</time>
      </trkpt>
      <trkpt lat="44.96184" lon="5.73905">
        <ele>876.417634</ele>
        <time>2026-08-29T11:09:48.000Z</time>
      </trkpt>
      <trkpt lat="44.96186" lon="5.73891">
        <ele>875.834822</ele>
        <time>2026-08-29T11:09:49.000Z</time>
      </trkpt>
      <trkpt lat="44.96188" lon="5.73877">
        <ele>875.251159</ele>
        <time>2026-08-29T11:09:50.000Z</time>
      </trkpt>
      <trkpt lat="44.96189" lon="5.73863">
        <ele>874.665752</ele>
        <time>2026-08-29T11:09:51.000Z</time>
      </trkpt>
      <trkpt lat="44.96188" lon="5.73849">
        <ele>874.088397</ele>
        <time>2026-08-29T11:09:52.000Z</time>
      </trkpt>
      <trkpt lat="44.96185" lon="5.73836">
        <ele>873.548607</ele>
        <time>2026-08-29T11:09:53.000Z</time>
      </trkpt>
      <trkpt lat="44.9618" lon="5.73825">
        <ele>872.993024</ele>
        <time>2026-08-29T11:09:54.000Z</time>
      </trkpt>
      <trkpt lat="44.96173" lon="5.73814">
        <ele>872.426722</ele>
        <time>2026-08-29T11:09:55.000Z</time>
      </trkpt>
      <trkpt lat="44.96167" lon="5.73803">
        <ele>871.858089</ele>
        <time>2026-08-29T11:09:56.000Z</time>
      </trkpt>
      <trkpt lat="44.96162" lon="5.73791">
        <ele>871.286589</ele>
        <time>2026-08-29T11:09:57.000Z</time>
      </trkpt>
      <trkpt lat="44.96157" lon="5.73778">
        <ele>870.720933</ele>
        <time>2026-08-29T11:09:58.000Z</time>
      </trkpt>
      <trkpt lat="44.96155" lon="5.73764">
        <ele>870.153286</ele>
        <time>2026-08-29T11:09:59.000Z</time>
      </trkpt>
      <trkpt lat="44.96154" lon="5.7375">
        <ele>869.573776</ele>
        <time>2026-08-29T11:10:00.000Z</time>
      </trkpt>
      <trkpt lat="44.96156" lon="5.73735">
        <ele>868.98584</ele>
        <time>2026-08-29T11:10:01.000Z</time>
      </trkpt>
      <trkpt lat="44.9616" lon="5.73722">
        <ele>868.398755</ele>
        <time>2026-08-29T11:10:02.000Z</time>
      </trkpt>
      <trkpt lat="44.96164" lon="5.73708">
        <ele>867.819027</ele>
        <time>2026-08-29T11:10:03.000Z</time>
      </trkpt>
      <trkpt lat="44.96169" lon="5.73695">
        <ele>867.240537</ele>
        <time>2026-08-29T11:10:04.000Z</time>
      </trkpt>
      <trkpt lat="44.96173" lon="5.73682">
        <ele>866.660737</ele>
        <time>2026-08-29T11:10:05.000Z</time>
      </trkpt>
      <trkpt lat="44.96177" lon="5.73669">
        <ele>866.086296</ele>
        <time>2026-08-29T11:10:06.000Z</time>
      </trkpt>
      <trkpt lat="44.9618" lon="5.73655">
        <ele>865.511005</ele>
        <time>2026-08-29T11:10:07.000Z</time>
      </trkpt>
      <trkpt lat="44.96181" lon="5.7364">
        <ele>864.940095</ele>
        <time>2026-08-29T11:10:08.000Z</time>
      </trkpt>
      <trkpt lat="44.96181" lon="5.73626">
        <ele>864.369167</ele>
        <time>2026-08-29T11:10:09.000Z</time>
      </trkpt>
      <trkpt lat="44.9618" lon="5.73612">
        <ele>863.796829</ele>
        <time>2026-08-29T11:10:10.000Z</time>
      </trkpt>
      <trkpt lat="44.96177" lon="5.73598">
        <ele>863.224383</ele>
        <time>2026-08-29T11:10:11.000Z</time>
      </trkpt>
      <trkpt lat="44.96175" lon="5.73583">
        <ele>862.644246</ele>
        <time>2026-08-29T11:10:12.000Z</time>
      </trkpt>
      <trkpt lat="44.96173" lon="5.73569">
        <ele>862.064783</ele>
        <time>2026-08-29T11:10:13.000Z</time>
      </trkpt>
      <trkpt lat="44.96174" lon="5.73554">
        <ele>861.469144</ele>
        <time>2026-08-29T11:10:14.000Z</time>
      </trkpt>
      <trkpt lat="44.96176" lon="5.73539">
        <ele>860.876521</ele>
        <time>2026-08-29T11:10:15.000Z</time>
      </trkpt>
      <trkpt lat="44.96178" lon="5.73524">
        <ele>860.327037</ele>
        <time>2026-08-29T11:10:16.000Z</time>
      </trkpt>
      <trkpt lat="44.96181" lon="5.7351">
        <ele>859.775247</ele>
        <time>2026-08-29T11:10:17.000Z</time>
      </trkpt>
      <trkpt lat="44.96185" lon="5.73496">
        <ele>859.221927</ele>
        <time>2026-08-29T11:10:18.000Z</time>
      </trkpt>
      <trkpt lat="44.96187" lon="5.73481">
        <ele>858.663848</ele>
        <time>2026-08-29T11:10:19.000Z</time>
      </trkpt>
      <trkpt lat="44.9619" lon="5.73466">
        <ele>858.104815</ele>
        <time>2026-08-29T11:10:20.000Z</time>
      </trkpt>
      <trkpt lat="44.96192" lon="5.73451">
        <ele>857.531406</ele>
        <time>2026-08-29T11:10:21.000Z</time>
      </trkpt>
      <trkpt lat="44.96194" lon="5.73435">
        <ele>856.950207</ele>
        <time>2026-08-29T11:10:22.000Z</time>
      </trkpt>
      <trkpt lat="44.96196" lon="5.7342">
        <ele>856.373521</ele>
        <time>2026-08-29T11:10:23.000Z</time>
      </trkpt>
      <trkpt lat="44.96198" lon="5.73404">
        <ele>855.808547</ele>
        <time>2026-08-29T11:10:24.000Z</time>
      </trkpt>
      <trkpt lat="44.96199" lon="5.7339">
        <ele>855.285411</ele>
        <time>2026-08-29T11:10:25.000Z</time>
      </trkpt>
      <trkpt lat="44.96198" lon="5.73376">
        <ele>854.745621</ele>
        <time>2026-08-29T11:10:26.000Z</time>
      </trkpt>
      <trkpt lat="44.96197" lon="5.73361">
        <ele>854.221273</ele>
        <time>2026-08-29T11:10:27.000Z</time>
      </trkpt>
      <trkpt lat="44.96195" lon="5.73347">
        <ele>853.667143</ele>
        <time>2026-08-29T11:10:28.000Z</time>
      </trkpt>
      <trkpt lat="44.96195" lon="5.73331">
        <ele>853.106157</ele>
        <time>2026-08-29T11:10:29.000Z</time>
      </trkpt>
      <trkpt lat="44.96195" lon="5.73316">
        <ele>852.551412</ele>
        <time>2026-08-29T11:10:30.000Z</time>
      </trkpt>
      <trkpt lat="44.96197" lon="5.73301">
        <ele>851.979206</ele>
        <time>2026-08-29T11:10:31.000Z</time>
      </trkpt>
      <trkpt lat="44.96199" lon="5.73285">
        <ele>851.376988</ele>
        <time>2026-08-29T11:10:32.000Z</time>
      </trkpt>
      <trkpt lat="44.96202" lon="5.7327">
        <ele>850.753981</ele>
        <time>2026-08-29T11:10:33.000Z</time>
      </trkpt>
      <trkpt lat="44.96203" lon="5.73254">
        <ele>850.147913</ele>
        <time>2026-08-29T11:10:34.000Z</time>
      </trkpt>
      <trkpt lat="44.96204" lon="5.7324">
        <ele>849.581819</ele>
        <time>2026-08-29T11:10:35.000Z</time>
      </trkpt>
      <trkpt lat="44.96204" lon="5.73226">
        <ele>849.032084</ele>
        <time>2026-08-29T11:10:36.000Z</time>
      </trkpt>
      <trkpt lat="44.96204" lon="5.73212">
        <ele>848.478338</ele>
        <time>2026-08-29T11:10:37.000Z</time>
      </trkpt>
      <trkpt lat="44.96205" lon="5.73199">
        <ele>847.953733</ele>
        <time>2026-08-29T11:10:38.000Z</time>
      </trkpt>
      <trkpt lat="44.96208" lon="5.73186">
        <ele>847.431787</ele>
        <time>2026-08-29T11:10:39.000Z</time>
      </trkpt>
      <trkpt lat="44.96214" lon="5.73176">
        <ele>846.897201</ele>
        <time>2026-08-29T11:10:40.000Z</time>
      </trkpt>
      <trkpt lat="44.96223" lon="5.73168">
        <ele>846.345256</ele>
        <time>2026-08-29T11:10:41.000Z</time>
      </trkpt>
      <trkpt lat="44.96233" lon="5.73164">
        <ele>845.761681</ele>
        <time>2026-08-29T11:10:42.000Z</time>
      </trkpt>
      <trkpt lat="44.96243" lon="5.7316">
        <ele>845.152219</ele>
        <time>2026-08-29T11:10:43.000Z</time>
      </trkpt>
      <trkpt lat="44.96254" lon="5.73158">
        <ele>844.537445</ele>
        <time>2026-08-29T11:10:44.000Z</time>
      </trkpt>
      <trkpt lat="44.96265" lon="5.73154">
        <ele>843.911753</ele>
        <time>2026-08-29T11:10:45.000Z</time>
      </trkpt>
      <trkpt lat="44.96276" lon="5.7315">
        <ele>843.27307</ele>
        <time>2026-08-29T11:10:46.000Z</time>
      </trkpt>
      <trkpt lat="44.96287" lon="5.73144">
        <ele>842.6399</ele>
        <time>2026-08-29T11:10:47.000Z</time>
      </trkpt>
      <trkpt lat="44.96297" lon="5.73137">
        <ele>842.00494</ele>
        <time>2026-08-29T11:10:48.000Z</time>
      </trkpt>
      <trkpt lat="44.96307" lon="5.73127">
        <ele>841.322689</ele>
        <time>2026-08-29T11:10:49.000Z</time>
      </trkpt>
      <trkpt lat="44.96315" lon="5.73117">
        <ele>840.603613</ele>
        <time>2026-08-29T11:10:50.000Z</time>
      </trkpt>
      <trkpt lat="44.96324" lon="5.73107">
        <ele>839.888012</ele>
        <time>2026-08-29T11:10:51.000Z</time>
      </trkpt>
      <trkpt lat="44.96333" lon="5.73098">
        <ele>839.175945</ele>
        <time>2026-08-29T11:10:52.000Z</time>
      </trkpt>
      <trkpt lat="44.96343" lon="5.73089">
        <ele>838.461076</ele>
        <time>2026-08-29T11:10:53.000Z</time>
      </trkpt>
      <trkpt lat="44.96353" lon="5.7308">
        <ele>837.736915</ele>
        <time>2026-08-29T11:10:54.000Z</time>
      </trkpt>
      <trkpt lat="44.96362" lon="5.73072">
        <ele>837.017351</ele>
        <time>2026-08-29T11:10:55.000Z</time>
      </trkpt>
      <trkpt lat="44.96372" lon="5.73064">
        <ele>836.286885</ele>
        <time>2026-08-29T11:10:56.000Z</time>
      </trkpt>
      <trkpt lat="44.96383" lon="5.73056">
        <ele>835.549843</ele>
        <time>2026-08-29T11:10:57.000Z</time>
      </trkpt>
      <trkpt lat="44.96393" lon="5.73047">
        <ele>834.799418</ele>
        <time>2026-08-29T11:10:58.000Z</time>
      </trkpt>
      <trkpt lat="44.96403" lon="5.73039">
        <ele>834.048069</ele>
        <time>2026-08-29T11:10:59.000Z</time>
      </trkpt>
      <trkpt lat="44.96414" lon="5.7303">
        <ele>833.286766</ele>
        <time>2026-08-29T11:11:00.000Z</time>
      </trkpt>
      <trkpt lat="44.96424" lon="5.73021">
        <ele>832.518602</ele>
        <time>2026-08-29T11:11:01.000Z</time>
      </trkpt>
      <trkpt lat="44.96434" lon="5.73013">
        <ele>831.747318</ele>
        <time>2026-08-29T11:11:02.000Z</time>
      </trkpt>
      <trkpt lat="44.96445" lon="5.73003">
        <ele>830.979852</ele>
        <time>2026-08-29T11:11:03.000Z</time>
      </trkpt>
      <trkpt lat="44.96455" lon="5.72994">
        <ele>830.204049</ele>
        <time>2026-08-29T11:11:04.000Z</time>
      </trkpt>
      <trkpt lat="44.96465" lon="5.72984">
        <ele>829.434194</ele>
        <time>2026-08-29T11:11:05.000Z</time>
      </trkpt>
      <trkpt lat="44.96475" lon="5.72973">
        <ele>828.656686</ele>
        <time>2026-08-29T11:11:06.000Z</time>
      </trkpt>
      <trkpt lat="44.96486" lon="5.72964">
        <ele>827.887535</ele>
        <time>2026-08-29T11:11:07.000Z</time>
      </trkpt>
      <trkpt lat="44.96497" lon="5.72958">
        <ele>827.141588</ele>
        <time>2026-08-29T11:11:08.000Z</time>
      </trkpt>
      <trkpt lat="44.96508" lon="5.72957">
        <ele>826.405346</ele>
        <time>2026-08-29T11:11:09.000Z</time>
      </trkpt>
      <trkpt lat="44.9652" lon="5.72957">
        <ele>825.653095</ele>
        <time>2026-08-29T11:11:10.000Z</time>
      </trkpt>
      <trkpt lat="44.96532" lon="5.72959">
        <ele>824.923087</ele>
        <time>2026-08-29T11:11:11.000Z</time>
      </trkpt>
      <trkpt lat="44.96544" lon="5.72962">
        <ele>824.18745</ele>
        <time>2026-08-29T11:11:12.000Z</time>
      </trkpt>
      <trkpt lat="44.96555" lon="5.72966">
        <ele>823.452801</ele>
        <time>2026-08-29T11:11:13.000Z</time>
      </trkpt>
      <trkpt lat="44.96566" lon="5.72971">
        <ele>822.714597</ele>
        <time>2026-08-29T11:11:14.000Z</time>
      </trkpt>
      <trkpt lat="44.96577" lon="5.72978">
        <ele>821.964712</ele>
        <time>2026-08-29T11:11:15.000Z</time>
      </trkpt>
      <trkpt lat="44.96588" lon="5.72986">
        <ele>821.187836</ele>
        <time>2026-08-29T11:11:16.000Z</time>
      </trkpt>
      <trkpt lat="44.96599" lon="5.72993">
        <ele>820.407556</ele>
        <time>2026-08-29T11:11:17.000Z</time>
      </trkpt>
      <trkpt lat="44.96611" lon="5.72999">
        <ele>819.61768</ele>
        <time>2026-08-29T11:11:18.000Z</time>
      </trkpt>
      <trkpt lat="44.96624" lon="5.73003">
        <ele>818.830759</ele>
        <time>2026-08-29T11:11:19.000Z</time>
      </trkpt>
      <trkpt lat="44.96636" lon="5.73003">
        <ele>818.04186</ele>
        <time>2026-08-29T11:11:20.000Z</time>
      </trkpt>
      <trkpt lat="44.96648" lon="5.73001">
        <ele>817.277414</ele>
        <time>2026-08-29T11:11:21.000Z</time>
      </trkpt>
      <trkpt lat="44.9666" lon="5.72994">
        <ele>816.469432</ele>
        <time>2026-08-29T11:11:22.000Z</time>
      </trkpt>
      <trkpt lat="44.96672" lon="5.72986">
        <ele>815.682495</ele>
        <time>2026-08-29T11:11:23.000Z</time>
      </trkpt>
      <trkpt lat="44.96683" lon="5.72977">
        <ele>814.883286</ele>
        <time>2026-08-29T11:11:24.000Z</time>
      </trkpt>
      <trkpt lat="44.96695" lon="5.72971">
        <ele>814.11883</ele>
        <time>2026-08-29T11:11:25.000Z</time>
      </trkpt>
      <trkpt lat="44.96707" lon="5.72968">
        <ele>813.351863</ele>
        <time>2026-08-29T11:11:26.000Z</time>
      </trkpt>
      <trkpt lat="44.96719" lon="5.72969">
        <ele>812.612121</ele>
        <time>2026-08-29T11:11:27.000Z</time>
      </trkpt>
      <trkpt lat="44.96731" lon="5.72971">
        <ele>811.863073</ele>
        <time>2026-08-29T11:11:28.000Z</time>
      </trkpt>
      <trkpt lat="44.96743" lon="5.72973">
        <ele>811.118764</ele>
        <time>2026-08-29T11:11:29.000Z</time>
      </trkpt>
      <trkpt lat="44.96754" lon="5.72975">
        <ele>810.404148</ele>
        <time>2026-08-29T11:11:30.000Z</time>
      </trkpt>
      <trkpt lat="44.96765" lon="5.72977">
        <ele>809.691195</ele>
        <time>2026-08-29T11:11:31.000Z</time>
      </trkpt>
      <trkpt lat="44.96777" lon="5.72977">
        <ele>808.976274</ele>
        <time>2026-08-29T11:11:32.000Z</time>
      </trkpt>
      <trkpt lat="44.96788" lon="5.72978">
        <ele>808.254466</ele>
        <time>2026-08-29T11:11:33.000Z</time>
      </trkpt>
      <trkpt lat="44.968" lon="5.72979">
        <ele>807.638695</ele>
        <time>2026-08-29T11:11:34.000Z</time>
      </trkpt>
      <trkpt lat="44.96812" lon="5.72978">
        <ele>807.168998</ele>
        <time>2026-08-29T11:11:35.000Z</time>
      </trkpt>
      <trkpt lat="44.96823" lon="5.72977">
        <ele>806.693397</ele>
        <time>2026-08-29T11:11:36.000Z</time>
      </trkpt>
      <trkpt lat="44.96834" lon="5.72974">
        <ele>806.227999</ele>
        <time>2026-08-29T11:11:37.000Z</time>
      </trkpt>
      <trkpt lat="44.96845" lon="5.7297">
        <ele>805.76235</ele>
        <time>2026-08-29T11:11:38.000Z</time>
      </trkpt>
      <trkpt lat="44.96856" lon="5.72966">
        <ele>805.296018</ele>
        <time>2026-08-29T11:11:39.000Z</time>
      </trkpt>
      <trkpt lat="44.96867" lon="5.72963">
        <ele>804.822527</ele>
        <time>2026-08-29T11:11:40.000Z</time>
      </trkpt>
      <trkpt lat="44.96879" lon="5.72961">
        <ele>804.353169</ele>
        <time>2026-08-29T11:11:41.000Z</time>
      </trkpt>
      <trkpt lat="44.9689" lon="5.72961">
        <ele>803.879356</ele>
        <time>2026-08-29T11:11:42.000Z</time>
      </trkpt>
      <trkpt lat="44.96902" lon="5.72961">
        <ele>803.397522</ele>
        <time>2026-08-29T11:11:43.000Z</time>
      </trkpt>
      <trkpt lat="44.96914" lon="5.72961">
        <ele>802.907149</ele>
        <time>2026-08-29T11:11:44.000Z</time>
      </trkpt>
      <trkpt lat="44.96926" lon="5.72962">
        <ele>802.412111</ele>
        <time>2026-08-29T11:11:45.000Z</time>
      </trkpt>
      <trkpt lat="44.96938" lon="5.72963">
        <ele>801.921625</ele>
        <time>2026-08-29T11:11:46.000Z</time>
      </trkpt>
      <trkpt lat="44.9695" lon="5.72963">
        <ele>801.431528</ele>
        <time>2026-08-29T11:11:47.000Z</time>
      </trkpt>
      <trkpt lat="44.96962" lon="5.72963">
        <ele>800.937271</ele>
        <time>2026-08-29T11:11:48.000Z</time>
      </trkpt>
      <trkpt lat="44.96973" lon="5.72959">
        <ele>800.452206</ele>
        <time>2026-08-29T11:11:49.000Z</time>
      </trkpt>
      <trkpt lat="44.96983" lon="5.72952">
        <ele>800.69988</ele>
        <time>2026-08-29T11:11:50.000Z</time>
      </trkpt>
      <trkpt lat="44.96992" lon="5.72941">
        <ele>800.942409</ele>
        <time>2026-08-29T11:11:51.000Z</time>
      </trkpt>
      <trkpt lat="44.96998" lon="5.72929">
        <ele>801.17574</ele>
        <time>2026-08-29T11:11:52.000Z</time>
      </trkpt>
      <trkpt lat="44.97001" lon="5.72914">
        <ele>801.409001</ele>
        <time>2026-08-29T11:11:53.000Z</time>
      </trkpt>
      <trkpt lat="44.97003" lon="5.729">
        <ele>801.632059</ele>
        <time>2026-08-29T11:11:54.000Z</time>
      </trkpt>
      <trkpt lat="44.97002" lon="5.72886">
        <ele>801.849105</ele>
        <time>2026-08-29T11:11:55.000Z</time>
      </trkpt>
      <trkpt lat="44.97" lon="5.72873">
        <ele>802.0565</ele>
        <time>2026-08-29T11:11:56.000Z</time>
      </trkpt>
      <trkpt lat="44.96997" lon="5.72861">
        <ele>802.256413</ele>
        <time>2026-08-29T11:11:57.000Z</time>
      </trkpt>
      <trkpt lat="44.96994" lon="5.72849">
        <ele>802.447724</ele>
        <time>2026-08-29T11:11:58.000Z</time>
      </trkpt>
      <trkpt lat="44.9699" lon="5.72838">
        <ele>802.628859</ele>
        <time>2026-08-29T11:11:59.000Z</time>
      </trkpt>
      <trkpt lat="44.96986" lon="5.72829">
        <ele>802.797006</ele>
        <time>2026-08-29T11:12:00.000Z</time>
      </trkpt>
      <trkpt lat="44.96981" lon="5.72822">
        <ele>802.952745</ele>
        <time>2026-08-29T11:12:01.000Z</time>
      </trkpt>
      <trkpt lat="44.96975" lon="5.72816">
        <ele>803.10444</ele>
        <time>2026-08-29T11:12:02.000Z</time>
      </trkpt>
      <trkpt lat="44.9697" lon="5.72811">
        <ele>803.244563</ele>
        <time>2026-08-29T11:12:03.000Z</time>
      </trkpt>
      <trkpt lat="44.96964" lon="5.72807">
        <ele>803.380837</ele>
        <time>2026-08-29T11:12:04.000Z</time>
      </trkpt>
      <trkpt lat="44.96959" lon="5.72803">
        <ele>803.507247</ele>
        <time>2026-08-29T11:12:05.000Z</time>
      </trkpt>
      <trkpt lat="44.96954" lon="5.728">
        <ele>803.625132</ele>
        <time>2026-08-29T11:12:06.000Z</time>
      </trkpt>
      <trkpt lat="44.96949" lon="5.72797">
        <ele>803.737136</ele>
        <time>2026-08-29T11:12:07.000Z</time>
      </trkpt>
      <trkpt lat="44.96945" lon="5.72794">
        <ele>803.845197</ele>
        <time>2026-08-29T11:12:08.000Z</time>
      </trkpt>
      <trkpt lat="44.96941" lon="5.72791">
        <ele>803.946774</ele>
        <time>2026-08-29T11:12:09.000Z</time>
      </trkpt>
      <trkpt lat="44.96937" lon="5.72789">
        <ele>804.043754</ele>
        <time>2026-08-29T11:12:10.000Z</time>
      </trkpt>
      <trkpt lat="44.96932" lon="5.72787">
        <ele>804.143677</ele>
        <time>2026-08-29T11:12:11.000Z</time>
      </trkpt>
      <trkpt lat="44.96928" lon="5.72785">
        <ele>804.238997</ele>
        <time>2026-08-29T11:12:12.000Z</time>
      </trkpt>
      <trkpt lat="44.96924" lon="5.72783">
        <ele>804.325445</ele>
        <time>2026-08-29T11:12:13.000Z</time>
      </trkpt>
      <trkpt lat="44.96921" lon="5.7278">
        <ele>804.515234</ele>
        <time>2026-08-29T11:12:14.000Z</time>
      </trkpt>
      <trkpt lat="44.96918" lon="5.72777">
        <ele>804.769226</ele>
        <time>2026-08-29T11:12:15.000Z</time>
      </trkpt>
      <trkpt lat="44.96914" lon="5.72774">
        <ele>805.01636</ele>
        <time>2026-08-29T11:12:16.000Z</time>
      </trkpt>
      <trkpt lat="44.96911" lon="5.72772">
        <ele>805.25149</ele>
        <time>2026-08-29T11:12:17.000Z</time>
      </trkpt>
      <trkpt lat="44.96907" lon="5.7277">
        <ele>805.496084</ele>
        <time>2026-08-29T11:12:18.000Z</time>
      </trkpt>
      <trkpt lat="44.96904" lon="5.72767">
        <ele>805.742601</ele>
        <time>2026-08-29T11:12:19.000Z</time>
      </trkpt>
      <trkpt lat="44.96901" lon="5.72765">
        <ele>805.975732</ele>
        <time>2026-08-29T11:12:20.000Z</time>
      </trkpt>
      <trkpt lat="44.96897" lon="5.72761">
        <ele>806.232138</ele>
        <time>2026-08-29T11:12:21.000Z</time>
      </trkpt>
      <trkpt lat="44.96895" lon="5.72757">
        <ele>806.475669</ele>
        <time>2026-08-29T11:12:22.000Z</time>
      </trkpt>
      <trkpt lat="44.96893" lon="5.72754">
        <ele>806.693139</ele>
        <time>2026-08-29T11:12:23.000Z</time>
      </trkpt>
      <trkpt lat="44.96891" lon="5.7275">
        <ele>806.891395</ele>
        <time>2026-08-29T11:12:24.000Z</time>
      </trkpt>
      <trkpt lat="44.9689" lon="5.72746">
        <ele>807.088746</ele>
        <time>2026-08-29T11:12:25.000Z</time>
      </trkpt>
      <trkpt lat="44.96888" lon="5.72742">
        <ele>807.297514</ele>
        <time>2026-08-29T11:12:26.000Z</time>
      </trkpt>
      <trkpt lat="44.96886" lon="5.72738">
        <ele>807.517113</ele>
        <time>2026-08-29T11:12:27.000Z</time>
      </trkpt>
      <trkpt lat="44.96884" lon="5.72735">
        <ele>807.712797</ele>
        <time>2026-08-29T11:12:28.000Z</time>
      </trkpt>
      <trkpt lat="44.96882" lon="5.72731">
        <ele>807.886068</ele>
        <time>2026-08-29T11:12:29.000Z</time>
      </trkpt>
      <trkpt lat="44.96881" lon="5.72728">
        <ele>808.039988</ele>
        <time>2026-08-29T11:12:30.000Z</time>
      </trkpt>
      <trkpt lat="44.9688" lon="5.72725">
        <ele>808.194497</ele>
        <time>2026-08-29T11:12:31.000Z</time>
      </trkpt>
      <trkpt lat="44.96878" lon="5.72722">
        <ele>808.355556</ele>
        <time>2026-08-29T11:12:32.000Z</time>
      </trkpt>
      <trkpt lat="44.96877" lon="5.72719">
        <ele>808.519106</ele>
        <time>2026-08-29T11:12:33.000Z</time>
      </trkpt>
      <trkpt lat="44.96876" lon="5.72716">
        <ele>808.688337</ele>
        <time>2026-08-29T11:12:34.000Z</time>
      </trkpt>
      <trkpt lat="44.96875" lon="5.72712">
        <ele>808.85702</ele>
        <time>2026-08-29T11:12:35.000Z</time>
      </trkpt>
      <trkpt lat="44.96874" lon="5.72709">
        <ele>809.015447</ele>
        <time>2026-08-29T11:12:36.000Z</time>
      </trkpt>
      <trkpt lat="44.96873" lon="5.72706">
        <ele>809.166939</ele>
        <time>2026-08-29T11:12:37.000Z</time>
      </trkpt>
      <trkpt lat="44.96872" lon="5.72703">
        <ele>809.31843</ele>
        <time>2026-08-29T11:12:38.000Z</time>
      </trkpt>
      <trkpt lat="44.96871" lon="5.727">
        <ele>809.474826</ele>
        <time>2026-08-29T11:12:39.000Z</time>
      </trkpt>
      <trkpt lat="44.9687" lon="5.72697">
        <ele>809.622768</ele>
        <time>2026-08-29T11:12:40.000Z</time>
      </trkpt>
      <trkpt lat="44.96869" lon="5.72694">
        <ele>809.777156</ele>
        <time>2026-08-29T11:12:41.000Z</time>
      </trkpt>
      <trkpt lat="44.96869" lon="5.7269">
        <ele>809.928462</ele>
        <time>2026-08-29T11:12:42.000Z</time>
      </trkpt>
      <trkpt lat="44.96868" lon="5.72687">
        <ele>810.082851</ele>
        <time>2026-08-29T11:12:43.000Z</time>
      </trkpt>
      <trkpt lat="44.96867" lon="5.72684">
        <ele>810.23302</ele>
        <time>2026-08-29T11:12:44.000Z</time>
      </trkpt>
      <trkpt lat="44.96866" lon="5.72681">
        <ele>810.388506</ele>
        <time>2026-08-29T11:12:45.000Z</time>
      </trkpt>
      <trkpt lat="44.96865" lon="5.72678">
        <ele>810.543992</ele>
        <time>2026-08-29T11:12:46.000Z</time>
      </trkpt>
      <trkpt lat="44.96863" lon="5.72675">
        <ele>810.712373</ele>
        <time>2026-08-29T11:12:47.000Z</time>
      </trkpt>
      <trkpt lat="44.96862" lon="5.72672">
        <ele>810.877259</ele>
        <time>2026-08-29T11:12:48.000Z</time>
      </trkpt>
      <trkpt lat="44.9686" lon="5.72669">
        <ele>811.049297</ele>
        <time>2026-08-29T11:12:49.000Z</time>
      </trkpt>
      <trkpt lat="44.96859" lon="5.72665">
        <ele>811.214184</ele>
        <time>2026-08-29T11:12:50.000Z</time>
      </trkpt>
      <trkpt lat="44.96857" lon="5.72663">
        <ele>811.367904</ele>
        <time>2026-08-29T11:12:51.000Z</time>
      </trkpt>
      <trkpt lat="44.96856" lon="5.7266">
        <ele>811.526629</ele>
        <time>2026-08-29T11:12:52.000Z</time>
      </trkpt>
      <trkpt lat="44.96854" lon="5.72658">
        <ele>811.691128</ele>
        <time>2026-08-29T11:12:53.000Z</time>
      </trkpt>
      <trkpt lat="44.96852" lon="5.72655">
        <ele>811.855626</ele>
        <time>2026-08-29T11:12:54.000Z</time>
      </trkpt>
      <trkpt lat="44.9685" lon="5.72653">
        <ele>812.021882</ele>
        <time>2026-08-29T11:12:55.000Z</time>
      </trkpt>
      <trkpt lat="44.96848" lon="5.7265">
        <ele>812.187527</ele>
        <time>2026-08-29T11:12:56.000Z</time>
      </trkpt>
      <trkpt lat="44.96845" lon="5.72648">
        <ele>812.371277</ele>
        <time>2026-08-29T11:12:57.000Z</time>
      </trkpt>
      <trkpt lat="44.96843" lon="5.72646">
        <ele>812.547385</ele>
        <time>2026-08-29T11:12:58.000Z</time>
      </trkpt>
      <trkpt lat="44.96841" lon="5.72643">
        <ele>812.716578</ele>
        <time>2026-08-29T11:12:59.000Z</time>
      </trkpt>
      <trkpt lat="44.96839" lon="5.72641">
        <ele>812.881076</ele>
        <time>2026-08-29T11:13:00.000Z</time>
      </trkpt>
      <trkpt lat="44.96837" lon="5.72639">
        <ele>813.049304</ele>
        <time>2026-08-29T11:13:01.000Z</time>
      </trkpt>
      <trkpt lat="44.96835" lon="5.72637">
        <ele>813.217461</ele>
        <time>2026-08-29T11:13:02.000Z</time>
      </trkpt>
      <trkpt lat="44.96832" lon="5.72636">
        <ele>813.395419</ele>
        <time>2026-08-29T11:13:03.000Z</time>
      </trkpt>
      <trkpt lat="44.9683" lon="5.72634">
        <ele>813.552391</ele>
        <time>2026-08-29T11:13:04.000Z</time>
      </trkpt>
      <trkpt lat="44.96827" lon="5.72633">
        <ele>813.71095</ele>
        <time>2026-08-29T11:13:05.000Z</time>
      </trkpt>
      <trkpt lat="44.96825" lon="5.72632">
        <ele>813.864818</ele>
        <time>2026-08-29T11:13:06.000Z</time>
      </trkpt>
      <trkpt lat="44.96823" lon="5.72631">
        <ele>814.024702</ele>
        <time>2026-08-29T11:13:07.000Z</time>
      </trkpt>
      <trkpt lat="44.9682" lon="5.7263">
        <ele>814.177193</ele>
        <time>2026-08-29T11:13:08.000Z</time>
      </trkpt>
      <trkpt lat="44.96818" lon="5.72629">
        <ele>814.338696</ele>
        <time>2026-08-29T11:13:09.000Z</time>
      </trkpt>
      <trkpt lat="44.96815" lon="5.72629">
        <ele>814.498132</ele>
        <time>2026-08-29T11:13:10.000Z</time>
      </trkpt>
      <trkpt lat="44.96813" lon="5.72629">
        <ele>814.657569</ele>
        <time>2026-08-29T11:13:11.000Z</time>
      </trkpt>
      <trkpt lat="44.9681" lon="5.72628">
        <ele>814.823849</ele>
        <time>2026-08-29T11:13:12.000Z</time>
      </trkpt>
      <trkpt lat="44.96808" lon="5.72627">
        <ele>814.978297</ele>
        <time>2026-08-29T11:13:13.000Z</time>
      </trkpt>
      <trkpt lat="44.96806" lon="5.72627">
        <ele>815.12651</ele>
        <time>2026-08-29T11:13:14.000Z</time>
      </trkpt>
      <trkpt lat="44.96803" lon="5.72626">
        <ele>815.267714</ele>
        <time>2026-08-29T11:13:15.000Z</time>
      </trkpt>
      <trkpt lat="44.96801" lon="5.72626">
        <ele>815.415926</ele>
        <time>2026-08-29T11:13:16.000Z</time>
      </trkpt>
      <trkpt lat="44.96799" lon="5.72625">
        <ele>815.570375</ele>
        <time>2026-08-29T11:13:17.000Z</time>
      </trkpt>
      <trkpt lat="44.96796" lon="5.72625">
        <ele>815.724106</ele>
        <time>2026-08-29T11:13:18.000Z</time>
      </trkpt>
      <trkpt lat="44.96794" lon="5.72624">
        <ele>815.866905</ele>
        <time>2026-08-29T11:13:19.000Z</time>
      </trkpt>
      <trkpt lat="44.96791" lon="5.72623">
        <ele>816.005215</ele>
        <time>2026-08-29T11:13:20.000Z</time>
      </trkpt>
      <trkpt lat="44.96789" lon="5.72622">
        <ele>816.152665</ele>
        <time>2026-08-29T11:13:21.000Z</time>
      </trkpt>
      <trkpt lat="44.96786" lon="5.7262">
        <ele>816.298762</ele>
        <time>2026-08-29T11:13:22.000Z</time>
      </trkpt>
      <trkpt lat="44.96784" lon="5.72619">
        <ele>816.442931</ele>
        <time>2026-08-29T11:13:23.000Z</time>
      </trkpt>
      <trkpt lat="44.96782" lon="5.72617">
        <ele>816.587099</ele>
        <time>2026-08-29T11:13:24.000Z</time>
      </trkpt>
      <trkpt lat="44.96779" lon="5.72615">
        <ele>816.731836</ele>
        <time>2026-08-29T11:13:25.000Z</time>
      </trkpt>
      <trkpt lat="44.96777" lon="5.72613">
        <ele>816.876173</ele>
        <time>2026-08-29T11:13:26.000Z</time>
      </trkpt>
      <trkpt lat="44.96775" lon="5.72611">
        <ele>817.018189</ele>
        <time>2026-08-29T11:13:27.000Z</time>
      </trkpt>
      <trkpt lat="44.96773" lon="5.72609">
        <ele>817.15795</ele>
        <time>2026-08-29T11:13:28.000Z</time>
      </trkpt>
      <trkpt lat="44.96771" lon="5.72606">
        <ele>817.308834</ele>
        <time>2026-08-29T11:13:29.000Z</time>
      </trkpt>
      <trkpt lat="44.96769" lon="5.72604">
        <ele>817.446523</ele>
        <time>2026-08-29T11:13:30.000Z</time>
      </trkpt>
      <trkpt lat="44.96767" lon="5.72602">
        <ele>817.577564</ele>
        <time>2026-08-29T11:13:31.000Z</time>
      </trkpt>
      <trkpt lat="44.96765" lon="5.726">
        <ele>817.721795</ele>
        <time>2026-08-29T11:13:32.000Z</time>
      </trkpt>
      <trkpt lat="44.96762" lon="5.72598">
        <ele>817.868211</ele>
        <time>2026-08-29T11:13:33.000Z</time>
      </trkpt>
      <trkpt lat="44.9676" lon="5.72596">
        <ele>818.001654</ele>
        <time>2026-08-29T11:13:34.000Z</time>
      </trkpt>
      <trkpt lat="44.96758" lon="5.72593">
        <ele>818.150324</ele>
        <time>2026-08-29T11:13:35.000Z</time>
      </trkpt>
      <trkpt lat="44.96756" lon="5.72591">
        <ele>818.288767</ele>
        <time>2026-08-29T11:13:36.000Z</time>
      </trkpt>
      <trkpt lat="44.96754" lon="5.72589">
        <ele>818.426456</ele>
        <time>2026-08-29T11:13:37.000Z</time>
      </trkpt>
      <trkpt lat="44.96752" lon="5.72586">
        <ele>818.57318</ele>
        <time>2026-08-29T11:13:38.000Z</time>
      </trkpt>
      <trkpt lat="44.9675" lon="5.72584">
        <ele>818.722351</ele>
        <time>2026-08-29T11:13:39.000Z</time>
      </trkpt>
      <trkpt lat="44.96748" lon="5.72581">
        <ele>818.869075</ele>
        <time>2026-08-29T11:13:40.000Z</time>
      </trkpt>
      <trkpt lat="44.96746" lon="5.72579">
        <ele>819.017744</ele>
        <time>2026-08-29T11:13:41.000Z</time>
      </trkpt>
      <trkpt lat="44.96744" lon="5.72577">
        <ele>819.168732</ele>
        <time>2026-08-29T11:13:42.000Z</time>
      </trkpt>
      <trkpt lat="44.96742" lon="5.72574">
        <ele>819.315455</ele>
        <time>2026-08-29T11:13:43.000Z</time>
      </trkpt>
      <trkpt lat="44.96739" lon="5.72572">
        <ele>819.475183</ele>
        <time>2026-08-29T11:13:44.000Z</time>
      </trkpt>
      <trkpt lat="44.96737" lon="5.72569">
        <ele>819.62617</ele>
        <time>2026-08-29T11:13:45.000Z</time>
      </trkpt>
      <trkpt lat="44.96735" lon="5.72567">
        <ele>819.775341</ele>
        <time>2026-08-29T11:13:46.000Z</time>
      </trkpt>
      <trkpt lat="44.96733" lon="5.72564">
        <ele>819.921721</ele>
        <time>2026-08-29T11:13:47.000Z</time>
      </trkpt>
      <trkpt lat="44.96731" lon="5.72561">
        <ele>820.074662</ele>
        <time>2026-08-29T11:13:48.000Z</time>
      </trkpt>
      <trkpt lat="44.96729" lon="5.72559">
        <ele>820.230466</ele>
        <time>2026-08-29T11:13:49.000Z</time>
      </trkpt>
      <trkpt lat="44.96727" lon="5.72556">
        <ele>820.384702</ele>
        <time>2026-08-29T11:13:50.000Z</time>
      </trkpt>
      <trkpt lat="44.96725" lon="5.72554">
        <ele>820.536377</ele>
        <time>2026-08-29T11:13:51.000Z</time>
      </trkpt>
      <trkpt lat="44.96722" lon="5.72551">
        <ele>820.690613</ele>
        <time>2026-08-29T11:13:52.000Z</time>
      </trkpt>
      <trkpt lat="44.9672" lon="5.72548">
        <ele>820.847461</ele>
        <time>2026-08-29T11:13:53.000Z</time>
      </trkpt>
      <trkpt lat="44.96718" lon="5.72545">
        <ele>821.011748</ele>
        <time>2026-08-29T11:13:54.000Z</time>
      </trkpt>
      <trkpt lat="44.96716" lon="5.72543">
        <ele>821.174187</ele>
        <time>2026-08-29T11:13:55.000Z</time>
      </trkpt>
      <trkpt lat="44.96713" lon="5.7254">
        <ele>821.340841</ele>
        <time>2026-08-29T11:13:56.000Z</time>
      </trkpt>
      <trkpt lat="44.96711" lon="5.72537">
        <ele>821.509915</ele>
        <time>2026-08-29T11:13:57.000Z</time>
      </trkpt>
      <trkpt lat="44.96709" lon="5.72534">
        <ele>821.67489</ele>
        <time>2026-08-29T11:13:58.000Z</time>
      </trkpt>
      <trkpt lat="44.96706" lon="5.72531">
        <ele>821.850602</ele>
        <time>2026-08-29T11:13:59.000Z</time>
      </trkpt>
      <trkpt lat="44.96704" lon="5.72529">
        <ele>822.019234</ele>
        <time>2026-08-29T11:14:00.000Z</time>
      </trkpt>
      <trkpt lat="44.96701" lon="5.72526">
        <ele>822.188309</ele>
        <time>2026-08-29T11:14:01.000Z</time>
      </trkpt>
      <trkpt lat="44.96699" lon="5.72523">
        <ele>822.357384</ele>
        <time>2026-08-29T11:14:02.000Z</time>
      </trkpt>
      <trkpt lat="44.96697" lon="5.7252">
        <ele>822.530052</ele>
        <time>2026-08-29T11:14:03.000Z</time>
      </trkpt>
      <trkpt lat="44.96694" lon="5.72517">
        <ele>822.708112</ele>
        <time>2026-08-29T11:14:04.000Z</time>
      </trkpt>
      <trkpt lat="44.96692" lon="5.72513">
        <ele>822.890165</ele>
        <time>2026-08-29T11:14:05.000Z</time>
      </trkpt>
      <trkpt lat="44.9669" lon="5.72509">
        <ele>823.065903</ele>
        <time>2026-08-29T11:14:06.000Z</time>
      </trkpt>
      <trkpt lat="44.96689" lon="5.72505">
        <ele>823.241687</ele>
        <time>2026-08-29T11:14:07.000Z</time>
      </trkpt>
      <trkpt lat="44.96687" lon="5.72502">
        <ele>823.41127</ele>
        <time>2026-08-29T11:14:08.000Z</time>
      </trkpt>
      <trkpt lat="44.96685" lon="5.72498">
        <ele>823.578536</ele>
        <time>2026-08-29T11:14:09.000Z</time>
      </trkpt>
      <trkpt lat="44.96684" lon="5.72494">
        <ele>823.738494</ele>
        <time>2026-08-29T11:14:10.000Z</time>
      </trkpt>
      <trkpt lat="44.96683" lon="5.7249">
        <ele>823.898453</ele>
        <time>2026-08-29T11:14:11.000Z</time>
      </trkpt>
      <trkpt lat="44.96682" lon="5.72486">
        <ele>824.064317</ele>
        <time>2026-08-29T11:14:12.000Z</time>
      </trkpt>
      <trkpt lat="44.96682" lon="5.72482">
        <ele>824.225255</ele>
        <time>2026-08-29T11:14:13.000Z</time>
      </trkpt>
      <trkpt lat="44.96681" lon="5.72478">
        <ele>824.38518</ele>
        <time>2026-08-29T11:14:14.000Z</time>
      </trkpt>
      <trkpt lat="44.96681" lon="5.72474">
        <ele>824.549883</ele>
        <time>2026-08-29T11:14:15.000Z</time>
      </trkpt>
      <trkpt lat="44.9668" lon="5.72469">
        <ele>824.71739</ele>
        <time>2026-08-29T11:14:16.000Z</time>
      </trkpt>
      <trkpt lat="44.9668" lon="5.72465">
        <ele>824.879656</ele>
        <time>2026-08-29T11:14:17.000Z</time>
      </trkpt>
      <trkpt lat="44.9668" lon="5.72461">
        <ele>825.057227</ele>
        <time>2026-08-29T11:14:18.000Z</time>
      </trkpt>
      <trkpt lat="44.96679" lon="5.72456">
        <ele>825.223317</ele>
        <time>2026-08-29T11:14:19.000Z</time>
      </trkpt>
      <trkpt lat="44.96679" lon="5.72452">
        <ele>825.386219</ele>
        <time>2026-08-29T11:14:20.000Z</time>
      </trkpt>
      <trkpt lat="44.96679" lon="5.72448">
        <ele>825.543325</ele>
        <time>2026-08-29T11:14:21.000Z</time>
      </trkpt>
      <trkpt lat="44.96679" lon="5.72444">
        <ele>825.674772</ele>
        <time>2026-08-29T11:14:22.000Z</time>
      </trkpt>
      <trkpt lat="44.96679" lon="5.7244">
        <ele>825.796982</ele>
        <time>2026-08-29T11:14:23.000Z</time>
      </trkpt>
      <trkpt lat="44.96678" lon="5.72436">
        <ele>825.918077</ele>
        <time>2026-08-29T11:14:24.000Z</time>
      </trkpt>
      <trkpt lat="44.96678" lon="5.72432">
        <ele>826.04397</ele>
        <time>2026-08-29T11:14:25.000Z</time>
      </trkpt>
      <trkpt lat="44.96677" lon="5.72428">
        <ele>826.166484</ele>
        <time>2026-08-29T11:14:26.000Z</time>
      </trkpt>
      <trkpt lat="44.96677" lon="5.72423">
        <ele>826.305051</ele>
        <time>2026-08-29T11:14:27.000Z</time>
      </trkpt>
      <trkpt lat="44.96677" lon="5.72419">
        <ele>826.443147</ele>
        <time>2026-08-29T11:14:28.000Z</time>
      </trkpt>
      <trkpt lat="44.96676" lon="5.72414">
        <ele>826.572624</ele>
        <time>2026-08-29T11:14:29.000Z</time>
      </trkpt>
      <trkpt lat="44.96676" lon="5.7241">
        <ele>826.698187</ele>
        <time>2026-08-29T11:14:30.000Z</time>
      </trkpt>
      <trkpt lat="44.96676" lon="5.72406">
        <ele>826.820702</ele>
        <time>2026-08-29T11:14:31.000Z</time>
      </trkpt>
      <trkpt lat="44.96676" lon="5.72402">
        <ele>826.952361</ele>
        <time>2026-08-29T11:14:32.000Z</time>
      </trkpt>
      <trkpt lat="44.96677" lon="5.72398">
        <ele>827.080754</ele>
        <time>2026-08-29T11:14:33.000Z</time>
      </trkpt>
      <trkpt lat="44.96676" lon="5.72394">
        <ele>827.207867</ele>
        <time>2026-08-29T11:14:34.000Z</time>
      </trkpt>
      <trkpt lat="44.96675" lon="5.7239">
        <ele>827.327837</ele>
        <time>2026-08-29T11:14:35.000Z</time>
      </trkpt>
      <trkpt lat="44.96675" lon="5.72386">
        <ele>827.454949</ele>
        <time>2026-08-29T11:14:36.000Z</time>
      </trkpt>
      <trkpt lat="44.96674" lon="5.72382">
        <ele>827.576045</ele>
        <time>2026-08-29T11:14:37.000Z</time>
      </trkpt>
      <trkpt lat="44.96674" lon="5.72378">
        <ele>827.700971</ele>
        <time>2026-08-29T11:14:38.000Z</time>
      </trkpt>
      <trkpt lat="44.96673" lon="5.72374">
        <ele>827.828083</ele>
        <time>2026-08-29T11:14:39.000Z</time>
      </trkpt>
      <trkpt lat="44.96673" lon="5.7237">
        <ele>827.948484</ele>
        <time>2026-08-29T11:14:40.000Z</time>
      </trkpt>
      <trkpt lat="44.96672" lon="5.72366">
        <ele>828.064459</ele>
        <time>2026-08-29T11:14:41.000Z</time>
      </trkpt>
      <trkpt lat="44.96672" lon="5.72362">
        <ele>828.184429</ele>
        <time>2026-08-29T11:14:42.000Z</time>
      </trkpt>
      <trkpt lat="44.96671" lon="5.72359">
        <ele>828.308491</ele>
        <time>2026-08-29T11:14:43.000Z</time>
      </trkpt>
      <trkpt lat="44.9667" lon="5.72354">
        <ele>828.438433</ele>
        <time>2026-08-29T11:14:44.000Z</time>
      </trkpt>
      <trkpt lat="44.96669" lon="5.7235">
        <ele>828.56955</ele>
        <time>2026-08-29T11:14:45.000Z</time>
      </trkpt>
      <trkpt lat="44.96667" lon="5.72347">
        <ele>828.702037</ele>
        <time>2026-08-29T11:14:46.000Z</time>
      </trkpt>
      <trkpt lat="44.96666" lon="5.72343">
        <ele>828.822811</ele>
        <time>2026-08-29T11:14:47.000Z</time>
      </trkpt>
      <trkpt lat="44.96664" lon="5.7234">
        <ele>828.953098</ele>
        <time>2026-08-29T11:14:48.000Z</time>
      </trkpt>
      <trkpt lat="44.96663" lon="5.72336">
        <ele>829.080743</ele>
        <time>2026-08-29T11:14:49.000Z</time>
      </trkpt>
      <trkpt lat="44.96661" lon="5.72332">
        <ele>829.208056</ele>
        <time>2026-08-29T11:14:50.000Z</time>
      </trkpt>
      <trkpt lat="44.96659" lon="5.72329">
        <ele>829.338045</ele>
        <time>2026-08-29T11:14:51.000Z</time>
      </trkpt>
      <trkpt lat="44.96657" lon="5.72326">
        <ele>829.466982</ele>
        <time>2026-08-29T11:14:52.000Z</time>
      </trkpt>
      <trkpt lat="44.96655" lon="5.72324">
        <ele>829.595726</ele>
        <time>2026-08-29T11:14:53.000Z</time>
      </trkpt>
      <trkpt lat="44.96653" lon="5.72321">
        <ele>829.72447</ele>
        <time>2026-08-29T11:14:54.000Z</time>
      </trkpt>
      <trkpt lat="44.9665" lon="5.72319">
        <ele>829.858569</ele>
        <time>2026-08-29T11:14:55.000Z</time>
      </trkpt>
      <trkpt lat="44.96648" lon="5.72317">
        <ele>829.974945</ele>
        <time>2026-08-29T11:14:56.000Z</time>
      </trkpt>
      <trkpt lat="44.96645" lon="5.72314">
        <ele>830.104259</ele>
        <time>2026-08-29T11:14:57.000Z</time>
      </trkpt>
      <trkpt lat="44.96642" lon="5.72313">
        <ele>830.238384</ele>
        <time>2026-08-29T11:14:58.000Z</time>
      </trkpt>
      <trkpt lat="44.9664" lon="5.72311">
        <ele>830.370019</ele>
        <time>2026-08-29T11:14:59.000Z</time>
      </trkpt>
      <trkpt lat="44.96637" lon="5.72309">
        <ele>830.501397</ele>
        <time>2026-08-29T11:15:00.000Z</time>
      </trkpt>
      <trkpt lat="44.96634" lon="5.72309">
        <ele>830.62844</ele>
        <time>2026-08-29T11:15:01.000Z</time>
      </trkpt>
      <trkpt lat="44.96631" lon="5.72307">
        <ele>830.758101</ele>
        <time>2026-08-29T11:15:02.000Z</time>
      </trkpt>
      <trkpt lat="44.96628" lon="5.72306">
        <ele>830.883597</ele>
        <time>2026-08-29T11:15:03.000Z</time>
      </trkpt>
      <trkpt lat="44.96625" lon="5.72305">
        <ele>831.017433</ele>
        <time>2026-08-29T11:15:04.000Z</time>
      </trkpt>
      <trkpt lat="44.96622" lon="5.72304">
        <ele>831.149267</ele>
        <time>2026-08-29T11:15:05.000Z</time>
      </trkpt>
      <trkpt lat="44.96619" lon="5.72304">
        <ele>831.27631</ele>
        <time>2026-08-29T11:15:06.000Z</time>
      </trkpt>
      <trkpt lat="44.96616" lon="5.72304">
        <ele>831.41463</ele>
        <time>2026-08-29T11:15:07.000Z</time>
      </trkpt>
      <trkpt lat="44.96613" lon="5.72303">
        <ele>831.540455</ele>
        <time>2026-08-29T11:15:08.000Z</time>
      </trkpt>
      <trkpt lat="44.9661" lon="5.72303">
        <ele>831.6709</ele>
        <time>2026-08-29T11:15:09.000Z</time>
      </trkpt>
      <trkpt lat="44.96607" lon="5.72302">
        <ele>831.800562</ele>
        <time>2026-08-29T11:15:10.000Z</time>
      </trkpt>
      <trkpt lat="44.96605" lon="5.723">
        <ele>831.918671</ele>
        <time>2026-08-29T11:15:11.000Z</time>
      </trkpt>
      <trkpt lat="44.96602" lon="5.72299">
        <ele>832.038463</ele>
        <time>2026-08-29T11:15:12.000Z</time>
      </trkpt>
      <trkpt lat="44.96599" lon="5.72299">
        <ele>832.168335</ele>
        <time>2026-08-29T11:15:13.000Z</time>
      </trkpt>
      <trkpt lat="44.96596" lon="5.72299">
        <ele>832.302341</ele>
        <time>2026-08-29T11:15:14.000Z</time>
      </trkpt>
      <trkpt lat="44.96593" lon="5.72298">
        <ele>832.445661</ele>
        <time>2026-08-29T11:15:15.000Z</time>
      </trkpt>
      <trkpt lat="44.96589" lon="5.72298">
        <ele>832.580084</ele>
        <time>2026-08-29T11:15:16.000Z</time>
      </trkpt>
      <trkpt lat="44.96586" lon="5.72298">
        <ele>832.714264</ele>
        <time>2026-08-29T11:15:17.000Z</time>
      </trkpt>
      <trkpt lat="44.96583" lon="5.72299">
        <ele>832.849828</ele>
        <time>2026-08-29T11:15:18.000Z</time>
      </trkpt>
      <trkpt lat="44.9658" lon="5.723">
        <ele>832.994412</ele>
        <time>2026-08-29T11:15:19.000Z</time>
      </trkpt>
      <trkpt lat="44.96577" lon="5.72301">
        <ele>833.134242</ele>
        <time>2026-08-29T11:15:20.000Z</time>
      </trkpt>
      <trkpt lat="44.96573" lon="5.72302">
        <ele>833.279983</ele>
        <time>2026-08-29T11:15:21.000Z</time>
      </trkpt>
      <trkpt lat="44.9657" lon="5.72303">
        <ele>833.422668</ele>
        <time>2026-08-29T11:15:22.000Z</time>
      </trkpt>
      <trkpt lat="44.96567" lon="5.72304">
        <ele>833.568575</ele>
        <time>2026-08-29T11:15:23.000Z</time>
      </trkpt>
      <trkpt lat="44.96564" lon="5.72305">
        <ele>833.714482</ele>
        <time>2026-08-29T11:15:24.000Z</time>
      </trkpt>
      <trkpt lat="44.9656" lon="5.72306">
        <ele>833.8626</ele>
        <time>2026-08-29T11:15:25.000Z</time>
      </trkpt>
      <trkpt lat="44.96557" lon="5.72307">
        <ele>834.014929</ele>
        <time>2026-08-29T11:15:26.000Z</time>
      </trkpt>
      <trkpt lat="44.96553" lon="5.72308">
        <ele>834.168458</ele>
        <time>2026-08-29T11:15:27.000Z</time>
      </trkpt>
      <trkpt lat="44.9655" lon="5.72309">
        <ele>834.330358</ele>
        <time>2026-08-29T11:15:28.000Z</time>
      </trkpt>
      <trkpt lat="44.96546" lon="5.7231">
        <ele>834.482174</ele>
        <time>2026-08-29T11:15:29.000Z</time>
      </trkpt>
      <trkpt lat="44.96543" lon="5.72311">
        <ele>834.632806</ele>
        <time>2026-08-29T11:15:30.000Z</time>
      </trkpt>
      <trkpt lat="44.96539" lon="5.72311">
        <ele>834.787225</ele>
        <time>2026-08-29T11:15:31.000Z</time>
      </trkpt>
      <trkpt lat="44.96535" lon="5.72311">
        <ele>834.941494</ele>
        <time>2026-08-29T11:15:32.000Z</time>
      </trkpt>
      <trkpt lat="44.96532" lon="5.7231">
        <ele>835.092127</ele>
        <time>2026-08-29T11:15:33.000Z</time>
      </trkpt>
      <trkpt lat="44.96529" lon="5.72309">
        <ele>835.235495</ele>
        <time>2026-08-29T11:15:34.000Z</time>
      </trkpt>
      <trkpt lat="44.96525" lon="5.72308">
        <ele>835.390453</ele>
        <time>2026-08-29T11:15:35.000Z</time>
      </trkpt>
      <trkpt lat="44.96521" lon="5.72307">
        <ele>835.551163</ele>
        <time>2026-08-29T11:15:36.000Z</time>
      </trkpt>
      <trkpt lat="44.96518" lon="5.72305">
        <ele>835.70612</ele>
        <time>2026-08-29T11:15:37.000Z</time>
      </trkpt>
      <trkpt lat="44.96514" lon="5.72304">
        <ele>835.86683</ele>
        <time>2026-08-29T11:15:38.000Z</time>
      </trkpt>
      <trkpt lat="44.96511" lon="5.72302">
        <ele>836.01941</ele>
        <time>2026-08-29T11:15:39.000Z</time>
      </trkpt>
      <trkpt lat="44.96508" lon="5.723">
        <ele>836.17199</ele>
        <time>2026-08-29T11:15:40.000Z</time>
      </trkpt>
      <trkpt lat="44.96505" lon="5.72298">
        <ele>836.323341</ele>
        <time>2026-08-29T11:15:41.000Z</time>
      </trkpt>
      <trkpt lat="44.96502" lon="5.72295">
        <ele>836.469482</ele>
        <time>2026-08-29T11:15:42.000Z</time>
      </trkpt>
      <trkpt lat="44.96499" lon="5.72293">
        <ele>836.618017</ele>
        <time>2026-08-29T11:15:43.000Z</time>
      </trkpt>
      <trkpt lat="44.96496" lon="5.72291">
        <ele>836.762739</ele>
        <time>2026-08-29T11:15:44.000Z</time>
      </trkpt>
      <trkpt lat="44.96493" lon="5.72289">
        <ele>836.905131</ele>
        <time>2026-08-29T11:15:45.000Z</time>
      </trkpt>
      <trkpt lat="44.9649" lon="5.72286">
        <ele>837.050273</ele>
        <time>2026-08-29T11:15:46.000Z</time>
      </trkpt>
      <trkpt lat="44.96487" lon="5.72283">
        <ele>837.195482</ele>
        <time>2026-08-29T11:15:47.000Z</time>
      </trkpt>
      <trkpt lat="44.96484" lon="5.7228">
        <ele>837.344181</ele>
        <time>2026-08-29T11:15:48.000Z</time>
      </trkpt>
      <trkpt lat="44.96482" lon="5.72278">
        <ele>837.485807</ele>
        <time>2026-08-29T11:15:49.000Z</time>
      </trkpt>
      <trkpt lat="44.96479" lon="5.72275">
        <ele>837.625774</ele>
        <time>2026-08-29T11:15:50.000Z</time>
      </trkpt>
      <trkpt lat="44.96476" lon="5.72272">
        <ele>837.768183</ele>
        <time>2026-08-29T11:15:51.000Z</time>
      </trkpt>
      <trkpt lat="44.96474" lon="5.72268">
        <ele>837.91581</ele>
        <time>2026-08-29T11:15:52.000Z</time>
      </trkpt>
      <trkpt lat="44.96471" lon="5.72265">
        <ele>838.07587</ele>
        <time>2026-08-29T11:15:53.000Z</time>
      </trkpt>
      <trkpt lat="44.96468" lon="5.72262">
        <ele>838.235293</ele>
        <time>2026-08-29T11:15:54.000Z</time>
      </trkpt>
      <trkpt lat="44.96466" lon="5.72258">
        <ele>838.380799</ele>
        <time>2026-08-29T11:15:55.000Z</time>
      </trkpt>
      <trkpt lat="44.96463" lon="5.72255">
        <ele>838.526304</ele>
        <time>2026-08-29T11:15:56.000Z</time>
      </trkpt>
      <trkpt lat="44.96461" lon="5.72252">
        <ele>838.664502</ele>
        <time>2026-08-29T11:15:57.000Z</time>
      </trkpt>
      <trkpt lat="44.96459" lon="5.72249">
        <ele>838.800591</ele>
        <time>2026-08-29T11:15:58.000Z</time>
      </trkpt>
      <trkpt lat="44.96456" lon="5.72245">
        <ele>838.940931</ele>
        <time>2026-08-29T11:15:59.000Z</time>
      </trkpt>
      <trkpt lat="44.96454" lon="5.72242">
        <ele>839.081271</ele>
        <time>2026-08-29T11:16:00.000Z</time>
      </trkpt>
      <trkpt lat="44.96452" lon="5.72239">
        <ele>839.223784</ele>
        <time>2026-08-29T11:16:01.000Z</time>
      </trkpt>
      <trkpt lat="44.96449" lon="5.72235">
        <ele>839.365066</ele>
        <time>2026-08-29T11:16:02.000Z</time>
      </trkpt>
      <trkpt lat="44.96447" lon="5.72232">
        <ele>839.508443</ele>
        <time>2026-08-29T11:16:03.000Z</time>
      </trkpt>
      <trkpt lat="44.96445" lon="5.72229">
        <ele>839.647662</ele>
        <time>2026-08-29T11:16:04.000Z</time>
      </trkpt>
      <trkpt lat="44.96442" lon="5.72226">
        <ele>839.790072</ele>
        <time>2026-08-29T11:16:05.000Z</time>
      </trkpt>
      <trkpt lat="44.9644" lon="5.72223">
        <ele>839.930502</ele>
        <time>2026-08-29T11:16:06.000Z</time>
      </trkpt>
      <trkpt lat="44.96437" lon="5.7222">
        <ele>840.071783</ele>
        <time>2026-08-29T11:16:07.000Z</time>
      </trkpt>
      <trkpt lat="44.96435" lon="5.72217">
        <ele>840.214193</ele>
        <time>2026-08-29T11:16:08.000Z</time>
      </trkpt>
      <trkpt lat="44.96432" lon="5.72214">
        <ele>840.352682</ele>
        <time>2026-08-29T11:16:09.000Z</time>
      </trkpt>
      <trkpt lat="44.9643" lon="5.72211">
        <ele>840.494308</ele>
        <time>2026-08-29T11:16:10.000Z</time>
      </trkpt>
      <trkpt lat="44.96427" lon="5.72208">
        <ele>840.634206</ele>
        <time>2026-08-29T11:16:11.000Z</time>
      </trkpt>
      <trkpt lat="44.96424" lon="5.72206">
        <ele>840.774103</ele>
        <time>2026-08-29T11:16:12.000Z</time>
      </trkpt>
      <trkpt lat="44.96422" lon="5.72203">
        <ele>840.903588</ele>
        <time>2026-08-29T11:16:13.000Z</time>
      </trkpt>
      <trkpt lat="44.96419" lon="5.72201">
        <ele>841.023201</ele>
        <time>2026-08-29T11:16:14.000Z</time>
      </trkpt>
      <trkpt lat="44.96417" lon="5.72199">
        <ele>841.124898</ele>
        <time>2026-08-29T11:16:15.000Z</time>
      </trkpt>
      <trkpt lat="44.96414" lon="5.72197">
        <ele>841.226596</ele>
        <time>2026-08-29T11:16:16.000Z</time>
      </trkpt>
      <trkpt lat="44.96412" lon="5.72195">
        <ele>841.327641</ele>
        <time>2026-08-29T11:16:17.000Z</time>
      </trkpt>
      <trkpt lat="44.96409" lon="5.72193">
        <ele>841.434719</ele>
        <time>2026-08-29T11:16:18.000Z</time>
      </trkpt>
      <trkpt lat="44.96406" lon="5.72191">
        <ele>841.543723</ele>
        <time>2026-08-29T11:16:19.000Z</time>
      </trkpt>
      <trkpt lat="44.96403" lon="5.72189">
        <ele>841.652727</ele>
        <time>2026-08-29T11:16:20.000Z</time>
      </trkpt>
      <trkpt lat="44.964" lon="5.72187">
        <ele>841.765943</ele>
        <time>2026-08-29T11:16:21.000Z</time>
      </trkpt>
      <trkpt lat="44.96397" lon="5.72185">
        <ele>841.879158</ele>
        <time>2026-08-29T11:16:22.000Z</time>
      </trkpt>
      <trkpt lat="44.96395" lon="5.72183">
        <ele>841.989293</ele>
        <time>2026-08-29T11:16:23.000Z</time>
      </trkpt>
      <trkpt lat="44.96392" lon="5.7218">
        <ele>842.103072</ele>
        <time>2026-08-29T11:16:24.000Z</time>
      </trkpt>
      <trkpt lat="44.96389" lon="5.72177">
        <ele>842.218151</ele>
        <time>2026-08-29T11:16:25.000Z</time>
      </trkpt>
      <trkpt lat="44.96387" lon="5.72174">
        <ele>842.336219</ele>
        <time>2026-08-29T11:16:26.000Z</time>
      </trkpt>
      <trkpt lat="44.96385" lon="5.7217">
        <ele>842.444588</ele>
        <time>2026-08-29T11:16:27.000Z</time>
      </trkpt>
      <trkpt lat="44.96384" lon="5.72167">
        <ele>842.549911</ele>
        <time>2026-08-29T11:16:28.000Z</time>
      </trkpt>
      <trkpt lat="44.96383" lon="5.72163">
        <ele>842.655412</ele>
        <time>2026-08-29T11:16:29.000Z</time>
      </trkpt>
      <trkpt lat="44.96382" lon="5.72158">
        <ele>842.762026</ele>
        <time>2026-08-29T11:16:30.000Z</time>
      </trkpt>
      <trkpt lat="44.96381" lon="5.72154">
        <ele>842.868954</ele>
        <time>2026-08-29T11:16:31.000Z</time>
      </trkpt>
      <trkpt lat="44.96381" lon="5.7215">
        <ele>842.974892</ele>
        <time>2026-08-29T11:16:32.000Z</time>
      </trkpt>
      <trkpt lat="44.96381" lon="5.72146">
        <ele>843.078378</ele>
        <time>2026-08-29T11:16:33.000Z</time>
      </trkpt>
      <trkpt lat="44.96381" lon="5.72141">
        <ele>843.191647</ele>
        <time>2026-08-29T11:16:34.000Z</time>
      </trkpt>
      <trkpt lat="44.96382" lon="5.72137">
        <ele>843.306608</ele>
        <time>2026-08-29T11:16:35.000Z</time>
      </trkpt>
      <trkpt lat="44.96383" lon="5.72132">
        <ele>843.419015</ele>
        <time>2026-08-29T11:16:36.000Z</time>
      </trkpt>
      <trkpt lat="44.96385" lon="5.72128">
        <ele>843.533726</ele>
        <time>2026-08-29T11:16:37.000Z</time>
      </trkpt>
      <trkpt lat="44.96387" lon="5.72125">
        <ele>843.648819</ele>
        <time>2026-08-29T11:16:38.000Z</time>
      </trkpt>
      <trkpt lat="44.9639" lon="5.72122">
        <ele>843.765437</ele>
        <time>2026-08-29T11:16:39.000Z</time>
      </trkpt>
      <trkpt lat="44.96392" lon="5.72119">
        <ele>843.87781</ele>
        <time>2026-08-29T11:16:40.000Z</time>
      </trkpt>
      <trkpt lat="44.96395" lon="5.72116">
        <ele>843.99289</ele>
        <time>2026-08-29T11:16:41.000Z</time>
      </trkpt>
      <trkpt lat="44.96398" lon="5.72114">
        <ele>844.10843</ele>
        <time>2026-08-29T11:16:42.000Z</time>
      </trkpt>
      <trkpt lat="44.96401" lon="5.72112">
        <ele>844.224749</ele>
        <time>2026-08-29T11:16:43.000Z</time>
      </trkpt>
      <trkpt lat="44.96404" lon="5.7211">
        <ele>844.337964</ele>
        <time>2026-08-29T11:16:44.000Z</time>
      </trkpt>
      <trkpt lat="44.96407" lon="5.72108">
        <ele>844.443879</ele>
        <time>2026-08-29T11:16:45.000Z</time>
      </trkpt>
      <trkpt lat="44.96409" lon="5.72105">
        <ele>844.551776</ele>
        <time>2026-08-29T11:16:46.000Z</time>
      </trkpt>
      <trkpt lat="44.96412" lon="5.72103">
        <ele>844.663876</ele>
        <time>2026-08-29T11:16:47.000Z</time>
      </trkpt>
      <trkpt lat="44.96414" lon="5.721">
        <ele>844.780494</ele>
        <time>2026-08-29T11:16:48.000Z</time>
      </trkpt>
      <trkpt lat="44.96417" lon="5.72096">
        <ele>844.896834</ele>
        <time>2026-08-29T11:16:49.000Z</time>
      </trkpt>
      <trkpt lat="44.96419" lon="5.72093">
        <ele>845.013173</ele>
        <time>2026-08-29T11:16:50.000Z</time>
      </trkpt>
      <trkpt lat="44.96421" lon="5.72089">
        <ele>845.123772</ele>
        <time>2026-08-29T11:16:51.000Z</time>
      </trkpt>
      <trkpt lat="44.96423" lon="5.72086">
        <ele>845.236587</ele>
        <time>2026-08-29T11:16:52.000Z</time>
      </trkpt>
      <trkpt lat="44.96425" lon="5.72083">
        <ele>845.345284</ele>
        <time>2026-08-29T11:16:53.000Z</time>
      </trkpt>
      <trkpt lat="44.96427" lon="5.72079">
        <ele>845.458098</ele>
        <time>2026-08-29T11:16:54.000Z</time>
      </trkpt>
      <trkpt lat="44.96429" lon="5.72075">
        <ele>845.568508</ele>
        <time>2026-08-29T11:16:55.000Z</time>
      </trkpt>
      <trkpt lat="44.96431" lon="5.72072">
        <ele>845.674909</ele>
        <time>2026-08-29T11:16:56.000Z</time>
      </trkpt>
      <trkpt lat="44.96433" lon="5.72068">
        <ele>845.779275</ele>
        <time>2026-08-29T11:16:57.000Z</time>
      </trkpt>
      <trkpt lat="44.96434" lon="5.72065">
        <ele>845.881623</ele>
        <time>2026-08-29T11:16:58.000Z</time>
      </trkpt>
      <trkpt lat="44.96436" lon="5.72061">
        <ele>845.994013</ele>
        <time>2026-08-29T11:16:59.000Z</time>
      </trkpt>
      <trkpt lat="44.96438" lon="5.72057">
        <ele>846.106432</ele>
        <time>2026-08-29T11:17:00.000Z</time>
      </trkpt>
      <trkpt lat="44.9644" lon="5.72054">
        <ele>846.216957</ele>
        <time>2026-08-29T11:17:01.000Z</time>
      </trkpt>
      <trkpt lat="44.96441" lon="5.7205">
        <ele>846.326664</ele>
        <time>2026-08-29T11:17:02.000Z</time>
      </trkpt>
      <trkpt lat="44.96443" lon="5.72045">
        <ele>846.443929</ele>
        <time>2026-08-29T11:17:03.000Z</time>
      </trkpt>
      <trkpt lat="44.96444" lon="5.72041">
        <ele>846.558064</ele>
        <time>2026-08-29T11:17:04.000Z</time>
      </trkpt>
      <trkpt lat="44.96446" lon="5.72037">
        <ele>846.673723</ele>
        <time>2026-08-29T11:17:05.000Z</time>
      </trkpt>
      <trkpt lat="44.96447" lon="5.72033">
        <ele>846.794815</ele>
        <time>2026-08-29T11:17:06.000Z</time>
      </trkpt>
      <trkpt lat="44.96449" lon="5.72028">
        <ele>846.911178</ele>
        <time>2026-08-29T11:17:07.000Z</time>
      </trkpt>
      <trkpt lat="44.9645" lon="5.72024">
        <ele>847.02978</ele>
        <time>2026-08-29T11:17:08.000Z</time>
      </trkpt>
      <trkpt lat="44.96452" lon="5.7202">
        <ele>847.149215</ele>
        <time>2026-08-29T11:17:09.000Z</time>
      </trkpt>
      <trkpt lat="44.96453" lon="5.72015">
        <ele>847.261707</ele>
        <time>2026-08-29T11:17:10.000Z</time>
      </trkpt>
      <trkpt lat="44.96454" lon="5.72011">
        <ele>847.354313</ele>
        <time>2026-08-29T11:17:11.000Z</time>
      </trkpt>
      <trkpt lat="44.96455" lon="5.72006">
        <ele>847.445995</ele>
        <time>2026-08-29T11:17:12.000Z</time>
      </trkpt>
      <trkpt lat="44.96457" lon="5.72002">
        <ele>847.536802</ele>
        <time>2026-08-29T11:17:13.000Z</time>
      </trkpt>
      <trkpt lat="44.96458" lon="5.71997">
        <ele>847.628484</ele>
        <time>2026-08-29T11:17:14.000Z</time>
      </trkpt>
      <trkpt lat="44.96459" lon="5.71993">
        <ele>847.720166</ele>
        <time>2026-08-29T11:17:15.000Z</time>
      </trkpt>
      <trkpt lat="44.9646" lon="5.71988">
        <ele>847.815553</ele>
        <time>2026-08-29T11:17:16.000Z</time>
      </trkpt>
      <trkpt lat="44.96461" lon="5.71984">
        <ele>847.90636</ele>
        <time>2026-08-29T11:17:17.000Z</time>
      </trkpt>
      <trkpt lat="44.96462" lon="5.71979">
        <ele>847.998042</ele>
        <time>2026-08-29T11:17:18.000Z</time>
      </trkpt>
      <trkpt lat="44.96463" lon="5.71975">
        <ele>848.091546</ele>
        <time>2026-08-29T11:17:19.000Z</time>
      </trkpt>
      <trkpt lat="44.96465" lon="5.7197">
        <ele>848.185957</ele>
        <time>2026-08-29T11:17:20.000Z</time>
      </trkpt>
      <trkpt lat="44.96466" lon="5.71966">
        <ele>848.274007</ele>
        <time>2026-08-29T11:17:21.000Z</time>
      </trkpt>
      <trkpt lat="44.96467" lon="5.71961">
        <ele>848.367771</ele>
        <time>2026-08-29T11:17:22.000Z</time>
      </trkpt>
      <trkpt lat="44.96468" lon="5.71956">
        <ele>848.468602</ele>
        <time>2026-08-29T11:17:23.000Z</time>
      </trkpt>
      <trkpt lat="44.96469" lon="5.71951">
        <ele>848.571274</ele>
        <time>2026-08-29T11:17:24.000Z</time>
      </trkpt>
      <trkpt lat="44.9647" lon="5.71946">
        <ele>848.672493</ele>
        <time>2026-08-29T11:17:25.000Z</time>
      </trkpt>
      <trkpt lat="44.9647" lon="5.71941">
        <ele>848.777754</ele>
        <time>2026-08-29T11:17:26.000Z</time>
      </trkpt>
      <trkpt lat="44.96471" lon="5.71935">
        <ele>848.883981</ele>
        <time>2026-08-29T11:17:27.000Z</time>
      </trkpt>
      <trkpt lat="44.96471" lon="5.71929">
        <ele>848.995804</ele>
        <time>2026-08-29T11:17:28.000Z</time>
      </trkpt>
      <trkpt lat="44.96471" lon="5.71924">
        <ele>849.105703</ele>
        <time>2026-08-29T11:17:29.000Z</time>
      </trkpt>
      <trkpt lat="44.9647" lon="5.71918">
        <ele>849.214089</ele>
        <time>2026-08-29T11:17:30.000Z</time>
      </trkpt>
      <trkpt lat="44.9647" lon="5.71913">
        <ele>849.32056</ele>
        <time>2026-08-29T11:17:31.000Z</time>
      </trkpt>
      <trkpt lat="44.96469" lon="5.71907">
        <ele>849.430069</ele>
        <time>2026-08-29T11:17:32.000Z</time>
      </trkpt>
      <trkpt lat="44.96468" lon="5.71902">
        <ele>849.536311</ele>
        <time>2026-08-29T11:17:33.000Z</time>
      </trkpt>
      <trkpt lat="44.96468" lon="5.71896">
        <ele>849.640669</ele>
        <time>2026-08-29T11:17:34.000Z</time>
      </trkpt>
      <trkpt lat="44.96467" lon="5.71891">
        <ele>849.743145</ele>
        <time>2026-08-29T11:17:35.000Z</time>
      </trkpt>
      <trkpt lat="44.96465" lon="5.71886">
        <ele>849.847534</ele>
        <time>2026-08-29T11:17:36.000Z</time>
      </trkpt>
      <trkpt lat="44.96464" lon="5.71881">
        <ele>849.953736</ele>
        <time>2026-08-29T11:17:37.000Z</time>
      </trkpt>
      <trkpt lat="44.96463" lon="5.71875">
        <ele>850.062732</ele>
        <time>2026-08-29T11:17:38.000Z</time>
      </trkpt>
      <trkpt lat="44.96462" lon="5.7187">
        <ele>850.169892</ele>
        <time>2026-08-29T11:17:39.000Z</time>
      </trkpt>
      <trkpt lat="44.9646" lon="5.71865">
        <ele>850.277912</ele>
        <time>2026-08-29T11:17:40.000Z</time>
      </trkpt>
      <trkpt lat="44.96459" lon="5.71859">
        <ele>850.391421</ele>
        <time>2026-08-29T11:17:41.000Z</time>
      </trkpt>
      <trkpt lat="44.96457" lon="5.71854">
        <ele>850.508766</ele>
        <time>2026-08-29T11:17:42.000Z</time>
      </trkpt>
      <trkpt lat="44.96456" lon="5.71848">
        <ele>850.619075</ele>
        <time>2026-08-29T11:17:43.000Z</time>
      </trkpt>
      <trkpt lat="44.96454" lon="5.71843">
        <ele>850.728367</ele>
        <time>2026-08-29T11:17:44.000Z</time>
      </trkpt>
      <trkpt lat="44.96452" lon="5.71838">
        <ele>850.840338</ele>
        <time>2026-08-29T11:17:45.000Z</time>
      </trkpt>
      <trkpt lat="44.96449" lon="5.71834">
        <ele>850.953522</ele>
        <time>2026-08-29T11:17:46.000Z</time>
      </trkpt>
      <trkpt lat="44.96447" lon="5.71829">
        <ele>851.063654</ele>
        <time>2026-08-29T11:17:47.000Z</time>
      </trkpt>
      <trkpt lat="44.96445" lon="5.71824">
        <ele>851.177285</ele>
        <time>2026-08-29T11:17:48.000Z</time>
      </trkpt>
      <trkpt lat="44.96443" lon="5.71819">
        <ele>851.287604</ele>
        <time>2026-08-29T11:17:49.000Z</time>
      </trkpt>
      <trkpt lat="44.9644" lon="5.71814">
        <ele>851.397781</ele>
        <time>2026-08-29T11:17:50.000Z</time>
      </trkpt>
      <trkpt lat="44.96438" lon="5.7181">
        <ele>851.5114</ele>
        <time>2026-08-29T11:17:51.000Z</time>
      </trkpt>
      <trkpt lat="44.96435" lon="5.71805">
        <ele>851.616731</ele>
        <time>2026-08-29T11:17:52.000Z</time>
      </trkpt>
      <trkpt lat="44.96433" lon="5.71801">
        <ele>851.715825</ele>
        <time>2026-08-29T11:17:53.000Z</time>
      </trkpt>
      <trkpt lat="44.96431" lon="5.71797">
        <ele>851.81803</ele>
        <time>2026-08-29T11:17:54.000Z</time>
      </trkpt>
      <trkpt lat="44.96429" lon="5.71792">
        <ele>851.918645</ele>
        <time>2026-08-29T11:17:55.000Z</time>
      </trkpt>
      <trkpt lat="44.96427" lon="5.71788">
        <ele>852.022397</ele>
        <time>2026-08-29T11:17:56.000Z</time>
      </trkpt>
      <trkpt lat="44.96424" lon="5.71784">
        <ele>852.128091</ele>
        <time>2026-08-29T11:17:57.000Z</time>
      </trkpt>
      <trkpt lat="44.96422" lon="5.7178">
        <ele>852.212713</ele>
        <time>2026-08-29T11:17:58.000Z</time>
      </trkpt>
      <trkpt lat="44.96419" lon="5.71776">
        <ele>852.294376</ele>
        <time>2026-08-29T11:17:59.000Z</time>
      </trkpt>
      <trkpt lat="44.96416" lon="5.71772">
        <ele>852.374574</ele>
        <time>2026-08-29T11:18:00.000Z</time>
      </trkpt>
      <trkpt lat="44.96413" lon="5.71768">
        <ele>852.453765</ele>
        <time>2026-08-29T11:18:01.000Z</time>
      </trkpt>
      <trkpt lat="44.9641" lon="5.71765">
        <ele>852.531963</ele>
        <time>2026-08-29T11:18:02.000Z</time>
      </trkpt>
      <trkpt lat="44.96407" lon="5.71761">
        <ele>852.611321</ele>
        <time>2026-08-29T11:18:03.000Z</time>
      </trkpt>
      <trkpt lat="44.96404" lon="5.71758">
        <ele>852.687274</ele>
        <time>2026-08-29T11:18:04.000Z</time>
      </trkpt>
      <trkpt lat="44.96402" lon="5.71754">
        <ele>852.762581</ele>
        <time>2026-08-29T11:18:05.000Z</time>
      </trkpt>
      <trkpt lat="44.96399" lon="5.71751">
        <ele>852.838837</ele>
        <time>2026-08-29T11:18:06.000Z</time>
      </trkpt>
      <trkpt lat="44.96396" lon="5.71747">
        <ele>852.915093</ele>
        <time>2026-08-29T11:18:07.000Z</time>
      </trkpt>
      <trkpt lat="44.96393" lon="5.71744">
        <ele>852.991046</ele>
        <time>2026-08-29T11:18:08.000Z</time>
      </trkpt>
      <trkpt lat="44.9639" lon="5.71741">
        <ele>853.070218</ele>
        <time>2026-08-29T11:18:09.000Z</time>
      </trkpt>
      <trkpt lat="44.96387" lon="5.71738">
        <ele>853.150186</ele>
        <time>2026-08-29T11:18:10.000Z</time>
      </trkpt>
      <trkpt lat="44.96383" lon="5.71734">
        <ele>853.231829</ele>
        <time>2026-08-29T11:18:11.000Z</time>
      </trkpt>
      <trkpt lat="44.9638" lon="5.71731">
        <ele>853.314603</ele>
        <time>2026-08-29T11:18:12.000Z</time>
      </trkpt>
      <trkpt lat="44.96377" lon="5.71727">
        <ele>853.39804</ele>
        <time>2026-08-29T11:18:13.000Z</time>
      </trkpt>
      <trkpt lat="44.96374" lon="5.71723">
        <ele>853.481477</ele>
        <time>2026-08-29T11:18:14.000Z</time>
      </trkpt>
      <trkpt lat="44.96371" lon="5.7172">
        <ele>853.565645</ele>
        <time>2026-08-29T11:18:15.000Z</time>
      </trkpt>
      <trkpt lat="44.96367" lon="5.71716">
        <ele>853.651454</ele>
        <time>2026-08-29T11:18:16.000Z</time>
      </trkpt>
      <trkpt lat="44.96364" lon="5.71713">
        <ele>853.73812</ele>
        <time>2026-08-29T11:18:17.000Z</time>
      </trkpt>
      <trkpt lat="44.96361" lon="5.71709">
        <ele>853.823385</ele>
        <time>2026-08-29T11:18:18.000Z</time>
      </trkpt>
      <trkpt lat="44.96357" lon="5.71705">
        <ele>853.91114</ele>
        <time>2026-08-29T11:18:19.000Z</time>
      </trkpt>
      <trkpt lat="44.96354" lon="5.71701">
        <ele>853.995484</ele>
        <time>2026-08-29T11:18:20.000Z</time>
      </trkpt>
      <trkpt lat="44.96351" lon="5.71698">
        <ele>854.078025</ele>
        <time>2026-08-29T11:18:21.000Z</time>
      </trkpt>
      <trkpt lat="44.96347" lon="5.71695">
        <ele>854.15886</ele>
        <time>2026-08-29T11:18:22.000Z</time>
      </trkpt>
      <trkpt lat="44.96344" lon="5.71692">
        <ele>854.24053</ele>
        <time>2026-08-29T11:18:23.000Z</time>
      </trkpt>
      <trkpt lat="44.96341" lon="5.71688">
        <ele>854.319889</ele>
        <time>2026-08-29T11:18:24.000Z</time>
      </trkpt>
      <trkpt lat="44.96338" lon="5.71685">
        <ele>854.399247</ele>
        <time>2026-08-29T11:18:25.000Z</time>
      </trkpt>
      <trkpt lat="44.96335" lon="5.71682">
        <ele>854.483389</ele>
        <time>2026-08-29T11:18:26.000Z</time>
      </trkpt>
      <trkpt lat="44.96331" lon="5.71678">
        <ele>854.56753</ele>
        <time>2026-08-29T11:18:27.000Z</time>
      </trkpt>
      <trkpt lat="44.96328" lon="5.71675">
        <ele>854.651699</ele>
        <time>2026-08-29T11:18:28.000Z</time>
      </trkpt>
      <trkpt lat="44.96325" lon="5.71671">
        <ele>854.735136</ele>
        <time>2026-08-29T11:18:29.000Z</time>
      </trkpt>
      <trkpt lat="44.96322" lon="5.71667">
        <ele>854.81791</ele>
        <time>2026-08-29T11:18:30.000Z</time>
      </trkpt>
      <trkpt lat="44.96319" lon="5.71664">
        <ele>854.899761</ele>
        <time>2026-08-29T11:18:31.000Z</time>
      </trkpt>
      <trkpt lat="44.96316" lon="5.71661">
        <ele>854.977231</ele>
        <time>2026-08-29T11:18:32.000Z</time>
      </trkpt>
      <trkpt lat="44.96312" lon="5.71658">
        <ele>855.0572</ele>
        <time>2026-08-29T11:18:33.000Z</time>
      </trkpt>
      <trkpt lat="44.96309" lon="5.71654">
        <ele>855.138035</ele>
        <time>2026-08-29T11:18:34.000Z</time>
      </trkpt>
      <trkpt lat="44.96306" lon="5.71651">
        <ele>855.218847</ele>
        <time>2026-08-29T11:18:35.000Z</time>
      </trkpt>
      <trkpt lat="44.96303" lon="5.71648">
        <ele>855.299658</ele>
        <time>2026-08-29T11:18:36.000Z</time>
      </trkpt>
      <trkpt lat="44.963" lon="5.71645">
        <ele>855.38047</ele>
        <time>2026-08-29T11:18:37.000Z</time>
      </trkpt>
      <trkpt lat="44.96296" lon="5.71641">
        <ele>855.45794</ele>
        <time>2026-08-29T11:18:38.000Z</time>
      </trkpt>
      <trkpt lat="44.96293" lon="5.71638">
        <ele>855.536252</ele>
        <time>2026-08-29T11:18:39.000Z</time>
      </trkpt>
      <trkpt lat="44.9629" lon="5.71635">
        <ele>855.620394</ele>
        <time>2026-08-29T11:18:40.000Z</time>
      </trkpt>
      <trkpt lat="44.96287" lon="5.71632">
        <ele>855.703704</ele>
        <time>2026-08-29T11:18:41.000Z</time>
      </trkpt>
      <trkpt lat="44.96283" lon="5.71628">
        <ele>855.786172</ele>
        <time>2026-08-29T11:18:42.000Z</time>
      </trkpt>
      <trkpt lat="44.9628" lon="5.71625">
        <ele>855.82933</ele>
        <time>2026-08-29T11:18:43.000Z</time>
      </trkpt>
      <trkpt lat="44.96277" lon="5.71621">
        <ele>855.856514</ele>
        <time>2026-08-29T11:18:44.000Z</time>
      </trkpt>
      <trkpt lat="44.96273" lon="5.71618">
        <ele>855.884258</ele>
        <time>2026-08-29T11:18:45.000Z</time>
      </trkpt>
      <trkpt lat="44.9627" lon="5.71615">
        <ele>855.911994</ele>
        <time>2026-08-29T11:18:46.000Z</time>
      </trkpt>
      <trkpt lat="44.96267" lon="5.71612">
        <ele>855.93977</ele>
        <time>2026-08-29T11:18:47.000Z</time>
      </trkpt>
      <trkpt lat="44.96263" lon="5.71608">
        <ele>855.96698</ele>
        <time>2026-08-29T11:18:48.000Z</time>
      </trkpt>
      <trkpt lat="44.9626" lon="5.71604">
        <ele>855.994483</ele>
        <time>2026-08-29T11:18:49.000Z</time>
      </trkpt>
      <trkpt lat="44.96257" lon="5.71601">
        <ele>856.021405</ele>
        <time>2026-08-29T11:18:50.000Z</time>
      </trkpt>
      <trkpt lat="44.96254" lon="5.71598">
        <ele>856.048317</ele>
        <time>2026-08-29T11:18:51.000Z</time>
      </trkpt>
      <trkpt lat="44.9625" lon="5.71595">
        <ele>856.076092</ele>
        <time>2026-08-29T11:18:52.000Z</time>
      </trkpt>
      <trkpt lat="44.96247" lon="5.71592">
        <ele>856.103137</ele>
        <time>2026-08-29T11:18:53.000Z</time>
      </trkpt>
      <trkpt lat="44.96243" lon="5.71589">
        <ele>856.129951</ele>
        <time>2026-08-29T11:18:54.000Z</time>
      </trkpt>
      <trkpt lat="44.9624" lon="5.71586">
        <ele>856.156413</ele>
        <time>2026-08-29T11:18:55.000Z</time>
      </trkpt>
      <trkpt lat="44.96236" lon="5.71583">
        <ele>856.184705</ele>
        <time>2026-08-29T11:18:56.000Z</time>
      </trkpt>
      <trkpt lat="44.96233" lon="5.7158">
        <ele>856.214361</ele>
        <time>2026-08-29T11:18:57.000Z</time>
      </trkpt>
      <trkpt lat="44.96229" lon="5.71576">
        <ele>856.243193</ele>
        <time>2026-08-29T11:18:58.000Z</time>
      </trkpt>
      <trkpt lat="44.96226" lon="5.71572">
        <ele>856.273408</ele>
        <time>2026-08-29T11:18:59.000Z</time>
      </trkpt>
      <trkpt lat="44.96222" lon="5.71568">
        <ele>856.304711</ele>
        <time>2026-08-29T11:19:00.000Z</time>
      </trkpt>
      <trkpt lat="44.96218" lon="5.71564">
        <ele>856.336623</ele>
        <time>2026-08-29T11:19:01.000Z</time>
      </trkpt>
      <trkpt lat="44.96214" lon="5.7156">
        <ele>856.367714</ele>
        <time>2026-08-29T11:19:02.000Z</time>
      </trkpt>
      <trkpt lat="44.96211" lon="5.71556">
        <ele>856.399531</ele>
        <time>2026-08-29T11:19:03.000Z</time>
      </trkpt>
      <trkpt lat="44.96207" lon="5.71551">
        <ele>856.43266</ele>
        <time>2026-08-29T11:19:04.000Z</time>
      </trkpt>
      <trkpt lat="44.96204" lon="5.71545">
        <ele>856.467155</ele>
        <time>2026-08-29T11:19:05.000Z</time>
      </trkpt>
      <trkpt lat="44.96201" lon="5.7154">
        <ele>856.500576</ele>
        <time>2026-08-29T11:19:06.000Z</time>
      </trkpt>
      <trkpt lat="44.96198" lon="5.71534">
        <ele>856.532081</ele>
        <time>2026-08-29T11:19:07.000Z</time>
      </trkpt>
      <trkpt lat="44.96196" lon="5.71528">
        <ele>856.564132</ele>
        <time>2026-08-29T11:19:08.000Z</time>
      </trkpt>
      <trkpt lat="44.96194" lon="5.71522">
        <ele>856.595983</ele>
        <time>2026-08-29T11:19:09.000Z</time>
      </trkpt>
      <trkpt lat="44.96192" lon="5.71516">
        <ele>856.627177</ele>
        <time>2026-08-29T11:19:10.000Z</time>
      </trkpt>
      <trkpt lat="44.96191" lon="5.7151">
        <ele>856.658221</ele>
        <time>2026-08-29T11:19:11.000Z</time>
      </trkpt>
      <trkpt lat="44.9619" lon="5.71503">
        <ele>856.689871</ele>
        <time>2026-08-29T11:19:12.000Z</time>
      </trkpt>
      <trkpt lat="44.9619" lon="5.71497">
        <ele>856.720589</ele>
        <time>2026-08-29T11:19:13.000Z</time>
      </trkpt>
      <trkpt lat="44.96189" lon="5.71491">
        <ele>856.751873</ele>
        <time>2026-08-29T11:19:14.000Z</time>
      </trkpt>
      <trkpt lat="44.96188" lon="5.71484">
        <ele>856.784402</ele>
        <time>2026-08-29T11:19:15.000Z</time>
      </trkpt>
      <trkpt lat="44.96188" lon="5.71477">
        <ele>856.81724</ele>
        <time>2026-08-29T11:19:16.000Z</time>
      </trkpt>
      <trkpt lat="44.96188" lon="5.7147">
        <ele>856.849595</ele>
        <time>2026-08-29T11:19:17.000Z</time>
      </trkpt>
      <trkpt lat="44.96188" lon="5.71463">
        <ele>856.881475</ele>
        <time>2026-08-29T11:19:18.000Z</time>
      </trkpt>
      <trkpt lat="44.96188" lon="5.71456">
        <ele>856.914306</ele>
        <time>2026-08-29T11:19:19.000Z</time>
      </trkpt>
      <trkpt lat="44.96188" lon="5.71449">
        <ele>856.948115</ele>
        <time>2026-08-29T11:19:20.000Z</time>
      </trkpt>
      <trkpt lat="44.96189" lon="5.71442">
        <ele>856.982138</ele>
        <time>2026-08-29T11:19:21.000Z</time>
      </trkpt>
      <trkpt lat="44.9619" lon="5.71435">
        <ele>857.016346</ele>
        <time>2026-08-29T11:19:22.000Z</time>
      </trkpt>
      <trkpt lat="44.96191" lon="5.71428">
        <ele>856.977053</ele>
        <time>2026-08-29T11:19:23.000Z</time>
      </trkpt>
      <trkpt lat="44.96192" lon="5.71421">
        <ele>856.931949</ele>
        <time>2026-08-29T11:19:24.000Z</time>
      </trkpt>
      <trkpt lat="44.96193" lon="5.71413">
        <ele>856.885656</ele>
        <time>2026-08-29T11:19:25.000Z</time>
      </trkpt>
      <trkpt lat="44.96194" lon="5.71406">
        <ele>856.838355</ele>
        <time>2026-08-29T11:19:26.000Z</time>
      </trkpt>
      <trkpt lat="44.96196" lon="5.71398">
        <ele>856.789878</ele>
        <time>2026-08-29T11:19:27.000Z</time>
      </trkpt>
      <trkpt lat="44.96197" lon="5.7139">
        <ele>856.739827</ele>
        <time>2026-08-29T11:19:28.000Z</time>
      </trkpt>
      <trkpt lat="44.96198" lon="5.71382">
        <ele>856.689776</ele>
        <time>2026-08-29T11:19:29.000Z</time>
      </trkpt>
      <trkpt lat="44.962" lon="5.71374">
        <ele>856.639726</ele>
        <time>2026-08-29T11:19:30.000Z</time>
      </trkpt>
      <trkpt lat="44.96201" lon="5.71366">
        <ele>856.58908</ele>
        <time>2026-08-29T11:19:31.000Z</time>
      </trkpt>
      <trkpt lat="44.96202" lon="5.71358">
        <ele>856.537645</ele>
        <time>2026-08-29T11:19:32.000Z</time>
      </trkpt>
      <trkpt lat="44.96203" lon="5.71349">
        <ele>856.484956</ele>
        <time>2026-08-29T11:19:33.000Z</time>
      </trkpt>
      <trkpt lat="44.96204" lon="5.71341">
        <ele>856.432776</ele>
        <time>2026-08-29T11:19:34.000Z</time>
      </trkpt>
      <trkpt lat="44.96204" lon="5.71332">
        <ele>856.38144</ele>
        <time>2026-08-29T11:19:35.000Z</time>
      </trkpt>
      <trkpt lat="44.96205" lon="5.71324">
        <ele>856.330192</ele>
        <time>2026-08-29T11:19:36.000Z</time>
      </trkpt>
      <trkpt lat="44.96205" lon="5.71316">
        <ele>856.280073</ele>
        <time>2026-08-29T11:19:37.000Z</time>
      </trkpt>
      <trkpt lat="44.96205" lon="5.71307">
        <ele>856.228737</ele>
        <time>2026-08-29T11:19:38.000Z</time>
      </trkpt>
      <trkpt lat="44.96206" lon="5.71299">
        <ele>856.177488</ele>
        <time>2026-08-29T11:19:39.000Z</time>
      </trkpt>
      <trkpt lat="44.96206" lon="5.7129">
        <ele>856.125594</ele>
        <time>2026-08-29T11:19:40.000Z</time>
      </trkpt>
      <trkpt lat="44.96206" lon="5.71282">
        <ele>856.072978</ele>
        <time>2026-08-29T11:19:41.000Z</time>
      </trkpt>
      <trkpt lat="44.96207" lon="5.71273">
        <ele>856.019866</ele>
        <time>2026-08-29T11:19:42.000Z</time>
      </trkpt>
      <trkpt lat="44.96207" lon="5.71264">
        <ele>855.966096</ele>
        <time>2026-08-29T11:19:43.000Z</time>
      </trkpt>
      <trkpt lat="44.96208" lon="5.71255">
        <ele>855.910975</ele>
        <time>2026-08-29T11:19:44.000Z</time>
      </trkpt>
      <trkpt lat="44.96208" lon="5.71246">
        <ele>855.854553</ele>
        <time>2026-08-29T11:19:45.000Z</time>
      </trkpt>
      <trkpt lat="44.96209" lon="5.71237">
        <ele>855.797178</ele>
        <time>2026-08-29T11:19:46.000Z</time>
      </trkpt>
      <trkpt lat="44.96209" lon="5.71227">
        <ele>855.740444</ele>
        <time>2026-08-29T11:19:47.000Z</time>
      </trkpt>
      <trkpt lat="44.96209" lon="5.71218">
        <ele>855.68424</ele>
        <time>2026-08-29T11:19:48.000Z</time>
      </trkpt>
      <trkpt lat="44.9621" lon="5.71209">
        <ele>855.628116</ele>
        <time>2026-08-29T11:19:49.000Z</time>
      </trkpt>
      <trkpt lat="44.9621" lon="5.712">
        <ele>855.571382</ele>
        <time>2026-08-29T11:19:50.000Z</time>
      </trkpt>
      <trkpt lat="44.9621" lon="5.71191">
        <ele>855.515257</ele>
        <time>2026-08-29T11:19:51.000Z</time>
      </trkpt>
      <trkpt lat="44.9621" lon="5.71181">
        <ele>855.45563</ele>
        <time>2026-08-29T11:19:52.000Z</time>
      </trkpt>
      <trkpt lat="44.9621" lon="5.71172">
        <ele>855.369208</ele>
        <time>2026-08-29T11:19:53.000Z</time>
      </trkpt>
      <trkpt lat="44.9621" lon="5.71162">
        <ele>855.281006</ele>
        <time>2026-08-29T11:19:54.000Z</time>
      </trkpt>
      <trkpt lat="44.9621" lon="5.71152">
        <ele>855.194584</ele>
        <time>2026-08-29T11:19:55.000Z</time>
      </trkpt>
      <trkpt lat="44.9621" lon="5.71143">
        <ele>855.11076</ele>
        <time>2026-08-29T11:19:56.000Z</time>
      </trkpt>
      <trkpt lat="44.96209" lon="5.71133">
        <ele>855.025155</ele>
        <time>2026-08-29T11:19:57.000Z</time>
      </trkpt>
      <trkpt lat="44.96209" lon="5.71123">
        <ele>854.938706</ele>
        <time>2026-08-29T11:19:58.000Z</time>
      </trkpt>
      <trkpt lat="44.96209" lon="5.71114">
        <ele>854.854038</ele>
        <time>2026-08-29T11:19:59.000Z</time>
      </trkpt>
      <trkpt lat="44.96209" lon="5.71105">
        <ele>854.772042</ele>
        <time>2026-08-29T11:20:00.000Z</time>
      </trkpt>
      <trkpt lat="44.96209" lon="5.71096">
        <ele>854.690084</ele>
        <time>2026-08-29T11:20:01.000Z</time>
      </trkpt>
      <trkpt lat="44.96209" lon="5.71086">
        <ele>854.609007</ele>
        <time>2026-08-29T11:20:02.000Z</time>
      </trkpt>
      <trkpt lat="44.96209" lon="5.71077">
        <ele>854.527852</ele>
        <time>2026-08-29T11:20:03.000Z</time>
      </trkpt>
      <trkpt lat="44.96209" lon="5.71068">
        <ele>854.448476</ele>
        <time>2026-08-29T11:20:04.000Z</time>
      </trkpt>
      <trkpt lat="44.96208" lon="5.7106">
        <ele>854.369151</ele>
        <time>2026-08-29T11:20:05.000Z</time>
      </trkpt>
      <trkpt lat="44.96208" lon="5.71051">
        <ele>854.289856</ele>
        <time>2026-08-29T11:20:06.000Z</time>
      </trkpt>
      <trkpt lat="44.96208" lon="5.71042">
        <ele>854.21053</ele>
        <time>2026-08-29T11:20:07.000Z</time>
      </trkpt>
      <trkpt lat="44.96208" lon="5.71033">
        <ele>854.130315</ele>
        <time>2026-08-29T11:20:08.000Z</time>
      </trkpt>
      <trkpt lat="44.96207" lon="5.71024">
        <ele>854.048009</ele>
        <time>2026-08-29T11:20:09.000Z</time>
      </trkpt>
      <trkpt lat="44.96206" lon="5.71015">
        <ele>853.967203</ele>
        <time>2026-08-29T11:20:10.000Z</time>
      </trkpt>
      <trkpt lat="44.96206" lon="5.71006">
        <ele>853.888314</ele>
        <time>2026-08-29T11:20:11.000Z</time>
      </trkpt>
      <trkpt lat="44.96205" lon="5.70997">
        <ele>853.809426</ele>
        <time>2026-08-29T11:20:12.000Z</time>
      </trkpt>
      <trkpt lat="44.96204" lon="5.70988">
        <ele>853.731786</ele>
        <time>2026-08-29T11:20:13.000Z</time>
      </trkpt>
      <trkpt lat="44.96203" lon="5.7098">
        <ele>853.653931</ele>
        <time>2026-08-29T11:20:14.000Z</time>
      </trkpt>
      <trkpt lat="44.96202" lon="5.70971">
        <ele>853.5752</ele>
        <time>2026-08-29T11:20:15.000Z</time>
      </trkpt>
      <trkpt lat="44.96201" lon="5.70963">
        <ele>853.497729</ele>
        <time>2026-08-29T11:20:16.000Z</time>
      </trkpt>
      <trkpt lat="44.96199" lon="5.70954">
        <ele>853.420514</ele>
        <time>2026-08-29T11:20:17.000Z</time>
      </trkpt>
      <trkpt lat="44.96198" lon="5.70945">
        <ele>853.340429</ele>
        <time>2026-08-29T11:20:18.000Z</time>
      </trkpt>
      <trkpt lat="44.96197" lon="5.70937">
        <ele>853.260658</ele>
        <time>2026-08-29T11:20:19.000Z</time>
      </trkpt>
      <trkpt lat="44.96195" lon="5.70928">
        <ele>853.179857</ele>
        <time>2026-08-29T11:20:20.000Z</time>
      </trkpt>
      <trkpt lat="44.96193" lon="5.7092">
        <ele>853.08778</ele>
        <time>2026-08-29T11:20:21.000Z</time>
      </trkpt>
      <trkpt lat="44.96191" lon="5.70911">
        <ele>852.996289</ele>
        <time>2026-08-29T11:20:22.000Z</time>
      </trkpt>
      <trkpt lat="44.9619" lon="5.70903">
        <ele>852.906333</ele>
        <time>2026-08-29T11:20:23.000Z</time>
      </trkpt>
      <trkpt lat="44.96187" lon="5.70895">
        <ele>852.814262</ele>
        <time>2026-08-29T11:20:24.000Z</time>
      </trkpt>
      <trkpt lat="44.96184" lon="5.70886">
        <ele>852.717234</ele>
        <time>2026-08-29T11:20:25.000Z</time>
      </trkpt>
      <trkpt lat="44.96181" lon="5.70878">
        <ele>852.620855</ele>
        <time>2026-08-29T11:20:26.000Z</time>
      </trkpt>
      <trkpt lat="44.96178" lon="5.7087">
        <ele>852.526324</ele>
        <time>2026-08-29T11:20:27.000Z</time>
      </trkpt>
      <trkpt lat="44.96175" lon="5.70861">
        <ele>852.431364</ele>
        <time>2026-08-29T11:20:28.000Z</time>
      </trkpt>
      <trkpt lat="44.96172" lon="5.70853">
        <ele>852.334336</ele>
        <time>2026-08-29T11:20:29.000Z</time>
      </trkpt>
      <trkpt lat="44.96169" lon="5.70844">
        <ele>852.236374</ele>
        <time>2026-08-29T11:20:30.000Z</time>
      </trkpt>
      <trkpt lat="44.96166" lon="5.70835">
        <ele>852.134717</ele>
        <time>2026-08-29T11:20:31.000Z</time>
      </trkpt>
      <trkpt lat="44.96164" lon="5.70826">
        <ele>852.032391</ele>
        <time>2026-08-29T11:20:32.000Z</time>
      </trkpt>
      <trkpt lat="44.96161" lon="5.70817">
        <ele>851.929686</ele>
        <time>2026-08-29T11:20:33.000Z</time>
      </trkpt>
      <trkpt lat="44.96159" lon="5.70808">
        <ele>851.829541</ele>
        <time>2026-08-29T11:20:34.000Z</time>
      </trkpt>
      <trkpt lat="44.96157" lon="5.70799">
        <ele>851.72931</ele>
        <time>2026-08-29T11:20:35.000Z</time>
      </trkpt>
      <trkpt lat="44.96155" lon="5.70789">
        <ele>851.628501</ele>
        <time>2026-08-29T11:20:36.000Z</time>
      </trkpt>
      <trkpt lat="44.96153" lon="5.7078">
        <ele>851.528684</ele>
        <time>2026-08-29T11:20:37.000Z</time>
      </trkpt>
      <trkpt lat="44.96151" lon="5.70771">
        <ele>851.431329</ele>
        <time>2026-08-29T11:20:38.000Z</time>
      </trkpt>
      <trkpt lat="44.9615" lon="5.70762">
        <ele>851.334637</ele>
        <time>2026-08-29T11:20:39.000Z</time>
      </trkpt>
      <trkpt lat="44.96148" lon="5.70753">
        <ele>851.237584</ele>
        <time>2026-08-29T11:20:40.000Z</time>
      </trkpt>
      <trkpt lat="44.96147" lon="5.70743">
        <ele>851.136509</ele>
        <time>2026-08-29T11:20:41.000Z</time>
      </trkpt>
      <trkpt lat="44.96145" lon="5.70734">
        <ele>851.036137</ele>
        <time>2026-08-29T11:20:42.000Z</time>
      </trkpt>
      <trkpt lat="44.96144" lon="5.70724">
        <ele>850.937082</ele>
        <time>2026-08-29T11:20:43.000Z</time>
      </trkpt>
      <trkpt lat="44.96143" lon="5.70715">
        <ele>850.839851</ele>
        <time>2026-08-29T11:20:44.000Z</time>
      </trkpt>
      <trkpt lat="44.96141" lon="5.70705">
        <ele>850.741603</ele>
        <time>2026-08-29T11:20:45.000Z</time>
      </trkpt>
      <trkpt lat="44.9614" lon="5.70696">
        <ele>850.644371</ele>
        <time>2026-08-29T11:20:46.000Z</time>
      </trkpt>
      <trkpt lat="44.96139" lon="5.70687">
        <ele>850.54633</ele>
        <time>2026-08-29T11:20:47.000Z</time>
      </trkpt>
      <trkpt lat="44.96138" lon="5.70677">
        <ele>850.445739</ele>
        <time>2026-08-29T11:20:48.000Z</time>
      </trkpt>
      <trkpt lat="44.96137" lon="5.70667">
        <ele>850.347884</ele>
        <time>2026-08-29T11:20:49.000Z</time>
      </trkpt>
      <trkpt lat="44.96136" lon="5.70658">
        <ele>850.249773</ele>
        <time>2026-08-29T11:20:50.000Z</time>
      </trkpt>
      <trkpt lat="44.96134" lon="5.70648">
        <ele>850.148703</ele>
        <time>2026-08-29T11:20:51.000Z</time>
      </trkpt>
      <trkpt lat="44.96133" lon="5.70638">
        <ele>850.050309</ele>
        <time>2026-08-29T11:20:52.000Z</time>
      </trkpt>
      <trkpt lat="44.96132" lon="5.70628">
        <ele>849.952691</ele>
        <time>2026-08-29T11:20:53.000Z</time>
      </trkpt>
      <trkpt lat="44.96131" lon="5.70619">
        <ele>849.854082</ele>
        <time>2026-08-29T11:20:54.000Z</time>
      </trkpt>
      <trkpt lat="44.9613" lon="5.70609">
        <ele>849.754887</ele>
        <time>2026-08-29T11:20:55.000Z</time>
      </trkpt>
      <trkpt lat="44.9613" lon="5.70599">
        <ele>849.659013</ele>
        <time>2026-08-29T11:20:56.000Z</time>
      </trkpt>
      <trkpt lat="44.96129" lon="5.7059">
        <ele>849.565393</ele>
        <time>2026-08-29T11:20:57.000Z</time>
      </trkpt>
      <trkpt lat="44.96129" lon="5.70581">
        <ele>849.470655</ele>
        <time>2026-08-29T11:20:58.000Z</time>
      </trkpt>
      <trkpt lat="44.96128" lon="5.70571">
        <ele>849.374917</ele>
        <time>2026-08-29T11:20:59.000Z</time>
      </trkpt>
      <trkpt lat="44.96127" lon="5.70562">
        <ele>849.281179</ele>
        <time>2026-08-29T11:21:00.000Z</time>
      </trkpt>
      <trkpt lat="44.96127" lon="5.70553">
        <ele>849.189297</ele>
        <time>2026-08-29T11:21:01.000Z</time>
      </trkpt>
      <trkpt lat="44.96126" lon="5.70544">
        <ele>849.098413</ele>
        <time>2026-08-29T11:21:02.000Z</time>
      </trkpt>
      <trkpt lat="44.96125" lon="5.70535">
        <ele>849.008796</ele>
        <time>2026-08-29T11:21:03.000Z</time>
      </trkpt>
      <trkpt lat="44.96125" lon="5.70526">
        <ele>848.919907</ele>
        <time>2026-08-29T11:21:04.000Z</time>
      </trkpt>
      <trkpt lat="44.96124" lon="5.70517">
        <ele>848.830391</ele>
        <time>2026-08-29T11:21:05.000Z</time>
      </trkpt>
      <trkpt lat="44.96124" lon="5.70509">
        <ele>848.745884</ele>
        <time>2026-08-29T11:21:06.000Z</time>
      </trkpt>
      <trkpt lat="44.96123" lon="5.705">
        <ele>848.662269</ele>
        <time>2026-08-29T11:21:07.000Z</time>
      </trkpt>
      <trkpt lat="44.96123" lon="5.70492">
        <ele>848.579362</ele>
        <time>2026-08-29T11:21:08.000Z</time>
      </trkpt>
      <trkpt lat="44.96122" lon="5.70484">
        <ele>848.499043</ele>
        <time>2026-08-29T11:21:09.000Z</time>
      </trkpt>
      <trkpt lat="44.96121" lon="5.70477">
        <ele>848.421427</ele>
        <time>2026-08-29T11:21:10.000Z</time>
      </trkpt>
      <trkpt lat="44.96121" lon="5.70469">
        <ele>848.346024</ele>
        <time>2026-08-29T11:21:11.000Z</time>
      </trkpt>
      <trkpt lat="44.96121" lon="5.70462">
        <ele>848.273529</ele>
        <time>2026-08-29T11:21:12.000Z</time>
      </trkpt>
      <trkpt lat="44.96122" lon="5.70456">
        <ele>848.209016</ele>
        <time>2026-08-29T11:21:13.000Z</time>
      </trkpt>
      <trkpt lat="44.96123" lon="5.7045">
        <ele>848.150678</ele>
        <time>2026-08-29T11:21:14.000Z</time>
      </trkpt>
      <trkpt lat="44.96125" lon="5.70445">
        <ele>848.09812</ele>
        <time>2026-08-29T11:21:15.000Z</time>
      </trkpt>
      <trkpt lat="44.96126" lon="5.70441">
        <ele>848.053583</ele>
        <time>2026-08-29T11:21:16.000Z</time>
      </trkpt>
      <trkpt lat="44.96127" lon="5.70438">
        <ele>848.019022</ele>
        <time>2026-08-29T11:21:17.000Z</time>
      </trkpt>
      <trkpt lat="44.9613" lon="5.70436">
        <ele>847.992335</ele>
        <time>2026-08-29T11:21:18.000Z</time>
      </trkpt>
      <trkpt lat="44.96131" lon="5.70435">
        <ele>847.969741</ele>
        <time>2026-08-29T11:21:19.000Z</time>
      </trkpt>
      <trkpt lat="44.96133" lon="5.70434">
        <ele>847.955847</ele>
        <time>2026-08-29T11:21:20.000Z</time>
      </trkpt>
      <trkpt lat="44.96133" lon="5.70434">
        <ele>847.952548</ele>
        <time>2026-08-29T11:21:21.000Z</time>
      </trkpt>
      <trkpt lat="44.96136" lon="5.70437">
        <ele>847.914069</ele>
        <time>2026-08-29T11:31:07.000Z</time>
      </trkpt>
      <trkpt lat="44.96138" lon="5.70439">
        <ele>847.885655</ele>
        <time>2026-08-29T11:31:08.000Z</time>
      </trkpt>
      <trkpt lat="44.96141" lon="5.70441">
        <ele>847.854605</ele>
        <time>2026-08-29T11:31:09.000Z</time>
      </trkpt>
      <trkpt lat="44.96144" lon="5.70441">
        <ele>847.822062</ele>
        <time>2026-08-29T11:31:10.000Z</time>
      </trkpt>
      <trkpt lat="44.96147" lon="5.70441">
        <ele>847.785641</ele>
        <time>2026-08-29T11:31:11.000Z</time>
      </trkpt>
      <trkpt lat="44.96151" lon="5.7044">
        <ele>847.746637</ele>
        <time>2026-08-29T11:31:12.000Z</time>
      </trkpt>
      <trkpt lat="44.96155" lon="5.70439">
        <ele>847.705831</ele>
        <time>2026-08-29T11:31:13.000Z</time>
      </trkpt>
      <trkpt lat="44.96158" lon="5.70438">
        <ele>847.664461</ele>
        <time>2026-08-29T11:31:14.000Z</time>
      </trkpt>
      <trkpt lat="44.96162" lon="5.70437">
        <ele>847.619931</ele>
        <time>2026-08-29T11:31:15.000Z</time>
      </trkpt>
      <trkpt lat="44.96167" lon="5.70436">
        <ele>847.575523</ele>
        <time>2026-08-29T11:31:16.000Z</time>
      </trkpt>
      <trkpt lat="44.96171" lon="5.70435">
        <ele>847.528753</ele>
        <time>2026-08-29T11:31:17.000Z</time>
      </trkpt>
      <trkpt lat="44.96175" lon="5.70434">
        <ele>847.481363</ele>
        <time>2026-08-29T11:31:18.000Z</time>
      </trkpt>
      <trkpt lat="44.9618" lon="5.70434">
        <ele>847.433147</ele>
        <time>2026-08-29T11:31:19.000Z</time>
      </trkpt>
      <trkpt lat="44.96184" lon="5.70434">
        <ele>847.383908</ele>
        <time>2026-08-29T11:31:20.000Z</time>
      </trkpt>
      <trkpt lat="44.96189" lon="5.70434">
        <ele>847.332512</ele>
        <time>2026-08-29T11:31:21.000Z</time>
      </trkpt>
      <trkpt lat="44.96194" lon="5.70434">
        <ele>847.281133</ele>
        <time>2026-08-29T11:31:22.000Z</time>
      </trkpt>
      <trkpt lat="44.96199" lon="5.70434">
        <ele>847.228667</ele>
        <time>2026-08-29T11:31:23.000Z</time>
      </trkpt>
      <trkpt lat="44.96204" lon="5.70434">
        <ele>847.174061</ele>
        <time>2026-08-29T11:31:24.000Z</time>
      </trkpt>
      <trkpt lat="44.96209" lon="5.70434">
        <ele>847.120526</ele>
        <time>2026-08-29T11:31:25.000Z</time>
      </trkpt>
      <trkpt lat="44.96214" lon="5.70434">
        <ele>847.064866</ele>
        <time>2026-08-29T11:31:26.000Z</time>
      </trkpt>
      <trkpt lat="44.96219" lon="5.70434">
        <ele>847.010276</ele>
        <time>2026-08-29T11:31:27.000Z</time>
      </trkpt>
      <trkpt lat="44.96225" lon="5.70434">
        <ele>846.953531</ele>
        <time>2026-08-29T11:31:28.000Z</time>
      </trkpt>
      <trkpt lat="44.9623" lon="5.70434">
        <ele>846.895656</ele>
        <time>2026-08-29T11:31:29.000Z</time>
      </trkpt>
      <trkpt lat="44.96235" lon="5.70433">
        <ele>846.837618</ele>
        <time>2026-08-29T11:31:30.000Z</time>
      </trkpt>
      <trkpt lat="44.96241" lon="5.70432">
        <ele>846.777296</ele>
        <time>2026-08-29T11:31:31.000Z</time>
      </trkpt>
      <trkpt lat="44.96247" lon="5.70431">
        <ele>846.714444</ele>
        <time>2026-08-29T11:31:32.000Z</time>
      </trkpt>
      <trkpt lat="44.96253" lon="5.7043">
        <ele>846.650844</ele>
        <time>2026-08-29T11:31:33.000Z</time>
      </trkpt>
      <trkpt lat="44.96259" lon="5.70429">
        <ele>846.585119</ele>
        <time>2026-08-29T11:31:34.000Z</time>
      </trkpt>
      <trkpt lat="44.96265" lon="5.70428">
        <ele>846.520457</ele>
        <time>2026-08-29T11:31:35.000Z</time>
      </trkpt>
      <trkpt lat="44.96271" lon="5.70427">
        <ele>846.454641</ele>
        <time>2026-08-29T11:31:36.000Z</time>
      </trkpt>
      <trkpt lat="44.96277" lon="5.70425">
        <ele>846.391665</ele>
        <time>2026-08-29T11:31:37.000Z</time>
      </trkpt>
      <trkpt lat="44.96282" lon="5.70424">
        <ele>846.328558</ele>
        <time>2026-08-29T11:31:38.000Z</time>
      </trkpt>
      <trkpt lat="44.96288" lon="5.70422">
        <ele>846.266208</ele>
        <time>2026-08-29T11:31:39.000Z</time>
      </trkpt>
      <trkpt lat="44.96294" lon="5.7042">
        <ele>846.202653</ele>
        <time>2026-08-29T11:31:40.000Z</time>
      </trkpt>
      <trkpt lat="44.963" lon="5.70418">
        <ele>846.138755</ele>
        <time>2026-08-29T11:31:41.000Z</time>
      </trkpt>
      <trkpt lat="44.96305" lon="5.70416">
        <ele>846.059538</ele>
        <time>2026-08-29T11:31:42.000Z</time>
      </trkpt>
      <trkpt lat="44.96311" lon="5.70414">
        <ele>845.961296</ele>
        <time>2026-08-29T11:31:43.000Z</time>
      </trkpt>
      <trkpt lat="44.96317" lon="5.70412">
        <ele>845.862748</ele>
        <time>2026-08-29T11:31:44.000Z</time>
      </trkpt>
      <trkpt lat="44.96323" lon="5.70409">
        <ele>845.763881</ele>
        <time>2026-08-29T11:31:45.000Z</time>
      </trkpt>
      <trkpt lat="44.96328" lon="5.70407">
        <ele>845.667452</ele>
        <time>2026-08-29T11:31:46.000Z</time>
      </trkpt>
      <trkpt lat="44.96334" lon="5.70404">
        <ele>845.569106</ele>
        <time>2026-08-29T11:31:47.000Z</time>
      </trkpt>
      <trkpt lat="44.9634" lon="5.70401">
        <ele>845.472309</ele>
        <time>2026-08-29T11:31:48.000Z</time>
      </trkpt>
      <trkpt lat="44.96345" lon="5.70398">
        <ele>845.378211</ele>
        <time>2026-08-29T11:31:49.000Z</time>
      </trkpt>
      <trkpt lat="44.96351" lon="5.70396">
        <ele>845.282576</ele>
        <time>2026-08-29T11:31:50.000Z</time>
      </trkpt>
      <trkpt lat="44.96356" lon="5.70392">
        <ele>845.184187</ele>
        <time>2026-08-29T11:31:51.000Z</time>
      </trkpt>
      <trkpt lat="44.96362" lon="5.70389">
        <ele>845.08503</ele>
        <time>2026-08-29T11:31:52.000Z</time>
      </trkpt>
      <trkpt lat="44.96367" lon="5.70385">
        <ele>844.98384</ele>
        <time>2026-08-29T11:31:53.000Z</time>
      </trkpt>
      <trkpt lat="44.96373" lon="5.70381">
        <ele>844.884436</ele>
        <time>2026-08-29T11:31:54.000Z</time>
      </trkpt>
      <trkpt lat="44.96378" lon="5.70377">
        <ele>844.784155</ele>
        <time>2026-08-29T11:31:55.000Z</time>
      </trkpt>
      <trkpt lat="44.96383" lon="5.70373">
        <ele>844.68547</ele>
        <time>2026-08-29T11:31:56.000Z</time>
      </trkpt>
      <trkpt lat="44.96388" lon="5.70368">
        <ele>844.587113</ele>
        <time>2026-08-29T11:31:57.000Z</time>
      </trkpt>
      <trkpt lat="44.96393" lon="5.70363">
        <ele>844.486239</ele>
        <time>2026-08-29T11:31:58.000Z</time>
      </trkpt>
      <trkpt lat="44.96399" lon="5.70358">
        <ele>844.38335</ele>
        <time>2026-08-29T11:31:59.000Z</time>
      </trkpt>
      <trkpt lat="44.96404" lon="5.70354">
        <ele>844.282794</ele>
        <time>2026-08-29T11:32:00.000Z</time>
      </trkpt>
      <trkpt lat="44.96409" lon="5.70349">
        <ele>844.178585</ele>
        <time>2026-08-29T11:32:01.000Z</time>
      </trkpt>
      <trkpt lat="44.96414" lon="5.70343">
        <ele>844.073022</ele>
        <time>2026-08-29T11:32:02.000Z</time>
      </trkpt>
      <trkpt lat="44.96419" lon="5.70337">
        <ele>843.964655</ele>
        <time>2026-08-29T11:32:03.000Z</time>
      </trkpt>
      <trkpt lat="44.96424" lon="5.70331">
        <ele>843.860668</ele>
        <time>2026-08-29T11:32:04.000Z</time>
      </trkpt>
      <trkpt lat="44.96428" lon="5.70324">
        <ele>843.755105</ele>
        <time>2026-08-29T11:32:05.000Z</time>
      </trkpt>
      <trkpt lat="44.96432" lon="5.70317">
        <ele>843.651853</ele>
        <time>2026-08-29T11:32:06.000Z</time>
      </trkpt>
      <trkpt lat="44.96436" lon="5.70309">
        <ele>843.546022</ele>
        <time>2026-08-29T11:32:07.000Z</time>
      </trkpt>
      <trkpt lat="44.96439" lon="5.70302">
        <ele>843.438227</ele>
        <time>2026-08-29T11:32:08.000Z</time>
      </trkpt>
      <trkpt lat="44.96443" lon="5.70294">
        <ele>843.333033</ele>
        <time>2026-08-29T11:32:09.000Z</time>
      </trkpt>
      <trkpt lat="44.96446" lon="5.70286">
        <ele>843.22666</ele>
        <time>2026-08-29T11:32:10.000Z</time>
      </trkpt>
      <trkpt lat="44.96449" lon="5.70278">
        <ele>843.104288</ele>
        <time>2026-08-29T11:32:11.000Z</time>
      </trkpt>
      <trkpt lat="44.96452" lon="5.70269">
        <ele>842.956668</ele>
        <time>2026-08-29T11:32:12.000Z</time>
      </trkpt>
      <trkpt lat="44.96456" lon="5.7026">
        <ele>842.807322</ele>
        <time>2026-08-29T11:32:13.000Z</time>
      </trkpt>
      <trkpt lat="44.96458" lon="5.70251">
        <ele>842.657079</ele>
        <time>2026-08-29T11:32:14.000Z</time>
      </trkpt>
      <trkpt lat="44.96461" lon="5.70242">
        <ele>842.507165</ele>
        <time>2026-08-29T11:32:15.000Z</time>
      </trkpt>
      <trkpt lat="44.96464" lon="5.70233">
        <ele>842.356772</ele>
        <time>2026-08-29T11:32:16.000Z</time>
      </trkpt>
      <trkpt lat="44.96466" lon="5.70224">
        <ele>842.208466</ele>
        <time>2026-08-29T11:32:17.000Z</time>
      </trkpt>
      <trkpt lat="44.96468" lon="5.70215">
        <ele>842.060924</ele>
        <time>2026-08-29T11:32:18.000Z</time>
      </trkpt>
      <trkpt lat="44.96471" lon="5.70206">
        <ele>841.917698</ele>
        <time>2026-08-29T11:32:19.000Z</time>
      </trkpt>
      <trkpt lat="44.96473" lon="5.70197">
        <ele>841.775834</ele>
        <time>2026-08-29T11:32:20.000Z</time>
      </trkpt>
      <trkpt lat="44.96475" lon="5.70189">
        <ele>841.636797</ele>
        <time>2026-08-29T11:32:21.000Z</time>
      </trkpt>
      <trkpt lat="44.96478" lon="5.7018">
        <ele>841.500719</ele>
        <time>2026-08-29T11:32:22.000Z</time>
      </trkpt>
      <trkpt lat="44.9648" lon="5.70172">
        <ele>841.370628</ele>
        <time>2026-08-29T11:32:23.000Z</time>
      </trkpt>
      <trkpt lat="44.96483" lon="5.70165">
        <ele>841.239636</ele>
        <time>2026-08-29T11:32:24.000Z</time>
      </trkpt>
      <trkpt lat="44.96485" lon="5.70157">
        <ele>841.109022</ele>
        <time>2026-08-29T11:32:25.000Z</time>
      </trkpt>
      <trkpt lat="44.96487" lon="5.70149">
        <ele>840.980041</ele>
        <time>2026-08-29T11:32:26.000Z</time>
      </trkpt>
      <trkpt lat="44.96489" lon="5.70141">
        <ele>840.856852</ele>
        <time>2026-08-29T11:32:27.000Z</time>
      </trkpt>
      <trkpt lat="44.96491" lon="5.70134">
        <ele>840.737206</ele>
        <time>2026-08-29T11:32:28.000Z</time>
      </trkpt>
      <trkpt lat="44.96493" lon="5.70127">
        <ele>840.619694</ele>
        <time>2026-08-29T11:32:29.000Z</time>
      </trkpt>
      <trkpt lat="44.96495" lon="5.7012">
        <ele>840.506975</ele>
        <time>2026-08-29T11:32:30.000Z</time>
      </trkpt>
      <trkpt lat="44.96497" lon="5.70113">
        <ele>840.391098</ele>
        <time>2026-08-29T11:32:31.000Z</time>
      </trkpt>
      <trkpt lat="44.965" lon="5.70106">
        <ele>840.271972</ele>
        <time>2026-08-29T11:32:32.000Z</time>
      </trkpt>
      <trkpt lat="44.96502" lon="5.70099">
        <ele>840.148761</ele>
        <time>2026-08-29T11:32:33.000Z</time>
      </trkpt>
      <trkpt lat="44.96505" lon="5.70091">
        <ele>840.02509</ele>
        <time>2026-08-29T11:32:34.000Z</time>
      </trkpt>
      <trkpt lat="44.96507" lon="5.70084">
        <ele>839.900037</ele>
        <time>2026-08-29T11:32:35.000Z</time>
      </trkpt>
      <trkpt lat="44.9651" lon="5.70077">
        <ele>839.776548</ele>
        <time>2026-08-29T11:32:36.000Z</time>
      </trkpt>
      <trkpt lat="44.96514" lon="5.7007">
        <ele>839.650023</ele>
        <time>2026-08-29T11:32:37.000Z</time>
      </trkpt>
      <trkpt lat="44.96518" lon="5.70064">
        <ele>839.523671</ele>
        <time>2026-08-29T11:32:38.000Z</time>
      </trkpt>
      <trkpt lat="44.96523" lon="5.70059">
        <ele>839.389526</ele>
        <time>2026-08-29T11:32:39.000Z</time>
      </trkpt>
      <trkpt lat="44.96528" lon="5.70055">
        <ele>839.23466</ele>
        <time>2026-08-29T11:32:40.000Z</time>
      </trkpt>
      <trkpt lat="44.96534" lon="5.70052">
        <ele>839.029723</ele>
        <time>2026-08-29T11:32:41.000Z</time>
      </trkpt>
      <trkpt lat="44.9654" lon="5.70051">
        <ele>838.824997</ele>
        <time>2026-08-29T11:32:42.000Z</time>
      </trkpt>
      <trkpt lat="44.96546" lon="5.70052">
        <ele>838.62459</ele>
        <time>2026-08-29T11:32:43.000Z</time>
      </trkpt>
      <trkpt lat="44.96552" lon="5.70053">
        <ele>838.41932</ele>
        <time>2026-08-29T11:32:44.000Z</time>
      </trkpt>
      <trkpt lat="44.96558" lon="5.70054">
        <ele>838.216699</ele>
        <time>2026-08-29T11:32:45.000Z</time>
      </trkpt>
      <trkpt lat="44.96564" lon="5.70056">
        <ele>838.003441</ele>
        <time>2026-08-29T11:32:46.000Z</time>
      </trkpt>
      <trkpt lat="44.96571" lon="5.70057">
        <ele>837.787613</ele>
        <time>2026-08-29T11:32:47.000Z</time>
      </trkpt>
      <trkpt lat="44.96577" lon="5.70058">
        <ele>837.571062</ele>
        <time>2026-08-29T11:32:48.000Z</time>
      </trkpt>
      <trkpt lat="44.96584" lon="5.7006">
        <ele>837.351217</ele>
        <time>2026-08-29T11:32:49.000Z</time>
      </trkpt>
      <trkpt lat="44.9659" lon="5.70062">
        <ele>837.123995</ele>
        <time>2026-08-29T11:32:50.000Z</time>
      </trkpt>
      <trkpt lat="44.96596" lon="5.70064">
        <ele>836.922263</ele>
        <time>2026-08-29T11:32:51.000Z</time>
      </trkpt>
      <trkpt lat="44.96601" lon="5.70067">
        <ele>836.740473</ele>
        <time>2026-08-29T11:32:52.000Z</time>
      </trkpt>
      <trkpt lat="44.96606" lon="5.70069">
        <ele>836.587418</ele>
        <time>2026-08-29T11:32:53.000Z</time>
      </trkpt>
      <trkpt lat="44.96609" lon="5.70071">
        <ele>836.465999</ele>
        <time>2026-08-29T11:32:54.000Z</time>
      </trkpt>
      <trkpt lat="44.96612" lon="5.7007">
        <ele>836.375594</ele>
        <time>2026-08-29T11:32:55.000Z</time>
      </trkpt>
      <trkpt lat="44.96614" lon="5.70069">
        <ele>836.300836</ele>
        <time>2026-08-29T11:32:56.000Z</time>
      </trkpt>
      <trkpt lat="44.96616" lon="5.70068">
        <ele>836.23394</ele>
        <time>2026-08-29T11:32:57.000Z</time>
      </trkpt>
      <trkpt lat="44.96617" lon="5.70067">
        <ele>836.182111</ele>
        <time>2026-08-29T11:32:58.000Z</time>
      </trkpt>
      <trkpt lat="44.96618" lon="5.70066">
        <ele>836.154783</ele>
        <time>2026-08-29T11:32:59.000Z</time>
      </trkpt>
      <trkpt lat="44.96618" lon="5.70066">
        <ele>836.144495</ele>
        <time>2026-08-29T11:33:00.000Z</time>
      </trkpt>
      <trkpt lat="44.96617" lon="5.7006">
        <ele>835.991773</ele>
        <time>2026-08-29T11:34:04.000Z</time>
      </trkpt>
      <trkpt lat="44.96615" lon="5.70058">
        <ele>835.938615</ele>
        <time>2026-08-29T11:34:05.000Z</time>
      </trkpt>
      <trkpt lat="44.96613" lon="5.70058">
        <ele>835.878484</ele>
        <time>2026-08-29T11:34:06.000Z</time>
      </trkpt>
      <trkpt lat="44.96612" lon="5.7006">
        <ele>835.815055</ele>
        <time>2026-08-29T11:34:07.000Z</time>
      </trkpt>
      <trkpt lat="44.96611" lon="5.70062">
        <ele>835.747563</ele>
        <time>2026-08-29T11:34:08.000Z</time>
      </trkpt>
      <trkpt lat="44.9661" lon="5.70065">
        <ele>835.677073</ele>
        <time>2026-08-29T11:34:09.000Z</time>
      </trkpt>
      <trkpt lat="44.9661" lon="5.70067">
        <ele>835.612958</ele>
        <time>2026-08-29T11:34:10.000Z</time>
      </trkpt>
      <trkpt lat="44.96611" lon="5.7007">
        <ele>835.533157</ele>
        <time>2026-08-29T11:34:11.000Z</time>
      </trkpt>
      <trkpt lat="44.96612" lon="5.70074">
        <ele>835.440249</ele>
        <time>2026-08-29T11:34:12.000Z</time>
      </trkpt>
      <trkpt lat="44.96614" lon="5.70077">
        <ele>835.337925</ele>
        <time>2026-08-29T11:34:13.000Z</time>
      </trkpt>
      <trkpt lat="44.96616" lon="5.7008">
        <ele>835.235881</ele>
        <time>2026-08-29T11:34:14.000Z</time>
      </trkpt>
      <trkpt lat="44.96619" lon="5.70083">
        <ele>835.129566</ele>
        <time>2026-08-29T11:34:15.000Z</time>
      </trkpt>
      <trkpt lat="44.96622" lon="5.70085">
        <ele>835.017735</ele>
        <time>2026-08-29T11:34:16.000Z</time>
      </trkpt>
      <trkpt lat="44.96625" lon="5.70088">
        <ele>834.896187</ele>
        <time>2026-08-29T11:34:17.000Z</time>
      </trkpt>
      <trkpt lat="44.96628" lon="5.70091">
        <ele>834.768008</ele>
        <time>2026-08-29T11:34:18.000Z</time>
      </trkpt>
      <trkpt lat="44.96632" lon="5.70094">
        <ele>834.630332</ele>
        <time>2026-08-29T11:34:19.000Z</time>
      </trkpt>
      <trkpt lat="44.96635" lon="5.70098">
        <ele>834.481716</ele>
        <time>2026-08-29T11:34:20.000Z</time>
      </trkpt>
      <trkpt lat="44.96639" lon="5.70102">
        <ele>834.324925</ele>
        <time>2026-08-29T11:34:21.000Z</time>
      </trkpt>
      <trkpt lat="44.96643" lon="5.70106">
        <ele>834.158628</ele>
        <time>2026-08-29T11:34:22.000Z</time>
      </trkpt>
      <trkpt lat="44.96647" lon="5.7011">
        <ele>833.982701</ele>
        <time>2026-08-29T11:34:23.000Z</time>
      </trkpt>
      <trkpt lat="44.96652" lon="5.70115">
        <ele>833.804104</ele>
        <time>2026-08-29T11:34:24.000Z</time>
      </trkpt>
      <trkpt lat="44.96656" lon="5.70119">
        <ele>833.618724</ele>
        <time>2026-08-29T11:34:25.000Z</time>
      </trkpt>
      <trkpt lat="44.96661" lon="5.70123">
        <ele>833.426198</ele>
        <time>2026-08-29T11:34:26.000Z</time>
      </trkpt>
      <trkpt lat="44.96666" lon="5.70128">
        <ele>833.213667</ele>
        <time>2026-08-29T11:34:27.000Z</time>
      </trkpt>
      <trkpt lat="44.96671" lon="5.70132">
        <ele>832.957957</ele>
        <time>2026-08-29T11:34:28.000Z</time>
      </trkpt>
      <trkpt lat="44.96677" lon="5.70136">
        <ele>832.697631</ele>
        <time>2026-08-29T11:34:29.000Z</time>
      </trkpt>
      <trkpt lat="44.96682" lon="5.70141">
        <ele>832.440937</ele>
        <time>2026-08-29T11:34:30.000Z</time>
      </trkpt>
      <trkpt lat="44.96687" lon="5.70145">
        <ele>832.187855</ele>
        <time>2026-08-29T11:34:31.000Z</time>
      </trkpt>
      <trkpt lat="44.96692" lon="5.7015">
        <ele>831.923227</ele>
        <time>2026-08-29T11:34:32.000Z</time>
      </trkpt>
      <trkpt lat="44.96697" lon="5.70155">
        <ele>831.659935</ele>
        <time>2026-08-29T11:34:33.000Z</time>
      </trkpt>
      <trkpt lat="44.96702" lon="5.7016">
        <ele>831.384474</ele>
        <time>2026-08-29T11:34:34.000Z</time>
      </trkpt>
      <trkpt lat="44.96708" lon="5.70165">
        <ele>831.095035</ele>
        <time>2026-08-29T11:34:35.000Z</time>
      </trkpt>
      <trkpt lat="44.96714" lon="5.70171">
        <ele>830.796832</ele>
        <time>2026-08-29T11:34:36.000Z</time>
      </trkpt>
      <trkpt lat="44.9672" lon="5.70176">
        <ele>830.494746</ele>
        <time>2026-08-29T11:34:37.000Z</time>
      </trkpt>
      <trkpt lat="44.96726" lon="5.70181">
        <ele>830.192659</ele>
        <time>2026-08-29T11:34:38.000Z</time>
      </trkpt>
      <trkpt lat="44.96732" lon="5.70187">
        <ele>829.882102</ele>
        <time>2026-08-29T11:34:39.000Z</time>
      </trkpt>
      <trkpt lat="44.96738" lon="5.70193">
        <ele>829.562732</ele>
        <time>2026-08-29T11:34:40.000Z</time>
      </trkpt>
      <trkpt lat="44.96745" lon="5.70198">
        <ele>829.236137</ele>
        <time>2026-08-29T11:34:41.000Z</time>
      </trkpt>
      <trkpt lat="44.96751" lon="5.70204">
        <ele>828.904322</ele>
        <time>2026-08-29T11:34:42.000Z</time>
      </trkpt>
      <trkpt lat="44.96758" lon="5.7021">
        <ele>828.564611</ele>
        <time>2026-08-29T11:34:43.000Z</time>
      </trkpt>
      <trkpt lat="44.96765" lon="5.70215">
        <ele>828.232278</ele>
        <time>2026-08-29T11:34:44.000Z</time>
      </trkpt>
      <trkpt lat="44.96772" lon="5.70221">
        <ele>827.897234</ele>
        <time>2026-08-29T11:34:45.000Z</time>
      </trkpt>
      <trkpt lat="44.96778" lon="5.70227">
        <ele>827.551348</ele>
        <time>2026-08-29T11:34:46.000Z</time>
      </trkpt>
      <trkpt lat="44.96785" lon="5.70233">
        <ele>827.207035</ele>
        <time>2026-08-29T11:34:47.000Z</time>
      </trkpt>
      <trkpt lat="44.96792" lon="5.70239">
        <ele>826.85593</ele>
        <time>2026-08-29T11:34:48.000Z</time>
      </trkpt>
      <trkpt lat="44.96799" lon="5.70246">
        <ele>826.499985</ele>
        <time>2026-08-29T11:34:49.000Z</time>
      </trkpt>
      <trkpt lat="44.96806" lon="5.70252">
        <ele>826.144267</ele>
        <time>2026-08-29T11:34:50.000Z</time>
      </trkpt>
      <trkpt lat="44.96813" lon="5.70259">
        <ele>825.793548</ele>
        <time>2026-08-29T11:34:51.000Z</time>
      </trkpt>
      <trkpt lat="44.9682" lon="5.70265">
        <ele>825.382898</ele>
        <time>2026-08-29T11:34:52.000Z</time>
      </trkpt>
      <trkpt lat="44.96827" lon="5.70271">
        <ele>824.913509</ele>
        <time>2026-08-29T11:34:53.000Z</time>
      </trkpt>
      <trkpt lat="44.96835" lon="5.70278">
        <ele>824.432123</ele>
        <time>2026-08-29T11:34:54.000Z</time>
      </trkpt>
      <trkpt lat="44.96842" lon="5.70284">
        <ele>823.948677</ele>
        <time>2026-08-29T11:34:55.000Z</time>
      </trkpt>
      <trkpt lat="44.9685" lon="5.70291">
        <ele>823.467292</ele>
        <time>2026-08-29T11:34:56.000Z</time>
      </trkpt>
      <trkpt lat="44.96857" lon="5.70297">
        <ele>822.981166</ele>
        <time>2026-08-29T11:34:57.000Z</time>
      </trkpt>
      <trkpt lat="44.96865" lon="5.70304">
        <ele>822.490935</ele>
        <time>2026-08-29T11:34:58.000Z</time>
      </trkpt>
      <trkpt lat="44.96872" lon="5.70311">
        <ele>821.996848</ele>
        <time>2026-08-29T11:34:59.000Z</time>
      </trkpt>
      <trkpt lat="44.9688" lon="5.70318">
        <ele>821.493501</ele>
        <time>2026-08-29T11:35:00.000Z</time>
      </trkpt>
      <trkpt lat="44.96887" lon="5.70324">
        <ele>820.984985</ele>
        <time>2026-08-29T11:35:01.000Z</time>
      </trkpt>
      <trkpt lat="44.96895" lon="5.70331">
        <ele>820.47852</ele>
        <time>2026-08-29T11:35:02.000Z</time>
      </trkpt>
      <trkpt lat="44.96903" lon="5.70338">
        <ele>819.956436</ele>
        <time>2026-08-29T11:35:03.000Z</time>
      </trkpt>
      <trkpt lat="44.96911" lon="5.70345">
        <ele>819.430178</ele>
        <time>2026-08-29T11:35:04.000Z</time>
      </trkpt>
      <trkpt lat="44.96919" lon="5.70352">
        <ele>818.90392</ele>
        <time>2026-08-29T11:35:05.000Z</time>
      </trkpt>
      <trkpt lat="44.96927" lon="5.7036">
        <ele>818.379761</ele>
        <time>2026-08-29T11:35:06.000Z</time>
      </trkpt>
      <trkpt lat="44.96935" lon="5.70367">
        <ele>817.843453</ele>
        <time>2026-08-29T11:35:07.000Z</time>
      </trkpt>
      <trkpt lat="44.96944" lon="5.70373">
        <ele>817.294607</ele>
        <time>2026-08-29T11:35:08.000Z</time>
      </trkpt>
      <trkpt lat="44.96954" lon="5.70378">
        <ele>816.73591</ele>
        <time>2026-08-29T11:35:09.000Z</time>
      </trkpt>
      <trkpt lat="44.96964" lon="5.70382">
        <ele>816.16029</ele>
        <time>2026-08-29T11:35:10.000Z</time>
      </trkpt>
      <trkpt lat="44.96974" lon="5.70384">
        <ele>815.579758</ele>
        <time>2026-08-29T11:35:11.000Z</time>
      </trkpt>
      <trkpt lat="44.96984" lon="5.70385">
        <ele>814.918642</ele>
        <time>2026-08-29T11:35:12.000Z</time>
      </trkpt>
      <trkpt lat="44.96995" lon="5.70386">
        <ele>814.240718</ele>
        <time>2026-08-29T11:35:13.000Z</time>
      </trkpt>
      <trkpt lat="44.97006" lon="5.70386">
        <ele>813.54397</ele>
        <time>2026-08-29T11:35:14.000Z</time>
      </trkpt>
      <trkpt lat="44.97017" lon="5.70386">
        <ele>812.859541</ele>
        <time>2026-08-29T11:35:15.000Z</time>
      </trkpt>
      <trkpt lat="44.97028" lon="5.70387">
        <ele>812.156519</ele>
        <time>2026-08-29T11:35:16.000Z</time>
      </trkpt>
      <trkpt lat="44.9704" lon="5.70387">
        <ele>811.447291</ele>
        <time>2026-08-29T11:35:17.000Z</time>
      </trkpt>
      <trkpt lat="44.97051" lon="5.70387">
        <ele>810.719237</ele>
        <time>2026-08-29T11:35:18.000Z</time>
      </trkpt>
      <trkpt lat="44.97063" lon="5.70387">
        <ele>809.991116</ele>
        <time>2026-08-29T11:35:19.000Z</time>
      </trkpt>
      <trkpt lat="44.97075" lon="5.70388">
        <ele>809.250351</ele>
        <time>2026-08-29T11:35:20.000Z</time>
      </trkpt>
      <trkpt lat="44.97087" lon="5.70388">
        <ele>808.490855</ele>
        <time>2026-08-29T11:35:21.000Z</time>
      </trkpt>
      <trkpt lat="44.97099" lon="5.70388">
        <ele>807.737634</ele>
        <time>2026-08-29T11:35:22.000Z</time>
      </trkpt>
      <trkpt lat="44.97111" lon="5.70389">
        <ele>806.990754</ele>
        <time>2026-08-29T11:35:23.000Z</time>
      </trkpt>
      <trkpt lat="44.97123" lon="5.70389">
        <ele>806.237599</ele>
        <time>2026-08-29T11:35:24.000Z</time>
      </trkpt>
      <trkpt lat="44.97135" lon="5.70389">
        <ele>805.484443</ele>
        <time>2026-08-29T11:35:25.000Z</time>
      </trkpt>
      <trkpt lat="44.97147" lon="5.70389">
        <ele>804.731222</ele>
        <time>2026-08-29T11:35:26.000Z</time>
      </trkpt>
      <trkpt lat="44.97159" lon="5.7039">
        <ele>803.964642</ele>
        <time>2026-08-29T11:35:27.000Z</time>
      </trkpt>
      <trkpt lat="44.97171" lon="5.7039">
        <ele>803.191032</ele>
        <time>2026-08-29T11:35:28.000Z</time>
      </trkpt>
      <trkpt lat="44.97183" lon="5.7039">
        <ele>802.404531</ele>
        <time>2026-08-29T11:35:29.000Z</time>
      </trkpt>
      <trkpt lat="44.97196" lon="5.7039">
        <ele>801.61803</ele>
        <time>2026-08-29T11:35:30.000Z</time>
      </trkpt>
      <trkpt lat="44.97208" lon="5.70391">
        <ele>800.831438</ele>
        <time>2026-08-29T11:35:31.000Z</time>
      </trkpt>
      <trkpt lat="44.9722" lon="5.70391">
        <ele>800.045041</ele>
        <time>2026-08-29T11:35:32.000Z</time>
      </trkpt>
      <trkpt lat="44.97232" lon="5.70391">
        <ele>799.26505</ele>
        <time>2026-08-29T11:35:33.000Z</time>
      </trkpt>
      <trkpt lat="44.97245" lon="5.70391">
        <ele>798.485007</ele>
        <time>2026-08-29T11:35:34.000Z</time>
      </trkpt>
      <trkpt lat="44.97257" lon="5.7039">
        <ele>797.705004</ele>
        <time>2026-08-29T11:35:35.000Z</time>
      </trkpt>
      <trkpt lat="44.97269" lon="5.70391">
        <ele>796.931287</ele>
        <time>2026-08-29T11:35:36.000Z</time>
      </trkpt>
      <trkpt lat="44.97281" lon="5.70391">
        <ele>796.157571</ele>
        <time>2026-08-29T11:35:37.000Z</time>
      </trkpt>
      <trkpt lat="44.97293" lon="5.70391">
        <ele>795.377463</ele>
        <time>2026-08-29T11:35:38.000Z</time>
      </trkpt>
      <trkpt lat="44.97305" lon="5.70392">
        <ele>794.597354</ele>
        <time>2026-08-29T11:35:39.000Z</time>
      </trkpt>
      <trkpt lat="44.97317" lon="5.70392">
        <ele>793.823638</ele>
        <time>2026-08-29T11:35:40.000Z</time>
      </trkpt>
      <trkpt lat="44.97329" lon="5.70392">
        <ele>793.056314</ele>
        <time>2026-08-29T11:35:41.000Z</time>
      </trkpt>
      <trkpt lat="44.97342" lon="5.70393">
        <ele>792.176476</ele>
        <time>2026-08-29T11:35:42.000Z</time>
      </trkpt>
      <trkpt lat="44.97353" lon="5.70393">
        <ele>791.273484</ele>
        <time>2026-08-29T11:35:43.000Z</time>
      </trkpt>
      <trkpt lat="44.97365" lon="5.70393">
        <ele>790.362573</ele>
        <time>2026-08-29T11:35:44.000Z</time>
      </trkpt>
      <trkpt lat="44.97377" lon="5.70394">
        <ele>789.451662</ele>
        <time>2026-08-29T11:35:45.000Z</time>
      </trkpt>
      <trkpt lat="44.9739" lon="5.70394">
        <ele>788.533417</ele>
        <time>2026-08-29T11:35:46.000Z</time>
      </trkpt>
      <trkpt lat="44.97402" lon="5.70394">
        <ele>787.622901</ele>
        <time>2026-08-29T11:35:47.000Z</time>
      </trkpt>
      <trkpt lat="44.97413" lon="5.70394">
        <ele>786.719718</ele>
        <time>2026-08-29T11:35:48.000Z</time>
      </trkpt>
      <trkpt lat="44.97425" lon="5.70395">
        <ele>785.816534</ele>
        <time>2026-08-29T11:35:49.000Z</time>
      </trkpt>
      <trkpt lat="44.97437" lon="5.70395">
        <ele>784.921049</ele>
        <time>2026-08-29T11:35:50.000Z</time>
      </trkpt>
      <trkpt lat="44.97449" lon="5.70395">
        <ele>784.002883</ele>
        <time>2026-08-29T11:35:51.000Z</time>
      </trkpt>
      <trkpt lat="44.97461" lon="5.70396">
        <ele>783.099891</ele>
        <time>2026-08-29T11:35:52.000Z</time>
      </trkpt>
      <trkpt lat="44.97473" lon="5.70396">
        <ele>782.189233</ele>
        <time>2026-08-29T11:35:53.000Z</time>
      </trkpt>
      <trkpt lat="44.97485" lon="5.70396">
        <ele>781.301334</ele>
        <time>2026-08-29T11:35:54.000Z</time>
      </trkpt>
      <trkpt lat="44.97495" lon="5.70396">
        <ele>780.50456</ele>
        <time>2026-08-29T11:35:55.000Z</time>
      </trkpt>
      <trkpt lat="44.97505" lon="5.70396">
        <ele>779.753385</ele>
        <time>2026-08-29T11:35:56.000Z</time>
      </trkpt>
      <trkpt lat="44.97514" lon="5.70396">
        <ele>779.114334</ele>
        <time>2026-08-29T11:35:57.000Z</time>
      </trkpt>
      <trkpt lat="44.97522" lon="5.70397">
        <ele>778.617494</ele>
        <time>2026-08-29T11:35:58.000Z</time>
      </trkpt>
      <trkpt lat="44.9753" lon="5.70397">
        <ele>778.145081</ele>
        <time>2026-08-29T11:35:59.000Z</time>
      </trkpt>
      <trkpt lat="44.97538" lon="5.70397">
        <ele>777.660505</ele>
        <time>2026-08-29T11:36:00.000Z</time>
      </trkpt>
      <trkpt lat="44.97546" lon="5.70397">
        <ele>777.151456</ele>
        <time>2026-08-29T11:36:01.000Z</time>
      </trkpt>
      <trkpt lat="44.97554" lon="5.70397">
        <ele>776.666879</ele>
        <time>2026-08-29T11:36:02.000Z</time>
      </trkpt>
      <trkpt lat="44.97561" lon="5.70398">
        <ele>776.213024</ele>
        <time>2026-08-29T11:36:03.000Z</time>
      </trkpt>
      <trkpt lat="44.97569" lon="5.70398">
        <ele>775.746904</ele>
        <time>2026-08-29T11:36:04.000Z</time>
      </trkpt>
      <trkpt lat="44.97577" lon="5.70398">
        <ele>775.231576</ele>
        <time>2026-08-29T11:36:05.000Z</time>
      </trkpt>
      <trkpt lat="44.97585" lon="5.70398">
        <ele>774.740925</ele>
        <time>2026-08-29T11:36:06.000Z</time>
      </trkpt>
      <trkpt lat="44.97593" lon="5.70398">
        <ele>774.268613</ele>
        <time>2026-08-29T11:36:07.000Z</time>
      </trkpt>
      <trkpt lat="44.976" lon="5.70398">
        <ele>773.808564</ele>
        <time>2026-08-29T11:36:08.000Z</time>
      </trkpt>
      <trkpt lat="44.97607" lon="5.70397">
        <ele>773.390085</ele>
        <time>2026-08-29T11:36:09.000Z</time>
      </trkpt>
      <trkpt lat="44.97613" lon="5.70396">
        <ele>773.023875</ele>
        <time>2026-08-29T11:36:10.000Z</time>
      </trkpt>
      <trkpt lat="44.97618" lon="5.70393">
        <ele>772.703982</ele>
        <time>2026-08-29T11:36:11.000Z</time>
      </trkpt>
      <trkpt lat="44.97622" lon="5.70391">
        <ele>772.459458</ele>
        <time>2026-08-29T11:36:12.000Z</time>
      </trkpt>
      <trkpt lat="44.97624" lon="5.70389">
        <ele>772.283286</ele>
        <time>2026-08-29T11:36:13.000Z</time>
      </trkpt>
      <trkpt lat="44.97626" lon="5.70387">
        <ele>772.140154</ele>
        <time>2026-08-29T11:36:14.000Z</time>
      </trkpt>
      <trkpt lat="44.97627" lon="5.70386">
        <ele>772.052223</ele>
        <time>2026-08-29T11:36:15.000Z</time>
      </trkpt>
      <trkpt lat="44.97628" lon="5.70386">
        <ele>772.01891</ele>
        <time>2026-08-29T11:36:16.000Z</time>
      </trkpt>
      <trkpt lat="44.97629" lon="5.70388">
        <ele>771.877151</ele>
        <time>2026-08-29T11:37:08.000Z</time>
      </trkpt>
      <trkpt lat="44.97629" lon="5.70391">
        <ele>771.755058</ele>
        <time>2026-08-29T11:37:09.000Z</time>
      </trkpt>
      <trkpt lat="44.9763" lon="5.70394">
        <ele>771.632278</ele>
        <time>2026-08-29T11:37:10.000Z</time>
      </trkpt>
      <trkpt lat="44.97632" lon="5.70396">
        <ele>771.501291</ele>
        <time>2026-08-29T11:37:11.000Z</time>
      </trkpt>
      <trkpt lat="44.97634" lon="5.70396">
        <ele>771.351817</ele>
        <time>2026-08-29T11:37:12.000Z</time>
      </trkpt>
      <trkpt lat="44.97637" lon="5.70397">
        <ele>771.135028</ele>
        <time>2026-08-29T11:37:13.000Z</time>
      </trkpt>
      <trkpt lat="44.97641" lon="5.70397">
        <ele>770.919677</ele>
        <time>2026-08-29T11:37:14.000Z</time>
      </trkpt>
      <trkpt lat="44.97645" lon="5.70396">
        <ele>770.651679</ele>
        <time>2026-08-29T11:37:15.000Z</time>
      </trkpt>
      <trkpt lat="44.9765" lon="5.70395">
        <ele>770.367439</ele>
        <time>2026-08-29T11:37:16.000Z</time>
      </trkpt>
      <trkpt lat="44.97655" lon="5.70394">
        <ele>770.060028</ele>
        <time>2026-08-29T11:37:17.000Z</time>
      </trkpt>
      <trkpt lat="44.9766" lon="5.70394">
        <ele>769.74038</ele>
        <time>2026-08-29T11:37:18.000Z</time>
      </trkpt>
      <trkpt lat="44.97666" lon="5.70393">
        <ele>769.389086</ele>
        <time>2026-08-29T11:37:19.000Z</time>
      </trkpt>
      <trkpt lat="44.97672" lon="5.70392">
        <ele>769.007266</ele>
        <time>2026-08-29T11:37:20.000Z</time>
      </trkpt>
      <trkpt lat="44.97678" lon="5.70391">
        <ele>768.613588</ele>
        <time>2026-08-29T11:37:21.000Z</time>
      </trkpt>
      <trkpt lat="44.97685" lon="5.70391">
        <ele>768.194727</ele>
        <time>2026-08-29T11:37:22.000Z</time>
      </trkpt>
      <trkpt lat="44.97692" lon="5.7039">
        <ele>767.847556</ele>
        <time>2026-08-29T11:37:23.000Z</time>
      </trkpt>
      <trkpt lat="44.97699" lon="5.70388">
        <ele>767.503582</ele>
        <time>2026-08-29T11:37:24.000Z</time>
      </trkpt>
      <trkpt lat="44.97706" lon="5.70388">
        <ele>767.146238</ele>
        <time>2026-08-29T11:37:25.000Z</time>
      </trkpt>
      <trkpt lat="44.97714" lon="5.70387">
        <ele>766.779279</ele>
        <time>2026-08-29T11:37:26.000Z</time>
      </trkpt>
      <trkpt lat="44.97721" lon="5.70386">
        <ele>766.386836</ele>
        <time>2026-08-29T11:37:27.000Z</time>
      </trkpt>
      <trkpt lat="44.97729" lon="5.70386">
        <ele>765.99087</ele>
        <time>2026-08-29T11:37:28.000Z</time>
      </trkpt>
      <trkpt lat="44.97738" lon="5.70385">
        <ele>765.569125</ele>
        <time>2026-08-29T11:37:29.000Z</time>
      </trkpt>
      <trkpt lat="44.97746" lon="5.70384">
        <ele>765.156965</ele>
        <time>2026-08-29T11:37:30.000Z</time>
      </trkpt>
      <trkpt lat="44.97755" lon="5.70383">
        <ele>764.734945</ele>
        <time>2026-08-29T11:37:31.000Z</time>
      </trkpt>
      <trkpt lat="44.97764" lon="5.70382">
        <ele>764.297836</ele>
        <time>2026-08-29T11:37:32.000Z</time>
      </trkpt>
      <trkpt lat="44.97773" lon="5.70381">
        <ele>763.850869</ele>
        <time>2026-08-29T11:37:33.000Z</time>
      </trkpt>
      <trkpt lat="44.97782" lon="5.70379">
        <ele>763.388476</ele>
        <time>2026-08-29T11:37:34.000Z</time>
      </trkpt>
      <trkpt lat="44.97792" lon="5.70378">
        <ele>762.906994</ele>
        <time>2026-08-29T11:37:35.000Z</time>
      </trkpt>
      <trkpt lat="44.97801" lon="5.70377">
        <ele>762.436311</ele>
        <time>2026-08-29T11:37:36.000Z</time>
      </trkpt>
      <trkpt lat="44.9781" lon="5.70376">
        <ele>761.969899</ele>
        <time>2026-08-29T11:37:37.000Z</time>
      </trkpt>
      <trkpt lat="44.9782" lon="5.70376">
        <ele>761.509098</ele>
        <time>2026-08-29T11:37:38.000Z</time>
      </trkpt>
      <trkpt lat="44.97829" lon="5.70375">
        <ele>761.037752</ele>
        <time>2026-08-29T11:37:39.000Z</time>
      </trkpt>
      <trkpt lat="44.97839" lon="5.70374">
        <ele>760.551602</ele>
        <time>2026-08-29T11:37:40.000Z</time>
      </trkpt>
      <trkpt lat="44.97849" lon="5.70373">
        <ele>760.070845</ele>
        <time>2026-08-29T11:37:41.000Z</time>
      </trkpt>
      <trkpt lat="44.97859" lon="5.70374">
        <ele>759.584431</ele>
        <time>2026-08-29T11:37:42.000Z</time>
      </trkpt>
      <trkpt lat="44.97868" lon="5.70376">
        <ele>759.107731</ele>
        <time>2026-08-29T11:37:43.000Z</time>
      </trkpt>
      <trkpt lat="44.97878" lon="5.70379">
        <ele>758.65111</ele>
        <time>2026-08-29T11:37:44.000Z</time>
      </trkpt>
      <trkpt lat="44.97888" lon="5.70381">
        <ele>758.188893</ele>
        <time>2026-08-29T11:37:45.000Z</time>
      </trkpt>
      <trkpt lat="44.97899" lon="5.70381">
        <ele>757.725365</ele>
        <time>2026-08-29T11:37:46.000Z</time>
      </trkpt>
      <trkpt lat="44.97909" lon="5.70381">
        <ele>757.262226</ele>
        <time>2026-08-29T11:37:47.000Z</time>
      </trkpt>
      <trkpt lat="44.97919" lon="5.7038">
        <ele>756.802022</ele>
        <time>2026-08-29T11:37:48.000Z</time>
      </trkpt>
      <trkpt lat="44.97929" lon="5.70377">
        <ele>756.334701</ele>
        <time>2026-08-29T11:37:49.000Z</time>
      </trkpt>
      <trkpt lat="44.97939" lon="5.70374">
        <ele>755.861762</ele>
        <time>2026-08-29T11:37:50.000Z</time>
      </trkpt>
      <trkpt lat="44.97949" lon="5.7037">
        <ele>755.395982</ele>
        <time>2026-08-29T11:37:51.000Z</time>
      </trkpt>
      <trkpt lat="44.97959" lon="5.70366">
        <ele>754.927585</ele>
        <time>2026-08-29T11:37:52.000Z</time>
      </trkpt>
      <trkpt lat="44.97969" lon="5.70362">
        <ele>754.455714</ele>
        <time>2026-08-29T11:37:53.000Z</time>
      </trkpt>
      <trkpt lat="44.97979" lon="5.70358">
        <ele>753.998691</ele>
        <time>2026-08-29T11:37:54.000Z</time>
      </trkpt>
      <trkpt lat="44.97988" lon="5.70354">
        <ele>753.55294</ele>
        <time>2026-08-29T11:37:55.000Z</time>
      </trkpt>
      <trkpt lat="44.97997" lon="5.70351">
        <ele>753.124249</ele>
        <time>2026-08-29T11:37:56.000Z</time>
      </trkpt>
      <trkpt lat="44.98007" lon="5.70349">
        <ele>752.693105</ele>
        <time>2026-08-29T11:37:57.000Z</time>
      </trkpt>
      <trkpt lat="44.98016" lon="5.70349">
        <ele>752.26133</ele>
        <time>2026-08-29T11:37:58.000Z</time>
      </trkpt>
      <trkpt lat="44.98026" lon="5.70349">
        <ele>751.834333</ele>
        <time>2026-08-29T11:37:59.000Z</time>
      </trkpt>
      <trkpt lat="44.98035" lon="5.7035">
        <ele>751.397491</ele>
        <time>2026-08-29T11:38:00.000Z</time>
      </trkpt>
      <trkpt lat="44.98045" lon="5.70351">
        <ele>750.950982</ele>
        <time>2026-08-29T11:38:01.000Z</time>
      </trkpt>
      <trkpt lat="44.98054" lon="5.70352">
        <ele>750.489469</ele>
        <time>2026-08-29T11:38:02.000Z</time>
      </trkpt>
      <trkpt lat="44.98063" lon="5.70353">
        <ele>750.042706</ele>
        <time>2026-08-29T11:38:03.000Z</time>
      </trkpt>
      <trkpt lat="44.98073" lon="5.70353">
        <ele>749.572737</ele>
        <time>2026-08-29T11:38:04.000Z</time>
      </trkpt>
      <trkpt lat="44.98083" lon="5.70351">
        <ele>749.092818</ele>
        <time>2026-08-29T11:38:05.000Z</time>
      </trkpt>
      <trkpt lat="44.98092" lon="5.70347">
        <ele>748.660446</ele>
        <time>2026-08-29T11:38:06.000Z</time>
      </trkpt>
      <trkpt lat="44.981" lon="5.70343">
        <ele>748.248295</ele>
        <time>2026-08-29T11:38:07.000Z</time>
      </trkpt>
      <trkpt lat="44.98108" lon="5.7034">
        <ele>747.82617</ele>
        <time>2026-08-29T11:38:08.000Z</time>
      </trkpt>
      <trkpt lat="44.98117" lon="5.70337">
        <ele>747.399379</ele>
        <time>2026-08-29T11:38:09.000Z</time>
      </trkpt>
      <trkpt lat="44.98125" lon="5.70333">
        <ele>746.953001</ele>
        <time>2026-08-29T11:38:10.000Z</time>
      </trkpt>
      <trkpt lat="44.98134" lon="5.7033">
        <ele>746.502855</ele>
        <time>2026-08-29T11:38:11.000Z</time>
      </trkpt>
      <trkpt lat="44.98144" lon="5.70326">
        <ele>746.032188</ele>
        <time>2026-08-29T11:38:12.000Z</time>
      </trkpt>
      <trkpt lat="44.98153" lon="5.70322">
        <ele>745.565324</ele>
        <time>2026-08-29T11:38:13.000Z</time>
      </trkpt>
      <trkpt lat="44.98162" lon="5.70318">
        <ele>745.102203</ele>
        <time>2026-08-29T11:38:14.000Z</time>
      </trkpt>
      <trkpt lat="44.98172" lon="5.70315">
        <ele>744.633249</ele>
        <time>2026-08-29T11:38:15.000Z</time>
      </trkpt>
      <trkpt lat="44.98181" lon="5.70311">
        <ele>744.138307</ele>
        <time>2026-08-29T11:38:16.000Z</time>
      </trkpt>
      <trkpt lat="44.98191" lon="5.70307">
        <ele>743.640455</ele>
        <time>2026-08-29T11:38:17.000Z</time>
      </trkpt>
      <trkpt lat="44.98201" lon="5.70303">
        <ele>743.136948</ele>
        <time>2026-08-29T11:38:18.000Z</time>
      </trkpt>
      <trkpt lat="44.98211" lon="5.70298">
        <ele>742.626231</ele>
        <time>2026-08-29T11:38:19.000Z</time>
      </trkpt>
      <trkpt lat="44.98222" lon="5.70294">
        <ele>742.005842</ele>
        <time>2026-08-29T11:38:20.000Z</time>
      </trkpt>
      <trkpt lat="44.98232" lon="5.70291">
        <ele>741.314546</ele>
        <time>2026-08-29T11:38:21.000Z</time>
      </trkpt>
      <trkpt lat="44.98243" lon="5.70291">
        <ele>740.630658</ele>
        <time>2026-08-29T11:38:22.000Z</time>
      </trkpt>
      <trkpt lat="44.98254" lon="5.70292">
        <ele>739.937602</ele>
        <time>2026-08-29T11:38:23.000Z</time>
      </trkpt>
      <trkpt lat="44.98264" lon="5.70295">
        <ele>739.248923</ele>
        <time>2026-08-29T11:38:24.000Z</time>
      </trkpt>
      <trkpt lat="44.98275" lon="5.70298">
        <ele>738.540581</ele>
        <time>2026-08-29T11:38:25.000Z</time>
      </trkpt>
      <trkpt lat="44.98287" lon="5.70299">
        <ele>737.823248</ele>
        <time>2026-08-29T11:38:26.000Z</time>
      </trkpt>
      <trkpt lat="44.98298" lon="5.70298">
        <ele>737.120027</ele>
        <time>2026-08-29T11:38:27.000Z</time>
      </trkpt>
      <trkpt lat="44.98308" lon="5.70296">
        <ele>736.414803</ele>
        <time>2026-08-29T11:38:28.000Z</time>
      </trkpt>
      <trkpt lat="44.98319" lon="5.70292">
        <ele>735.695612</ele>
        <time>2026-08-29T11:38:29.000Z</time>
      </trkpt>
      <trkpt lat="44.9833" lon="5.70287">
        <ele>734.966975</ele>
        <time>2026-08-29T11:38:30.000Z</time>
      </trkpt>
      <trkpt lat="44.98341" lon="5.70281">
        <ele>734.230746</ele>
        <time>2026-08-29T11:38:31.000Z</time>
      </trkpt>
      <trkpt lat="44.98351" lon="5.70275">
        <ele>733.507467</ele>
        <time>2026-08-29T11:38:32.000Z</time>
      </trkpt>
      <trkpt lat="44.98362" lon="5.70268">
        <ele>732.783378</ele>
        <time>2026-08-29T11:38:33.000Z</time>
      </trkpt>
      <trkpt lat="44.98372" lon="5.7026">
        <ele>732.057363</ele>
        <time>2026-08-29T11:38:34.000Z</time>
      </trkpt>
      <trkpt lat="44.98381" lon="5.70251">
        <ele>731.332437</ele>
        <time>2026-08-29T11:38:35.000Z</time>
      </trkpt>
      <trkpt lat="44.9839" lon="5.7024">
        <ele>730.505094</ele>
        <time>2026-08-29T11:38:36.000Z</time>
      </trkpt>
      <trkpt lat="44.98399" lon="5.70229">
        <ele>729.565199</ele>
        <time>2026-08-29T11:38:37.000Z</time>
      </trkpt>
      <trkpt lat="44.98408" lon="5.70218">
        <ele>728.63229</ele>
        <time>2026-08-29T11:38:38.000Z</time>
      </trkpt>
      <trkpt lat="44.98419" lon="5.70209">
        <ele>727.700909</ele>
        <time>2026-08-29T11:38:39.000Z</time>
      </trkpt>
      <trkpt lat="44.9843" lon="5.70203">
        <ele>726.77308</ele>
        <time>2026-08-29T11:38:40.000Z</time>
      </trkpt>
      <trkpt lat="44.98441" lon="5.70199">
        <ele>725.849187</ele>
        <time>2026-08-29T11:38:41.000Z</time>
      </trkpt>
      <trkpt lat="44.98453" lon="5.70195">
        <ele>724.927959</ele>
        <time>2026-08-29T11:38:42.000Z</time>
      </trkpt>
      <trkpt lat="44.98465" lon="5.70192">
        <ele>723.992553</ele>
        <time>2026-08-29T11:38:43.000Z</time>
      </trkpt>
      <trkpt lat="44.98477" lon="5.70188">
        <ele>723.044855</ele>
        <time>2026-08-29T11:38:44.000Z</time>
      </trkpt>
      <trkpt lat="44.98488" lon="5.70182">
        <ele>722.110101</ele>
        <time>2026-08-29T11:38:45.000Z</time>
      </trkpt>
      <trkpt lat="44.98499" lon="5.70176">
        <ele>721.182274</ele>
        <time>2026-08-29T11:38:46.000Z</time>
      </trkpt>
      <trkpt lat="44.98511" lon="5.7017">
        <ele>720.271204</ele>
        <time>2026-08-29T11:38:47.000Z</time>
      </trkpt>
      <trkpt lat="44.98522" lon="5.70165">
        <ele>719.343513</ele>
        <time>2026-08-29T11:38:48.000Z</time>
      </trkpt>
      <trkpt lat="44.98533" lon="5.7016">
        <ele>718.437202</ele>
        <time>2026-08-29T11:38:49.000Z</time>
      </trkpt>
      <trkpt lat="44.98544" lon="5.70155">
        <ele>717.523502</ele>
        <time>2026-08-29T11:38:50.000Z</time>
      </trkpt>
      <trkpt lat="44.98556" lon="5.7015">
        <ele>716.613065</ele>
        <time>2026-08-29T11:38:51.000Z</time>
      </trkpt>
      <trkpt lat="44.98567" lon="5.70145">
        <ele>715.73257</ele>
        <time>2026-08-29T11:38:52.000Z</time>
      </trkpt>
      <trkpt lat="44.98578" lon="5.7014">
        <ele>714.863057</ele>
        <time>2026-08-29T11:38:53.000Z</time>
      </trkpt>
      <trkpt lat="44.98589" lon="5.70133">
        <ele>713.9789</ele>
        <time>2026-08-29T11:38:54.000Z</time>
      </trkpt>
      <trkpt lat="44.98599" lon="5.70125">
        <ele>713.107019</ele>
        <time>2026-08-29T11:38:55.000Z</time>
      </trkpt>
      <trkpt lat="44.98609" lon="5.70117">
        <ele>712.225866</ele>
        <time>2026-08-29T11:38:56.000Z</time>
      </trkpt>
      <trkpt lat="44.98619" lon="5.70107">
        <ele>711.316721</ele>
        <time>2026-08-29T11:38:57.000Z</time>
      </trkpt>
      <trkpt lat="44.98628" lon="5.70096">
        <ele>710.421193</ele>
        <time>2026-08-29T11:38:58.000Z</time>
      </trkpt>
      <trkpt lat="44.98637" lon="5.70085">
        <ele>709.522847</ele>
        <time>2026-08-29T11:38:59.000Z</time>
      </trkpt>
      <trkpt lat="44.98645" lon="5.70072">
        <ele>708.625287</ele>
        <time>2026-08-29T11:39:00.000Z</time>
      </trkpt>
      <trkpt lat="44.98653" lon="5.7006">
        <ele>707.715602</ele>
        <time>2026-08-29T11:39:01.000Z</time>
      </trkpt>
      <trkpt lat="44.98661" lon="5.70046">
        <ele>706.812455</ele>
        <time>2026-08-29T11:39:02.000Z</time>
      </trkpt>
      <trkpt lat="44.98668" lon="5.70033">
        <ele>705.915626</ele>
        <time>2026-08-29T11:39:03.000Z</time>
      </trkpt>
      <trkpt lat="44.98675" lon="5.70019">
        <ele>705.018782</ele>
        <time>2026-08-29T11:39:04.000Z</time>
      </trkpt>
      <trkpt lat="44.98681" lon="5.70005">
        <ele>704.155357</ele>
        <time>2026-08-29T11:39:05.000Z</time>
      </trkpt>
      <trkpt lat="44.98687" lon="5.69994">
        <ele>703.362544</ele>
        <time>2026-08-29T11:39:06.000Z</time>
      </trkpt>
      <trkpt lat="44.98696" lon="5.69986">
        <ele>702.556013</ele>
        <time>2026-08-29T11:39:07.000Z</time>
      </trkpt>
      <trkpt lat="44.98706" lon="5.69982">
        <ele>701.737129</ele>
        <time>2026-08-29T11:39:08.000Z</time>
      </trkpt>
      <trkpt lat="44.98716" lon="5.69983">
        <ele>700.936288</ele>
        <time>2026-08-29T11:39:09.000Z</time>
      </trkpt>
      <trkpt lat="44.98726" lon="5.69986">
        <ele>700.110706</ele>
        <time>2026-08-29T11:39:10.000Z</time>
      </trkpt>
      <trkpt lat="44.98736" lon="5.69988">
        <ele>699.269274</ele>
        <time>2026-08-29T11:39:11.000Z</time>
      </trkpt>
      <trkpt lat="44.98747" lon="5.69989">
        <ele>698.387444</ele>
        <time>2026-08-29T11:39:12.000Z</time>
      </trkpt>
      <trkpt lat="44.98757" lon="5.69985">
        <ele>697.514982</ele>
        <time>2026-08-29T11:39:13.000Z</time>
      </trkpt>
      <trkpt lat="44.98767" lon="5.69979">
        <ele>696.666187</ele>
        <time>2026-08-29T11:39:14.000Z</time>
      </trkpt>
      <trkpt lat="44.98775" lon="5.69969">
        <ele>695.822323</ele>
        <time>2026-08-29T11:39:15.000Z</time>
      </trkpt>
      <trkpt lat="44.98781" lon="5.69958">
        <ele>694.979644</ele>
        <time>2026-08-29T11:39:16.000Z</time>
      </trkpt>
      <trkpt lat="44.98787" lon="5.69945">
        <ele>694.127137</ele>
        <time>2026-08-29T11:39:17.000Z</time>
      </trkpt>
      <trkpt lat="44.98792" lon="5.69932">
        <ele>693.251697</ele>
        <time>2026-08-29T11:39:18.000Z</time>
      </trkpt>
      <trkpt lat="44.98797" lon="5.69918">
        <ele>692.381299</ele>
        <time>2026-08-29T11:39:19.000Z</time>
      </trkpt>
      <trkpt lat="44.98803" lon="5.69906">
        <ele>691.508012</ele>
        <time>2026-08-29T11:39:20.000Z</time>
      </trkpt>
      <trkpt lat="44.98811" lon="5.69895">
        <ele>690.629085</ele>
        <time>2026-08-29T11:39:21.000Z</time>
      </trkpt>
      <trkpt lat="44.9882" lon="5.69887">
        <ele>689.723597</ele>
        <time>2026-08-29T11:39:22.000Z</time>
      </trkpt>
      <trkpt lat="44.9883" lon="5.6988">
        <ele>688.834659</ele>
        <time>2026-08-29T11:39:23.000Z</time>
      </trkpt>
      <trkpt lat="44.98841" lon="5.69874">
        <ele>688.016167</ele>
        <time>2026-08-29T11:39:24.000Z</time>
      </trkpt>
      <trkpt lat="44.98851" lon="5.69869">
        <ele>687.182555</ele>
        <time>2026-08-29T11:39:25.000Z</time>
      </trkpt>
      <trkpt lat="44.98862" lon="5.69864">
        <ele>686.344253</ele>
        <time>2026-08-29T11:39:26.000Z</time>
      </trkpt>
      <trkpt lat="44.98873" lon="5.6986">
        <ele>685.495135</ele>
        <time>2026-08-29T11:39:27.000Z</time>
      </trkpt>
      <trkpt lat="44.98885" lon="5.69857">
        <ele>684.639068</ele>
        <time>2026-08-29T11:39:28.000Z</time>
      </trkpt>
      <trkpt lat="44.98896" lon="5.69855">
        <ele>683.771996</ele>
        <time>2026-08-29T11:39:29.000Z</time>
      </trkpt>
      <trkpt lat="44.98908" lon="5.69853">
        <ele>682.901302</ele>
        <time>2026-08-29T11:39:30.000Z</time>
      </trkpt>
      <trkpt lat="44.9892" lon="5.69852">
        <ele>682.020899</ele>
        <time>2026-08-29T11:39:31.000Z</time>
      </trkpt>
      <trkpt lat="44.98932" lon="5.69852">
        <ele>681.149363</ele>
        <time>2026-08-29T11:39:32.000Z</time>
      </trkpt>
      <trkpt lat="44.98943" lon="5.69855">
        <ele>680.291324</ele>
        <time>2026-08-29T11:39:33.000Z</time>
      </trkpt>
      <trkpt lat="44.98953" lon="5.69863">
        <ele>679.458073</ele>
        <time>2026-08-29T11:39:34.000Z</time>
      </trkpt>
      <trkpt lat="44.98962" lon="5.69874">
        <ele>678.594882</ele>
        <time>2026-08-29T11:39:35.000Z</time>
      </trkpt>
      <trkpt lat="44.98967" lon="5.69889">
        <ele>677.732036</ele>
        <time>2026-08-29T11:39:36.000Z</time>
      </trkpt>
      <trkpt lat="44.9897" lon="5.69906">
        <ele>676.819665</ele>
        <time>2026-08-29T11:39:37.000Z</time>
      </trkpt>
      <trkpt lat="44.98974" lon="5.69922">
        <ele>675.90161</ele>
        <time>2026-08-29T11:39:38.000Z</time>
      </trkpt>
      <trkpt lat="44.98979" lon="5.69938">
        <ele>675.04189</ele>
        <time>2026-08-29T11:39:39.000Z</time>
      </trkpt>
      <trkpt lat="44.98986" lon="5.6995">
        <ele>674.25925</ele>
        <time>2026-08-29T11:39:40.000Z</time>
      </trkpt>
      <trkpt lat="44.98995" lon="5.69958">
        <ele>673.474208</ele>
        <time>2026-08-29T11:39:41.000Z</time>
      </trkpt>
      <trkpt lat="44.99006" lon="5.69962">
        <ele>672.692018</ele>
        <time>2026-08-29T11:39:42.000Z</time>
      </trkpt>
      <trkpt lat="44.99017" lon="5.69963">
        <ele>671.904781</ele>
        <time>2026-08-29T11:39:43.000Z</time>
      </trkpt>
      <trkpt lat="44.99028" lon="5.69959">
        <ele>671.115218</ele>
        <time>2026-08-29T11:39:44.000Z</time>
      </trkpt>
      <trkpt lat="44.99038" lon="5.69953">
        <ele>670.28493</ele>
        <time>2026-08-29T11:39:45.000Z</time>
      </trkpt>
      <trkpt lat="44.99048" lon="5.69945">
        <ele>669.454089</ele>
        <time>2026-08-29T11:39:46.000Z</time>
      </trkpt>
      <trkpt lat="44.99058" lon="5.69935">
        <ele>668.609661</ele>
        <time>2026-08-29T11:39:47.000Z</time>
      </trkpt>
      <trkpt lat="44.99067" lon="5.69924">
        <ele>667.742091</ele>
        <time>2026-08-29T11:39:48.000Z</time>
      </trkpt>
      <trkpt lat="44.99077" lon="5.69914">
        <ele>666.884183</ele>
        <time>2026-08-29T11:39:49.000Z</time>
      </trkpt>
      <trkpt lat="44.99086" lon="5.69903">
        <ele>666.018813</ele>
        <time>2026-08-29T11:39:50.000Z</time>
      </trkpt>
      <trkpt lat="44.99094" lon="5.6989">
        <ele>665.141297</ele>
        <time>2026-08-29T11:39:51.000Z</time>
      </trkpt>
      <trkpt lat="44.99101" lon="5.69876">
        <ele>664.24883</ele>
        <time>2026-08-29T11:39:52.000Z</time>
      </trkpt>
      <trkpt lat="44.99107" lon="5.6986">
        <ele>663.365912</ele>
        <time>2026-08-29T11:39:53.000Z</time>
      </trkpt>
      <trkpt lat="44.99114" lon="5.69845">
        <ele>662.432733</ele>
        <time>2026-08-29T11:39:54.000Z</time>
      </trkpt>
      <trkpt lat="44.99122" lon="5.69832">
        <ele>661.457327</ele>
        <time>2026-08-29T11:39:55.000Z</time>
      </trkpt>
      <trkpt lat="44.99132" lon="5.69822">
        <ele>660.487173</ele>
        <time>2026-08-29T11:39:56.000Z</time>
      </trkpt>
      <trkpt lat="44.99141" lon="5.69811">
        <ele>659.526713</ele>
        <time>2026-08-29T11:39:57.000Z</time>
      </trkpt>
      <trkpt lat="44.99149" lon="5.69798">
        <ele>658.55131</ele>
        <time>2026-08-29T11:39:58.000Z</time>
      </trkpt>
      <trkpt lat="44.99157" lon="5.69784">
        <ele>657.549917</ele>
        <time>2026-08-29T11:39:59.000Z</time>
      </trkpt>
      <trkpt lat="44.99165" lon="5.69771">
        <ele>656.57736</ele>
        <time>2026-08-29T11:40:00.000Z</time>
      </trkpt>
      <trkpt lat="44.99174" lon="5.6976">
        <ele>655.633089</ele>
        <time>2026-08-29T11:40:01.000Z</time>
      </trkpt>
      <trkpt lat="44.99184" lon="5.69753">
        <ele>654.718686</ele>
        <time>2026-08-29T11:40:02.000Z</time>
      </trkpt>
      <trkpt lat="44.99196" lon="5.6975">
        <ele>653.78292</ele>
        <time>2026-08-29T11:40:03.000Z</time>
      </trkpt>
      <trkpt lat="44.99208" lon="5.69748">
        <ele>652.820164</ele>
        <time>2026-08-29T11:40:04.000Z</time>
      </trkpt>
      <trkpt lat="44.9922" lon="5.69747">
        <ele>651.875152</ele>
        <time>2026-08-29T11:40:05.000Z</time>
      </trkpt>
      <trkpt lat="44.99232" lon="5.69746">
        <ele>650.93919</ele>
        <time>2026-08-29T11:40:06.000Z</time>
      </trkpt>
      <trkpt lat="44.99244" lon="5.69745">
        <ele>650.0043</ele>
        <time>2026-08-29T11:40:07.000Z</time>
      </trkpt>
      <trkpt lat="44.99256" lon="5.69744">
        <ele>649.061281</ele>
        <time>2026-08-29T11:40:08.000Z</time>
      </trkpt>
      <trkpt lat="44.99268" lon="5.69745">
        <ele>648.14675</ele>
        <time>2026-08-29T11:40:09.000Z</time>
      </trkpt>
      <trkpt lat="44.9928" lon="5.69746">
        <ele>647.258276</ele>
        <time>2026-08-29T11:40:10.000Z</time>
      </trkpt>
      <trkpt lat="44.99292" lon="5.69749">
        <ele>646.369831</ele>
        <time>2026-08-29T11:40:11.000Z</time>
      </trkpt>
      <trkpt lat="44.99304" lon="5.69752">
        <ele>645.478903</ele>
        <time>2026-08-29T11:40:12.000Z</time>
      </trkpt>
      <trkpt lat="44.99316" lon="5.69755">
        <ele>644.57177</ele>
        <time>2026-08-29T11:40:13.000Z</time>
      </trkpt>
      <trkpt lat="44.99328" lon="5.69758">
        <ele>643.660029</ele>
        <time>2026-08-29T11:40:14.000Z</time>
      </trkpt>
      <trkpt lat="44.9934" lon="5.69758">
        <ele>642.75915</ele>
        <time>2026-08-29T11:40:15.000Z</time>
      </trkpt>
      <trkpt lat="44.99353" lon="5.69758">
        <ele>641.851667</ele>
        <time>2026-08-29T11:40:16.000Z</time>
      </trkpt>
      <trkpt lat="44.99365" lon="5.69758">
        <ele>640.943254</ele>
        <time>2026-08-29T11:40:17.000Z</time>
      </trkpt>
      <trkpt lat="44.99378" lon="5.69757">
        <ele>640.028233</ele>
        <time>2026-08-29T11:40:18.000Z</time>
      </trkpt>
      <trkpt lat="44.9939" lon="5.69757">
        <ele>639.098795</ele>
        <time>2026-08-29T11:40:19.000Z</time>
      </trkpt>
      <trkpt lat="44.99403" lon="5.69758">
        <ele>638.161695</ele>
        <time>2026-08-29T11:40:20.000Z</time>
      </trkpt>
      <trkpt lat="44.99416" lon="5.69759">
        <ele>637.230832</ele>
        <time>2026-08-29T11:40:21.000Z</time>
      </trkpt>
      <trkpt lat="44.99429" lon="5.6976">
        <ele>636.299336</ele>
        <time>2026-08-29T11:40:22.000Z</time>
      </trkpt>
      <trkpt lat="44.99441" lon="5.69761">
        <ele>635.365889</ele>
        <time>2026-08-29T11:40:23.000Z</time>
      </trkpt>
      <trkpt lat="44.99454" lon="5.69762">
        <ele>634.401277</ele>
        <time>2026-08-29T11:40:24.000Z</time>
      </trkpt>
      <trkpt lat="44.99467" lon="5.69763">
        <ele>633.429147</ele>
        <time>2026-08-29T11:40:25.000Z</time>
      </trkpt>
      <trkpt lat="44.9948" lon="5.69764">
        <ele>632.44072</ele>
        <time>2026-08-29T11:40:26.000Z</time>
      </trkpt>
      <trkpt lat="44.99493" lon="5.69765">
        <ele>631.452651</ele>
        <time>2026-08-29T11:40:27.000Z</time>
      </trkpt>
      <trkpt lat="44.99506" lon="5.69767">
        <ele>630.457071</ele>
        <time>2026-08-29T11:40:28.000Z</time>
      </trkpt>
      <trkpt lat="44.9952" lon="5.69768">
        <ele>629.453246</ele>
        <time>2026-08-29T11:40:29.000Z</time>
      </trkpt>
      <trkpt lat="44.99533" lon="5.69771">
        <ele>628.456826</ele>
        <time>2026-08-29T11:40:30.000Z</time>
      </trkpt>
      <trkpt lat="44.99546" lon="5.69775">
        <ele>627.449461</ele>
        <time>2026-08-29T11:40:31.000Z</time>
      </trkpt>
      <trkpt lat="44.99559" lon="5.69781">
        <ele>626.422421</ele>
        <time>2026-08-29T11:40:32.000Z</time>
      </trkpt>
      <trkpt lat="44.99572" lon="5.69787">
        <ele>625.377186</ele>
        <time>2026-08-29T11:40:33.000Z</time>
      </trkpt>
      <trkpt lat="44.99585" lon="5.69792">
        <ele>624.334204</ele>
        <time>2026-08-29T11:40:34.000Z</time>
      </trkpt>
      <trkpt lat="44.99599" lon="5.69797">
        <ele>623.318258</ele>
        <time>2026-08-29T11:40:35.000Z</time>
      </trkpt>
      <trkpt lat="44.99612" lon="5.698">
        <ele>622.287972</ele>
        <time>2026-08-29T11:40:36.000Z</time>
      </trkpt>
      <trkpt lat="44.99626" lon="5.69803">
        <ele>621.176219</ele>
        <time>2026-08-29T11:40:37.000Z</time>
      </trkpt>
      <trkpt lat="44.99639" lon="5.69805">
        <ele>620.027664</ele>
        <time>2026-08-29T11:40:38.000Z</time>
      </trkpt>
      <trkpt lat="44.99653" lon="5.69808">
        <ele>618.891465</ele>
        <time>2026-08-29T11:40:39.000Z</time>
      </trkpt>
      <trkpt lat="44.99666" lon="5.69811">
        <ele>617.815838</ele>
        <time>2026-08-29T11:40:40.000Z</time>
      </trkpt>
      <trkpt lat="44.99678" lon="5.69817">
        <ele>616.692238</ele>
        <time>2026-08-29T11:40:41.000Z</time>
      </trkpt>
      <trkpt lat="44.99692" lon="5.69824">
        <ele>615.512403</ele>
        <time>2026-08-29T11:40:42.000Z</time>
      </trkpt>
      <trkpt lat="44.99704" lon="5.69831">
        <ele>614.361436</ele>
        <time>2026-08-29T11:40:43.000Z</time>
      </trkpt>
      <trkpt lat="44.99716" lon="5.69838">
        <ele>613.351839</ele>
        <time>2026-08-29T11:40:44.000Z</time>
      </trkpt>
      <trkpt lat="44.99727" lon="5.69845">
        <ele>612.351063</ele>
        <time>2026-08-29T11:40:45.000Z</time>
      </trkpt>
      <trkpt lat="44.99738" lon="5.69854">
        <ele>611.276801</ele>
        <time>2026-08-29T11:40:46.000Z</time>
      </trkpt>
      <trkpt lat="44.9975" lon="5.69864">
        <ele>610.119411</ele>
        <time>2026-08-29T11:40:47.000Z</time>
      </trkpt>
      <trkpt lat="44.99761" lon="5.69875">
        <ele>608.951016</ele>
        <time>2026-08-29T11:40:48.000Z</time>
      </trkpt>
      <trkpt lat="44.99774" lon="5.69885">
        <ele>607.780944</ele>
        <time>2026-08-29T11:40:49.000Z</time>
      </trkpt>
      <trkpt lat="44.99786" lon="5.69895">
        <ele>606.660056</ele>
        <time>2026-08-29T11:40:50.000Z</time>
      </trkpt>
      <trkpt lat="44.99798" lon="5.69907">
        <ele>605.665689</ele>
        <time>2026-08-29T11:40:51.000Z</time>
      </trkpt>
      <trkpt lat="44.9981" lon="5.69918">
        <ele>604.693687</ele>
        <time>2026-08-29T11:40:52.000Z</time>
      </trkpt>
      <trkpt lat="44.99823" lon="5.69928">
        <ele>603.732345</ele>
        <time>2026-08-29T11:40:53.000Z</time>
      </trkpt>
      <trkpt lat="44.99837" lon="5.69935">
        <ele>602.744331</ele>
        <time>2026-08-29T11:40:54.000Z</time>
      </trkpt>
      <trkpt lat="44.9985" lon="5.69941">
        <ele>601.789056</ele>
        <time>2026-08-29T11:40:55.000Z</time>
      </trkpt>
      <trkpt lat="44.99864" lon="5.69947">
        <ele>600.833011</ele>
        <time>2026-08-29T11:40:56.000Z</time>
      </trkpt>
      <trkpt lat="44.99879" lon="5.69951">
        <ele>599.815879</ele>
        <time>2026-08-29T11:40:57.000Z</time>
      </trkpt>
      <trkpt lat="44.99894" lon="5.69951">
        <ele>598.799011</ele>
        <time>2026-08-29T11:40:58.000Z</time>
      </trkpt>
      <trkpt lat="44.99909" lon="5.6995">
        <ele>597.794614</ele>
        <time>2026-08-29T11:40:59.000Z</time>
      </trkpt>
      <trkpt lat="44.99923" lon="5.69948">
        <ele>596.834838</ele>
        <time>2026-08-29T11:41:00.000Z</time>
      </trkpt>
      <trkpt lat="44.99938" lon="5.69946">
        <ele>595.863099</ele>
        <time>2026-08-29T11:41:01.000Z</time>
      </trkpt>
      <trkpt lat="44.99952" lon="5.69943">
        <ele>594.912493</ele>
        <time>2026-08-29T11:41:02.000Z</time>
      </trkpt>
      <trkpt lat="44.99966" lon="5.6994">
        <ele>593.968278</ele>
        <time>2026-08-29T11:41:03.000Z</time>
      </trkpt>
      <trkpt lat="44.99978" lon="5.69933">
        <ele>593.018559</ele>
        <time>2026-08-29T11:41:04.000Z</time>
      </trkpt>
      <trkpt lat="44.99991" lon="5.69924">
        <ele>592.051719</ele>
        <time>2026-08-29T11:41:05.000Z</time>
      </trkpt>
      <trkpt lat="45.00003" lon="5.69919">
        <ele>591.163098</ele>
        <time>2026-08-29T11:41:06.000Z</time>
      </trkpt>
      <trkpt lat="45.00016" lon="5.69916">
        <ele>590.272746</ele>
        <time>2026-08-29T11:41:07.000Z</time>
      </trkpt>
      <trkpt lat="45.00028" lon="5.69915">
        <ele>589.423998</ele>
        <time>2026-08-29T11:41:08.000Z</time>
      </trkpt>
      <trkpt lat="45.00041" lon="5.69915">
        <ele>588.563628</ele>
        <time>2026-08-29T11:41:09.000Z</time>
      </trkpt>
      <trkpt lat="45.00054" lon="5.69917">
        <ele>587.650111</ele>
        <time>2026-08-29T11:41:10.000Z</time>
      </trkpt>
      <trkpt lat="45.00067" lon="5.6992">
        <ele>586.736931</ele>
        <time>2026-08-29T11:41:11.000Z</time>
      </trkpt>
      <trkpt lat="45.0008" lon="5.69923">
        <ele>585.833474</ele>
        <time>2026-08-29T11:41:12.000Z</time>
      </trkpt>
      <trkpt lat="45.00093" lon="5.69925">
        <ele>584.922514</ele>
        <time>2026-08-29T11:41:13.000Z</time>
      </trkpt>
      <trkpt lat="45.00106" lon="5.69928">
        <ele>584.011554</ele>
        <time>2026-08-29T11:41:14.000Z</time>
      </trkpt>
      <trkpt lat="45.00119" lon="5.69929">
        <ele>583.122546</ele>
        <time>2026-08-29T11:41:15.000Z</time>
      </trkpt>
      <trkpt lat="45.00132" lon="5.69928">
        <ele>582.211371</ele>
        <time>2026-08-29T11:41:16.000Z</time>
      </trkpt>
      <trkpt lat="45.00145" lon="5.69928">
        <ele>581.27438</ele>
        <time>2026-08-29T11:41:17.000Z</time>
      </trkpt>
      <trkpt lat="45.00158" lon="5.69927">
        <ele>580.344178</ele>
        <time>2026-08-29T11:41:18.000Z</time>
      </trkpt>
      <trkpt lat="45.0017" lon="5.69925">
        <ele>579.420973</ele>
        <time>2026-08-29T11:41:19.000Z</time>
      </trkpt>
      <trkpt lat="45.00183" lon="5.69926">
        <ele>578.49208</ele>
        <time>2026-08-29T11:41:20.000Z</time>
      </trkpt>
      <trkpt lat="45.00196" lon="5.69927">
        <ele>577.559638</ele>
        <time>2026-08-29T11:41:21.000Z</time>
      </trkpt>
      <trkpt lat="45.00208" lon="5.6993">
        <ele>576.63964</ele>
        <time>2026-08-29T11:41:22.000Z</time>
      </trkpt>
      <trkpt lat="45.00221" lon="5.69934">
        <ele>575.708749</ele>
        <time>2026-08-29T11:41:23.000Z</time>
      </trkpt>
      <trkpt lat="45.00233" lon="5.69938">
        <ele>574.80924</ele>
        <time>2026-08-29T11:41:24.000Z</time>
      </trkpt>
      <trkpt lat="45.00244" lon="5.69943">
        <ele>573.915398</ele>
        <time>2026-08-29T11:41:25.000Z</time>
      </trkpt>
      <trkpt lat="45.00256" lon="5.69949">
        <ele>573.008519</ele>
        <time>2026-08-29T11:41:26.000Z</time>
      </trkpt>
      <trkpt lat="45.00267" lon="5.69957">
        <ele>572.122056</ele>
        <time>2026-08-29T11:41:27.000Z</time>
      </trkpt>
      <trkpt lat="45.00277" lon="5.69967">
        <ele>571.184567</ele>
        <time>2026-08-29T11:41:28.000Z</time>
      </trkpt>
      <trkpt lat="45.00286" lon="5.6998">
        <ele>570.247998</ele>
        <time>2026-08-29T11:41:29.000Z</time>
      </trkpt>
      <trkpt lat="45.00294" lon="5.69994">
        <ele>569.327181</ele>
        <time>2026-08-29T11:41:30.000Z</time>
      </trkpt>
      <trkpt lat="45.00302" lon="5.70008">
        <ele>568.653898</ele>
        <time>2026-08-29T11:41:31.000Z</time>
      </trkpt>
      <trkpt lat="45.00308" lon="5.70023">
        <ele>567.989923</ele>
        <time>2026-08-29T11:41:32.000Z</time>
      </trkpt>
      <trkpt lat="45.00315" lon="5.70037">
        <ele>567.334982</ele>
        <time>2026-08-29T11:41:33.000Z</time>
      </trkpt>
      <trkpt lat="45.00321" lon="5.70051">
        <ele>566.684585</ele>
        <time>2026-08-29T11:41:34.000Z</time>
      </trkpt>
      <trkpt lat="45.00326" lon="5.70067">
        <ele>566.033412</ele>
        <time>2026-08-29T11:41:35.000Z</time>
      </trkpt>
      <trkpt lat="45.0033" lon="5.70083">
        <ele>565.382546</ele>
        <time>2026-08-29T11:41:36.000Z</time>
      </trkpt>
      <trkpt lat="45.00333" lon="5.70099">
        <ele>564.738121</ele>
        <time>2026-08-29T11:41:37.000Z</time>
      </trkpt>
      <trkpt lat="45.00338" lon="5.70114">
        <ele>564.106676</ele>
        <time>2026-08-29T11:41:38.000Z</time>
      </trkpt>
      <trkpt lat="45.00345" lon="5.70128">
        <ele>563.4771</ele>
        <time>2026-08-29T11:41:39.000Z</time>
      </trkpt>
      <trkpt lat="45.00353" lon="5.70138">
        <ele>562.855062</ele>
        <time>2026-08-29T11:41:40.000Z</time>
      </trkpt>
      <trkpt lat="45.00364" lon="5.70145">
        <ele>562.225295</ele>
        <time>2026-08-29T11:41:41.000Z</time>
      </trkpt>
      <trkpt lat="45.00375" lon="5.70149">
        <ele>561.617744</ele>
        <time>2026-08-29T11:41:42.000Z</time>
      </trkpt>
      <trkpt lat="45.00386" lon="5.70152">
        <ele>560.99313</ele>
        <time>2026-08-29T11:41:43.000Z</time>
      </trkpt>
      <trkpt lat="45.00397" lon="5.70152">
        <ele>560.390451</ele>
        <time>2026-08-29T11:41:44.000Z</time>
      </trkpt>
      <trkpt lat="45.00408" lon="5.70152">
        <ele>559.777413</ele>
        <time>2026-08-29T11:41:45.000Z</time>
      </trkpt>
      <trkpt lat="45.0042" lon="5.70151">
        <ele>559.281999</ele>
        <time>2026-08-29T11:41:46.000Z</time>
      </trkpt>
      <trkpt lat="45.0043" lon="5.70148">
        <ele>558.855431</ele>
        <time>2026-08-29T11:41:47.000Z</time>
      </trkpt>
      <trkpt lat="45.0044" lon="5.70143">
        <ele>558.427299</ele>
        <time>2026-08-29T11:41:48.000Z</time>
      </trkpt>
      <trkpt lat="45.0045" lon="5.70137">
        <ele>557.998677</ele>
        <time>2026-08-29T11:41:49.000Z</time>
      </trkpt>
      <trkpt lat="45.0046" lon="5.70131">
        <ele>557.57874</ele>
        <time>2026-08-29T11:41:50.000Z</time>
      </trkpt>
      <trkpt lat="45.00469" lon="5.70125">
        <ele>557.16587</ele>
        <time>2026-08-29T11:41:51.000Z</time>
      </trkpt>
      <trkpt lat="45.00479" lon="5.70118">
        <ele>556.76384</ele>
        <time>2026-08-29T11:41:52.000Z</time>
      </trkpt>
      <trkpt lat="45.00488" lon="5.70112">
        <ele>556.361509</ele>
        <time>2026-08-29T11:41:53.000Z</time>
      </trkpt>
      <trkpt lat="45.00497" lon="5.70105">
        <ele>555.956542</ele>
        <time>2026-08-29T11:41:54.000Z</time>
      </trkpt>
      <trkpt lat="45.00506" lon="5.70098">
        <ele>555.551991</ele>
        <time>2026-08-29T11:41:55.000Z</time>
      </trkpt>
      <trkpt lat="45.00515" lon="5.70092">
        <ele>555.142669</ele>
        <time>2026-08-29T11:41:56.000Z</time>
      </trkpt>
      <trkpt lat="45.00525" lon="5.70087">
        <ele>554.730546</ele>
        <time>2026-08-29T11:41:57.000Z</time>
      </trkpt>
      <trkpt lat="45.00535" lon="5.70084">
        <ele>554.310839</ele>
        <time>2026-08-29T11:41:58.000Z</time>
      </trkpt>
      <trkpt lat="45.00546" lon="5.70082">
        <ele>553.901235</ele>
        <time>2026-08-29T11:41:59.000Z</time>
      </trkpt>
      <trkpt lat="45.00556" lon="5.70082">
        <ele>553.481834</ele>
        <time>2026-08-29T11:42:00.000Z</time>
      </trkpt>
      <trkpt lat="45.00567" lon="5.70082">
        <ele>553.062433</ele>
        <time>2026-08-29T11:42:01.000Z</time>
      </trkpt>
      <trkpt lat="45.00577" lon="5.70082">
        <ele>552.643078</ele>
        <time>2026-08-29T11:42:02.000Z</time>
      </trkpt>
      <trkpt lat="45.00588" lon="5.70082">
        <ele>552.06363</ele>
        <time>2026-08-29T11:42:03.000Z</time>
      </trkpt>
      <trkpt lat="45.00599" lon="5.70083">
        <ele>551.387073</ele>
        <time>2026-08-29T11:42:04.000Z</time>
      </trkpt>
      <trkpt lat="45.0061" lon="5.70083">
        <ele>550.71707</ele>
        <time>2026-08-29T11:42:05.000Z</time>
      </trkpt>
      <trkpt lat="45.0062" lon="5.70083">
        <ele>550.040882</ele>
        <time>2026-08-29T11:42:06.000Z</time>
      </trkpt>
      <trkpt lat="45.00631" lon="5.70082">
        <ele>549.370477</ele>
        <time>2026-08-29T11:42:07.000Z</time>
      </trkpt>
      <trkpt lat="45.00641" lon="5.70081">
        <ele>548.698466</ele>
        <time>2026-08-29T11:42:08.000Z</time>
      </trkpt>
      <trkpt lat="45.00652" lon="5.70079">
        <ele>548.024305</ele>
        <time>2026-08-29T11:42:09.000Z</time>
      </trkpt>
      <trkpt lat="45.00663" lon="5.70078">
        <ele>547.331302</ele>
        <time>2026-08-29T11:42:10.000Z</time>
      </trkpt>
      <trkpt lat="45.00674" lon="5.70075">
        <ele>546.631991</ele>
        <time>2026-08-29T11:42:11.000Z</time>
      </trkpt>
      <trkpt lat="45.00685" lon="5.70071">
        <ele>545.934813</ele>
        <time>2026-08-29T11:42:12.000Z</time>
      </trkpt>
      <trkpt lat="45.00695" lon="5.70066">
        <ele>545.23145</ele>
        <time>2026-08-29T11:42:13.000Z</time>
      </trkpt>
      <trkpt lat="45.00705" lon="5.70061">
        <ele>544.540317</ele>
        <time>2026-08-29T11:42:14.000Z</time>
      </trkpt>
      <trkpt lat="45.00716" lon="5.70056">
        <ele>543.84297</ele>
        <time>2026-08-29T11:42:15.000Z</time>
      </trkpt>
      <trkpt lat="45.00727" lon="5.70052">
        <ele>543.148505</ele>
        <time>2026-08-29T11:42:16.000Z</time>
      </trkpt>
      <trkpt lat="45.00737" lon="5.70049">
        <ele>542.459596</ele>
        <time>2026-08-29T11:42:17.000Z</time>
      </trkpt>
      <trkpt lat="45.00748" lon="5.70046">
        <ele>541.778145</ele>
        <time>2026-08-29T11:42:18.000Z</time>
      </trkpt>
      <trkpt lat="45.00759" lon="5.70044">
        <ele>541.077255</ele>
        <time>2026-08-29T11:42:19.000Z</time>
      </trkpt>
      <trkpt lat="45.00769" lon="5.70042">
        <ele>540.4272</ele>
        <time>2026-08-29T11:42:20.000Z</time>
      </trkpt>
      <trkpt lat="45.00779" lon="5.70041">
        <ele>539.827254</ele>
        <time>2026-08-29T11:42:21.000Z</time>
      </trkpt>
      <trkpt lat="45.00789" lon="5.70041">
        <ele>539.246394</ele>
        <time>2026-08-29T11:42:22.000Z</time>
      </trkpt>
      <trkpt lat="45.00798" lon="5.70041">
        <ele>538.666306</ele>
        <time>2026-08-29T11:42:23.000Z</time>
      </trkpt>
      <trkpt lat="45.00808" lon="5.7004">
        <ele>538.079984</ele>
        <time>2026-08-29T11:42:24.000Z</time>
      </trkpt>
      <trkpt lat="45.00817" lon="5.7004">
        <ele>537.499333</ele>
        <time>2026-08-29T11:42:25.000Z</time>
      </trkpt>
      <trkpt lat="45.00827" lon="5.70039">
        <ele>536.924782</ele>
        <time>2026-08-29T11:42:26.000Z</time>
      </trkpt>
      <trkpt lat="45.00836" lon="5.70038">
        <ele>536.349777</ele>
        <time>2026-08-29T11:42:27.000Z</time>
      </trkpt>
      <trkpt lat="45.00846" lon="5.70037">
        <ele>535.767764</ele>
        <time>2026-08-29T11:42:28.000Z</time>
      </trkpt>
      <trkpt lat="45.00855" lon="5.70036">
        <ele>535.173908</ele>
        <time>2026-08-29T11:42:29.000Z</time>
      </trkpt>
      <trkpt lat="45.00865" lon="5.70035">
        <ele>534.580617</ele>
        <time>2026-08-29T11:42:30.000Z</time>
      </trkpt>
      <trkpt lat="45.00875" lon="5.70035">
        <ele>533.981666</ele>
        <time>2026-08-29T11:42:31.000Z</time>
      </trkpt>
      <trkpt lat="45.00885" lon="5.70034">
        <ele>533.370087</ele>
        <time>2026-08-29T11:42:32.000Z</time>
      </trkpt>
      <trkpt lat="45.00895" lon="5.70033">
        <ele>532.752156</ele>
        <time>2026-08-29T11:42:33.000Z</time>
      </trkpt>
      <trkpt lat="45.00905" lon="5.70032">
        <ele>532.141004</ele>
        <time>2026-08-29T11:42:34.000Z</time>
      </trkpt>
      <trkpt lat="45.00915" lon="5.70032">
        <ele>531.529425</ele>
        <time>2026-08-29T11:42:35.000Z</time>
      </trkpt>
      <trkpt lat="45.00925" lon="5.70031">
        <ele>530.911493</ele>
        <time>2026-08-29T11:42:36.000Z</time>
      </trkpt>
      <trkpt lat="45.00935" lon="5.7003">
        <ele>530.280782</ele>
        <time>2026-08-29T11:42:37.000Z</time>
      </trkpt>
      <trkpt lat="45.00946" lon="5.70029">
        <ele>529.69827</ele>
        <time>2026-08-29T11:42:38.000Z</time>
      </trkpt>
      <trkpt lat="45.00956" lon="5.70028">
        <ele>529.132217</ele>
        <time>2026-08-29T11:42:39.000Z</time>
      </trkpt>
      <trkpt lat="45.00966" lon="5.70027">
        <ele>528.561283</ele>
        <time>2026-08-29T11:42:40.000Z</time>
      </trkpt>
      <trkpt lat="45.00977" lon="5.70026">
        <ele>527.990349</ele>
        <time>2026-08-29T11:42:41.000Z</time>
      </trkpt>
      <trkpt lat="45.00987" lon="5.70025">
        <ele>527.41395</ele>
        <time>2026-08-29T11:42:42.000Z</time>
      </trkpt>
      <trkpt lat="45.00998" lon="5.70024">
        <ele>526.83326</ele>
        <time>2026-08-29T11:42:43.000Z</time>
      </trkpt>
      <trkpt lat="45.01008" lon="5.70025">
        <ele>526.257329</ele>
        <time>2026-08-29T11:42:44.000Z</time>
      </trkpt>
      <trkpt lat="45.01018" lon="5.70028">
        <ele>525.708146</ele>
        <time>2026-08-29T11:42:45.000Z</time>
      </trkpt>
      <trkpt lat="45.01028" lon="5.70033">
        <ele>525.150219</ele>
        <time>2026-08-29T11:42:46.000Z</time>
      </trkpt>
      <trkpt lat="45.01037" lon="5.7004">
        <ele>524.5722</ele>
        <time>2026-08-29T11:42:47.000Z</time>
      </trkpt>
      <trkpt lat="45.01047" lon="5.70046">
        <ele>523.984152</ele>
        <time>2026-08-29T11:42:48.000Z</time>
      </trkpt>
      <trkpt lat="45.01056" lon="5.70054">
        <ele>523.390145</ele>
        <time>2026-08-29T11:42:49.000Z</time>
      </trkpt>
      <trkpt lat="45.01066" lon="5.70062">
        <ele>522.783217</ele>
        <time>2026-08-29T11:42:50.000Z</time>
      </trkpt>
      <trkpt lat="45.01075" lon="5.70071">
        <ele>522.177285</ele>
        <time>2026-08-29T11:42:51.000Z</time>
      </trkpt>
      <trkpt lat="45.01083" lon="5.70081">
        <ele>521.594923</ele>
        <time>2026-08-29T11:42:52.000Z</time>
      </trkpt>
      <trkpt lat="45.01091" lon="5.7009">
        <ele>521.021071</ele>
        <time>2026-08-29T11:42:53.000Z</time>
      </trkpt>
      <trkpt lat="45.01099" lon="5.70099">
        <ele>520.451443</ele>
        <time>2026-08-29T11:42:54.000Z</time>
      </trkpt>
      <trkpt lat="45.01107" lon="5.70109">
        <ele>519.962229</ele>
        <time>2026-08-29T11:42:55.000Z</time>
      </trkpt>
      <trkpt lat="45.01114" lon="5.70119">
        <ele>519.518444</ele>
        <time>2026-08-29T11:42:56.000Z</time>
      </trkpt>
      <trkpt lat="45.01121" lon="5.70129">
        <ele>519.079956</ele>
        <time>2026-08-29T11:42:57.000Z</time>
      </trkpt>
      <trkpt lat="45.01129" lon="5.70139">
        <ele>518.641469</ele>
        <time>2026-08-29T11:42:58.000Z</time>
      </trkpt>
      <trkpt lat="45.01136" lon="5.70148">
        <ele>518.205071</ele>
        <time>2026-08-29T11:42:59.000Z</time>
      </trkpt>
      <trkpt lat="45.01143" lon="5.70157">
        <ele>517.785478</ele>
        <time>2026-08-29T11:43:00.000Z</time>
      </trkpt>
      <trkpt lat="45.01151" lon="5.70165">
        <ele>517.366186</ele>
        <time>2026-08-29T11:43:01.000Z</time>
      </trkpt>
      <trkpt lat="45.01158" lon="5.70173">
        <ele>516.956146</ele>
        <time>2026-08-29T11:43:02.000Z</time>
      </trkpt>
      <trkpt lat="45.01166" lon="5.7018">
        <ele>516.549417</ele>
        <time>2026-08-29T11:43:03.000Z</time>
      </trkpt>
      <trkpt lat="45.01175" lon="5.70187">
        <ele>516.13661</ele>
        <time>2026-08-29T11:43:04.000Z</time>
      </trkpt>
      <trkpt lat="45.01183" lon="5.70194">
        <ele>515.710173</ele>
        <time>2026-08-29T11:43:05.000Z</time>
      </trkpt>
      <trkpt lat="45.01191" lon="5.70201">
        <ele>515.288187</ele>
        <time>2026-08-29T11:43:06.000Z</time>
      </trkpt>
      <trkpt lat="45.012" lon="5.70207">
        <ele>514.857078</ele>
        <time>2026-08-29T11:43:07.000Z</time>
      </trkpt>
      <trkpt lat="45.01209" lon="5.70213">
        <ele>514.421271</ele>
        <time>2026-08-29T11:43:08.000Z</time>
      </trkpt>
      <trkpt lat="45.01218" lon="5.70219">
        <ele>513.998373</ele>
        <time>2026-08-29T11:43:09.000Z</time>
      </trkpt>
      <trkpt lat="45.01227" lon="5.70222">
        <ele>513.578908</ele>
        <time>2026-08-29T11:43:10.000Z</time>
      </trkpt>
      <trkpt lat="45.01237" lon="5.70224">
        <ele>513.157137</ele>
        <time>2026-08-29T11:43:11.000Z</time>
      </trkpt>
      <trkpt lat="45.01247" lon="5.70222">
        <ele>512.71397</ele>
        <time>2026-08-29T11:43:12.000Z</time>
      </trkpt>
      <trkpt lat="45.01257" lon="5.70219">
        <ele>512.265435</ele>
        <time>2026-08-29T11:43:13.000Z</time>
      </trkpt>
      <trkpt lat="45.01267" lon="5.70215">
        <ele>511.815232</ele>
        <time>2026-08-29T11:43:14.000Z</time>
      </trkpt>
      <trkpt lat="45.01276" lon="5.70211">
        <ele>511.374013</ele>
        <time>2026-08-29T11:43:15.000Z</time>
      </trkpt>
      <trkpt lat="45.01286" lon="5.70206">
        <ele>510.922452</ele>
        <time>2026-08-29T11:43:16.000Z</time>
      </trkpt>
      <trkpt lat="45.01296" lon="5.70202">
        <ele>510.476065</ele>
        <time>2026-08-29T11:43:17.000Z</time>
      </trkpt>
      <trkpt lat="45.01305" lon="5.70197">
        <ele>510.028315</ele>
        <time>2026-08-29T11:43:18.000Z</time>
      </trkpt>
      <trkpt lat="45.01315" lon="5.70194">
        <ele>509.580618</ele>
        <time>2026-08-29T11:43:19.000Z</time>
      </trkpt>
      <trkpt lat="45.01325" lon="5.7019">
        <ele>509.133715</ele>
        <time>2026-08-29T11:43:20.000Z</time>
      </trkpt>
      <trkpt lat="45.01335" lon="5.70186">
        <ele>508.685202</ele>
        <time>2026-08-29T11:43:21.000Z</time>
      </trkpt>
      <trkpt lat="45.01344" lon="5.70183">
        <ele>508.242634</ele>
        <time>2026-08-29T11:43:22.000Z</time>
      </trkpt>
      <trkpt lat="45.01354" lon="5.70183">
        <ele>507.800711</ele>
        <time>2026-08-29T11:43:23.000Z</time>
      </trkpt>
      <trkpt lat="45.01364" lon="5.70187">
        <ele>507.363216</ele>
        <time>2026-08-29T11:43:24.000Z</time>
      </trkpt>
      <trkpt lat="45.01371" lon="5.70195">
        <ele>506.94247</ele>
        <time>2026-08-29T11:43:25.000Z</time>
      </trkpt>
      <trkpt lat="45.01376" lon="5.70207">
        <ele>506.510915</ele>
        <time>2026-08-29T11:43:26.000Z</time>
      </trkpt>
      <trkpt lat="45.01379" lon="5.7022">
        <ele>506.076549</ele>
        <time>2026-08-29T11:43:27.000Z</time>
      </trkpt>
      <trkpt lat="45.01379" lon="5.70234">
        <ele>505.641393</ele>
        <time>2026-08-29T11:43:28.000Z</time>
      </trkpt>
      <trkpt lat="45.0138" lon="5.70248">
        <ele>505.216941</ele>
        <time>2026-08-29T11:43:29.000Z</time>
      </trkpt>
      <trkpt lat="45.0138" lon="5.70261">
        <ele>504.804968</ele>
        <time>2026-08-29T11:43:30.000Z</time>
      </trkpt>
      <trkpt lat="45.0138" lon="5.70274">
        <ele>504.425741</ele>
        <time>2026-08-29T11:43:31.000Z</time>
      </trkpt>
      <trkpt lat="45.01381" lon="5.70287">
        <ele>504.168241</ele>
        <time>2026-08-29T11:43:32.000Z</time>
      </trkpt>
      <trkpt lat="45.01384" lon="5.70299">
        <ele>503.912025</ele>
        <time>2026-08-29T11:43:33.000Z</time>
      </trkpt>
      <trkpt lat="45.01388" lon="5.7031">
        <ele>503.670192</ele>
        <time>2026-08-29T11:43:34.000Z</time>
      </trkpt>
      <trkpt lat="45.01393" lon="5.7032">
        <ele>503.428905</ele>
        <time>2026-08-29T11:43:35.000Z</time>
      </trkpt>
      <trkpt lat="45.014" lon="5.70329">
        <ele>503.176922</ele>
        <time>2026-08-29T11:43:36.000Z</time>
      </trkpt>
      <trkpt lat="45.01407" lon="5.70337">
        <ele>502.926516</ele>
        <time>2026-08-29T11:43:37.000Z</time>
      </trkpt>
      <trkpt lat="45.01414" lon="5.70344">
        <ele>502.677309</ele>
        <time>2026-08-29T11:43:38.000Z</time>
      </trkpt>
      <trkpt lat="45.01422" lon="5.7035">
        <ele>502.417336</ele>
        <time>2026-08-29T11:43:39.000Z</time>
      </trkpt>
      <trkpt lat="45.0143" lon="5.70357">
        <ele>502.162122</ele>
        <time>2026-08-29T11:43:40.000Z</time>
      </trkpt>
      <trkpt lat="45.01438" lon="5.70364">
        <ele>501.909506</ele>
        <time>2026-08-29T11:43:41.000Z</time>
      </trkpt>
      <trkpt lat="45.01445" lon="5.70371">
        <ele>501.662629</ele>
        <time>2026-08-29T11:43:42.000Z</time>
      </trkpt>
      <trkpt lat="45.01453" lon="5.70378">
        <ele>501.414664</ele>
        <time>2026-08-29T11:43:43.000Z</time>
      </trkpt>
      <trkpt lat="45.0146" lon="5.70386">
        <ele>501.167838</ele>
        <time>2026-08-29T11:43:44.000Z</time>
      </trkpt>
      <trkpt lat="45.01467" lon="5.70394">
        <ele>500.920575</ele>
        <time>2026-08-29T11:43:45.000Z</time>
      </trkpt>
      <trkpt lat="45.01473" lon="5.70402">
        <ele>500.671955</ele>
        <time>2026-08-29T11:43:46.000Z</time>
      </trkpt>
      <trkpt lat="45.01479" lon="5.70411">
        <ele>500.431457</ele>
        <time>2026-08-29T11:43:47.000Z</time>
      </trkpt>
      <trkpt lat="45.01485" lon="5.70419">
        <ele>500.196317</ele>
        <time>2026-08-29T11:43:48.000Z</time>
      </trkpt>
      <trkpt lat="45.01491" lon="5.70427">
        <ele>499.96393</ele>
        <time>2026-08-29T11:43:49.000Z</time>
      </trkpt>
      <trkpt lat="45.01498" lon="5.70434">
        <ele>499.735331</ele>
        <time>2026-08-29T11:43:50.000Z</time>
      </trkpt>
      <trkpt lat="45.01505" lon="5.70439">
        <ele>499.505175</ele>
        <time>2026-08-29T11:43:51.000Z</time>
      </trkpt>
      <trkpt lat="45.01513" lon="5.70443">
        <ele>499.322007</ele>
        <time>2026-08-29T11:43:52.000Z</time>
      </trkpt>
      <trkpt lat="45.01521" lon="5.70445">
        <ele>499.151602</ele>
        <time>2026-08-29T11:43:53.000Z</time>
      </trkpt>
      <trkpt lat="45.0153" lon="5.70445">
        <ele>498.978677</ele>
        <time>2026-08-29T11:43:54.000Z</time>
      </trkpt>
      <trkpt lat="45.01538" lon="5.70443">
        <ele>498.804557</ele>
        <time>2026-08-29T11:43:55.000Z</time>
      </trkpt>
      <trkpt lat="45.01546" lon="5.70441">
        <ele>498.637907</ele>
        <time>2026-08-29T11:43:56.000Z</time>
      </trkpt>
      <trkpt lat="45.01554" lon="5.70438">
        <ele>498.475077</ele>
        <time>2026-08-29T11:43:57.000Z</time>
      </trkpt>
      <trkpt lat="45.01561" lon="5.70434">
        <ele>498.306174</ele>
        <time>2026-08-29T11:43:58.000Z</time>
      </trkpt>
      <trkpt lat="45.01569" lon="5.7043">
        <ele>498.13344</ele>
        <time>2026-08-29T11:43:59.000Z</time>
      </trkpt>
      <trkpt lat="45.01577" lon="5.70426">
        <ele>497.962481</ele>
        <time>2026-08-29T11:44:00.000Z</time>
      </trkpt>
      <trkpt lat="45.01585" lon="5.70421">
        <ele>497.792063</ele>
        <time>2026-08-29T11:44:01.000Z</time>
      </trkpt>
      <trkpt lat="45.01593" lon="5.70418">
        <ele>497.621756</ele>
        <time>2026-08-29T11:44:02.000Z</time>
      </trkpt>
      <trkpt lat="45.016" lon="5.70414">
        <ele>497.455325</ele>
        <time>2026-08-29T11:44:03.000Z</time>
      </trkpt>
      <trkpt lat="45.01608" lon="5.70409">
        <ele>497.285717</ele>
        <time>2026-08-29T11:44:04.000Z</time>
      </trkpt>
      <trkpt lat="45.01615" lon="5.70406">
        <ele>497.123136</ele>
        <time>2026-08-29T11:44:05.000Z</time>
      </trkpt>
      <trkpt lat="45.01623" lon="5.70402">
        <ele>496.95708</ele>
        <time>2026-08-29T11:44:06.000Z</time>
      </trkpt>
      <trkpt lat="45.01631" lon="5.70399">
        <ele>496.789062</ele>
        <time>2026-08-29T11:44:07.000Z</time>
      </trkpt>
      <trkpt lat="45.01639" lon="5.70397">
        <ele>496.61975</ele>
        <time>2026-08-29T11:44:08.000Z</time>
      </trkpt>
      <trkpt lat="45.01647" lon="5.70395">
        <ele>496.458587</ele>
        <time>2026-08-29T11:44:09.000Z</time>
      </trkpt>
      <trkpt lat="45.01654" lon="5.70394">
        <ele>496.303506</ele>
        <time>2026-08-29T11:44:10.000Z</time>
      </trkpt>
      <trkpt lat="45.01662" lon="5.70393">
        <ele>496.142276</ele>
        <time>2026-08-29T11:44:11.000Z</time>
      </trkpt>
      <trkpt lat="45.0167" lon="5.70392">
        <ele>495.973068</ele>
        <time>2026-08-29T11:44:12.000Z</time>
      </trkpt>
      <trkpt lat="45.01678" lon="5.70392">
        <ele>495.802196</ele>
        <time>2026-08-29T11:44:13.000Z</time>
      </trkpt>
      <trkpt lat="45.01687" lon="5.70392">
        <ele>495.615053</ele>
        <time>2026-08-29T11:44:14.000Z</time>
      </trkpt>
      <trkpt lat="45.01695" lon="5.70393">
        <ele>495.426568</ele>
        <time>2026-08-29T11:44:15.000Z</time>
      </trkpt>
      <trkpt lat="45.01703" lon="5.70394">
        <ele>495.239528</ele>
        <time>2026-08-29T11:44:16.000Z</time>
      </trkpt>
      <trkpt lat="45.01711" lon="5.70396">
        <ele>495.053667</ele>
        <time>2026-08-29T11:44:17.000Z</time>
      </trkpt>
      <trkpt lat="45.01719" lon="5.70398">
        <ele>494.865688</ele>
        <time>2026-08-29T11:44:18.000Z</time>
      </trkpt>
      <trkpt lat="45.01727" lon="5.70401">
        <ele>494.677145</ele>
        <time>2026-08-29T11:44:19.000Z</time>
      </trkpt>
      <trkpt lat="45.01735" lon="5.70405">
        <ele>494.487204</ele>
        <time>2026-08-29T11:44:20.000Z</time>
      </trkpt>
      <trkpt lat="45.01743" lon="5.70409">
        <ele>494.296665</ele>
        <time>2026-08-29T11:44:21.000Z</time>
      </trkpt>
      <trkpt lat="45.0175" lon="5.70414">
        <ele>494.105699</ele>
        <time>2026-08-29T11:44:22.000Z</time>
      </trkpt>
      <trkpt lat="45.01758" lon="5.70419">
        <ele>493.914733</ele>
        <time>2026-08-29T11:44:23.000Z</time>
      </trkpt>
      <trkpt lat="45.01765" lon="5.70424">
        <ele>493.725186</ele>
        <time>2026-08-29T11:44:24.000Z</time>
      </trkpt>
      <trkpt lat="45.01773" lon="5.70429">
        <ele>493.537026</ele>
        <time>2026-08-29T11:44:25.000Z</time>
      </trkpt>
      <trkpt lat="45.0178" lon="5.70434">
        <ele>493.344716</ele>
        <time>2026-08-29T11:44:26.000Z</time>
      </trkpt>
      <trkpt lat="45.01788" lon="5.70439">
        <ele>493.152359</ele>
        <time>2026-08-29T11:44:27.000Z</time>
      </trkpt>
      <trkpt lat="45.01795" lon="5.70445">
        <ele>492.960564</ele>
        <time>2026-08-29T11:44:28.000Z</time>
      </trkpt>
      <trkpt lat="45.01803" lon="5.7045">
        <ele>492.769635</ele>
        <time>2026-08-29T11:44:29.000Z</time>
      </trkpt>
      <trkpt lat="45.0181" lon="5.70455">
        <ele>492.576572</ele>
        <time>2026-08-29T11:44:30.000Z</time>
      </trkpt>
      <trkpt lat="45.01818" lon="5.7046">
        <ele>492.382871</ele>
        <time>2026-08-29T11:44:31.000Z</time>
      </trkpt>
      <trkpt lat="45.01825" lon="5.70466">
        <ele>492.187975</ele>
        <time>2026-08-29T11:44:32.000Z</time>
      </trkpt>
      <trkpt lat="45.01833" lon="5.70472">
        <ele>491.993731</ele>
        <time>2026-08-29T11:44:33.000Z</time>
      </trkpt>
      <trkpt lat="45.01839" lon="5.70479">
        <ele>491.799856</ele>
        <time>2026-08-29T11:44:34.000Z</time>
      </trkpt>
      <trkpt lat="45.01846" lon="5.70486">
        <ele>491.600457</ele>
        <time>2026-08-29T11:44:35.000Z</time>
      </trkpt>
      <trkpt lat="45.01852" lon="5.70494">
        <ele>491.373792</ele>
        <time>2026-08-29T11:44:36.000Z</time>
      </trkpt>
      <trkpt lat="45.01858" lon="5.70502">
        <ele>491.147127</ele>
        <time>2026-08-29T11:44:37.000Z</time>
      </trkpt>
      <trkpt lat="45.01864" lon="5.7051">
        <ele>490.923659</ele>
        <time>2026-08-29T11:44:38.000Z</time>
      </trkpt>
      <trkpt lat="45.01869" lon="5.70519">
        <ele>490.711286</ele>
        <time>2026-08-29T11:44:39.000Z</time>
      </trkpt>
      <trkpt lat="45.01875" lon="5.70526">
        <ele>490.487946</ele>
        <time>2026-08-29T11:44:40.000Z</time>
      </trkpt>
      <trkpt lat="45.01882" lon="5.70533">
        <ele>490.261562</ele>
        <time>2026-08-29T11:44:41.000Z</time>
      </trkpt>
      <trkpt lat="45.0189" lon="5.70538">
        <ele>490.03497</ele>
        <time>2026-08-29T11:44:42.000Z</time>
      </trkpt>
      <trkpt lat="45.01897" lon="5.70543">
        <ele>489.808819</ele>
        <time>2026-08-29T11:44:43.000Z</time>
      </trkpt>
      <trkpt lat="45.01905" lon="5.70546">
        <ele>489.587482</ele>
        <time>2026-08-29T11:44:44.000Z</time>
      </trkpt>
      <trkpt lat="45.01913" lon="5.70547">
        <ele>489.363778</ele>
        <time>2026-08-29T11:44:45.000Z</time>
      </trkpt>
      <trkpt lat="45.01922" lon="5.70548">
        <ele>489.128328</ele>
        <time>2026-08-29T11:44:46.000Z</time>
      </trkpt>
      <trkpt lat="45.0193" lon="5.70549">
        <ele>488.896046</ele>
        <time>2026-08-29T11:44:47.000Z</time>
      </trkpt>
      <trkpt lat="45.01939" lon="5.70549">
        <ele>488.669225</ele>
        <time>2026-08-29T11:44:48.000Z</time>
      </trkpt>
      <trkpt lat="45.01947" lon="5.70549">
        <ele>488.44247</ele>
        <time>2026-08-29T11:44:49.000Z</time>
      </trkpt>
      <trkpt lat="45.01955" lon="5.70549">
        <ele>488.210252</ele>
        <time>2026-08-29T11:44:50.000Z</time>
      </trkpt>
      <trkpt lat="45.01964" lon="5.70549">
        <ele>487.980774</ele>
        <time>2026-08-29T11:44:51.000Z</time>
      </trkpt>
      <trkpt lat="45.01972" lon="5.70549">
        <ele>487.74576</ele>
        <time>2026-08-29T11:44:52.000Z</time>
      </trkpt>
      <trkpt lat="45.01981" lon="5.7055">
        <ele>487.513349</ele>
        <time>2026-08-29T11:44:53.000Z</time>
      </trkpt>
      <trkpt lat="45.01989" lon="5.70551">
        <ele>487.276384</ele>
        <time>2026-08-29T11:44:54.000Z</time>
      </trkpt>
      <trkpt lat="45.01998" lon="5.70553">
        <ele>487.043678</ele>
        <time>2026-08-29T11:44:55.000Z</time>
      </trkpt>
      <trkpt lat="45.02006" lon="5.70555">
        <ele>486.814568</ele>
        <time>2026-08-29T11:44:56.000Z</time>
      </trkpt>
      <trkpt lat="45.02015" lon="5.70556">
        <ele>486.531949</ele>
        <time>2026-08-29T11:44:57.000Z</time>
      </trkpt>
      <trkpt lat="45.02023" lon="5.70558">
        <ele>486.225941</ele>
        <time>2026-08-29T11:44:58.000Z</time>
      </trkpt>
      <trkpt lat="45.02031" lon="5.70559">
        <ele>485.908442</ele>
        <time>2026-08-29T11:44:59.000Z</time>
      </trkpt>
      <trkpt lat="45.0204" lon="5.7056">
        <ele>485.588362</ele>
        <time>2026-08-29T11:45:00.000Z</time>
      </trkpt>
      <trkpt lat="45.02048" lon="5.70561">
        <ele>485.276199</ele>
        <time>2026-08-29T11:45:01.000Z</time>
      </trkpt>
      <trkpt lat="45.02056" lon="5.70562">
        <ele>484.968288</ele>
        <time>2026-08-29T11:45:02.000Z</time>
      </trkpt>
      <trkpt lat="45.02064" lon="5.70562">
        <ele>484.656937</ele>
        <time>2026-08-29T11:45:03.000Z</time>
      </trkpt>
      <trkpt lat="45.02073" lon="5.70561">
        <ele>484.341224</ele>
        <time>2026-08-29T11:45:04.000Z</time>
      </trkpt>
      <trkpt lat="45.02081" lon="5.70559">
        <ele>484.015215</ele>
        <time>2026-08-29T11:45:05.000Z</time>
      </trkpt>
      <trkpt lat="45.0209" lon="5.70557">
        <ele>483.692764</ele>
        <time>2026-08-29T11:45:06.000Z</time>
      </trkpt>
      <trkpt lat="45.02099" lon="5.70554">
        <ele>483.355093</ele>
        <time>2026-08-29T11:45:07.000Z</time>
      </trkpt>
      <trkpt lat="45.02107" lon="5.70551">
        <ele>483.024163</ele>
        <time>2026-08-29T11:45:08.000Z</time>
      </trkpt>
      <trkpt lat="45.02116" lon="5.7055">
        <ele>482.704313</ele>
        <time>2026-08-29T11:45:09.000Z</time>
      </trkpt>
      <trkpt lat="45.02124" lon="5.70551">
        <ele>482.396254</ele>
        <time>2026-08-29T11:45:10.000Z</time>
      </trkpt>
      <trkpt lat="45.02132" lon="5.70553">
        <ele>482.086447</ele>
        <time>2026-08-29T11:45:11.000Z</time>
      </trkpt>
      <trkpt lat="45.0214" lon="5.70557">
        <ele>481.755735</ele>
        <time>2026-08-29T11:45:12.000Z</time>
      </trkpt>
      <trkpt lat="45.02148" lon="5.70561">
        <ele>481.44283</ele>
        <time>2026-08-29T11:45:13.000Z</time>
      </trkpt>
      <trkpt lat="45.02156" lon="5.70564">
        <ele>481.125993</ele>
        <time>2026-08-29T11:45:14.000Z</time>
      </trkpt>
      <trkpt lat="45.02165" lon="5.70567">
        <ele>480.800452</ele>
        <time>2026-08-29T11:45:15.000Z</time>
      </trkpt>
      <trkpt lat="45.02173" lon="5.7057">
        <ele>480.470671</ele>
        <time>2026-08-29T11:45:16.000Z</time>
      </trkpt>
      <trkpt lat="45.02182" lon="5.70573">
        <ele>480.139742</ele>
        <time>2026-08-29T11:45:17.000Z</time>
      </trkpt>
      <trkpt lat="45.02191" lon="5.70576">
        <ele>479.708522</ele>
        <time>2026-08-29T11:45:18.000Z</time>
      </trkpt>
      <trkpt lat="45.022" lon="5.70579">
        <ele>479.1577</ele>
        <time>2026-08-29T11:45:19.000Z</time>
      </trkpt>
      <trkpt lat="45.02209" lon="5.70582">
        <ele>478.591281</ele>
        <time>2026-08-29T11:45:20.000Z</time>
      </trkpt>
      <trkpt lat="45.02218" lon="5.70585">
        <ele>478.013442</ele>
        <time>2026-08-29T11:45:21.000Z</time>
      </trkpt>
      <trkpt lat="45.02227" lon="5.7059">
        <ele>477.437779</ele>
        <time>2026-08-29T11:45:22.000Z</time>
      </trkpt>
      <trkpt lat="45.02237" lon="5.70594">
        <ele>476.859255</ele>
        <time>2026-08-29T11:45:23.000Z</time>
      </trkpt>
      <trkpt lat="45.02246" lon="5.70599">
        <ele>476.283592</ele>
        <time>2026-08-29T11:45:24.000Z</time>
      </trkpt>
      <trkpt lat="45.02255" lon="5.70603">
        <ele>475.710313</ele>
        <time>2026-08-29T11:45:25.000Z</time>
      </trkpt>
      <trkpt lat="45.02265" lon="5.70605">
        <ele>475.126402</ele>
        <time>2026-08-29T11:45:26.000Z</time>
      </trkpt>
      <trkpt lat="45.02274" lon="5.70608">
        <ele>474.541183</ele>
        <time>2026-08-29T11:45:27.000Z</time>
      </trkpt>
      <trkpt lat="45.02284" lon="5.7061">
        <ele>473.961844</ele>
        <time>2026-08-29T11:45:28.000Z</time>
      </trkpt>
      <trkpt lat="45.02294" lon="5.70613">
        <ele>473.377934</ele>
        <time>2026-08-29T11:45:29.000Z</time>
      </trkpt>
      <trkpt lat="45.02303" lon="5.70616">
        <ele>472.791342</ele>
        <time>2026-08-29T11:45:30.000Z</time>
      </trkpt>
      <trkpt lat="45.02312" lon="5.70619">
        <ele>472.214687</ele>
        <time>2026-08-29T11:45:31.000Z</time>
      </trkpt>
      <trkpt lat="45.02322" lon="5.70623">
        <ele>471.635638</ele>
        <time>2026-08-29T11:45:32.000Z</time>
      </trkpt>
      <trkpt lat="45.02331" lon="5.70627">
        <ele>471.046367</ele>
        <time>2026-08-29T11:45:33.000Z</time>
      </trkpt>
      <trkpt lat="45.02341" lon="5.70632">
        <ele>470.453453</ele>
        <time>2026-08-29T11:45:34.000Z</time>
      </trkpt>
      <trkpt lat="45.0235" lon="5.70636">
        <ele>469.870605</ele>
        <time>2026-08-29T11:45:35.000Z</time>
      </trkpt>
      <trkpt lat="45.02359" lon="5.7064">
        <ele>469.288224</ele>
        <time>2026-08-29T11:45:36.000Z</time>
      </trkpt>
      <trkpt lat="45.02369" lon="5.70643">
        <ele>468.92543</ele>
        <time>2026-08-29T11:45:37.000Z</time>
      </trkpt>
      <trkpt lat="45.02378" lon="5.70646">
        <ele>468.57888</ele>
        <time>2026-08-29T11:45:38.000Z</time>
      </trkpt>
      <trkpt lat="45.02388" lon="5.70648">
        <ele>468.239239</ele>
        <time>2026-08-29T11:45:39.000Z</time>
      </trkpt>
      <trkpt lat="45.02397" lon="5.7065">
        <ele>467.899597</ele>
        <time>2026-08-29T11:45:40.000Z</time>
      </trkpt>
      <trkpt lat="45.02406" lon="5.70653">
        <ele>467.554594</ele>
        <time>2026-08-29T11:45:41.000Z</time>
      </trkpt>
      <trkpt lat="45.02416" lon="5.70655">
        <ele>467.214953</ele>
        <time>2026-08-29T11:45:42.000Z</time>
      </trkpt>
      <trkpt lat="45.02425" lon="5.70657">
        <ele>466.877178</ele>
        <time>2026-08-29T11:45:43.000Z</time>
      </trkpt>
      <trkpt lat="45.02434" lon="5.70658">
        <ele>466.551785</ele>
        <time>2026-08-29T11:45:44.000Z</time>
      </trkpt>
      <trkpt lat="45.02443" lon="5.70658">
        <ele>466.22744</ele>
        <time>2026-08-29T11:45:45.000Z</time>
      </trkpt>
      <trkpt lat="45.02452" lon="5.70658">
        <ele>465.896042</ele>
        <time>2026-08-29T11:45:46.000Z</time>
      </trkpt>
      <trkpt lat="45.02461" lon="5.70658">
        <ele>465.568215</ele>
        <time>2026-08-29T11:45:47.000Z</time>
      </trkpt>
      <trkpt lat="45.0247" lon="5.70658">
        <ele>465.254826</ele>
        <time>2026-08-29T11:45:48.000Z</time>
      </trkpt>
      <trkpt lat="45.02479" lon="5.70659">
        <ele>464.933234</ele>
        <time>2026-08-29T11:45:49.000Z</time>
      </trkpt>
      <trkpt lat="45.02487" lon="5.7066">
        <ele>464.617219</ele>
        <time>2026-08-29T11:45:50.000Z</time>
      </trkpt>
      <trkpt lat="45.02496" lon="5.70662">
        <ele>464.29824</ele>
        <time>2026-08-29T11:45:51.000Z</time>
      </trkpt>
      <trkpt lat="45.02505" lon="5.70663">
        <ele>463.975954</ele>
        <time>2026-08-29T11:45:52.000Z</time>
      </trkpt>
      <trkpt lat="45.02514" lon="5.70664">
        <ele>463.65415</ele>
        <time>2026-08-29T11:45:53.000Z</time>
      </trkpt>
      <trkpt lat="45.02523" lon="5.70666">
        <ele>463.334562</ele>
        <time>2026-08-29T11:45:54.000Z</time>
      </trkpt>
      <trkpt lat="45.02532" lon="5.70668">
        <ele>463.016218</ele>
        <time>2026-08-29T11:45:55.000Z</time>
      </trkpt>
      <trkpt lat="45.0254" lon="5.7067">
        <ele>462.720037</ele>
        <time>2026-08-29T11:45:56.000Z</time>
      </trkpt>
      <trkpt lat="45.02549" lon="5.70673">
        <ele>462.49253</ele>
        <time>2026-08-29T11:45:57.000Z</time>
      </trkpt>
      <trkpt lat="45.02557" lon="5.70676">
        <ele>462.265023</ele>
        <time>2026-08-29T11:45:58.000Z</time>
      </trkpt>
      <trkpt lat="45.02565" lon="5.70679">
        <ele>462.044544</ele>
        <time>2026-08-29T11:45:59.000Z</time>
      </trkpt>
      <trkpt lat="45.02573" lon="5.70682">
        <ele>461.822033</ele>
        <time>2026-08-29T11:46:00.000Z</time>
      </trkpt>
      <trkpt lat="45.02581" lon="5.70685">
        <ele>461.601853</ele>
        <time>2026-08-29T11:46:01.000Z</time>
      </trkpt>
      <trkpt lat="45.02589" lon="5.70687">
        <ele>461.383972</ele>
        <time>2026-08-29T11:46:02.000Z</time>
      </trkpt>
      <trkpt lat="45.02598" lon="5.70688">
        <ele>461.160771</ele>
        <time>2026-08-29T11:46:03.000Z</time>
      </trkpt>
      <trkpt lat="45.02606" lon="5.70688">
        <ele>460.933106</ele>
        <time>2026-08-29T11:46:04.000Z</time>
      </trkpt>
      <trkpt lat="45.02615" lon="5.70688">
        <ele>460.705372</ele>
        <time>2026-08-29T11:46:05.000Z</time>
      </trkpt>
      <trkpt lat="45.02624" lon="5.70686">
        <ele>460.467756</ele>
        <time>2026-08-29T11:46:06.000Z</time>
      </trkpt>
      <trkpt lat="45.02632" lon="5.70683">
        <ele>460.241555</ele>
        <time>2026-08-29T11:46:07.000Z</time>
      </trkpt>
      <trkpt lat="45.0264" lon="5.7068">
        <ele>460.013943</ele>
        <time>2026-08-29T11:46:08.000Z</time>
      </trkpt>
      <trkpt lat="45.02648" lon="5.70677">
        <ele>459.791928</ele>
        <time>2026-08-29T11:46:09.000Z</time>
      </trkpt>
      <trkpt lat="45.02656" lon="5.70674">
        <ele>459.571965</ele>
        <time>2026-08-29T11:46:10.000Z</time>
      </trkpt>
      <trkpt lat="45.02664" lon="5.7067">
        <ele>459.35041</ele>
        <time>2026-08-29T11:46:11.000Z</time>
      </trkpt>
      <trkpt lat="45.02672" lon="5.70667">
        <ele>459.138942</ele>
        <time>2026-08-29T11:46:12.000Z</time>
      </trkpt>
      <trkpt lat="45.02679" lon="5.70662">
        <ele>458.929145</ele>
        <time>2026-08-29T11:46:13.000Z</time>
      </trkpt>
      <trkpt lat="45.02686" lon="5.70657">
        <ele>458.721905</ele>
        <time>2026-08-29T11:46:14.000Z</time>
      </trkpt>
      <trkpt lat="45.02692" lon="5.70651">
        <ele>458.523036</ele>
        <time>2026-08-29T11:46:15.000Z</time>
      </trkpt>
      <trkpt lat="45.02697" lon="5.70644">
        <ele>458.337623</ele>
        <time>2026-08-29T11:46:16.000Z</time>
      </trkpt>
      <trkpt lat="45.02702" lon="5.70636">
        <ele>458.15051</ele>
        <time>2026-08-29T11:46:17.000Z</time>
      </trkpt>
      <trkpt lat="45.02706" lon="5.70629">
        <ele>458.010621</ele>
        <time>2026-08-29T11:46:18.000Z</time>
      </trkpt>
      <trkpt lat="45.0271" lon="5.70621">
        <ele>457.991398</ele>
        <time>2026-08-29T11:46:19.000Z</time>
      </trkpt>
      <trkpt lat="45.02714" lon="5.70613">
        <ele>457.972989</ele>
        <time>2026-08-29T11:46:20.000Z</time>
      </trkpt>
      <trkpt lat="45.02717" lon="5.70606">
        <ele>457.954415</ele>
        <time>2026-08-29T11:46:21.000Z</time>
      </trkpt>
      <trkpt lat="45.02721" lon="5.70599">
        <ele>457.937295</ele>
        <time>2026-08-29T11:46:22.000Z</time>
      </trkpt>
      <trkpt lat="45.02725" lon="5.70593">
        <ele>457.92059</ele>
        <time>2026-08-29T11:46:23.000Z</time>
      </trkpt>
      <trkpt lat="45.0273" lon="5.70588">
        <ele>457.904346</ele>
        <time>2026-08-29T11:46:24.000Z</time>
      </trkpt>
      <trkpt lat="45.02735" lon="5.70585">
        <ele>457.887971</ele>
        <time>2026-08-29T11:46:25.000Z</time>
      </trkpt>
      <trkpt lat="45.02741" lon="5.70583">
        <ele>457.87066</ele>
        <time>2026-08-29T11:46:26.000Z</time>
      </trkpt>
      <trkpt lat="45.02746" lon="5.70583">
        <ele>457.85737</ele>
        <time>2026-08-29T11:46:27.000Z</time>
      </trkpt>
      <trkpt lat="45.02751" lon="5.70583">
        <ele>457.842377</ele>
        <time>2026-08-29T11:46:28.000Z</time>
      </trkpt>
      <trkpt lat="45.02756" lon="5.70586">
        <ele>457.827143</ele>
        <time>2026-08-29T11:46:29.000Z</time>
      </trkpt>
      <trkpt lat="45.02762" lon="5.70589">
        <ele>457.811629</ele>
        <time>2026-08-29T11:46:30.000Z</time>
      </trkpt>
      <trkpt lat="45.02767" lon="5.70592">
        <ele>457.79559</ele>
        <time>2026-08-29T11:46:31.000Z</time>
      </trkpt>
      <trkpt lat="45.02772" lon="5.70594">
        <ele>457.780213</ele>
        <time>2026-08-29T11:46:32.000Z</time>
      </trkpt>
      <trkpt lat="45.02777" lon="5.70597">
        <ele>457.764113</ele>
        <time>2026-08-29T11:46:33.000Z</time>
      </trkpt>
      <trkpt lat="45.02783" lon="5.70599">
        <ele>457.748358</ele>
        <time>2026-08-29T11:46:34.000Z</time>
      </trkpt>
      <trkpt lat="45.02789" lon="5.706">
        <ele>457.73164</ele>
        <time>2026-08-29T11:46:35.000Z</time>
      </trkpt>
      <trkpt lat="45.02794" lon="5.70602">
        <ele>457.715238</ele>
        <time>2026-08-29T11:46:36.000Z</time>
      </trkpt>
      <trkpt lat="45.028" lon="5.70603">
        <ele>457.699</ele>
        <time>2026-08-29T11:46:37.000Z</time>
      </trkpt>
      <trkpt lat="45.02806" lon="5.70603">
        <ele>457.682892</ele>
        <time>2026-08-29T11:46:38.000Z</time>
      </trkpt>
      <trkpt lat="45.02811" lon="5.70603">
        <ele>457.666784</ele>
        <time>2026-08-29T11:46:39.000Z</time>
      </trkpt>
      <trkpt lat="45.02817" lon="5.70602">
        <ele>457.650651</ele>
        <time>2026-08-29T11:46:40.000Z</time>
      </trkpt>
      <trkpt lat="45.02823" lon="5.70602">
        <ele>457.635304</ele>
        <time>2026-08-29T11:46:41.000Z</time>
      </trkpt>
      <trkpt lat="45.02828" lon="5.70601">
        <ele>457.619957</ele>
        <time>2026-08-29T11:46:42.000Z</time>
      </trkpt>
      <trkpt lat="45.02833" lon="5.706">
        <ele>457.605117</ele>
        <time>2026-08-29T11:46:43.000Z</time>
      </trkpt>
      <trkpt lat="45.02838" lon="5.70598">
        <ele>457.590768</ele>
        <time>2026-08-29T11:46:44.000Z</time>
      </trkpt>
      <trkpt lat="45.02843" lon="5.70597">
        <ele>457.575586</ele>
        <time>2026-08-29T11:46:45.000Z</time>
      </trkpt>
      <trkpt lat="45.02849" lon="5.70596">
        <ele>457.559535</ele>
        <time>2026-08-29T11:46:46.000Z</time>
      </trkpt>
      <trkpt lat="45.02855" lon="5.70594">
        <ele>457.543326</ele>
        <time>2026-08-29T11:46:47.000Z</time>
      </trkpt>
      <trkpt lat="45.0286" lon="5.70592">
        <ele>457.526428</ele>
        <time>2026-08-29T11:46:48.000Z</time>
      </trkpt>
      <trkpt lat="45.02867" lon="5.7059">
        <ele>457.508159</ele>
        <time>2026-08-29T11:46:49.000Z</time>
      </trkpt>
      <trkpt lat="45.02873" lon="5.70587">
        <ele>457.224274</ele>
        <time>2026-08-29T11:46:50.000Z</time>
      </trkpt>
      <trkpt lat="45.0288" lon="5.70585">
        <ele>456.915593</ele>
        <time>2026-08-29T11:46:51.000Z</time>
      </trkpt>
      <trkpt lat="45.02887" lon="5.70584">
        <ele>456.58797</ele>
        <time>2026-08-29T11:46:52.000Z</time>
      </trkpt>
      <trkpt lat="45.02894" lon="5.70583">
        <ele>456.265631</ele>
        <time>2026-08-29T11:46:53.000Z</time>
      </trkpt>
      <trkpt lat="45.02901" lon="5.70581">
        <ele>455.942898</ele>
        <time>2026-08-29T11:46:54.000Z</time>
      </trkpt>
      <trkpt lat="45.02909" lon="5.7058">
        <ele>455.607126</ele>
        <time>2026-08-29T11:46:55.000Z</time>
      </trkpt>
      <trkpt lat="45.02916" lon="5.70579">
        <ele>455.279922</ele>
        <time>2026-08-29T11:46:56.000Z</time>
      </trkpt>
      <trkpt lat="45.02923" lon="5.70578">
        <ele>454.934823</ele>
        <time>2026-08-29T11:46:57.000Z</time>
      </trkpt>
      <trkpt lat="45.02931" lon="5.70578">
        <ele>454.60122</ele>
        <time>2026-08-29T11:46:58.000Z</time>
      </trkpt>
      <trkpt lat="45.02938" lon="5.70578">
        <ele>454.262989</ele>
        <time>2026-08-29T11:46:59.000Z</time>
      </trkpt>
      <trkpt lat="45.02946" lon="5.70578">
        <ele>453.906861</ele>
        <time>2026-08-29T11:47:00.000Z</time>
      </trkpt>
      <trkpt lat="45.02954" lon="5.70579">
        <ele>453.531604</ele>
        <time>2026-08-29T11:47:01.000Z</time>
      </trkpt>
      <trkpt lat="45.02963" lon="5.70581">
        <ele>453.158454</ele>
        <time>2026-08-29T11:47:02.000Z</time>
      </trkpt>
      <trkpt lat="45.02971" lon="5.70582">
        <ele>452.790596</ele>
        <time>2026-08-29T11:47:03.000Z</time>
      </trkpt>
      <trkpt lat="45.02979" lon="5.70583">
        <ele>452.414151</ele>
        <time>2026-08-29T11:47:04.000Z</time>
      </trkpt>
      <trkpt lat="45.02988" lon="5.70584">
        <ele>452.025161</ele>
        <time>2026-08-29T11:47:05.000Z</time>
      </trkpt>
      <trkpt lat="45.02997" lon="5.70585">
        <ele>451.62269</ele>
        <time>2026-08-29T11:47:06.000Z</time>
      </trkpt>
      <trkpt lat="45.03005" lon="5.70586">
        <ele>451.234536</ele>
        <time>2026-08-29T11:47:07.000Z</time>
      </trkpt>
      <trkpt lat="45.03014" lon="5.70586">
        <ele>450.833215</ele>
        <time>2026-08-29T11:47:08.000Z</time>
      </trkpt>
      <trkpt lat="45.03023" lon="5.70584">
        <ele>450.424695</ele>
        <time>2026-08-29T11:47:09.000Z</time>
      </trkpt>
      <trkpt lat="45.03032" lon="5.70582">
        <ele>450.016851</ele>
        <time>2026-08-29T11:47:10.000Z</time>
      </trkpt>
      <trkpt lat="45.03041" lon="5.70579">
        <ele>449.59564</ele>
        <time>2026-08-29T11:47:11.000Z</time>
      </trkpt>
      <trkpt lat="45.0305" lon="5.70575">
        <ele>449.145347</ele>
        <time>2026-08-29T11:47:12.000Z</time>
      </trkpt>
      <trkpt lat="45.03059" lon="5.70571">
        <ele>448.675031</ele>
        <time>2026-08-29T11:47:13.000Z</time>
      </trkpt>
      <trkpt lat="45.03068" lon="5.70565">
        <ele>448.207485</ele>
        <time>2026-08-29T11:47:14.000Z</time>
      </trkpt>
      <trkpt lat="45.03076" lon="5.70558">
        <ele>447.737926</ele>
        <time>2026-08-29T11:47:15.000Z</time>
      </trkpt>
      <trkpt lat="45.03083" lon="5.70551">
        <ele>447.265802</ele>
        <time>2026-08-29T11:47:16.000Z</time>
      </trkpt>
      <trkpt lat="45.03091" lon="5.70542">
        <ele>446.79502</ele>
        <time>2026-08-29T11:47:17.000Z</time>
      </trkpt>
      <trkpt lat="45.03098" lon="5.70533">
        <ele>446.319927</ele>
        <time>2026-08-29T11:47:18.000Z</time>
      </trkpt>
      <trkpt lat="45.03104" lon="5.70523">
        <ele>445.847912</ele>
        <time>2026-08-29T11:47:19.000Z</time>
      </trkpt>
      <trkpt lat="45.0311" lon="5.70513">
        <ele>445.384196</ele>
        <time>2026-08-29T11:47:20.000Z</time>
      </trkpt>
      <trkpt lat="45.03114" lon="5.70502">
        <ele>444.928273</ele>
        <time>2026-08-29T11:47:21.000Z</time>
      </trkpt>
      <trkpt lat="45.03119" lon="5.7049">
        <ele>444.469862</ele>
        <time>2026-08-29T11:47:22.000Z</time>
      </trkpt>
      <trkpt lat="45.03123" lon="5.70479">
        <ele>444.007881</ele>
        <time>2026-08-29T11:47:23.000Z</time>
      </trkpt>
      <trkpt lat="45.0313" lon="5.70469">
        <ele>443.536515</ele>
        <time>2026-08-29T11:47:24.000Z</time>
      </trkpt>
      <trkpt lat="45.03138" lon="5.70462">
        <ele>443.04269</ele>
        <time>2026-08-29T11:47:25.000Z</time>
      </trkpt>
      <trkpt lat="45.03148" lon="5.70459">
        <ele>442.537926</ele>
        <time>2026-08-29T11:47:26.000Z</time>
      </trkpt>
      <trkpt lat="45.03158" lon="5.70461">
        <ele>442.019599</ele>
        <time>2026-08-29T11:47:27.000Z</time>
      </trkpt>
      <trkpt lat="45.03168" lon="5.70466">
        <ele>441.487216</ele>
        <time>2026-08-29T11:47:28.000Z</time>
      </trkpt>
      <trkpt lat="45.03177" lon="5.70473">
        <ele>440.979561</ele>
        <time>2026-08-29T11:47:29.000Z</time>
      </trkpt>
      <trkpt lat="45.03186" lon="5.7048">
        <ele>440.46923</ele>
        <time>2026-08-29T11:47:30.000Z</time>
      </trkpt>
      <trkpt lat="45.03195" lon="5.70487">
        <ele>439.939747</ele>
        <time>2026-08-29T11:47:31.000Z</time>
      </trkpt>
      <trkpt lat="45.03204" lon="5.70494">
        <ele>439.398976</ele>
        <time>2026-08-29T11:47:32.000Z</time>
      </trkpt>
      <trkpt lat="45.03213" lon="5.70501">
        <ele>438.857517</ele>
        <time>2026-08-29T11:47:33.000Z</time>
      </trkpt>
      <trkpt lat="45.03223" lon="5.70506">
        <ele>438.317572</ele>
        <time>2026-08-29T11:47:34.000Z</time>
      </trkpt>
      <trkpt lat="45.03233" lon="5.7051">
        <ele>437.782525</ele>
        <time>2026-08-29T11:47:35.000Z</time>
      </trkpt>
      <trkpt lat="45.03242" lon="5.70512">
        <ele>437.261978</ele>
        <time>2026-08-29T11:47:36.000Z</time>
      </trkpt>
      <trkpt lat="45.03252" lon="5.70514">
        <ele>436.743331</ele>
        <time>2026-08-29T11:47:37.000Z</time>
      </trkpt>
      <trkpt lat="45.03262" lon="5.70513">
        <ele>436.227093</ele>
        <time>2026-08-29T11:47:38.000Z</time>
      </trkpt>
      <trkpt lat="45.03272" lon="5.70511">
        <ele>435.716151</ele>
        <time>2026-08-29T11:47:39.000Z</time>
      </trkpt>
      <trkpt lat="45.03281" lon="5.70508">
        <ele>435.196822</ele>
        <time>2026-08-29T11:47:40.000Z</time>
      </trkpt>
      <trkpt lat="45.03291" lon="5.70505">
        <ele>434.660399</ele>
        <time>2026-08-29T11:47:41.000Z</time>
      </trkpt>
      <trkpt lat="45.03301" lon="5.70501">
        <ele>434.138398</ele>
        <time>2026-08-29T11:47:42.000Z</time>
      </trkpt>
      <trkpt lat="45.03311" lon="5.70498">
        <ele>433.60709</ele>
        <time>2026-08-29T11:47:43.000Z</time>
      </trkpt>
      <trkpt lat="45.03321" lon="5.70495">
        <ele>433.062903</ele>
        <time>2026-08-29T11:47:44.000Z</time>
      </trkpt>
      <trkpt lat="45.03331" lon="5.70492">
        <ele>432.51384</ele>
        <time>2026-08-29T11:47:45.000Z</time>
      </trkpt>
      <trkpt lat="45.03341" lon="5.70491">
        <ele>431.980447</ele>
        <time>2026-08-29T11:47:46.000Z</time>
      </trkpt>
      <trkpt lat="45.03351" lon="5.70491">
        <ele>431.453879</ele>
        <time>2026-08-29T11:47:47.000Z</time>
      </trkpt>
      <trkpt lat="45.03361" lon="5.70494">
        <ele>430.915485</ele>
        <time>2026-08-29T11:47:48.000Z</time>
      </trkpt>
      <trkpt lat="45.03371" lon="5.70499">
        <ele>430.500296</ele>
        <time>2026-08-29T11:47:49.000Z</time>
      </trkpt>
      <trkpt lat="45.0338" lon="5.70504">
        <ele>430.091367</ele>
        <time>2026-08-29T11:47:50.000Z</time>
      </trkpt>
      <trkpt lat="45.03388" lon="5.7051">
        <ele>429.697432</ele>
        <time>2026-08-29T11:47:51.000Z</time>
      </trkpt>
      <trkpt lat="45.03397" lon="5.70515">
        <ele>429.305634</ele>
        <time>2026-08-29T11:47:52.000Z</time>
      </trkpt>
      <trkpt lat="45.03407" lon="5.70518">
        <ele>428.910935</ele>
        <time>2026-08-29T11:47:53.000Z</time>
      </trkpt>
      <trkpt lat="45.03416" lon="5.70521">
        <ele>428.519501</ele>
        <time>2026-08-29T11:47:54.000Z</time>
      </trkpt>
      <trkpt lat="45.03425" lon="5.70522">
        <ele>428.129712</ele>
        <time>2026-08-29T11:47:55.000Z</time>
      </trkpt>
      <trkpt lat="45.03435" lon="5.70522">
        <ele>427.736787</ele>
        <time>2026-08-29T11:47:56.000Z</time>
      </trkpt>
      <trkpt lat="45.03444" lon="5.7052">
        <ele>427.354753</ele>
        <time>2026-08-29T11:47:57.000Z</time>
      </trkpt>
      <trkpt lat="45.03453" lon="5.70517">
        <ele>426.976439</ele>
        <time>2026-08-29T11:47:58.000Z</time>
      </trkpt>
      <trkpt lat="45.03462" lon="5.70513">
        <ele>426.597267</ele>
        <time>2026-08-29T11:47:59.000Z</time>
      </trkpt>
      <trkpt lat="45.0347" lon="5.70508">
        <ele>426.221927</ele>
        <time>2026-08-29T11:48:00.000Z</time>
      </trkpt>
      <trkpt lat="45.03478" lon="5.70502">
        <ele>425.850555</ele>
        <time>2026-08-29T11:48:01.000Z</time>
      </trkpt>
      <trkpt lat="45.03485" lon="5.70494">
        <ele>425.487655</ele>
        <time>2026-08-29T11:48:02.000Z</time>
      </trkpt>
      <trkpt lat="45.03491" lon="5.70486">
        <ele>425.129516</ele>
        <time>2026-08-29T11:48:03.000Z</time>
      </trkpt>
      <trkpt lat="45.03497" lon="5.70478">
        <ele>424.771392</ele>
        <time>2026-08-29T11:48:04.000Z</time>
      </trkpt>
      <trkpt lat="45.03503" lon="5.70469">
        <ele>424.420986</ele>
        <time>2026-08-29T11:48:05.000Z</time>
      </trkpt>
      <trkpt lat="45.03508" lon="5.7046">
        <ele>424.078651</ele>
        <time>2026-08-29T11:48:06.000Z</time>
      </trkpt>
      <trkpt lat="45.03514" lon="5.7045">
        <ele>423.726926</ele>
        <time>2026-08-29T11:48:07.000Z</time>
      </trkpt>
      <trkpt lat="45.03519" lon="5.70441">
        <ele>423.366787</ele>
        <time>2026-08-29T11:48:08.000Z</time>
      </trkpt>
      <trkpt lat="45.03524" lon="5.70432">
        <ele>422.997531</ele>
        <time>2026-08-29T11:48:09.000Z</time>
      </trkpt>
      <trkpt lat="45.0353" lon="5.70423">
        <ele>422.630162</ele>
        <time>2026-08-29T11:48:10.000Z</time>
      </trkpt>
      <trkpt lat="45.03536" lon="5.70414">
        <ele>422.256364</ele>
        <time>2026-08-29T11:48:11.000Z</time>
      </trkpt>
      <trkpt lat="45.03542" lon="5.70405">
        <ele>421.874349</ele>
        <time>2026-08-29T11:48:12.000Z</time>
      </trkpt>
      <trkpt lat="45.03548" lon="5.70397">
        <ele>421.489335</ele>
        <time>2026-08-29T11:48:13.000Z</time>
      </trkpt>
      <trkpt lat="45.03556" lon="5.7039">
        <ele>421.107671</ele>
        <time>2026-08-29T11:48:14.000Z</time>
      </trkpt>
      <trkpt lat="45.03564" lon="5.70384">
        <ele>420.714939</ele>
        <time>2026-08-29T11:48:15.000Z</time>
      </trkpt>
      <trkpt lat="45.03572" lon="5.7038">
        <ele>420.322583</ele>
        <time>2026-08-29T11:48:16.000Z</time>
      </trkpt>
      <trkpt lat="45.03581" lon="5.70377">
        <ele>419.932764</ele>
        <time>2026-08-29T11:48:17.000Z</time>
      </trkpt>
      <trkpt lat="45.0359" lon="5.70373">
        <ele>419.534957</ele>
        <time>2026-08-29T11:48:18.000Z</time>
      </trkpt>
      <trkpt lat="45.03598" lon="5.70369">
        <ele>419.135105</ele>
        <time>2026-08-29T11:48:19.000Z</time>
      </trkpt>
      <trkpt lat="45.03606" lon="5.70362">
        <ele>418.7465</ele>
        <time>2026-08-29T11:48:20.000Z</time>
      </trkpt>
      <trkpt lat="45.03612" lon="5.70353">
        <ele>418.355376</ele>
        <time>2026-08-29T11:48:21.000Z</time>
      </trkpt>
      <trkpt lat="45.03616" lon="5.70341">
        <ele>417.94469</ele>
        <time>2026-08-29T11:48:22.000Z</time>
      </trkpt>
      <trkpt lat="45.03618" lon="5.70328">
        <ele>417.534824</ele>
        <time>2026-08-29T11:48:23.000Z</time>
      </trkpt>
      <trkpt lat="45.03618" lon="5.70315">
        <ele>417.120273</ele>
        <time>2026-08-29T11:48:24.000Z</time>
      </trkpt>
      <trkpt lat="45.03615" lon="5.70302">
        <ele>416.69536</ele>
        <time>2026-08-29T11:48:25.000Z</time>
      </trkpt>
      <trkpt lat="45.03613" lon="5.70288">
        <ele>416.271587</ele>
        <time>2026-08-29T11:48:26.000Z</time>
      </trkpt>
      <trkpt lat="45.03614" lon="5.70275">
        <ele>415.85815</ele>
        <time>2026-08-29T11:48:27.000Z</time>
      </trkpt>
      <trkpt lat="45.03618" lon="5.70264">
        <ele>415.488785</ele>
        <time>2026-08-29T11:48:28.000Z</time>
      </trkpt>
      <trkpt lat="45.03625" lon="5.70259">
        <ele>415.145384</ele>
        <time>2026-08-29T11:48:29.000Z</time>
      </trkpt>
      <trkpt lat="45.03633" lon="5.70256">
        <ele>414.780287</ele>
        <time>2026-08-29T11:48:30.000Z</time>
      </trkpt>
      <trkpt lat="45.03642" lon="5.70255">
        <ele>414.419327</ele>
        <time>2026-08-29T11:48:31.000Z</time>
      </trkpt>
      <trkpt lat="45.0365" lon="5.70255">
        <ele>414.050737</ele>
        <time>2026-08-29T11:48:32.000Z</time>
      </trkpt>
      <trkpt lat="45.03658" lon="5.70259">
        <ele>413.693713</ele>
        <time>2026-08-29T11:48:33.000Z</time>
      </trkpt>
      <trkpt lat="45.03666" lon="5.70265">
        <ele>413.312898</ele>
        <time>2026-08-29T11:48:34.000Z</time>
      </trkpt>
      <trkpt lat="45.03674" lon="5.70272">
        <ele>412.92168</ele>
        <time>2026-08-29T11:48:35.000Z</time>
      </trkpt>
      <trkpt lat="45.03681" lon="5.70281">
        <ele>412.532852</ele>
        <time>2026-08-29T11:48:36.000Z</time>
      </trkpt>
      <trkpt lat="45.03688" lon="5.70289">
        <ele>412.134214</ele>
        <time>2026-08-29T11:48:37.000Z</time>
      </trkpt>
      <trkpt lat="45.03694" lon="5.70299">
        <ele>411.732641</ele>
        <time>2026-08-29T11:48:38.000Z</time>
      </trkpt>
      <trkpt lat="45.037" lon="5.70309">
        <ele>411.33874</ele>
        <time>2026-08-29T11:48:39.000Z</time>
      </trkpt>
      <trkpt lat="45.03706" lon="5.70319">
        <ele>410.948184</ele>
        <time>2026-08-29T11:48:40.000Z</time>
      </trkpt>
      <trkpt lat="45.03712" lon="5.70328">
        <ele>410.555567</ele>
        <time>2026-08-29T11:48:41.000Z</time>
      </trkpt>
      <trkpt lat="45.03718" lon="5.70337">
        <ele>410.168564</ele>
        <time>2026-08-29T11:48:42.000Z</time>
      </trkpt>
      <trkpt lat="45.03725" lon="5.70345">
        <ele>409.784961</ele>
        <time>2026-08-29T11:48:43.000Z</time>
      </trkpt>
      <trkpt lat="45.03733" lon="5.70353">
        <ele>409.402487</ele>
        <time>2026-08-29T11:48:44.000Z</time>
      </trkpt>
      <trkpt lat="45.0374" lon="5.7036">
        <ele>409.028709</ele>
        <time>2026-08-29T11:48:45.000Z</time>
      </trkpt>
      <trkpt lat="45.03747" lon="5.70366">
        <ele>408.665229</ele>
        <time>2026-08-29T11:48:46.000Z</time>
      </trkpt>
      <trkpt lat="45.03754" lon="5.70372">
        <ele>408.305519</ele>
        <time>2026-08-29T11:48:47.000Z</time>
      </trkpt>
      <trkpt lat="45.03762" lon="5.70377">
        <ele>407.959651</ele>
        <time>2026-08-29T11:48:48.000Z</time>
      </trkpt>
      <trkpt lat="45.03769" lon="5.70381">
        <ele>407.710908</ele>
        <time>2026-08-29T11:48:49.000Z</time>
      </trkpt>
      <trkpt lat="45.03777" lon="5.70385">
        <ele>407.465964</ele>
        <time>2026-08-29T11:48:50.000Z</time>
      </trkpt>
      <trkpt lat="45.03784" lon="5.70389">
        <ele>407.220294</ele>
        <time>2026-08-29T11:48:51.000Z</time>
      </trkpt>
      <trkpt lat="45.03791" lon="5.70393">
        <ele>406.979661</ele>
        <time>2026-08-29T11:48:52.000Z</time>
      </trkpt>
      <trkpt lat="45.03798" lon="5.70397">
        <ele>406.746854</ele>
        <time>2026-08-29T11:48:53.000Z</time>
      </trkpt>
      <trkpt lat="45.03805" lon="5.704">
        <ele>406.517168</ele>
        <time>2026-08-29T11:48:54.000Z</time>
      </trkpt>
      <trkpt lat="45.03812" lon="5.70404">
        <ele>406.28436</ele>
        <time>2026-08-29T11:48:55.000Z</time>
      </trkpt>
      <trkpt lat="45.03819" lon="5.7041">
        <ele>406.058933</ele>
        <time>2026-08-29T11:48:56.000Z</time>
      </trkpt>
      <trkpt lat="45.03823" lon="5.70418">
        <ele>405.84696</ele>
        <time>2026-08-29T11:48:57.000Z</time>
      </trkpt>
      <trkpt lat="45.03824" lon="5.70428">
        <ele>405.625384</ele>
        <time>2026-08-29T11:48:58.000Z</time>
      </trkpt>
      <trkpt lat="45.03824" lon="5.70438">
        <ele>405.391702</ele>
        <time>2026-08-29T11:48:59.000Z</time>
      </trkpt>
      <trkpt lat="45.03822" lon="5.70449">
        <ele>405.167409</ele>
        <time>2026-08-29T11:49:00.000Z</time>
      </trkpt>
      <trkpt lat="45.03821" lon="5.70459">
        <ele>404.931781</ele>
        <time>2026-08-29T11:49:01.000Z</time>
      </trkpt>
      <trkpt lat="45.0382" lon="5.7047">
        <ele>404.685365</ele>
        <time>2026-08-29T11:49:02.000Z</time>
      </trkpt>
      <trkpt lat="45.03819" lon="5.70482">
        <ele>404.438422</ele>
        <time>2026-08-29T11:49:03.000Z</time>
      </trkpt>
      <trkpt lat="45.03819" lon="5.70493">
        <ele>404.183289</ele>
        <time>2026-08-29T11:49:04.000Z</time>
      </trkpt>
      <trkpt lat="45.03819" lon="5.70505">
        <ele>403.921768</ele>
        <time>2026-08-29T11:49:05.000Z</time>
      </trkpt>
      <trkpt lat="45.03819" lon="5.70517">
        <ele>403.660247</ele>
        <time>2026-08-29T11:49:06.000Z</time>
      </trkpt>
      <trkpt lat="45.03819" lon="5.7053">
        <ele>403.396547</ele>
        <time>2026-08-29T11:49:07.000Z</time>
      </trkpt>
      <trkpt lat="45.03818" lon="5.70542">
        <ele>403.13028</ele>
        <time>2026-08-29T11:49:08.000Z</time>
      </trkpt>
      <trkpt lat="45.03815" lon="5.70554">
        <ele>402.855841</ele>
        <time>2026-08-29T11:49:09.000Z</time>
      </trkpt>
      <trkpt lat="45.03812" lon="5.70565">
        <ele>402.587623</ele>
        <time>2026-08-29T11:49:10.000Z</time>
      </trkpt>
      <trkpt lat="45.03811" lon="5.70577">
        <ele>402.257191</ele>
        <time>2026-08-29T11:49:11.000Z</time>
      </trkpt>
      <trkpt lat="45.03812" lon="5.70588">
        <ele>401.874697</ele>
        <time>2026-08-29T11:49:12.000Z</time>
      </trkpt>
      <trkpt lat="45.0382" lon="5.70594">
        <ele>401.448213</ele>
        <time>2026-08-29T11:49:13.000Z</time>
      </trkpt>
      <trkpt lat="45.03826" lon="5.70595">
        <ele>401.111961</ele>
        <time>2026-08-29T11:49:14.000Z</time>
      </trkpt>
      <trkpt lat="45.03833" lon="5.70591">
        <ele>400.725505</ele>
        <time>2026-08-29T11:49:15.000Z</time>
      </trkpt>
      <trkpt lat="45.03841" lon="5.70585">
        <ele>400.307893</ele>
        <time>2026-08-29T11:49:16.000Z</time>
      </trkpt>
      <trkpt lat="45.03848" lon="5.70579">
        <ele>399.891334</ele>
        <time>2026-08-29T11:49:17.000Z</time>
      </trkpt>
      <trkpt lat="45.03856" lon="5.70575">
        <ele>399.456571</ele>
        <time>2026-08-29T11:49:18.000Z</time>
      </trkpt>
      <trkpt lat="45.03865" lon="5.70572">
        <ele>399.024578</ele>
        <time>2026-08-29T11:49:19.000Z</time>
      </trkpt>
      <trkpt lat="45.03873" lon="5.70569">
        <ele>398.580319</ele>
        <time>2026-08-29T11:49:20.000Z</time>
      </trkpt>
      <trkpt lat="45.03882" lon="5.70566">
        <ele>398.133228</ele>
        <time>2026-08-29T11:49:21.000Z</time>
      </trkpt>
      <trkpt lat="45.0389" lon="5.70561">
        <ele>397.67793</ele>
        <time>2026-08-29T11:49:22.000Z</time>
      </trkpt>
      <trkpt lat="45.03898" lon="5.70554">
        <ele>397.221365</ele>
        <time>2026-08-29T11:49:23.000Z</time>
      </trkpt>
      <trkpt lat="45.03906" lon="5.70547">
        <ele>396.768653</ele>
        <time>2026-08-29T11:49:24.000Z</time>
      </trkpt>
      <trkpt lat="45.03913" lon="5.7054">
        <ele>396.30755</ele>
        <time>2026-08-29T11:49:25.000Z</time>
      </trkpt>
      <trkpt lat="45.03922" lon="5.70534">
        <ele>395.849536</ele>
        <time>2026-08-29T11:49:26.000Z</time>
      </trkpt>
      <trkpt lat="45.03931" lon="5.7053">
        <ele>395.369703</ele>
        <time>2026-08-29T11:49:27.000Z</time>
      </trkpt>
      <trkpt lat="45.0394" lon="5.70529">
        <ele>394.888494</ele>
        <time>2026-08-29T11:49:28.000Z</time>
      </trkpt>
      <trkpt lat="45.0395" lon="5.7053">
        <ele>394.413208</ele>
        <time>2026-08-29T11:49:29.000Z</time>
      </trkpt>
      <trkpt lat="45.03959" lon="5.70531">
        <ele>393.94555</ele>
        <time>2026-08-29T11:49:30.000Z</time>
      </trkpt>
      <trkpt lat="45.03969" lon="5.70533">
        <ele>393.461719</ele>
        <time>2026-08-29T11:49:31.000Z</time>
      </trkpt>
      <trkpt lat="45.03978" lon="5.70536">
        <ele>392.96314</ele>
        <time>2026-08-29T11:49:32.000Z</time>
      </trkpt>
      <trkpt lat="45.03987" lon="5.70538">
        <ele>392.450862</ele>
        <time>2026-08-29T11:49:33.000Z</time>
      </trkpt>
      <trkpt lat="45.03997" lon="5.70541">
        <ele>391.930306</ele>
        <time>2026-08-29T11:49:34.000Z</time>
      </trkpt>
      <trkpt lat="45.04006" lon="5.70544">
        <ele>391.411219</ele>
        <time>2026-08-29T11:49:35.000Z</time>
      </trkpt>
      <trkpt lat="45.04016" lon="5.70547">
        <ele>390.8885</ele>
        <time>2026-08-29T11:49:36.000Z</time>
      </trkpt>
      <trkpt lat="45.04025" lon="5.70549">
        <ele>390.38221</ele>
        <time>2026-08-29T11:49:37.000Z</time>
      </trkpt>
      <trkpt lat="45.04035" lon="5.70553">
        <ele>389.840655</ele>
        <time>2026-08-29T11:49:38.000Z</time>
      </trkpt>
      <trkpt lat="45.04045" lon="5.70556">
        <ele>389.313809</ele>
        <time>2026-08-29T11:49:39.000Z</time>
      </trkpt>
      <trkpt lat="45.04054" lon="5.70559">
        <ele>388.806749</ele>
        <time>2026-08-29T11:49:40.000Z</time>
      </trkpt>
      <trkpt lat="45.04064" lon="5.70561">
        <ele>388.276356</ele>
        <time>2026-08-29T11:49:41.000Z</time>
      </trkpt>
      <trkpt lat="45.04074" lon="5.70562">
        <ele>387.747054</ele>
        <time>2026-08-29T11:49:42.000Z</time>
      </trkpt>
      <trkpt lat="45.04083" lon="5.70561">
        <ele>387.234595</ele>
        <time>2026-08-29T11:49:43.000Z</time>
      </trkpt>
      <trkpt lat="45.04093" lon="5.70558">
        <ele>386.707083</ele>
        <time>2026-08-29T11:49:44.000Z</time>
      </trkpt>
      <trkpt lat="45.04102" lon="5.70553">
        <ele>386.170391</ele>
        <time>2026-08-29T11:49:45.000Z</time>
      </trkpt>
      <trkpt lat="45.04112" lon="5.70548">
        <ele>385.633699</ele>
        <time>2026-08-29T11:49:46.000Z</time>
      </trkpt>
      <trkpt lat="45.04121" lon="5.70544">
        <ele>385.105126</ele>
        <time>2026-08-29T11:49:47.000Z</time>
      </trkpt>
      <trkpt lat="45.04131" lon="5.70541">
        <ele>384.581633</ele>
        <time>2026-08-29T11:49:48.000Z</time>
      </trkpt>
      <trkpt lat="45.04141" lon="5.7054">
        <ele>384.040785</ele>
        <time>2026-08-29T11:49:49.000Z</time>
      </trkpt>
      <trkpt lat="45.04151" lon="5.7054">
        <ele>383.476493</ele>
        <time>2026-08-29T11:49:50.000Z</time>
      </trkpt>
      <trkpt lat="45.04161" lon="5.70542">
        <ele>382.873474</ele>
        <time>2026-08-29T11:49:51.000Z</time>
      </trkpt>
      <trkpt lat="45.0417" lon="5.70545">
        <ele>382.259646</ele>
        <time>2026-08-29T11:49:52.000Z</time>
      </trkpt>
      <trkpt lat="45.0418" lon="5.70549">
        <ele>381.638305</ele>
        <time>2026-08-29T11:49:53.000Z</time>
      </trkpt>
      <trkpt lat="45.04189" lon="5.70554">
        <ele>381.037514</ele>
        <time>2026-08-29T11:49:54.000Z</time>
      </trkpt>
      <trkpt lat="45.04199" lon="5.70558">
        <ele>380.433648</ele>
        <time>2026-08-29T11:49:55.000Z</time>
      </trkpt>
      <trkpt lat="45.04208" lon="5.70563">
        <ele>379.825672</ele>
        <time>2026-08-29T11:49:56.000Z</time>
      </trkpt>
      <trkpt lat="45.04218" lon="5.70567">
        <ele>379.219094</ele>
        <time>2026-08-29T11:49:57.000Z</time>
      </trkpt>
      <trkpt lat="45.04227" lon="5.70572">
        <ele>378.599551</ele>
        <time>2026-08-29T11:49:58.000Z</time>
      </trkpt>
      <trkpt lat="45.04237" lon="5.70576">
        <ele>377.988537</ele>
        <time>2026-08-29T11:49:59.000Z</time>
      </trkpt>
      <trkpt lat="45.04246" lon="5.7058">
        <ele>377.381428</ele>
        <time>2026-08-29T11:50:00.000Z</time>
      </trkpt>
      <trkpt lat="45.04256" lon="5.70585">
        <ele>376.770414</ele>
        <time>2026-08-29T11:50:01.000Z</time>
      </trkpt>
      <trkpt lat="45.04265" lon="5.70589">
        <ele>376.162032</ele>
        <time>2026-08-29T11:50:02.000Z</time>
      </trkpt>
      <trkpt lat="45.04275" lon="5.70593">
        <ele>375.53857</ele>
        <time>2026-08-29T11:50:03.000Z</time>
      </trkpt>
      <trkpt lat="45.04285" lon="5.70597">
        <ele>374.913235</ele>
        <time>2026-08-29T11:50:04.000Z</time>
      </trkpt>
      <trkpt lat="45.04294" lon="5.70603">
        <ele>374.303568</ele>
        <time>2026-08-29T11:50:05.000Z</time>
      </trkpt>
      <trkpt lat="45.04304" lon="5.70607">
        <ele>373.685497</ele>
        <time>2026-08-29T11:50:06.000Z</time>
      </trkpt>
      <trkpt lat="45.04312" lon="5.70613">
        <ele>373.110388</ele>
        <time>2026-08-29T11:50:07.000Z</time>
      </trkpt>
      <trkpt lat="45.04321" lon="5.70618">
        <ele>372.618505</ele>
        <time>2026-08-29T11:50:08.000Z</time>
      </trkpt>
      <trkpt lat="45.04329" lon="5.70623">
        <ele>372.166444</ele>
        <time>2026-08-29T11:50:09.000Z</time>
      </trkpt>
      <trkpt lat="45.04338" lon="5.70628">
        <ele>371.699105</ele>
        <time>2026-08-29T11:50:10.000Z</time>
      </trkpt>
      <trkpt lat="45.04347" lon="5.70633">
        <ele>371.242618</ele>
        <time>2026-08-29T11:50:11.000Z</time>
      </trkpt>
      <trkpt lat="45.04356" lon="5.70639">
        <ele>370.784159</ele>
        <time>2026-08-29T11:50:12.000Z</time>
      </trkpt>
      <trkpt lat="45.04364" lon="5.70645">
        <ele>370.34675</ele>
        <time>2026-08-29T11:50:13.000Z</time>
      </trkpt>
      <trkpt lat="45.04372" lon="5.70652">
        <ele>369.888732</ele>
        <time>2026-08-29T11:50:14.000Z</time>
      </trkpt>
      <trkpt lat="45.04381" lon="5.70659">
        <ele>369.40416</ele>
        <time>2026-08-29T11:50:15.000Z</time>
      </trkpt>
      <trkpt lat="45.0439" lon="5.70666">
        <ele>368.923709</ele>
        <time>2026-08-29T11:50:16.000Z</time>
      </trkpt>
      <trkpt lat="45.04399" lon="5.70673">
        <ele>368.431556</ele>
        <time>2026-08-29T11:50:17.000Z</time>
      </trkpt>
      <trkpt lat="45.04408" lon="5.7068">
        <ele>367.935589</ele>
        <time>2026-08-29T11:50:18.000Z</time>
      </trkpt>
      <trkpt lat="45.04418" lon="5.70686">
        <ele>367.43385</ele>
        <time>2026-08-29T11:50:19.000Z</time>
      </trkpt>
      <trkpt lat="45.04427" lon="5.70694">
        <ele>366.93104</ele>
        <time>2026-08-29T11:50:20.000Z</time>
      </trkpt>
      <trkpt lat="45.04436" lon="5.70701">
        <ele>366.433141</ele>
        <time>2026-08-29T11:50:21.000Z</time>
      </trkpt>
      <trkpt lat="45.04445" lon="5.70708">
        <ele>365.950247</ele>
        <time>2026-08-29T11:50:22.000Z</time>
      </trkpt>
      <trkpt lat="45.04453" lon="5.70715">
        <ele>365.474818</ele>
        <time>2026-08-29T11:50:23.000Z</time>
      </trkpt>
      <trkpt lat="45.04462" lon="5.70722">
        <ele>365.016555</ele>
        <time>2026-08-29T11:50:24.000Z</time>
      </trkpt>
      <trkpt lat="45.0447" lon="5.70729">
        <ele>364.561041</ele>
        <time>2026-08-29T11:50:25.000Z</time>
      </trkpt>
      <trkpt lat="45.04478" lon="5.70735">
        <ele>364.156542</ele>
        <time>2026-08-29T11:50:26.000Z</time>
      </trkpt>
      <trkpt lat="45.04487" lon="5.70741">
        <ele>363.834802</ele>
        <time>2026-08-29T11:50:27.000Z</time>
      </trkpt>
      <trkpt lat="45.04495" lon="5.70747">
        <ele>363.519381</ele>
        <time>2026-08-29T11:50:28.000Z</time>
      </trkpt>
      <trkpt lat="45.04503" lon="5.70752">
        <ele>363.21128</ele>
        <time>2026-08-29T11:50:29.000Z</time>
      </trkpt>
      <trkpt lat="45.04511" lon="5.70757">
        <ele>362.908435</ele>
        <time>2026-08-29T11:50:30.000Z</time>
      </trkpt>
      <trkpt lat="45.04519" lon="5.70762">
        <ele>362.615985</ele>
        <time>2026-08-29T11:50:31.000Z</time>
      </trkpt>
      <trkpt lat="45.04526" lon="5.70767">
        <ele>362.32669</ele>
        <time>2026-08-29T11:50:32.000Z</time>
      </trkpt>
      <trkpt lat="45.04534" lon="5.70772">
        <ele>362.032199</ele>
        <time>2026-08-29T11:50:33.000Z</time>
      </trkpt>
      <trkpt lat="45.04541" lon="5.70777">
        <ele>361.746053</ele>
        <time>2026-08-29T11:50:34.000Z</time>
      </trkpt>
      <trkpt lat="45.04549" lon="5.70781">
        <ele>361.453342</ele>
        <time>2026-08-29T11:50:35.000Z</time>
      </trkpt>
      <trkpt lat="45.04557" lon="5.70786">
        <ele>361.162865</ele>
        <time>2026-08-29T11:50:36.000Z</time>
      </trkpt>
      <trkpt lat="45.04564" lon="5.70791">
        <ele>360.879718</ele>
        <time>2026-08-29T11:50:37.000Z</time>
      </trkpt>
      <trkpt lat="45.04572" lon="5.70795">
        <ele>360.601211</ele>
        <time>2026-08-29T11:50:38.000Z</time>
      </trkpt>
      <trkpt lat="45.0458" lon="5.70798">
        <ele>360.321064</ele>
        <time>2026-08-29T11:50:39.000Z</time>
      </trkpt>
      <trkpt lat="45.04587" lon="5.70801">
        <ele>360.038956</ele>
        <time>2026-08-29T11:50:40.000Z</time>
      </trkpt>
      <trkpt lat="45.04596" lon="5.70803">
        <ele>359.754933</ele>
        <time>2026-08-29T11:50:41.000Z</time>
      </trkpt>
      <trkpt lat="45.04604" lon="5.70804">
        <ele>359.466754</ele>
        <time>2026-08-29T11:50:42.000Z</time>
      </trkpt>
      <trkpt lat="45.04612" lon="5.70805">
        <ele>359.171662</ele>
        <time>2026-08-29T11:50:43.000Z</time>
      </trkpt>
      <trkpt lat="45.04621" lon="5.70805">
        <ele>358.869488</ele>
        <time>2026-08-29T11:50:44.000Z</time>
      </trkpt>
      <trkpt lat="45.0463" lon="5.70806">
        <ele>358.553655</ele>
        <time>2026-08-29T11:50:45.000Z</time>
      </trkpt>
      <trkpt lat="45.0464" lon="5.70807">
        <ele>358.224246</ele>
        <time>2026-08-29T11:50:46.000Z</time>
      </trkpt>
      <trkpt lat="45.04649" lon="5.70807">
        <ele>357.843784</ele>
        <time>2026-08-29T11:50:47.000Z</time>
      </trkpt>
      <trkpt lat="45.04659" lon="5.70808">
        <ele>357.391195</ele>
        <time>2026-08-29T11:50:48.000Z</time>
      </trkpt>
      <trkpt lat="45.04668" lon="5.70809">
        <ele>356.943168</ele>
        <time>2026-08-29T11:50:49.000Z</time>
      </trkpt>
      <trkpt lat="45.04677" lon="5.7081">
        <ele>356.494687</ele>
        <time>2026-08-29T11:50:50.000Z</time>
      </trkpt>
      <trkpt lat="45.04687" lon="5.70811">
        <ele>356.040267</ele>
        <time>2026-08-29T11:50:51.000Z</time>
      </trkpt>
      <trkpt lat="45.04696" lon="5.70814">
        <ele>355.575245</ele>
        <time>2026-08-29T11:50:52.000Z</time>
      </trkpt>
      <trkpt lat="45.04706" lon="5.70819">
        <ele>355.106382</ele>
        <time>2026-08-29T11:50:53.000Z</time>
      </trkpt>
      <trkpt lat="45.04714" lon="5.70826">
        <ele>354.625197</ele>
        <time>2026-08-29T11:50:54.000Z</time>
      </trkpt>
      <trkpt lat="45.04722" lon="5.70835">
        <ele>354.150091</ele>
        <time>2026-08-29T11:50:55.000Z</time>
      </trkpt>
      <trkpt lat="45.04729" lon="5.70846">
        <ele>353.676238</ele>
        <time>2026-08-29T11:50:56.000Z</time>
      </trkpt>
      <trkpt lat="45.04735" lon="5.70856">
        <ele>353.204445</ele>
        <time>2026-08-29T11:50:57.000Z</time>
      </trkpt>
      <trkpt lat="45.04742" lon="5.70867">
        <ele>352.744466</ele>
        <time>2026-08-29T11:50:58.000Z</time>
      </trkpt>
      <trkpt lat="45.04747" lon="5.70877">
        <ele>352.296134</ele>
        <time>2026-08-29T11:50:59.000Z</time>
      </trkpt>
      <trkpt lat="45.04753" lon="5.70887">
        <ele>351.856348</ele>
        <time>2026-08-29T11:51:00.000Z</time>
      </trkpt>
      <trkpt lat="45.04759" lon="5.70897">
        <ele>351.424046</ele>
        <time>2026-08-29T11:51:01.000Z</time>
      </trkpt>
      <trkpt lat="45.04765" lon="5.70907">
        <ele>350.977096</ele>
        <time>2026-08-29T11:51:02.000Z</time>
      </trkpt>
      <trkpt lat="45.04773" lon="5.70915">
        <ele>350.532032</ele>
        <time>2026-08-29T11:51:03.000Z</time>
      </trkpt>
      <trkpt lat="45.04781" lon="5.70922">
        <ele>350.092627</ele>
        <time>2026-08-29T11:51:04.000Z</time>
      </trkpt>
      <trkpt lat="45.0479" lon="5.70927">
        <ele>349.634538</ele>
        <time>2026-08-29T11:51:05.000Z</time>
      </trkpt>
      <trkpt lat="45.04799" lon="5.70931">
        <ele>349.103517</ele>
        <time>2026-08-29T11:51:06.000Z</time>
      </trkpt>
      <trkpt lat="45.04809" lon="5.70932">
        <ele>348.529301</ele>
        <time>2026-08-29T11:51:07.000Z</time>
      </trkpt>
      <trkpt lat="45.04818" lon="5.70932">
        <ele>347.970689</ele>
        <time>2026-08-29T11:51:08.000Z</time>
      </trkpt>
      <trkpt lat="45.04828" lon="5.70932">
        <ele>347.387847</ele>
        <time>2026-08-29T11:51:09.000Z</time>
      </trkpt>
      <trkpt lat="45.04838" lon="5.7093">
        <ele>346.789786</ele>
        <time>2026-08-29T11:51:10.000Z</time>
      </trkpt>
      <trkpt lat="45.04849" lon="5.70928">
        <ele>346.165662</ele>
        <time>2026-08-29T11:51:11.000Z</time>
      </trkpt>
      <trkpt lat="45.04859" lon="5.70926">
        <ele>345.529903</ele>
        <time>2026-08-29T11:51:12.000Z</time>
      </trkpt>
      <trkpt lat="45.0487" lon="5.70923">
        <ele>344.898703</ele>
        <time>2026-08-29T11:51:13.000Z</time>
      </trkpt>
      <trkpt lat="45.0488" lon="5.70921">
        <ele>344.266834</ele>
        <time>2026-08-29T11:51:14.000Z</time>
      </trkpt>
      <trkpt lat="45.04891" lon="5.70918">
        <ele>343.632797</ele>
        <time>2026-08-29T11:51:15.000Z</time>
      </trkpt>
      <trkpt lat="45.04901" lon="5.70915">
        <ele>343.014471</ele>
        <time>2026-08-29T11:51:16.000Z</time>
      </trkpt>
      <trkpt lat="45.04912" lon="5.70912">
        <ele>342.39349</ele>
        <time>2026-08-29T11:51:17.000Z</time>
      </trkpt>
      <trkpt lat="45.04923" lon="5.7091">
        <ele>341.751306</ele>
        <time>2026-08-29T11:51:18.000Z</time>
      </trkpt>
      <trkpt lat="45.04934" lon="5.70909">
        <ele>341.097033</ele>
        <time>2026-08-29T11:51:19.000Z</time>
      </trkpt>
      <trkpt lat="45.04945" lon="5.7091">
        <ele>340.425675</ele>
        <time>2026-08-29T11:51:20.000Z</time>
      </trkpt>
      <trkpt lat="45.04956" lon="5.70913">
        <ele>339.745518</ele>
        <time>2026-08-29T11:51:21.000Z</time>
      </trkpt>
      <trkpt lat="45.04967" lon="5.70919">
        <ele>339.069212</ele>
        <time>2026-08-29T11:51:22.000Z</time>
      </trkpt>
      <trkpt lat="45.04977" lon="5.70927">
        <ele>338.267476</ele>
        <time>2026-08-29T11:51:23.000Z</time>
      </trkpt>
      <trkpt lat="45.04987" lon="5.70936">
        <ele>337.398126</ele>
        <time>2026-08-29T11:51:24.000Z</time>
      </trkpt>
      <trkpt lat="45.04997" lon="5.70946">
        <ele>336.517045</ele>
        <time>2026-08-29T11:51:25.000Z</time>
      </trkpt>
      <trkpt lat="45.05007" lon="5.70957">
        <ele>335.632785</ele>
        <time>2026-08-29T11:51:26.000Z</time>
      </trkpt>
      <trkpt lat="45.05016" lon="5.70967">
        <ele>334.765877</ele>
        <time>2026-08-29T11:51:27.000Z</time>
      </trkpt>
      <trkpt lat="45.05026" lon="5.70977">
        <ele>333.884659</ele>
        <time>2026-08-29T11:51:28.000Z</time>
      </trkpt>
      <trkpt lat="45.05036" lon="5.70987">
        <ele>333.003442</ele>
        <time>2026-08-29T11:51:29.000Z</time>
      </trkpt>
      <trkpt lat="45.05046" lon="5.70998">
        <ele>332.113493</ele>
        <time>2026-08-29T11:51:30.000Z</time>
      </trkpt>
      <trkpt lat="45.05056" lon="5.71007">
        <ele>331.229293</ele>
        <time>2026-08-29T11:51:31.000Z</time>
      </trkpt>
      <trkpt lat="45.05066" lon="5.71017">
        <ele>330.332618</ele>
        <time>2026-08-29T11:51:32.000Z</time>
      </trkpt>
      <trkpt lat="45.05077" lon="5.71026">
        <ele>329.447569</ele>
        <time>2026-08-29T11:51:33.000Z</time>
      </trkpt>
      <trkpt lat="45.05088" lon="5.71035">
        <ele>328.529104</ele>
        <time>2026-08-29T11:51:34.000Z</time>
      </trkpt>
      <trkpt lat="45.05099" lon="5.71045">
        <ele>327.603516</ele>
        <time>2026-08-29T11:51:35.000Z</time>
      </trkpt>
      <trkpt lat="45.05109" lon="5.71054">
        <ele>326.689358</ele>
        <time>2026-08-29T11:51:36.000Z</time>
      </trkpt>
      <trkpt lat="45.0512" lon="5.71063">
        <ele>325.77754</ele>
        <time>2026-08-29T11:51:37.000Z</time>
      </trkpt>
      <trkpt lat="45.05132" lon="5.71072">
        <ele>324.945719</ele>
        <time>2026-08-29T11:51:38.000Z</time>
      </trkpt>
      <trkpt lat="45.05143" lon="5.71081">
        <ele>324.115012</ele>
        <time>2026-08-29T11:51:39.000Z</time>
      </trkpt>
      <trkpt lat="45.05154" lon="5.71089">
        <ele>323.286607</ele>
        <time>2026-08-29T11:51:40.000Z</time>
      </trkpt>
      <trkpt lat="45.05165" lon="5.71098">
        <ele>322.460485</ele>
        <time>2026-08-29T11:51:41.000Z</time>
      </trkpt>
      <trkpt lat="45.05176" lon="5.71107">
        <ele>321.641093</ele>
        <time>2026-08-29T11:51:42.000Z</time>
      </trkpt>
      <trkpt lat="45.05187" lon="5.71115">
        <ele>320.818145</ele>
        <time>2026-08-29T11:51:43.000Z</time>
      </trkpt>
      <trkpt lat="45.05197" lon="5.71123">
        <ele>320.016849</ele>
        <time>2026-08-29T11:51:44.000Z</time>
      </trkpt>
      <trkpt lat="45.05207" lon="5.71131">
        <ele>319.263547</ele>
        <time>2026-08-29T11:51:45.000Z</time>
      </trkpt>
      <trkpt lat="45.05217" lon="5.71139">
        <ele>318.576216</ele>
        <time>2026-08-29T11:51:46.000Z</time>
      </trkpt>
      <trkpt lat="45.05226" lon="5.71145">
        <ele>317.892246</ele>
        <time>2026-08-29T11:51:47.000Z</time>
      </trkpt>
      <trkpt lat="45.05236" lon="5.7115">
        <ele>317.20126</ele>
        <time>2026-08-29T11:51:48.000Z</time>
      </trkpt>
      <trkpt lat="45.05245" lon="5.71158">
        <ele>316.508201</ele>
        <time>2026-08-29T11:51:49.000Z</time>
      </trkpt>
      <trkpt lat="45.05254" lon="5.71167">
        <ele>315.811666</ele>
        <time>2026-08-29T11:51:50.000Z</time>
      </trkpt>
      <trkpt lat="45.05261" lon="5.71177">
        <ele>315.134493</ele>
        <time>2026-08-29T11:51:51.000Z</time>
      </trkpt>
      <trkpt lat="45.05268" lon="5.71188">
        <ele>314.442856</ele>
        <time>2026-08-29T11:51:52.000Z</time>
      </trkpt>
      <trkpt lat="45.05275" lon="5.71199">
        <ele>314.034024</ele>
        <time>2026-08-29T11:51:53.000Z</time>
      </trkpt>
      <trkpt lat="45.05283" lon="5.71208">
        <ele>313.87005</ele>
        <time>2026-08-29T11:51:54.000Z</time>
      </trkpt>
      <trkpt lat="45.05291" lon="5.71217">
        <ele>313.709236</ele>
        <time>2026-08-29T11:51:55.000Z</time>
      </trkpt>
      <trkpt lat="45.05298" lon="5.71226">
        <ele>313.555699</ele>
        <time>2026-08-29T11:51:56.000Z</time>
      </trkpt>
      <trkpt lat="45.05306" lon="5.71234">
        <ele>313.401776</ele>
        <time>2026-08-29T11:51:57.000Z</time>
      </trkpt>
      <trkpt lat="45.05314" lon="5.71241">
        <ele>313.251721</ele>
        <time>2026-08-29T11:51:58.000Z</time>
      </trkpt>
      <trkpt lat="45.05322" lon="5.71249">
        <ele>313.103667</ele>
        <time>2026-08-29T11:51:59.000Z</time>
      </trkpt>
      <trkpt lat="45.05329" lon="5.71256">
        <ele>312.956922</ele>
        <time>2026-08-29T11:52:00.000Z</time>
      </trkpt>
      <trkpt lat="45.05337" lon="5.71263">
        <ele>312.811468</ele>
        <time>2026-08-29T11:52:01.000Z</time>
      </trkpt>
      <trkpt lat="45.05344" lon="5.71271">
        <ele>312.667981</ele>
        <time>2026-08-29T11:52:02.000Z</time>
      </trkpt>
      <trkpt lat="45.05351" lon="5.71278">
        <ele>312.527754</ele>
        <time>2026-08-29T11:52:03.000Z</time>
      </trkpt>
      <trkpt lat="45.05358" lon="5.71285">
        <ele>312.392083</ele>
        <time>2026-08-29T11:52:04.000Z</time>
      </trkpt>
      <trkpt lat="45.05365" lon="5.71291">
        <ele>312.258367</ele>
        <time>2026-08-29T11:52:05.000Z</time>
      </trkpt>
      <trkpt lat="45.05372" lon="5.71298">
        <ele>312.125318</ele>
        <time>2026-08-29T11:52:06.000Z</time>
      </trkpt>
      <trkpt lat="45.05379" lon="5.71305">
        <ele>311.993572</ele>
        <time>2026-08-29T11:52:07.000Z</time>
      </trkpt>
      <trkpt lat="45.05385" lon="5.71312">
        <ele>311.866365</ele>
        <time>2026-08-29T11:52:08.000Z</time>
      </trkpt>
      <trkpt lat="45.05392" lon="5.71318">
        <ele>311.73723</ele>
        <time>2026-08-29T11:52:09.000Z</time>
      </trkpt>
      <trkpt lat="45.05398" lon="5.71325">
        <ele>311.609384</ele>
        <time>2026-08-29T11:52:10.000Z</time>
      </trkpt>
      <trkpt lat="45.05405" lon="5.71331">
        <ele>311.478889</ele>
        <time>2026-08-29T11:52:11.000Z</time>
      </trkpt>
      <trkpt lat="45.05412" lon="5.71337">
        <ele>311.351677</ele>
        <time>2026-08-29T11:52:12.000Z</time>
      </trkpt>
      <trkpt lat="45.05418" lon="5.71344">
        <ele>311.236239</ele>
        <time>2026-08-29T11:52:13.000Z</time>
      </trkpt>
      <trkpt lat="45.05424" lon="5.71349">
        <ele>311.175113</ele>
        <time>2026-08-29T11:52:14.000Z</time>
      </trkpt>
      <trkpt lat="45.05431" lon="5.71356">
        <ele>311.110949</ele>
        <time>2026-08-29T11:52:15.000Z</time>
      </trkpt>
      <trkpt lat="45.05437" lon="5.71362">
        <ele>311.045439</ele>
        <time>2026-08-29T11:52:16.000Z</time>
      </trkpt>
      <trkpt lat="45.05443" lon="5.71369">
        <ele>310.980244</ele>
        <time>2026-08-29T11:52:17.000Z</time>
      </trkpt>
      <trkpt lat="45.0545" lon="5.71375">
        <ele>310.917099</ele>
        <time>2026-08-29T11:52:18.000Z</time>
      </trkpt>
      <trkpt lat="45.05456" lon="5.71381">
        <ele>310.852941</ele>
        <time>2026-08-29T11:52:19.000Z</time>
      </trkpt>
      <trkpt lat="45.05462" lon="5.71388">
        <ele>310.79047</ele>
        <time>2026-08-29T11:52:20.000Z</time>
      </trkpt>
      <trkpt lat="45.05468" lon="5.71394">
        <ele>310.727647</ele>
        <time>2026-08-29T11:52:21.000Z</time>
      </trkpt>
      <trkpt lat="45.05475" lon="5.714">
        <ele>310.664841</ele>
        <time>2026-08-29T11:52:22.000Z</time>
      </trkpt>
      <trkpt lat="45.05481" lon="5.71405">
        <ele>310.605056</ele>
        <time>2026-08-29T11:52:23.000Z</time>
      </trkpt>
      <trkpt lat="45.05487" lon="5.71411">
        <ele>310.54389</ele>
        <time>2026-08-29T11:52:24.000Z</time>
      </trkpt>
      <trkpt lat="45.05493" lon="5.71417">
        <ele>310.484123</ele>
        <time>2026-08-29T11:52:25.000Z</time>
      </trkpt>
      <trkpt lat="45.05499" lon="5.71423">
        <ele>310.423328</ele>
        <time>2026-08-29T11:52:26.000Z</time>
      </trkpt>
      <trkpt lat="45.05505" lon="5.71429">
        <ele>310.363542</ele>
        <time>2026-08-29T11:52:27.000Z</time>
      </trkpt>
      <trkpt lat="45.05511" lon="5.71435">
        <ele>310.302745</ele>
        <time>2026-08-29T11:52:28.000Z</time>
      </trkpt>
      <trkpt lat="45.05517" lon="5.71441">
        <ele>310.241283</ele>
        <time>2026-08-29T11:52:29.000Z</time>
      </trkpt>
      <trkpt lat="45.05522" lon="5.71447">
        <ele>310.182163</ele>
        <time>2026-08-29T11:52:30.000Z</time>
      </trkpt>
      <trkpt lat="45.05528" lon="5.71453">
        <ele>310.121044</ele>
        <time>2026-08-29T11:52:31.000Z</time>
      </trkpt>
      <trkpt lat="45.05534" lon="5.71458">
        <ele>310.063733</ele>
        <time>2026-08-29T11:52:32.000Z</time>
      </trkpt>
      <trkpt lat="45.0554" lon="5.71463">
        <ele>310.004907</ele>
        <time>2026-08-29T11:52:33.000Z</time>
      </trkpt>
      <trkpt lat="45.05547" lon="5.7147">
        <ele>309.941762</ele>
        <time>2026-08-29T11:52:34.000Z</time>
      </trkpt>
      <trkpt lat="45.05553" lon="5.71476">
        <ele>309.877605</ele>
        <time>2026-08-29T11:52:35.000Z</time>
      </trkpt>
      <trkpt lat="45.05559" lon="5.71482">
        <ele>309.815794</ele>
        <time>2026-08-29T11:52:36.000Z</time>
      </trkpt>
      <trkpt lat="45.05566" lon="5.71488">
        <ele>309.751987</ele>
        <time>2026-08-29T11:52:37.000Z</time>
      </trkpt>
      <trkpt lat="45.05572" lon="5.71493">
        <ele>309.693442</ele>
        <time>2026-08-29T11:52:38.000Z</time>
      </trkpt>
      <trkpt lat="45.05578" lon="5.71499">
        <ele>309.635685</ele>
        <time>2026-08-29T11:52:39.000Z</time>
      </trkpt>
      <trkpt lat="45.05584" lon="5.71505">
        <ele>309.578892</ele>
        <time>2026-08-29T11:52:40.000Z</time>
      </trkpt>
      <trkpt lat="45.05591" lon="5.71511">
        <ele>309.522033</ele>
        <time>2026-08-29T11:52:41.000Z</time>
      </trkpt>
      <trkpt lat="45.05597" lon="5.71516">
        <ele>309.465754</ele>
        <time>2026-08-29T11:52:42.000Z</time>
      </trkpt>
      <trkpt lat="45.05603" lon="5.71522">
        <ele>309.410787</ele>
        <time>2026-08-29T11:52:43.000Z</time>
      </trkpt>
      <trkpt lat="45.05609" lon="5.71527">
        <ele>309.357415</ele>
        <time>2026-08-29T11:52:44.000Z</time>
      </trkpt>
      <trkpt lat="45.05615" lon="5.71532">
        <ele>309.303588</ele>
        <time>2026-08-29T11:52:45.000Z</time>
      </trkpt>
      <trkpt lat="45.05621" lon="5.71537">
        <ele>309.248538</ele>
        <time>2026-08-29T11:52:46.000Z</time>
      </trkpt>
      <trkpt lat="45.05627" lon="5.71542">
        <ele>309.193487</ele>
        <time>2026-08-29T11:52:47.000Z</time>
      </trkpt>
      <trkpt lat="45.05633" lon="5.71547">
        <ele>309.13966</ele>
        <time>2026-08-29T11:52:48.000Z</time>
      </trkpt>
      <trkpt lat="45.05639" lon="5.71552">
        <ele>309.083146</ele>
        <time>2026-08-29T11:52:49.000Z</time>
      </trkpt>
      <trkpt lat="45.05645" lon="5.71558">
        <ele>309.027432</ele>
        <time>2026-08-29T11:52:50.000Z</time>
      </trkpt>
      <trkpt lat="45.05651" lon="5.71563">
        <ele>308.97181</ele>
        <time>2026-08-29T11:52:51.000Z</time>
      </trkpt>
      <trkpt lat="45.05658" lon="5.71568">
        <ele>308.915816</ele>
        <time>2026-08-29T11:52:52.000Z</time>
      </trkpt>
      <trkpt lat="45.05664" lon="5.71574">
        <ele>308.859249</ele>
        <time>2026-08-29T11:52:53.000Z</time>
      </trkpt>
      <trkpt lat="45.0567" lon="5.71579">
        <ele>308.80297</ele>
        <time>2026-08-29T11:52:54.000Z</time>
      </trkpt>
      <trkpt lat="45.05676" lon="5.71584">
        <ele>308.74659</ele>
        <time>2026-08-29T11:52:55.000Z</time>
      </trkpt>
      <trkpt lat="45.05683" lon="5.7159">
        <ele>308.690209</ele>
        <time>2026-08-29T11:52:56.000Z</time>
      </trkpt>
      <trkpt lat="45.05689" lon="5.71595">
        <ele>308.632697</ele>
        <time>2026-08-29T11:52:57.000Z</time>
      </trkpt>
      <trkpt lat="45.05695" lon="5.716">
        <ele>308.575374</ele>
        <time>2026-08-29T11:52:58.000Z</time>
      </trkpt>
      <trkpt lat="45.05701" lon="5.71606">
        <ele>308.52004</ele>
        <time>2026-08-29T11:52:59.000Z</time>
      </trkpt>
      <trkpt lat="45.05708" lon="5.71611">
        <ele>308.464046</ele>
        <time>2026-08-29T11:53:00.000Z</time>
      </trkpt>
      <trkpt lat="45.05714" lon="5.71616">
        <ele>308.409275</ele>
        <time>2026-08-29T11:53:01.000Z</time>
      </trkpt>
      <trkpt lat="45.0572" lon="5.71621">
        <ele>308.355433</ele>
        <time>2026-08-29T11:53:02.000Z</time>
      </trkpt>
      <trkpt lat="45.05726" lon="5.71626">
        <ele>308.304408</ele>
        <time>2026-08-29T11:53:03.000Z</time>
      </trkpt>
      <trkpt lat="45.05732" lon="5.71631">
        <ele>308.255498</ele>
        <time>2026-08-29T11:53:04.000Z</time>
      </trkpt>
      <trkpt lat="45.05738" lon="5.71636">
        <ele>308.205092</ele>
        <time>2026-08-29T11:53:05.000Z</time>
      </trkpt>
      <trkpt lat="45.05744" lon="5.71642">
        <ele>308.154422</ele>
        <time>2026-08-29T11:53:06.000Z</time>
      </trkpt>
      <trkpt lat="45.0575" lon="5.71647">
        <ele>308.102604</ele>
        <time>2026-08-29T11:53:07.000Z</time>
      </trkpt>
      <trkpt lat="45.05756" lon="5.71652">
        <ele>308.051055</ele>
        <time>2026-08-29T11:53:08.000Z</time>
      </trkpt>
      <trkpt lat="45.05762" lon="5.71657">
        <ele>308.000909</ele>
        <time>2026-08-29T11:53:09.000Z</time>
      </trkpt>
      <trkpt lat="45.05768" lon="5.71662">
        <ele>307.949766</ele>
        <time>2026-08-29T11:53:10.000Z</time>
      </trkpt>
      <trkpt lat="45.05775" lon="5.71667">
        <ele>307.897361</ele>
        <time>2026-08-29T11:53:11.000Z</time>
      </trkpt>
      <trkpt lat="45.05781" lon="5.71672">
        <ele>307.846691</ele>
        <time>2026-08-29T11:53:12.000Z</time>
      </trkpt>
      <trkpt lat="45.05787" lon="5.71678">
        <ele>307.795406</ele>
        <time>2026-08-29T11:53:13.000Z</time>
      </trkpt>
      <trkpt lat="45.05793" lon="5.71683">
        <ele>307.743241</ele>
        <time>2026-08-29T11:53:14.000Z</time>
      </trkpt>
      <trkpt lat="45.05799" lon="5.71688">
        <ele>307.691423</ele>
        <time>2026-08-29T11:53:15.000Z</time>
      </trkpt>
      <trkpt lat="45.05805" lon="5.71693">
        <ele>307.63952</ele>
        <time>2026-08-29T11:53:16.000Z</time>
      </trkpt>
      <trkpt lat="45.05812" lon="5.71698">
        <ele>307.586717</ele>
        <time>2026-08-29T11:53:17.000Z</time>
      </trkpt>
      <trkpt lat="45.05818" lon="5.71703">
        <ele>307.533915</ele>
        <time>2026-08-29T11:53:18.000Z</time>
      </trkpt>
      <trkpt lat="45.05824" lon="5.71708">
        <ele>307.482772</ele>
        <time>2026-08-29T11:53:19.000Z</time>
      </trkpt>
      <trkpt lat="45.0583" lon="5.71713">
        <ele>307.432715</ele>
        <time>2026-08-29T11:53:20.000Z</time>
      </trkpt>
      <trkpt lat="45.05836" lon="5.71718">
        <ele>307.38508</ele>
        <time>2026-08-29T11:53:21.000Z</time>
      </trkpt>
      <trkpt lat="45.05841" lon="5.71724">
        <ele>307.335682</ele>
        <time>2026-08-29T11:53:22.000Z</time>
      </trkpt>
      <trkpt lat="45.05847" lon="5.71729">
        <ele>307.289812</ele>
        <time>2026-08-29T11:53:23.000Z</time>
      </trkpt>
      <trkpt lat="45.05852" lon="5.71734">
        <ele>307.244537</ele>
        <time>2026-08-29T11:53:24.000Z</time>
      </trkpt>
      <trkpt lat="45.05857" lon="5.71739">
        <ele>307.198683</ele>
        <time>2026-08-29T11:53:25.000Z</time>
      </trkpt>
      <trkpt lat="45.05862" lon="5.71744">
        <ele>307.152526</ele>
        <time>2026-08-29T11:53:26.000Z</time>
      </trkpt>
      <trkpt lat="45.05868" lon="5.71749">
        <ele>307.102889</ele>
        <time>2026-08-29T11:53:27.000Z</time>
      </trkpt>
      <trkpt lat="45.05874" lon="5.71754">
        <ele>307.057989</ele>
        <time>2026-08-29T11:53:28.000Z</time>
      </trkpt>
      <trkpt lat="45.0588" lon="5.71759">
        <ele>307.023252</ele>
        <time>2026-08-29T11:53:29.000Z</time>
      </trkpt>
      <trkpt lat="45.05887" lon="5.71764">
        <ele>306.987476</ele>
        <time>2026-08-29T11:53:30.000Z</time>
      </trkpt>
      <trkpt lat="45.05893" lon="5.71769">
        <ele>306.9517</ele>
        <time>2026-08-29T11:53:31.000Z</time>
      </trkpt>
      <trkpt lat="45.059" lon="5.71774">
        <ele>306.914075</ele>
        <time>2026-08-29T11:53:32.000Z</time>
      </trkpt>
      <trkpt lat="45.05906" lon="5.71779">
        <ele>306.877774</ele>
        <time>2026-08-29T11:53:33.000Z</time>
      </trkpt>
      <trkpt lat="45.05912" lon="5.71784">
        <ele>306.842568</ele>
        <time>2026-08-29T11:53:34.000Z</time>
      </trkpt>
      <trkpt lat="45.05918" lon="5.71788">
        <ele>306.808249</ele>
        <time>2026-08-29T11:53:35.000Z</time>
      </trkpt>
      <trkpt lat="45.05924" lon="5.71793">
        <ele>306.774473</ele>
        <time>2026-08-29T11:53:36.000Z</time>
      </trkpt>
      <trkpt lat="45.0593" lon="5.71797">
        <ele>306.741474</ele>
        <time>2026-08-29T11:53:37.000Z</time>
      </trkpt>
      <trkpt lat="45.05936" lon="5.71802">
        <ele>306.708564</ele>
        <time>2026-08-29T11:53:38.000Z</time>
      </trkpt>
      <trkpt lat="45.05941" lon="5.71807">
        <ele>306.675829</ele>
        <time>2026-08-29T11:53:39.000Z</time>
      </trkpt>
      <trkpt lat="45.05947" lon="5.71811">
        <ele>306.643164</ele>
        <time>2026-08-29T11:53:40.000Z</time>
      </trkpt>
      <trkpt lat="45.05953" lon="5.71816">
        <ele>306.609727</ele>
        <time>2026-08-29T11:53:41.000Z</time>
      </trkpt>
      <trkpt lat="45.05959" lon="5.7182">
        <ele>306.575077</ele>
        <time>2026-08-29T11:53:42.000Z</time>
      </trkpt>
      <trkpt lat="45.05965" lon="5.71825">
        <ele>306.541472</ele>
        <time>2026-08-29T11:53:43.000Z</time>
      </trkpt>
      <trkpt lat="45.05971" lon="5.71829">
        <ele>306.507429</ele>
        <time>2026-08-29T11:53:44.000Z</time>
      </trkpt>
      <trkpt lat="45.05977" lon="5.71834">
        <ele>306.473386</ele>
        <time>2026-08-29T11:53:45.000Z</time>
      </trkpt>
      <trkpt lat="45.05983" lon="5.71839">
        <ele>306.440217</ele>
        <time>2026-08-29T11:53:46.000Z</time>
      </trkpt>
      <trkpt lat="45.05989" lon="5.71843">
        <ele>306.406781</ele>
        <time>2026-08-29T11:53:47.000Z</time>
      </trkpt>
      <trkpt lat="45.05995" lon="5.71848">
        <ele>306.373782</ele>
        <time>2026-08-29T11:53:48.000Z</time>
      </trkpt>
      <trkpt lat="45.06" lon="5.71852">
        <ele>306.341117</ele>
        <time>2026-08-29T11:53:49.000Z</time>
      </trkpt>
      <trkpt lat="45.06006" lon="5.71856">
        <ele>306.308287</ele>
        <time>2026-08-29T11:53:50.000Z</time>
      </trkpt>
      <trkpt lat="45.06012" lon="5.71861">
        <ele>306.276227</ele>
        <time>2026-08-29T11:53:51.000Z</time>
      </trkpt>
      <trkpt lat="45.06018" lon="5.71865">
        <ele>306.243836</ele>
        <time>2026-08-29T11:53:52.000Z</time>
      </trkpt>
      <trkpt lat="45.06023" lon="5.71869">
        <ele>306.212051</ele>
        <time>2026-08-29T11:53:53.000Z</time>
      </trkpt>
      <trkpt lat="45.06029" lon="5.71873">
        <ele>306.181039</ele>
        <time>2026-08-29T11:53:54.000Z</time>
      </trkpt>
      <trkpt lat="45.06034" lon="5.71878">
        <ele>306.152075</ele>
        <time>2026-08-29T11:53:55.000Z</time>
      </trkpt>
      <trkpt lat="45.0604" lon="5.71882">
        <ele>306.123365</ele>
        <time>2026-08-29T11:53:56.000Z</time>
      </trkpt>
      <trkpt lat="45.06046" lon="5.71886">
        <ele>306.094394</ele>
        <time>2026-08-29T11:53:57.000Z</time>
      </trkpt>
      <trkpt lat="45.06051" lon="5.7189">
        <ele>306.065625</ele>
        <time>2026-08-29T11:53:58.000Z</time>
      </trkpt>
      <trkpt lat="45.06057" lon="5.71894">
        <ele>306.037319</ele>
        <time>2026-08-29T11:53:59.000Z</time>
      </trkpt>
      <trkpt lat="45.06062" lon="5.71898">
        <ele>306.010409</ele>
        <time>2026-08-29T11:54:00.000Z</time>
      </trkpt>
      <trkpt lat="45.06067" lon="5.71901">
        <ele>305.982815</ele>
        <time>2026-08-29T11:54:01.000Z</time>
      </trkpt>
      <trkpt lat="45.06073" lon="5.71905">
        <ele>305.955085</ele>
        <time>2026-08-29T11:54:02.000Z</time>
      </trkpt>
      <trkpt lat="45.06078" lon="5.71909">
        <ele>305.92803</ele>
        <time>2026-08-29T11:54:03.000Z</time>
      </trkpt>
      <trkpt lat="45.06083" lon="5.71913">
        <ele>305.900829</ele>
        <time>2026-08-29T11:54:04.000Z</time>
      </trkpt>
      <trkpt lat="45.06089" lon="5.71917">
        <ele>305.87418</ele>
        <time>2026-08-29T11:54:05.000Z</time>
      </trkpt>
      <trkpt lat="45.06094" lon="5.71921">
        <ele>305.847382</ele>
        <time>2026-08-29T11:54:06.000Z</time>
      </trkpt>
      <trkpt lat="45.06099" lon="5.71924">
        <ele>305.820613</ele>
        <time>2026-08-29T11:54:07.000Z</time>
      </trkpt>
      <trkpt lat="45.06105" lon="5.71928">
        <ele>305.793699</ele>
        <time>2026-08-29T11:54:08.000Z</time>
      </trkpt>
      <trkpt lat="45.0611" lon="5.71931">
        <ele>305.766654</ele>
        <time>2026-08-29T11:54:09.000Z</time>
      </trkpt>
      <trkpt lat="45.06115" lon="5.71934">
        <ele>305.73974</ele>
        <time>2026-08-29T11:54:10.000Z</time>
      </trkpt>
      <trkpt lat="45.06121" lon="5.71938">
        <ele>305.713243</ele>
        <time>2026-08-29T11:54:11.000Z</time>
      </trkpt>
      <trkpt lat="45.06126" lon="5.71942">
        <ele>305.687146</ele>
        <time>2026-08-29T11:54:12.000Z</time>
      </trkpt>
      <trkpt lat="45.06131" lon="5.71945">
        <ele>305.661547</ele>
        <time>2026-08-29T11:54:13.000Z</time>
      </trkpt>
      <trkpt lat="45.06136" lon="5.71949">
        <ele>305.635596</ele>
        <time>2026-08-29T11:54:14.000Z</time>
      </trkpt>
      <trkpt lat="45.06141" lon="5.71953">
        <ele>305.608685</ele>
        <time>2026-08-29T11:54:15.000Z</time>
      </trkpt>
      <trkpt lat="45.06146" lon="5.71956">
        <ele>305.581775</ele>
        <time>2026-08-29T11:54:16.000Z</time>
      </trkpt>
      <trkpt lat="45.06152" lon="5.7196">
        <ele>305.555005</ele>
        <time>2026-08-29T11:54:17.000Z</time>
      </trkpt>
      <trkpt lat="45.06157" lon="5.71964">
        <ele>305.52796</ele>
        <time>2026-08-29T11:54:18.000Z</time>
      </trkpt>
      <trkpt lat="45.06163" lon="5.71967">
        <ele>305.500366</ele>
        <time>2026-08-29T11:54:19.000Z</time>
      </trkpt>
      <trkpt lat="45.06168" lon="5.71971">
        <ele>305.472906</ele>
        <time>2026-08-29T11:54:20.000Z</time>
      </trkpt>
      <trkpt lat="45.06173" lon="5.71975">
        <ele>305.4453</ele>
        <time>2026-08-29T11:54:21.000Z</time>
      </trkpt>
      <trkpt lat="45.06179" lon="5.71978">
        <ele>305.417287</ele>
        <time>2026-08-29T11:54:22.000Z</time>
      </trkpt>
      <trkpt lat="45.06184" lon="5.71982">
        <ele>305.389275</ele>
        <time>2026-08-29T11:54:23.000Z</time>
      </trkpt>
      <trkpt lat="45.0619" lon="5.71987">
        <ele>305.360818</ele>
        <time>2026-08-29T11:54:24.000Z</time>
      </trkpt>
      <trkpt lat="45.06195" lon="5.71991">
        <ele>305.317389</ele>
        <time>2026-08-29T11:54:25.000Z</time>
      </trkpt>
      <trkpt lat="45.06201" lon="5.71995">
        <ele>305.270874</ele>
        <time>2026-08-29T11:54:26.000Z</time>
      </trkpt>
      <trkpt lat="45.06206" lon="5.72">
        <ele>305.223825</ele>
        <time>2026-08-29T11:54:27.000Z</time>
      </trkpt>
      <trkpt lat="45.06211" lon="5.72004">
        <ele>305.178105</ele>
        <time>2026-08-29T11:54:28.000Z</time>
      </trkpt>
      <trkpt lat="45.06217" lon="5.72009">
        <ele>305.131471</ele>
        <time>2026-08-29T11:54:29.000Z</time>
      </trkpt>
      <trkpt lat="45.06222" lon="5.72015">
        <ele>305.083331</ele>
        <time>2026-08-29T11:54:30.000Z</time>
      </trkpt>
      <trkpt lat="45.06227" lon="5.72019">
        <ele>305.036697</ele>
        <time>2026-08-29T11:54:31.000Z</time>
      </trkpt>
      <trkpt lat="45.06232" lon="5.72024">
        <ele>304.989769</ele>
        <time>2026-08-29T11:54:32.000Z</time>
      </trkpt>
      <trkpt lat="45.06237" lon="5.72029">
        <ele>304.942841</ele>
        <time>2026-08-29T11:54:33.000Z</time>
      </trkpt>
      <trkpt lat="45.06242" lon="5.72035">
        <ele>304.896834</ele>
        <time>2026-08-29T11:54:34.000Z</time>
      </trkpt>
      <trkpt lat="45.06247" lon="5.7204">
        <ele>304.851431</ele>
        <time>2026-08-29T11:54:35.000Z</time>
      </trkpt>
      <trkpt lat="45.06252" lon="5.72045">
        <ele>304.806338</ele>
        <time>2026-08-29T11:54:36.000Z</time>
      </trkpt>
      <trkpt lat="45.06257" lon="5.72049">
        <ele>304.762151</ele>
        <time>2026-08-29T11:54:37.000Z</time>
      </trkpt>
      <trkpt lat="45.06262" lon="5.72054">
        <ele>304.716721</ele>
        <time>2026-08-29T11:54:38.000Z</time>
      </trkpt>
      <trkpt lat="45.06267" lon="5.72059">
        <ele>304.671621</ele>
        <time>2026-08-29T11:54:39.000Z</time>
      </trkpt>
      <trkpt lat="45.06272" lon="5.72064">
        <ele>304.626223</ele>
        <time>2026-08-29T11:54:40.000Z</time>
      </trkpt>
      <trkpt lat="45.06277" lon="5.72069">
        <ele>304.579589</ele>
        <time>2026-08-29T11:54:41.000Z</time>
      </trkpt>
      <trkpt lat="45.06283" lon="5.72074">
        <ele>304.533575</ele>
        <time>2026-08-29T11:54:42.000Z</time>
      </trkpt>
      <trkpt lat="45.06288" lon="5.72078">
        <ele>304.488176</ele>
        <time>2026-08-29T11:54:43.000Z</time>
      </trkpt>
      <trkpt lat="45.06293" lon="5.72083">
        <ele>304.443076</ele>
        <time>2026-08-29T11:54:44.000Z</time>
      </trkpt>
      <trkpt lat="45.06297" lon="5.72088">
        <ele>304.398897</ele>
        <time>2026-08-29T11:54:45.000Z</time>
      </trkpt>
      <trkpt lat="45.06302" lon="5.72093">
        <ele>304.354111</ele>
        <time>2026-08-29T11:54:46.000Z</time>
      </trkpt>
      <trkpt lat="45.06307" lon="5.72098">
        <ele>304.309932</ele>
        <time>2026-08-29T11:54:47.000Z</time>
      </trkpt>
      <trkpt lat="45.06312" lon="5.72103">
        <ele>304.26606</ele>
        <time>2026-08-29T11:54:48.000Z</time>
      </trkpt>
      <trkpt lat="45.06317" lon="5.72107">
        <ele>304.222787</ele>
        <time>2026-08-29T11:54:49.000Z</time>
      </trkpt>
      <trkpt lat="45.06321" lon="5.72112">
        <ele>304.179523</ele>
        <time>2026-08-29T11:54:50.000Z</time>
      </trkpt>
      <trkpt lat="45.06326" lon="5.72117">
        <ele>304.135953</ele>
        <time>2026-08-29T11:54:51.000Z</time>
      </trkpt>
      <trkpt lat="45.06331" lon="5.72122">
        <ele>304.092994</ele>
        <time>2026-08-29T11:54:52.000Z</time>
      </trkpt>
      <trkpt lat="45.06336" lon="5.72126">
        <ele>304.049722</ele>
        <time>2026-08-29T11:54:53.000Z</time>
      </trkpt>
      <trkpt lat="45.0634" lon="5.72131">
        <ele>304.006517</ele>
        <time>2026-08-29T11:54:54.000Z</time>
      </trkpt>
      <trkpt lat="45.06345" lon="5.72136">
        <ele>303.96573</ele>
        <time>2026-08-29T11:54:55.000Z</time>
      </trkpt>
      <trkpt lat="45.0635" lon="5.7214">
        <ele>303.924653</ele>
        <time>2026-08-29T11:54:56.000Z</time>
      </trkpt>
      <trkpt lat="45.06355" lon="5.72145">
        <ele>303.882999</ele>
        <time>2026-08-29T11:54:57.000Z</time>
      </trkpt>
      <trkpt lat="45.0636" lon="5.7215">
        <ele>303.840458</ele>
        <time>2026-08-29T11:54:58.000Z</time>
      </trkpt>
      <trkpt lat="45.06365" lon="5.72154">
        <ele>303.797773</ele>
        <time>2026-08-29T11:54:59.000Z</time>
      </trkpt>
      <trkpt lat="45.0637" lon="5.72158">
        <ele>303.754805</ele>
        <time>2026-08-29T11:55:00.000Z</time>
      </trkpt>
      <trkpt lat="45.06376" lon="5.72161">
        <ele>303.712539</ele>
        <time>2026-08-29T11:55:01.000Z</time>
      </trkpt>
      <trkpt lat="45.06381" lon="5.72163">
        <ele>303.671067</ele>
        <time>2026-08-29T11:55:02.000Z</time>
      </trkpt>
      <trkpt lat="45.06387" lon="5.72165">
        <ele>303.628632</ele>
        <time>2026-08-29T11:55:03.000Z</time>
      </trkpt>
      <trkpt lat="45.06393" lon="5.72167">
        <ele>303.586928</ele>
        <time>2026-08-29T11:55:04.000Z</time>
      </trkpt>
      <trkpt lat="45.06399" lon="5.72168">
        <ele>303.545668</ele>
        <time>2026-08-29T11:55:05.000Z</time>
      </trkpt>
      <trkpt lat="45.06405" lon="5.72168">
        <ele>303.503845</ele>
        <time>2026-08-29T11:55:06.000Z</time>
      </trkpt>
      <trkpt lat="45.06411" lon="5.72167">
        <ele>303.462657</ele>
        <time>2026-08-29T11:55:07.000Z</time>
      </trkpt>
      <trkpt lat="45.06416" lon="5.72166">
        <ele>303.420334</ele>
        <time>2026-08-29T11:55:08.000Z</time>
      </trkpt>
      <trkpt lat="45.06422" lon="5.72164">
        <ele>303.376861</ele>
        <time>2026-08-29T11:55:09.000Z</time>
      </trkpt>
      <trkpt lat="45.06428" lon="5.72162">
        <ele>303.334167</ele>
        <time>2026-08-29T11:55:10.000Z</time>
      </trkpt>
      <trkpt lat="45.06434" lon="5.72159">
        <ele>303.292906</ele>
        <time>2026-08-29T11:55:11.000Z</time>
      </trkpt>
      <trkpt lat="45.06439" lon="5.72156">
        <ele>303.25014</ele>
        <time>2026-08-29T11:55:12.000Z</time>
      </trkpt>
      <trkpt lat="45.06445" lon="5.72153">
        <ele>303.207208</ele>
        <time>2026-08-29T11:55:13.000Z</time>
      </trkpt>
      <trkpt lat="45.06451" lon="5.7215">
        <ele>303.164105</ele>
        <time>2026-08-29T11:55:14.000Z</time>
      </trkpt>
      <trkpt lat="45.06456" lon="5.72147">
        <ele>303.122327</ele>
        <time>2026-08-29T11:55:15.000Z</time>
      </trkpt>
      <trkpt lat="45.06462" lon="5.72145">
        <ele>303.080395</ele>
        <time>2026-08-29T11:55:16.000Z</time>
      </trkpt>
      <trkpt lat="45.06468" lon="5.72142">
        <ele>303.038621</ele>
        <time>2026-08-29T11:55:17.000Z</time>
      </trkpt>
      <trkpt lat="45.06473" lon="5.7214">
        <ele>302.998351</ele>
        <time>2026-08-29T11:55:18.000Z</time>
      </trkpt>
      <trkpt lat="45.06478" lon="5.72137">
        <ele>302.958754</ele>
        <time>2026-08-29T11:55:19.000Z</time>
      </trkpt>
      <trkpt lat="45.06484" lon="5.72135">
        <ele>302.919157</ele>
        <time>2026-08-29T11:55:20.000Z</time>
      </trkpt>
      <trkpt lat="45.06489" lon="5.72132">
        <ele>302.879559</ele>
        <time>2026-08-29T11:55:21.000Z</time>
      </trkpt>
      <trkpt lat="45.06494" lon="5.72129">
        <ele>302.839131</ele>
        <time>2026-08-29T11:55:22.000Z</time>
      </trkpt>
      <trkpt lat="45.065" lon="5.72127">
        <ele>302.798194</ele>
        <time>2026-08-29T11:55:23.000Z</time>
      </trkpt>
      <trkpt lat="45.06505" lon="5.72124">
        <ele>302.758579</ele>
        <time>2026-08-29T11:55:24.000Z</time>
      </trkpt>
      <trkpt lat="45.0651" lon="5.72121">
        <ele>302.719294</ele>
        <time>2026-08-29T11:55:25.000Z</time>
      </trkpt>
      <trkpt lat="45.06516" lon="5.72119">
        <ele>302.679774</ele>
        <time>2026-08-29T11:55:26.000Z</time>
      </trkpt>
      <trkpt lat="45.06521" lon="5.72117">
        <ele>302.641544</ele>
        <time>2026-08-29T11:55:27.000Z</time>
      </trkpt>
      <trkpt lat="45.06527" lon="5.72114">
        <ele>302.603823</ele>
        <time>2026-08-29T11:55:28.000Z</time>
      </trkpt>
      <trkpt lat="45.06532" lon="5.72112">
        <ele>302.566878</ele>
        <time>2026-08-29T11:55:29.000Z</time>
      </trkpt>
      <trkpt lat="45.06538" lon="5.7211">
        <ele>302.5271</ele>
        <time>2026-08-29T11:55:30.000Z</time>
      </trkpt>
      <trkpt lat="45.06544" lon="5.72107">
        <ele>302.487453</ele>
        <time>2026-08-29T11:55:31.000Z</time>
      </trkpt>
      <trkpt lat="45.06549" lon="5.72105">
        <ele>302.450373</ele>
        <time>2026-08-29T11:55:32.000Z</time>
      </trkpt>
      <trkpt lat="45.06554" lon="5.72103">
        <ele>302.412513</ele>
        <time>2026-08-29T11:55:33.000Z</time>
      </trkpt>
      <trkpt lat="45.0656" lon="5.721">
        <ele>302.374015</ele>
        <time>2026-08-29T11:55:34.000Z</time>
      </trkpt>
      <trkpt lat="45.06565" lon="5.72098">
        <ele>302.336295</ele>
        <time>2026-08-29T11:55:35.000Z</time>
      </trkpt>
      <trkpt lat="45.06571" lon="5.72095">
        <ele>302.297355</ele>
        <time>2026-08-29T11:55:36.000Z</time>
      </trkpt>
      <trkpt lat="45.06576" lon="5.72093">
        <ele>302.259352</ele>
        <time>2026-08-29T11:55:37.000Z</time>
      </trkpt>
      <trkpt lat="45.06581" lon="5.72091">
        <ele>302.22291</ele>
        <time>2026-08-29T11:55:38.000Z</time>
      </trkpt>
      <trkpt lat="45.06587" lon="5.72088">
        <ele>302.184412</ele>
        <time>2026-08-29T11:55:39.000Z</time>
      </trkpt>
      <trkpt lat="45.06592" lon="5.72086">
        <ele>302.145625</ele>
        <time>2026-08-29T11:55:40.000Z</time>
      </trkpt>
      <trkpt lat="45.06598" lon="5.72083">
        <ele>302.107521</ele>
        <time>2026-08-29T11:55:41.000Z</time>
      </trkpt>
      <trkpt lat="45.06603" lon="5.72082">
        <ele>302.070517</ele>
        <time>2026-08-29T11:55:42.000Z</time>
      </trkpt>
      <trkpt lat="45.06609" lon="5.72081">
        <ele>302.033953</ele>
        <time>2026-08-29T11:55:43.000Z</time>
      </trkpt>
      <trkpt lat="45.06614" lon="5.7208">
        <ele>301.997087</ele>
        <time>2026-08-29T11:55:44.000Z</time>
      </trkpt>
      <trkpt lat="45.0662" lon="5.7208">
        <ele>301.959625</ele>
        <time>2026-08-29T11:55:45.000Z</time>
      </trkpt>
      <trkpt lat="45.06625" lon="5.72081">
        <ele>301.920644</ele>
        <time>2026-08-29T11:55:46.000Z</time>
      </trkpt>
      <trkpt lat="45.06631" lon="5.72082">
        <ele>301.883922</ele>
        <time>2026-08-29T11:55:47.000Z</time>
      </trkpt>
      <trkpt lat="45.06636" lon="5.72084">
        <ele>301.846265</ele>
        <time>2026-08-29T11:55:48.000Z</time>
      </trkpt>
      <trkpt lat="45.06642" lon="5.72086">
        <ele>301.80828</ele>
        <time>2026-08-29T11:55:49.000Z</time>
      </trkpt>
      <trkpt lat="45.06647" lon="5.72088">
        <ele>301.77056</ele>
        <time>2026-08-29T11:55:50.000Z</time>
      </trkpt>
      <trkpt lat="45.06653" lon="5.72091">
        <ele>301.730913</ele>
        <time>2026-08-29T11:55:51.000Z</time>
      </trkpt>
      <trkpt lat="45.06659" lon="5.72093">
        <ele>301.691491</ele>
        <time>2026-08-29T11:55:52.000Z</time>
      </trkpt>
      <trkpt lat="45.06664" lon="5.72096">
        <ele>301.650501</ele>
        <time>2026-08-29T11:55:53.000Z</time>
      </trkpt>
      <trkpt lat="45.0667" lon="5.72099">
        <ele>301.61045</ele>
        <time>2026-08-29T11:55:54.000Z</time>
      </trkpt>
      <trkpt lat="45.06676" lon="5.72102">
        <ele>301.569755</ele>
        <time>2026-08-29T11:55:55.000Z</time>
      </trkpt>
      <trkpt lat="45.06682" lon="5.72104">
        <ele>301.524595</ele>
        <time>2026-08-29T11:55:56.000Z</time>
      </trkpt>
      <trkpt lat="45.06687" lon="5.72107">
        <ele>301.46284</ele>
        <time>2026-08-29T11:55:57.000Z</time>
      </trkpt>
      <trkpt lat="45.06693" lon="5.72109">
        <ele>301.400549</ele>
        <time>2026-08-29T11:55:58.000Z</time>
      </trkpt>
      <trkpt lat="45.06698" lon="5.72112">
        <ele>301.340279</ele>
        <time>2026-08-29T11:55:59.000Z</time>
      </trkpt>
      <trkpt lat="45.06704" lon="5.72115">
        <ele>301.277521</ele>
        <time>2026-08-29T11:56:00.000Z</time>
      </trkpt>
      <trkpt lat="45.06709" lon="5.72118">
        <ele>301.214003</ele>
        <time>2026-08-29T11:56:01.000Z</time>
      </trkpt>
      <trkpt lat="45.06715" lon="5.72121">
        <ele>301.149491</ele>
        <time>2026-08-29T11:56:02.000Z</time>
      </trkpt>
      <trkpt lat="45.06721" lon="5.72123">
        <ele>301.08723</ele>
        <time>2026-08-29T11:56:03.000Z</time>
      </trkpt>
      <trkpt lat="45.06726" lon="5.72126">
        <ele>301.027725</ele>
        <time>2026-08-29T11:56:04.000Z</time>
      </trkpt>
      <trkpt lat="45.06731" lon="5.72129">
        <ele>300.966972</ele>
        <time>2026-08-29T11:56:05.000Z</time>
      </trkpt>
      <trkpt lat="45.06737" lon="5.72131">
        <ele>300.906219</ele>
        <time>2026-08-29T11:56:06.000Z</time>
      </trkpt>
      <trkpt lat="45.06742" lon="5.72134">
        <ele>300.844706</ele>
        <time>2026-08-29T11:56:07.000Z</time>
      </trkpt>
      <trkpt lat="45.06747" lon="5.72137">
        <ele>300.785201</ele>
        <time>2026-08-29T11:56:08.000Z</time>
      </trkpt>
      <trkpt lat="45.06753" lon="5.72139">
        <ele>300.724693</ele>
        <time>2026-08-29T11:56:09.000Z</time>
      </trkpt>
      <trkpt lat="45.06758" lon="5.72142">
        <ele>300.66318</ele>
        <time>2026-08-29T11:56:10.000Z</time>
      </trkpt>
      <trkpt lat="45.06764" lon="5.72145">
        <ele>300.599417</ele>
        <time>2026-08-29T11:56:11.000Z</time>
      </trkpt>
      <trkpt lat="45.0677" lon="5.72147">
        <ele>300.536414</ele>
        <time>2026-08-29T11:56:12.000Z</time>
      </trkpt>
      <trkpt lat="45.06775" lon="5.7215">
        <ele>300.471406</ele>
        <time>2026-08-29T11:56:13.000Z</time>
      </trkpt>
      <trkpt lat="45.06781" lon="5.72153">
        <ele>300.408403</ele>
        <time>2026-08-29T11:56:14.000Z</time>
      </trkpt>
      <trkpt lat="45.06787" lon="5.72156">
        <ele>300.343633</ele>
        <time>2026-08-29T11:56:15.000Z</time>
      </trkpt>
      <trkpt lat="45.06793" lon="5.72158">
        <ele>300.279629</ele>
        <time>2026-08-29T11:56:16.000Z</time>
      </trkpt>
      <trkpt lat="45.06798" lon="5.72161">
        <ele>300.215866</ele>
        <time>2026-08-29T11:56:17.000Z</time>
      </trkpt>
      <trkpt lat="45.06804" lon="5.72164">
        <ele>300.150858</ele>
        <time>2026-08-29T11:56:18.000Z</time>
      </trkpt>
      <trkpt lat="45.0681" lon="5.72167">
        <ele>300.085605</ele>
        <time>2026-08-29T11:56:19.000Z</time>
      </trkpt>
      <trkpt lat="45.06816" lon="5.7217">
        <ele>300.020835</ele>
        <time>2026-08-29T11:56:20.000Z</time>
      </trkpt>
      <trkpt lat="45.06821" lon="5.72172">
        <ele>299.95683</ele>
        <time>2026-08-29T11:56:21.000Z</time>
      </trkpt>
      <trkpt lat="45.06827" lon="5.72175">
        <ele>299.891577</ele>
        <time>2026-08-29T11:56:22.000Z</time>
      </trkpt>
      <trkpt lat="45.06833" lon="5.72178">
        <ele>299.828273</ele>
        <time>2026-08-29T11:56:23.000Z</time>
      </trkpt>
      <trkpt lat="45.06839" lon="5.7218">
        <ele>299.762722</ele>
        <time>2026-08-29T11:56:24.000Z</time>
      </trkpt>
      <trkpt lat="45.06845" lon="5.72183">
        <ele>299.696943</ele>
        <time>2026-08-29T11:56:25.000Z</time>
      </trkpt>
      <trkpt lat="45.0685" lon="5.72186">
        <ele>299.632404</ele>
        <time>2026-08-29T11:56:26.000Z</time>
      </trkpt>
      <trkpt lat="45.06856" lon="5.72188">
        <ele>299.59664</ele>
        <time>2026-08-29T11:56:27.000Z</time>
      </trkpt>
      <trkpt lat="45.06862" lon="5.72191">
        <ele>299.564428</ele>
        <time>2026-08-29T11:56:28.000Z</time>
      </trkpt>
      <trkpt lat="45.06867" lon="5.72193">
        <ele>299.532334</ele>
        <time>2026-08-29T11:56:29.000Z</time>
      </trkpt>
      <trkpt lat="45.06873" lon="5.72196">
        <ele>299.500239</ele>
        <time>2026-08-29T11:56:30.000Z</time>
      </trkpt>
      <trkpt lat="45.06879" lon="5.72198">
        <ele>299.467211</ele>
        <time>2026-08-29T11:56:31.000Z</time>
      </trkpt>
      <trkpt lat="45.06885" lon="5.72201">
        <ele>299.433958</ele>
        <time>2026-08-29T11:56:32.000Z</time>
      </trkpt>
      <trkpt lat="45.0689" lon="5.72204">
        <ele>299.400853</ele>
        <time>2026-08-29T11:56:33.000Z</time>
      </trkpt>
      <trkpt lat="45.06896" lon="5.72206">
        <ele>299.368</ele>
        <time>2026-08-29T11:56:34.000Z</time>
      </trkpt>
      <trkpt lat="45.06902" lon="5.72209">
        <ele>299.334862</ele>
        <time>2026-08-29T11:56:35.000Z</time>
      </trkpt>
      <trkpt lat="45.06908" lon="5.72212">
        <ele>299.301087</ele>
        <time>2026-08-29T11:56:36.000Z</time>
      </trkpt>
      <trkpt lat="45.06914" lon="5.72214">
        <ele>299.267425</ele>
        <time>2026-08-29T11:56:37.000Z</time>
      </trkpt>
      <trkpt lat="45.0692" lon="5.72216">
        <ele>299.233347</ele>
        <time>2026-08-29T11:56:38.000Z</time>
      </trkpt>
      <trkpt lat="45.06926" lon="5.72219">
        <ele>299.199161</ele>
        <time>2026-08-29T11:56:39.000Z</time>
      </trkpt>
      <trkpt lat="45.06931" lon="5.72221">
        <ele>299.166133</ele>
        <time>2026-08-29T11:56:40.000Z</time>
      </trkpt>
      <trkpt lat="45.06937" lon="5.72224">
        <ele>299.133517</ele>
        <time>2026-08-29T11:56:41.000Z</time>
      </trkpt>
      <trkpt lat="45.06943" lon="5.72226">
        <ele>299.100264</ele>
        <time>2026-08-29T11:56:42.000Z</time>
      </trkpt>
      <trkpt lat="45.06949" lon="5.72229">
        <ele>299.066603</ele>
        <time>2026-08-29T11:56:43.000Z</time>
      </trkpt>
      <trkpt lat="45.06955" lon="5.72231">
        <ele>299.032417</ele>
        <time>2026-08-29T11:56:44.000Z</time>
      </trkpt>
      <trkpt lat="45.06961" lon="5.72234">
        <ele>298.999389</ele>
        <time>2026-08-29T11:56:45.000Z</time>
      </trkpt>
      <trkpt lat="45.06966" lon="5.72236">
        <ele>298.966361</ele>
        <time>2026-08-29T11:56:46.000Z</time>
      </trkpt>
      <trkpt lat="45.06972" lon="5.72239">
        <ele>298.933108</ele>
        <time>2026-08-29T11:56:47.000Z</time>
      </trkpt>
      <trkpt lat="45.06978" lon="5.72241">
        <ele>298.899334</ele>
        <time>2026-08-29T11:56:48.000Z</time>
      </trkpt>
      <trkpt lat="45.06984" lon="5.72244">
        <ele>298.866514</ele>
        <time>2026-08-29T11:56:49.000Z</time>
      </trkpt>
      <trkpt lat="45.0699" lon="5.72246">
        <ele>298.833354</ele>
        <time>2026-08-29T11:56:50.000Z</time>
      </trkpt>
      <trkpt lat="45.06996" lon="5.72248">
        <ele>298.801062</ele>
        <time>2026-08-29T11:56:51.000Z</time>
      </trkpt>
      <trkpt lat="45.07001" lon="5.7225">
        <ele>298.768849</ele>
        <time>2026-08-29T11:56:52.000Z</time>
      </trkpt>
      <trkpt lat="45.07007" lon="5.72253">
        <ele>298.737156</ele>
        <time>2026-08-29T11:56:53.000Z</time>
      </trkpt>
      <trkpt lat="45.07012" lon="5.72256">
        <ele>298.705062</ele>
        <time>2026-08-29T11:56:54.000Z</time>
      </trkpt>
      <trkpt lat="45.07018" lon="5.72258">
        <ele>298.673191</ele>
        <time>2026-08-29T11:56:55.000Z</time>
      </trkpt>
      <trkpt lat="45.07024" lon="5.7226">
        <ele>298.639868</ele>
        <time>2026-08-29T11:56:56.000Z</time>
      </trkpt>
      <trkpt lat="45.07029" lon="5.72262">
        <ele>298.602743</ele>
        <time>2026-08-29T11:56:57.000Z</time>
      </trkpt>
      <trkpt lat="45.07035" lon="5.72264">
        <ele>298.566704</ele>
        <time>2026-08-29T11:56:58.000Z</time>
      </trkpt>
      <trkpt lat="45.07041" lon="5.72266">
        <ele>298.529578</ele>
        <time>2026-08-29T11:56:59.000Z</time>
      </trkpt>
      <trkpt lat="45.07047" lon="5.72269">
        <ele>298.491743</ele>
        <time>2026-08-29T11:57:00.000Z</time>
      </trkpt>
      <trkpt lat="45.07052" lon="5.72271">
        <ele>298.456053</ele>
        <time>2026-08-29T11:57:01.000Z</time>
      </trkpt>
      <trkpt lat="45.07058" lon="5.72273">
        <ele>298.420489</ele>
        <time>2026-08-29T11:57:02.000Z</time>
      </trkpt>
      <trkpt lat="45.07063" lon="5.72276">
        <ele>298.385519</ele>
        <time>2026-08-29T11:57:03.000Z</time>
      </trkpt>
      <trkpt lat="45.07069" lon="5.72278">
        <ele>298.34936</ele>
        <time>2026-08-29T11:57:04.000Z</time>
      </trkpt>
      <trkpt lat="45.07074" lon="5.7228">
        <ele>298.313796</ele>
        <time>2026-08-29T11:57:05.000Z</time>
      </trkpt>
      <trkpt lat="45.0708" lon="5.72283">
        <ele>298.279153</ele>
        <time>2026-08-29T11:57:06.000Z</time>
      </trkpt>
      <trkpt lat="45.07085" lon="5.72285">
        <ele>298.242741</ele>
        <time>2026-08-29T11:57:07.000Z</time>
      </trkpt>
      <trkpt lat="45.07091" lon="5.72288">
        <ele>298.206457</ele>
        <time>2026-08-29T11:57:08.000Z</time>
      </trkpt>
      <trkpt lat="45.07096" lon="5.7229">
        <ele>298.171225</ele>
        <time>2026-08-29T11:57:09.000Z</time>
      </trkpt>
      <trkpt lat="45.07102" lon="5.72292">
        <ele>298.135662</ele>
        <time>2026-08-29T11:57:10.000Z</time>
      </trkpt>
      <trkpt lat="45.07107" lon="5.72295">
        <ele>298.09984</ele>
        <time>2026-08-29T11:57:11.000Z</time>
      </trkpt>
      <trkpt lat="45.07113" lon="5.72298">
        <ele>298.064469</ele>
        <time>2026-08-29T11:57:12.000Z</time>
      </trkpt>
      <trkpt lat="45.07118" lon="5.723">
        <ele>298.027592</ele>
        <time>2026-08-29T11:57:13.000Z</time>
      </trkpt>
      <trkpt lat="45.07124" lon="5.72302">
        <ele>297.990715</ele>
        <time>2026-08-29T11:57:14.000Z</time>
      </trkpt>
      <trkpt lat="45.07129" lon="5.72305">
        <ele>297.954615</ele>
        <time>2026-08-29T11:57:15.000Z</time>
      </trkpt>
      <trkpt lat="45.07135" lon="5.72308">
        <ele>297.917611</ele>
        <time>2026-08-29T11:57:16.000Z</time>
      </trkpt>
      <trkpt lat="45.07141" lon="5.7231">
        <ele>297.880474</ele>
        <time>2026-08-29T11:57:17.000Z</time>
      </trkpt>
      <trkpt lat="45.07147" lon="5.72313">
        <ele>297.843338</ele>
        <time>2026-08-29T11:57:18.000Z</time>
      </trkpt>
      <trkpt lat="45.07152" lon="5.72315">
        <ele>297.809869</ele>
        <time>2026-08-29T11:57:19.000Z</time>
      </trkpt>
      <trkpt lat="45.07157" lon="5.72318">
        <ele>297.775814</ele>
        <time>2026-08-29T11:57:20.000Z</time>
      </trkpt>
      <trkpt lat="45.07162" lon="5.7232">
        <ele>297.739401</ele>
        <time>2026-08-29T11:57:21.000Z</time>
      </trkpt>
      <trkpt lat="45.07168" lon="5.72323">
        <ele>297.702397</ele>
        <time>2026-08-29T11:57:22.000Z</time>
      </trkpt>
      <trkpt lat="45.07174" lon="5.72325">
        <ele>297.665124</ele>
        <time>2026-08-29T11:57:23.000Z</time>
      </trkpt>
      <trkpt lat="45.0718" lon="5.72328">
        <ele>297.627526</ele>
        <time>2026-08-29T11:57:24.000Z</time>
      </trkpt>
      <trkpt lat="45.07186" lon="5.7233">
        <ele>297.588862</ele>
        <time>2026-08-29T11:57:25.000Z</time>
      </trkpt>
      <trkpt lat="45.07191" lon="5.72333">
        <ele>297.551626</ele>
        <time>2026-08-29T11:57:26.000Z</time>
      </trkpt>
      <trkpt lat="45.07197" lon="5.72335">
        <ele>297.511177</ele>
        <time>2026-08-29T11:57:27.000Z</time>
      </trkpt>
      <trkpt lat="45.07203" lon="5.72338">
        <ele>297.471116</ele>
        <time>2026-08-29T11:57:28.000Z</time>
      </trkpt>
      <trkpt lat="45.07209" lon="5.72341">
        <ele>297.430104</ele>
        <time>2026-08-29T11:57:29.000Z</time>
      </trkpt>
      <trkpt lat="45.07214" lon="5.72343">
        <ele>297.389247</ele>
        <time>2026-08-29T11:57:30.000Z</time>
      </trkpt>
      <trkpt lat="45.0722" lon="5.72346">
        <ele>297.349186</ele>
        <time>2026-08-29T11:57:31.000Z</time>
      </trkpt>
      <trkpt lat="45.07226" lon="5.72348">
        <ele>297.30992</ele>
        <time>2026-08-29T11:57:32.000Z</time>
      </trkpt>
      <trkpt lat="45.07231" lon="5.72351">
        <ele>297.267916</ele>
        <time>2026-08-29T11:57:33.000Z</time>
      </trkpt>
      <trkpt lat="45.07237" lon="5.72353">
        <ele>297.226053</ele>
        <time>2026-08-29T11:57:34.000Z</time>
      </trkpt>
      <trkpt lat="45.07243" lon="5.72356">
        <ele>297.184978</ele>
        <time>2026-08-29T11:57:35.000Z</time>
      </trkpt>
      <trkpt lat="45.07249" lon="5.72358">
        <ele>297.14338</ele>
        <time>2026-08-29T11:57:36.000Z</time>
      </trkpt>
      <trkpt lat="45.07255" lon="5.7236">
        <ele>297.101126</ele>
        <time>2026-08-29T11:57:37.000Z</time>
      </trkpt>
      <trkpt lat="45.07261" lon="5.72363">
        <ele>297.060563</ele>
        <time>2026-08-29T11:57:38.000Z</time>
      </trkpt>
      <trkpt lat="45.07267" lon="5.72366">
        <ele>297.01856</ele>
        <time>2026-08-29T11:57:39.000Z</time>
      </trkpt>
      <trkpt lat="45.07273" lon="5.72368">
        <ele>296.97497</ele>
        <time>2026-08-29T11:57:40.000Z</time>
      </trkpt>
      <trkpt lat="45.07279" lon="5.72371">
        <ele>296.932317</ele>
        <time>2026-08-29T11:57:41.000Z</time>
      </trkpt>
      <trkpt lat="45.07284" lon="5.72374">
        <ele>296.89146</ele>
        <time>2026-08-29T11:57:42.000Z</time>
      </trkpt>
      <trkpt lat="45.0729" lon="5.72377">
        <ele>296.849006</ele>
        <time>2026-08-29T11:57:43.000Z</time>
      </trkpt>
      <trkpt lat="45.07296" lon="5.72379">
        <ele>296.806552</ele>
        <time>2026-08-29T11:57:44.000Z</time>
      </trkpt>
      <trkpt lat="45.07302" lon="5.72382">
        <ele>296.763757</ele>
        <time>2026-08-29T11:57:45.000Z</time>
      </trkpt>
      <trkpt lat="45.07308" lon="5.72385">
        <ele>296.721608</ele>
        <time>2026-08-29T11:57:46.000Z</time>
      </trkpt>
      <trkpt lat="45.07314" lon="5.72387">
        <ele>296.67988</ele>
        <time>2026-08-29T11:57:47.000Z</time>
      </trkpt>
      <trkpt lat="45.0732" lon="5.7239">
        <ele>296.639173</ele>
        <time>2026-08-29T11:57:48.000Z</time>
      </trkpt>
      <trkpt lat="45.07326" lon="5.72393">
        <ele>296.59767</ele>
        <time>2026-08-29T11:57:49.000Z</time>
      </trkpt>
      <trkpt lat="45.07331" lon="5.72395">
        <ele>296.555522</ele>
        <time>2026-08-29T11:57:50.000Z</time>
      </trkpt>
      <trkpt lat="45.07337" lon="5.72398">
        <ele>296.514665</ele>
        <time>2026-08-29T11:57:51.000Z</time>
      </trkpt>
      <trkpt lat="45.07343" lon="5.72401">
        <ele>296.47301</ele>
        <time>2026-08-29T11:57:52.000Z</time>
      </trkpt>
      <trkpt lat="45.07349" lon="5.72403">
        <ele>296.429707</ele>
        <time>2026-08-29T11:57:53.000Z</time>
      </trkpt>
      <trkpt lat="45.07355" lon="5.72406">
        <ele>296.387054</ele>
        <time>2026-08-29T11:57:54.000Z</time>
      </trkpt>
      <trkpt lat="45.07361" lon="5.72409">
        <ele>296.344905</ele>
        <time>2026-08-29T11:57:55.000Z</time>
      </trkpt>
      <trkpt lat="45.07367" lon="5.72411">
        <ele>296.303189</ele>
        <time>2026-08-29T11:57:56.000Z</time>
      </trkpt>
      <trkpt lat="45.07372" lon="5.72414">
        <ele>296.2566</ele>
        <time>2026-08-29T11:57:57.000Z</time>
      </trkpt>
      <trkpt lat="45.07378" lon="5.72417">
        <ele>296.209839</ele>
        <time>2026-08-29T11:57:58.000Z</time>
      </trkpt>
      <trkpt lat="45.07384" lon="5.72419">
        <ele>296.162509</ele>
        <time>2026-08-29T11:57:59.000Z</time>
      </trkpt>
      <trkpt lat="45.0739" lon="5.72422">
        <ele>296.114597</ele>
        <time>2026-08-29T11:58:00.000Z</time>
      </trkpt>
      <trkpt lat="45.07396" lon="5.72424">
        <ele>296.066091</ele>
        <time>2026-08-29T11:58:01.000Z</time>
      </trkpt>
      <trkpt lat="45.07401" lon="5.72427">
        <ele>296.020068</ele>
        <time>2026-08-29T11:58:02.000Z</time>
      </trkpt>
      <trkpt lat="45.07407" lon="5.72429">
        <ele>295.974045</ele>
        <time>2026-08-29T11:58:03.000Z</time>
      </trkpt>
      <trkpt lat="45.07413" lon="5.72432">
        <ele>295.927455</ele>
        <time>2026-08-29T11:58:04.000Z</time>
      </trkpt>
      <trkpt lat="45.07418" lon="5.72435">
        <ele>295.881606</ele>
        <time>2026-08-29T11:58:05.000Z</time>
      </trkpt>
      <trkpt lat="45.07424" lon="5.72437">
        <ele>295.837233</ele>
        <time>2026-08-29T11:58:06.000Z</time>
      </trkpt>
      <trkpt lat="45.07429" lon="5.7244">
        <ele>295.790644</ele>
        <time>2026-08-29T11:58:07.000Z</time>
      </trkpt>
      <trkpt lat="45.07435" lon="5.72442">
        <ele>295.744681</ele>
        <time>2026-08-29T11:58:08.000Z</time>
      </trkpt>
      <trkpt lat="45.07441" lon="5.72444">
        <ele>295.699162</ele>
        <time>2026-08-29T11:58:09.000Z</time>
      </trkpt>
      <trkpt lat="45.07446" lon="5.72447">
        <ele>295.653313</ele>
        <time>2026-08-29T11:58:10.000Z</time>
      </trkpt>
      <trkpt lat="45.07452" lon="5.7245">
        <ele>295.608202</ele>
        <time>2026-08-29T11:58:11.000Z</time>
      </trkpt>
      <trkpt lat="45.07457" lon="5.72452">
        <ele>295.563427</ele>
        <time>2026-08-29T11:58:12.000Z</time>
      </trkpt>
      <trkpt lat="45.07463" lon="5.72455">
        <ele>295.519967</ele>
        <time>2026-08-29T11:58:13.000Z</time>
      </trkpt>
      <trkpt lat="45.07468" lon="5.72457">
        <ele>295.475593</ele>
        <time>2026-08-29T11:58:14.000Z</time>
      </trkpt>
      <trkpt lat="45.07474" lon="5.7246">
        <ele>295.430654</ele>
        <time>2026-08-29T11:58:15.000Z</time>
      </trkpt>
      <trkpt lat="45.07479" lon="5.72462">
        <ele>295.383487</ele>
        <time>2026-08-29T11:58:16.000Z</time>
      </trkpt>
      <trkpt lat="45.07485" lon="5.72464">
        <ele>295.337376</ele>
        <time>2026-08-29T11:58:17.000Z</time>
      </trkpt>
      <trkpt lat="45.07491" lon="5.72467">
        <ele>295.291857</ele>
        <time>2026-08-29T11:58:18.000Z</time>
      </trkpt>
      <trkpt lat="45.07496" lon="5.72469">
        <ele>295.247826</ele>
        <time>2026-08-29T11:58:19.000Z</time>
      </trkpt>
      <trkpt lat="45.07502" lon="5.72472">
        <ele>295.201715</ele>
        <time>2026-08-29T11:58:20.000Z</time>
      </trkpt>
      <trkpt lat="45.07508" lon="5.72474">
        <ele>295.154385</ele>
        <time>2026-08-29T11:58:21.000Z</time>
      </trkpt>
      <trkpt lat="45.07513" lon="5.72477">
        <ele>295.106712</ele>
        <time>2026-08-29T11:58:22.000Z</time>
      </trkpt>
      <trkpt lat="45.07519" lon="5.7248">
        <ele>295.059213</ele>
        <time>2026-08-29T11:58:23.000Z</time>
      </trkpt>
      <trkpt lat="45.07525" lon="5.72482">
        <ele>295.01319</ele>
        <time>2026-08-29T11:58:24.000Z</time>
      </trkpt>
      <trkpt lat="45.07531" lon="5.72485">
        <ele>294.965859</ele>
        <time>2026-08-29T11:58:25.000Z</time>
      </trkpt>
      <trkpt lat="45.07536" lon="5.72487">
        <ele>294.918849</ele>
        <time>2026-08-29T11:58:26.000Z</time>
      </trkpt>
      <trkpt lat="45.07542" lon="5.7249">
        <ele>294.872377</ele>
        <time>2026-08-29T11:58:27.000Z</time>
      </trkpt>
      <trkpt lat="45.07548" lon="5.72493">
        <ele>294.826035</ele>
        <time>2026-08-29T11:58:28.000Z</time>
      </trkpt>
      <trkpt lat="45.07554" lon="5.72495">
        <ele>294.779858</ele>
        <time>2026-08-29T11:58:29.000Z</time>
      </trkpt>
      <trkpt lat="45.0756" lon="5.72498">
        <ele>294.733113</ele>
        <time>2026-08-29T11:58:30.000Z</time>
      </trkpt>
      <trkpt lat="45.07566" lon="5.725">
        <ele>294.686368</ele>
        <time>2026-08-29T11:58:31.000Z</time>
      </trkpt>
      <trkpt lat="45.07571" lon="5.72503">
        <ele>294.639919</ele>
        <time>2026-08-29T11:58:32.000Z</time>
      </trkpt>
      <trkpt lat="45.07577" lon="5.72505">
        <ele>294.595351</ele>
        <time>2026-08-29T11:58:33.000Z</time>
      </trkpt>
      <trkpt lat="45.07583" lon="5.72507">
        <ele>294.550941</ele>
        <time>2026-08-29T11:58:34.000Z</time>
      </trkpt>
      <trkpt lat="45.07588" lon="5.7251">
        <ele>294.506373</ele>
        <time>2026-08-29T11:58:35.000Z</time>
      </trkpt>
      <trkpt lat="45.07594" lon="5.72512">
        <ele>294.461236</ele>
        <time>2026-08-29T11:58:36.000Z</time>
      </trkpt>
      <trkpt lat="45.076" lon="5.72515">
        <ele>294.416668</ele>
        <time>2026-08-29T11:58:37.000Z</time>
      </trkpt>
      <trkpt lat="45.07605" lon="5.72518">
        <ele>294.372484</ele>
        <time>2026-08-29T11:58:38.000Z</time>
      </trkpt>
      <trkpt lat="45.07611" lon="5.7252">
        <ele>294.327751</ele>
        <time>2026-08-29T11:58:39.000Z</time>
      </trkpt>
      <trkpt lat="45.07616" lon="5.72523">
        <ele>294.286069</ele>
        <time>2026-08-29T11:58:40.000Z</time>
      </trkpt>
      <trkpt lat="45.07621" lon="5.72525">
        <ele>294.243833</ele>
        <time>2026-08-29T11:58:41.000Z</time>
      </trkpt>
      <trkpt lat="45.07627" lon="5.72527">
        <ele>294.200874</ele>
        <time>2026-08-29T11:58:42.000Z</time>
      </trkpt>
      <trkpt lat="45.07632" lon="5.7253">
        <ele>294.158639</ele>
        <time>2026-08-29T11:58:43.000Z</time>
      </trkpt>
      <trkpt lat="45.07637" lon="5.72532">
        <ele>294.117125</ele>
        <time>2026-08-29T11:58:44.000Z</time>
      </trkpt>
      <trkpt lat="45.07642" lon="5.72535">
        <ele>294.074003</ele>
        <time>2026-08-29T11:58:45.000Z</time>
      </trkpt>
      <trkpt lat="45.07648" lon="5.72538">
        <ele>294.02964</ele>
        <time>2026-08-29T11:58:46.000Z</time>
      </trkpt>
      <trkpt lat="45.07653" lon="5.7254">
        <ele>293.985804</ele>
        <time>2026-08-29T11:58:47.000Z</time>
      </trkpt>
      <trkpt lat="45.07659" lon="5.72543">
        <ele>293.942867</ele>
        <time>2026-08-29T11:58:48.000Z</time>
      </trkpt>
      <trkpt lat="45.07664" lon="5.72546">
        <ele>293.899929</ele>
        <time>2026-08-29T11:58:49.000Z</time>
      </trkpt>
      <trkpt lat="45.07669" lon="5.72549">
        <ele>293.855745</ele>
        <time>2026-08-29T11:58:50.000Z</time>
      </trkpt>
      <trkpt lat="45.07675" lon="5.72551">
        <ele>293.810453</ele>
        <time>2026-08-29T11:58:51.000Z</time>
      </trkpt>
      <trkpt lat="45.07681" lon="5.72554">
        <ele>293.766769</ele>
        <time>2026-08-29T11:58:52.000Z</time>
      </trkpt>
      <trkpt lat="45.07686" lon="5.72556">
        <ele>293.722201</ele>
        <time>2026-08-29T11:58:53.000Z</time>
      </trkpt>
      <trkpt lat="45.07692" lon="5.72559">
        <ele>293.677791</ele>
        <time>2026-08-29T11:58:54.000Z</time>
      </trkpt>
      <trkpt lat="45.07697" lon="5.72561">
        <ele>293.634668</ele>
        <time>2026-08-29T11:58:55.000Z</time>
      </trkpt>
      <trkpt lat="45.07703" lon="5.72564">
        <ele>293.591546</ele>
        <time>2026-08-29T11:58:56.000Z</time>
      </trkpt>
      <trkpt lat="45.07708" lon="5.72566">
        <ele>293.545527</ele>
        <time>2026-08-29T11:58:57.000Z</time>
      </trkpt>
      <trkpt lat="45.07714" lon="5.72568">
        <ele>293.508134</ele>
        <time>2026-08-29T11:58:58.000Z</time>
      </trkpt>
      <trkpt lat="45.0772" lon="5.72571">
        <ele>293.471175</ele>
        <time>2026-08-29T11:58:59.000Z</time>
      </trkpt>
      <trkpt lat="45.07726" lon="5.72574">
        <ele>293.435757</ele>
        <time>2026-08-29T11:59:00.000Z</time>
      </trkpt>
      <trkpt lat="45.07731" lon="5.72576">
        <ele>293.40046</ele>
        <time>2026-08-29T11:59:01.000Z</time>
      </trkpt>
      <trkpt lat="45.07737" lon="5.72579">
        <ele>293.365222</ele>
        <time>2026-08-29T11:59:02.000Z</time>
      </trkpt>
      <trkpt lat="45.07742" lon="5.72581">
        <ele>293.329984</ele>
        <time>2026-08-29T11:59:03.000Z</time>
      </trkpt>
      <trkpt lat="45.07748" lon="5.72584">
        <ele>293.295145</ele>
        <time>2026-08-29T11:59:04.000Z</time>
      </trkpt>
      <trkpt lat="45.07753" lon="5.72586">
        <ele>293.260306</ele>
        <time>2026-08-29T11:59:05.000Z</time>
      </trkpt>
      <trkpt lat="45.07759" lon="5.72588">
        <ele>293.224428</ele>
        <time>2026-08-29T11:59:06.000Z</time>
      </trkpt>
      <trkpt lat="45.07765" lon="5.72591">
        <ele>293.188306</ele>
        <time>2026-08-29T11:59:07.000Z</time>
      </trkpt>
      <trkpt lat="45.0777" lon="5.72593">
        <ele>293.152631</ele>
        <time>2026-08-29T11:59:08.000Z</time>
      </trkpt>
      <trkpt lat="45.07776" lon="5.72596">
        <ele>293.117393</ele>
        <time>2026-08-29T11:59:09.000Z</time>
      </trkpt>
      <trkpt lat="45.07781" lon="5.72599">
        <ele>293.083001</ele>
        <time>2026-08-29T11:59:10.000Z</time>
      </trkpt>
      <trkpt lat="45.07787" lon="5.72601">
        <ele>293.047457</ele>
        <time>2026-08-29T11:59:11.000Z</time>
      </trkpt>
      <trkpt lat="45.07792" lon="5.72604">
        <ele>293.011913</ele>
        <time>2026-08-29T11:59:12.000Z</time>
      </trkpt>
      <trkpt lat="45.07798" lon="5.72606">
        <ele>292.975791</ele>
        <time>2026-08-29T11:59:13.000Z</time>
      </trkpt>
      <trkpt lat="45.07804" lon="5.72609">
        <ele>292.94069</ele>
        <time>2026-08-29T11:59:14.000Z</time>
      </trkpt>
      <trkpt lat="45.07809" lon="5.72611">
        <ele>292.905723</ele>
        <time>2026-08-29T11:59:15.000Z</time>
      </trkpt>
      <trkpt lat="45.07815" lon="5.72614">
        <ele>292.870048</ele>
        <time>2026-08-29T11:59:16.000Z</time>
      </trkpt>
      <trkpt lat="45.0782" lon="5.72616">
        <ele>292.83405</ele>
        <time>2026-08-29T11:59:17.000Z</time>
      </trkpt>
      <trkpt lat="45.07826" lon="5.72619">
        <ele>292.799211</ele>
        <time>2026-08-29T11:59:18.000Z</time>
      </trkpt>
      <trkpt lat="45.07831" lon="5.72621">
        <ele>292.765076</ele>
        <time>2026-08-29T11:59:19.000Z</time>
      </trkpt>
      <trkpt lat="45.07837" lon="5.72623">
        <ele>292.729896</ele>
        <time>2026-08-29T11:59:20.000Z</time>
      </trkpt>
      <trkpt lat="45.07842" lon="5.72626">
        <ele>292.694795</ele>
        <time>2026-08-29T11:59:21.000Z</time>
      </trkpt>
      <trkpt lat="45.07848" lon="5.72628">
        <ele>292.661413</ele>
        <time>2026-08-29T11:59:22.000Z</time>
      </trkpt>
      <trkpt lat="45.07853" lon="5.72631">
        <ele>292.627021</ele>
        <time>2026-08-29T11:59:23.000Z</time>
      </trkpt>
      <trkpt lat="45.07859" lon="5.72633">
        <ele>292.591477</ele>
        <time>2026-08-29T11:59:24.000Z</time>
      </trkpt>
      <trkpt lat="45.07864" lon="5.72636">
        <ele>292.55688</ele>
        <time>2026-08-29T11:59:25.000Z</time>
      </trkpt>
      <trkpt lat="45.0787" lon="5.72638">
        <ele>292.520758</ele>
        <time>2026-08-29T11:59:26.000Z</time>
      </trkpt>
      <trkpt lat="45.07876" lon="5.72641">
        <ele>292.483091</ele>
        <time>2026-08-29T11:59:27.000Z</time>
      </trkpt>
      <trkpt lat="45.07882" lon="5.72644">
        <ele>292.443548</ele>
        <time>2026-08-29T11:59:28.000Z</time>
      </trkpt>
      <trkpt lat="45.07888" lon="5.72646">
        <ele>292.398512</ele>
        <time>2026-08-29T11:59:29.000Z</time>
      </trkpt>
      <trkpt lat="45.07894" lon="5.72649">
        <ele>292.35279</ele>
        <time>2026-08-29T11:59:30.000Z</time>
      </trkpt>
      <trkpt lat="45.079" lon="5.72651">
        <ele>292.306918</ele>
        <time>2026-08-29T11:59:31.000Z</time>
      </trkpt>
      <trkpt lat="45.07906" lon="5.72654">
        <ele>292.260893</ele>
        <time>2026-08-29T11:59:32.000Z</time>
      </trkpt>
      <trkpt lat="45.07912" lon="5.72657">
        <ele>292.214029</ele>
        <time>2026-08-29T11:59:33.000Z</time>
      </trkpt>
      <trkpt lat="45.07918" lon="5.7266">
        <ele>292.168842</ele>
        <time>2026-08-29T11:59:34.000Z</time>
      </trkpt>
      <trkpt lat="45.07924" lon="5.72662">
        <ele>292.122573</ele>
        <time>2026-08-29T11:59:35.000Z</time>
      </trkpt>
      <trkpt lat="45.0793" lon="5.72665">
        <ele>292.079058</ele>
        <time>2026-08-29T11:59:36.000Z</time>
      </trkpt>
      <trkpt lat="45.07936" lon="5.72667">
        <ele>292.036077</ele>
        <time>2026-08-29T11:59:37.000Z</time>
      </trkpt>
      <trkpt lat="45.07942" lon="5.7267">
        <ele>291.992412</ele>
        <time>2026-08-29T11:59:38.000Z</time>
      </trkpt>
      <trkpt lat="45.07947" lon="5.72672">
        <ele>291.949872</ele>
        <time>2026-08-29T11:59:39.000Z</time>
      </trkpt>
      <trkpt lat="45.07953" lon="5.72675">
        <ele>291.909542</ele>
        <time>2026-08-29T11:59:40.000Z</time>
      </trkpt>
      <trkpt lat="45.07958" lon="5.72677">
        <ele>291.868234</ele>
        <time>2026-08-29T11:59:41.000Z</time>
      </trkpt>
      <trkpt lat="45.07964" lon="5.7268">
        <ele>291.824931</ele>
        <time>2026-08-29T11:59:42.000Z</time>
      </trkpt>
      <trkpt lat="45.0797" lon="5.72682">
        <ele>291.782632</ele>
        <time>2026-08-29T11:59:43.000Z</time>
      </trkpt>
      <trkpt lat="45.07975" lon="5.72685">
        <ele>291.739804</ele>
        <time>2026-08-29T11:59:44.000Z</time>
      </trkpt>
      <trkpt lat="45.07981" lon="5.72687">
        <ele>291.694768</ele>
        <time>2026-08-29T11:59:45.000Z</time>
      </trkpt>
      <trkpt lat="45.07987" lon="5.7269">
        <ele>291.650709</ele>
        <time>2026-08-29T11:59:46.000Z</time>
      </trkpt>
      <trkpt lat="45.07993" lon="5.72692">
        <ele>291.607339</ele>
        <time>2026-08-29T11:59:47.000Z</time>
      </trkpt>
      <trkpt lat="45.07999" lon="5.72695">
        <ele>291.563969</ele>
        <time>2026-08-29T11:59:48.000Z</time>
      </trkpt>
      <trkpt lat="45.08005" lon="5.72697">
        <ele>291.519987</ele>
        <time>2026-08-29T11:59:49.000Z</time>
      </trkpt>
      <trkpt lat="45.0801" lon="5.727">
        <ele>291.477014</ele>
        <time>2026-08-29T11:59:50.000Z</time>
      </trkpt>
      <trkpt lat="45.08016" lon="5.72703">
        <ele>291.433349</ele>
        <time>2026-08-29T11:59:51.000Z</time>
      </trkpt>
      <trkpt lat="45.08022" lon="5.72705">
        <ele>291.389685</ele>
        <time>2026-08-29T11:59:52.000Z</time>
      </trkpt>
      <trkpt lat="45.08028" lon="5.72707">
        <ele>291.346021</ele>
        <time>2026-08-29T11:59:53.000Z</time>
      </trkpt>
      <trkpt lat="45.08033" lon="5.72709">
        <ele>291.30569</ele>
        <time>2026-08-29T11:59:54.000Z</time>
      </trkpt>
      <trkpt lat="45.08038" lon="5.72712">
        <ele>291.265753</ele>
        <time>2026-08-29T11:59:55.000Z</time>
      </trkpt>
      <trkpt lat="45.08044" lon="5.72715">
        <ele>291.22465</ele>
        <time>2026-08-29T11:59:56.000Z</time>
      </trkpt>
      <trkpt lat="45.0805" lon="5.72717">
        <ele>291.180668</ele>
        <time>2026-08-29T11:59:57.000Z</time>
      </trkpt>
      <trkpt lat="45.08055" lon="5.7272">
        <ele>291.144998</ele>
        <time>2026-08-29T11:59:58.000Z</time>
      </trkpt>
      <trkpt lat="45.08061" lon="5.72722">
        <ele>291.115002</ele>
        <time>2026-08-29T11:59:59.000Z</time>
      </trkpt>
      <trkpt lat="45.08067" lon="5.72725">
        <ele>291.086104</ele>
        <time>2026-08-29T12:00:00.000Z</time>
      </trkpt>
      <trkpt lat="45.08073" lon="5.72728">
        <ele>291.056642</ele>
        <time>2026-08-29T12:00:01.000Z</time>
      </trkpt>
      <trkpt lat="45.08079" lon="5.7273">
        <ele>291.026824</ele>
        <time>2026-08-29T12:00:02.000Z</time>
      </trkpt>
      <trkpt lat="45.08085" lon="5.72733">
        <ele>290.998028</ele>
        <time>2026-08-29T12:00:03.000Z</time>
      </trkpt>
      <trkpt lat="45.0809" lon="5.72735">
        <ele>290.968869</ele>
        <time>2026-08-29T12:00:04.000Z</time>
      </trkpt>
      <trkpt lat="45.08096" lon="5.72738">
        <ele>290.940635</ele>
        <time>2026-08-29T12:00:05.000Z</time>
      </trkpt>
      <trkpt lat="45.08102" lon="5.7274">
        <ele>290.911379</ele>
        <time>2026-08-29T12:00:06.000Z</time>
      </trkpt>
      <trkpt lat="45.08108" lon="5.72743">
        <ele>290.882122</ele>
        <time>2026-08-29T12:00:07.000Z</time>
      </trkpt>
      <trkpt lat="45.08113" lon="5.72745">
        <ele>290.853575</ele>
        <time>2026-08-29T12:00:08.000Z</time>
      </trkpt>
      <trkpt lat="45.08119" lon="5.72748">
        <ele>290.825136</ele>
        <time>2026-08-29T12:00:09.000Z</time>
      </trkpt>
      <trkpt lat="45.08125" lon="5.7275">
        <ele>290.79588</ele>
        <time>2026-08-29T12:00:10.000Z</time>
      </trkpt>
      <trkpt lat="45.0813" lon="5.72753">
        <ele>290.766522</ele>
        <time>2026-08-29T12:00:11.000Z</time>
      </trkpt>
      <trkpt lat="45.08136" lon="5.72756">
        <ele>290.737408</ele>
        <time>2026-08-29T12:00:12.000Z</time>
      </trkpt>
      <trkpt lat="45.08142" lon="5.72758">
        <ele>290.708404</ele>
        <time>2026-08-29T12:00:13.000Z</time>
      </trkpt>
      <trkpt lat="45.08148" lon="5.72761">
        <ele>290.679047</ele>
        <time>2026-08-29T12:00:14.000Z</time>
      </trkpt>
      <trkpt lat="45.08153" lon="5.72764">
        <ele>290.64979</ele>
        <time>2026-08-29T12:00:15.000Z</time>
      </trkpt>
      <trkpt lat="45.08159" lon="5.72766">
        <ele>290.620072</ele>
        <time>2026-08-29T12:00:16.000Z</time>
      </trkpt>
      <trkpt lat="45.08165" lon="5.72769">
        <ele>290.591277</ele>
        <time>2026-08-29T12:00:17.000Z</time>
      </trkpt>
      <trkpt lat="45.08171" lon="5.72771">
        <ele>290.563139</ele>
        <time>2026-08-29T12:00:18.000Z</time>
      </trkpt>
      <trkpt lat="45.08176" lon="5.72773">
        <ele>290.534538</ele>
        <time>2026-08-29T12:00:19.000Z</time>
      </trkpt>
      <trkpt lat="45.08182" lon="5.72776">
        <ele>290.506099</ele>
        <time>2026-08-29T12:00:20.000Z</time>
      </trkpt>
      <trkpt lat="45.08187" lon="5.72779">
        <ele>290.477896</ele>
        <time>2026-08-29T12:00:21.000Z</time>
      </trkpt>
      <trkpt lat="45.08193" lon="5.72781">
        <ele>290.448891</ele>
        <time>2026-08-29T12:00:22.000Z</time>
      </trkpt>
      <trkpt lat="45.08199" lon="5.72784">
        <ele>290.419732</ele>
        <time>2026-08-29T12:00:23.000Z</time>
      </trkpt>
      <trkpt lat="45.08205" lon="5.72786">
        <ele>290.390937</ele>
        <time>2026-08-29T12:00:24.000Z</time>
      </trkpt>
      <trkpt lat="45.08211" lon="5.72789">
        <ele>290.36085</ele>
        <time>2026-08-29T12:00:25.000Z</time>
      </trkpt>
      <trkpt lat="45.08216" lon="5.72791">
        <ele>290.331388</ele>
        <time>2026-08-29T12:00:26.000Z</time>
      </trkpt>
      <trkpt lat="45.08222" lon="5.72794">
        <ele>290.30273</ele>
        <time>2026-08-29T12:00:27.000Z</time>
      </trkpt>
      <trkpt lat="45.08228" lon="5.72797">
        <ele>290.315326</ele>
        <time>2026-08-29T12:00:28.000Z</time>
      </trkpt>
      <trkpt lat="45.08233" lon="5.72799">
        <ele>290.346556</ele>
        <time>2026-08-29T12:00:29.000Z</time>
      </trkpt>
      <trkpt lat="45.08239" lon="5.72802">
        <ele>290.376509</ele>
        <time>2026-08-29T12:00:30.000Z</time>
      </trkpt>
      <trkpt lat="45.08244" lon="5.72804">
        <ele>290.407346</ele>
        <time>2026-08-29T12:00:31.000Z</time>
      </trkpt>
      <trkpt lat="45.0825" lon="5.72807">
        <ele>290.438182</ele>
        <time>2026-08-29T12:00:32.000Z</time>
      </trkpt>
      <trkpt lat="45.08256" lon="5.72809">
        <ele>290.469631</ele>
        <time>2026-08-29T12:00:33.000Z</time>
      </trkpt>
      <trkpt lat="45.08261" lon="5.72812">
        <ele>290.501081</ele>
        <time>2026-08-29T12:00:34.000Z</time>
      </trkpt>
      <trkpt lat="45.08267" lon="5.72814">
        <ele>290.531305</ele>
        <time>2026-08-29T12:00:35.000Z</time>
      </trkpt>
      <trkpt lat="45.08272" lon="5.72816">
        <ele>290.561927</ele>
        <time>2026-08-29T12:00:36.000Z</time>
      </trkpt>
      <trkpt lat="45.08278" lon="5.72819">
        <ele>290.591336</ele>
        <time>2026-08-29T12:00:37.000Z</time>
      </trkpt>
      <trkpt lat="45.08283" lon="5.7282">
        <ele>290.620901</ele>
        <time>2026-08-29T12:00:38.000Z</time>
      </trkpt>
      <trkpt lat="45.08289" lon="5.72822">
        <ele>290.651832</ele>
        <time>2026-08-29T12:00:39.000Z</time>
      </trkpt>
      <trkpt lat="45.08295" lon="5.72825">
        <ele>290.682454</ele>
        <time>2026-08-29T12:00:40.000Z</time>
      </trkpt>
      <trkpt lat="45.083" lon="5.72827">
        <ele>290.711791</ele>
        <time>2026-08-29T12:00:41.000Z</time>
      </trkpt>
      <trkpt lat="45.08305" lon="5.7283">
        <ele>290.740878</ele>
        <time>2026-08-29T12:00:42.000Z</time>
      </trkpt>
      <trkpt lat="45.0831" lon="5.72833">
        <ele>290.770458</ele>
        <time>2026-08-29T12:00:43.000Z</time>
      </trkpt>
      <trkpt lat="45.08316" lon="5.72835">
        <ele>290.799796</ele>
        <time>2026-08-29T12:00:44.000Z</time>
      </trkpt>
      <trkpt lat="45.08321" lon="5.72838">
        <ele>290.827643</ele>
        <time>2026-08-29T12:00:45.000Z</time>
      </trkpt>
      <trkpt lat="45.08326" lon="5.7284">
        <ele>290.856648</ele>
        <time>2026-08-29T12:00:46.000Z</time>
      </trkpt>
      <trkpt lat="45.08331" lon="5.72842">
        <ele>290.883644</ele>
        <time>2026-08-29T12:00:47.000Z</time>
      </trkpt>
      <trkpt lat="45.08336" lon="5.72844">
        <ele>290.910503</ele>
        <time>2026-08-29T12:00:48.000Z</time>
      </trkpt>
      <trkpt lat="45.0834" lon="5.72847">
        <ele>290.936378</ele>
        <time>2026-08-29T12:00:49.000Z</time>
      </trkpt>
      <trkpt lat="45.08345" lon="5.72849">
        <ele>290.961877</ele>
        <time>2026-08-29T12:00:50.000Z</time>
      </trkpt>
      <trkpt lat="45.08349" lon="5.72852">
        <ele>290.984546</ele>
        <time>2026-08-29T12:00:51.000Z</time>
      </trkpt>
      <trkpt lat="45.08353" lon="5.72855">
        <ele>291.009132</ele>
        <time>2026-08-29T12:00:52.000Z</time>
      </trkpt>
      <trkpt lat="45.08357" lon="5.72859">
        <ele>291.033898</ele>
        <time>2026-08-29T12:00:53.000Z</time>
      </trkpt>
      <trkpt lat="45.08361" lon="5.72861">
        <ele>291.05891</ele>
        <time>2026-08-29T12:00:54.000Z</time>
      </trkpt>
      <trkpt lat="45.08365" lon="5.72864">
        <ele>291.083449</ele>
        <time>2026-08-29T12:00:55.000Z</time>
      </trkpt>
      <trkpt lat="45.0837" lon="5.72867">
        <ele>291.110374</ele>
        <time>2026-08-29T12:00:56.000Z</time>
      </trkpt>
      <trkpt lat="45.08375" lon="5.7287">
        <ele>291.138221</ele>
        <time>2026-08-29T12:00:57.000Z</time>
      </trkpt>
      <trkpt lat="45.0838" lon="5.72872">
        <ele>291.165717</ele>
        <time>2026-08-29T12:00:58.000Z</time>
      </trkpt>
      <trkpt lat="45.08385" lon="5.72874">
        <ele>291.192905</ele>
        <time>2026-08-29T12:00:59.000Z</time>
      </trkpt>
      <trkpt lat="45.0839" lon="5.72876">
        <ele>291.219686</ele>
        <time>2026-08-29T12:01:00.000Z</time>
      </trkpt>
      <trkpt lat="45.08395" lon="5.72878">
        <ele>291.237384</ele>
        <time>2026-08-29T12:01:01.000Z</time>
      </trkpt>
      <trkpt lat="45.084" lon="5.72879">
        <ele>291.23448</ele>
        <time>2026-08-29T12:01:02.000Z</time>
      </trkpt>
      <trkpt lat="45.08406" lon="5.72881">
        <ele>291.23147</ele>
        <time>2026-08-29T12:01:03.000Z</time>
      </trkpt>
      <trkpt lat="45.08411" lon="5.72883">
        <ele>291.228566</ele>
        <time>2026-08-29T12:01:04.000Z</time>
      </trkpt>
      <trkpt lat="45.08416" lon="5.72885">
        <ele>291.225704</ele>
        <time>2026-08-29T12:01:05.000Z</time>
      </trkpt>
      <trkpt lat="45.08421" lon="5.72887">
        <ele>291.222791</ele>
        <time>2026-08-29T12:01:06.000Z</time>
      </trkpt>
      <trkpt lat="45.08427" lon="5.72889">
        <ele>291.219867</ele>
        <time>2026-08-29T12:01:07.000Z</time>
      </trkpt>
      <trkpt lat="45.08432" lon="5.72891">
        <ele>291.216933</ele>
        <time>2026-08-29T12:01:08.000Z</time>
      </trkpt>
      <trkpt lat="45.08437" lon="5.72893">
        <ele>291.213937</ele>
        <time>2026-08-29T12:01:09.000Z</time>
      </trkpt>
      <trkpt lat="45.08442" lon="5.72895">
        <ele>291.210877</ele>
        <time>2026-08-29T12:01:10.000Z</time>
      </trkpt>
      <trkpt lat="45.08448" lon="5.72898">
        <ele>291.207846</ele>
        <time>2026-08-29T12:01:11.000Z</time>
      </trkpt>
      <trkpt lat="45.08453" lon="5.729">
        <ele>291.204787</ele>
        <time>2026-08-29T12:01:12.000Z</time>
      </trkpt>
      <trkpt lat="45.08458" lon="5.72902">
        <ele>291.201946</ele>
        <time>2026-08-29T12:01:13.000Z</time>
      </trkpt>
      <trkpt lat="45.08463" lon="5.72905">
        <ele>291.199064</ele>
        <time>2026-08-29T12:01:14.000Z</time>
      </trkpt>
      <trkpt lat="45.08468" lon="5.72907">
        <ele>291.196289</ele>
        <time>2026-08-29T12:01:15.000Z</time>
      </trkpt>
      <trkpt lat="45.08473" lon="5.7291">
        <ele>291.193358</ele>
        <time>2026-08-29T12:01:16.000Z</time>
      </trkpt>
      <trkpt lat="45.08478" lon="5.72913">
        <ele>291.19039</ele>
        <time>2026-08-29T12:01:17.000Z</time>
      </trkpt>
      <trkpt lat="45.08483" lon="5.72916">
        <ele>291.187458</ele>
        <time>2026-08-29T12:01:18.000Z</time>
      </trkpt>
      <trkpt lat="45.08488" lon="5.72919">
        <ele>291.184627</ele>
        <time>2026-08-29T12:01:19.000Z</time>
      </trkpt>
      <trkpt lat="45.08493" lon="5.72921">
        <ele>291.181659</ele>
        <time>2026-08-29T12:01:20.000Z</time>
      </trkpt>
      <trkpt lat="45.08498" lon="5.72924">
        <ele>291.178654</ele>
        <time>2026-08-29T12:01:21.000Z</time>
      </trkpt>
      <trkpt lat="45.08504" lon="5.72926">
        <ele>291.17548</ele>
        <time>2026-08-29T12:01:22.000Z</time>
      </trkpt>
      <trkpt lat="45.08509" lon="5.72929">
        <ele>291.172389</ele>
        <time>2026-08-29T12:01:23.000Z</time>
      </trkpt>
      <trkpt lat="45.08515" lon="5.72931">
        <ele>291.169455</ele>
        <time>2026-08-29T12:01:24.000Z</time>
      </trkpt>
      <trkpt lat="45.0852" lon="5.72933">
        <ele>291.166469</ele>
        <time>2026-08-29T12:01:25.000Z</time>
      </trkpt>
      <trkpt lat="45.08525" lon="5.72935">
        <ele>291.163398</ele>
        <time>2026-08-29T12:01:26.000Z</time>
      </trkpt>
      <trkpt lat="45.08531" lon="5.72937">
        <ele>291.160307</ele>
        <time>2026-08-29T12:01:27.000Z</time>
      </trkpt>
      <trkpt lat="45.08536" lon="5.72939">
        <ele>291.157235</ele>
        <time>2026-08-29T12:01:28.000Z</time>
      </trkpt>
      <trkpt lat="45.08542" lon="5.7294">
        <ele>291.15425</ele>
        <time>2026-08-29T12:01:29.000Z</time>
      </trkpt>
      <trkpt lat="45.08547" lon="5.72942">
        <ele>291.151218</ele>
        <time>2026-08-29T12:01:30.000Z</time>
      </trkpt>
      <trkpt lat="45.08553" lon="5.72943">
        <ele>291.148198</ele>
        <time>2026-08-29T12:01:31.000Z</time>
      </trkpt>
      <trkpt lat="45.08558" lon="5.72944">
        <ele>291.145099</ele>
        <time>2026-08-29T12:01:32.000Z</time>
      </trkpt>
      <trkpt lat="45.08564" lon="5.72946">
        <ele>291.142113</ele>
        <time>2026-08-29T12:01:33.000Z</time>
      </trkpt>
      <trkpt lat="45.08569" lon="5.72949">
        <ele>291.132791</ele>
        <time>2026-08-29T12:01:34.000Z</time>
      </trkpt>
      <trkpt lat="45.08574" lon="5.72951">
        <ele>291.118173</ele>
        <time>2026-08-29T12:01:35.000Z</time>
      </trkpt>
      <trkpt lat="45.08579" lon="5.72953">
        <ele>291.104575</ele>
        <time>2026-08-29T12:01:36.000Z</time>
      </trkpt>
      <trkpt lat="45.08584" lon="5.72956">
        <ele>291.090346</ele>
        <time>2026-08-29T12:01:37.000Z</time>
      </trkpt>
      <trkpt lat="45.08589" lon="5.72958">
        <ele>291.07567</ele>
        <time>2026-08-29T12:01:38.000Z</time>
      </trkpt>
      <trkpt lat="45.08594" lon="5.7296">
        <ele>291.060849</ele>
        <time>2026-08-29T12:01:39.000Z</time>
      </trkpt>
      <trkpt lat="45.086" lon="5.72963">
        <ele>291.045917</ele>
        <time>2026-08-29T12:01:40.000Z</time>
      </trkpt>
      <trkpt lat="45.08605" lon="5.72965">
        <ele>291.031181</ele>
        <time>2026-08-29T12:01:41.000Z</time>
      </trkpt>
      <trkpt lat="45.0861" lon="5.72968">
        <ele>291.01676</ele>
        <time>2026-08-29T12:01:42.000Z</time>
      </trkpt>
      <trkpt lat="45.08615" lon="5.7297">
        <ele>291.002084</ele>
        <time>2026-08-29T12:01:43.000Z</time>
      </trkpt>
      <trkpt lat="45.0862" lon="5.72973">
        <ele>290.987855</ele>
        <time>2026-08-29T12:01:44.000Z</time>
      </trkpt>
      <trkpt lat="45.08625" lon="5.72975">
        <ele>290.973746</ele>
        <time>2026-08-29T12:01:45.000Z</time>
      </trkpt>
      <trkpt lat="45.0863" lon="5.72978">
        <ele>290.959589</ele>
        <time>2026-08-29T12:01:46.000Z</time>
      </trkpt>
      <trkpt lat="45.08635" lon="5.72982">
        <ele>290.945676</ele>
        <time>2026-08-29T12:01:47.000Z</time>
      </trkpt>
      <trkpt lat="45.08639" lon="5.72985">
        <ele>290.931597</ele>
        <time>2026-08-29T12:01:48.000Z</time>
      </trkpt>
      <trkpt lat="45.08644" lon="5.72988">
        <ele>290.91752</ele>
        <time>2026-08-29T12:01:49.000Z</time>
      </trkpt>
      <trkpt lat="45.08649" lon="5.72991">
        <ele>290.903202</ele>
        <time>2026-08-29T12:01:50.000Z</time>
      </trkpt>
      <trkpt lat="45.08653" lon="5.72994">
        <ele>290.889365</ele>
        <time>2026-08-29T12:01:51.000Z</time>
      </trkpt>
      <trkpt lat="45.08658" lon="5.72997">
        <ele>290.875608</ele>
        <time>2026-08-29T12:01:52.000Z</time>
      </trkpt>
      <trkpt lat="45.08663" lon="5.73">
        <ele>290.86118</ele>
        <time>2026-08-29T12:01:53.000Z</time>
      </trkpt>
      <trkpt lat="45.08668" lon="5.73003">
        <ele>290.846382</ele>
        <time>2026-08-29T12:01:54.000Z</time>
      </trkpt>
      <trkpt lat="45.08673" lon="5.73005">
        <ele>290.8319</ele>
        <time>2026-08-29T12:01:55.000Z</time>
      </trkpt>
      <trkpt lat="45.08679" lon="5.73008">
        <ele>290.817102</ele>
        <time>2026-08-29T12:01:56.000Z</time>
      </trkpt>
      <trkpt lat="45.08684" lon="5.7301">
        <ele>290.802642</ele>
        <time>2026-08-29T12:01:57.000Z</time>
      </trkpt>
      <trkpt lat="45.08689" lon="5.73012">
        <ele>290.789105</ele>
        <time>2026-08-29T12:01:58.000Z</time>
      </trkpt>
      <trkpt lat="45.08694" lon="5.73012">
        <ele>290.775846</ele>
        <time>2026-08-29T12:01:59.000Z</time>
      </trkpt>
      <trkpt lat="45.08699" lon="5.73013">
        <ele>290.762647</ele>
        <time>2026-08-29T12:02:00.000Z</time>
      </trkpt>
      <trkpt lat="45.08703" lon="5.73014">
        <ele>290.749654</ele>
        <time>2026-08-29T12:02:01.000Z</time>
      </trkpt>
      <trkpt lat="45.08708" lon="5.73015">
        <ele>290.736341</ele>
        <time>2026-08-29T12:02:02.000Z</time>
      </trkpt>
      <trkpt lat="45.08713" lon="5.73016">
        <ele>290.723028</ele>
        <time>2026-08-29T12:02:03.000Z</time>
      </trkpt>
      <trkpt lat="45.08718" lon="5.73018">
        <ele>290.710271</ele>
        <time>2026-08-29T12:02:04.000Z</time>
      </trkpt>
      <trkpt lat="45.08722" lon="5.7302">
        <ele>290.696988</ele>
        <time>2026-08-29T12:02:05.000Z</time>
      </trkpt>
      <trkpt lat="45.08727" lon="5.73023">
        <ele>290.683377</ele>
        <time>2026-08-29T12:02:06.000Z</time>
      </trkpt>
      <trkpt lat="45.08732" lon="5.73026">
        <ele>290.669215</ele>
        <time>2026-08-29T12:02:07.000Z</time>
      </trkpt>
      <trkpt lat="45.08737" lon="5.7303">
        <ele>290.653934</ele>
        <time>2026-08-29T12:02:08.000Z</time>
      </trkpt>
      <trkpt lat="45.08741" lon="5.73034">
        <ele>290.636982</ele>
        <time>2026-08-29T12:02:09.000Z</time>
      </trkpt>
      <trkpt lat="45.08746" lon="5.73038">
        <ele>290.620148</ele>
        <time>2026-08-29T12:02:10.000Z</time>
      </trkpt>
      <trkpt lat="45.0875" lon="5.73042">
        <ele>290.603608</ele>
        <time>2026-08-29T12:02:11.000Z</time>
      </trkpt>
      <trkpt lat="45.08754" lon="5.73046">
        <ele>290.586656</ele>
        <time>2026-08-29T12:02:12.000Z</time>
      </trkpt>
      <trkpt lat="45.08759" lon="5.7305">
        <ele>290.569598</ele>
        <time>2026-08-29T12:02:13.000Z</time>
      </trkpt>
      <trkpt lat="45.08763" lon="5.73055">
        <ele>290.552541</ele>
        <time>2026-08-29T12:02:14.000Z</time>
      </trkpt>
      <trkpt lat="45.08767" lon="5.73059">
        <ele>290.535745</ele>
        <time>2026-08-29T12:02:15.000Z</time>
      </trkpt>
      <trkpt lat="45.08772" lon="5.73063">
        <ele>290.519205</ele>
        <time>2026-08-29T12:02:16.000Z</time>
      </trkpt>
      <trkpt lat="45.08776" lon="5.73067">
        <ele>290.503055</ele>
        <time>2026-08-29T12:02:17.000Z</time>
      </trkpt>
      <trkpt lat="45.0878" lon="5.73071">
        <ele>290.487041</ele>
        <time>2026-08-29T12:02:18.000Z</time>
      </trkpt>
      <trkpt lat="45.08784" lon="5.73075">
        <ele>290.470505</ele>
        <time>2026-08-29T12:02:19.000Z</time>
      </trkpt>
      <trkpt lat="45.08788" lon="5.7308">
        <ele>290.454099</ele>
        <time>2026-08-29T12:02:20.000Z</time>
      </trkpt>
      <trkpt lat="45.08793" lon="5.73084">
        <ele>290.437807</ele>
        <time>2026-08-29T12:02:21.000Z</time>
      </trkpt>
      <trkpt lat="45.08797" lon="5.73087">
        <ele>290.421316</ele>
        <time>2026-08-29T12:02:22.000Z</time>
      </trkpt>
      <trkpt lat="45.08802" lon="5.73091">
        <ele>290.405042</ele>
        <time>2026-08-29T12:02:23.000Z</time>
      </trkpt>
      <trkpt lat="45.08806" lon="5.73094">
        <ele>290.389767</ele>
        <time>2026-08-29T12:02:24.000Z</time>
      </trkpt>
      <trkpt lat="45.0881" lon="5.73097">
        <ele>290.375324</ele>
        <time>2026-08-29T12:02:25.000Z</time>
      </trkpt>
      <trkpt lat="45.08814" lon="5.731">
        <ele>290.361087</ele>
        <time>2026-08-29T12:02:26.000Z</time>
      </trkpt>
      <trkpt lat="45.08817" lon="5.73103">
        <ele>290.348089</ele>
        <time>2026-08-29T12:02:27.000Z</time>
      </trkpt>
      <trkpt lat="45.08821" lon="5.73105">
        <ele>290.335478</ele>
        <time>2026-08-29T12:02:28.000Z</time>
      </trkpt>
      <trkpt lat="45.08824" lon="5.73108">
        <ele>290.323498</ele>
        <time>2026-08-29T12:02:29.000Z</time>
      </trkpt>
      <trkpt lat="45.08827" lon="5.73111">
        <ele>290.311515</ele>
        <time>2026-08-29T12:02:30.000Z</time>
      </trkpt>
      <trkpt lat="45.0883" lon="5.73115">
        <ele>290.299683</ele>
        <time>2026-08-29T12:02:31.000Z</time>
      </trkpt>
      <trkpt lat="45.08832" lon="5.73119">
        <ele>290.287901</ele>
        <time>2026-08-29T12:02:32.000Z</time>
      </trkpt>
      <trkpt lat="45.08834" lon="5.73124">
        <ele>290.275749</ele>
        <time>2026-08-29T12:02:33.000Z</time>
      </trkpt>
      <trkpt lat="45.08837" lon="5.73128">
        <ele>290.263282</ele>
        <time>2026-08-29T12:02:34.000Z</time>
      </trkpt>
      <trkpt lat="45.0884" lon="5.7313">
        <ele>290.25128</ele>
        <time>2026-08-29T12:02:35.000Z</time>
      </trkpt>
      <trkpt lat="45.08844" lon="5.73132">
        <ele>290.237965</ele>
        <time>2026-08-29T12:02:36.000Z</time>
      </trkpt>
      <trkpt lat="45.08848" lon="5.7313">
        <ele>290.225542</ele>
        <time>2026-08-29T12:02:37.000Z</time>
      </trkpt>
      <trkpt lat="45.08851" lon="5.73128">
        <ele>290.214343</ele>
        <time>2026-08-29T12:02:38.000Z</time>
      </trkpt>
      <trkpt lat="45.08853" lon="5.73123">
        <ele>290.20238</ele>
        <time>2026-08-29T12:02:39.000Z</time>
      </trkpt>
      <trkpt lat="45.08854" lon="5.73118">
        <ele>290.190472</ele>
        <time>2026-08-29T12:02:40.000Z</time>
      </trkpt>
      <trkpt lat="45.08855" lon="5.73113">
        <ele>290.178688</ele>
        <time>2026-08-29T12:02:41.000Z</time>
      </trkpt>
      <trkpt lat="45.08855" lon="5.73108">
        <ele>290.166731</ele>
        <time>2026-08-29T12:02:42.000Z</time>
      </trkpt>
      <trkpt lat="45.08856" lon="5.73103">
        <ele>290.155083</ele>
        <time>2026-08-29T12:02:43.000Z</time>
      </trkpt>
      <trkpt lat="45.08857" lon="5.73098">
        <ele>290.143921</ele>
        <time>2026-08-29T12:02:44.000Z</time>
      </trkpt>
      <trkpt lat="45.08858" lon="5.73094">
        <ele>290.133368</ele>
        <time>2026-08-29T12:02:45.000Z</time>
      </trkpt>
      <trkpt lat="45.0886" lon="5.73091">
        <ele>290.124458</ele>
        <time>2026-08-29T12:02:46.000Z</time>
      </trkpt>
      <trkpt lat="45.08861" lon="5.73088">
        <ele>290.118883</ele>
        <time>2026-08-29T12:02:47.000Z</time>
      </trkpt>
      <trkpt lat="45.08861" lon="5.73088">
        <ele>290.116855</ele>
        <time>2026-08-29T12:02:48.000Z</time>
      </trkpt>
      <trkpt lat="45.08864" lon="5.73079">
        <ele>290.095002</ele>
        <time>2026-08-29T12:04:53.000Z</time>
      </trkpt>
      <trkpt lat="45.08866" lon="5.73076">
        <ele>290.085778</ele>
        <time>2026-08-29T12:04:54.000Z</time>
      </trkpt>
      <trkpt lat="45.08867" lon="5.73072">
        <ele>290.065474</ele>
        <time>2026-08-29T12:04:55.000Z</time>
      </trkpt>
      <trkpt lat="45.08869" lon="5.73069">
        <ele>290.040906</ele>
        <time>2026-08-29T12:04:56.000Z</time>
      </trkpt>
      <trkpt lat="45.08871" lon="5.73065">
        <ele>290.012203</ele>
        <time>2026-08-29T12:04:57.000Z</time>
      </trkpt>
      <trkpt lat="45.08873" lon="5.7306">
        <ele>289.980404</ele>
        <time>2026-08-29T12:04:58.000Z</time>
      </trkpt>
      <trkpt lat="45.08875" lon="5.73054">
        <ele>289.947421</ele>
        <time>2026-08-29T12:04:59.000Z</time>
      </trkpt>
      <trkpt lat="45.08876" lon="5.73049">
        <ele>289.912363</ele>
        <time>2026-08-29T12:05:00.000Z</time>
      </trkpt>
      <trkpt lat="45.08878" lon="5.73043">
        <ele>289.876136</ele>
        <time>2026-08-29T12:05:01.000Z</time>
      </trkpt>
      <trkpt lat="45.0888" lon="5.73037">
        <ele>289.8387</ele>
        <time>2026-08-29T12:05:02.000Z</time>
      </trkpt>
      <trkpt lat="45.08883" lon="5.73031">
        <ele>289.799519</ele>
        <time>2026-08-29T12:05:03.000Z</time>
      </trkpt>
      <trkpt lat="45.08885" lon="5.73025">
        <ele>289.760046</ele>
        <time>2026-08-29T12:05:04.000Z</time>
      </trkpt>
      <trkpt lat="45.08887" lon="5.73018">
        <ele>289.718694</ele>
        <time>2026-08-29T12:05:05.000Z</time>
      </trkpt>
      <trkpt lat="45.08889" lon="5.73011">
        <ele>289.676127</ele>
        <time>2026-08-29T12:05:06.000Z</time>
      </trkpt>
      <trkpt lat="45.08892" lon="5.73004">
        <ele>289.633053</ele>
        <time>2026-08-29T12:05:07.000Z</time>
      </trkpt>
      <trkpt lat="45.08894" lon="5.72997">
        <ele>289.588101</ele>
        <time>2026-08-29T12:05:08.000Z</time>
      </trkpt>
      <trkpt lat="45.08897" lon="5.7299">
        <ele>289.54122</ele>
        <time>2026-08-29T12:05:09.000Z</time>
      </trkpt>
      <trkpt lat="45.089" lon="5.72983">
        <ele>289.494824</ele>
        <time>2026-08-29T12:05:10.000Z</time>
      </trkpt>
      <trkpt lat="45.08903" lon="5.72976">
        <ele>289.449133</ele>
        <time>2026-08-29T12:05:11.000Z</time>
      </trkpt>
      <trkpt lat="45.08906" lon="5.72969">
        <ele>289.404319</ele>
        <time>2026-08-29T12:05:12.000Z</time>
      </trkpt>
      <trkpt lat="45.08908" lon="5.72962">
        <ele>289.358128</ele>
        <time>2026-08-29T12:05:13.000Z</time>
      </trkpt>
      <trkpt lat="45.08911" lon="5.72955">
        <ele>289.311555</ele>
        <time>2026-08-29T12:05:14.000Z</time>
      </trkpt>
      <trkpt lat="45.08914" lon="5.72947">
        <ele>289.264361</ele>
        <time>2026-08-29T12:05:15.000Z</time>
      </trkpt>
      <trkpt lat="45.08917" lon="5.7294">
        <ele>289.216993</ele>
        <time>2026-08-29T12:05:16.000Z</time>
      </trkpt>
      <trkpt lat="45.0892" lon="5.72933">
        <ele>289.167926</ele>
        <time>2026-08-29T12:05:17.000Z</time>
      </trkpt>
      <trkpt lat="45.08923" lon="5.72926">
        <ele>289.119174</ele>
        <time>2026-08-29T12:05:18.000Z</time>
      </trkpt>
      <trkpt lat="45.08926" lon="5.72918">
        <ele>289.070335</ele>
        <time>2026-08-29T12:05:19.000Z</time>
      </trkpt>
      <trkpt lat="45.08929" lon="5.72911">
        <ele>289.021988</ele>
        <time>2026-08-29T12:05:20.000Z</time>
      </trkpt>
      <trkpt lat="45.08932" lon="5.72903">
        <ele>288.972655</ele>
        <time>2026-08-29T12:05:21.000Z</time>
      </trkpt>
      <trkpt lat="45.08936" lon="5.72896">
        <ele>288.922434</ele>
        <time>2026-08-29T12:05:22.000Z</time>
      </trkpt>
      <trkpt lat="45.08939" lon="5.72888">
        <ele>288.872705</ele>
        <time>2026-08-29T12:05:23.000Z</time>
      </trkpt>
      <trkpt lat="45.08942" lon="5.7288">
        <ele>288.822876</ele>
        <time>2026-08-29T12:05:24.000Z</time>
      </trkpt>
      <trkpt lat="45.08945" lon="5.72872">
        <ele>288.771925</ele>
        <time>2026-08-29T12:05:25.000Z</time>
      </trkpt>
      <trkpt lat="45.08948" lon="5.72865">
        <ele>288.720949</ele>
        <time>2026-08-29T12:05:26.000Z</time>
      </trkpt>
      <trkpt lat="45.08951" lon="5.72857">
        <ele>288.671783</ele>
        <time>2026-08-29T12:05:27.000Z</time>
      </trkpt>
      <trkpt lat="45.08954" lon="5.72849">
        <ele>288.633547</ele>
        <time>2026-08-29T12:05:28.000Z</time>
      </trkpt>
      <trkpt lat="45.08958" lon="5.72842">
        <ele>288.615975</ele>
        <time>2026-08-29T12:05:29.000Z</time>
      </trkpt>
      <trkpt lat="45.08961" lon="5.72834">
        <ele>288.59843</ele>
        <time>2026-08-29T12:05:30.000Z</time>
      </trkpt>
      <trkpt lat="45.08964" lon="5.72826">
        <ele>288.581164</ele>
        <time>2026-08-29T12:05:31.000Z</time>
      </trkpt>
      <trkpt lat="45.08967" lon="5.72818">
        <ele>288.563452</ele>
        <time>2026-08-29T12:05:32.000Z</time>
      </trkpt>
      <trkpt lat="45.08971" lon="5.7281">
        <ele>288.54543</ele>
        <time>2026-08-29T12:05:33.000Z</time>
      </trkpt>
      <trkpt lat="45.08974" lon="5.72802">
        <ele>288.527383</ele>
        <time>2026-08-29T12:05:34.000Z</time>
      </trkpt>
      <trkpt lat="45.08977" lon="5.72794">
        <ele>288.509335</ele>
        <time>2026-08-29T12:05:35.000Z</time>
      </trkpt>
      <trkpt lat="45.08981" lon="5.72787">
        <ele>288.491479</ele>
        <time>2026-08-29T12:05:36.000Z</time>
      </trkpt>
      <trkpt lat="45.08984" lon="5.72779">
        <ele>288.47357</ele>
        <time>2026-08-29T12:05:37.000Z</time>
      </trkpt>
      <trkpt lat="45.08987" lon="5.72771">
        <ele>288.455753</ele>
        <time>2026-08-29T12:05:38.000Z</time>
      </trkpt>
      <trkpt lat="45.0899" lon="5.72763">
        <ele>288.438108</ele>
        <time>2026-08-29T12:05:39.000Z</time>
      </trkpt>
      <trkpt lat="45.08993" lon="5.72755">
        <ele>288.420503</ele>
        <time>2026-08-29T12:05:40.000Z</time>
      </trkpt>
      <trkpt lat="45.08996" lon="5.72747">
        <ele>288.402898</ele>
        <time>2026-08-29T12:05:41.000Z</time>
      </trkpt>
      <trkpt lat="45.08999" lon="5.72739">
        <ele>288.385597</ele>
        <time>2026-08-29T12:05:42.000Z</time>
      </trkpt>
      <trkpt lat="45.09002" lon="5.72731">
        <ele>288.367907</ele>
        <time>2026-08-29T12:05:43.000Z</time>
      </trkpt>
      <trkpt lat="45.09005" lon="5.72723">
        <ele>288.350132</ele>
        <time>2026-08-29T12:05:44.000Z</time>
      </trkpt>
      <trkpt lat="45.09008" lon="5.72715">
        <ele>288.332356</ele>
        <time>2026-08-29T12:05:45.000Z</time>
      </trkpt>
      <trkpt lat="45.09011" lon="5.72707">
        <ele>288.314581</ele>
        <time>2026-08-29T12:05:46.000Z</time>
      </trkpt>
      <trkpt lat="45.09014" lon="5.72699">
        <ele>288.297064</ele>
        <time>2026-08-29T12:05:47.000Z</time>
      </trkpt>
      <trkpt lat="45.09017" lon="5.72691">
        <ele>288.279591</ele>
        <time>2026-08-29T12:05:48.000Z</time>
      </trkpt>
      <trkpt lat="45.0902" lon="5.72683">
        <ele>288.262075</ele>
        <time>2026-08-29T12:05:49.000Z</time>
      </trkpt>
      <trkpt lat="45.09023" lon="5.72675">
        <ele>288.244258</ele>
        <time>2026-08-29T12:05:50.000Z</time>
      </trkpt>
      <trkpt lat="45.09026" lon="5.72667">
        <ele>288.226823</ele>
        <time>2026-08-29T12:05:51.000Z</time>
      </trkpt>
      <trkpt lat="45.09029" lon="5.72659">
        <ele>288.209179</ele>
        <time>2026-08-29T12:05:52.000Z</time>
      </trkpt>
      <trkpt lat="45.09033" lon="5.72651">
        <ele>288.191467</ele>
        <time>2026-08-29T12:05:53.000Z</time>
      </trkpt>
      <trkpt lat="45.09036" lon="5.72644">
        <ele>288.173922</ele>
        <time>2026-08-29T12:05:54.000Z</time>
      </trkpt>
      <trkpt lat="45.09039" lon="5.72636">
        <ele>288.156396</ele>
        <time>2026-08-29T12:05:55.000Z</time>
      </trkpt>
      <trkpt lat="45.09043" lon="5.72628">
        <ele>288.137131</ele>
        <time>2026-08-29T12:05:56.000Z</time>
      </trkpt>
      <trkpt lat="45.09046" lon="5.72621">
        <ele>288.114795</ele>
        <time>2026-08-29T12:05:57.000Z</time>
      </trkpt>
      <trkpt lat="45.0905" lon="5.72613">
        <ele>288.092659</ele>
        <time>2026-08-29T12:05:58.000Z</time>
      </trkpt>
      <trkpt lat="45.09054" lon="5.72606">
        <ele>288.070915</ele>
        <time>2026-08-29T12:05:59.000Z</time>
      </trkpt>
      <trkpt lat="45.09057" lon="5.72598">
        <ele>288.04878</ele>
        <time>2026-08-29T12:06:00.000Z</time>
      </trkpt>
      <trkpt lat="45.09061" lon="5.7259">
        <ele>288.026845</ele>
        <time>2026-08-29T12:06:01.000Z</time>
      </trkpt>
      <trkpt lat="45.09064" lon="5.72583">
        <ele>288.00471</ele>
        <time>2026-08-29T12:06:02.000Z</time>
      </trkpt>
      <trkpt lat="45.09068" lon="5.72575">
        <ele>287.982561</ele>
        <time>2026-08-29T12:06:03.000Z</time>
      </trkpt>
      <trkpt lat="45.09071" lon="5.72568">
        <ele>287.960626</ele>
        <time>2026-08-29T12:06:04.000Z</time>
      </trkpt>
      <trkpt lat="45.09075" lon="5.7256">
        <ele>287.939083</ele>
        <time>2026-08-29T12:06:05.000Z</time>
      </trkpt>
      <trkpt lat="45.09078" lon="5.72553">
        <ele>287.917741</ele>
        <time>2026-08-29T12:06:06.000Z</time>
      </trkpt>
      <trkpt lat="45.09082" lon="5.72545">
        <ele>287.896184</ele>
        <time>2026-08-29T12:06:07.000Z</time>
      </trkpt>
      <trkpt lat="45.09085" lon="5.72538">
        <ele>287.874782</ele>
        <time>2026-08-29T12:06:08.000Z</time>
      </trkpt>
      <trkpt lat="45.09088" lon="5.7253">
        <ele>287.853172</ele>
        <time>2026-08-29T12:06:09.000Z</time>
      </trkpt>
      <trkpt lat="45.09091" lon="5.72522">
        <ele>287.831734</ele>
        <time>2026-08-29T12:06:10.000Z</time>
      </trkpt>
      <trkpt lat="45.09095" lon="5.72515">
        <ele>287.809948</ele>
        <time>2026-08-29T12:06:11.000Z</time>
      </trkpt>
      <trkpt lat="45.09098" lon="5.72507">
        <ele>287.787982</ele>
        <time>2026-08-29T12:06:12.000Z</time>
      </trkpt>
      <trkpt lat="45.09101" lon="5.72499">
        <ele>287.766017</ele>
        <time>2026-08-29T12:06:13.000Z</time>
      </trkpt>
      <trkpt lat="45.09105" lon="5.72492">
        <ele>287.744082</ele>
        <time>2026-08-29T12:06:14.000Z</time>
      </trkpt>
      <trkpt lat="45.09109" lon="5.72484">
        <ele>287.721553</ele>
        <time>2026-08-29T12:06:15.000Z</time>
      </trkpt>
      <trkpt lat="45.09113" lon="5.72477">
        <ele>287.699219</ele>
        <time>2026-08-29T12:06:16.000Z</time>
      </trkpt>
      <trkpt lat="45.09117" lon="5.7247">
        <ele>287.67727</ele>
        <time>2026-08-29T12:06:17.000Z</time>
      </trkpt>
      <trkpt lat="45.09121" lon="5.72463">
        <ele>287.654681</ele>
        <time>2026-08-29T12:06:18.000Z</time>
      </trkpt>
      <trkpt lat="45.09125" lon="5.72456">
        <ele>287.632422</ele>
        <time>2026-08-29T12:06:19.000Z</time>
      </trkpt>
      <trkpt lat="45.0913" lon="5.72449">
        <ele>287.609934</ele>
        <time>2026-08-29T12:06:20.000Z</time>
      </trkpt>
      <trkpt lat="45.09134" lon="5.72442">
        <ele>287.587855</ele>
        <time>2026-08-29T12:06:21.000Z</time>
      </trkpt>
      <trkpt lat="45.09138" lon="5.72435">
        <ele>287.565595</ele>
        <time>2026-08-29T12:06:22.000Z</time>
      </trkpt>
      <trkpt lat="45.09143" lon="5.72428">
        <ele>287.543404</ele>
        <time>2026-08-29T12:06:23.000Z</time>
      </trkpt>
      <trkpt lat="45.09148" lon="5.72422">
        <ele>287.52673</ele>
        <time>2026-08-29T12:06:24.000Z</time>
      </trkpt>
      <trkpt lat="45.09153" lon="5.72416">
        <ele>287.521824</ele>
        <time>2026-08-29T12:06:25.000Z</time>
      </trkpt>
      <trkpt lat="45.09158" lon="5.7241">
        <ele>287.516929</ele>
        <time>2026-08-29T12:06:26.000Z</time>
      </trkpt>
      <trkpt lat="45.09163" lon="5.72404">
        <ele>287.512081</ele>
        <time>2026-08-29T12:06:27.000Z</time>
      </trkpt>
      <trkpt lat="45.09168" lon="5.72398">
        <ele>287.50713</ele>
        <time>2026-08-29T12:06:28.000Z</time>
      </trkpt>
      <trkpt lat="45.09174" lon="5.72392">
        <ele>287.50213</ele>
        <time>2026-08-29T12:06:29.000Z</time>
      </trkpt>
      <trkpt lat="45.09179" lon="5.72387">
        <ele>287.497223</ele>
        <time>2026-08-29T12:06:30.000Z</time>
      </trkpt>
      <trkpt lat="45.09185" lon="5.72381">
        <ele>287.492251</ele>
        <time>2026-08-29T12:06:31.000Z</time>
      </trkpt>
      <trkpt lat="45.0919" lon="5.72376">
        <ele>287.48728</ele>
        <time>2026-08-29T12:06:32.000Z</time>
      </trkpt>
      <trkpt lat="45.09196" lon="5.72371">
        <ele>287.482391</ele>
        <time>2026-08-29T12:06:33.000Z</time>
      </trkpt>
      <trkpt lat="45.09202" lon="5.72366">
        <ele>287.477599</ele>
        <time>2026-08-29T12:06:34.000Z</time>
      </trkpt>
      <trkpt lat="45.09207" lon="5.72361">
        <ele>287.472779</ele>
        <time>2026-08-29T12:06:35.000Z</time>
      </trkpt>
      <trkpt lat="45.09213" lon="5.72356">
        <ele>287.467953</ele>
        <time>2026-08-29T12:06:36.000Z</time>
      </trkpt>
      <trkpt lat="45.09218" lon="5.72351">
        <ele>287.463043</ele>
        <time>2026-08-29T12:06:37.000Z</time>
      </trkpt>
      <trkpt lat="45.09224" lon="5.72346">
        <ele>287.458243</ele>
        <time>2026-08-29T12:06:38.000Z</time>
      </trkpt>
      <trkpt lat="45.0923" lon="5.72341">
        <ele>287.453362</ele>
        <time>2026-08-29T12:06:39.000Z</time>
      </trkpt>
      <trkpt lat="45.09235" lon="5.72336">
        <ele>287.448542</ele>
        <time>2026-08-29T12:06:40.000Z</time>
      </trkpt>
      <trkpt lat="45.09241" lon="5.72331">
        <ele>287.443664</ele>
        <time>2026-08-29T12:06:41.000Z</time>
      </trkpt>
      <trkpt lat="45.09246" lon="5.72326">
        <ele>287.438786</ele>
        <time>2026-08-29T12:06:42.000Z</time>
      </trkpt>
      <trkpt lat="45.09252" lon="5.7232">
        <ele>287.433877</ele>
        <time>2026-08-29T12:06:43.000Z</time>
      </trkpt>
      <trkpt lat="45.09257" lon="5.72315">
        <ele>287.429057</ele>
        <time>2026-08-29T12:06:44.000Z</time>
      </trkpt>
      <trkpt lat="45.09263" lon="5.7231">
        <ele>287.424208</ele>
        <time>2026-08-29T12:06:45.000Z</time>
      </trkpt>
      <trkpt lat="45.09268" lon="5.72305">
        <ele>287.41927</ele>
        <time>2026-08-29T12:06:46.000Z</time>
      </trkpt>
      <trkpt lat="45.09274" lon="5.72299">
        <ele>287.414333</ele>
        <time>2026-08-29T12:06:47.000Z</time>
      </trkpt>
      <trkpt lat="45.09279" lon="5.72294">
        <ele>287.409455</ele>
        <time>2026-08-29T12:06:48.000Z</time>
      </trkpt>
      <trkpt lat="45.09285" lon="5.72289">
        <ele>287.404574</ele>
        <time>2026-08-29T12:06:49.000Z</time>
      </trkpt>
      <trkpt lat="45.0929" lon="5.72284">
        <ele>287.399774</ele>
        <time>2026-08-29T12:06:50.000Z</time>
      </trkpt>
      <trkpt lat="45.09296" lon="5.72279">
        <ele>287.368921</ele>
        <time>2026-08-29T12:06:51.000Z</time>
      </trkpt>
      <trkpt lat="45.09302" lon="5.72274">
        <ele>287.279124</ele>
        <time>2026-08-29T12:06:52.000Z</time>
      </trkpt>
      <trkpt lat="45.09307" lon="5.72269">
        <ele>287.191637</ele>
        <time>2026-08-29T12:06:53.000Z</time>
      </trkpt>
      <trkpt lat="45.09313" lon="5.72265">
        <ele>287.102838</ele>
        <time>2026-08-29T12:06:54.000Z</time>
      </trkpt>
      <trkpt lat="45.09318" lon="5.7226">
        <ele>287.016188</ele>
        <time>2026-08-29T12:06:55.000Z</time>
      </trkpt>
      <trkpt lat="45.09324" lon="5.72255">
        <ele>286.926894</ele>
        <time>2026-08-29T12:06:56.000Z</time>
      </trkpt>
      <trkpt lat="45.09329" lon="5.72251">
        <ele>286.838582</ele>
        <time>2026-08-29T12:06:57.000Z</time>
      </trkpt>
      <trkpt lat="45.09335" lon="5.72246">
        <ele>286.750953</ele>
        <time>2026-08-29T12:06:58.000Z</time>
      </trkpt>
      <trkpt lat="45.0934" lon="5.72241">
        <ele>286.663325</ele>
        <time>2026-08-29T12:06:59.000Z</time>
      </trkpt>
      <trkpt lat="45.09346" lon="5.72237">
        <ele>286.574525</ele>
        <time>2026-08-29T12:07:00.000Z</time>
      </trkpt>
      <trkpt lat="45.09352" lon="5.72232">
        <ele>286.485726</ele>
        <time>2026-08-29T12:07:01.000Z</time>
      </trkpt>
      <trkpt lat="45.09357" lon="5.72228">
        <ele>286.395968</ele>
        <time>2026-08-29T12:07:02.000Z</time>
      </trkpt>
      <trkpt lat="45.09363" lon="5.72223">
        <ele>286.305285</ele>
        <time>2026-08-29T12:07:03.000Z</time>
      </trkpt>
      <trkpt lat="45.09369" lon="5.72218">
        <ele>286.212212</ele>
        <time>2026-08-29T12:07:04.000Z</time>
      </trkpt>
      <trkpt lat="45.09375" lon="5.72214">
        <ele>286.119594</ele>
        <time>2026-08-29T12:07:05.000Z</time>
      </trkpt>
      <trkpt lat="45.09381" lon="5.72209">
        <ele>286.025767</ele>
        <time>2026-08-29T12:07:06.000Z</time>
      </trkpt>
      <trkpt lat="45.09387" lon="5.72205">
        <ele>285.931492</ele>
        <time>2026-08-29T12:07:07.000Z</time>
      </trkpt>
      <trkpt lat="45.09393" lon="5.722">
        <ele>285.836297</ele>
        <time>2026-08-29T12:07:08.000Z</time>
      </trkpt>
      <trkpt lat="45.094" lon="5.72195">
        <ele>285.740365</ele>
        <time>2026-08-29T12:07:09.000Z</time>
      </trkpt>
      <trkpt lat="45.09406" lon="5.72191">
        <ele>285.64609</ele>
        <time>2026-08-29T12:07:10.000Z</time>
      </trkpt>
      <trkpt lat="45.09412" lon="5.72186">
        <ele>285.550895</ele>
        <time>2026-08-29T12:07:11.000Z</time>
      </trkpt>
      <trkpt lat="45.09418" lon="5.72181">
        <ele>285.45689</ele>
        <time>2026-08-29T12:07:12.000Z</time>
      </trkpt>
      <trkpt lat="45.09424" lon="5.72177">
        <ele>285.361065</ele>
        <time>2026-08-29T12:07:13.000Z</time>
      </trkpt>
      <trkpt lat="45.0943" lon="5.72172">
        <ele>285.26524</ele>
        <time>2026-08-29T12:07:14.000Z</time>
      </trkpt>
      <trkpt lat="45.09437" lon="5.72168">
        <ele>285.170202</ele>
        <time>2026-08-29T12:07:15.000Z</time>
      </trkpt>
      <trkpt lat="45.09443" lon="5.72163">
        <ele>285.07351</ele>
        <time>2026-08-29T12:07:16.000Z</time>
      </trkpt>
      <trkpt lat="45.09449" lon="5.72159">
        <ele>284.978779</ele>
        <time>2026-08-29T12:07:17.000Z</time>
      </trkpt>
      <trkpt lat="45.09455" lon="5.72154">
        <ele>284.895974</ele>
        <time>2026-08-29T12:07:18.000Z</time>
      </trkpt>
      <trkpt lat="45.09461" lon="5.72149">
        <ele>284.819548</ele>
        <time>2026-08-29T12:07:19.000Z</time>
      </trkpt>
      <trkpt lat="45.09468" lon="5.72144">
        <ele>284.742387</ele>
        <time>2026-08-29T12:07:20.000Z</time>
      </trkpt>
      <trkpt lat="45.09474" lon="5.72139">
        <ele>284.665225</ele>
        <time>2026-08-29T12:07:21.000Z</time>
      </trkpt>
      <trkpt lat="45.0948" lon="5.72134">
        <ele>284.587113</ele>
        <time>2026-08-29T12:07:22.000Z</time>
      </trkpt>
      <trkpt lat="45.09486" lon="5.7213">
        <ele>284.510082</ele>
        <time>2026-08-29T12:07:23.000Z</time>
      </trkpt>
      <trkpt lat="45.09493" lon="5.72125">
        <ele>284.4334</ele>
        <time>2026-08-29T12:07:24.000Z</time>
      </trkpt>
      <trkpt lat="45.09499" lon="5.72122">
        <ele>284.359636</ele>
        <time>2026-08-29T12:07:25.000Z</time>
      </trkpt>
      <trkpt lat="45.09506" lon="5.72122">
        <ele>284.285728</ele>
        <time>2026-08-29T12:07:26.000Z</time>
      </trkpt>
      <trkpt lat="45.09513" lon="5.72121">
        <ele>284.21168</ele>
        <time>2026-08-29T12:07:27.000Z</time>
      </trkpt>
      <trkpt lat="45.09519" lon="5.72119">
        <ele>284.138162</ele>
        <time>2026-08-29T12:07:28.000Z</time>
      </trkpt>
      <trkpt lat="45.09526" lon="5.72117">
        <ele>284.067642</ele>
        <time>2026-08-29T12:07:29.000Z</time>
      </trkpt>
      <trkpt lat="45.09531" lon="5.72114">
        <ele>284.001045</ele>
        <time>2026-08-29T12:07:30.000Z</time>
      </trkpt>
      <trkpt lat="45.09536" lon="5.7211">
        <ele>283.93492</ele>
        <time>2026-08-29T12:07:31.000Z</time>
      </trkpt>
      <trkpt lat="45.09541" lon="5.72104">
        <ele>283.865167</ele>
        <time>2026-08-29T12:07:32.000Z</time>
      </trkpt>
      <trkpt lat="45.09547" lon="5.72098">
        <ele>283.791976</ele>
        <time>2026-08-29T12:07:33.000Z</time>
      </trkpt>
      <trkpt lat="45.09553" lon="5.72093">
        <ele>283.716586</ele>
        <time>2026-08-29T12:07:34.000Z</time>
      </trkpt>
      <trkpt lat="45.09558" lon="5.72087">
        <ele>283.642483</ele>
        <time>2026-08-29T12:07:35.000Z</time>
      </trkpt>
      <trkpt lat="45.09564" lon="5.72082">
        <ele>283.567051</ele>
        <time>2026-08-29T12:07:36.000Z</time>
      </trkpt>
      <trkpt lat="45.0957" lon="5.72077">
        <ele>283.491003</ele>
        <time>2026-08-29T12:07:37.000Z</time>
      </trkpt>
      <trkpt lat="45.09576" lon="5.72072">
        <ele>283.415732</ele>
        <time>2026-08-29T12:07:38.000Z</time>
      </trkpt>
      <trkpt lat="45.09582" lon="5.72067">
        <ele>283.339518</ele>
        <time>2026-08-29T12:07:39.000Z</time>
      </trkpt>
      <trkpt lat="45.09588" lon="5.72062">
        <ele>283.264049</ele>
        <time>2026-08-29T12:07:40.000Z</time>
      </trkpt>
      <trkpt lat="45.09594" lon="5.72058">
        <ele>283.188211</ele>
        <time>2026-08-29T12:07:41.000Z</time>
      </trkpt>
      <trkpt lat="45.09601" lon="5.72053">
        <ele>283.111421</ele>
        <time>2026-08-29T12:07:42.000Z</time>
      </trkpt>
      <trkpt lat="45.09607" lon="5.72048">
        <ele>283.035952</ele>
        <time>2026-08-29T12:07:43.000Z</time>
      </trkpt>
      <trkpt lat="45.09613" lon="5.72043">
        <ele>282.970691</ele>
        <time>2026-08-29T12:07:44.000Z</time>
      </trkpt>
      <trkpt lat="45.09619" lon="5.72038">
        <ele>282.922448</ele>
        <time>2026-08-29T12:07:45.000Z</time>
      </trkpt>
      <trkpt lat="45.09625" lon="5.72034">
        <ele>282.874449</ele>
        <time>2026-08-29T12:07:46.000Z</time>
      </trkpt>
      <trkpt lat="45.09631" lon="5.72029">
        <ele>282.82645</ele>
        <time>2026-08-29T12:07:47.000Z</time>
      </trkpt>
      <trkpt lat="45.09637" lon="5.72024">
        <ele>282.778451</ele>
        <time>2026-08-29T12:07:48.000Z</time>
      </trkpt>
      <trkpt lat="45.09643" lon="5.72019">
        <ele>282.731058</ele>
        <time>2026-08-29T12:07:49.000Z</time>
      </trkpt>
      <trkpt lat="45.09648" lon="5.72014">
        <ele>282.683664</ele>
        <time>2026-08-29T12:07:50.000Z</time>
      </trkpt>
      <trkpt lat="45.09654" lon="5.7201">
        <ele>282.63627</ele>
        <time>2026-08-29T12:07:51.000Z</time>
      </trkpt>
      <trkpt lat="45.0966" lon="5.72005">
        <ele>282.588028</ele>
        <time>2026-08-29T12:07:52.000Z</time>
      </trkpt>
      <trkpt lat="45.09666" lon="5.71999">
        <ele>282.539624</ele>
        <time>2026-08-29T12:07:53.000Z</time>
      </trkpt>
      <trkpt lat="45.09672" lon="5.71994">
        <ele>282.490533</ele>
        <time>2026-08-29T12:07:54.000Z</time>
      </trkpt>
      <trkpt lat="45.09679" lon="5.7199">
        <ele>282.440469</ele>
        <time>2026-08-29T12:07:55.000Z</time>
      </trkpt>
      <trkpt lat="45.09685" lon="5.71985">
        <ele>282.390253</ele>
        <time>2026-08-29T12:07:56.000Z</time>
      </trkpt>
      <trkpt lat="45.09691" lon="5.7198">
        <ele>282.342494</ele>
        <time>2026-08-29T12:07:57.000Z</time>
      </trkpt>
      <trkpt lat="45.09697" lon="5.71975">
        <ele>282.294735</ele>
        <time>2026-08-29T12:07:58.000Z</time>
      </trkpt>
      <trkpt lat="45.09703" lon="5.71971">
        <ele>282.247585</ele>
        <time>2026-08-29T12:07:59.000Z</time>
      </trkpt>
      <trkpt lat="45.09709" lon="5.71966">
        <ele>282.199215</ele>
        <time>2026-08-29T12:08:00.000Z</time>
      </trkpt>
      <trkpt lat="45.09715" lon="5.71961">
        <ele>282.152064</ele>
        <time>2026-08-29T12:08:01.000Z</time>
      </trkpt>
      <trkpt lat="45.09721" lon="5.71957">
        <ele>282.105619</ele>
        <time>2026-08-29T12:08:02.000Z</time>
      </trkpt>
      <trkpt lat="45.09727" lon="5.71952">
        <ele>282.058708</ele>
        <time>2026-08-29T12:08:03.000Z</time>
      </trkpt>
      <trkpt lat="45.09733" lon="5.71948">
        <ele>282.011557</ele>
        <time>2026-08-29T12:08:04.000Z</time>
      </trkpt>
      <trkpt lat="45.09738" lon="5.71943">
        <ele>281.964766</ele>
        <time>2026-08-29T12:08:05.000Z</time>
      </trkpt>
      <trkpt lat="45.09744" lon="5.71938">
        <ele>281.919675</ele>
        <time>2026-08-29T12:08:06.000Z</time>
      </trkpt>
      <trkpt lat="45.0975" lon="5.71934">
        <ele>281.873733</ele>
        <time>2026-08-29T12:08:07.000Z</time>
      </trkpt>
      <trkpt lat="45.09755" lon="5.71929">
        <ele>281.828516</ele>
        <time>2026-08-29T12:08:08.000Z</time>
      </trkpt>
      <trkpt lat="45.09761" lon="5.71925">
        <ele>281.781605</ele>
        <time>2026-08-29T12:08:09.000Z</time>
      </trkpt>
      <trkpt lat="45.09767" lon="5.7192">
        <ele>281.73413</ele>
        <time>2026-08-29T12:08:10.000Z</time>
      </trkpt>
      <trkpt lat="45.09773" lon="5.71915">
        <ele>281.697691</ele>
        <time>2026-08-29T12:08:11.000Z</time>
      </trkpt>
      <trkpt lat="45.09779" lon="5.7191">
        <ele>281.661525</ele>
        <time>2026-08-29T12:08:12.000Z</time>
      </trkpt>
      <trkpt lat="45.09786" lon="5.71905">
        <ele>281.624906</ele>
        <time>2026-08-29T12:08:13.000Z</time>
      </trkpt>
      <trkpt lat="45.09792" lon="5.719">
        <ele>281.587831</ele>
        <time>2026-08-29T12:08:14.000Z</time>
      </trkpt>
      <trkpt lat="45.09798" lon="5.71895">
        <ele>281.550576</ele>
        <time>2026-08-29T12:08:15.000Z</time>
      </trkpt>
      <trkpt lat="45.09804" lon="5.7189">
        <ele>281.513321</ele>
        <time>2026-08-29T12:08:16.000Z</time>
      </trkpt>
      <trkpt lat="45.0981" lon="5.71885">
        <ele>281.476518</ele>
        <time>2026-08-29T12:08:17.000Z</time>
      </trkpt>
      <trkpt lat="45.09816" lon="5.7188">
        <ele>281.43953</ele>
        <time>2026-08-29T12:08:18.000Z</time>
      </trkpt>
      <trkpt lat="45.09823" lon="5.71875">
        <ele>281.402274</ele>
        <time>2026-08-29T12:08:19.000Z</time>
      </trkpt>
      <trkpt lat="45.09829" lon="5.7187">
        <ele>281.365472</ele>
        <time>2026-08-29T12:08:20.000Z</time>
      </trkpt>
      <trkpt lat="45.09835" lon="5.71865">
        <ele>281.328398</ele>
        <time>2026-08-29T12:08:21.000Z</time>
      </trkpt>
      <trkpt lat="45.09841" lon="5.7186">
        <ele>281.290408</ele>
        <time>2026-08-29T12:08:22.000Z</time>
      </trkpt>
      <trkpt lat="45.09848" lon="5.71855">
        <ele>281.252062</ele>
        <time>2026-08-29T12:08:23.000Z</time>
      </trkpt>
      <trkpt lat="45.09854" lon="5.7185">
        <ele>281.213799</ele>
        <time>2026-08-29T12:08:24.000Z</time>
      </trkpt>
      <trkpt lat="45.0986" lon="5.71845">
        <ele>281.175347</ele>
        <time>2026-08-29T12:08:25.000Z</time>
      </trkpt>
      <trkpt lat="45.09867" lon="5.71839">
        <ele>281.136819</ele>
        <time>2026-08-29T12:08:26.000Z</time>
      </trkpt>
      <trkpt lat="45.09873" lon="5.71834">
        <ele>281.098195</ele>
        <time>2026-08-29T12:08:27.000Z</time>
      </trkpt>
      <trkpt lat="45.0988" lon="5.7183">
        <ele>281.060205</ele>
        <time>2026-08-29T12:08:28.000Z</time>
      </trkpt>
      <trkpt lat="45.09886" lon="5.71825">
        <ele>281.021755</ele>
        <time>2026-08-29T12:08:29.000Z</time>
      </trkpt>
      <trkpt lat="45.09893" lon="5.7182">
        <ele>280.983131</ele>
        <time>2026-08-29T12:08:30.000Z</time>
      </trkpt>
      <trkpt lat="45.09899" lon="5.71815">
        <ele>280.944219</ele>
        <time>2026-08-29T12:08:31.000Z</time>
      </trkpt>
      <trkpt lat="45.09906" lon="5.7181">
        <ele>280.90496</ele>
        <time>2026-08-29T12:08:32.000Z</time>
      </trkpt>
      <trkpt lat="45.09912" lon="5.71804">
        <ele>280.865978</ele>
        <time>2026-08-29T12:08:33.000Z</time>
      </trkpt>
      <trkpt lat="45.09919" lon="5.71799">
        <ele>280.826361</ele>
        <time>2026-08-29T12:08:34.000Z</time>
      </trkpt>
      <trkpt lat="45.09925" lon="5.71794">
        <ele>280.792591</ele>
        <time>2026-08-29T12:08:35.000Z</time>
      </trkpt>
      <trkpt lat="45.09932" lon="5.71789">
        <ele>280.778077</ele>
        <time>2026-08-29T12:08:36.000Z</time>
      </trkpt>
      <trkpt lat="45.09938" lon="5.71783">
        <ele>280.76366</ele>
        <time>2026-08-29T12:08:37.000Z</time>
      </trkpt>
      <trkpt lat="45.09945" lon="5.71778">
        <ele>280.748737</ele>
        <time>2026-08-29T12:08:38.000Z</time>
      </trkpt>
      <trkpt lat="45.09951" lon="5.71772">
        <ele>280.733815</ele>
        <time>2026-08-29T12:08:39.000Z</time>
      </trkpt>
      <trkpt lat="45.09958" lon="5.71767">
        <ele>280.719131</ele>
        <time>2026-08-29T12:08:40.000Z</time>
      </trkpt>
      <trkpt lat="45.09964" lon="5.71762">
        <ele>280.704686</ele>
        <time>2026-08-29T12:08:41.000Z</time>
      </trkpt>
      <trkpt lat="45.0997" lon="5.71757">
        <ele>280.69041</ele>
        <time>2026-08-29T12:08:42.000Z</time>
      </trkpt>
      <trkpt lat="45.09977" lon="5.71752">
        <ele>280.676612</ele>
        <time>2026-08-29T12:08:43.000Z</time>
      </trkpt>
      <trkpt lat="45.09983" lon="5.71747">
        <ele>280.662983</ele>
        <time>2026-08-29T12:08:44.000Z</time>
      </trkpt>
      <trkpt lat="45.09988" lon="5.71741">
        <ele>280.649394</ele>
        <time>2026-08-29T12:08:45.000Z</time>
      </trkpt>
      <trkpt lat="45.09993" lon="5.71735">
        <ele>280.635919</ele>
        <time>2026-08-29T12:08:46.000Z</time>
      </trkpt>
      <trkpt lat="45.09998" lon="5.71727">
        <ele>280.622334</ele>
        <time>2026-08-29T12:08:47.000Z</time>
      </trkpt>
      <trkpt lat="45.10002" lon="5.71719">
        <ele>280.609114</ele>
        <time>2026-08-29T12:08:48.000Z</time>
      </trkpt>
      <trkpt lat="45.10006" lon="5.71712">
        <ele>280.595927</ele>
        <time>2026-08-29T12:08:49.000Z</time>
      </trkpt>
      <trkpt lat="45.10012" lon="5.71707">
        <ele>280.582899</ele>
        <time>2026-08-29T12:08:50.000Z</time>
      </trkpt>
      <trkpt lat="45.10017" lon="5.71702">
        <ele>280.569884</ele>
        <time>2026-08-29T12:08:51.000Z</time>
      </trkpt>
      <trkpt lat="45.10023" lon="5.71697">
        <ele>280.556802</ele>
        <time>2026-08-29T12:08:52.000Z</time>
      </trkpt>
      <trkpt lat="45.10029" lon="5.71693">
        <ele>280.543481</ele>
        <time>2026-08-29T12:08:53.000Z</time>
      </trkpt>
      <trkpt lat="45.10035" lon="5.71688">
        <ele>280.529513</ele>
        <time>2026-08-29T12:08:54.000Z</time>
      </trkpt>
      <trkpt lat="45.10041" lon="5.71683">
        <ele>280.515884</ele>
        <time>2026-08-29T12:08:55.000Z</time>
      </trkpt>
      <trkpt lat="45.10047" lon="5.71677">
        <ele>280.50237</ele>
        <time>2026-08-29T12:08:56.000Z</time>
      </trkpt>
      <trkpt lat="45.10053" lon="5.71672">
        <ele>280.488945</ele>
        <time>2026-08-29T12:08:57.000Z</time>
      </trkpt>
      <trkpt lat="45.10059" lon="5.71667">
        <ele>280.475506</ele>
        <time>2026-08-29T12:08:58.000Z</time>
      </trkpt>
      <trkpt lat="45.10065" lon="5.71662">
        <ele>280.461877</ele>
        <time>2026-08-29T12:08:59.000Z</time>
      </trkpt>
      <trkpt lat="45.10071" lon="5.71657">
        <ele>280.447977</ele>
        <time>2026-08-29T12:09:00.000Z</time>
      </trkpt>
      <trkpt lat="45.10077" lon="5.71652">
        <ele>280.418432</ele>
        <time>2026-08-29T12:09:01.000Z</time>
      </trkpt>
      <trkpt lat="45.10083" lon="5.71647">
        <ele>280.38275</ele>
        <time>2026-08-29T12:09:02.000Z</time>
      </trkpt>
      <trkpt lat="45.10089" lon="5.71643">
        <ele>280.347</ele>
        <time>2026-08-29T12:09:03.000Z</time>
      </trkpt>
      <trkpt lat="45.10095" lon="5.71637">
        <ele>280.310949</ele>
        <time>2026-08-29T12:09:04.000Z</time>
      </trkpt>
      <trkpt lat="45.10101" lon="5.71632">
        <ele>280.27509</ele>
        <time>2026-08-29T12:09:05.000Z</time>
      </trkpt>
      <trkpt lat="45.10107" lon="5.71627">
        <ele>280.238598</ele>
        <time>2026-08-29T12:09:06.000Z</time>
      </trkpt>
      <trkpt lat="45.10113" lon="5.71622">
        <ele>280.201401</ele>
        <time>2026-08-29T12:09:07.000Z</time>
      </trkpt>
      <trkpt lat="45.10119" lon="5.71617">
        <ele>280.164716</ele>
        <time>2026-08-29T12:09:08.000Z</time>
      </trkpt>
      <trkpt lat="45.10125" lon="5.71612">
        <ele>280.128153</ele>
        <time>2026-08-29T12:09:09.000Z</time>
      </trkpt>
      <trkpt lat="45.10131" lon="5.71607">
        <ele>280.091589</ele>
        <time>2026-08-29T12:09:10.000Z</time>
      </trkpt>
      <trkpt lat="45.10137" lon="5.71602">
        <ele>280.056364</ele>
        <time>2026-08-29T12:09:11.000Z</time>
      </trkpt>
      <trkpt lat="45.10143" lon="5.71597">
        <ele>280.020694</ele>
        <time>2026-08-29T12:09:12.000Z</time>
      </trkpt>
      <trkpt lat="45.10149" lon="5.71592">
        <ele>279.984944</ele>
        <time>2026-08-29T12:09:13.000Z</time>
      </trkpt>
      <trkpt lat="45.10155" lon="5.71587">
        <ele>279.947831</ele>
        <time>2026-08-29T12:09:14.000Z</time>
      </trkpt>
      <trkpt lat="45.10161" lon="5.71582">
        <ele>279.911083</ele>
        <time>2026-08-29T12:09:15.000Z</time>
      </trkpt>
      <trkpt lat="45.10168" lon="5.71577">
        <ele>279.874519</ele>
        <time>2026-08-29T12:09:16.000Z</time>
      </trkpt>
      <trkpt lat="45.10174" lon="5.71572">
        <ele>279.838316</ele>
        <time>2026-08-29T12:09:17.000Z</time>
      </trkpt>
      <trkpt lat="45.1018" lon="5.71567">
        <ele>279.801203</ele>
        <time>2026-08-29T12:09:18.000Z</time>
      </trkpt>
      <trkpt lat="45.10186" lon="5.71563">
        <ele>279.76409</ele>
        <time>2026-08-29T12:09:19.000Z</time>
      </trkpt>
      <trkpt lat="45.10193" lon="5.71558">
        <ele>279.726802</ele>
        <time>2026-08-29T12:09:20.000Z</time>
      </trkpt>
      <trkpt lat="45.10199" lon="5.71553">
        <ele>279.689789</ele>
        <time>2026-08-29T12:09:21.000Z</time>
      </trkpt>
      <trkpt lat="45.10205" lon="5.71548">
        <ele>279.653132</ele>
        <time>2026-08-29T12:09:22.000Z</time>
      </trkpt>
      <trkpt lat="45.10211" lon="5.71543">
        <ele>279.615844</ele>
        <time>2026-08-29T12:09:23.000Z</time>
      </trkpt>
      <trkpt lat="45.10217" lon="5.71538">
        <ele>279.579187</ele>
        <time>2026-08-29T12:09:24.000Z</time>
      </trkpt>
      <trkpt lat="45.10224" lon="5.71533">
        <ele>279.542074</ele>
        <time>2026-08-29T12:09:25.000Z</time>
      </trkpt>
      <trkpt lat="45.1023" lon="5.71529">
        <ele>279.505926</ele>
        <time>2026-08-29T12:09:26.000Z</time>
      </trkpt>
      <trkpt lat="45.10236" lon="5.71524">
        <ele>279.474173</ele>
        <time>2026-08-29T12:09:27.000Z</time>
      </trkpt>
      <trkpt lat="45.10242" lon="5.71519">
        <ele>279.442102</ele>
        <time>2026-08-29T12:09:28.000Z</time>
      </trkpt>
      <trkpt lat="45.10248" lon="5.71514">
        <ele>279.409795</ele>
        <time>2026-08-29T12:09:29.000Z</time>
      </trkpt>
      <trkpt lat="45.10255" lon="5.71509">
        <ele>279.377644</ele>
        <time>2026-08-29T12:09:30.000Z</time>
      </trkpt>
      <trkpt lat="45.10261" lon="5.71504">
        <ele>279.346287</ele>
        <time>2026-08-29T12:09:31.000Z</time>
      </trkpt>
      <trkpt lat="45.10267" lon="5.715">
        <ele>279.314931</ele>
        <time>2026-08-29T12:09:32.000Z</time>
      </trkpt>
      <trkpt lat="45.10273" lon="5.71495">
        <ele>279.283254</ele>
        <time>2026-08-29T12:09:33.000Z</time>
      </trkpt>
      <trkpt lat="45.10279" lon="5.7149">
        <ele>279.250702</ele>
        <time>2026-08-29T12:09:34.000Z</time>
      </trkpt>
      <trkpt lat="45.10285" lon="5.71485">
        <ele>279.217749</ele>
        <time>2026-08-29T12:09:35.000Z</time>
      </trkpt>
      <trkpt lat="45.10292" lon="5.7148">
        <ele>279.18449</ele>
        <time>2026-08-29T12:09:36.000Z</time>
      </trkpt>
      <trkpt lat="45.10298" lon="5.71475">
        <ele>279.151232</ele>
        <time>2026-08-29T12:09:37.000Z</time>
      </trkpt>
      <trkpt lat="45.10304" lon="5.7147">
        <ele>279.118213</ele>
        <time>2026-08-29T12:09:38.000Z</time>
      </trkpt>
      <trkpt lat="45.10311" lon="5.71465">
        <ele>279.085194</ele>
        <time>2026-08-29T12:09:39.000Z</time>
      </trkpt>
      <trkpt lat="45.10317" lon="5.7146">
        <ele>279.05162</ele>
        <time>2026-08-29T12:09:40.000Z</time>
      </trkpt>
      <trkpt lat="45.10324" lon="5.71455">
        <ele>279.017808</ele>
        <time>2026-08-29T12:09:41.000Z</time>
      </trkpt>
      <trkpt lat="45.1033" lon="5.71449">
        <ele>278.983995</ele>
        <time>2026-08-29T12:09:42.000Z</time>
      </trkpt>
      <trkpt lat="45.10336" lon="5.71444">
        <ele>278.950976</ele>
        <time>2026-08-29T12:09:43.000Z</time>
      </trkpt>
      <trkpt lat="45.10343" lon="5.71439">
        <ele>278.917561</ele>
        <time>2026-08-29T12:09:44.000Z</time>
      </trkpt>
      <trkpt lat="45.10349" lon="5.71434">
        <ele>278.883903</ele>
        <time>2026-08-29T12:09:45.000Z</time>
      </trkpt>
      <trkpt lat="45.10356" lon="5.71429">
        <ele>278.85033</ele>
        <time>2026-08-29T12:09:46.000Z</time>
      </trkpt>
      <trkpt lat="45.10362" lon="5.71424">
        <ele>278.817865</ele>
        <time>2026-08-29T12:09:47.000Z</time>
      </trkpt>
      <trkpt lat="45.10368" lon="5.71419">
        <ele>278.78436</ele>
        <time>2026-08-29T12:09:48.000Z</time>
      </trkpt>
      <trkpt lat="45.10375" lon="5.71414">
        <ele>278.751004</ele>
        <time>2026-08-29T12:09:49.000Z</time>
      </trkpt>
      <trkpt lat="45.10382" lon="5.7141">
        <ele>278.717262</ele>
        <time>2026-08-29T12:09:50.000Z</time>
      </trkpt>
      <trkpt lat="45.10388" lon="5.71405">
        <ele>278.684438</ele>
        <time>2026-08-29T12:09:51.000Z</time>
      </trkpt>
      <trkpt lat="45.10395" lon="5.71401">
        <ele>278.65126</ele>
        <time>2026-08-29T12:09:52.000Z</time>
      </trkpt>
      <trkpt lat="45.10401" lon="5.71396">
        <ele>278.618483</ele>
        <time>2026-08-29T12:09:53.000Z</time>
      </trkpt>
      <trkpt lat="45.10408" lon="5.71391">
        <ele>278.585262</ele>
        <time>2026-08-29T12:09:54.000Z</time>
      </trkpt>
      <trkpt lat="45.10414" lon="5.71386">
        <ele>278.552514</ele>
        <time>2026-08-29T12:09:55.000Z</time>
      </trkpt>
      <trkpt lat="45.1042" lon="5.71381">
        <ele>278.519924</ele>
        <time>2026-08-29T12:09:56.000Z</time>
      </trkpt>
      <trkpt lat="45.10427" lon="5.71376">
        <ele>278.487882</ele>
        <time>2026-08-29T12:09:57.000Z</time>
      </trkpt>
      <trkpt lat="45.10433" lon="5.71371">
        <ele>278.456386</ele>
        <time>2026-08-29T12:09:58.000Z</time>
      </trkpt>
      <trkpt lat="45.10439" lon="5.71366">
        <ele>278.425198</ele>
        <time>2026-08-29T12:09:59.000Z</time>
      </trkpt>
      <trkpt lat="45.10445" lon="5.71361">
        <ele>278.394557</ele>
        <time>2026-08-29T12:10:00.000Z</time>
      </trkpt>
      <trkpt lat="45.10451" lon="5.71357">
        <ele>278.363608</ele>
        <time>2026-08-29T12:10:01.000Z</time>
      </trkpt>
      <trkpt lat="45.10457" lon="5.71352">
        <ele>278.331721</ele>
        <time>2026-08-29T12:10:02.000Z</time>
      </trkpt>
      <trkpt lat="45.10463" lon="5.71347">
        <ele>278.300928</ele>
        <time>2026-08-29T12:10:03.000Z</time>
      </trkpt>
      <trkpt lat="45.10469" lon="5.71342">
        <ele>278.269979</ele>
        <time>2026-08-29T12:10:04.000Z</time>
      </trkpt>
      <trkpt lat="45.10475" lon="5.71337">
        <ele>278.239421</ele>
        <time>2026-08-29T12:10:05.000Z</time>
      </trkpt>
      <trkpt lat="45.10481" lon="5.71333">
        <ele>278.208081</ele>
        <time>2026-08-29T12:10:06.000Z</time>
      </trkpt>
      <trkpt lat="45.10487" lon="5.71327">
        <ele>278.177252</ele>
        <time>2026-08-29T12:10:07.000Z</time>
      </trkpt>
      <trkpt lat="45.10493" lon="5.71323">
        <ele>278.146922</ele>
        <time>2026-08-29T12:10:08.000Z</time>
      </trkpt>
      <trkpt lat="45.10498" lon="5.71318">
        <ele>278.116752</ele>
        <time>2026-08-29T12:10:09.000Z</time>
      </trkpt>
      <trkpt lat="45.10504" lon="5.71313">
        <ele>278.086092</ele>
        <time>2026-08-29T12:10:10.000Z</time>
      </trkpt>
      <trkpt lat="45.1051" lon="5.71307">
        <ele>278.055643</ele>
        <time>2026-08-29T12:10:11.000Z</time>
      </trkpt>
      <trkpt lat="45.10516" lon="5.71302">
        <ele>278.024094</ele>
        <time>2026-08-29T12:10:12.000Z</time>
      </trkpt>
      <trkpt lat="45.10522" lon="5.71297">
        <ele>277.993536</ele>
        <time>2026-08-29T12:10:13.000Z</time>
      </trkpt>
      <trkpt lat="45.10528" lon="5.71293">
        <ele>277.963289</ele>
        <time>2026-08-29T12:10:14.000Z</time>
      </trkpt>
      <trkpt lat="45.10533" lon="5.71288">
        <ele>277.933042</ele>
        <time>2026-08-29T12:10:15.000Z</time>
      </trkpt>
      <trkpt lat="45.10539" lon="5.71283">
        <ele>277.902248</ele>
        <time>2026-08-29T12:10:16.000Z</time>
      </trkpt>
      <trkpt lat="45.10545" lon="5.71279">
        <ele>277.867315</ele>
        <time>2026-08-29T12:10:17.000Z</time>
      </trkpt>
      <trkpt lat="45.10551" lon="5.71274">
        <ele>277.825908</ele>
        <time>2026-08-29T12:10:18.000Z</time>
      </trkpt>
      <trkpt lat="45.10557" lon="5.71269">
        <ele>277.784182</ele>
        <time>2026-08-29T12:10:19.000Z</time>
      </trkpt>
      <trkpt lat="45.10563" lon="5.71264">
        <ele>277.742241</ele>
        <time>2026-08-29T12:10:20.000Z</time>
      </trkpt>
      <trkpt lat="45.10569" lon="5.7126">
        <ele>277.699765</ele>
        <time>2026-08-29T12:10:21.000Z</time>
      </trkpt>
      <trkpt lat="45.10575" lon="5.71255">
        <ele>277.658665</ele>
        <time>2026-08-29T12:10:22.000Z</time>
      </trkpt>
      <trkpt lat="45.1058" lon="5.7125">
        <ele>277.618614</ele>
        <time>2026-08-29T12:10:23.000Z</time>
      </trkpt>
      <trkpt lat="45.10586" lon="5.71245">
        <ele>277.577099</ele>
        <time>2026-08-29T12:10:24.000Z</time>
      </trkpt>
      <trkpt lat="45.10592" lon="5.71241">
        <ele>277.535044</ele>
        <time>2026-08-29T12:10:25.000Z</time>
      </trkpt>
      <trkpt lat="45.10598" lon="5.71236">
        <ele>277.493318</ele>
        <time>2026-08-29T12:10:26.000Z</time>
      </trkpt>
      <trkpt lat="45.10604" lon="5.71231">
        <ele>277.451159</ele>
        <time>2026-08-29T12:10:27.000Z</time>
      </trkpt>
      <trkpt lat="45.1061" lon="5.71226">
        <ele>277.409645</ele>
        <time>2026-08-29T12:10:28.000Z</time>
      </trkpt>
      <trkpt lat="45.10616" lon="5.71222">
        <ele>277.367705</ele>
        <time>2026-08-29T12:10:29.000Z</time>
      </trkpt>
      <trkpt lat="45.10622" lon="5.71217">
        <ele>277.3249</ele>
        <time>2026-08-29T12:10:30.000Z</time>
      </trkpt>
      <trkpt lat="45.10628" lon="5.71212">
        <ele>277.282959</ele>
        <time>2026-08-29T12:10:31.000Z</time>
      </trkpt>
      <trkpt lat="45.10634" lon="5.71207">
        <ele>277.241019</ele>
        <time>2026-08-29T12:10:32.000Z</time>
      </trkpt>
      <trkpt lat="45.10639" lon="5.71202">
        <ele>277.199612</ele>
        <time>2026-08-29T12:10:33.000Z</time>
      </trkpt>
      <trkpt lat="45.10645" lon="5.71198">
        <ele>277.157671</ele>
        <time>2026-08-29T12:10:34.000Z</time>
      </trkpt>
      <trkpt lat="45.10651" lon="5.71193">
        <ele>277.115073</ele>
        <time>2026-08-29T12:10:35.000Z</time>
      </trkpt>
      <trkpt lat="45.10657" lon="5.71188">
        <ele>277.072381</ele>
        <time>2026-08-29T12:10:36.000Z</time>
      </trkpt>
      <trkpt lat="45.10663" lon="5.71183">
        <ele>277.029775</ele>
        <time>2026-08-29T12:10:37.000Z</time>
      </trkpt>
      <trkpt lat="45.10669" lon="5.71178">
        <ele>276.986865</ele>
        <time>2026-08-29T12:10:38.000Z</time>
      </trkpt>
      <trkpt lat="45.10675" lon="5.71173">
        <ele>276.944784</ele>
        <time>2026-08-29T12:10:39.000Z</time>
      </trkpt>
      <trkpt lat="45.10681" lon="5.71168">
        <ele>276.902404</ele>
        <time>2026-08-29T12:10:40.000Z</time>
      </trkpt>
      <trkpt lat="45.10687" lon="5.71163">
        <ele>276.86014</ele>
        <time>2026-08-29T12:10:41.000Z</time>
      </trkpt>
      <trkpt lat="45.10693" lon="5.71159">
        <ele>276.818084</ele>
        <time>2026-08-29T12:10:42.000Z</time>
      </trkpt>
      <trkpt lat="45.10699" lon="5.71154">
        <ele>276.776456</ele>
        <time>2026-08-29T12:10:43.000Z</time>
      </trkpt>
      <trkpt lat="45.10705" lon="5.71149">
        <ele>276.743616</ele>
        <time>2026-08-29T12:10:44.000Z</time>
      </trkpt>
      <trkpt lat="45.1071" lon="5.71144">
        <ele>276.710618</ele>
        <time>2026-08-29T12:10:45.000Z</time>
      </trkpt>
      <trkpt lat="45.10716" lon="5.71139">
        <ele>276.677621</ele>
        <time>2026-08-29T12:10:46.000Z</time>
      </trkpt>
      <trkpt lat="45.10722" lon="5.71135">
        <ele>276.644533</ele>
        <time>2026-08-29T12:10:47.000Z</time>
      </trkpt>
      <trkpt lat="45.10728" lon="5.7113">
        <ele>276.611605</ele>
        <time>2026-08-29T12:10:48.000Z</time>
      </trkpt>
      <trkpt lat="45.10734" lon="5.71125">
        <ele>276.578607</ele>
        <time>2026-08-29T12:10:49.000Z</time>
      </trkpt>
      <trkpt lat="45.1074" lon="5.7112">
        <ele>276.54552</ele>
        <time>2026-08-29T12:10:50.000Z</time>
      </trkpt>
      <trkpt lat="45.10746" lon="5.71116">
        <ele>276.513182</ele>
        <time>2026-08-29T12:10:51.000Z</time>
      </trkpt>
      <trkpt lat="45.10752" lon="5.71111">
        <ele>276.480013</ele>
        <time>2026-08-29T12:10:52.000Z</time>
      </trkpt>
      <trkpt lat="45.10758" lon="5.71106">
        <ele>276.447498</ele>
        <time>2026-08-29T12:10:53.000Z</time>
      </trkpt>
      <trkpt lat="45.10763" lon="5.71101">
        <ele>276.414836</ele>
        <time>2026-08-29T12:10:54.000Z</time>
      </trkpt>
      <trkpt lat="45.10769" lon="5.71097">
        <ele>276.382338</ele>
        <time>2026-08-29T12:10:55.000Z</time>
      </trkpt>
      <trkpt lat="45.10775" lon="5.71092">
        <ele>276.349932</ele>
        <time>2026-08-29T12:10:56.000Z</time>
      </trkpt>
      <trkpt lat="45.10781" lon="5.71087">
        <ele>276.318602</ele>
        <time>2026-08-29T12:10:57.000Z</time>
      </trkpt>
      <trkpt lat="45.10786" lon="5.71083">
        <ele>276.287282</ele>
        <time>2026-08-29T12:10:58.000Z</time>
      </trkpt>
      <trkpt lat="45.10792" lon="5.71079">
        <ele>276.255533</ele>
        <time>2026-08-29T12:10:59.000Z</time>
      </trkpt>
      <trkpt lat="45.10798" lon="5.71074">
        <ele>276.224051</ele>
        <time>2026-08-29T12:11:00.000Z</time>
      </trkpt>
      <trkpt lat="45.10803" lon="5.7107">
        <ele>276.192826</ele>
        <time>2026-08-29T12:11:01.000Z</time>
      </trkpt>
      <trkpt lat="45.10809" lon="5.71065">
        <ele>276.162023</ele>
        <time>2026-08-29T12:11:02.000Z</time>
      </trkpt>
      <trkpt lat="45.10815" lon="5.71061">
        <ele>276.130628</ele>
        <time>2026-08-29T12:11:03.000Z</time>
      </trkpt>
      <trkpt lat="45.1082" lon="5.71056">
        <ele>276.09839</ele>
        <time>2026-08-29T12:11:04.000Z</time>
      </trkpt>
      <trkpt lat="45.10826" lon="5.71052">
        <ele>276.066995</ele>
        <time>2026-08-29T12:11:05.000Z</time>
      </trkpt>
      <trkpt lat="45.10832" lon="5.71047">
        <ele>276.035348</ele>
        <time>2026-08-29T12:11:06.000Z</time>
      </trkpt>
      <trkpt lat="45.10837" lon="5.71042">
        <ele>276.004196</ele>
        <time>2026-08-29T12:11:07.000Z</time>
      </trkpt>
      <trkpt lat="45.10843" lon="5.71038">
        <ele>275.973393</ele>
        <time>2026-08-29T12:11:08.000Z</time>
      </trkpt>
      <trkpt lat="45.10848" lon="5.71033">
        <ele>275.942416</ele>
        <time>2026-08-29T12:11:09.000Z</time>
      </trkpt>
      <trkpt lat="45.10854" lon="5.71029">
        <ele>275.911022</ele>
        <time>2026-08-29T12:11:10.000Z</time>
      </trkpt>
      <trkpt lat="45.10859" lon="5.71024">
        <ele>275.916729</ele>
        <time>2026-08-29T12:11:11.000Z</time>
      </trkpt>
      <trkpt lat="45.10865" lon="5.71019">
        <ele>275.935662</ele>
        <time>2026-08-29T12:11:12.000Z</time>
      </trkpt>
      <trkpt lat="45.1087" lon="5.71015">
        <ele>275.954489</ele>
        <time>2026-08-29T12:11:13.000Z</time>
      </trkpt>
      <trkpt lat="45.10876" lon="5.7101">
        <ele>275.973107</ele>
        <time>2026-08-29T12:11:14.000Z</time>
      </trkpt>
      <trkpt lat="45.10881" lon="5.71006">
        <ele>275.991266</ele>
        <time>2026-08-29T12:11:15.000Z</time>
      </trkpt>
      <trkpt lat="45.10887" lon="5.71002">
        <ele>276.009525</ele>
        <time>2026-08-29T12:11:16.000Z</time>
      </trkpt>
      <trkpt lat="45.10892" lon="5.70998">
        <ele>276.027127</ele>
        <time>2026-08-29T12:11:17.000Z</time>
      </trkpt>
      <trkpt lat="45.10897" lon="5.70993">
        <ele>276.044875</ele>
        <time>2026-08-29T12:11:18.000Z</time>
      </trkpt>
      <trkpt lat="45.10902" lon="5.70989">
        <ele>276.062122</ele>
        <time>2026-08-29T12:11:19.000Z</time>
      </trkpt>
      <trkpt lat="45.10907" lon="5.70986">
        <ele>276.079205</ele>
        <time>2026-08-29T12:11:20.000Z</time>
      </trkpt>
      <trkpt lat="45.10912" lon="5.70981">
        <ele>276.096747</ele>
        <time>2026-08-29T12:11:21.000Z</time>
      </trkpt>
      <trkpt lat="45.10918" lon="5.70977">
        <ele>276.114188</ele>
        <time>2026-08-29T12:11:22.000Z</time>
      </trkpt>
      <trkpt lat="45.10923" lon="5.70973">
        <ele>276.131649</ele>
        <time>2026-08-29T12:11:23.000Z</time>
      </trkpt>
      <trkpt lat="45.10927" lon="5.70968">
        <ele>276.149209</ele>
        <time>2026-08-29T12:11:24.000Z</time>
      </trkpt>
      <trkpt lat="45.10932" lon="5.70964">
        <ele>276.16631</ele>
        <time>2026-08-29T12:11:25.000Z</time>
      </trkpt>
      <trkpt lat="45.10937" lon="5.70959">
        <ele>276.183391</ele>
        <time>2026-08-29T12:11:26.000Z</time>
      </trkpt>
      <trkpt lat="45.10942" lon="5.70955">
        <ele>276.199883</ele>
        <time>2026-08-29T12:11:27.000Z</time>
      </trkpt>
      <trkpt lat="45.10947" lon="5.7095">
        <ele>276.216604</ele>
        <time>2026-08-29T12:11:28.000Z</time>
      </trkpt>
      <trkpt lat="45.10951" lon="5.70946">
        <ele>276.233704</ele>
        <time>2026-08-29T12:11:29.000Z</time>
      </trkpt>
      <trkpt lat="45.10956" lon="5.70942">
        <ele>276.250226</ele>
        <time>2026-08-29T12:11:30.000Z</time>
      </trkpt>
      <trkpt lat="45.10961" lon="5.70938">
        <ele>276.266717</ele>
        <time>2026-08-29T12:11:31.000Z</time>
      </trkpt>
      <trkpt lat="45.10966" lon="5.70933">
        <ele>276.283078</ele>
        <time>2026-08-29T12:11:32.000Z</time>
      </trkpt>
      <trkpt lat="45.1097" lon="5.70929">
        <ele>276.299747</ele>
        <time>2026-08-29T12:11:33.000Z</time>
      </trkpt>
      <trkpt lat="45.10975" lon="5.70925">
        <ele>276.316776</ele>
        <time>2026-08-29T12:11:34.000Z</time>
      </trkpt>
      <trkpt lat="45.1098" lon="5.70921">
        <ele>276.333446</ele>
        <time>2026-08-29T12:11:35.000Z</time>
      </trkpt>
      <trkpt lat="45.10985" lon="5.70917">
        <ele>276.350475</ele>
        <time>2026-08-29T12:11:36.000Z</time>
      </trkpt>
      <trkpt lat="45.1099" lon="5.70913">
        <ele>276.367461</ele>
        <time>2026-08-29T12:11:37.000Z</time>
      </trkpt>
      <trkpt lat="45.10996" lon="5.70909">
        <ele>276.384746</ele>
        <time>2026-08-29T12:11:38.000Z</time>
      </trkpt>
      <trkpt lat="45.11001" lon="5.70905">
        <ele>276.402389</ele>
        <time>2026-08-29T12:11:39.000Z</time>
      </trkpt>
      <trkpt lat="45.11006" lon="5.70901">
        <ele>276.419418</ele>
        <time>2026-08-29T12:11:40.000Z</time>
      </trkpt>
      <trkpt lat="45.11011" lon="5.70897">
        <ele>276.424547</ele>
        <time>2026-08-29T12:11:41.000Z</time>
      </trkpt>
      <trkpt lat="45.11016" lon="5.70893">
        <ele>276.38163</ele>
        <time>2026-08-29T12:11:42.000Z</time>
      </trkpt>
      <trkpt lat="45.11021" lon="5.70889">
        <ele>276.338857</ele>
        <time>2026-08-29T12:11:43.000Z</time>
      </trkpt>
      <trkpt lat="45.11026" lon="5.70885">
        <ele>276.296583</ele>
        <time>2026-08-29T12:11:44.000Z</time>
      </trkpt>
      <trkpt lat="45.11031" lon="5.70881">
        <ele>276.255158</ele>
        <time>2026-08-29T12:11:45.000Z</time>
      </trkpt>
      <trkpt lat="45.11036" lon="5.70877">
        <ele>276.213018</ele>
        <time>2026-08-29T12:11:46.000Z</time>
      </trkpt>
      <trkpt lat="45.11041" lon="5.70873">
        <ele>276.170986</ele>
        <time>2026-08-29T12:11:47.000Z</time>
      </trkpt>
      <trkpt lat="45.11046" lon="5.70869">
        <ele>276.129598</ele>
        <time>2026-08-29T12:11:48.000Z</time>
      </trkpt>
      <trkpt lat="45.11051" lon="5.70865">
        <ele>276.088851</ele>
        <time>2026-08-29T12:11:49.000Z</time>
      </trkpt>
      <trkpt lat="45.11056" lon="5.70861">
        <ele>276.047704</ele>
        <time>2026-08-29T12:11:50.000Z</time>
      </trkpt>
      <trkpt lat="45.11061" lon="5.70858">
        <ele>276.005929</ele>
        <time>2026-08-29T12:11:51.000Z</time>
      </trkpt>
      <trkpt lat="45.11066" lon="5.70854">
        <ele>275.964366</ele>
        <time>2026-08-29T12:11:52.000Z</time>
      </trkpt>
      <trkpt lat="45.11071" lon="5.70851">
        <ele>275.922334</ele>
        <time>2026-08-29T12:11:53.000Z</time>
      </trkpt>
      <trkpt lat="45.11077" lon="5.70846">
        <ele>275.878037</ele>
        <time>2026-08-29T12:11:54.000Z</time>
      </trkpt>
      <trkpt lat="45.11082" lon="5.70842">
        <ele>275.833348</ele>
        <time>2026-08-29T12:11:55.000Z</time>
      </trkpt>
      <trkpt lat="45.11087" lon="5.70838">
        <ele>275.788798</ele>
        <time>2026-08-29T12:11:56.000Z</time>
      </trkpt>
      <trkpt lat="45.11093" lon="5.70834">
        <ele>275.743359</ele>
        <time>2026-08-29T12:11:57.000Z</time>
      </trkpt>
      <trkpt lat="45.11098" lon="5.70829">
        <ele>275.696771</ele>
        <time>2026-08-29T12:11:58.000Z</time>
      </trkpt>
      <trkpt lat="45.11104" lon="5.70825">
        <ele>275.652591</ele>
        <time>2026-08-29T12:11:59.000Z</time>
      </trkpt>
      <trkpt lat="45.11109" lon="5.70821">
        <ele>275.607495</ele>
        <time>2026-08-29T12:12:00.000Z</time>
      </trkpt>
      <trkpt lat="45.11115" lon="5.70817">
        <ele>275.561515</ele>
        <time>2026-08-29T12:12:01.000Z</time>
      </trkpt>
      <trkpt lat="45.1112" lon="5.70812">
        <ele>275.516826</ele>
        <time>2026-08-29T12:12:02.000Z</time>
      </trkpt>
      <trkpt lat="45.11125" lon="5.70808">
        <ele>275.471387</ele>
        <time>2026-08-29T12:12:03.000Z</time>
      </trkpt>
      <trkpt lat="45.11131" lon="5.70803">
        <ele>275.425159</ele>
        <time>2026-08-29T12:12:04.000Z</time>
      </trkpt>
      <trkpt lat="45.11136" lon="5.70799">
        <ele>275.380442</ele>
        <time>2026-08-29T12:12:05.000Z</time>
      </trkpt>
      <trkpt lat="45.11142" lon="5.70794">
        <ele>275.333732</ele>
        <time>2026-08-29T12:12:06.000Z</time>
      </trkpt>
      <trkpt lat="45.11147" lon="5.7079">
        <ele>275.288399</ele>
        <time>2026-08-29T12:12:07.000Z</time>
      </trkpt>
      <trkpt lat="45.11153" lon="5.70786">
        <ele>275.24296</ele>
        <time>2026-08-29T12:12:08.000Z</time>
      </trkpt>
      <trkpt lat="45.11158" lon="5.70781">
        <ele>275.197521</ele>
        <time>2026-08-29T12:12:09.000Z</time>
      </trkpt>
      <trkpt lat="45.11163" lon="5.70777">
        <ele>275.151293</ele>
        <time>2026-08-29T12:12:10.000Z</time>
      </trkpt>
      <trkpt lat="45.11169" lon="5.70772">
        <ele>275.105068</ele>
        <time>2026-08-29T12:12:11.000Z</time>
      </trkpt>
      <trkpt lat="45.11174" lon="5.70768">
        <ele>275.058851</ele>
        <time>2026-08-29T12:12:12.000Z</time>
      </trkpt>
      <trkpt lat="45.1118" lon="5.70764">
        <ele>275.012381</ele>
        <time>2026-08-29T12:12:13.000Z</time>
      </trkpt>
      <trkpt lat="45.11185" lon="5.7076">
        <ele>274.965911</ele>
        <time>2026-08-29T12:12:14.000Z</time>
      </trkpt>
      <trkpt lat="45.1119" lon="5.70756">
        <ele>274.9201</ele>
        <time>2026-08-29T12:12:15.000Z</time>
      </trkpt>
      <trkpt lat="45.11196" lon="5.70751">
        <ele>274.873371</ele>
        <time>2026-08-29T12:12:16.000Z</time>
      </trkpt>
      <trkpt lat="45.11201" lon="5.70747">
        <ele>274.828602</ele>
        <time>2026-08-29T12:12:17.000Z</time>
      </trkpt>
      <trkpt lat="45.11206" lon="5.70742">
        <ele>274.783917</ele>
        <time>2026-08-29T12:12:18.000Z</time>
      </trkpt>
      <trkpt lat="45.11211" lon="5.70738">
        <ele>274.740337</ele>
        <time>2026-08-29T12:12:19.000Z</time>
      </trkpt>
      <trkpt lat="45.11216" lon="5.70734">
        <ele>274.695293</ele>
        <time>2026-08-29T12:12:20.000Z</time>
      </trkpt>
      <trkpt lat="45.11221" lon="5.7073">
        <ele>274.649873</ele>
        <time>2026-08-29T12:12:21.000Z</time>
      </trkpt>
      <trkpt lat="45.11226" lon="5.70725">
        <ele>274.604454</ele>
        <time>2026-08-29T12:12:22.000Z</time>
      </trkpt>
      <trkpt lat="45.11231" lon="5.70721">
        <ele>274.559409</ele>
        <time>2026-08-29T12:12:23.000Z</time>
      </trkpt>
      <trkpt lat="45.11236" lon="5.70717">
        <ele>274.514365</ele>
        <time>2026-08-29T12:12:24.000Z</time>
      </trkpt>
      <trkpt lat="45.11242" lon="5.70712">
        <ele>274.467895</ele>
        <time>2026-08-29T12:12:25.000Z</time>
      </trkpt>
      <trkpt lat="45.11247" lon="5.70708">
        <ele>274.421258</ele>
        <time>2026-08-29T12:12:26.000Z</time>
      </trkpt>
      <trkpt lat="45.11253" lon="5.70704">
        <ele>274.37529</ele>
        <time>2026-08-29T12:12:27.000Z</time>
      </trkpt>
      <trkpt lat="45.11258" lon="5.707">
        <ele>274.329218</ele>
        <time>2026-08-29T12:12:28.000Z</time>
      </trkpt>
      <trkpt lat="45.11263" lon="5.70696">
        <ele>274.282878</ele>
        <time>2026-08-29T12:12:29.000Z</time>
      </trkpt>
      <trkpt lat="45.11269" lon="5.70691">
        <ele>274.236268</ele>
        <time>2026-08-29T12:12:30.000Z</time>
      </trkpt>
      <trkpt lat="45.11274" lon="5.70687">
        <ele>274.189381</ele>
        <time>2026-08-29T12:12:31.000Z</time>
      </trkpt>
      <trkpt lat="45.11279" lon="5.70682">
        <ele>274.142911</ele>
        <time>2026-08-29T12:12:32.000Z</time>
      </trkpt>
      <trkpt lat="45.11285" lon="5.70678">
        <ele>274.0971</ele>
        <time>2026-08-29T12:12:33.000Z</time>
      </trkpt>
      <trkpt lat="45.1129" lon="5.70673">
        <ele>274.049292</ele>
        <time>2026-08-29T12:12:34.000Z</time>
      </trkpt>
      <trkpt lat="45.11295" lon="5.70669">
        <ele>274.002953</ele>
        <time>2026-08-29T12:12:35.000Z</time>
      </trkpt>
      <trkpt lat="45.11301" lon="5.70665">
        <ele>273.955306</ele>
        <time>2026-08-29T12:12:36.000Z</time>
      </trkpt>
      <trkpt lat="45.11306" lon="5.7066">
        <ele>273.907918</ele>
        <time>2026-08-29T12:12:37.000Z</time>
      </trkpt>
      <trkpt lat="45.11312" lon="5.70656">
        <ele>273.86053</ele>
        <time>2026-08-29T12:12:38.000Z</time>
      </trkpt>
      <trkpt lat="45.11317" lon="5.70652">
        <ele>273.813397</ele>
        <time>2026-08-29T12:12:39.000Z</time>
      </trkpt>
      <trkpt lat="45.11323" lon="5.70648">
        <ele>273.7645</ele>
        <time>2026-08-29T12:12:40.000Z</time>
      </trkpt>
      <trkpt lat="45.11329" lon="5.70644">
        <ele>273.739796</ele>
        <time>2026-08-29T12:12:41.000Z</time>
      </trkpt>
      <trkpt lat="45.11335" lon="5.70641">
        <ele>273.715737</ele>
        <time>2026-08-29T12:12:42.000Z</time>
      </trkpt>
      <trkpt lat="45.11341" lon="5.70639">
        <ele>273.691157</ele>
        <time>2026-08-29T12:12:43.000Z</time>
      </trkpt>
      <trkpt lat="45.11348" lon="5.70635">
        <ele>273.666316</ele>
        <time>2026-08-29T12:12:44.000Z</time>
      </trkpt>
      <trkpt lat="45.11354" lon="5.70631">
        <ele>273.641338</ele>
        <time>2026-08-29T12:12:45.000Z</time>
      </trkpt>
      <trkpt lat="45.11359" lon="5.70627">
        <ele>273.616599</ele>
        <time>2026-08-29T12:12:46.000Z</time>
      </trkpt>
      <trkpt lat="45.11365" lon="5.70623">
        <ele>273.592197</ele>
        <time>2026-08-29T12:12:47.000Z</time>
      </trkpt>
      <trkpt lat="45.11371" lon="5.70619">
        <ele>273.567553</ele>
        <time>2026-08-29T12:12:48.000Z</time>
      </trkpt>
      <trkpt lat="45.11377" lon="5.70614">
        <ele>273.54253</ele>
        <time>2026-08-29T12:12:49.000Z</time>
      </trkpt>
      <trkpt lat="45.11383" lon="5.70609">
        <ele>273.517244</ele>
        <time>2026-08-29T12:12:50.000Z</time>
      </trkpt>
      <trkpt lat="45.11388" lon="5.70605">
        <ele>273.492679</ele>
        <time>2026-08-29T12:12:51.000Z</time>
      </trkpt>
      <trkpt lat="45.11394" lon="5.706">
        <ele>273.468176</ele>
        <time>2026-08-29T12:12:52.000Z</time>
      </trkpt>
      <trkpt lat="45.11399" lon="5.70595">
        <ele>273.443996</ele>
        <time>2026-08-29T12:12:53.000Z</time>
      </trkpt>
      <trkpt lat="45.11405" lon="5.7059">
        <ele>273.418574</ele>
        <time>2026-08-29T12:12:54.000Z</time>
      </trkpt>
      <trkpt lat="45.11411" lon="5.70586">
        <ele>273.394394</ele>
        <time>2026-08-29T12:12:55.000Z</time>
      </trkpt>
      <trkpt lat="45.11416" lon="5.70581">
        <ele>273.370026</ele>
        <time>2026-08-29T12:12:56.000Z</time>
      </trkpt>
      <trkpt lat="45.11422" lon="5.70578">
        <ele>273.345983</ele>
        <time>2026-08-29T12:12:57.000Z</time>
      </trkpt>
      <trkpt lat="45.11428" lon="5.70577">
        <ele>273.323355</ele>
        <time>2026-08-29T12:12:58.000Z</time>
      </trkpt>
      <trkpt lat="45.11434" lon="5.70579">
        <ele>273.302033</ele>
        <time>2026-08-29T12:12:59.000Z</time>
      </trkpt>
      <trkpt lat="45.11439" lon="5.70581">
        <ele>273.280952</ele>
        <time>2026-08-29T12:13:00.000Z</time>
      </trkpt>
      <trkpt lat="45.11445" lon="5.70582">
        <ele>273.260331</ele>
        <time>2026-08-29T12:13:01.000Z</time>
      </trkpt>
      <trkpt lat="45.1145" lon="5.7058">
        <ele>273.240973</ele>
        <time>2026-08-29T12:13:02.000Z</time>
      </trkpt>
      <trkpt lat="45.11454" lon="5.70577">
        <ele>273.221386</ele>
        <time>2026-08-29T12:13:03.000Z</time>
      </trkpt>
      <trkpt lat="45.11459" lon="5.70572">
        <ele>273.200613</ele>
        <time>2026-08-29T12:13:04.000Z</time>
      </trkpt>
      <trkpt lat="45.11461" lon="5.70565">
        <ele>273.180629</ele>
        <time>2026-08-29T12:13:05.000Z</time>
      </trkpt>
      <trkpt lat="45.11463" lon="5.70558">
        <ele>273.160319</ele>
        <time>2026-08-29T12:13:06.000Z</time>
      </trkpt>
      <trkpt lat="45.11465" lon="5.70551">
        <ele>273.140374</ele>
        <time>2026-08-29T12:13:07.000Z</time>
      </trkpt>
      <trkpt lat="45.11467" lon="5.70544">
        <ele>273.11983</ele>
        <time>2026-08-29T12:13:08.000Z</time>
      </trkpt>
      <trkpt lat="45.11469" lon="5.70537">
        <ele>273.099049</ele>
        <time>2026-08-29T12:13:09.000Z</time>
      </trkpt>
      <trkpt lat="45.11473" lon="5.70531">
        <ele>273.073357</ele>
        <time>2026-08-29T12:13:10.000Z</time>
      </trkpt>
      <trkpt lat="45.11478" lon="5.70525">
        <ele>273.04515</ele>
        <time>2026-08-29T12:13:11.000Z</time>
      </trkpt>
      <trkpt lat="45.11483" lon="5.7052">
        <ele>273.01661</ele>
        <time>2026-08-29T12:13:12.000Z</time>
      </trkpt>
      <trkpt lat="45.11488" lon="5.70516">
        <ele>272.988415</ele>
        <time>2026-08-29T12:13:13.000Z</time>
      </trkpt>
      <trkpt lat="45.11493" lon="5.70511">
        <ele>272.959572</ele>
        <time>2026-08-29T12:13:14.000Z</time>
      </trkpt>
      <trkpt lat="45.11498" lon="5.70507">
        <ele>272.929732</ele>
        <time>2026-08-29T12:13:15.000Z</time>
      </trkpt>
      <trkpt lat="45.11503" lon="5.70503">
        <ele>272.900474</ele>
        <time>2026-08-29T12:13:16.000Z</time>
      </trkpt>
      <trkpt lat="45.11509" lon="5.70498">
        <ele>272.870876</ele>
        <time>2026-08-29T12:13:17.000Z</time>
      </trkpt>
      <trkpt lat="45.11514" lon="5.70494">
        <ele>272.841035</ele>
        <time>2026-08-29T12:13:18.000Z</time>
      </trkpt>
      <trkpt lat="45.1152" lon="5.70489">
        <ele>272.81036</ele>
        <time>2026-08-29T12:13:19.000Z</time>
      </trkpt>
      <trkpt lat="45.11525" lon="5.70485">
        <ele>272.78085</ele>
        <time>2026-08-29T12:13:20.000Z</time>
      </trkpt>
      <trkpt lat="45.11531" lon="5.70481">
        <ele>272.750593</ele>
        <time>2026-08-29T12:13:21.000Z</time>
      </trkpt>
      <trkpt lat="45.11536" lon="5.70476">
        <ele>272.720582</ele>
        <time>2026-08-29T12:13:22.000Z</time>
      </trkpt>
      <trkpt lat="45.11542" lon="5.70472">
        <ele>272.689987</ele>
        <time>2026-08-29T12:13:23.000Z</time>
      </trkpt>
      <trkpt lat="45.11547" lon="5.70467">
        <ele>272.659895</ele>
        <time>2026-08-29T12:13:24.000Z</time>
      </trkpt>
      <trkpt lat="45.11553" lon="5.70463">
        <ele>272.62922</ele>
        <time>2026-08-29T12:13:25.000Z</time>
      </trkpt>
      <trkpt lat="45.11558" lon="5.70458">
        <ele>272.598545</ele>
        <time>2026-08-29T12:13:26.000Z</time>
      </trkpt>
      <trkpt lat="45.11564" lon="5.70454">
        <ele>272.568032</ele>
        <time>2026-08-29T12:13:27.000Z</time>
      </trkpt>
      <trkpt lat="45.1157" lon="5.7045">
        <ele>272.536938</ele>
        <time>2026-08-29T12:13:28.000Z</time>
      </trkpt>
      <trkpt lat="45.11575" lon="5.70445">
        <ele>272.506681</ele>
        <time>2026-08-29T12:13:29.000Z</time>
      </trkpt>
      <trkpt lat="45.11581" lon="5.70441">
        <ele>272.476328</ele>
        <time>2026-08-29T12:13:30.000Z</time>
      </trkpt>
      <trkpt lat="45.11586" lon="5.70437">
        <ele>272.445733</ele>
        <time>2026-08-29T12:13:31.000Z</time>
      </trkpt>
      <trkpt lat="45.11592" lon="5.70432">
        <ele>272.416059</ele>
        <time>2026-08-29T12:13:32.000Z</time>
      </trkpt>
      <trkpt lat="45.11597" lon="5.70428">
        <ele>272.385876</ele>
        <time>2026-08-29T12:13:33.000Z</time>
      </trkpt>
      <trkpt lat="45.11602" lon="5.70423">
        <ele>272.355619</ele>
        <time>2026-08-29T12:13:34.000Z</time>
      </trkpt>
      <trkpt lat="45.11608" lon="5.70419">
        <ele>272.326692</ele>
        <time>2026-08-29T12:13:35.000Z</time>
      </trkpt>
      <trkpt lat="45.11613" lon="5.70415">
        <ele>272.297435</ele>
        <time>2026-08-29T12:13:36.000Z</time>
      </trkpt>
      <trkpt lat="45.11618" lon="5.7041">
        <ele>272.268421</ele>
        <time>2026-08-29T12:13:37.000Z</time>
      </trkpt>
      <trkpt lat="45.11623" lon="5.70406">
        <ele>272.239054</ele>
        <time>2026-08-29T12:13:38.000Z</time>
      </trkpt>
      <trkpt lat="45.11629" lon="5.70401">
        <ele>272.211597</ele>
        <time>2026-08-29T12:13:39.000Z</time>
      </trkpt>
      <trkpt lat="45.11634" lon="5.70397">
        <ele>272.1862</ele>
        <time>2026-08-29T12:13:40.000Z</time>
      </trkpt>
      <trkpt lat="45.1164" lon="5.70393">
        <ele>272.160803</ele>
        <time>2026-08-29T12:13:41.000Z</time>
      </trkpt>
      <trkpt lat="45.11645" lon="5.70388">
        <ele>272.134408</ele>
        <time>2026-08-29T12:13:42.000Z</time>
      </trkpt>
      <trkpt lat="45.11651" lon="5.70384">
        <ele>272.108511</ele>
        <time>2026-08-29T12:13:43.000Z</time>
      </trkpt>
      <trkpt lat="45.11656" lon="5.70379">
        <ele>272.082876</ele>
        <time>2026-08-29T12:13:44.000Z</time>
      </trkpt>
      <trkpt lat="45.11661" lon="5.70374">
        <ele>272.057393</ele>
        <time>2026-08-29T12:13:45.000Z</time>
      </trkpt>
      <trkpt lat="45.11667" lon="5.7037">
        <ele>272.031777</ele>
        <time>2026-08-29T12:13:46.000Z</time>
      </trkpt>
      <trkpt lat="45.11672" lon="5.70366">
        <ele>272.006021</ele>
        <time>2026-08-29T12:13:47.000Z</time>
      </trkpt>
      <trkpt lat="45.11678" lon="5.70362">
        <ele>271.980266</ele>
        <time>2026-08-29T12:13:48.000Z</time>
      </trkpt>
      <trkpt lat="45.11683" lon="5.70357">
        <ele>271.955368</ele>
        <time>2026-08-29T12:13:49.000Z</time>
      </trkpt>
      <trkpt lat="45.11688" lon="5.70353">
        <ele>271.930683</ele>
        <time>2026-08-29T12:13:50.000Z</time>
      </trkpt>
      <trkpt lat="45.11693" lon="5.70349">
        <ele>271.906202</ele>
        <time>2026-08-29T12:13:51.000Z</time>
      </trkpt>
      <trkpt lat="45.11699" lon="5.70345">
        <ele>271.881444</ele>
        <time>2026-08-29T12:13:52.000Z</time>
      </trkpt>
      <trkpt lat="45.11704" lon="5.70341">
        <ele>271.856823</ele>
        <time>2026-08-29T12:13:53.000Z</time>
      </trkpt>
      <trkpt lat="45.11709" lon="5.70337">
        <ele>271.832782</ele>
        <time>2026-08-29T12:13:54.000Z</time>
      </trkpt>
      <trkpt lat="45.11714" lon="5.70332">
        <ele>271.808241</ele>
        <time>2026-08-29T12:13:55.000Z</time>
      </trkpt>
      <trkpt lat="45.1172" lon="5.70328">
        <ele>271.783483</ele>
        <time>2026-08-29T12:13:56.000Z</time>
      </trkpt>
      <trkpt lat="45.11725" lon="5.70324">
        <ele>271.758943</ele>
        <time>2026-08-29T12:13:57.000Z</time>
      </trkpt>
      <trkpt lat="45.1173" lon="5.7032">
        <ele>271.733902</ele>
        <time>2026-08-29T12:13:58.000Z</time>
      </trkpt>
      <trkpt lat="45.11735" lon="5.70315">
        <ele>271.70907</ele>
        <time>2026-08-29T12:13:59.000Z</time>
      </trkpt>
      <trkpt lat="45.11741" lon="5.70311">
        <ele>271.683885</ele>
        <time>2026-08-29T12:14:00.000Z</time>
      </trkpt>
      <trkpt lat="45.11746" lon="5.70307">
        <ele>271.659127</ele>
        <time>2026-08-29T12:14:01.000Z</time>
      </trkpt>
      <trkpt lat="45.11751" lon="5.70303">
        <ele>271.635585</ele>
        <time>2026-08-29T12:14:02.000Z</time>
      </trkpt>
      <trkpt lat="45.11756" lon="5.70299">
        <ele>271.610964</ele>
        <time>2026-08-29T12:14:03.000Z</time>
      </trkpt>
      <trkpt lat="45.11761" lon="5.70295">
        <ele>271.586779</ele>
        <time>2026-08-29T12:14:04.000Z</time>
      </trkpt>
      <trkpt lat="45.11766" lon="5.70291">
        <ele>271.563447</ele>
        <time>2026-08-29T12:14:05.000Z</time>
      </trkpt>
      <trkpt lat="45.11771" lon="5.70286">
        <ele>271.540116</ele>
        <time>2026-08-29T12:14:06.000Z</time>
      </trkpt>
      <trkpt lat="45.11776" lon="5.70282">
        <ele>271.516284</ele>
        <time>2026-08-29T12:14:07.000Z</time>
      </trkpt>
      <trkpt lat="45.11781" lon="5.70278">
        <ele>271.492243</ele>
        <time>2026-08-29T12:14:08.000Z</time>
      </trkpt>
      <trkpt lat="45.11786" lon="5.70274">
        <ele>271.461094</ele>
        <time>2026-08-29T12:14:09.000Z</time>
      </trkpt>
      <trkpt lat="45.11792" lon="5.7027">
        <ele>271.428359</ele>
        <time>2026-08-29T12:14:10.000Z</time>
      </trkpt>
      <trkpt lat="45.11797" lon="5.70266">
        <ele>271.396025</ele>
        <time>2026-08-29T12:14:11.000Z</time>
      </trkpt>
      <trkpt lat="45.11802" lon="5.70262">
        <ele>271.362739</ele>
        <time>2026-08-29T12:14:12.000Z</time>
      </trkpt>
      <trkpt lat="45.11807" lon="5.70258">
        <ele>271.329453</ele>
        <time>2026-08-29T12:14:13.000Z</time>
      </trkpt>
      <trkpt lat="45.11813" lon="5.70253">
        <ele>271.296451</ele>
        <time>2026-08-29T12:14:14.000Z</time>
      </trkpt>
      <trkpt lat="45.11818" lon="5.70249">
        <ele>271.262781</ele>
        <time>2026-08-29T12:14:15.000Z</time>
      </trkpt>
      <trkpt lat="45.11823" lon="5.70244">
        <ele>271.228637</ele>
        <time>2026-08-29T12:14:16.000Z</time>
      </trkpt>
      <trkpt lat="45.11829" lon="5.7024">
        <ele>271.195351</ele>
        <time>2026-08-29T12:14:17.000Z</time>
      </trkpt>
      <trkpt lat="45.11834" lon="5.70236">
        <ele>271.162622</ele>
        <time>2026-08-29T12:14:18.000Z</time>
      </trkpt>
      <trkpt lat="45.11839" lon="5.70231">
        <ele>271.128952</ele>
        <time>2026-08-29T12:14:19.000Z</time>
      </trkpt>
      <trkpt lat="45.11844" lon="5.70227">
        <ele>271.095666</ele>
        <time>2026-08-29T12:14:20.000Z</time>
      </trkpt>
      <trkpt lat="45.11849" lon="5.70223">
        <ele>271.062664</ele>
        <time>2026-08-29T12:14:21.000Z</time>
      </trkpt>
      <trkpt lat="45.11855" lon="5.70218">
        <ele>271.029526</ele>
        <time>2026-08-29T12:14:22.000Z</time>
      </trkpt>
      <trkpt lat="45.1186" lon="5.70214">
        <ele>270.997466</ele>
        <time>2026-08-29T12:14:23.000Z</time>
      </trkpt>
      <trkpt lat="45.11865" lon="5.7021">
        <ele>270.965034</ele>
        <time>2026-08-29T12:14:24.000Z</time>
      </trkpt>
      <trkpt lat="45.1187" lon="5.70206">
        <ele>270.931935</ele>
        <time>2026-08-29T12:14:25.000Z</time>
      </trkpt>
      <trkpt lat="45.11875" lon="5.70202">
        <ele>270.900075</ele>
        <time>2026-08-29T12:14:26.000Z</time>
      </trkpt>
      <trkpt lat="45.1188" lon="5.70197">
        <ele>270.868015</ele>
        <time>2026-08-29T12:14:27.000Z</time>
      </trkpt>
      <trkpt lat="45.11885" lon="5.70193">
        <ele>270.835206</ele>
        <time>2026-08-29T12:14:28.000Z</time>
      </trkpt>
      <trkpt lat="45.11891" lon="5.70189">
        <ele>270.802471</ele>
        <time>2026-08-29T12:14:29.000Z</time>
      </trkpt>
      <trkpt lat="45.11896" lon="5.70185">
        <ele>270.77052</ele>
        <time>2026-08-29T12:14:30.000Z</time>
      </trkpt>
      <trkpt lat="45.11901" lon="5.70181">
        <ele>270.737321</ele>
        <time>2026-08-29T12:14:31.000Z</time>
      </trkpt>
      <trkpt lat="45.11906" lon="5.70177">
        <ele>270.704513</ele>
        <time>2026-08-29T12:14:32.000Z</time>
      </trkpt>
      <trkpt lat="45.11911" lon="5.70173">
        <ele>270.671414</ele>
        <time>2026-08-29T12:14:33.000Z</time>
      </trkpt>
      <trkpt lat="45.11917" lon="5.70168">
        <ele>270.638606</ele>
        <time>2026-08-29T12:14:34.000Z</time>
      </trkpt>
      <trkpt lat="45.11922" lon="5.70164">
        <ele>270.604936</ele>
        <time>2026-08-29T12:14:35.000Z</time>
      </trkpt>
      <trkpt lat="45.11927" lon="5.7016">
        <ele>270.572406</ele>
        <time>2026-08-29T12:14:36.000Z</time>
      </trkpt>
      <trkpt lat="45.11932" lon="5.70155">
        <ele>270.539404</ele>
        <time>2026-08-29T12:14:37.000Z</time>
      </trkpt>
      <trkpt lat="45.11937" lon="5.70151">
        <ele>270.506006</ele>
        <time>2026-08-29T12:14:38.000Z</time>
      </trkpt>
      <trkpt lat="45.11943" lon="5.70147">
        <ele>270.48444</ele>
        <time>2026-08-29T12:14:39.000Z</time>
      </trkpt>
      <trkpt lat="45.11948" lon="5.70142">
        <ele>270.464385</ele>
        <time>2026-08-29T12:14:40.000Z</time>
      </trkpt>
      <trkpt lat="45.11954" lon="5.70138">
        <ele>270.44422</ele>
        <time>2026-08-29T12:14:41.000Z</time>
      </trkpt>
      <trkpt lat="45.11959" lon="5.70134">
        <ele>270.423555</ele>
        <time>2026-08-29T12:14:42.000Z</time>
      </trkpt>
      <trkpt lat="45.11965" lon="5.70129">
        <ele>270.40333</ele>
        <time>2026-08-29T12:14:43.000Z</time>
      </trkpt>
      <trkpt lat="45.1197" lon="5.70124">
        <ele>270.382828</ele>
        <time>2026-08-29T12:14:44.000Z</time>
      </trkpt>
      <trkpt lat="45.11976" lon="5.7012">
        <ele>270.362274</ele>
        <time>2026-08-29T12:14:45.000Z</time>
      </trkpt>
      <trkpt lat="45.11981" lon="5.70116">
        <ele>270.342324</ele>
        <time>2026-08-29T12:14:46.000Z</time>
      </trkpt>
      <trkpt lat="45.11987" lon="5.70112">
        <ele>270.32216</ele>
        <time>2026-08-29T12:14:47.000Z</time>
      </trkpt>
      <trkpt lat="45.11992" lon="5.70107">
        <ele>270.301886</ele>
        <time>2026-08-29T12:14:48.000Z</time>
      </trkpt>
      <trkpt lat="45.11998" lon="5.70103">
        <ele>270.281499</ele>
        <time>2026-08-29T12:14:49.000Z</time>
      </trkpt>
      <trkpt lat="45.12003" lon="5.70098">
        <ele>270.261112</ele>
        <time>2026-08-29T12:14:50.000Z</time>
      </trkpt>
      <trkpt lat="45.12009" lon="5.70094">
        <ele>270.240837</ele>
        <time>2026-08-29T12:14:51.000Z</time>
      </trkpt>
      <trkpt lat="45.12015" lon="5.70089">
        <ele>270.219781</ele>
        <time>2026-08-29T12:14:52.000Z</time>
      </trkpt>
      <trkpt lat="45.1202" lon="5.70085">
        <ele>270.199164</ele>
        <time>2026-08-29T12:14:53.000Z</time>
      </trkpt>
      <trkpt lat="45.12026" lon="5.7008">
        <ele>270.178663</ele>
        <time>2026-08-29T12:14:54.000Z</time>
      </trkpt>
      <trkpt lat="45.12031" lon="5.70075">
        <ele>270.158046</ele>
        <time>2026-08-29T12:14:55.000Z</time>
      </trkpt>
      <trkpt lat="45.12037" lon="5.70071">
        <ele>270.137268</ele>
        <time>2026-08-29T12:14:56.000Z</time>
      </trkpt>
      <trkpt lat="45.12042" lon="5.70066">
        <ele>270.116489</ele>
        <time>2026-08-29T12:14:57.000Z</time>
      </trkpt>
      <trkpt lat="45.12048" lon="5.70062">
        <ele>270.095935</ele>
        <time>2026-08-29T12:14:58.000Z</time>
      </trkpt>
      <trkpt lat="45.12054" lon="5.70057">
        <ele>270.075099</ele>
        <time>2026-08-29T12:14:59.000Z</time>
      </trkpt>
      <trkpt lat="45.12059" lon="5.70053">
        <ele>270.054086</ele>
        <time>2026-08-29T12:15:00.000Z</time>
      </trkpt>
      <trkpt lat="45.12065" lon="5.70048">
        <ele>270.033469</ele>
        <time>2026-08-29T12:15:01.000Z</time>
      </trkpt>
      <trkpt lat="45.1207" lon="5.70043">
        <ele>270.013155</ele>
        <time>2026-08-29T12:15:02.000Z</time>
      </trkpt>
      <trkpt lat="45.12076" lon="5.70039">
        <ele>269.99249</ele>
        <time>2026-08-29T12:15:03.000Z</time>
      </trkpt>
      <trkpt lat="45.12081" lon="5.70034">
        <ele>269.971824</ele>
        <time>2026-08-29T12:15:04.000Z</time>
      </trkpt>
      <trkpt lat="45.12087" lon="5.7003">
        <ele>269.951941</ele>
        <time>2026-08-29T12:15:05.000Z</time>
      </trkpt>
      <trkpt lat="45.12092" lon="5.70026">
        <ele>269.932167</ele>
        <time>2026-08-29T12:15:06.000Z</time>
      </trkpt>
      <trkpt lat="45.12098" lon="5.70022">
        <ele>269.922606</ele>
        <time>2026-08-29T12:15:07.000Z</time>
      </trkpt>
      <trkpt lat="45.12103" lon="5.70017">
        <ele>269.919523</ele>
        <time>2026-08-29T12:15:08.000Z</time>
      </trkpt>
      <trkpt lat="45.12108" lon="5.70013">
        <ele>269.916422</ele>
        <time>2026-08-29T12:15:09.000Z</time>
      </trkpt>
      <trkpt lat="45.12114" lon="5.70009">
        <ele>269.913241</ele>
        <time>2026-08-29T12:15:10.000Z</time>
      </trkpt>
      <trkpt lat="45.12119" lon="5.70004">
        <ele>269.910154</ele>
        <time>2026-08-29T12:15:11.000Z</time>
      </trkpt>
      <trkpt lat="45.12124" lon="5.7">
        <ele>269.906999</ele>
        <time>2026-08-29T12:15:12.000Z</time>
      </trkpt>
      <trkpt lat="45.12129" lon="5.69995">
        <ele>269.903836</ele>
        <time>2026-08-29T12:15:13.000Z</time>
      </trkpt>
      <trkpt lat="45.12135" lon="5.69991">
        <ele>269.900663</ele>
        <time>2026-08-29T12:15:14.000Z</time>
      </trkpt>
      <trkpt lat="45.1214" lon="5.69986">
        <ele>269.897513</ele>
        <time>2026-08-29T12:15:15.000Z</time>
      </trkpt>
      <trkpt lat="45.12145" lon="5.69982">
        <ele>269.894377</ele>
        <time>2026-08-29T12:15:16.000Z</time>
      </trkpt>
      <trkpt lat="45.12151" lon="5.69978">
        <ele>269.891203</ele>
        <time>2026-08-29T12:15:17.000Z</time>
      </trkpt>
      <trkpt lat="45.12156" lon="5.69974">
        <ele>269.88812</ele>
        <time>2026-08-29T12:15:18.000Z</time>
      </trkpt>
      <trkpt lat="45.12161" lon="5.69969">
        <ele>269.885045</ele>
        <time>2026-08-29T12:15:19.000Z</time>
      </trkpt>
      <trkpt lat="45.12166" lon="5.69965">
        <ele>269.882015</ele>
        <time>2026-08-29T12:15:20.000Z</time>
      </trkpt>
      <trkpt lat="45.12171" lon="5.69961">
        <ele>269.879053</ele>
        <time>2026-08-29T12:15:21.000Z</time>
      </trkpt>
      <trkpt lat="45.12176" lon="5.69956">
        <ele>269.876091</ele>
        <time>2026-08-29T12:15:22.000Z</time>
      </trkpt>
      <trkpt lat="45.12181" lon="5.69952">
        <ele>269.873023</ele>
        <time>2026-08-29T12:15:23.000Z</time>
      </trkpt>
      <trkpt lat="45.12186" lon="5.69947">
        <ele>269.869949</ele>
        <time>2026-08-29T12:15:24.000Z</time>
      </trkpt>
      <trkpt lat="45.12192" lon="5.69943">
        <ele>269.866899</ele>
        <time>2026-08-29T12:15:25.000Z</time>
      </trkpt>
      <trkpt lat="45.12197" lon="5.6994">
        <ele>269.863804</ele>
        <time>2026-08-29T12:15:26.000Z</time>
      </trkpt>
      <trkpt lat="45.12202" lon="5.69936">
        <ele>269.860783</ele>
        <time>2026-08-29T12:15:27.000Z</time>
      </trkpt>
      <trkpt lat="45.12208" lon="5.69932">
        <ele>269.857642</ele>
        <time>2026-08-29T12:15:28.000Z</time>
      </trkpt>
      <trkpt lat="45.12213" lon="5.69928">
        <ele>269.854564</ele>
        <time>2026-08-29T12:15:29.000Z</time>
      </trkpt>
      <trkpt lat="45.12218" lon="5.69924">
        <ele>269.851587</ele>
        <time>2026-08-29T12:15:30.000Z</time>
      </trkpt>
      <trkpt lat="45.12223" lon="5.69919">
        <ele>269.848494</ele>
        <time>2026-08-29T12:15:31.000Z</time>
      </trkpt>
      <trkpt lat="45.12229" lon="5.69915">
        <ele>269.845394</ele>
        <time>2026-08-29T12:15:32.000Z</time>
      </trkpt>
      <trkpt lat="45.12234" lon="5.69911">
        <ele>269.842355</ele>
        <time>2026-08-29T12:15:33.000Z</time>
      </trkpt>
      <trkpt lat="45.12239" lon="5.69907">
        <ele>269.839271</ele>
        <time>2026-08-29T12:15:34.000Z</time>
      </trkpt>
      <trkpt lat="45.12244" lon="5.69903">
        <ele>269.836215</ele>
        <time>2026-08-29T12:15:35.000Z</time>
      </trkpt>
      <trkpt lat="45.1225" lon="5.69899">
        <ele>269.833185</ele>
        <time>2026-08-29T12:15:36.000Z</time>
      </trkpt>
      <trkpt lat="45.12255" lon="5.69895">
        <ele>269.797676</ele>
        <time>2026-08-29T12:15:37.000Z</time>
      </trkpt>
      <trkpt lat="45.1226" lon="5.6989">
        <ele>269.755938</ele>
        <time>2026-08-29T12:15:38.000Z</time>
      </trkpt>
      <trkpt lat="45.12265" lon="5.69886">
        <ele>269.712993</ele>
        <time>2026-08-29T12:15:39.000Z</time>
      </trkpt>
      <trkpt lat="45.1227" lon="5.69882">
        <ele>269.671568</ele>
        <time>2026-08-29T12:15:40.000Z</time>
      </trkpt>
      <trkpt lat="45.12275" lon="5.69878">
        <ele>269.631146</ele>
        <time>2026-08-29T12:15:41.000Z</time>
      </trkpt>
      <trkpt lat="45.12279" lon="5.69874">
        <ele>269.592568</ele>
        <time>2026-08-29T12:15:42.000Z</time>
      </trkpt>
      <trkpt lat="45.12284" lon="5.6987">
        <ele>269.556115</ele>
        <time>2026-08-29T12:15:43.000Z</time>
      </trkpt>
      <trkpt lat="45.12289" lon="5.69868">
        <ele>269.516637</ele>
        <time>2026-08-29T12:15:44.000Z</time>
      </trkpt>
      <trkpt lat="45.12295" lon="5.69866">
        <ele>269.474959</ele>
        <time>2026-08-29T12:15:45.000Z</time>
      </trkpt>
      <trkpt lat="45.123" lon="5.69863">
        <ele>269.433856</ele>
        <time>2026-08-29T12:15:46.000Z</time>
      </trkpt>
      <trkpt lat="45.12305" lon="5.69859">
        <ele>269.392486</ele>
        <time>2026-08-29T12:15:47.000Z</time>
      </trkpt>
      <trkpt lat="45.1231" lon="5.69856">
        <ele>269.353666</ele>
        <time>2026-08-29T12:15:48.000Z</time>
      </trkpt>
      <trkpt lat="45.12315" lon="5.69852">
        <ele>269.312623</ele>
        <time>2026-08-29T12:15:49.000Z</time>
      </trkpt>
      <trkpt lat="45.1232" lon="5.69847">
        <ele>269.270816</ele>
        <time>2026-08-29T12:15:50.000Z</time>
      </trkpt>
      <trkpt lat="45.12324" lon="5.69842">
        <ele>269.230461</ele>
        <time>2026-08-29T12:15:51.000Z</time>
      </trkpt>
      <trkpt lat="45.12328" lon="5.69835">
        <ele>269.188338</ele>
        <time>2026-08-29T12:15:52.000Z</time>
      </trkpt>
      <trkpt lat="45.12331" lon="5.69829">
        <ele>269.146302</ele>
        <time>2026-08-29T12:15:53.000Z</time>
      </trkpt>
      <trkpt lat="45.12335" lon="5.69822">
        <ele>269.1028</ele>
        <time>2026-08-29T12:15:54.000Z</time>
      </trkpt>
      <trkpt lat="45.1234" lon="5.69817">
        <ele>269.056682</ele>
        <time>2026-08-29T12:15:55.000Z</time>
      </trkpt>
      <trkpt lat="45.12345" lon="5.69811">
        <ele>269.014368</ele>
        <time>2026-08-29T12:15:56.000Z</time>
      </trkpt>
      <trkpt lat="45.1235" lon="5.69807">
        <ele>268.969731</ele>
        <time>2026-08-29T12:15:57.000Z</time>
      </trkpt>
      <trkpt lat="45.12356" lon="5.69802">
        <ele>268.925823</ele>
        <time>2026-08-29T12:15:58.000Z</time>
      </trkpt>
      <trkpt lat="45.12361" lon="5.69798">
        <ele>268.88261</ele>
        <time>2026-08-29T12:15:59.000Z</time>
      </trkpt>
      <trkpt lat="45.12366" lon="5.69793">
        <ele>268.840596</ele>
        <time>2026-08-29T12:16:00.000Z</time>
      </trkpt>
      <trkpt lat="45.1237" lon="5.69789">
        <ele>268.799733</ele>
        <time>2026-08-29T12:16:01.000Z</time>
      </trkpt>
      <trkpt lat="45.12375" lon="5.69785">
        <ele>268.76043</ele>
        <time>2026-08-29T12:16:02.000Z</time>
      </trkpt>
      <trkpt lat="45.1238" lon="5.69781">
        <ele>268.721844</ele>
        <time>2026-08-29T12:16:03.000Z</time>
      </trkpt>
      <trkpt lat="45.12384" lon="5.69778">
        <ele>268.685526</ele>
        <time>2026-08-29T12:16:04.000Z</time>
      </trkpt>
      <trkpt lat="45.12389" lon="5.69775">
        <ele>268.649116</ele>
        <time>2026-08-29T12:16:05.000Z</time>
      </trkpt>
      <trkpt lat="45.12394" lon="5.69772">
        <ele>268.613733</ele>
        <time>2026-08-29T12:16:06.000Z</time>
      </trkpt>
      <trkpt lat="45.12398" lon="5.6977">
        <ele>268.578022</ele>
        <time>2026-08-29T12:16:07.000Z</time>
      </trkpt>
      <trkpt lat="45.12403" lon="5.69768">
        <ele>268.541709</ele>
        <time>2026-08-29T12:16:08.000Z</time>
      </trkpt>
      <trkpt lat="45.12407" lon="5.69766">
        <ele>268.506357</ele>
        <time>2026-08-29T12:16:09.000Z</time>
      </trkpt>
      <trkpt lat="45.12412" lon="5.69765">
        <ele>268.469547</ele>
        <time>2026-08-29T12:16:10.000Z</time>
      </trkpt>
      <trkpt lat="45.12417" lon="5.69766">
        <ele>268.432029</ele>
        <time>2026-08-29T12:16:11.000Z</time>
      </trkpt>
      <trkpt lat="45.12421" lon="5.69767">
        <ele>268.400502</ele>
        <time>2026-08-29T12:16:12.000Z</time>
      </trkpt>
      <trkpt lat="45.12424" lon="5.69768">
        <ele>268.368402</ele>
        <time>2026-08-29T12:16:13.000Z</time>
      </trkpt>
      <trkpt lat="45.12428" lon="5.6977">
        <ele>268.335082</ele>
        <time>2026-08-29T12:16:14.000Z</time>
      </trkpt>
      <trkpt lat="45.12433" lon="5.69771">
        <ele>268.299101</ele>
        <time>2026-08-29T12:16:15.000Z</time>
      </trkpt>
      <trkpt lat="45.12438" lon="5.69772">
        <ele>268.26</ele>
        <time>2026-08-29T12:16:16.000Z</time>
      </trkpt>
      <trkpt lat="45.12443" lon="5.69774">
        <ele>268.218198</ele>
        <time>2026-08-29T12:16:17.000Z</time>
      </trkpt>
      <trkpt lat="45.12448" lon="5.69775">
        <ele>268.178422</ele>
        <time>2026-08-29T12:16:18.000Z</time>
      </trkpt>
      <trkpt lat="45.12453" lon="5.69777">
        <ele>268.136487</ele>
        <time>2026-08-29T12:16:19.000Z</time>
      </trkpt>
      <trkpt lat="45.12458" lon="5.6978">
        <ele>268.092104</ele>
        <time>2026-08-29T12:16:20.000Z</time>
      </trkpt>
      <trkpt lat="45.12462" lon="5.69785">
        <ele>268.051258</ele>
        <time>2026-08-29T12:16:21.000Z</time>
      </trkpt>
      <trkpt lat="45.12466" lon="5.6979">
        <ele>268.008101</ele>
        <time>2026-08-29T12:16:22.000Z</time>
      </trkpt>
      <trkpt lat="45.1247" lon="5.69794">
        <ele>267.964798</ele>
        <time>2026-08-29T12:16:23.000Z</time>
      </trkpt>
      <trkpt lat="45.12475" lon="5.69798">
        <ele>267.922316</ele>
        <time>2026-08-29T12:16:24.000Z</time>
      </trkpt>
      <trkpt lat="45.1248" lon="5.69802">
        <ele>267.879834</ele>
        <time>2026-08-29T12:16:25.000Z</time>
      </trkpt>
      <trkpt lat="45.12485" lon="5.69804">
        <ele>267.838087</ele>
        <time>2026-08-29T12:16:26.000Z</time>
      </trkpt>
      <trkpt lat="45.1249" lon="5.69806">
        <ele>267.795097</ele>
        <time>2026-08-29T12:16:27.000Z</time>
      </trkpt>
      <trkpt lat="45.12495" lon="5.69808">
        <ele>267.753935</ele>
        <time>2026-08-29T12:16:28.000Z</time>
      </trkpt>
      <trkpt lat="45.125" lon="5.6981">
        <ele>267.714171</ele>
        <time>2026-08-29T12:16:29.000Z</time>
      </trkpt>
      <trkpt lat="45.12505" lon="5.69812">
        <ele>267.672236</ele>
        <time>2026-08-29T12:16:30.000Z</time>
      </trkpt>
      <trkpt lat="45.1251" lon="5.69814">
        <ele>267.629527</ele>
        <time>2026-08-29T12:16:31.000Z</time>
      </trkpt>
      <trkpt lat="45.12515" lon="5.69815">
        <ele>267.584728</ele>
        <time>2026-08-29T12:16:32.000Z</time>
      </trkpt>
      <trkpt lat="45.12521" lon="5.69817">
        <ele>267.537876</ele>
        <time>2026-08-29T12:16:33.000Z</time>
      </trkpt>
      <trkpt lat="45.12527" lon="5.69819">
        <ele>267.492295</ele>
        <time>2026-08-29T12:16:34.000Z</time>
      </trkpt>
      <trkpt lat="45.12532" lon="5.6982">
        <ele>267.445932</ele>
        <time>2026-08-29T12:16:35.000Z</time>
      </trkpt>
      <trkpt lat="45.12538" lon="5.69822">
        <ele>267.400655</ele>
        <time>2026-08-29T12:16:36.000Z</time>
      </trkpt>
      <trkpt lat="45.12543" lon="5.69823">
        <ele>267.356855</ele>
        <time>2026-08-29T12:16:37.000Z</time>
      </trkpt>
      <trkpt lat="45.12549" lon="5.69825">
        <ele>267.314145</ele>
        <time>2026-08-29T12:16:38.000Z</time>
      </trkpt>
      <trkpt lat="45.12554" lon="5.69827">
        <ele>267.268976</ele>
        <time>2026-08-29T12:16:39.000Z</time>
      </trkpt>
      <trkpt lat="45.1256" lon="5.69828">
        <ele>267.223699</ele>
        <time>2026-08-29T12:16:40.000Z</time>
      </trkpt>
      <trkpt lat="45.12565" lon="5.69829">
        <ele>267.180087</ele>
        <time>2026-08-29T12:16:41.000Z</time>
      </trkpt>
      <trkpt lat="45.12571" lon="5.69831">
        <ele>267.133235</ele>
        <time>2026-08-29T12:16:42.000Z</time>
      </trkpt>
      <trkpt lat="45.12577" lon="5.69832">
        <ele>267.102131</ele>
        <time>2026-08-29T12:16:43.000Z</time>
      </trkpt>
      <trkpt lat="45.12582" lon="5.69834">
        <ele>267.08586</ele>
        <time>2026-08-29T12:16:44.000Z</time>
      </trkpt>
      <trkpt lat="45.12587" lon="5.69837">
        <ele>267.070708</ele>
        <time>2026-08-29T12:16:45.000Z</time>
      </trkpt>
      <trkpt lat="45.12591" lon="5.69838">
        <ele>267.057592</ele>
        <time>2026-08-29T12:16:46.000Z</time>
      </trkpt>
      <trkpt lat="45.12596" lon="5.69839">
        <ele>267.043961</ele>
        <time>2026-08-29T12:16:47.000Z</time>
      </trkpt>
      <trkpt lat="45.126" lon="5.6984">
        <ele>267.03062</ele>
        <time>2026-08-29T12:16:48.000Z</time>
      </trkpt>
      <trkpt lat="45.12605" lon="5.6984">
        <ele>267.01757</ele>
        <time>2026-08-29T12:16:49.000Z</time>
      </trkpt>
      <trkpt lat="45.12609" lon="5.69842">
        <ele>267.004089</ele>
        <time>2026-08-29T12:16:50.000Z</time>
      </trkpt>
      <trkpt lat="45.12614" lon="5.69843">
        <ele>266.990805</ele>
        <time>2026-08-29T12:16:51.000Z</time>
      </trkpt>
      <trkpt lat="45.12618" lon="5.69844">
        <ele>266.976786</ele>
        <time>2026-08-29T12:16:52.000Z</time>
      </trkpt>
      <trkpt lat="45.12623" lon="5.69845">
        <ele>266.962834</ele>
        <time>2026-08-29T12:16:53.000Z</time>
      </trkpt>
      <trkpt lat="45.12628" lon="5.69847">
        <ele>266.948777</ele>
        <time>2026-08-29T12:16:54.000Z</time>
      </trkpt>
      <trkpt lat="45.12633" lon="5.69848">
        <ele>266.933112</ele>
        <time>2026-08-29T12:16:55.000Z</time>
      </trkpt>
      <trkpt lat="45.12638" lon="5.6985">
        <ele>266.916918</ele>
        <time>2026-08-29T12:16:56.000Z</time>
      </trkpt>
      <trkpt lat="45.12644" lon="5.69852">
        <ele>266.9003</ele>
        <time>2026-08-29T12:16:57.000Z</time>
      </trkpt>
      <trkpt lat="45.1265" lon="5.69854">
        <ele>266.882727</ele>
        <time>2026-08-29T12:16:58.000Z</time>
      </trkpt>
      <trkpt lat="45.12656" lon="5.69856">
        <ele>266.864437</ele>
        <time>2026-08-29T12:16:59.000Z</time>
      </trkpt>
      <trkpt lat="45.12662" lon="5.69858">
        <ele>266.846434</ele>
        <time>2026-08-29T12:17:00.000Z</time>
      </trkpt>
      <trkpt lat="45.12667" lon="5.6986">
        <ele>266.829481</ele>
        <time>2026-08-29T12:17:01.000Z</time>
      </trkpt>
      <trkpt lat="45.12673" lon="5.69861">
        <ele>266.812095</ele>
        <time>2026-08-29T12:17:02.000Z</time>
      </trkpt>
      <trkpt lat="45.12679" lon="5.69863">
        <ele>266.793383</ele>
        <time>2026-08-29T12:17:03.000Z</time>
      </trkpt>
      <trkpt lat="45.12685" lon="5.69865">
        <ele>266.775622</ele>
        <time>2026-08-29T12:17:04.000Z</time>
      </trkpt>
      <trkpt lat="45.12692" lon="5.69867">
        <ele>266.756956</ele>
        <time>2026-08-29T12:17:05.000Z</time>
      </trkpt>
      <trkpt lat="45.12698" lon="5.69869">
        <ele>266.738814</ele>
        <time>2026-08-29T12:17:06.000Z</time>
      </trkpt>
      <trkpt lat="45.12703" lon="5.69872">
        <ele>266.721473</ele>
        <time>2026-08-29T12:17:07.000Z</time>
      </trkpt>
      <trkpt lat="45.12709" lon="5.69873">
        <ele>266.70347</ele>
        <time>2026-08-29T12:17:08.000Z</time>
      </trkpt>
      <trkpt lat="45.12715" lon="5.69875">
        <ele>266.685376</ele>
        <time>2026-08-29T12:17:09.000Z</time>
      </trkpt>
      <trkpt lat="45.12721" lon="5.69877">
        <ele>266.666997</ele>
        <time>2026-08-29T12:17:10.000Z</time>
      </trkpt>
      <trkpt lat="45.12727" lon="5.69879">
        <ele>266.648663</ele>
        <time>2026-08-29T12:17:11.000Z</time>
      </trkpt>
      <trkpt lat="45.12733" lon="5.69881">
        <ele>266.63233</ele>
        <time>2026-08-29T12:17:12.000Z</time>
      </trkpt>
      <trkpt lat="45.12738" lon="5.69883">
        <ele>266.615378</ele>
        <time>2026-08-29T12:17:13.000Z</time>
      </trkpt>
      <trkpt lat="45.12744" lon="5.69885">
        <ele>266.598425</ele>
        <time>2026-08-29T12:17:14.000Z</time>
      </trkpt>
      <trkpt lat="45.12749" lon="5.69887">
        <ele>266.584327</ele>
        <time>2026-08-29T12:17:15.000Z</time>
      </trkpt>
      <trkpt lat="45.12754" lon="5.69888">
        <ele>266.568804</ele>
        <time>2026-08-29T12:17:16.000Z</time>
      </trkpt>
      <trkpt lat="45.12759" lon="5.6989">
        <ele>266.552147</ele>
        <time>2026-08-29T12:17:17.000Z</time>
      </trkpt>
      <trkpt lat="45.12765" lon="5.69892">
        <ele>266.534221</ele>
        <time>2026-08-29T12:17:18.000Z</time>
      </trkpt>
      <trkpt lat="45.12771" lon="5.69894">
        <ele>266.516539</ele>
        <time>2026-08-29T12:17:19.000Z</time>
      </trkpt>
      <trkpt lat="45.12776" lon="5.69896">
        <ele>266.499148</ele>
        <time>2026-08-29T12:17:20.000Z</time>
      </trkpt>
      <trkpt lat="45.12782" lon="5.69898">
        <ele>266.481809</ele>
        <time>2026-08-29T12:17:21.000Z</time>
      </trkpt>
      <trkpt lat="45.12788" lon="5.699">
        <ele>266.464176</ele>
        <time>2026-08-29T12:17:22.000Z</time>
      </trkpt>
      <trkpt lat="45.12793" lon="5.69902">
        <ele>266.446885</ele>
        <time>2026-08-29T12:17:23.000Z</time>
      </trkpt>
      <trkpt lat="45.12799" lon="5.69903">
        <ele>266.429005</ele>
        <time>2026-08-29T12:17:24.000Z</time>
      </trkpt>
      <trkpt lat="45.12804" lon="5.69905">
        <ele>266.412198</ele>
        <time>2026-08-29T12:17:25.000Z</time>
      </trkpt>
      <trkpt lat="45.1281" lon="5.69907">
        <ele>266.395682</ele>
        <time>2026-08-29T12:17:26.000Z</time>
      </trkpt>
      <trkpt lat="45.12815" lon="5.6991">
        <ele>266.378183</ele>
        <time>2026-08-29T12:17:27.000Z</time>
      </trkpt>
      <trkpt lat="45.12821" lon="5.69912">
        <ele>266.361137</ele>
        <time>2026-08-29T12:17:28.000Z</time>
      </trkpt>
      <trkpt lat="45.12826" lon="5.69914">
        <ele>266.345659</ele>
        <time>2026-08-29T12:17:29.000Z</time>
      </trkpt>
      <trkpt lat="45.12831" lon="5.69916">
        <ele>266.329724</ele>
        <time>2026-08-29T12:17:30.000Z</time>
      </trkpt>
      <trkpt lat="45.12836" lon="5.69918">
        <ele>266.313499</ele>
        <time>2026-08-29T12:17:31.000Z</time>
      </trkpt>
      <trkpt lat="45.12842" lon="5.6992">
        <ele>266.296</ele>
        <time>2026-08-29T12:17:32.000Z</time>
      </trkpt>
      <trkpt lat="45.12847" lon="5.69922">
        <ele>266.278367</ele>
        <time>2026-08-29T12:17:33.000Z</time>
      </trkpt>
      <trkpt lat="45.12853" lon="5.69924">
        <ele>266.259705</ele>
        <time>2026-08-29T12:17:34.000Z</time>
      </trkpt>
      <trkpt lat="45.12859" lon="5.69926">
        <ele>266.242022</ele>
        <time>2026-08-29T12:17:35.000Z</time>
      </trkpt>
      <trkpt lat="45.12865" lon="5.69928">
        <ele>266.22439</ele>
        <time>2026-08-29T12:17:36.000Z</time>
      </trkpt>
      <trkpt lat="45.12871" lon="5.6993">
        <ele>266.205877</ele>
        <time>2026-08-29T12:17:37.000Z</time>
      </trkpt>
      <trkpt lat="45.12877" lon="5.69932">
        <ele>266.187266</ele>
        <time>2026-08-29T12:17:38.000Z</time>
      </trkpt>
      <trkpt lat="45.12883" lon="5.69934">
        <ele>266.168706</ele>
        <time>2026-08-29T12:17:39.000Z</time>
      </trkpt>
      <trkpt lat="45.12888" lon="5.69936">
        <ele>266.150731</ele>
        <time>2026-08-29T12:17:40.000Z</time>
      </trkpt>
      <trkpt lat="45.12894" lon="5.69938">
        <ele>266.132304</ele>
        <time>2026-08-29T12:17:41.000Z</time>
      </trkpt>
      <trkpt lat="45.129" lon="5.6994">
        <ele>266.113744</ele>
        <time>2026-08-29T12:17:42.000Z</time>
      </trkpt>
      <trkpt lat="45.12906" lon="5.69942">
        <ele>266.094981</ele>
        <time>2026-08-29T12:17:43.000Z</time>
      </trkpt>
      <trkpt lat="45.12912" lon="5.69944">
        <ele>266.076761</ele>
        <time>2026-08-29T12:17:44.000Z</time>
      </trkpt>
      <trkpt lat="45.12918" lon="5.69946">
        <ele>266.059494</ele>
        <time>2026-08-29T12:17:45.000Z</time>
      </trkpt>
      <trkpt lat="45.12924" lon="5.69948">
        <ele>266.041397</ele>
        <time>2026-08-29T12:17:46.000Z</time>
      </trkpt>
      <trkpt lat="45.1293" lon="5.6995">
        <ele>266.025511</ele>
        <time>2026-08-29T12:17:47.000Z</time>
      </trkpt>
      <trkpt lat="45.12935" lon="5.69952">
        <ele>266.009842</ele>
        <time>2026-08-29T12:17:48.000Z</time>
      </trkpt>
      <trkpt lat="45.12941" lon="5.69954">
        <ele>265.993873</ele>
        <time>2026-08-29T12:17:49.000Z</time>
      </trkpt>
      <trkpt lat="45.12947" lon="5.69956">
        <ele>265.978204</ele>
        <time>2026-08-29T12:17:50.000Z</time>
      </trkpt>
      <trkpt lat="45.12953" lon="5.69957">
        <ele>265.962651</ele>
        <time>2026-08-29T12:17:51.000Z</time>
      </trkpt>
      <trkpt lat="45.12958" lon="5.69959">
        <ele>265.947704</ele>
        <time>2026-08-29T12:17:52.000Z</time>
      </trkpt>
      <trkpt lat="45.12964" lon="5.69961">
        <ele>265.932248</ele>
        <time>2026-08-29T12:17:53.000Z</time>
      </trkpt>
      <trkpt lat="45.1297" lon="5.69963">
        <ele>265.916578</ele>
        <time>2026-08-29T12:17:54.000Z</time>
      </trkpt>
      <trkpt lat="45.12976" lon="5.69965">
        <ele>265.900472</ele>
        <time>2026-08-29T12:17:55.000Z</time>
      </trkpt>
      <trkpt lat="45.12981" lon="5.69966">
        <ele>265.885988</ele>
        <time>2026-08-29T12:17:56.000Z</time>
      </trkpt>
      <trkpt lat="45.12987" lon="5.69968">
        <ele>265.870873</ele>
        <time>2026-08-29T12:17:57.000Z</time>
      </trkpt>
      <trkpt lat="45.12993" lon="5.6997">
        <ele>265.855836</ele>
        <time>2026-08-29T12:17:58.000Z</time>
      </trkpt>
      <trkpt lat="45.12998" lon="5.69972">
        <ele>265.840379</ele>
        <time>2026-08-29T12:17:59.000Z</time>
      </trkpt>
      <trkpt lat="45.13004" lon="5.69974">
        <ele>265.825222</ele>
        <time>2026-08-29T12:18:00.000Z</time>
      </trkpt>
      <trkpt lat="45.13009" lon="5.69975">
        <ele>265.811216</ele>
        <time>2026-08-29T12:18:01.000Z</time>
      </trkpt>
      <trkpt lat="45.13014" lon="5.69977">
        <ele>265.796825</ele>
        <time>2026-08-29T12:18:02.000Z</time>
      </trkpt>
      <trkpt lat="45.13019" lon="5.69979">
        <ele>265.783547</ele>
        <time>2026-08-29T12:18:03.000Z</time>
      </trkpt>
      <trkpt lat="45.13024" lon="5.69982">
        <ele>265.769514</ele>
        <time>2026-08-29T12:18:04.000Z</time>
      </trkpt>
      <trkpt lat="45.13029" lon="5.69984">
        <ele>265.757481</ele>
        <time>2026-08-29T12:18:05.000Z</time>
      </trkpt>
      <trkpt lat="45.13034" lon="5.69986">
        <ele>265.743644</ele>
        <time>2026-08-29T12:18:06.000Z</time>
      </trkpt>
      <trkpt lat="45.13039" lon="5.69988">
        <ele>265.728529</ele>
        <time>2026-08-29T12:18:07.000Z</time>
      </trkpt>
      <trkpt lat="45.13045" lon="5.6999">
        <ele>265.7129</ele>
        <time>2026-08-29T12:18:08.000Z</time>
      </trkpt>
      <trkpt lat="45.1305" lon="5.69992">
        <ele>265.698209</ele>
        <time>2026-08-29T12:18:09.000Z</time>
      </trkpt>
      <trkpt lat="45.13056" lon="5.69994">
        <ele>265.683772</ele>
        <time>2026-08-29T12:18:10.000Z</time>
      </trkpt>
      <trkpt lat="45.13061" lon="5.69996">
        <ele>265.669843</ele>
        <time>2026-08-29T12:18:11.000Z</time>
      </trkpt>
      <trkpt lat="45.13067" lon="5.69997">
        <ele>265.653866</ele>
        <time>2026-08-29T12:18:12.000Z</time>
      </trkpt>
      <trkpt lat="45.13073" lon="5.69999">
        <ele>265.637642</ele>
        <time>2026-08-29T12:18:13.000Z</time>
      </trkpt>
      <trkpt lat="45.13078" lon="5.70001">
        <ele>265.622567</ele>
        <time>2026-08-29T12:18:14.000Z</time>
      </trkpt>
      <trkpt lat="45.13084" lon="5.70003">
        <ele>265.607574</ele>
        <time>2026-08-29T12:18:15.000Z</time>
      </trkpt>
      <trkpt lat="45.13089" lon="5.70004">
        <ele>265.594338</ele>
        <time>2026-08-29T12:18:16.000Z</time>
      </trkpt>
      <trkpt lat="45.13095" lon="5.70006">
        <ele>265.578155</ele>
        <time>2026-08-29T12:18:17.000Z</time>
      </trkpt>
      <trkpt lat="45.131" lon="5.70008">
        <ele>265.557566</ele>
        <time>2026-08-29T12:18:18.000Z</time>
      </trkpt>
      <trkpt lat="45.13106" lon="5.7001">
        <ele>265.528392</ele>
        <time>2026-08-29T12:18:19.000Z</time>
      </trkpt>
      <trkpt lat="45.13112" lon="5.70011">
        <ele>265.495374</ele>
        <time>2026-08-29T12:18:20.000Z</time>
      </trkpt>
      <trkpt lat="45.13118" lon="5.70014">
        <ele>265.465837</ele>
        <time>2026-08-29T12:18:21.000Z</time>
      </trkpt>
      <trkpt lat="45.13123" lon="5.70016">
        <ele>265.436199</ele>
        <time>2026-08-29T12:18:22.000Z</time>
      </trkpt>
      <trkpt lat="45.13129" lon="5.70018">
        <ele>265.403415</ele>
        <time>2026-08-29T12:18:23.000Z</time>
      </trkpt>
      <trkpt lat="45.13135" lon="5.7002">
        <ele>265.371717</ele>
        <time>2026-08-29T12:18:24.000Z</time>
      </trkpt>
      <trkpt lat="45.1314" lon="5.70021">
        <ele>265.347053</ele>
        <time>2026-08-29T12:18:25.000Z</time>
      </trkpt>
      <trkpt lat="45.13145" lon="5.70023">
        <ele>265.321982</ele>
        <time>2026-08-29T12:18:26.000Z</time>
      </trkpt>
      <trkpt lat="45.13149" lon="5.70025">
        <ele>265.297816</ele>
        <time>2026-08-29T12:18:27.000Z</time>
      </trkpt>
      <trkpt lat="45.13155" lon="5.70027">
        <ele>265.267552</ele>
        <time>2026-08-29T12:18:28.000Z</time>
      </trkpt>
      <trkpt lat="45.1316" lon="5.70029">
        <ele>265.238378</ele>
        <time>2026-08-29T12:18:29.000Z</time>
      </trkpt>
      <trkpt lat="45.13166" lon="5.7003">
        <ele>265.210712</ele>
        <time>2026-08-29T12:18:30.000Z</time>
      </trkpt>
      <trkpt lat="45.13171" lon="5.70032">
        <ele>265.182957</ele>
        <time>2026-08-29T12:18:31.000Z</time>
      </trkpt>
      <trkpt lat="45.13176" lon="5.70034">
        <ele>265.153279</ele>
        <time>2026-08-29T12:18:32.000Z</time>
      </trkpt>
      <trkpt lat="45.13182" lon="5.70036">
        <ele>265.121747</ele>
        <time>2026-08-29T12:18:33.000Z</time>
      </trkpt>
      <trkpt lat="45.13188" lon="5.70038">
        <ele>265.089891</ele>
        <time>2026-08-29T12:18:34.000Z</time>
      </trkpt>
      <trkpt lat="45.13194" lon="5.7004">
        <ele>265.05862</ele>
        <time>2026-08-29T12:18:35.000Z</time>
      </trkpt>
      <trkpt lat="45.132" lon="5.70042">
        <ele>265.026416</ele>
        <time>2026-08-29T12:18:36.000Z</time>
      </trkpt>
      <trkpt lat="45.13206" lon="5.70044">
        <ele>264.993552</ele>
        <time>2026-08-29T12:18:37.000Z</time>
      </trkpt>
      <trkpt lat="45.13212" lon="5.70046">
        <ele>264.963704</ele>
        <time>2026-08-29T12:18:38.000Z</time>
      </trkpt>
      <trkpt lat="45.13218" lon="5.70048">
        <ele>264.931501</ele>
        <time>2026-08-29T12:18:39.000Z</time>
      </trkpt>
      <trkpt lat="45.13224" lon="5.70049">
        <ele>264.90052</ele>
        <time>2026-08-29T12:18:40.000Z</time>
      </trkpt>
      <trkpt lat="45.1323" lon="5.70051">
        <ele>264.868896</ele>
        <time>2026-08-29T12:18:41.000Z</time>
      </trkpt>
      <trkpt lat="45.13236" lon="5.70053">
        <ele>264.837272</ele>
        <time>2026-08-29T12:18:42.000Z</time>
      </trkpt>
      <trkpt lat="45.13242" lon="5.70054">
        <ele>264.806079</ele>
        <time>2026-08-29T12:18:43.000Z</time>
      </trkpt>
      <trkpt lat="45.13247" lon="5.70056">
        <ele>264.777132</ele>
        <time>2026-08-29T12:18:44.000Z</time>
      </trkpt>
      <trkpt lat="45.13253" lon="5.70058">
        <ele>264.745939</ele>
        <time>2026-08-29T12:18:45.000Z</time>
      </trkpt>
      <trkpt lat="45.13259" lon="5.7006">
        <ele>264.716091</ele>
        <time>2026-08-29T12:18:46.000Z</time>
      </trkpt>
      <trkpt lat="45.13265" lon="5.70061">
        <ele>264.686701</ele>
        <time>2026-08-29T12:18:47.000Z</time>
      </trkpt>
      <trkpt lat="45.1327" lon="5.70063">
        <ele>264.656293</ele>
        <time>2026-08-29T12:18:48.000Z</time>
      </trkpt>
      <trkpt lat="45.13276" lon="5.70064">
        <ele>264.621616</ele>
        <time>2026-08-29T12:18:49.000Z</time>
      </trkpt>
      <trkpt lat="45.13282" lon="5.70066">
        <ele>264.586135</ele>
        <time>2026-08-29T12:18:50.000Z</time>
      </trkpt>
      <trkpt lat="45.13287" lon="5.70068">
        <ele>264.551979</ele>
        <time>2026-08-29T12:18:51.000Z</time>
      </trkpt>
      <trkpt lat="45.13293" lon="5.7007">
        <ele>264.514459</ele>
        <time>2026-08-29T12:18:52.000Z</time>
      </trkpt>
      <trkpt lat="45.13299" lon="5.70071">
        <ele>264.475295</ele>
        <time>2026-08-29T12:18:53.000Z</time>
      </trkpt>
      <trkpt lat="45.13304" lon="5.70073">
        <ele>264.441848</ele>
        <time>2026-08-29T12:18:54.000Z</time>
      </trkpt>
      <trkpt lat="45.1331" lon="5.70075">
        <ele>264.407486</ele>
        <time>2026-08-29T12:18:55.000Z</time>
      </trkpt>
      <trkpt lat="45.13315" lon="5.70076">
        <ele>264.371663</ele>
        <time>2026-08-29T12:18:56.000Z</time>
      </trkpt>
      <trkpt lat="45.13321" lon="5.70078">
        <ele>264.335665</ele>
        <time>2026-08-29T12:18:57.000Z</time>
      </trkpt>
      <trkpt lat="45.13326" lon="5.7008">
        <ele>264.301074</ele>
        <time>2026-08-29T12:18:58.000Z</time>
      </trkpt>
      <trkpt lat="45.13331" lon="5.70083">
        <ele>264.267155</ele>
        <time>2026-08-29T12:18:59.000Z</time>
      </trkpt>
      <trkpt lat="45.13336" lon="5.70085">
        <ele>264.234711</ele>
        <time>2026-08-29T12:19:00.000Z</time>
      </trkpt>
      <trkpt lat="45.13342" lon="5.70087">
        <ele>264.197801</ele>
        <time>2026-08-29T12:19:01.000Z</time>
      </trkpt>
      <trkpt lat="45.13347" lon="5.70089">
        <ele>264.161998</ele>
        <time>2026-08-29T12:19:02.000Z</time>
      </trkpt>
      <trkpt lat="45.13353" lon="5.70091">
        <ele>264.125471</ele>
        <time>2026-08-29T12:19:03.000Z</time>
      </trkpt>
      <trkpt lat="45.13358" lon="5.70094">
        <ele>264.088945</ele>
        <time>2026-08-29T12:19:04.000Z</time>
      </trkpt>
      <trkpt lat="45.13364" lon="5.70096">
        <ele>264.052645</ele>
        <time>2026-08-29T12:19:05.000Z</time>
      </trkpt>
      <trkpt lat="45.1337" lon="5.70098">
        <ele>264.016955</ele>
        <time>2026-08-29T12:19:06.000Z</time>
      </trkpt>
      <trkpt lat="45.13375" lon="5.701">
        <ele>263.981264</ele>
        <time>2026-08-29T12:19:07.000Z</time>
      </trkpt>
      <trkpt lat="45.1338" lon="5.70102">
        <ele>263.946068</ele>
        <time>2026-08-29T12:19:08.000Z</time>
      </trkpt>
      <trkpt lat="45.13386" lon="5.70103">
        <ele>263.911811</ele>
        <time>2026-08-29T12:19:09.000Z</time>
      </trkpt>
      <trkpt lat="45.13391" lon="5.70106">
        <ele>263.877825</ele>
        <time>2026-08-29T12:19:10.000Z</time>
      </trkpt>
      <trkpt lat="45.13396" lon="5.70108">
        <ele>263.842509</ele>
        <time>2026-08-29T12:19:11.000Z</time>
      </trkpt>
      <trkpt lat="45.13402" lon="5.70109">
        <ele>263.807739</ele>
        <time>2026-08-29T12:19:12.000Z</time>
      </trkpt>
      <trkpt lat="45.13407" lon="5.70111">
        <ele>263.774093</ele>
        <time>2026-08-29T12:19:13.000Z</time>
      </trkpt>
      <trkpt lat="45.13412" lon="5.70113">
        <ele>263.739619</ele>
        <time>2026-08-29T12:19:14.000Z</time>
      </trkpt>
      <trkpt lat="45.13418" lon="5.70115">
        <ele>263.704751</ele>
        <time>2026-08-29T12:19:15.000Z</time>
      </trkpt>
      <trkpt lat="45.13423" lon="5.70117">
        <ele>263.670163</ele>
        <time>2026-08-29T12:19:16.000Z</time>
      </trkpt>
      <trkpt lat="45.13428" lon="5.70118">
        <ele>263.636494</ele>
        <time>2026-08-29T12:19:17.000Z</time>
      </trkpt>
      <trkpt lat="45.13434" lon="5.70119">
        <ele>263.602203</ele>
        <time>2026-08-29T12:19:18.000Z</time>
      </trkpt>
      <trkpt lat="45.13439" lon="5.7012">
        <ele>263.567846</ele>
        <time>2026-08-29T12:19:19.000Z</time>
      </trkpt>
      <trkpt lat="45.13445" lon="5.70121">
        <ele>263.532991</ele>
        <time>2026-08-29T12:19:20.000Z</time>
      </trkpt>
      <trkpt lat="45.1345" lon="5.70122">
        <ele>263.499925</ele>
        <time>2026-08-29T12:19:21.000Z</time>
      </trkpt>
      <trkpt lat="45.13455" lon="5.70124">
        <ele>263.469947</ele>
        <time>2026-08-29T12:19:22.000Z</time>
      </trkpt>
      <trkpt lat="45.13461" lon="5.70126">
        <ele>263.439273</ele>
        <time>2026-08-29T12:19:23.000Z</time>
      </trkpt>
      <trkpt lat="45.13467" lon="5.70128">
        <ele>263.407983</ele>
        <time>2026-08-29T12:19:24.000Z</time>
      </trkpt>
      <trkpt lat="45.13472" lon="5.70129">
        <ele>263.377839</ele>
        <time>2026-08-29T12:19:25.000Z</time>
      </trkpt>
      <trkpt lat="45.13477" lon="5.70131">
        <ele>263.347077</ele>
        <time>2026-08-29T12:19:26.000Z</time>
      </trkpt>
      <trkpt lat="45.13483" lon="5.70133">
        <ele>263.316932</ele>
        <time>2026-08-29T12:19:27.000Z</time>
      </trkpt>
      <trkpt lat="45.13488" lon="5.70135">
        <ele>263.285729</ele>
        <time>2026-08-29T12:19:28.000Z</time>
      </trkpt>
      <trkpt lat="45.13494" lon="5.70136">
        <ele>263.257159</ele>
        <time>2026-08-29T12:19:29.000Z</time>
      </trkpt>
      <trkpt lat="45.13499" lon="5.70137">
        <ele>263.228466</ele>
        <time>2026-08-29T12:19:30.000Z</time>
      </trkpt>
      <trkpt lat="45.13504" lon="5.70139">
        <ele>263.200757</ele>
        <time>2026-08-29T12:19:31.000Z</time>
      </trkpt>
      <trkpt lat="45.13509" lon="5.70142">
        <ele>263.172586</ele>
        <time>2026-08-29T12:19:32.000Z</time>
      </trkpt>
      <trkpt lat="45.13514" lon="5.70144">
        <ele>263.143503</ele>
        <time>2026-08-29T12:19:33.000Z</time>
      </trkpt>
      <trkpt lat="45.13519" lon="5.70146">
        <ele>263.115573</ele>
        <time>2026-08-29T12:19:34.000Z</time>
      </trkpt>
      <trkpt lat="45.13524" lon="5.70148">
        <ele>263.087719</ele>
        <time>2026-08-29T12:19:35.000Z</time>
      </trkpt>
      <trkpt lat="45.13529" lon="5.7015">
        <ele>263.060212</ele>
        <time>2026-08-29T12:19:36.000Z</time>
      </trkpt>
      <trkpt lat="45.13534" lon="5.70151">
        <ele>263.030684</ele>
        <time>2026-08-29T12:19:37.000Z</time>
      </trkpt>
      <trkpt lat="45.13539" lon="5.70153">
        <ele>263.001237</ele>
        <time>2026-08-29T12:19:38.000Z</time>
      </trkpt>
      <trkpt lat="45.13544" lon="5.70154">
        <ele>262.972322</ele>
        <time>2026-08-29T12:19:39.000Z</time>
      </trkpt>
      <trkpt lat="45.1355" lon="5.70156">
        <ele>262.943407</ele>
        <time>2026-08-29T12:19:40.000Z</time>
      </trkpt>
      <trkpt lat="45.13555" lon="5.70158">
        <ele>262.913604</ele>
        <time>2026-08-29T12:19:41.000Z</time>
      </trkpt>
      <trkpt lat="45.1356" lon="5.7016">
        <ele>262.884744</ele>
        <time>2026-08-29T12:19:42.000Z</time>
      </trkpt>
      <trkpt lat="45.13565" lon="5.70162">
        <ele>262.858386</ele>
        <time>2026-08-29T12:19:43.000Z</time>
      </trkpt>
      <trkpt lat="45.13569" lon="5.70164">
        <ele>262.833391</ele>
        <time>2026-08-29T12:19:44.000Z</time>
      </trkpt>
      <trkpt lat="45.13574" lon="5.70166">
        <ele>262.807131</ele>
        <time>2026-08-29T12:19:45.000Z</time>
      </trkpt>
      <trkpt lat="45.13578" lon="5.70168">
        <ele>262.781372</ele>
        <time>2026-08-29T12:19:46.000Z</time>
      </trkpt>
      <trkpt lat="45.13581" lon="5.70171">
        <ele>262.760733</ele>
        <time>2026-08-29T12:19:47.000Z</time>
      </trkpt>
      <trkpt lat="45.13586" lon="5.70174">
        <ele>262.731532</ele>
        <time>2026-08-29T12:19:48.000Z</time>
      </trkpt>
      <trkpt lat="45.13592" lon="5.70176">
        <ele>262.701</ele>
        <time>2026-08-29T12:19:49.000Z</time>
      </trkpt>
      <trkpt lat="45.13597" lon="5.70177">
        <ele>262.671835</ele>
        <time>2026-08-29T12:19:50.000Z</time>
      </trkpt>
      <trkpt lat="45.13603" lon="5.70179">
        <ele>262.641245</ele>
        <time>2026-08-29T12:19:51.000Z</time>
      </trkpt>
      <trkpt lat="45.13608" lon="5.70181">
        <ele>262.611101</ele>
        <time>2026-08-29T12:19:52.000Z</time>
      </trkpt>
      <trkpt lat="45.13614" lon="5.70182">
        <ele>262.578058</ele>
        <time>2026-08-29T12:19:53.000Z</time>
      </trkpt>
      <trkpt lat="45.13619" lon="5.70183">
        <ele>262.548412</ele>
        <time>2026-08-29T12:19:54.000Z</time>
      </trkpt>
      <trkpt lat="45.13625" lon="5.70184">
        <ele>262.512654</ele>
        <time>2026-08-29T12:19:55.000Z</time>
      </trkpt>
      <trkpt lat="45.13631" lon="5.70186">
        <ele>262.466967</ele>
        <time>2026-08-29T12:19:56.000Z</time>
      </trkpt>
      <trkpt lat="45.13636" lon="5.70187">
        <ele>262.422606</ele>
        <time>2026-08-29T12:19:57.000Z</time>
      </trkpt>
      <trkpt lat="45.13642" lon="5.70189">
        <ele>262.379123</ele>
        <time>2026-08-29T12:19:58.000Z</time>
      </trkpt>
      <trkpt lat="45.13648" lon="5.70191">
        <ele>262.329217</ele>
        <time>2026-08-29T12:19:59.000Z</time>
      </trkpt>
      <trkpt lat="45.13654" lon="5.70193">
        <ele>262.281476</ele>
        <time>2026-08-29T12:20:00.000Z</time>
      </trkpt>
      <trkpt lat="45.1366" lon="5.70195">
        <ele>262.231975</ele>
        <time>2026-08-29T12:20:01.000Z</time>
      </trkpt>
      <trkpt lat="45.13666" lon="5.70197">
        <ele>262.182937</ele>
        <time>2026-08-29T12:20:02.000Z</time>
      </trkpt>
      <trkpt lat="45.13672" lon="5.70199">
        <ele>262.138091</ele>
        <time>2026-08-29T12:20:03.000Z</time>
      </trkpt>
      <trkpt lat="45.13678" lon="5.70201">
        <ele>262.089825</ele>
        <time>2026-08-29T12:20:04.000Z</time>
      </trkpt>
      <trkpt lat="45.13684" lon="5.70203">
        <ele>262.037931</ele>
        <time>2026-08-29T12:20:05.000Z</time>
      </trkpt>
      <trkpt lat="45.1369" lon="5.70205">
        <ele>261.990307</ele>
        <time>2026-08-29T12:20:06.000Z</time>
      </trkpt>
      <trkpt lat="45.13696" lon="5.70207">
        <ele>261.942315</ele>
        <time>2026-08-29T12:20:07.000Z</time>
      </trkpt>
      <trkpt lat="45.13702" lon="5.70209">
        <ele>261.894574</ele>
        <time>2026-08-29T12:20:08.000Z</time>
      </trkpt>
      <trkpt lat="45.13708" lon="5.70211">
        <ele>261.847336</ele>
        <time>2026-08-29T12:20:09.000Z</time>
      </trkpt>
      <trkpt lat="45.13714" lon="5.70213">
        <ele>261.799595</ele>
        <time>2026-08-29T12:20:10.000Z</time>
      </trkpt>
      <trkpt lat="45.1372" lon="5.70215">
        <ele>261.753047</ele>
        <time>2026-08-29T12:20:11.000Z</time>
      </trkpt>
      <trkpt lat="45.13726" lon="5.70216">
        <ele>261.708686</ele>
        <time>2026-08-29T12:20:12.000Z</time>
      </trkpt>
      <trkpt lat="45.13731" lon="5.70218">
        <ele>261.664096</ele>
        <time>2026-08-29T12:20:13.000Z</time>
      </trkpt>
      <trkpt lat="45.13737" lon="5.7022">
        <ele>261.620383</ele>
        <time>2026-08-29T12:20:14.000Z</time>
      </trkpt>
      <trkpt lat="45.13742" lon="5.70221">
        <ele>261.576669</ele>
        <time>2026-08-29T12:20:15.000Z</time>
      </trkpt>
      <trkpt lat="45.13748" lon="5.70223">
        <ele>261.531955</ele>
        <time>2026-08-29T12:20:16.000Z</time>
      </trkpt>
      <trkpt lat="45.13754" lon="5.70225">
        <ele>261.48608</ele>
        <time>2026-08-29T12:20:17.000Z</time>
      </trkpt>
      <trkpt lat="45.13759" lon="5.70227">
        <ele>261.442121</ele>
        <time>2026-08-29T12:20:18.000Z</time>
      </trkpt>
      <trkpt lat="45.13765" lon="5.70229">
        <ele>261.398028</ele>
        <time>2026-08-29T12:20:19.000Z</time>
      </trkpt>
      <trkpt lat="45.1377" lon="5.70231">
        <ele>261.353438</ele>
        <time>2026-08-29T12:20:20.000Z</time>
      </trkpt>
      <trkpt lat="45.13776" lon="5.70233">
        <ele>261.309838</ele>
        <time>2026-08-29T12:20:21.000Z</time>
      </trkpt>
      <trkpt lat="45.13781" lon="5.70234">
        <ele>261.26764</ele>
        <time>2026-08-29T12:20:22.000Z</time>
      </trkpt>
      <trkpt lat="45.13786" lon="5.70236">
        <ele>261.2262</ele>
        <time>2026-08-29T12:20:23.000Z</time>
      </trkpt>
      <trkpt lat="45.13792" lon="5.70238">
        <ele>261.18406</ele>
        <time>2026-08-29T12:20:24.000Z</time>
      </trkpt>
      <trkpt lat="45.13797" lon="5.70241">
        <ele>261.141056</ele>
        <time>2026-08-29T12:20:25.000Z</time>
      </trkpt>
      <trkpt lat="45.13802" lon="5.70243">
        <ele>261.109585</ele>
        <time>2026-08-29T12:20:26.000Z</time>
      </trkpt>
      <trkpt lat="45.13808" lon="5.70245">
        <ele>261.081636</ele>
        <time>2026-08-29T12:20:27.000Z</time>
      </trkpt>
      <trkpt lat="45.13813" lon="5.70246">
        <ele>261.054328</ele>
        <time>2026-08-29T12:20:28.000Z</time>
      </trkpt>
      <trkpt lat="45.13818" lon="5.70247">
        <ele>261.027209</ele>
        <time>2026-08-29T12:20:29.000Z</time>
      </trkpt>
      <trkpt lat="45.13823" lon="5.70249">
        <ele>261.001143</ele>
        <time>2026-08-29T12:20:30.000Z</time>
      </trkpt>
      <trkpt lat="45.13827" lon="5.7025">
        <ele>260.981118</ele>
        <time>2026-08-29T12:20:31.000Z</time>
      </trkpt>
      <trkpt lat="45.1383" lon="5.70251">
        <ele>260.967018</ele>
        <time>2026-08-29T12:20:32.000Z</time>
      </trkpt>
      <trkpt lat="45.13831" lon="5.70252">
        <ele>260.961737</ele>
        <time>2026-08-29T12:20:33.000Z</time>
      </trkpt>
      <trkpt lat="45.13832" lon="5.70253">
        <ele>260.954026</ele>
        <time>2026-08-29T12:20:34.000Z</time>
      </trkpt>
      <trkpt lat="45.13834" lon="5.70254">
        <ele>260.943525</ele>
        <time>2026-08-29T12:20:35.000Z</time>
      </trkpt>
      <trkpt lat="45.13836" lon="5.70253">
        <ele>260.932133</ele>
        <time>2026-08-29T12:20:36.000Z</time>
      </trkpt>
      <trkpt lat="45.13839" lon="5.70252">
        <ele>260.919183</ele>
        <time>2026-08-29T12:20:37.000Z</time>
      </trkpt>
      <trkpt lat="45.13841" lon="5.70253">
        <ele>260.906726</ele>
        <time>2026-08-29T12:20:38.000Z</time>
      </trkpt>
      <trkpt lat="45.13844" lon="5.70255">
        <ele>260.88826</ele>
        <time>2026-08-29T12:20:39.000Z</time>
      </trkpt>
      <trkpt lat="45.13848" lon="5.70257">
        <ele>260.869785</ele>
        <time>2026-08-29T12:20:40.000Z</time>
      </trkpt>
      <trkpt lat="45.13851" lon="5.70258">
        <ele>260.851099</ele>
        <time>2026-08-29T12:20:41.000Z</time>
      </trkpt>
      <trkpt lat="45.13855" lon="5.70259">
        <ele>260.831074</ele>
        <time>2026-08-29T12:20:42.000Z</time>
      </trkpt>
      <trkpt lat="45.13859" lon="5.7026">
        <ele>260.809846</ele>
        <time>2026-08-29T12:20:43.000Z</time>
      </trkpt>
      <trkpt lat="45.13864" lon="5.70262">
        <ele>260.786404</ele>
        <time>2026-08-29T12:20:44.000Z</time>
      </trkpt>
      <trkpt lat="45.13868" lon="5.70264">
        <ele>260.762467</ele>
        <time>2026-08-29T12:20:45.000Z</time>
      </trkpt>
      <trkpt lat="45.13873" lon="5.70266">
        <ele>260.736978</ele>
        <time>2026-08-29T12:20:46.000Z</time>
      </trkpt>
      <trkpt lat="45.13878" lon="5.70268">
        <ele>260.710144</ele>
        <time>2026-08-29T12:20:47.000Z</time>
      </trkpt>
      <trkpt lat="45.13884" lon="5.7027">
        <ele>260.68292</ele>
        <time>2026-08-29T12:20:48.000Z</time>
      </trkpt>
      <trkpt lat="45.13889" lon="5.70272">
        <ele>260.654531</ele>
        <time>2026-08-29T12:20:49.000Z</time>
      </trkpt>
      <trkpt lat="45.13894" lon="5.70275">
        <ele>260.627111</ele>
        <time>2026-08-29T12:20:50.000Z</time>
      </trkpt>
      <trkpt lat="45.13899" lon="5.70277">
        <ele>260.600277</ele>
        <time>2026-08-29T12:20:51.000Z</time>
      </trkpt>
      <trkpt lat="45.13905" lon="5.70278">
        <ele>260.572897</ele>
        <time>2026-08-29T12:20:52.000Z</time>
      </trkpt>
      <trkpt lat="45.1391" lon="5.7028">
        <ele>260.543391</ele>
        <time>2026-08-29T12:20:53.000Z</time>
      </trkpt>
      <trkpt lat="45.13916" lon="5.70282">
        <ele>260.515769</ele>
        <time>2026-08-29T12:20:54.000Z</time>
      </trkpt>
      <trkpt lat="45.13921" lon="5.70284">
        <ele>260.487079</ele>
        <time>2026-08-29T12:20:55.000Z</time>
      </trkpt>
      <trkpt lat="45.13927" lon="5.70286">
        <ele>260.458065</ele>
        <time>2026-08-29T12:20:56.000Z</time>
      </trkpt>
      <trkpt lat="45.13932" lon="5.70288">
        <ele>260.429285</ele>
        <time>2026-08-29T12:20:57.000Z</time>
      </trkpt>
      <trkpt lat="45.13938" lon="5.7029">
        <ele>260.399616</ele>
        <time>2026-08-29T12:20:58.000Z</time>
      </trkpt>
      <trkpt lat="45.13944" lon="5.70291">
        <ele>260.370256</ele>
        <time>2026-08-29T12:20:59.000Z</time>
      </trkpt>
      <trkpt lat="45.13949" lon="5.70293">
        <ele>260.340896</ele>
        <time>2026-08-29T12:21:00.000Z</time>
      </trkpt>
      <trkpt lat="45.13955" lon="5.70295">
        <ele>260.311041</ele>
        <time>2026-08-29T12:21:01.000Z</time>
      </trkpt>
      <trkpt lat="45.13961" lon="5.70297">
        <ele>260.281455</ele>
        <time>2026-08-29T12:21:02.000Z</time>
      </trkpt>
      <trkpt lat="45.13967" lon="5.70298">
        <ele>260.251377</ele>
        <time>2026-08-29T12:21:03.000Z</time>
      </trkpt>
      <trkpt lat="45.13972" lon="5.703">
        <ele>260.221966</ele>
        <time>2026-08-29T12:21:04.000Z</time>
      </trkpt>
      <trkpt lat="45.13978" lon="5.70302">
        <ele>260.193631</ele>
        <time>2026-08-29T12:21:05.000Z</time>
      </trkpt>
      <trkpt lat="45.13984" lon="5.70304">
        <ele>260.165297</ele>
        <time>2026-08-29T12:21:06.000Z</time>
      </trkpt>
      <trkpt lat="45.1399" lon="5.70306">
        <ele>260.136373</ele>
        <time>2026-08-29T12:21:07.000Z</time>
      </trkpt>
      <trkpt lat="45.13995" lon="5.70308">
        <ele>260.107794</ele>
        <time>2026-08-29T12:21:08.000Z</time>
      </trkpt>
      <trkpt lat="45.14001" lon="5.70309">
        <ele>260.081715</ele>
        <time>2026-08-29T12:21:09.000Z</time>
      </trkpt>
      <trkpt lat="45.14006" lon="5.70311">
        <ele>260.055095</ele>
        <time>2026-08-29T12:21:10.000Z</time>
      </trkpt>
      <trkpt lat="45.14012" lon="5.70312">
        <ele>260.027387</ele>
        <time>2026-08-29T12:21:11.000Z</time>
      </trkpt>
      <trkpt lat="45.14017" lon="5.70314">
        <ele>260.000361</ele>
        <time>2026-08-29T12:21:12.000Z</time>
      </trkpt>
      <trkpt lat="45.14023" lon="5.70316">
        <ele>259.972254</ele>
        <time>2026-08-29T12:21:13.000Z</time>
      </trkpt>
      <trkpt lat="45.14029" lon="5.70318">
        <ele>259.942901</ele>
        <time>2026-08-29T12:21:14.000Z</time>
      </trkpt>
      <trkpt lat="45.14034" lon="5.7032">
        <ele>259.915789</ele>
        <time>2026-08-29T12:21:15.000Z</time>
      </trkpt>
      <trkpt lat="45.1404" lon="5.70322">
        <ele>259.886594</ele>
        <time>2026-08-29T12:21:16.000Z</time>
      </trkpt>
      <trkpt lat="45.14046" lon="5.70324">
        <ele>259.858259</ele>
        <time>2026-08-29T12:21:17.000Z</time>
      </trkpt>
      <trkpt lat="45.14051" lon="5.70326">
        <ele>259.831794</ele>
        <time>2026-08-29T12:21:18.000Z</time>
      </trkpt>
      <trkpt lat="45.14057" lon="5.70328">
        <ele>259.803376</ele>
        <time>2026-08-29T12:21:19.000Z</time>
      </trkpt>
      <trkpt lat="45.14062" lon="5.7033">
        <ele>259.774958</ele>
        <time>2026-08-29T12:21:20.000Z</time>
      </trkpt>
      <trkpt lat="45.14068" lon="5.70332">
        <ele>259.746379</ele>
        <time>2026-08-29T12:21:21.000Z</time>
      </trkpt>
      <trkpt lat="45.14074" lon="5.70333">
        <ele>259.71834</ele>
        <time>2026-08-29T12:21:22.000Z</time>
      </trkpt>
      <trkpt lat="45.1408" lon="5.70335">
        <ele>259.690234</ele>
        <time>2026-08-29T12:21:23.000Z</time>
      </trkpt>
      <trkpt lat="45.14085" lon="5.70337">
        <ele>259.662127</ele>
        <time>2026-08-29T12:21:24.000Z</time>
      </trkpt>
      <trkpt lat="45.14091" lon="5.70338">
        <ele>259.634088</ele>
        <time>2026-08-29T12:21:25.000Z</time>
      </trkpt>
      <trkpt lat="45.14097" lon="5.7034">
        <ele>259.605982</ele>
        <time>2026-08-29T12:21:26.000Z</time>
      </trkpt>
      <trkpt lat="45.14102" lon="5.70342">
        <ele>259.577647</ele>
        <time>2026-08-29T12:21:27.000Z</time>
      </trkpt>
      <trkpt lat="45.14108" lon="5.70344">
        <ele>259.550484</ele>
        <time>2026-08-29T12:21:28.000Z</time>
      </trkpt>
      <trkpt lat="45.14114" lon="5.70346">
        <ele>259.521363</ele>
        <time>2026-08-29T12:21:29.000Z</time>
      </trkpt>
      <trkpt lat="45.1412" lon="5.70347">
        <ele>259.493184</ele>
        <time>2026-08-29T12:21:30.000Z</time>
      </trkpt>
      <trkpt lat="45.14125" lon="5.70349">
        <ele>259.468117</ele>
        <time>2026-08-29T12:21:31.000Z</time>
      </trkpt>
      <trkpt lat="45.1413" lon="5.7035">
        <ele>259.439727</ele>
        <time>2026-08-29T12:21:32.000Z</time>
      </trkpt>
      <trkpt lat="45.14136" lon="5.70352">
        <ele>259.413107</ele>
        <time>2026-08-29T12:21:33.000Z</time>
      </trkpt>
      <trkpt lat="45.14141" lon="5.70354">
        <ele>259.386642</ele>
        <time>2026-08-29T12:21:34.000Z</time>
      </trkpt>
      <trkpt lat="45.14146" lon="5.70356">
        <ele>259.360088</ele>
        <time>2026-08-29T12:21:35.000Z</time>
      </trkpt>
      <trkpt lat="45.14152" lon="5.70357">
        <ele>259.327201</ele>
        <time>2026-08-29T12:21:36.000Z</time>
      </trkpt>
      <trkpt lat="45.14158" lon="5.70359">
        <ele>259.292193</ele>
        <time>2026-08-29T12:21:37.000Z</time>
      </trkpt>
      <trkpt lat="45.14164" lon="5.70361">
        <ele>259.2601</ele>
        <time>2026-08-29T12:21:38.000Z</time>
      </trkpt>
      <trkpt lat="45.14169" lon="5.70363">
        <ele>259.232037</ele>
        <time>2026-08-29T12:21:39.000Z</time>
      </trkpt>
      <trkpt lat="45.14173" lon="5.70364">
        <ele>259.204723</ele>
        <time>2026-08-29T12:21:40.000Z</time>
      </trkpt>
      <trkpt lat="45.14178" lon="5.70366">
        <ele>259.176973</ele>
        <time>2026-08-29T12:21:41.000Z</time>
      </trkpt>
      <trkpt lat="45.14183" lon="5.70369">
        <ele>259.145875</ele>
        <time>2026-08-29T12:21:42.000Z</time>
      </trkpt>
      <trkpt lat="45.14188" lon="5.70371">
        <ele>259.11662</ele>
        <time>2026-08-29T12:21:43.000Z</time>
      </trkpt>
      <trkpt lat="45.14194" lon="5.70373">
        <ele>259.084645</ele>
        <time>2026-08-29T12:21:44.000Z</time>
      </trkpt>
      <trkpt lat="45.142" lon="5.70375">
        <ele>259.05138</ele>
        <time>2026-08-29T12:21:45.000Z</time>
      </trkpt>
      <trkpt lat="45.14206" lon="5.70377">
        <ele>259.016481</ele>
        <time>2026-08-29T12:21:46.000Z</time>
      </trkpt>
      <trkpt lat="45.14211" lon="5.70379">
        <ele>258.983415</ele>
        <time>2026-08-29T12:21:47.000Z</time>
      </trkpt>
      <trkpt lat="45.14217" lon="5.70381">
        <ele>258.949254</ele>
        <time>2026-08-29T12:21:48.000Z</time>
      </trkpt>
      <trkpt lat="45.14223" lon="5.70383">
        <ele>258.915733</ele>
        <time>2026-08-29T12:21:49.000Z</time>
      </trkpt>
      <trkpt lat="45.14229" lon="5.70385">
        <ele>258.881379</ele>
        <time>2026-08-29T12:21:50.000Z</time>
      </trkpt>
      <trkpt lat="45.14235" lon="5.70387">
        <ele>258.847124</ele>
        <time>2026-08-29T12:21:51.000Z</time>
      </trkpt>
      <trkpt lat="45.14241" lon="5.70389">
        <ele>258.812504</ele>
        <time>2026-08-29T12:21:52.000Z</time>
      </trkpt>
      <trkpt lat="45.14247" lon="5.70391">
        <ele>258.77815</ele>
        <time>2026-08-29T12:21:53.000Z</time>
      </trkpt>
      <trkpt lat="45.14252" lon="5.70393">
        <ele>258.744987</ele>
        <time>2026-08-29T12:21:54.000Z</time>
      </trkpt>
      <trkpt lat="45.14258" lon="5.70396">
        <ele>258.712806</ele>
        <time>2026-08-29T12:21:55.000Z</time>
      </trkpt>
      <trkpt lat="45.14264" lon="5.70398">
        <ele>258.680083</ele>
        <time>2026-08-29T12:21:56.000Z</time>
      </trkpt>
      <trkpt lat="45.1427" lon="5.704">
        <ele>258.644363</ele>
        <time>2026-08-29T12:21:57.000Z</time>
      </trkpt>
      <trkpt lat="45.14276" lon="5.70401">
        <ele>258.607697</ele>
        <time>2026-08-29T12:21:58.000Z</time>
      </trkpt>
      <trkpt lat="45.14282" lon="5.70403">
        <ele>258.574724</ele>
        <time>2026-08-29T12:21:59.000Z</time>
      </trkpt>
      <trkpt lat="45.14288" lon="5.70405">
        <ele>258.541839</ele>
        <time>2026-08-29T12:22:00.000Z</time>
      </trkpt>
      <trkpt lat="45.14293" lon="5.70407">
        <ele>258.509414</ele>
        <time>2026-08-29T12:22:01.000Z</time>
      </trkpt>
      <trkpt lat="45.14299" lon="5.70409">
        <ele>258.477986</ele>
        <time>2026-08-29T12:22:02.000Z</time>
      </trkpt>
      <trkpt lat="45.14304" lon="5.70411">
        <ele>258.446773</ele>
        <time>2026-08-29T12:22:03.000Z</time>
      </trkpt>
      <trkpt lat="45.14309" lon="5.70414">
        <ele>258.414906</ele>
        <time>2026-08-29T12:22:04.000Z</time>
      </trkpt>
      <trkpt lat="45.14315" lon="5.70416">
        <ele>258.383028</ele>
        <time>2026-08-29T12:22:05.000Z</time>
      </trkpt>
      <trkpt lat="45.1432" lon="5.70418">
        <ele>258.351054</ele>
        <time>2026-08-29T12:22:06.000Z</time>
      </trkpt>
      <trkpt lat="45.14326" lon="5.7042">
        <ele>258.321003</ele>
        <time>2026-08-29T12:22:07.000Z</time>
      </trkpt>
      <trkpt lat="45.14331" lon="5.70422">
        <ele>258.290811</ele>
        <time>2026-08-29T12:22:08.000Z</time>
      </trkpt>
      <trkpt lat="45.14337" lon="5.70423">
        <ele>258.261898</ele>
        <time>2026-08-29T12:22:09.000Z</time>
      </trkpt>
      <trkpt lat="45.14343" lon="5.70425">
        <ele>258.230655</ele>
        <time>2026-08-29T12:22:10.000Z</time>
      </trkpt>
      <trkpt lat="45.14348" lon="5.70427">
        <ele>258.200967</ele>
        <time>2026-08-29T12:22:11.000Z</time>
      </trkpt>
      <trkpt lat="45.14354" lon="5.70429">
        <ele>258.170954</ele>
        <time>2026-08-29T12:22:12.000Z</time>
      </trkpt>
      <trkpt lat="45.14359" lon="5.70431">
        <ele>258.141458</ele>
        <time>2026-08-29T12:22:13.000Z</time>
      </trkpt>
      <trkpt lat="45.14365" lon="5.70434">
        <ele>258.110164</ele>
        <time>2026-08-29T12:22:14.000Z</time>
      </trkpt>
      <trkpt lat="45.14371" lon="5.70435">
        <ele>258.078629</ele>
        <time>2026-08-29T12:22:15.000Z</time>
      </trkpt>
      <trkpt lat="45.14377" lon="5.70437">
        <ele>258.047319</ele>
        <time>2026-08-29T12:22:16.000Z</time>
      </trkpt>
      <trkpt lat="45.14383" lon="5.70439">
        <ele>258.015498</ele>
        <time>2026-08-29T12:22:17.000Z</time>
      </trkpt>
      <trkpt lat="45.14389" lon="5.7044">
        <ele>257.982651</ele>
        <time>2026-08-29T12:22:18.000Z</time>
      </trkpt>
      <trkpt lat="45.14395" lon="5.70442">
        <ele>257.952434</ele>
        <time>2026-08-29T12:22:19.000Z</time>
      </trkpt>
      <trkpt lat="45.144" lon="5.70443">
        <ele>257.92317</ele>
        <time>2026-08-29T12:22:20.000Z</time>
      </trkpt>
      <trkpt lat="45.14406" lon="5.70445">
        <ele>257.893829</ele>
        <time>2026-08-29T12:22:21.000Z</time>
      </trkpt>
      <trkpt lat="45.14411" lon="5.70446">
        <ele>257.866241</ele>
        <time>2026-08-29T12:22:22.000Z</time>
      </trkpt>
      <trkpt lat="45.14416" lon="5.70448">
        <ele>257.838267</ele>
        <time>2026-08-29T12:22:23.000Z</time>
      </trkpt>
      <trkpt lat="45.14422" lon="5.70449">
        <ele>257.809141</ele>
        <time>2026-08-29T12:22:24.000Z</time>
      </trkpt>
      <trkpt lat="45.14427" lon="5.70451">
        <ele>257.781246</ele>
        <time>2026-08-29T12:22:25.000Z</time>
      </trkpt>
      <trkpt lat="45.14432" lon="5.70454">
        <ele>257.750881</ele>
        <time>2026-08-29T12:22:26.000Z</time>
      </trkpt>
      <trkpt lat="45.14438" lon="5.70457">
        <ele>257.718825</ele>
        <time>2026-08-29T12:22:27.000Z</time>
      </trkpt>
      <trkpt lat="45.14444" lon="5.7046">
        <ele>257.686229</ele>
        <time>2026-08-29T12:22:28.000Z</time>
      </trkpt>
      <trkpt lat="45.1445" lon="5.70462">
        <ele>257.654611</ele>
        <time>2026-08-29T12:22:29.000Z</time>
      </trkpt>
      <trkpt lat="45.14455" lon="5.70464">
        <ele>257.624511</ele>
        <time>2026-08-29T12:22:30.000Z</time>
      </trkpt>
      <trkpt lat="45.14461" lon="5.70466">
        <ele>257.592617</ele>
        <time>2026-08-29T12:22:31.000Z</time>
      </trkpt>
      <trkpt lat="45.14467" lon="5.70468">
        <ele>257.561747</ele>
        <time>2026-08-29T12:22:32.000Z</time>
      </trkpt>
      <trkpt lat="45.14473" lon="5.7047">
        <ele>257.530367</ele>
        <time>2026-08-29T12:22:33.000Z</time>
      </trkpt>
      <trkpt lat="45.14479" lon="5.70472">
        <ele>257.500266</ele>
        <time>2026-08-29T12:22:34.000Z</time>
      </trkpt>
      <trkpt lat="45.14484" lon="5.70473">
        <ele>257.471267</ele>
        <time>2026-08-29T12:22:35.000Z</time>
      </trkpt>
      <trkpt lat="45.14489" lon="5.70475">
        <ele>257.444042</ele>
        <time>2026-08-29T12:22:36.000Z</time>
      </trkpt>
      <trkpt lat="45.14494" lon="5.70477">
        <ele>257.418341</ele>
        <time>2026-08-29T12:22:37.000Z</time>
      </trkpt>
      <trkpt lat="45.14499" lon="5.70478">
        <ele>257.400115</ele>
        <time>2026-08-29T12:22:38.000Z</time>
      </trkpt>
      <trkpt lat="45.14504" lon="5.7048">
        <ele>257.387911</ele>
        <time>2026-08-29T12:22:39.000Z</time>
      </trkpt>
      <trkpt lat="45.1451" lon="5.70482">
        <ele>257.375751</ele>
        <time>2026-08-29T12:22:40.000Z</time>
      </trkpt>
      <trkpt lat="45.14514" lon="5.70484">
        <ele>257.364675</ele>
        <time>2026-08-29T12:22:41.000Z</time>
      </trkpt>
      <trkpt lat="45.14519" lon="5.70486">
        <ele>257.353251</ele>
        <time>2026-08-29T12:22:42.000Z</time>
      </trkpt>
      <trkpt lat="45.14524" lon="5.70488">
        <ele>257.341865</ele>
        <time>2026-08-29T12:22:43.000Z</time>
      </trkpt>
      <trkpt lat="45.14529" lon="5.70489">
        <ele>257.329919</ele>
        <time>2026-08-29T12:22:44.000Z</time>
      </trkpt>
      <trkpt lat="45.14535" lon="5.70491">
        <ele>257.317805</ele>
        <time>2026-08-29T12:22:45.000Z</time>
      </trkpt>
      <trkpt lat="45.1454" lon="5.70492">
        <ele>257.30554</ele>
        <time>2026-08-29T12:22:46.000Z</time>
      </trkpt>
      <trkpt lat="45.14545" lon="5.70494">
        <ele>257.29331</ele>
        <time>2026-08-29T12:22:47.000Z</time>
      </trkpt>
      <trkpt lat="45.1455" lon="5.70495">
        <ele>257.281333</ele>
        <time>2026-08-29T12:22:48.000Z</time>
      </trkpt>
      <trkpt lat="45.14555" lon="5.70496">
        <ele>257.270201</ele>
        <time>2026-08-29T12:22:49.000Z</time>
      </trkpt>
      <trkpt lat="45.1456" lon="5.70497">
        <ele>257.259338</ele>
        <time>2026-08-29T12:22:50.000Z</time>
      </trkpt>
      <trkpt lat="45.14564" lon="5.70498">
        <ele>257.249304</ele>
        <time>2026-08-29T12:22:51.000Z</time>
      </trkpt>
      <trkpt lat="45.14569" lon="5.70499">
        <ele>257.237661</ele>
        <time>2026-08-29T12:22:52.000Z</time>
      </trkpt>
      <trkpt lat="45.14574" lon="5.70501">
        <ele>257.226126</ele>
        <time>2026-08-29T12:22:53.000Z</time>
      </trkpt>
      <trkpt lat="45.14579" lon="5.70503">
        <ele>257.214955</ele>
        <time>2026-08-29T12:22:54.000Z</time>
      </trkpt>
      <trkpt lat="45.14584" lon="5.70505">
        <ele>257.20269</ele>
        <time>2026-08-29T12:22:55.000Z</time>
      </trkpt>
      <trkpt lat="45.1459" lon="5.70506">
        <ele>257.190328</ele>
        <time>2026-08-29T12:22:56.000Z</time>
      </trkpt>
      <trkpt lat="45.14595" lon="5.70508">
        <ele>257.178503</ele>
        <time>2026-08-29T12:22:57.000Z</time>
      </trkpt>
      <trkpt lat="45.146" lon="5.70509">
        <ele>257.166018</ele>
        <time>2026-08-29T12:22:58.000Z</time>
      </trkpt>
      <trkpt lat="45.14606" lon="5.70511">
        <ele>257.153599</ele>
        <time>2026-08-29T12:22:59.000Z</time>
      </trkpt>
      <trkpt lat="45.14611" lon="5.70512">
        <ele>257.140987</ele>
        <time>2026-08-29T12:23:00.000Z</time>
      </trkpt>
      <trkpt lat="45.14617" lon="5.70514">
        <ele>257.128567</ele>
        <time>2026-08-29T12:23:01.000Z</time>
      </trkpt>
      <trkpt lat="45.14622" lon="5.70515">
        <ele>257.116842</ele>
        <time>2026-08-29T12:23:02.000Z</time>
      </trkpt>
      <trkpt lat="45.14627" lon="5.70517">
        <ele>257.105087</ele>
        <time>2026-08-29T12:23:03.000Z</time>
      </trkpt>
      <trkpt lat="45.14632" lon="5.70519">
        <ele>257.092967</ele>
        <time>2026-08-29T12:23:04.000Z</time>
      </trkpt>
      <trkpt lat="45.14637" lon="5.7052">
        <ele>257.081105</ele>
        <time>2026-08-29T12:23:05.000Z</time>
      </trkpt>
      <trkpt lat="45.14642" lon="5.70522">
        <ele>257.068985</ele>
        <time>2026-08-29T12:23:06.000Z</time>
      </trkpt>
      <trkpt lat="45.14648" lon="5.70524">
        <ele>257.056606</ele>
        <time>2026-08-29T12:23:07.000Z</time>
      </trkpt>
      <trkpt lat="45.14653" lon="5.70526">
        <ele>257.044048</ele>
        <time>2026-08-29T12:23:08.000Z</time>
      </trkpt>
      <trkpt lat="45.14659" lon="5.70528">
        <ele>257.031185</ele>
        <time>2026-08-29T12:23:09.000Z</time>
      </trkpt>
      <trkpt lat="45.14664" lon="5.70529">
        <ele>257.018323</ele>
        <time>2026-08-29T12:23:10.000Z</time>
      </trkpt>
      <trkpt lat="45.1467" lon="5.70531">
        <ele>257.005043</ele>
        <time>2026-08-29T12:23:11.000Z</time>
      </trkpt>
      <trkpt lat="45.14676" lon="5.70533">
        <ele>256.989792</ele>
        <time>2026-08-29T12:23:12.000Z</time>
      </trkpt>
      <trkpt lat="45.14681" lon="5.70534">
        <ele>256.973913</ele>
        <time>2026-08-29T12:23:13.000Z</time>
      </trkpt>
      <trkpt lat="45.14687" lon="5.70536">
        <ele>256.957496</ele>
        <time>2026-08-29T12:23:14.000Z</time>
      </trkpt>
      <trkpt lat="45.14693" lon="5.70538">
        <ele>256.941666</ele>
        <time>2026-08-29T12:23:15.000Z</time>
      </trkpt>
      <trkpt lat="45.14699" lon="5.7054">
        <ele>256.925732</ele>
        <time>2026-08-29T12:23:16.000Z</time>
      </trkpt>
      <trkpt lat="45.14704" lon="5.70542">
        <ele>256.910166</ele>
        <time>2026-08-29T12:23:17.000Z</time>
      </trkpt>
      <trkpt lat="45.1471" lon="5.70544">
        <ele>256.894429</ele>
        <time>2026-08-29T12:23:18.000Z</time>
      </trkpt>
      <trkpt lat="45.14715" lon="5.70546">
        <ele>256.879353</ele>
        <time>2026-08-29T12:23:19.000Z</time>
      </trkpt>
      <trkpt lat="45.1472" lon="5.70547">
        <ele>256.864315</ele>
        <time>2026-08-29T12:23:20.000Z</time>
      </trkpt>
      <trkpt lat="45.14726" lon="5.70549">
        <ele>256.849198</ele>
        <time>2026-08-29T12:23:21.000Z</time>
      </trkpt>
      <trkpt lat="45.14731" lon="5.70551">
        <ele>256.834473</ele>
        <time>2026-08-29T12:23:22.000Z</time>
      </trkpt>
      <trkpt lat="45.14736" lon="5.70553">
        <ele>256.819797</ele>
        <time>2026-08-29T12:23:23.000Z</time>
      </trkpt>
      <trkpt lat="45.14741" lon="5.70555">
        <ele>256.805434</ele>
        <time>2026-08-29T12:23:24.000Z</time>
      </trkpt>
      <trkpt lat="45.14747" lon="5.70556">
        <ele>256.79054</ele>
        <time>2026-08-29T12:23:25.000Z</time>
      </trkpt>
      <trkpt lat="45.14752" lon="5.70558">
        <ele>256.775335</ele>
        <time>2026-08-29T12:23:26.000Z</time>
      </trkpt>
      <trkpt lat="45.14757" lon="5.7056">
        <ele>256.76013</ele>
        <time>2026-08-29T12:23:27.000Z</time>
      </trkpt>
      <trkpt lat="45.14763" lon="5.70562">
        <ele>256.745812</ele>
        <time>2026-08-29T12:23:28.000Z</time>
      </trkpt>
      <trkpt lat="45.14768" lon="5.70564">
        <ele>256.731665</ele>
        <time>2026-08-29T12:23:29.000Z</time>
      </trkpt>
      <trkpt lat="45.14773" lon="5.70566">
        <ele>256.71694</ele>
        <time>2026-08-29T12:23:30.000Z</time>
      </trkpt>
      <trkpt lat="45.14778" lon="5.70568">
        <ele>256.702164</ele>
        <time>2026-08-29T12:23:31.000Z</time>
      </trkpt>
      <trkpt lat="45.14783" lon="5.7057">
        <ele>256.688229</ele>
        <time>2026-08-29T12:23:32.000Z</time>
      </trkpt>
      <trkpt lat="45.14788" lon="5.70572">
        <ele>256.674031</ele>
        <time>2026-08-29T12:23:33.000Z</time>
      </trkpt>
      <trkpt lat="45.14793" lon="5.70574">
        <ele>256.65957</ele>
        <time>2026-08-29T12:23:34.000Z</time>
      </trkpt>
      <trkpt lat="45.14798" lon="5.70576">
        <ele>256.645144</ele>
        <time>2026-08-29T12:23:35.000Z</time>
      </trkpt>
      <trkpt lat="45.14803" lon="5.70579">
        <ele>256.630313</ele>
        <time>2026-08-29T12:23:36.000Z</time>
      </trkpt>
      <trkpt lat="45.14809" lon="5.70581">
        <ele>256.615061</ele>
        <time>2026-08-29T12:23:37.000Z</time>
      </trkpt>
      <trkpt lat="45.14814" lon="5.70582">
        <ele>256.599855</ele>
        <time>2026-08-29T12:23:38.000Z</time>
      </trkpt>
      <trkpt lat="45.14819" lon="5.70584">
        <ele>256.585085</ele>
        <time>2026-08-29T12:23:39.000Z</time>
      </trkpt>
      <trkpt lat="45.14825" lon="5.70585">
        <ele>256.569847</ele>
        <time>2026-08-29T12:23:40.000Z</time>
      </trkpt>
      <trkpt lat="45.1483" lon="5.70587">
        <ele>256.55473</ele>
        <time>2026-08-29T12:23:41.000Z</time>
      </trkpt>
      <trkpt lat="45.14835" lon="5.70589">
        <ele>256.540188</ele>
        <time>2026-08-29T12:23:42.000Z</time>
      </trkpt>
      <trkpt lat="45.14841" lon="5.7059">
        <ele>256.525757</ele>
        <time>2026-08-29T12:23:43.000Z</time>
      </trkpt>
      <trkpt lat="45.14845" lon="5.70592">
        <ele>256.512188</ele>
        <time>2026-08-29T12:23:44.000Z</time>
      </trkpt>
      <trkpt lat="45.1485" lon="5.70594">
        <ele>256.479259</ele>
        <time>2026-08-29T12:23:45.000Z</time>
      </trkpt>
      <trkpt lat="45.14855" lon="5.70597">
        <ele>256.442782</ele>
        <time>2026-08-29T12:23:46.000Z</time>
      </trkpt>
      <trkpt lat="45.1486" lon="5.70599">
        <ele>256.408535</ele>
        <time>2026-08-29T12:23:47.000Z</time>
      </trkpt>
      <trkpt lat="45.14865" lon="5.70601">
        <ele>256.373481</ele>
        <time>2026-08-29T12:23:48.000Z</time>
      </trkpt>
      <trkpt lat="45.1487" lon="5.70602">
        <ele>256.337704</ele>
        <time>2026-08-29T12:23:49.000Z</time>
      </trkpt>
      <trkpt lat="45.14875" lon="5.70602">
        <ele>256.303531</ele>
        <time>2026-08-29T12:23:50.000Z</time>
      </trkpt>
      <trkpt lat="45.14881" lon="5.70603">
        <ele>256.267817</ele>
        <time>2026-08-29T12:23:51.000Z</time>
      </trkpt>
      <trkpt lat="45.14886" lon="5.70604">
        <ele>256.233244</ele>
        <time>2026-08-29T12:23:52.000Z</time>
      </trkpt>
      <trkpt lat="45.14891" lon="5.70606">
        <ele>256.197916</ele>
        <time>2026-08-29T12:23:53.000Z</time>
      </trkpt>
      <trkpt lat="45.14896" lon="5.70607">
        <ele>256.161831</ele>
        <time>2026-08-29T12:23:54.000Z</time>
      </trkpt>
      <trkpt lat="45.14901" lon="5.70609">
        <ele>256.125653</ele>
        <time>2026-08-29T12:23:55.000Z</time>
      </trkpt>
      <trkpt lat="45.14906" lon="5.7061">
        <ele>256.087942</ele>
        <time>2026-08-29T12:23:56.000Z</time>
      </trkpt>
      <trkpt lat="45.14912" lon="5.70612">
        <ele>256.052111</ele>
        <time>2026-08-29T12:23:57.000Z</time>
      </trkpt>
      <trkpt lat="45.14917" lon="5.70614">
        <ele>256.015618</ele>
        <time>2026-08-29T12:23:58.000Z</time>
      </trkpt>
      <trkpt lat="45.14922" lon="5.70615">
        <ele>255.979341</ele>
        <time>2026-08-29T12:23:59.000Z</time>
      </trkpt>
      <trkpt lat="45.14927" lon="5.70617">
        <ele>255.942608</ele>
        <time>2026-08-29T12:24:00.000Z</time>
      </trkpt>
      <trkpt lat="45.14932" lon="5.7062">
        <ele>255.905747</ele>
        <time>2026-08-29T12:24:01.000Z</time>
      </trkpt>
      <trkpt lat="45.14937" lon="5.70622">
        <ele>255.869671</ele>
        <time>2026-08-29T12:24:02.000Z</time>
      </trkpt>
      <trkpt lat="45.14943" lon="5.70623">
        <ele>255.832401</ele>
        <time>2026-08-29T12:24:03.000Z</time>
      </trkpt>
      <trkpt lat="45.14948" lon="5.70625">
        <ele>255.795131</ele>
        <time>2026-08-29T12:24:04.000Z</time>
      </trkpt>
      <trkpt lat="45.14953" lon="5.70627">
        <ele>255.757975</ele>
        <time>2026-08-29T12:24:05.000Z</time>
      </trkpt>
      <trkpt lat="45.14958" lon="5.70629">
        <ele>255.722257</ele>
        <time>2026-08-29T12:24:06.000Z</time>
      </trkpt>
      <trkpt lat="45.14964" lon="5.70631">
        <ele>255.685102</ele>
        <time>2026-08-29T12:24:07.000Z</time>
      </trkpt>
      <trkpt lat="45.14969" lon="5.70632">
        <ele>255.648055</ele>
        <time>2026-08-29T12:24:08.000Z</time>
      </trkpt>
      <trkpt lat="45.14974" lon="5.70634">
        <ele>255.610237</ele>
        <time>2026-08-29T12:24:09.000Z</time>
      </trkpt>
      <trkpt lat="45.1498" lon="5.70636">
        <ele>255.572418</ele>
        <time>2026-08-29T12:24:10.000Z</time>
      </trkpt>
      <trkpt lat="45.14985" lon="5.70638">
        <ele>255.533824</ele>
        <time>2026-08-29T12:24:11.000Z</time>
      </trkpt>
      <trkpt lat="45.14991" lon="5.7064">
        <ele>255.495114</ele>
        <time>2026-08-29T12:24:12.000Z</time>
      </trkpt>
      <trkpt lat="45.14996" lon="5.70642">
        <ele>255.457182</ele>
        <time>2026-08-29T12:24:13.000Z</time>
      </trkpt>
      <trkpt lat="45.15002" lon="5.70644">
        <ele>255.419664</ele>
        <time>2026-08-29T12:24:14.000Z</time>
      </trkpt>
      <trkpt lat="45.15007" lon="5.70646">
        <ele>255.382146</ele>
        <time>2026-08-29T12:24:15.000Z</time>
      </trkpt>
      <trkpt lat="45.15012" lon="5.70648">
        <ele>255.345414</ele>
        <time>2026-08-29T12:24:16.000Z</time>
      </trkpt>
      <trkpt lat="45.15018" lon="5.7065">
        <ele>255.307036</ele>
        <time>2026-08-29T12:24:17.000Z</time>
      </trkpt>
      <trkpt lat="45.15023" lon="5.70652">
        <ele>255.271657</ele>
        <time>2026-08-29T12:24:18.000Z</time>
      </trkpt>
      <trkpt lat="45.15029" lon="5.70653">
        <ele>255.242344</ele>
        <time>2026-08-29T12:24:19.000Z</time>
      </trkpt>
      <trkpt lat="45.15034" lon="5.70656">
        <ele>255.215925</ele>
        <time>2026-08-29T12:24:20.000Z</time>
      </trkpt>
      <trkpt lat="45.15039" lon="5.70657">
        <ele>255.189015</ele>
        <time>2026-08-29T12:24:21.000Z</time>
      </trkpt>
      <trkpt lat="45.15045" lon="5.70659">
        <ele>255.156623</ele>
        <time>2026-08-29T12:24:22.000Z</time>
      </trkpt>
      <trkpt lat="45.15051" lon="5.70661">
        <ele>255.12363</ele>
        <time>2026-08-29T12:24:23.000Z</time>
      </trkpt>
      <trkpt lat="45.15057" lon="5.70663">
        <ele>255.091664</ele>
        <time>2026-08-29T12:24:24.000Z</time>
      </trkpt>
      <trkpt lat="45.15064" lon="5.70666">
        <ele>255.056786</ele>
        <time>2026-08-29T12:24:25.000Z</time>
      </trkpt>
      <trkpt lat="45.1507" lon="5.70668">
        <ele>255.023892</ele>
        <time>2026-08-29T12:24:26.000Z</time>
      </trkpt>
      <trkpt lat="45.15076" lon="5.70669">
        <ele>254.994079</ele>
        <time>2026-08-29T12:24:27.000Z</time>
      </trkpt>
      <trkpt lat="45.15082" lon="5.70671">
        <ele>254.962612</ele>
        <time>2026-08-29T12:24:28.000Z</time>
      </trkpt>
      <trkpt lat="45.15087" lon="5.70673">
        <ele>254.934447</ele>
        <time>2026-08-29T12:24:29.000Z</time>
      </trkpt>
      <trkpt lat="45.15092" lon="5.70674">
        <ele>254.908289</ele>
        <time>2026-08-29T12:24:30.000Z</time>
      </trkpt>
      <trkpt lat="45.15097" lon="5.70676">
        <ele>254.88213</ele>
        <time>2026-08-29T12:24:31.000Z</time>
      </trkpt>
      <trkpt lat="45.15102" lon="5.70677">
        <ele>254.856472</ele>
        <time>2026-08-29T12:24:32.000Z</time>
      </trkpt>
      <trkpt lat="45.15107" lon="5.70679">
        <ele>254.830453</ele>
        <time>2026-08-29T12:24:33.000Z</time>
      </trkpt>
      <trkpt lat="45.15112" lon="5.7068">
        <ele>254.806576</ele>
        <time>2026-08-29T12:24:34.000Z</time>
      </trkpt>
      <trkpt lat="45.15116" lon="5.70681">
        <ele>254.78615</ele>
        <time>2026-08-29T12:24:35.000Z</time>
      </trkpt>
      <trkpt lat="45.1512" lon="5.70682">
        <ele>254.764973</ele>
        <time>2026-08-29T12:24:36.000Z</time>
      </trkpt>
      <trkpt lat="45.15124" lon="5.70684">
        <ele>254.743599</ele>
        <time>2026-08-29T12:24:37.000Z</time>
      </trkpt>
      <trkpt lat="45.15127" lon="5.70686">
        <ele>254.725236</ele>
        <time>2026-08-29T12:24:38.000Z</time>
      </trkpt>
      <trkpt lat="45.1513" lon="5.70688">
        <ele>254.707479</ele>
        <time>2026-08-29T12:24:39.000Z</time>
      </trkpt>
      <trkpt lat="45.15133" lon="5.7069">
        <ele>254.692283</ele>
        <time>2026-08-29T12:24:40.000Z</time>
      </trkpt>
      <trkpt lat="45.15136" lon="5.7069">
        <ele>254.677838</ele>
        <time>2026-08-29T12:24:41.000Z</time>
      </trkpt>
      <trkpt lat="45.15139" lon="5.70691">
        <ele>254.662717</ele>
        <time>2026-08-29T12:24:42.000Z</time>
      </trkpt>
      <trkpt lat="45.15142" lon="5.70692">
        <ele>254.646856</ele>
        <time>2026-08-29T12:24:43.000Z</time>
      </trkpt>
      <trkpt lat="45.15145" lon="5.70693">
        <ele>254.630084</ele>
        <time>2026-08-29T12:24:44.000Z</time>
      </trkpt>
      <trkpt lat="45.15148" lon="5.70694">
        <ele>254.612039</ele>
        <time>2026-08-29T12:24:45.000Z</time>
      </trkpt>
      <trkpt lat="45.15152" lon="5.70694">
        <ele>254.592536</ele>
        <time>2026-08-29T12:24:46.000Z</time>
      </trkpt>
      <trkpt lat="45.15156" lon="5.70695">
        <ele>254.573885</ele>
        <time>2026-08-29T12:24:47.000Z</time>
      </trkpt>
      <trkpt lat="45.15159" lon="5.70696">
        <ele>254.553877</ele>
        <time>2026-08-29T12:24:48.000Z</time>
      </trkpt>
      <trkpt lat="45.15163" lon="5.70697">
        <ele>254.534598</ele>
        <time>2026-08-29T12:24:49.000Z</time>
      </trkpt>
      <trkpt lat="45.15167" lon="5.70698">
        <ele>254.515669</ele>
        <time>2026-08-29T12:24:50.000Z</time>
      </trkpt>
      <trkpt lat="45.1517" lon="5.707">
        <ele>254.497736</ele>
        <time>2026-08-29T12:24:51.000Z</time>
      </trkpt>
      <trkpt lat="45.15173" lon="5.70701">
        <ele>254.480105</ele>
        <time>2026-08-29T12:24:52.000Z</time>
      </trkpt>
      <trkpt lat="45.15176" lon="5.70703">
        <ele>254.462919</ele>
        <time>2026-08-29T12:24:53.000Z</time>
      </trkpt>
      <trkpt lat="45.15179" lon="5.70706">
        <ele>254.446085</ele>
        <time>2026-08-29T12:24:54.000Z</time>
      </trkpt>
      <trkpt lat="45.15182" lon="5.70707">
        <ele>254.431567</ele>
        <time>2026-08-29T12:24:55.000Z</time>
      </trkpt>
      <trkpt lat="45.15184" lon="5.70709">
        <ele>254.418816</ele>
        <time>2026-08-29T12:24:56.000Z</time>
      </trkpt>
      <trkpt lat="45.15186" lon="5.70711">
        <ele>254.407686</ele>
        <time>2026-08-29T12:24:57.000Z</time>
      </trkpt>
      <trkpt lat="45.15188" lon="5.70712">
        <ele>254.397505</ele>
        <time>2026-08-29T12:24:58.000Z</time>
      </trkpt>
      <trkpt lat="45.15189" lon="5.70713">
        <ele>254.388085</ele>
        <time>2026-08-29T12:24:59.000Z</time>
      </trkpt>
      <trkpt lat="45.1519" lon="5.70714">
        <ele>254.382831</ele>
        <time>2026-08-29T12:25:00.000Z</time>
      </trkpt>
      <trkpt lat="45.15191" lon="5.70714">
        <ele>254.380752</ele>
        <time>2026-08-29T12:25:01.000Z</time>
      </trkpt>
      <trkpt lat="45.15196" lon="5.70716">
        <ele>254.355741</ele>
        <time>2026-08-29T12:25:12.000Z</time>
      </trkpt>
      <trkpt lat="45.152" lon="5.70716">
        <ele>254.346676</ele>
        <time>2026-08-29T12:25:13.000Z</time>
      </trkpt>
      <trkpt lat="45.15203" lon="5.70716">
        <ele>254.336232</ele>
        <time>2026-08-29T12:25:14.000Z</time>
      </trkpt>
      <trkpt lat="45.15207" lon="5.70716">
        <ele>254.325791</ele>
        <time>2026-08-29T12:25:15.000Z</time>
      </trkpt>
      <trkpt lat="45.15211" lon="5.70717">
        <ele>254.313832</ele>
        <time>2026-08-29T12:25:16.000Z</time>
      </trkpt>
      <trkpt lat="45.15216" lon="5.70718">
        <ele>254.300632</ele>
        <time>2026-08-29T12:25:17.000Z</time>
      </trkpt>
      <trkpt lat="45.1522" lon="5.70719">
        <ele>254.287396</ele>
        <time>2026-08-29T12:25:18.000Z</time>
      </trkpt>
      <trkpt lat="45.15225" lon="5.70721">
        <ele>254.273566</ele>
        <time>2026-08-29T12:25:19.000Z</time>
      </trkpt>
      <trkpt lat="45.1523" lon="5.70722">
        <ele>254.258977</ele>
        <time>2026-08-29T12:25:20.000Z</time>
      </trkpt>
      <trkpt lat="45.15236" lon="5.70724">
        <ele>254.243961</ele>
        <time>2026-08-29T12:25:21.000Z</time>
      </trkpt>
      <trkpt lat="45.1524" lon="5.70725">
        <ele>254.230206</ele>
        <time>2026-08-29T12:25:22.000Z</time>
      </trkpt>
      <trkpt lat="45.15245" lon="5.70727">
        <ele>254.215432</ele>
        <time>2026-08-29T12:25:23.000Z</time>
      </trkpt>
      <trkpt lat="45.1525" lon="5.7073">
        <ele>254.201306</ele>
        <time>2026-08-29T12:25:24.000Z</time>
      </trkpt>
      <trkpt lat="45.15255" lon="5.70732">
        <ele>254.186319</ele>
        <time>2026-08-29T12:25:25.000Z</time>
      </trkpt>
      <trkpt lat="45.1526" lon="5.70734">
        <ele>254.171534</ele>
        <time>2026-08-29T12:25:26.000Z</time>
      </trkpt>
      <trkpt lat="45.15265" lon="5.70735">
        <ele>254.156154</ele>
        <time>2026-08-29T12:25:27.000Z</time>
      </trkpt>
      <trkpt lat="45.15271" lon="5.70737">
        <ele>254.140949</ele>
        <time>2026-08-29T12:25:28.000Z</time>
      </trkpt>
      <trkpt lat="45.15276" lon="5.70739">
        <ele>254.125744</ele>
        <time>2026-08-29T12:25:29.000Z</time>
      </trkpt>
      <trkpt lat="45.15281" lon="5.70741">
        <ele>254.110267</ele>
        <time>2026-08-29T12:25:30.000Z</time>
      </trkpt>
      <trkpt lat="45.15287" lon="5.70743">
        <ele>254.09397</ele>
        <time>2026-08-29T12:25:31.000Z</time>
      </trkpt>
      <trkpt lat="45.15292" lon="5.70745">
        <ele>254.078168</ele>
        <time>2026-08-29T12:25:32.000Z</time>
      </trkpt>
      <trkpt lat="45.15298" lon="5.70747">
        <ele>254.061644</ele>
        <time>2026-08-29T12:25:33.000Z</time>
      </trkpt>
      <trkpt lat="45.15303" lon="5.70749">
        <ele>254.04557</ele>
        <time>2026-08-29T12:25:34.000Z</time>
      </trkpt>
      <trkpt lat="45.15309" lon="5.70751">
        <ele>254.029245</ele>
        <time>2026-08-29T12:25:35.000Z</time>
      </trkpt>
      <trkpt lat="45.15315" lon="5.70753">
        <ele>254.013083</ele>
        <time>2026-08-29T12:25:36.000Z</time>
      </trkpt>
      <trkpt lat="45.15321" lon="5.70754">
        <ele>253.996093</ele>
        <time>2026-08-29T12:25:37.000Z</time>
      </trkpt>
      <trkpt lat="45.15326" lon="5.70756">
        <ele>253.979613</ele>
        <time>2026-08-29T12:25:38.000Z</time>
      </trkpt>
      <trkpt lat="45.15332" lon="5.70758">
        <ele>253.963492</ele>
        <time>2026-08-29T12:25:39.000Z</time>
      </trkpt>
      <trkpt lat="45.15337" lon="5.70759">
        <ele>253.947288</ele>
        <time>2026-08-29T12:25:40.000Z</time>
      </trkpt>
      <trkpt lat="45.15343" lon="5.70761">
        <ele>253.931634</ele>
        <time>2026-08-29T12:25:41.000Z</time>
      </trkpt>
      <trkpt lat="45.15349" lon="5.70763">
        <ele>253.914835</ele>
        <time>2026-08-29T12:25:42.000Z</time>
      </trkpt>
      <trkpt lat="45.15354" lon="5.70765">
        <ele>253.898859</ele>
        <time>2026-08-29T12:25:43.000Z</time>
      </trkpt>
      <trkpt lat="45.1536" lon="5.70767">
        <ele>253.882884</ele>
        <time>2026-08-29T12:25:44.000Z</time>
      </trkpt>
      <trkpt lat="45.15365" lon="5.70769">
        <ele>253.866405</ele>
        <time>2026-08-29T12:25:45.000Z</time>
      </trkpt>
      <trkpt lat="45.15371" lon="5.70771">
        <ele>253.847323</ele>
        <time>2026-08-29T12:25:46.000Z</time>
      </trkpt>
      <trkpt lat="45.15377" lon="5.70773">
        <ele>253.823203</ele>
        <time>2026-08-29T12:25:47.000Z</time>
      </trkpt>
      <trkpt lat="45.15383" lon="5.70775">
        <ele>253.797827</ele>
        <time>2026-08-29T12:25:48.000Z</time>
      </trkpt>
      <trkpt lat="45.15389" lon="5.70777">
        <ele>253.773884</ele>
        <time>2026-08-29T12:25:49.000Z</time>
      </trkpt>
      <trkpt lat="45.15395" lon="5.70779">
        <ele>253.749701</ele>
        <time>2026-08-29T12:25:50.000Z</time>
      </trkpt>
      <trkpt lat="45.154" lon="5.7078">
        <ele>253.726847</ele>
        <time>2026-08-29T12:25:51.000Z</time>
      </trkpt>
      <trkpt lat="45.15406" lon="5.70781">
        <ele>253.703907</ele>
        <time>2026-08-29T12:25:52.000Z</time>
      </trkpt>
      <trkpt lat="45.15412" lon="5.70783">
        <ele>253.67951</ele>
        <time>2026-08-29T12:25:53.000Z</time>
      </trkpt>
      <trkpt lat="45.15417" lon="5.70785">
        <ele>253.656233</ele>
        <time>2026-08-29T12:25:54.000Z</time>
      </trkpt>
      <trkpt lat="45.15423" lon="5.70786">
        <ele>253.631894</ele>
        <time>2026-08-29T12:25:55.000Z</time>
      </trkpt>
      <trkpt lat="45.15429" lon="5.70788">
        <ele>253.608855</ele>
        <time>2026-08-29T12:25:56.000Z</time>
      </trkpt>
      <trkpt lat="45.15434" lon="5.70789">
        <ele>253.587061</ele>
        <time>2026-08-29T12:25:57.000Z</time>
      </trkpt>
      <trkpt lat="45.15439" lon="5.70791">
        <ele>253.565317</ele>
        <time>2026-08-29T12:25:58.000Z</time>
      </trkpt>
      <trkpt lat="45.15445" lon="5.70792">
        <ele>253.543411</ele>
        <time>2026-08-29T12:25:59.000Z</time>
      </trkpt>
      <trkpt lat="45.1545" lon="5.70794">
        <ele>253.520714</ele>
        <time>2026-08-29T12:26:00.000Z</time>
      </trkpt>
      <trkpt lat="45.15456" lon="5.70796">
        <ele>253.497895</ele>
        <time>2026-08-29T12:26:01.000Z</time>
      </trkpt>
      <trkpt lat="45.15461" lon="5.70797">
        <ele>253.475928</ele>
        <time>2026-08-29T12:26:02.000Z</time>
      </trkpt>
      <trkpt lat="45.15467" lon="5.70799">
        <ele>253.452777</ele>
        <time>2026-08-29T12:26:03.000Z</time>
      </trkpt>
      <trkpt lat="45.15472" lon="5.708">
        <ele>253.430532</ele>
        <time>2026-08-29T12:26:04.000Z</time>
      </trkpt>
      <trkpt lat="45.15477" lon="5.70802">
        <ele>253.408959</ele>
        <time>2026-08-29T12:26:05.000Z</time>
      </trkpt>
      <trkpt lat="45.15482" lon="5.70804">
        <ele>253.386928</ele>
        <time>2026-08-29T12:26:06.000Z</time>
      </trkpt>
      <trkpt lat="45.15488" lon="5.70806">
        <ele>253.365459</ele>
        <time>2026-08-29T12:26:07.000Z</time>
      </trkpt>
      <trkpt lat="45.15493" lon="5.70808">
        <ele>253.343751</ele>
        <time>2026-08-29T12:26:08.000Z</time>
      </trkpt>
      <trkpt lat="45.15498" lon="5.7081">
        <ele>253.322043</ele>
        <time>2026-08-29T12:26:09.000Z</time>
      </trkpt>
      <trkpt lat="45.15503" lon="5.70812">
        <ele>253.301117</ele>
        <time>2026-08-29T12:26:10.000Z</time>
      </trkpt>
      <trkpt lat="45.15508" lon="5.70814">
        <ele>253.280504</ele>
        <time>2026-08-29T12:26:11.000Z</time>
      </trkpt>
      <trkpt lat="45.15513" lon="5.70815">
        <ele>253.258931</ele>
        <time>2026-08-29T12:26:12.000Z</time>
      </trkpt>
      <trkpt lat="45.15518" lon="5.70817">
        <ele>253.238998</ele>
        <time>2026-08-29T12:26:13.000Z</time>
      </trkpt>
      <trkpt lat="45.15522" lon="5.70819">
        <ele>253.220703</ele>
        <time>2026-08-29T12:26:14.000Z</time>
      </trkpt>
      <trkpt lat="45.15527" lon="5.70821">
        <ele>253.199702</ele>
        <time>2026-08-29T12:26:15.000Z</time>
      </trkpt>
      <trkpt lat="45.15532" lon="5.70823">
        <ele>253.178452</ele>
        <time>2026-08-29T12:26:16.000Z</time>
      </trkpt>
      <trkpt lat="45.15537" lon="5.70825">
        <ele>253.157206</ele>
        <time>2026-08-29T12:26:17.000Z</time>
      </trkpt>
      <trkpt lat="45.15543" lon="5.70826">
        <ele>253.135567</ele>
        <time>2026-08-29T12:26:18.000Z</time>
      </trkpt>
      <trkpt lat="45.15548" lon="5.70829">
        <ele>253.111058</ele>
        <time>2026-08-29T12:26:19.000Z</time>
      </trkpt>
      <trkpt lat="45.15553" lon="5.70829">
        <ele>253.086826</ele>
        <time>2026-08-29T12:26:20.000Z</time>
      </trkpt>
      <trkpt lat="45.15558" lon="5.70831">
        <ele>253.061349</ele>
        <time>2026-08-29T12:26:21.000Z</time>
      </trkpt>
      <trkpt lat="45.15563" lon="5.70833">
        <ele>253.034735</ele>
        <time>2026-08-29T12:26:22.000Z</time>
      </trkpt>
      <trkpt lat="45.15568" lon="5.70835">
        <ele>253.008874</ele>
        <time>2026-08-29T12:26:23.000Z</time>
      </trkpt>
      <trkpt lat="45.15573" lon="5.70837">
        <ele>252.984134</ele>
        <time>2026-08-29T12:26:24.000Z</time>
      </trkpt>
      <trkpt lat="45.15578" lon="5.70838">
        <ele>252.958884</ele>
        <time>2026-08-29T12:26:25.000Z</time>
      </trkpt>
      <trkpt lat="45.15584" lon="5.70839">
        <ele>252.930452</ele>
        <time>2026-08-29T12:26:26.000Z</time>
      </trkpt>
      <trkpt lat="45.15589" lon="5.70841">
        <ele>252.90428</ele>
        <time>2026-08-29T12:26:27.000Z</time>
      </trkpt>
      <trkpt lat="45.15594" lon="5.70842">
        <ele>252.877357</ele>
        <time>2026-08-29T12:26:28.000Z</time>
      </trkpt>
      <trkpt lat="45.15599" lon="5.70844">
        <ele>252.851582</ele>
        <time>2026-08-29T12:26:29.000Z</time>
      </trkpt>
      <trkpt lat="45.15604" lon="5.70846">
        <ele>252.825721</ele>
        <time>2026-08-29T12:26:30.000Z</time>
      </trkpt>
      <trkpt lat="45.15609" lon="5.70848">
        <ele>252.80128</ele>
        <time>2026-08-29T12:26:31.000Z</time>
      </trkpt>
      <trkpt lat="45.15613" lon="5.70849">
        <ele>252.780496</ele>
        <time>2026-08-29T12:26:32.000Z</time>
      </trkpt>
      <trkpt lat="45.15615" lon="5.70847">
        <ele>252.771024</ele>
        <time>2026-08-29T12:26:33.000Z</time>
      </trkpt>
      <trkpt lat="45.15616" lon="5.70845">
        <ele>252.760558</ele>
        <time>2026-08-29T12:26:34.000Z</time>
      </trkpt>
      <trkpt lat="45.15618" lon="5.70842">
        <ele>252.747785</ele>
        <time>2026-08-29T12:26:35.000Z</time>
      </trkpt>
      <trkpt lat="45.15619" lon="5.70839">
        <ele>252.735344</ele>
        <time>2026-08-29T12:26:36.000Z</time>
      </trkpt>
      <trkpt lat="45.15621" lon="5.70836">
        <ele>252.723183</ele>
        <time>2026-08-29T12:26:37.000Z</time>
      </trkpt>
      <trkpt lat="45.15622" lon="5.70833">
        <ele>252.711028</ele>
        <time>2026-08-29T12:26:38.000Z</time>
      </trkpt>
      <trkpt lat="45.15623" lon="5.7083">
        <ele>252.699441</ele>
        <time>2026-08-29T12:26:39.000Z</time>
      </trkpt>
      <trkpt lat="45.15623" lon="5.70826">
        <ele>252.685391</ele>
        <time>2026-08-29T12:26:40.000Z</time>
      </trkpt>
      <trkpt lat="45.15624" lon="5.70822">
        <ele>252.67201</ele>
        <time>2026-08-29T12:26:41.000Z</time>
      </trkpt>
      <trkpt lat="45.15626" lon="5.7082">
        <ele>252.660122</ele>
        <time>2026-08-29T12:26:42.000Z</time>
      </trkpt>
      <trkpt lat="45.15628" lon="5.7082">
        <ele>252.649771</ele>
        <time>2026-08-29T12:26:43.000Z</time>
      </trkpt>
      <trkpt lat="45.1563" lon="5.70821">
        <ele>252.637171</ele>
        <time>2026-08-29T12:26:44.000Z</time>
      </trkpt>
      <trkpt lat="45.15633" lon="5.70822">
        <ele>252.62469</ele>
        <time>2026-08-29T12:26:45.000Z</time>
      </trkpt>
      <trkpt lat="45.15636" lon="5.70824">
        <ele>252.609874</ele>
        <time>2026-08-29T12:26:46.000Z</time>
      </trkpt>
      <trkpt lat="45.15639" lon="5.70825">
        <ele>252.593574</ele>
        <time>2026-08-29T12:26:47.000Z</time>
      </trkpt>
      <trkpt lat="45.15642" lon="5.70826">
        <ele>252.575914</ele>
        <time>2026-08-29T12:26:48.000Z</time>
      </trkpt>
      <trkpt lat="45.15646" lon="5.70827">
        <ele>252.557019</ele>
        <time>2026-08-29T12:26:49.000Z</time>
      </trkpt>
      <trkpt lat="45.1565" lon="5.70828">
        <ele>252.536279</ele>
        <time>2026-08-29T12:26:50.000Z</time>
      </trkpt>
      <trkpt lat="45.15654" lon="5.70829">
        <ele>252.515088</ele>
        <time>2026-08-29T12:26:51.000Z</time>
      </trkpt>
      <trkpt lat="45.15659" lon="5.7083">
        <ele>252.491382</ele>
        <time>2026-08-29T12:26:52.000Z</time>
      </trkpt>
      <trkpt lat="45.15664" lon="5.70832">
        <ele>252.467414</ele>
        <time>2026-08-29T12:26:53.000Z</time>
      </trkpt>
      <trkpt lat="45.15669" lon="5.70834">
        <ele>252.442589</ele>
        <time>2026-08-29T12:26:54.000Z</time>
      </trkpt>
      <trkpt lat="45.15673" lon="5.70836">
        <ele>252.418713</ele>
        <time>2026-08-29T12:26:55.000Z</time>
      </trkpt>
      <trkpt lat="45.15678" lon="5.70838">
        <ele>252.394176</ele>
        <time>2026-08-29T12:26:56.000Z</time>
      </trkpt>
      <trkpt lat="45.15683" lon="5.7084">
        <ele>252.37011</ele>
        <time>2026-08-29T12:26:57.000Z</time>
      </trkpt>
      <trkpt lat="45.15688" lon="5.70842">
        <ele>252.344811</ele>
        <time>2026-08-29T12:26:58.000Z</time>
      </trkpt>
      <trkpt lat="45.15693" lon="5.70843">
        <ele>252.319594</ele>
        <time>2026-08-29T12:26:59.000Z</time>
      </trkpt>
      <trkpt lat="45.15698" lon="5.70845">
        <ele>252.293569</ele>
        <time>2026-08-29T12:27:00.000Z</time>
      </trkpt>
      <trkpt lat="45.15703" lon="5.70846">
        <ele>252.268573</ele>
        <time>2026-08-29T12:27:01.000Z</time>
      </trkpt>
      <trkpt lat="45.15709" lon="5.70848">
        <ele>252.243583</ele>
        <time>2026-08-29T12:27:02.000Z</time>
      </trkpt>
      <trkpt lat="45.15714" lon="5.70849">
        <ele>252.228412</ele>
        <time>2026-08-29T12:27:03.000Z</time>
      </trkpt>
      <trkpt lat="45.15719" lon="5.70851">
        <ele>252.213079</ele>
        <time>2026-08-29T12:27:04.000Z</time>
      </trkpt>
      <trkpt lat="45.15724" lon="5.70852">
        <ele>252.198296</ele>
        <time>2026-08-29T12:27:05.000Z</time>
      </trkpt>
      <trkpt lat="45.15729" lon="5.70853">
        <ele>252.18416</ele>
        <time>2026-08-29T12:27:06.000Z</time>
      </trkpt>
      <trkpt lat="45.15734" lon="5.70854">
        <ele>252.169929</ele>
        <time>2026-08-29T12:27:07.000Z</time>
      </trkpt>
      <trkpt lat="45.1574" lon="5.70856">
        <ele>252.155262</ele>
        <time>2026-08-29T12:27:08.000Z</time>
      </trkpt>
      <trkpt lat="45.15745" lon="5.70858">
        <ele>252.140595</ele>
        <time>2026-08-29T12:27:09.000Z</time>
      </trkpt>
      <trkpt lat="45.1575" lon="5.70859">
        <ele>252.126562</ele>
        <time>2026-08-29T12:27:10.000Z</time>
      </trkpt>
      <trkpt lat="45.15754" lon="5.70861">
        <ele>252.112439</ele>
        <time>2026-08-29T12:27:11.000Z</time>
      </trkpt>
      <trkpt lat="45.15759" lon="5.70862">
        <ele>252.098362</ele>
        <time>2026-08-29T12:27:12.000Z</time>
      </trkpt>
      <trkpt lat="45.15764" lon="5.70864">
        <ele>252.083968</ele>
        <time>2026-08-29T12:27:13.000Z</time>
      </trkpt>
      <trkpt lat="45.15769" lon="5.70865">
        <ele>252.0697</ele>
        <time>2026-08-29T12:27:14.000Z</time>
      </trkpt>
      <trkpt lat="45.15774" lon="5.70866">
        <ele>252.056118</ele>
        <time>2026-08-29T12:27:15.000Z</time>
      </trkpt>
      <trkpt lat="45.15779" lon="5.70868">
        <ele>252.041676</ele>
        <time>2026-08-29T12:27:16.000Z</time>
      </trkpt>
      <trkpt lat="45.15784" lon="5.70869">
        <ele>252.027408</ele>
        <time>2026-08-29T12:27:17.000Z</time>
      </trkpt>
      <trkpt lat="45.15789" lon="5.7087">
        <ele>252.013648</ele>
        <time>2026-08-29T12:27:18.000Z</time>
      </trkpt>
      <trkpt lat="45.15794" lon="5.70872">
        <ele>251.999888</ele>
        <time>2026-08-29T12:27:19.000Z</time>
      </trkpt>
      <trkpt lat="45.15799" lon="5.70874">
        <ele>251.986356</ele>
        <time>2026-08-29T12:27:20.000Z</time>
      </trkpt>
      <trkpt lat="45.15803" lon="5.70875">
        <ele>251.972435</ele>
        <time>2026-08-29T12:27:21.000Z</time>
      </trkpt>
      <trkpt lat="45.15808" lon="5.70876">
        <ele>251.959375</ele>
        <time>2026-08-29T12:27:22.000Z</time>
      </trkpt>
      <trkpt lat="45.15813" lon="5.70877">
        <ele>251.946478</ele>
        <time>2026-08-29T12:27:23.000Z</time>
      </trkpt>
      <trkpt lat="45.15817" lon="5.70879">
        <ele>251.933761</ele>
        <time>2026-08-29T12:27:24.000Z</time>
      </trkpt>
      <trkpt lat="45.15821" lon="5.70881">
        <ele>251.920941</ele>
        <time>2026-08-29T12:27:25.000Z</time>
      </trkpt>
      <trkpt lat="45.15826" lon="5.70882">
        <ele>251.908043</ele>
        <time>2026-08-29T12:27:26.000Z</time>
      </trkpt>
      <trkpt lat="45.1583" lon="5.70883">
        <ele>251.895224</ele>
        <time>2026-08-29T12:27:27.000Z</time>
      </trkpt>
      <trkpt lat="45.15835" lon="5.70885">
        <ele>251.882093</ele>
        <time>2026-08-29T12:27:28.000Z</time>
      </trkpt>
      <trkpt lat="45.15839" lon="5.70886">
        <ele>251.86955</ele>
        <time>2026-08-29T12:27:29.000Z</time>
      </trkpt>
      <trkpt lat="45.15844" lon="5.70887">
        <ele>251.857627</ele>
        <time>2026-08-29T12:27:30.000Z</time>
      </trkpt>
      <trkpt lat="45.15847" lon="5.70888">
        <ele>251.846872</ele>
        <time>2026-08-29T12:27:31.000Z</time>
      </trkpt>
      <trkpt lat="45.15851" lon="5.70889">
        <ele>251.8357</ele>
        <time>2026-08-29T12:27:32.000Z</time>
      </trkpt>
      <trkpt lat="45.15855" lon="5.7089">
        <ele>251.824065</ele>
        <time>2026-08-29T12:27:33.000Z</time>
      </trkpt>
      <trkpt lat="45.15859" lon="5.70892">
        <ele>251.81216</ele>
        <time>2026-08-29T12:27:34.000Z</time>
      </trkpt>
      <trkpt lat="45.15864" lon="5.70893">
        <ele>251.800034</ele>
        <time>2026-08-29T12:27:35.000Z</time>
      </trkpt>
      <trkpt lat="45.15868" lon="5.70895">
        <ele>251.787366</ele>
        <time>2026-08-29T12:27:36.000Z</time>
      </trkpt>
      <trkpt lat="45.15872" lon="5.70896">
        <ele>251.774783</ele>
        <time>2026-08-29T12:27:37.000Z</time>
      </trkpt>
      <trkpt lat="45.15877" lon="5.70898">
        <ele>251.762201</ele>
        <time>2026-08-29T12:27:38.000Z</time>
      </trkpt>
      <trkpt lat="45.15881" lon="5.70899">
        <ele>251.749576</ele>
        <time>2026-08-29T12:27:39.000Z</time>
      </trkpt>
      <trkpt lat="45.15886" lon="5.709">
        <ele>251.729825</ele>
        <time>2026-08-29T12:27:40.000Z</time>
      </trkpt>
      <trkpt lat="45.15891" lon="5.70901">
        <ele>251.702945</ele>
        <time>2026-08-29T12:27:41.000Z</time>
      </trkpt>
      <trkpt lat="45.15896" lon="5.70902">
        <ele>251.675403</ele>
        <time>2026-08-29T12:27:42.000Z</time>
      </trkpt>
      <trkpt lat="45.159" lon="5.70904">
        <ele>251.649222</ele>
        <time>2026-08-29T12:27:43.000Z</time>
      </trkpt>
      <trkpt lat="45.15905" lon="5.70906">
        <ele>251.622622</ele>
        <time>2026-08-29T12:27:44.000Z</time>
      </trkpt>
      <trkpt lat="45.15909" lon="5.70908">
        <ele>251.597732</ele>
        <time>2026-08-29T12:27:45.000Z</time>
      </trkpt>
      <trkpt lat="45.15913" lon="5.70909">
        <ele>251.572236</ele>
        <time>2026-08-29T12:27:46.000Z</time>
      </trkpt>
      <trkpt lat="45.15918" lon="5.70911">
        <ele>251.544861</ele>
        <time>2026-08-29T12:27:47.000Z</time>
      </trkpt>
      <trkpt lat="45.15923" lon="5.70912">
        <ele>251.517394</ele>
        <time>2026-08-29T12:27:48.000Z</time>
      </trkpt>
      <trkpt lat="45.15928" lon="5.70914">
        <ele>251.490366</ele>
        <time>2026-08-29T12:27:49.000Z</time>
      </trkpt>
      <trkpt lat="45.15933" lon="5.70916">
        <ele>251.462265</ele>
        <time>2026-08-29T12:27:50.000Z</time>
      </trkpt>
      <trkpt lat="45.15938" lon="5.70918">
        <ele>251.433527</ele>
        <time>2026-08-29T12:27:51.000Z</time>
      </trkpt>
      <trkpt lat="45.15943" lon="5.7092">
        <ele>251.404252</ele>
        <time>2026-08-29T12:27:52.000Z</time>
      </trkpt>
      <trkpt lat="45.15948" lon="5.70922">
        <ele>251.375074</ele>
        <time>2026-08-29T12:27:53.000Z</time>
      </trkpt>
      <trkpt lat="45.15953" lon="5.70924">
        <ele>251.345892</ele>
        <time>2026-08-29T12:27:54.000Z</time>
      </trkpt>
      <trkpt lat="45.15958" lon="5.70927">
        <ele>251.314627</ele>
        <time>2026-08-29T12:27:55.000Z</time>
      </trkpt>
      <trkpt lat="45.15964" lon="5.7093">
        <ele>251.28257</ele>
        <time>2026-08-29T12:27:56.000Z</time>
      </trkpt>
      <trkpt lat="45.15969" lon="5.70932">
        <ele>251.250383</ele>
        <time>2026-08-29T12:27:57.000Z</time>
      </trkpt>
      <trkpt lat="45.15975" lon="5.70934">
        <ele>251.218122</ele>
        <time>2026-08-29T12:27:58.000Z</time>
      </trkpt>
      <trkpt lat="45.1598" lon="5.70936">
        <ele>251.185702</ele>
        <time>2026-08-29T12:27:59.000Z</time>
      </trkpt>
      <trkpt lat="45.15986" lon="5.70938">
        <ele>251.153103</ele>
        <time>2026-08-29T12:28:00.000Z</time>
      </trkpt>
      <trkpt lat="45.15992" lon="5.70941">
        <ele>251.121039</ele>
        <time>2026-08-29T12:28:01.000Z</time>
      </trkpt>
      <trkpt lat="45.15997" lon="5.70943">
        <ele>251.089502</ele>
        <time>2026-08-29T12:28:02.000Z</time>
      </trkpt>
      <trkpt lat="45.16002" lon="5.70946">
        <ele>251.057437</ele>
        <time>2026-08-29T12:28:03.000Z</time>
      </trkpt>
      <trkpt lat="45.16008" lon="5.70948">
        <ele>251.02507</ele>
        <time>2026-08-29T12:28:04.000Z</time>
      </trkpt>
      <trkpt lat="45.16014" lon="5.7095">
        <ele>250.993009</ele>
        <time>2026-08-29T12:28:05.000Z</time>
      </trkpt>
      <trkpt lat="45.16019" lon="5.70952">
        <ele>250.961042</ele>
        <time>2026-08-29T12:28:06.000Z</time>
      </trkpt>
      <trkpt lat="45.16025" lon="5.70953">
        <ele>250.929872</ele>
        <time>2026-08-29T12:28:07.000Z</time>
      </trkpt>
      <trkpt lat="45.1603" lon="5.70956">
        <ele>250.898146</ele>
        <time>2026-08-29T12:28:08.000Z</time>
      </trkpt>
      <trkpt lat="45.16036" lon="5.70957">
        <ele>250.866894</ele>
        <time>2026-08-29T12:28:09.000Z</time>
      </trkpt>
      <trkpt lat="45.16041" lon="5.70959">
        <ele>250.836727</ele>
        <time>2026-08-29T12:28:10.000Z</time>
      </trkpt>
      <trkpt lat="45.16046" lon="5.70961">
        <ele>250.80593</ele>
        <time>2026-08-29T12:28:11.000Z</time>
      </trkpt>
      <trkpt lat="45.16051" lon="5.70962">
        <ele>250.777474</ele>
        <time>2026-08-29T12:28:12.000Z</time>
      </trkpt>
      <trkpt lat="45.16057" lon="5.70964">
        <ele>250.747933</ele>
        <time>2026-08-29T12:28:13.000Z</time>
      </trkpt>
      <trkpt lat="45.16061" lon="5.70965">
        <ele>250.722641</ele>
        <time>2026-08-29T12:28:14.000Z</time>
      </trkpt>
      <trkpt lat="45.16066" lon="5.70966">
        <ele>250.69788</ele>
        <time>2026-08-29T12:28:15.000Z</time>
      </trkpt>
      <trkpt lat="45.1607" lon="5.70966">
        <ele>250.675738</ele>
        <time>2026-08-29T12:28:16.000Z</time>
      </trkpt>
      <trkpt lat="45.16075" lon="5.70967">
        <ele>250.652478</ele>
        <time>2026-08-29T12:28:17.000Z</time>
      </trkpt>
      <trkpt lat="45.16078" lon="5.70968">
        <ele>250.632617</ele>
        <time>2026-08-29T12:28:18.000Z</time>
      </trkpt>
      <trkpt lat="45.16082" lon="5.70969">
        <ele>250.612592</ele>
        <time>2026-08-29T12:28:19.000Z</time>
      </trkpt>
      <trkpt lat="45.16086" lon="5.7097">
        <ele>250.592217</ele>
        <time>2026-08-29T12:28:20.000Z</time>
      </trkpt>
      <trkpt lat="45.16089" lon="5.70972">
        <ele>250.574512</ele>
        <time>2026-08-29T12:28:21.000Z</time>
      </trkpt>
      <trkpt lat="45.16092" lon="5.70975">
        <ele>250.556488</ele>
        <time>2026-08-29T12:28:22.000Z</time>
      </trkpt>
      <trkpt lat="45.16093" lon="5.70979">
        <ele>250.538474</ele>
        <time>2026-08-29T12:28:23.000Z</time>
      </trkpt>
      <trkpt lat="45.16093" lon="5.70983">
        <ele>250.522836</ele>
        <time>2026-08-29T12:28:24.000Z</time>
      </trkpt>
      <trkpt lat="45.16093" lon="5.70988">
        <ele>250.506873</ele>
        <time>2026-08-29T12:28:25.000Z</time>
      </trkpt>
      <trkpt lat="45.16092" lon="5.70992">
        <ele>250.491907</ele>
        <time>2026-08-29T12:28:26.000Z</time>
      </trkpt>
      <trkpt lat="45.16092" lon="5.70996">
        <ele>250.476505</ele>
        <time>2026-08-29T12:28:27.000Z</time>
      </trkpt>
      <trkpt lat="45.16091" lon="5.71">
        <ele>250.460727</ele>
        <time>2026-08-29T12:28:28.000Z</time>
      </trkpt>
      <trkpt lat="45.16091" lon="5.71004">
        <ele>250.445134</ele>
        <time>2026-08-29T12:28:29.000Z</time>
      </trkpt>
      <trkpt lat="45.16092" lon="5.71008">
        <ele>250.429413</ele>
        <time>2026-08-29T12:28:30.000Z</time>
      </trkpt>
      <trkpt lat="45.16094" lon="5.71012">
        <ele>250.412755</ele>
        <time>2026-08-29T12:28:31.000Z</time>
      </trkpt>
      <trkpt lat="45.16097" lon="5.71014">
        <ele>250.396458</ele>
        <time>2026-08-29T12:28:32.000Z</time>
      </trkpt>
      <trkpt lat="45.161" lon="5.71016">
        <ele>250.378013</ele>
        <time>2026-08-29T12:28:33.000Z</time>
      </trkpt>
      <trkpt lat="45.16104" lon="5.71017">
        <ele>250.357388</ele>
        <time>2026-08-29T12:28:34.000Z</time>
      </trkpt>
      <trkpt lat="45.16108" lon="5.71019">
        <ele>250.333614</ele>
        <time>2026-08-29T12:28:35.000Z</time>
      </trkpt>
      <trkpt lat="45.16113" lon="5.7102">
        <ele>250.30984</ele>
        <time>2026-08-29T12:28:36.000Z</time>
      </trkpt>
      <trkpt lat="45.16117" lon="5.71022">
        <ele>250.285555</ele>
        <time>2026-08-29T12:28:37.000Z</time>
      </trkpt>
      <trkpt lat="45.16122" lon="5.71023">
        <ele>250.260399</ele>
        <time>2026-08-29T12:28:38.000Z</time>
      </trkpt>
      <trkpt lat="45.16127" lon="5.71024">
        <ele>250.234337</ele>
        <time>2026-08-29T12:28:39.000Z</time>
      </trkpt>
      <trkpt lat="45.16132" lon="5.71025">
        <ele>250.208148</ele>
        <time>2026-08-29T12:28:40.000Z</time>
      </trkpt>
      <trkpt lat="45.16137" lon="5.71027">
        <ele>250.181443</ele>
        <time>2026-08-29T12:28:41.000Z</time>
      </trkpt>
      <trkpt lat="45.16141" lon="5.71028">
        <ele>250.155263</ele>
        <time>2026-08-29T12:28:42.000Z</time>
      </trkpt>
      <trkpt lat="45.16146" lon="5.7103">
        <ele>250.128671</ele>
        <time>2026-08-29T12:28:43.000Z</time>
      </trkpt>
      <trkpt lat="45.16152" lon="5.71032">
        <ele>250.100794</ele>
        <time>2026-08-29T12:28:44.000Z</time>
      </trkpt>
      <trkpt lat="45.16157" lon="5.71033">
        <ele>250.07284</ele>
        <time>2026-08-29T12:28:45.000Z</time>
      </trkpt>
      <trkpt lat="45.16162" lon="5.71035">
        <ele>250.045318</ele>
        <time>2026-08-29T12:28:46.000Z</time>
      </trkpt>
      <trkpt lat="45.16167" lon="5.71037">
        <ele>250.016851</ele>
        <time>2026-08-29T12:28:47.000Z</time>
      </trkpt>
      <trkpt lat="45.16172" lon="5.71038">
        <ele>249.988731</ele>
        <time>2026-08-29T12:28:48.000Z</time>
      </trkpt>
      <trkpt lat="45.16178" lon="5.7104">
        <ele>249.960184</ele>
        <time>2026-08-29T12:28:49.000Z</time>
      </trkpt>
      <trkpt lat="45.16183" lon="5.71042">
        <ele>249.931717</ele>
        <time>2026-08-29T12:28:50.000Z</time>
      </trkpt>
      <trkpt lat="45.16188" lon="5.71044">
        <ele>249.902397</ele>
        <time>2026-08-29T12:28:51.000Z</time>
      </trkpt>
      <trkpt lat="45.16194" lon="5.71046">
        <ele>249.873255</ele>
        <time>2026-08-29T12:28:52.000Z</time>
      </trkpt>
      <trkpt lat="45.16199" lon="5.71047">
        <ele>249.8439</ele>
        <time>2026-08-29T12:28:53.000Z</time>
      </trkpt>
      <trkpt lat="45.16204" lon="5.71048">
        <ele>249.818155</ele>
        <time>2026-08-29T12:28:54.000Z</time>
      </trkpt>
      <trkpt lat="45.16209" lon="5.7105">
        <ele>249.795412</ele>
        <time>2026-08-29T12:28:55.000Z</time>
      </trkpt>
      <trkpt lat="45.16214" lon="5.71051">
        <ele>249.783071</ele>
        <time>2026-08-29T12:28:56.000Z</time>
      </trkpt>
      <trkpt lat="45.16219" lon="5.71053">
        <ele>249.771906</ele>
        <time>2026-08-29T12:28:57.000Z</time>
      </trkpt>
      <trkpt lat="45.16224" lon="5.71054">
        <ele>249.759594</ele>
        <time>2026-08-29T12:28:58.000Z</time>
      </trkpt>
      <trkpt lat="45.16229" lon="5.71056">
        <ele>249.747906</ele>
        <time>2026-08-29T12:28:59.000Z</time>
      </trkpt>
      <trkpt lat="45.16234" lon="5.71057">
        <ele>249.736218</ele>
        <time>2026-08-29T12:29:00.000Z</time>
      </trkpt>
      <trkpt lat="45.16239" lon="5.71058">
        <ele>249.724791</ele>
        <time>2026-08-29T12:29:01.000Z</time>
      </trkpt>
      <trkpt lat="45.16244" lon="5.7106">
        <ele>249.713365</ele>
        <time>2026-08-29T12:29:02.000Z</time>
      </trkpt>
      <trkpt lat="45.16249" lon="5.71061">
        <ele>249.701711</ele>
        <time>2026-08-29T12:29:03.000Z</time>
      </trkpt>
      <trkpt lat="45.16254" lon="5.71064">
        <ele>249.689177</ele>
        <time>2026-08-29T12:29:04.000Z</time>
      </trkpt>
      <trkpt lat="45.16258" lon="5.71066">
        <ele>249.678518</ele>
        <time>2026-08-29T12:29:05.000Z</time>
      </trkpt>
      <trkpt lat="45.16262" lon="5.71068">
        <ele>249.6673</ele>
        <time>2026-08-29T12:29:06.000Z</time>
      </trkpt>
      <trkpt lat="45.16267" lon="5.7107">
        <ele>249.655411</ele>
        <time>2026-08-29T12:29:07.000Z</time>
      </trkpt>
      <trkpt lat="45.16273" lon="5.71072">
        <ele>249.64307</ele>
        <time>2026-08-29T12:29:08.000Z</time>
      </trkpt>
      <trkpt lat="45.16277" lon="5.71074">
        <ele>249.631225</ele>
        <time>2026-08-29T12:29:09.000Z</time>
      </trkpt>
      <trkpt lat="45.16282" lon="5.71076">
        <ele>249.619513</ele>
        <time>2026-08-29T12:29:10.000Z</time>
      </trkpt>
      <trkpt lat="45.16287" lon="5.71078">
        <ele>249.608789</ele>
        <time>2026-08-29T12:29:11.000Z</time>
      </trkpt>
      <trkpt lat="45.16292" lon="5.71079">
        <ele>249.597246</ele>
        <time>2026-08-29T12:29:12.000Z</time>
      </trkpt>
      <trkpt lat="45.16297" lon="5.7108">
        <ele>249.584934</ele>
        <time>2026-08-29T12:29:13.000Z</time>
      </trkpt>
      <trkpt lat="45.16302" lon="5.71081">
        <ele>249.572393</ele>
        <time>2026-08-29T12:29:14.000Z</time>
      </trkpt>
      <trkpt lat="45.16307" lon="5.71083">
        <ele>249.560405</ele>
        <time>2026-08-29T12:29:15.000Z</time>
      </trkpt>
      <trkpt lat="45.16313" lon="5.71085">
        <ele>249.546333</ele>
        <time>2026-08-29T12:29:16.000Z</time>
      </trkpt>
      <trkpt lat="45.16318" lon="5.71087">
        <ele>249.534038</ele>
        <time>2026-08-29T12:29:17.000Z</time>
      </trkpt>
      <trkpt lat="45.16323" lon="5.71089">
        <ele>249.521621</ele>
        <time>2026-08-29T12:29:18.000Z</time>
      </trkpt>
      <trkpt lat="45.16328" lon="5.71091">
        <ele>249.510045</ele>
        <time>2026-08-29T12:29:19.000Z</time>
      </trkpt>
      <trkpt lat="45.16334" lon="5.71093">
        <ele>249.49591</ele>
        <time>2026-08-29T12:29:20.000Z</time>
      </trkpt>
      <trkpt lat="45.16339" lon="5.71095">
        <ele>249.48343</ele>
        <time>2026-08-29T12:29:21.000Z</time>
      </trkpt>
      <trkpt lat="45.16344" lon="5.71097">
        <ele>249.470777</ele>
        <time>2026-08-29T12:29:22.000Z</time>
      </trkpt>
      <trkpt lat="45.16348" lon="5.71099">
        <ele>249.460637</ele>
        <time>2026-08-29T12:29:23.000Z</time>
      </trkpt>
      <trkpt lat="45.16353" lon="5.71101">
        <ele>249.44982</ele>
        <time>2026-08-29T12:29:24.000Z</time>
      </trkpt>
      <trkpt lat="45.16357" lon="5.71102">
        <ele>249.439495</ele>
        <time>2026-08-29T12:29:25.000Z</time>
      </trkpt>
      <trkpt lat="45.16362" lon="5.71103">
        <ele>249.428183</ele>
        <time>2026-08-29T12:29:26.000Z</time>
      </trkpt>
      <trkpt lat="45.16367" lon="5.71105">
        <ele>249.416004</ele>
        <time>2026-08-29T12:29:27.000Z</time>
      </trkpt>
      <trkpt lat="45.16372" lon="5.71106">
        <ele>249.403003</ele>
        <time>2026-08-29T12:29:28.000Z</time>
      </trkpt>
      <trkpt lat="45.16377" lon="5.71108">
        <ele>249.392102</ele>
        <time>2026-08-29T12:29:29.000Z</time>
      </trkpt>
      <trkpt lat="45.16382" lon="5.7111">
        <ele>249.377646</ele>
        <time>2026-08-29T12:29:30.000Z</time>
      </trkpt>
      <trkpt lat="45.16388" lon="5.71112">
        <ele>249.352657</ele>
        <time>2026-08-29T12:29:31.000Z</time>
      </trkpt>
      <trkpt lat="45.16393" lon="5.71114">
        <ele>249.325983</ele>
        <time>2026-08-29T12:29:32.000Z</time>
      </trkpt>
      <trkpt lat="45.16399" lon="5.71116">
        <ele>249.300282</ele>
        <time>2026-08-29T12:29:33.000Z</time>
      </trkpt>
      <trkpt lat="45.16404" lon="5.71118">
        <ele>249.274135</ele>
        <time>2026-08-29T12:29:34.000Z</time>
      </trkpt>
      <trkpt lat="45.1641" lon="5.7112">
        <ele>249.248514</ele>
        <time>2026-08-29T12:29:35.000Z</time>
      </trkpt>
      <trkpt lat="45.16414" lon="5.71121">
        <ele>249.226293</ele>
        <time>2026-08-29T12:29:36.000Z</time>
      </trkpt>
      <trkpt lat="45.16419" lon="5.71122">
        <ele>249.205047</ele>
        <time>2026-08-29T12:29:37.000Z</time>
      </trkpt>
      <trkpt lat="45.16423" lon="5.71122">
        <ele>249.184619</ele>
        <time>2026-08-29T12:29:38.000Z</time>
      </trkpt>
      <trkpt lat="45.16428" lon="5.71123">
        <ele>249.163236</ele>
        <time>2026-08-29T12:29:39.000Z</time>
      </trkpt>
      <trkpt lat="45.16433" lon="5.71125">
        <ele>249.137534</ele>
        <time>2026-08-29T12:29:40.000Z</time>
      </trkpt>
      <trkpt lat="45.16439" lon="5.71127">
        <ele>249.111541</ele>
        <time>2026-08-29T12:29:41.000Z</time>
      </trkpt>
      <trkpt lat="45.16444" lon="5.71129">
        <ele>249.086588</ele>
        <time>2026-08-29T12:29:42.000Z</time>
      </trkpt>
      <trkpt lat="45.16449" lon="5.7113">
        <ele>249.061634</ele>
        <time>2026-08-29T12:29:43.000Z</time>
      </trkpt>
      <trkpt lat="45.16455" lon="5.71132">
        <ele>249.035849</ele>
        <time>2026-08-29T12:29:44.000Z</time>
      </trkpt>
      <trkpt lat="45.1646" lon="5.71135">
        <ele>249.009022</ele>
        <time>2026-08-29T12:29:45.000Z</time>
      </trkpt>
      <trkpt lat="45.16465" lon="5.71137">
        <ele>248.984896</ele>
        <time>2026-08-29T12:29:46.000Z</time>
      </trkpt>
      <trkpt lat="45.16471" lon="5.71139">
        <ele>248.958652</ele>
        <time>2026-08-29T12:29:47.000Z</time>
      </trkpt>
      <trkpt lat="45.16476" lon="5.7114">
        <ele>248.935855</ele>
        <time>2026-08-29T12:29:48.000Z</time>
      </trkpt>
      <trkpt lat="45.16481" lon="5.71141">
        <ele>248.910901</ele>
        <time>2026-08-29T12:29:49.000Z</time>
      </trkpt>
      <trkpt lat="45.16487" lon="5.71143">
        <ele>248.884833</ele>
        <time>2026-08-29T12:29:50.000Z</time>
      </trkpt>
      <trkpt lat="45.16492" lon="5.71145">
        <ele>248.859048</ele>
        <time>2026-08-29T12:29:51.000Z</time>
      </trkpt>
      <trkpt lat="45.16497" lon="5.71147">
        <ele>248.833707</ele>
        <time>2026-08-29T12:29:52.000Z</time>
      </trkpt>
      <trkpt lat="45.16503" lon="5.7115">
        <ele>248.808316</ele>
        <time>2026-08-29T12:29:53.000Z</time>
      </trkpt>
      <trkpt lat="45.16508" lon="5.71152">
        <ele>248.782352</ele>
        <time>2026-08-29T12:29:54.000Z</time>
      </trkpt>
      <trkpt lat="45.16513" lon="5.71154">
        <ele>248.756205</ele>
        <time>2026-08-29T12:29:55.000Z</time>
      </trkpt>
      <trkpt lat="45.16519" lon="5.71156">
        <ele>248.73066</ele>
        <time>2026-08-29T12:29:56.000Z</time>
      </trkpt>
      <trkpt lat="45.16524" lon="5.71158">
        <ele>248.705849</ele>
        <time>2026-08-29T12:29:57.000Z</time>
      </trkpt>
      <trkpt lat="45.16529" lon="5.7116">
        <ele>248.681863</ele>
        <time>2026-08-29T12:29:58.000Z</time>
      </trkpt>
      <trkpt lat="45.16534" lon="5.71161">
        <ele>248.659812</ele>
        <time>2026-08-29T12:29:59.000Z</time>
      </trkpt>
      <trkpt lat="45.16539" lon="5.71162">
        <ele>248.63589</ele>
        <time>2026-08-29T12:30:00.000Z</time>
      </trkpt>
      <trkpt lat="45.16544" lon="5.71164">
        <ele>248.611435</ele>
        <time>2026-08-29T12:30:01.000Z</time>
      </trkpt>
      <trkpt lat="45.16549" lon="5.71166">
        <ele>248.587152</ele>
        <time>2026-08-29T12:30:02.000Z</time>
      </trkpt>
      <trkpt lat="45.16554" lon="5.71168">
        <ele>248.562341</ele>
        <time>2026-08-29T12:30:03.000Z</time>
      </trkpt>
      <trkpt lat="45.1656" lon="5.7117">
        <ele>248.535604</ele>
        <time>2026-08-29T12:30:04.000Z</time>
      </trkpt>
      <trkpt lat="45.16565" lon="5.71172">
        <ele>248.509619</ele>
        <time>2026-08-29T12:30:05.000Z</time>
      </trkpt>
      <trkpt lat="45.16569" lon="5.71174">
        <ele>248.483735</ele>
        <time>2026-08-29T12:30:06.000Z</time>
      </trkpt>
      <trkpt lat="45.16575" lon="5.71176">
        <ele>248.457365</ele>
        <time>2026-08-29T12:30:07.000Z</time>
      </trkpt>
      <trkpt lat="45.1658" lon="5.71177">
        <ele>248.430995</ele>
        <time>2026-08-29T12:30:08.000Z</time>
      </trkpt>
      <trkpt lat="45.16584" lon="5.71177">
        <ele>248.408648</ele>
        <time>2026-08-29T12:30:09.000Z</time>
      </trkpt>
      <trkpt lat="45.16588" lon="5.71177">
        <ele>248.388821</ele>
        <time>2026-08-29T12:30:10.000Z</time>
      </trkpt>
      <trkpt lat="45.16593" lon="5.71178">
        <ele>248.362732</ele>
        <time>2026-08-29T12:30:11.000Z</time>
      </trkpt>
      <trkpt lat="45.16598" lon="5.71179">
        <ele>248.33554</ele>
        <time>2026-08-29T12:30:12.000Z</time>
      </trkpt>
      <trkpt lat="45.16604" lon="5.7118">
        <ele>248.305972</ele>
        <time>2026-08-29T12:30:13.000Z</time>
      </trkpt>
      <trkpt lat="45.1661" lon="5.71182">
        <ele>248.276328</ele>
        <time>2026-08-29T12:30:14.000Z</time>
      </trkpt>
      <trkpt lat="45.16616" lon="5.71184">
        <ele>248.246334</ele>
        <time>2026-08-29T12:30:15.000Z</time>
      </trkpt>
      <trkpt lat="45.16621" lon="5.71186">
        <ele>248.216929</ele>
        <time>2026-08-29T12:30:16.000Z</time>
      </trkpt>
      <trkpt lat="45.16627" lon="5.71188">
        <ele>248.185566</ele>
        <time>2026-08-29T12:30:17.000Z</time>
      </trkpt>
      <trkpt lat="45.16633" lon="5.7119">
        <ele>248.155427</ele>
        <time>2026-08-29T12:30:18.000Z</time>
      </trkpt>
      <trkpt lat="45.16638" lon="5.71192">
        <ele>248.126278</ele>
        <time>2026-08-29T12:30:19.000Z</time>
      </trkpt>
      <trkpt lat="45.16644" lon="5.71194">
        <ele>248.098694</ele>
        <time>2026-08-29T12:30:20.000Z</time>
      </trkpt>
      <trkpt lat="45.16649" lon="5.71196">
        <ele>248.069464</ele>
        <time>2026-08-29T12:30:21.000Z</time>
      </trkpt>
      <trkpt lat="45.16655" lon="5.71197">
        <ele>248.041799</ele>
        <time>2026-08-29T12:30:22.000Z</time>
      </trkpt>
      <trkpt lat="45.1666" lon="5.71199">
        <ele>248.015359</ele>
        <time>2026-08-29T12:30:23.000Z</time>
      </trkpt>
      <trkpt lat="45.16665" lon="5.712">
        <ele>247.989673</ele>
        <time>2026-08-29T12:30:24.000Z</time>
      </trkpt>
      <trkpt lat="45.16669" lon="5.71201">
        <ele>247.965643</ele>
        <time>2026-08-29T12:30:25.000Z</time>
      </trkpt>
      <trkpt lat="45.16674" lon="5.71202">
        <ele>247.941107</ele>
        <time>2026-08-29T12:30:26.000Z</time>
      </trkpt>
      <trkpt lat="45.16679" lon="5.71204">
        <ele>247.916976</ele>
        <time>2026-08-29T12:30:27.000Z</time>
      </trkpt>
      <trkpt lat="45.16684" lon="5.71206">
        <ele>247.891579</ele>
        <time>2026-08-29T12:30:28.000Z</time>
      </trkpt>
      <trkpt lat="45.16688" lon="5.71208">
        <ele>247.867619</ele>
        <time>2026-08-29T12:30:29.000Z</time>
      </trkpt>
      <trkpt lat="45.16693" lon="5.71209">
        <ele>247.841924</ele>
        <time>2026-08-29T12:30:30.000Z</time>
      </trkpt>
      <trkpt lat="45.16698" lon="5.71211">
        <ele>247.816626</ele>
        <time>2026-08-29T12:30:31.000Z</time>
      </trkpt>
      <trkpt lat="45.16703" lon="5.71213">
        <ele>247.789537</ele>
        <time>2026-08-29T12:30:32.000Z</time>
      </trkpt>
      <trkpt lat="45.16708" lon="5.71214">
        <ele>247.764163</ele>
        <time>2026-08-29T12:30:33.000Z</time>
      </trkpt>
      <trkpt lat="45.16713" lon="5.71215">
        <ele>247.738116</ele>
        <time>2026-08-29T12:30:34.000Z</time>
      </trkpt>
      <trkpt lat="45.16718" lon="5.71217">
        <ele>247.711839</ele>
        <time>2026-08-29T12:30:35.000Z</time>
      </trkpt>
      <trkpt lat="45.16723" lon="5.71219">
        <ele>247.684672</ele>
        <time>2026-08-29T12:30:36.000Z</time>
      </trkpt>
      <trkpt lat="45.16729" lon="5.71221">
        <ele>247.656018</ele>
        <time>2026-08-29T12:30:37.000Z</time>
      </trkpt>
      <trkpt lat="45.16734" lon="5.71223">
        <ele>247.627193</ele>
        <time>2026-08-29T12:30:38.000Z</time>
      </trkpt>
      <trkpt lat="45.16739" lon="5.71226">
        <ele>247.597054</ele>
        <time>2026-08-29T12:30:39.000Z</time>
      </trkpt>
      <trkpt lat="45.16744" lon="5.71228">
        <ele>247.568737</ele>
        <time>2026-08-29T12:30:40.000Z</time>
      </trkpt>
      <trkpt lat="45.16749" lon="5.71231">
        <ele>247.538599</ele>
        <time>2026-08-29T12:30:41.000Z</time>
      </trkpt>
      <trkpt lat="45.16755" lon="5.71233">
        <ele>247.507307</ele>
        <time>2026-08-29T12:30:42.000Z</time>
      </trkpt>
      <trkpt lat="45.1676" lon="5.71234">
        <ele>247.476736</ele>
        <time>2026-08-29T12:30:43.000Z</time>
      </trkpt>
      <trkpt lat="45.16765" lon="5.71237">
        <ele>247.446074</ele>
        <time>2026-08-29T12:30:44.000Z</time>
      </trkpt>
      <trkpt lat="45.1677" lon="5.71239">
        <ele>247.416336</ele>
        <time>2026-08-29T12:30:45.000Z</time>
      </trkpt>
      <trkpt lat="45.16775" lon="5.71241">
        <ele>247.389293</ele>
        <time>2026-08-29T12:30:46.000Z</time>
      </trkpt>
      <trkpt lat="45.1678" lon="5.71243">
        <ele>247.360025</ele>
        <time>2026-08-29T12:30:47.000Z</time>
      </trkpt>
      <trkpt lat="45.16785" lon="5.71245">
        <ele>247.33351</ele>
        <time>2026-08-29T12:30:48.000Z</time>
      </trkpt>
      <trkpt lat="45.16789" lon="5.71247">
        <ele>247.307733</ele>
        <time>2026-08-29T12:30:49.000Z</time>
      </trkpt>
      <trkpt lat="45.16794" lon="5.71248">
        <ele>247.282423</ele>
        <time>2026-08-29T12:30:50.000Z</time>
      </trkpt>
      <trkpt lat="45.16797" lon="5.7125">
        <ele>247.263074</ele>
        <time>2026-08-29T12:30:51.000Z</time>
      </trkpt>
      <trkpt lat="45.168" lon="5.7125">
        <ele>247.249824</ele>
        <time>2026-08-29T12:30:52.000Z</time>
      </trkpt>
      <trkpt lat="45.16804" lon="5.71251">
        <ele>247.226389</ele>
        <time>2026-08-29T12:30:53.000Z</time>
      </trkpt>
      <trkpt lat="45.16807" lon="5.71252">
        <ele>247.2086</ele>
        <time>2026-08-29T12:30:54.000Z</time>
      </trkpt>
      <trkpt lat="45.16812" lon="5.71254">
        <ele>247.17919</ele>
        <time>2026-08-29T12:30:55.000Z</time>
      </trkpt>
      <trkpt lat="45.16817" lon="5.71256">
        <ele>247.151089</ele>
        <time>2026-08-29T12:30:56.000Z</time>
      </trkpt>
      <trkpt lat="45.16822" lon="5.71258">
        <ele>247.120428</ele>
        <time>2026-08-29T12:30:57.000Z</time>
      </trkpt>
      <trkpt lat="45.16828" lon="5.7126">
        <ele>247.090202</ele>
        <time>2026-08-29T12:30:58.000Z</time>
      </trkpt>
      <trkpt lat="45.16833" lon="5.71262">
        <ele>247.061866</ele>
        <time>2026-08-29T12:30:59.000Z</time>
      </trkpt>
      <trkpt lat="45.16837" lon="5.71264">
        <ele>247.037157</ele>
        <time>2026-08-29T12:31:00.000Z</time>
      </trkpt>
      <trkpt lat="45.16842" lon="5.71265">
        <ele>247.008193</ele>
        <time>2026-08-29T12:31:01.000Z</time>
      </trkpt>
      <trkpt lat="45.16847" lon="5.71268">
        <ele>246.980916</ele>
        <time>2026-08-29T12:31:02.000Z</time>
      </trkpt>
      <trkpt lat="45.16852" lon="5.71268">
        <ele>246.95336</ele>
        <time>2026-08-29T12:31:03.000Z</time>
      </trkpt>
      <trkpt lat="45.16857" lon="5.71268">
        <ele>246.926804</ele>
        <time>2026-08-29T12:31:04.000Z</time>
      </trkpt>
      <trkpt lat="45.16859" lon="5.71267">
        <ele>246.914072</ele>
        <time>2026-08-29T12:31:05.000Z</time>
      </trkpt>
      <trkpt lat="45.16864" lon="5.71268">
        <ele>246.887388</ele>
        <time>2026-08-29T12:31:06.000Z</time>
      </trkpt>
      <trkpt lat="45.16869" lon="5.71269">
        <ele>246.858958</ele>
        <time>2026-08-29T12:31:07.000Z</time>
      </trkpt>
      <trkpt lat="45.16875" lon="5.7127">
        <ele>246.825664</ele>
        <time>2026-08-29T12:31:08.000Z</time>
      </trkpt>
      <trkpt lat="45.1688" lon="5.71272">
        <ele>246.796164</ele>
        <time>2026-08-29T12:31:09.000Z</time>
      </trkpt>
      <trkpt lat="45.16886" lon="5.71275">
        <ele>246.760061</ele>
        <time>2026-08-29T12:31:10.000Z</time>
      </trkpt>
      <trkpt lat="45.16892" lon="5.71277">
        <ele>246.725276</ele>
        <time>2026-08-29T12:31:11.000Z</time>
      </trkpt>
      <trkpt lat="45.16898" lon="5.7128">
        <ele>246.692085</ele>
        <time>2026-08-29T12:31:12.000Z</time>
      </trkpt>
      <trkpt lat="45.16904" lon="5.71282">
        <ele>246.66006</ele>
        <time>2026-08-29T12:31:13.000Z</time>
      </trkpt>
      <trkpt lat="45.16909" lon="5.71284">
        <ele>246.637961</ele>
        <time>2026-08-29T12:31:14.000Z</time>
      </trkpt>
      <trkpt lat="45.16913" lon="5.71285">
        <ele>246.624263</ele>
        <time>2026-08-29T12:31:15.000Z</time>
      </trkpt>
      <trkpt lat="45.16918" lon="5.71286">
        <ele>246.610413</ele>
        <time>2026-08-29T12:31:16.000Z</time>
      </trkpt>
      <trkpt lat="45.16924" lon="5.71288">
        <ele>246.593195</ele>
        <time>2026-08-29T12:31:17.000Z</time>
      </trkpt>
      <trkpt lat="45.16929" lon="5.71291">
        <ele>246.575755</ele>
        <time>2026-08-29T12:31:18.000Z</time>
      </trkpt>
      <trkpt lat="45.16935" lon="5.71293">
        <ele>246.558745</ele>
        <time>2026-08-29T12:31:19.000Z</time>
      </trkpt>
      <trkpt lat="45.16941" lon="5.71295">
        <ele>246.54008</ele>
        <time>2026-08-29T12:31:20.000Z</time>
      </trkpt>
      <trkpt lat="45.16947" lon="5.71297">
        <ele>246.52217</ele>
        <time>2026-08-29T12:31:21.000Z</time>
      </trkpt>
      <trkpt lat="45.16952" lon="5.71299">
        <ele>246.5075</ele>
        <time>2026-08-29T12:31:22.000Z</time>
      </trkpt>
      <trkpt lat="45.16958" lon="5.71301">
        <ele>246.490635</ele>
        <time>2026-08-29T12:31:23.000Z</time>
      </trkpt>
      <trkpt lat="45.16963" lon="5.71303">
        <ele>246.473665</ele>
        <time>2026-08-29T12:31:24.000Z</time>
      </trkpt>
      <trkpt lat="45.16969" lon="5.71305">
        <ele>246.456184</ele>
        <time>2026-08-29T12:31:25.000Z</time>
      </trkpt>
      <trkpt lat="45.16974" lon="5.71305">
        <ele>246.441288</ele>
        <time>2026-08-29T12:31:26.000Z</time>
      </trkpt>
      <trkpt lat="45.16979" lon="5.71306">
        <ele>246.427697</ele>
        <time>2026-08-29T12:31:27.000Z</time>
      </trkpt>
      <trkpt lat="45.16983" lon="5.71308">
        <ele>246.413647</ele>
        <time>2026-08-29T12:31:28.000Z</time>
      </trkpt>
      <trkpt lat="45.16987" lon="5.7131">
        <ele>246.401535</ele>
        <time>2026-08-29T12:31:29.000Z</time>
      </trkpt>
      <trkpt lat="45.16992" lon="5.71312">
        <ele>246.38804</ele>
        <time>2026-08-29T12:31:30.000Z</time>
      </trkpt>
      <trkpt lat="45.16996" lon="5.71315">
        <ele>246.373502</ele>
        <time>2026-08-29T12:31:31.000Z</time>
      </trkpt>
      <trkpt lat="45.17001" lon="5.71317">
        <ele>246.358486</ele>
        <time>2026-08-29T12:31:32.000Z</time>
      </trkpt>
      <trkpt lat="45.17006" lon="5.71319">
        <ele>246.344886</ele>
        <time>2026-08-29T12:31:33.000Z</time>
      </trkpt>
      <trkpt lat="45.1701" lon="5.7132">
        <ele>246.332352</ele>
        <time>2026-08-29T12:31:34.000Z</time>
      </trkpt>
      <trkpt lat="45.17014" lon="5.71321">
        <ele>246.320235</ele>
        <time>2026-08-29T12:31:35.000Z</time>
      </trkpt>
      <trkpt lat="45.17018" lon="5.71322">
        <ele>246.308623</ele>
        <time>2026-08-29T12:31:36.000Z</time>
      </trkpt>
      <trkpt lat="45.17023" lon="5.71324">
        <ele>246.293732</ele>
        <time>2026-08-29T12:31:37.000Z</time>
      </trkpt>
      <trkpt lat="45.17027" lon="5.71326">
        <ele>246.2799</ele>
        <time>2026-08-29T12:31:38.000Z</time>
      </trkpt>
      <trkpt lat="45.17031" lon="5.71327">
        <ele>246.269716</ele>
        <time>2026-08-29T12:31:39.000Z</time>
      </trkpt>
      <trkpt lat="45.17035" lon="5.71328">
        <ele>246.256018</ele>
        <time>2026-08-29T12:31:40.000Z</time>
      </trkpt>
      <trkpt lat="45.17041" lon="5.7133">
        <ele>246.240022</ele>
        <time>2026-08-29T12:31:41.000Z</time>
      </trkpt>
      <trkpt lat="45.17045" lon="5.71331">
        <ele>246.226398</ele>
        <time>2026-08-29T12:31:42.000Z</time>
      </trkpt>
      <trkpt lat="45.17051" lon="5.71332">
        <ele>246.209143</ele>
        <time>2026-08-29T12:31:43.000Z</time>
      </trkpt>
      <trkpt lat="45.17057" lon="5.71334">
        <ele>246.190858</ele>
        <time>2026-08-29T12:31:44.000Z</time>
      </trkpt>
      <trkpt lat="45.17063" lon="5.71337">
        <ele>246.173214</ele>
        <time>2026-08-29T12:31:45.000Z</time>
      </trkpt>
      <trkpt lat="45.17068" lon="5.71339">
        <ele>246.157367</ele>
        <time>2026-08-29T12:31:46.000Z</time>
      </trkpt>
      <trkpt lat="45.17073" lon="5.71339">
        <ele>246.143893</ele>
        <time>2026-08-29T12:31:47.000Z</time>
      </trkpt>
      <trkpt lat="45.17078" lon="5.7134">
        <ele>246.130129</ele>
        <time>2026-08-29T12:31:48.000Z</time>
      </trkpt>
      <trkpt lat="45.17083" lon="5.71342">
        <ele>246.110477</ele>
        <time>2026-08-29T12:31:49.000Z</time>
      </trkpt>
      <trkpt lat="45.17089" lon="5.71344">
        <ele>246.088944</ele>
        <time>2026-08-29T12:31:50.000Z</time>
      </trkpt>
      <trkpt lat="45.17095" lon="5.71346">
        <ele>246.066399</ele>
        <time>2026-08-29T12:31:51.000Z</time>
      </trkpt>
      <trkpt lat="45.171" lon="5.71348">
        <ele>246.044412</ele>
        <time>2026-08-29T12:31:52.000Z</time>
      </trkpt>
      <trkpt lat="45.17106" lon="5.71351">
        <ele>246.021928</ele>
        <time>2026-08-29T12:31:53.000Z</time>
      </trkpt>
      <trkpt lat="45.17111" lon="5.71353">
        <ele>246.001036</ele>
        <time>2026-08-29T12:31:54.000Z</time>
      </trkpt>
      <trkpt lat="45.17117" lon="5.71356">
        <ele>245.979503</ele>
        <time>2026-08-29T12:31:55.000Z</time>
      </trkpt>
      <trkpt lat="45.17122" lon="5.71358">
        <ele>245.957389</ele>
        <time>2026-08-29T12:31:56.000Z</time>
      </trkpt>
      <trkpt lat="45.17128" lon="5.7136">
        <ele>245.936068</ele>
        <time>2026-08-29T12:31:57.000Z</time>
      </trkpt>
      <trkpt lat="45.17133" lon="5.71361">
        <ele>245.915237</ele>
        <time>2026-08-29T12:31:58.000Z</time>
      </trkpt>
      <trkpt lat="45.17139" lon="5.71363">
        <ele>245.893615</ele>
        <time>2026-08-29T12:31:59.000Z</time>
      </trkpt>
      <trkpt lat="45.17144" lon="5.71365">
        <ele>245.87321</ele>
        <time>2026-08-29T12:32:00.000Z</time>
      </trkpt>
      <trkpt lat="45.1715" lon="5.71367">
        <ele>245.851648</ele>
        <time>2026-08-29T12:32:01.000Z</time>
      </trkpt>
      <trkpt lat="45.17156" lon="5.71369">
        <ele>245.82972</ele>
        <time>2026-08-29T12:32:02.000Z</time>
      </trkpt>
      <trkpt lat="45.17161" lon="5.7137">
        <ele>245.807058</ele>
        <time>2026-08-29T12:32:03.000Z</time>
      </trkpt>
      <trkpt lat="45.17167" lon="5.71372">
        <ele>245.785185</ele>
        <time>2026-08-29T12:32:04.000Z</time>
      </trkpt>
      <trkpt lat="45.17173" lon="5.71374">
        <ele>245.763734</ele>
        <time>2026-08-29T12:32:05.000Z</time>
      </trkpt>
      <trkpt lat="45.17178" lon="5.71376">
        <ele>245.742841</ele>
        <time>2026-08-29T12:32:06.000Z</time>
      </trkpt>
      <trkpt lat="45.17183" lon="5.71377">
        <ele>245.722436</ele>
        <time>2026-08-29T12:32:07.000Z</time>
      </trkpt>
      <trkpt lat="45.17189" lon="5.71379">
        <ele>245.701773</ele>
        <time>2026-08-29T12:32:08.000Z</time>
      </trkpt>
      <trkpt lat="45.17194" lon="5.7138">
        <ele>245.681529</ele>
        <time>2026-08-29T12:32:09.000Z</time>
      </trkpt>
      <trkpt lat="45.17199" lon="5.71382">
        <ele>245.662809</ele>
        <time>2026-08-29T12:32:10.000Z</time>
      </trkpt>
      <trkpt lat="45.17204" lon="5.71383">
        <ele>245.64404</ele>
        <time>2026-08-29T12:32:11.000Z</time>
      </trkpt>
      <trkpt lat="45.17209" lon="5.71384">
        <ele>245.625216</ele>
        <time>2026-08-29T12:32:12.000Z</time>
      </trkpt>
      <trkpt lat="45.17214" lon="5.71386">
        <ele>245.606814</ele>
        <time>2026-08-29T12:32:13.000Z</time>
      </trkpt>
      <trkpt lat="45.17218" lon="5.71387">
        <ele>245.588832</ele>
        <time>2026-08-29T12:32:14.000Z</time>
      </trkpt>
      <trkpt lat="45.17222" lon="5.71388">
        <ele>245.573422</ele>
        <time>2026-08-29T12:32:15.000Z</time>
      </trkpt>
      <trkpt lat="45.17227" lon="5.7139">
        <ele>245.556489</ele>
        <time>2026-08-29T12:32:16.000Z</time>
      </trkpt>
      <trkpt lat="45.17231" lon="5.71391">
        <ele>245.540538</ele>
        <time>2026-08-29T12:32:17.000Z</time>
      </trkpt>
      <trkpt lat="45.17236" lon="5.71392">
        <ele>245.522605</ele>
        <time>2026-08-29T12:32:18.000Z</time>
      </trkpt>
      <trkpt lat="45.17239" lon="5.71393">
        <ele>245.508291</ele>
        <time>2026-08-29T12:32:19.000Z</time>
      </trkpt>
      <trkpt lat="45.17243" lon="5.71394">
        <ele>245.495134</ele>
        <time>2026-08-29T12:32:20.000Z</time>
      </trkpt>
      <trkpt lat="45.17244" lon="5.71395">
        <ele>245.488556</ele>
        <time>2026-08-29T12:32:21.000Z</time>
      </trkpt>
      <trkpt lat="45.17247" lon="5.71395">
        <ele>245.48063</ele>
        <time>2026-08-29T12:32:22.000Z</time>
      </trkpt>
      <trkpt lat="45.17249" lon="5.71394">
        <ele>245.472301</ele>
        <time>2026-08-29T12:32:23.000Z</time>
      </trkpt>
      <trkpt lat="45.17251" lon="5.71395">
        <ele>245.462251</ele>
        <time>2026-08-29T12:32:24.000Z</time>
      </trkpt>
      <trkpt lat="45.17254" lon="5.71396">
        <ele>245.453922</ele>
        <time>2026-08-29T12:32:25.000Z</time>
      </trkpt>
      <trkpt lat="45.17256" lon="5.71396">
        <ele>245.441876</ele>
        <time>2026-08-29T12:32:26.000Z</time>
      </trkpt>
      <trkpt lat="45.1726" lon="5.71397">
        <ele>245.421979</ele>
        <time>2026-08-29T12:32:27.000Z</time>
      </trkpt>
      <trkpt lat="45.17263" lon="5.714">
        <ele>245.402739</ele>
        <time>2026-08-29T12:32:28.000Z</time>
      </trkpt>
      <trkpt lat="45.17268" lon="5.71401">
        <ele>245.37309</ele>
        <time>2026-08-29T12:32:29.000Z</time>
      </trkpt>
      <trkpt lat="45.17273" lon="5.71403">
        <ele>245.345254</ele>
        <time>2026-08-29T12:32:30.000Z</time>
      </trkpt>
      <trkpt lat="45.17279" lon="5.71405">
        <ele>245.313675</ele>
        <time>2026-08-29T12:32:31.000Z</time>
      </trkpt>
      <trkpt lat="45.17284" lon="5.71406">
        <ele>245.282874</ele>
        <time>2026-08-29T12:32:32.000Z</time>
      </trkpt>
      <trkpt lat="45.1729" lon="5.71408">
        <ele>245.25208</ele>
        <time>2026-08-29T12:32:33.000Z</time>
      </trkpt>
      <trkpt lat="45.17295" lon="5.7141">
        <ele>245.222109</ele>
        <time>2026-08-29T12:32:34.000Z</time>
      </trkpt>
      <trkpt lat="45.17301" lon="5.71412">
        <ele>245.188027</ele>
        <time>2026-08-29T12:32:35.000Z</time>
      </trkpt>
      <trkpt lat="45.17307" lon="5.71414">
        <ele>245.155107</ele>
        <time>2026-08-29T12:32:36.000Z</time>
      </trkpt>
      <trkpt lat="45.17312" lon="5.71416">
        <ele>245.123151</ele>
        <time>2026-08-29T12:32:37.000Z</time>
      </trkpt>
      <trkpt lat="45.17318" lon="5.71418">
        <ele>245.093835</ele>
        <time>2026-08-29T12:32:38.000Z</time>
      </trkpt>
      <trkpt lat="45.17323" lon="5.7142">
        <ele>245.060715</ele>
        <time>2026-08-29T12:32:39.000Z</time>
      </trkpt>
      <trkpt lat="45.17328" lon="5.71422">
        <ele>245.036144</ele>
        <time>2026-08-29T12:32:40.000Z</time>
      </trkpt>
      <trkpt lat="45.17333" lon="5.71424">
        <ele>245.007236</ele>
        <time>2026-08-29T12:32:41.000Z</time>
      </trkpt>
      <trkpt lat="45.17338" lon="5.71426">
        <ele>244.9793</ele>
        <time>2026-08-29T12:32:42.000Z</time>
      </trkpt>
      <trkpt lat="45.17342" lon="5.71429">
        <ele>244.952413</ele>
        <time>2026-08-29T12:32:43.000Z</time>
      </trkpt>
      <trkpt lat="45.17347" lon="5.71431">
        <ele>244.92351</ele>
        <time>2026-08-29T12:32:44.000Z</time>
      </trkpt>
      <trkpt lat="45.17351" lon="5.7143">
        <ele>244.901294</ele>
        <time>2026-08-29T12:32:45.000Z</time>
      </trkpt>
      <trkpt lat="45.17355" lon="5.7143">
        <ele>244.880392</ele>
        <time>2026-08-29T12:32:46.000Z</time>
      </trkpt>
      <trkpt lat="45.1736" lon="5.71432">
        <ele>244.84935</ele>
        <time>2026-08-29T12:32:47.000Z</time>
      </trkpt>
      <trkpt lat="45.17366" lon="5.71433">
        <ele>244.819627</ele>
        <time>2026-08-29T12:32:48.000Z</time>
      </trkpt>
      <trkpt lat="45.17371" lon="5.71435">
        <ele>244.790589</ele>
        <time>2026-08-29T12:32:49.000Z</time>
      </trkpt>
      <trkpt lat="45.17375" lon="5.71434">
        <ele>244.769601</ele>
        <time>2026-08-29T12:32:50.000Z</time>
      </trkpt>
      <trkpt lat="45.17379" lon="5.71435">
        <ele>244.743021</ele>
        <time>2026-08-29T12:32:51.000Z</time>
      </trkpt>
      <trkpt lat="45.17385" lon="5.71437">
        <ele>244.712515</ele>
        <time>2026-08-29T12:32:52.000Z</time>
      </trkpt>
      <trkpt lat="45.1739" lon="5.7144">
        <ele>244.682807</ele>
        <time>2026-08-29T12:32:53.000Z</time>
      </trkpt>
      <trkpt lat="45.17395" lon="5.71442">
        <ele>244.650745</ele>
        <time>2026-08-29T12:32:54.000Z</time>
      </trkpt>
      <trkpt lat="45.17401" lon="5.71444">
        <ele>244.619613</ele>
        <time>2026-08-29T12:32:55.000Z</time>
      </trkpt>
      <trkpt lat="45.17406" lon="5.71446">
        <ele>244.589452</ele>
        <time>2026-08-29T12:32:56.000Z</time>
      </trkpt>
      <trkpt lat="45.17411" lon="5.71448">
        <ele>244.560453</ele>
        <time>2026-08-29T12:32:57.000Z</time>
      </trkpt>
      <trkpt lat="45.17416" lon="5.71451">
        <ele>244.529784</ele>
        <time>2026-08-29T12:32:58.000Z</time>
      </trkpt>
      <trkpt lat="45.17422" lon="5.71456">
        <ele>244.495874</ele>
        <time>2026-08-29T12:32:59.000Z</time>
      </trkpt>
      <trkpt lat="45.17426" lon="5.71459">
        <ele>244.467698</ele>
        <time>2026-08-29T12:33:00.000Z</time>
      </trkpt>
      <trkpt lat="45.17431" lon="5.71461">
        <ele>244.450375</ele>
        <time>2026-08-29T12:33:01.000Z</time>
      </trkpt>
      <trkpt lat="45.17436" lon="5.71462">
        <ele>244.438143</ele>
        <time>2026-08-29T12:33:02.000Z</time>
      </trkpt>
      <trkpt lat="45.1744" lon="5.71464">
        <ele>244.425848</ele>
        <time>2026-08-29T12:33:03.000Z</time>
      </trkpt>
      <trkpt lat="45.17445" lon="5.71466">
        <ele>244.413102</ele>
        <time>2026-08-29T12:33:04.000Z</time>
      </trkpt>
      <trkpt lat="45.1745" lon="5.71468">
        <ele>244.400475</ele>
        <time>2026-08-29T12:33:05.000Z</time>
      </trkpt>
      <trkpt lat="45.17455" lon="5.7147">
        <ele>244.387695</ele>
        <time>2026-08-29T12:33:06.000Z</time>
      </trkpt>
      <trkpt lat="45.1746" lon="5.71472">
        <ele>244.375084</ele>
        <time>2026-08-29T12:33:07.000Z</time>
      </trkpt>
      <trkpt lat="45.17464" lon="5.71473">
        <ele>244.362791</ele>
        <time>2026-08-29T12:33:08.000Z</time>
      </trkpt>
      <trkpt lat="45.17469" lon="5.71475">
        <ele>244.349769</ele>
        <time>2026-08-29T12:33:09.000Z</time>
      </trkpt>
      <trkpt lat="45.17474" lon="5.71477">
        <ele>244.336548</ele>
        <time>2026-08-29T12:33:10.000Z</time>
      </trkpt>
      <trkpt lat="45.1748" lon="5.71478">
        <ele>244.323479</ele>
        <time>2026-08-29T12:33:11.000Z</time>
      </trkpt>
      <trkpt lat="45.17485" lon="5.71479">
        <ele>244.310301</ele>
        <time>2026-08-29T12:33:12.000Z</time>
      </trkpt>
      <trkpt lat="45.1749" lon="5.71481">
        <ele>244.296876</ele>
        <time>2026-08-29T12:33:13.000Z</time>
      </trkpt>
      <trkpt lat="45.17495" lon="5.71481">
        <ele>244.282999</ele>
        <time>2026-08-29T12:33:14.000Z</time>
      </trkpt>
      <trkpt lat="45.17501" lon="5.71483">
        <ele>244.268758</ele>
        <time>2026-08-29T12:33:15.000Z</time>
      </trkpt>
      <trkpt lat="45.17506" lon="5.71485">
        <ele>244.255863</ele>
        <time>2026-08-29T12:33:16.000Z</time>
      </trkpt>
      <trkpt lat="45.17511" lon="5.71487">
        <ele>244.243326</ele>
        <time>2026-08-29T12:33:17.000Z</time>
      </trkpt>
      <trkpt lat="45.17515" lon="5.71487">
        <ele>244.232755</ele>
        <time>2026-08-29T12:33:18.000Z</time>
      </trkpt>
      <trkpt lat="45.17519" lon="5.71484">
        <ele>244.221988</ele>
        <time>2026-08-29T12:33:19.000Z</time>
      </trkpt>
      <trkpt lat="45.17523" lon="5.71486">
        <ele>244.210125</ele>
        <time>2026-08-29T12:33:20.000Z</time>
      </trkpt>
      <trkpt lat="45.17528" lon="5.71489">
        <ele>244.1973</ele>
        <time>2026-08-29T12:33:21.000Z</time>
      </trkpt>
      <trkpt lat="45.17533" lon="5.71491">
        <ele>244.184854</ele>
        <time>2026-08-29T12:33:22.000Z</time>
      </trkpt>
      <trkpt lat="45.17538" lon="5.71493">
        <ele>244.171693</ele>
        <time>2026-08-29T12:33:23.000Z</time>
      </trkpt>
      <trkpt lat="45.17543" lon="5.71496">
        <ele>244.157697</ele>
        <time>2026-08-29T12:33:24.000Z</time>
      </trkpt>
      <trkpt lat="45.17548" lon="5.71498">
        <ele>244.144527</ele>
        <time>2026-08-29T12:33:25.000Z</time>
      </trkpt>
      <trkpt lat="45.17553" lon="5.715">
        <ele>244.130291</ele>
        <time>2026-08-29T12:33:26.000Z</time>
      </trkpt>
      <trkpt lat="45.17559" lon="5.71501">
        <ele>244.117286</ele>
        <time>2026-08-29T12:33:27.000Z</time>
      </trkpt>
      <trkpt lat="45.17564" lon="5.71503">
        <ele>244.103063</ele>
        <time>2026-08-29T12:33:28.000Z</time>
      </trkpt>
      <trkpt lat="45.1757" lon="5.71504">
        <ele>244.089108</ele>
        <time>2026-08-29T12:33:29.000Z</time>
      </trkpt>
      <trkpt lat="45.17575" lon="5.71506">
        <ele>244.076131</ele>
        <time>2026-08-29T12:33:30.000Z</time>
      </trkpt>
      <trkpt lat="45.17579" lon="5.71508">
        <ele>244.063727</ele>
        <time>2026-08-29T12:33:31.000Z</time>
      </trkpt>
      <trkpt lat="45.17584" lon="5.7151">
        <ele>244.050609</ele>
        <time>2026-08-29T12:33:32.000Z</time>
      </trkpt>
      <trkpt lat="45.17589" lon="5.71512">
        <ele>244.038023</ele>
        <time>2026-08-29T12:33:33.000Z</time>
      </trkpt>
      <trkpt lat="45.17594" lon="5.71513">
        <ele>244.025904</ele>
        <time>2026-08-29T12:33:34.000Z</time>
      </trkpt>
      <trkpt lat="45.17599" lon="5.71515">
        <ele>244.012544</ele>
        <time>2026-08-29T12:33:35.000Z</time>
      </trkpt>
      <trkpt lat="45.17604" lon="5.71517">
        <ele>243.997969</ele>
        <time>2026-08-29T12:33:36.000Z</time>
      </trkpt>
      <trkpt lat="45.1761" lon="5.71518">
        <ele>243.980768</ele>
        <time>2026-08-29T12:33:37.000Z</time>
      </trkpt>
      <trkpt lat="45.17614" lon="5.7152">
        <ele>243.965593</ele>
        <time>2026-08-29T12:33:38.000Z</time>
      </trkpt>
      <trkpt lat="45.17619" lon="5.71522">
        <ele>243.949713</ele>
        <time>2026-08-29T12:33:39.000Z</time>
      </trkpt>
      <trkpt lat="45.17624" lon="5.71523">
        <ele>243.933861</ele>
        <time>2026-08-29T12:33:40.000Z</time>
      </trkpt>
      <trkpt lat="45.17629" lon="5.71524">
        <ele>243.917457</ele>
        <time>2026-08-29T12:33:41.000Z</time>
      </trkpt>
      <trkpt lat="45.17635" lon="5.71526">
        <ele>243.899652</ele>
        <time>2026-08-29T12:33:42.000Z</time>
      </trkpt>
      <trkpt lat="45.17639" lon="5.71529">
        <ele>243.884843</ele>
        <time>2026-08-29T12:33:43.000Z</time>
      </trkpt>
      <trkpt lat="45.17644" lon="5.7153">
        <ele>243.868057</ele>
        <time>2026-08-29T12:33:44.000Z</time>
      </trkpt>
      <trkpt lat="45.17649" lon="5.71532">
        <ele>243.851817</ele>
        <time>2026-08-29T12:33:45.000Z</time>
      </trkpt>
      <trkpt lat="45.17654" lon="5.71534">
        <ele>243.836099</ele>
        <time>2026-08-29T12:33:46.000Z</time>
      </trkpt>
      <trkpt lat="45.1766" lon="5.71535">
        <ele>243.819723</ele>
        <time>2026-08-29T12:33:47.000Z</time>
      </trkpt>
      <trkpt lat="45.17665" lon="5.71536">
        <ele>243.803036</ele>
        <time>2026-08-29T12:33:48.000Z</time>
      </trkpt>
      <trkpt lat="45.1767" lon="5.71537">
        <ele>243.785876</ele>
        <time>2026-08-29T12:33:49.000Z</time>
      </trkpt>
      <trkpt lat="45.17676" lon="5.71538">
        <ele>243.768512</ele>
        <time>2026-08-29T12:33:50.000Z</time>
      </trkpt>
      <trkpt lat="45.17682" lon="5.71538">
        <ele>243.749444</ele>
        <time>2026-08-29T12:33:51.000Z</time>
      </trkpt>
      <trkpt lat="45.17687" lon="5.71539">
        <ele>243.731849</ele>
        <time>2026-08-29T12:33:52.000Z</time>
      </trkpt>
      <trkpt lat="45.17693" lon="5.7154">
        <ele>243.715244</ele>
        <time>2026-08-29T12:33:53.000Z</time>
      </trkpt>
      <trkpt lat="45.17698" lon="5.7154">
        <ele>243.698894</ele>
        <time>2026-08-29T12:33:54.000Z</time>
      </trkpt>
      <trkpt lat="45.17703" lon="5.71541">
        <ele>243.683758</ele>
        <time>2026-08-29T12:33:55.000Z</time>
      </trkpt>
      <trkpt lat="45.17708" lon="5.71542">
        <ele>243.668312</ele>
        <time>2026-08-29T12:33:56.000Z</time>
      </trkpt>
      <trkpt lat="45.17712" lon="5.71542">
        <ele>243.656119</ele>
        <time>2026-08-29T12:33:57.000Z</time>
      </trkpt>
      <trkpt lat="45.17714" lon="5.71543">
        <ele>243.64701</ele>
        <time>2026-08-29T12:33:58.000Z</time>
      </trkpt>
      <trkpt lat="45.17718" lon="5.71544">
        <ele>243.635146</ele>
        <time>2026-08-29T12:33:59.000Z</time>
      </trkpt>
      <trkpt lat="45.17723" lon="5.71546">
        <ele>243.620768</ele>
        <time>2026-08-29T12:34:00.000Z</time>
      </trkpt>
      <trkpt lat="45.17727" lon="5.71547">
        <ele>243.608107</ele>
        <time>2026-08-29T12:34:01.000Z</time>
      </trkpt>
      <trkpt lat="45.17731" lon="5.71548">
        <ele>243.593751</ele>
        <time>2026-08-29T12:34:02.000Z</time>
      </trkpt>
      <trkpt lat="45.17736" lon="5.7155">
        <ele>243.577812</ele>
        <time>2026-08-29T12:34:03.000Z</time>
      </trkpt>
      <trkpt lat="45.1774" lon="5.71552">
        <ele>243.563596</ele>
        <time>2026-08-29T12:34:04.000Z</time>
      </trkpt>
      <trkpt lat="45.17745" lon="5.71553">
        <ele>243.54832</ele>
        <time>2026-08-29T12:34:05.000Z</time>
      </trkpt>
      <trkpt lat="45.17749" lon="5.71554">
        <ele>243.534732</ele>
        <time>2026-08-29T12:34:06.000Z</time>
      </trkpt>
      <trkpt lat="45.17754" lon="5.71556">
        <ele>243.519763</ele>
        <time>2026-08-29T12:34:07.000Z</time>
      </trkpt>
      <trkpt lat="45.17759" lon="5.71558">
        <ele>243.503779</ele>
        <time>2026-08-29T12:34:08.000Z</time>
      </trkpt>
      <trkpt lat="45.17763" lon="5.71561">
        <ele>243.488671</ele>
        <time>2026-08-29T12:34:09.000Z</time>
      </trkpt>
      <trkpt lat="45.17767" lon="5.71561">
        <ele>243.476382</ele>
        <time>2026-08-29T12:34:10.000Z</time>
      </trkpt>
      <trkpt lat="45.17772" lon="5.71562">
        <ele>243.460964</ele>
        <time>2026-08-29T12:34:11.000Z</time>
      </trkpt>
      <trkpt lat="45.17776" lon="5.71564">
        <ele>243.447009</ele>
        <time>2026-08-29T12:34:12.000Z</time>
      </trkpt>
      <trkpt lat="45.17781" lon="5.71565">
        <ele>243.432292</ele>
        <time>2026-08-29T12:34:13.000Z</time>
      </trkpt>
      <trkpt lat="45.17786" lon="5.71566">
        <ele>243.418673</ele>
        <time>2026-08-29T12:34:14.000Z</time>
      </trkpt>
      <trkpt lat="45.1779" lon="5.71568">
        <ele>243.403802</ele>
        <time>2026-08-29T12:34:15.000Z</time>
      </trkpt>
      <trkpt lat="45.17795" lon="5.7157">
        <ele>243.387245</ele>
        <time>2026-08-29T12:34:16.000Z</time>
      </trkpt>
      <trkpt lat="45.178" lon="5.71571">
        <ele>243.372786</ele>
        <time>2026-08-29T12:34:17.000Z</time>
      </trkpt>
      <trkpt lat="45.17804" lon="5.71573">
        <ele>243.360292</ele>
        <time>2026-08-29T12:34:18.000Z</time>
      </trkpt>
      <trkpt lat="45.17808" lon="5.71576">
        <ele>243.346628</ele>
        <time>2026-08-29T12:34:19.000Z</time>
      </trkpt>
      <trkpt lat="45.1781" lon="5.71577">
        <ele>243.339075</ele>
        <time>2026-08-29T12:34:20.000Z</time>
      </trkpt>
      <trkpt lat="45.17813" lon="5.71578">
        <ele>243.329821</ele>
        <time>2026-08-29T12:34:21.000Z</time>
      </trkpt>
      <trkpt lat="45.17816" lon="5.71579">
        <ele>243.321015</ele>
        <time>2026-08-29T12:34:22.000Z</time>
      </trkpt>
      <trkpt lat="45.17819" lon="5.71579">
        <ele>243.312437</ele>
        <time>2026-08-29T12:34:23.000Z</time>
      </trkpt>
      <trkpt lat="45.17822" lon="5.7158">
        <ele>243.301375</ele>
        <time>2026-08-29T12:34:24.000Z</time>
      </trkpt>
      <trkpt lat="45.17824" lon="5.71581">
        <ele>243.294654</ele>
        <time>2026-08-29T12:34:25.000Z</time>
      </trkpt>
      <trkpt lat="45.17828" lon="5.71583">
        <ele>243.282745</ele>
        <time>2026-08-29T12:34:26.000Z</time>
      </trkpt>
      <trkpt lat="45.17832" lon="5.71585">
        <ele>243.270602</ele>
        <time>2026-08-29T12:34:27.000Z</time>
      </trkpt>
      <trkpt lat="45.17835" lon="5.71587">
        <ele>243.258594</ele>
        <time>2026-08-29T12:34:28.000Z</time>
      </trkpt>
      <trkpt lat="45.17839" lon="5.71588">
        <ele>243.248098</ele>
        <time>2026-08-29T12:34:29.000Z</time>
      </trkpt>
      <trkpt lat="45.17841" lon="5.71587">
        <ele>243.240695</ele>
        <time>2026-08-29T12:34:30.000Z</time>
      </trkpt>
      <trkpt lat="45.17844" lon="5.71588">
        <ele>243.230137</ele>
        <time>2026-08-29T12:34:31.000Z</time>
      </trkpt>
      <trkpt lat="45.17847" lon="5.71589">
        <ele>243.221462</ele>
        <time>2026-08-29T12:34:32.000Z</time>
      </trkpt>
      <trkpt lat="45.17851" lon="5.7159">
        <ele>243.20867</ele>
        <time>2026-08-29T12:34:33.000Z</time>
      </trkpt>
      <trkpt lat="45.17855" lon="5.71591">
        <ele>243.196957</ele>
        <time>2026-08-29T12:34:34.000Z</time>
      </trkpt>
      <trkpt lat="45.17859" lon="5.71593">
        <ele>243.183094</ele>
        <time>2026-08-29T12:34:35.000Z</time>
      </trkpt>
      <trkpt lat="45.17863" lon="5.71593">
        <ele>243.172669</ele>
        <time>2026-08-29T12:34:36.000Z</time>
      </trkpt>
      <trkpt lat="45.17866" lon="5.71592">
        <ele>243.161808</ele>
        <time>2026-08-29T12:34:37.000Z</time>
      </trkpt>
      <trkpt lat="45.1787" lon="5.71592">
        <ele>243.151084</ele>
        <time>2026-08-29T12:34:38.000Z</time>
      </trkpt>
      <trkpt lat="45.17874" lon="5.71592">
        <ele>243.136679</ele>
        <time>2026-08-29T12:34:39.000Z</time>
      </trkpt>
      <trkpt lat="45.17878" lon="5.71593">
        <ele>243.124701</ele>
        <time>2026-08-29T12:34:40.000Z</time>
      </trkpt>
      <trkpt lat="45.17882" lon="5.71594">
        <ele>243.112969</ele>
        <time>2026-08-29T12:34:41.000Z</time>
      </trkpt>
      <trkpt lat="45.17887" lon="5.71594">
        <ele>243.098851</ele>
        <time>2026-08-29T12:34:42.000Z</time>
      </trkpt>
      <trkpt lat="45.17892" lon="5.71596">
        <ele>243.083014</ele>
        <time>2026-08-29T12:34:43.000Z</time>
      </trkpt>
      <trkpt lat="45.17896" lon="5.71597">
        <ele>243.069327</ele>
        <time>2026-08-29T12:34:44.000Z</time>
      </trkpt>
      <trkpt lat="45.17902" lon="5.71598">
        <ele>243.052614</ele>
        <time>2026-08-29T12:34:45.000Z</time>
      </trkpt>
      <trkpt lat="45.17906" lon="5.71599">
        <ele>243.037856</ele>
        <time>2026-08-29T12:34:46.000Z</time>
      </trkpt>
      <trkpt lat="45.17911" lon="5.71601">
        <ele>243.0216</ele>
        <time>2026-08-29T12:34:47.000Z</time>
      </trkpt>
      <trkpt lat="45.17915" lon="5.71602">
        <ele>243.009029</ele>
        <time>2026-08-29T12:34:48.000Z</time>
      </trkpt>
      <trkpt lat="45.1792" lon="5.71603">
        <ele>242.995945</ele>
        <time>2026-08-29T12:34:49.000Z</time>
      </trkpt>
      <trkpt lat="45.17924" lon="5.71604">
        <ele>242.983162</ele>
        <time>2026-08-29T12:34:50.000Z</time>
      </trkpt>
      <trkpt lat="45.17927" lon="5.71606">
        <ele>242.971395</ele>
        <time>2026-08-29T12:34:51.000Z</time>
      </trkpt>
      <trkpt lat="45.17931" lon="5.71608">
        <ele>242.96013</ele>
        <time>2026-08-29T12:34:52.000Z</time>
      </trkpt>
      <trkpt lat="45.17935" lon="5.71608">
        <ele>242.948087</ele>
        <time>2026-08-29T12:34:53.000Z</time>
      </trkpt>
      <trkpt lat="45.17939" lon="5.71609">
        <ele>242.935213</ele>
        <time>2026-08-29T12:34:54.000Z</time>
      </trkpt>
      <trkpt lat="45.17942" lon="5.71608">
        <ele>242.926313</ele>
        <time>2026-08-29T12:34:55.000Z</time>
      </trkpt>
      <trkpt lat="45.17946" lon="5.71608">
        <ele>242.914654</ele>
        <time>2026-08-29T12:34:56.000Z</time>
      </trkpt>
      <trkpt lat="45.1795" lon="5.71609">
        <ele>242.901672</ele>
        <time>2026-08-29T12:34:57.000Z</time>
      </trkpt>
      <trkpt lat="45.17954" lon="5.7161">
        <ele>242.916409</ele>
        <time>2026-08-29T12:34:58.000Z</time>
      </trkpt>
      <trkpt lat="45.17958" lon="5.7161">
        <ele>242.990475</ele>
        <time>2026-08-29T12:34:59.000Z</time>
      </trkpt>
      <trkpt lat="45.17963" lon="5.71611">
        <ele>243.096022</ele>
        <time>2026-08-29T12:35:00.000Z</time>
      </trkpt>
      <trkpt lat="45.17967" lon="5.71611">
        <ele>243.191187</ele>
        <time>2026-08-29T12:35:01.000Z</time>
      </trkpt>
      <trkpt lat="45.17971" lon="5.71613">
        <ele>243.260651</ele>
        <time>2026-08-29T12:35:02.000Z</time>
      </trkpt>
      <trkpt lat="45.17974" lon="5.71614">
        <ele>243.328736</ele>
        <time>2026-08-29T12:35:03.000Z</time>
      </trkpt>
      <trkpt lat="45.17978" lon="5.71616">
        <ele>243.424693</ele>
        <time>2026-08-29T12:35:04.000Z</time>
      </trkpt>
      <trkpt lat="45.17984" lon="5.71618">
        <ele>243.554906</ele>
        <time>2026-08-29T12:35:05.000Z</time>
      </trkpt>
      <trkpt lat="45.1799" lon="5.71621">
        <ele>243.683956</ele>
        <time>2026-08-29T12:35:06.000Z</time>
      </trkpt>
      <trkpt lat="45.17996" lon="5.71625">
        <ele>243.820947</ele>
        <time>2026-08-29T12:35:07.000Z</time>
      </trkpt>
      <trkpt lat="45.18002" lon="5.71631">
        <ele>243.964552</ele>
        <time>2026-08-29T12:35:08.000Z</time>
      </trkpt>
      <trkpt lat="45.18006" lon="5.71637">
        <ele>244.089241</ele>
        <time>2026-08-29T12:35:09.000Z</time>
      </trkpt>
      <trkpt lat="45.18011" lon="5.71646">
        <ele>244.251726</ele>
        <time>2026-08-29T12:35:10.000Z</time>
      </trkpt>
      <trkpt lat="45.18015" lon="5.71656">
        <ele>244.414671</ele>
        <time>2026-08-29T12:35:11.000Z</time>
      </trkpt>
      <trkpt lat="45.18017" lon="5.71665">
        <ele>244.549852</ele>
        <time>2026-08-29T12:35:12.000Z</time>
      </trkpt>
      <trkpt lat="45.18019" lon="5.71673">
        <ele>244.675764</ele>
        <time>2026-08-29T12:35:13.000Z</time>
      </trkpt>
      <trkpt lat="45.18022" lon="5.71683">
        <ele>244.835761</ele>
        <time>2026-08-29T12:35:14.000Z</time>
      </trkpt>
      <trkpt lat="45.18023" lon="5.71693">
        <ele>244.976995</ele>
        <time>2026-08-29T12:35:15.000Z</time>
      </trkpt>
      <trkpt lat="45.18025" lon="5.71701">
        <ele>245.107363</ele>
        <time>2026-08-29T12:35:16.000Z</time>
      </trkpt>
      <trkpt lat="45.18027" lon="5.71709">
        <ele>245.218836</ele>
        <time>2026-08-29T12:35:17.000Z</time>
      </trkpt>
      <trkpt lat="45.18028" lon="5.71715">
        <ele>245.319068</ele>
        <time>2026-08-29T12:35:18.000Z</time>
      </trkpt>
      <trkpt lat="45.18029" lon="5.71724">
        <ele>245.442947</ele>
        <time>2026-08-29T12:35:19.000Z</time>
      </trkpt>
      <trkpt lat="45.1803" lon="5.71731">
        <ele>245.545105</ele>
        <time>2026-08-29T12:35:20.000Z</time>
      </trkpt>
      <trkpt lat="45.18031" lon="5.71737">
        <ele>245.642029</ele>
        <time>2026-08-29T12:35:21.000Z</time>
      </trkpt>
      <trkpt lat="45.18033" lon="5.71744">
        <ele>245.746725</ele>
        <time>2026-08-29T12:35:22.000Z</time>
      </trkpt>
      <trkpt lat="45.18034" lon="5.71751">
        <ele>245.855275</ele>
        <time>2026-08-29T12:35:23.000Z</time>
      </trkpt>
      <trkpt lat="45.18035" lon="5.71759">
        <ele>245.966747</ele>
        <time>2026-08-29T12:35:24.000Z</time>
      </trkpt>
      <trkpt lat="45.18037" lon="5.71766">
        <ele>246.071201</ele>
        <time>2026-08-29T12:35:25.000Z</time>
      </trkpt>
      <trkpt lat="45.18038" lon="5.71772">
        <ele>246.17152</ele>
        <time>2026-08-29T12:35:26.000Z</time>
      </trkpt>
      <trkpt lat="45.18039" lon="5.71779">
        <ele>246.265916</ele>
        <time>2026-08-29T12:35:27.000Z</time>
      </trkpt>
      <trkpt lat="45.1804" lon="5.71785">
        <ele>246.352348</ele>
        <time>2026-08-29T12:35:28.000Z</time>
      </trkpt>
      <trkpt lat="45.18041" lon="5.71791">
        <ele>246.448806</ele>
        <time>2026-08-29T12:35:29.000Z</time>
      </trkpt>
      <trkpt lat="45.18042" lon="5.71797">
        <ele>246.53592</ele>
        <time>2026-08-29T12:35:30.000Z</time>
      </trkpt>
      <trkpt lat="45.18043" lon="5.71802">
        <ele>246.589801</ele>
        <time>2026-08-29T12:35:31.000Z</time>
      </trkpt>
      <trkpt lat="45.18044" lon="5.71807">
        <ele>246.584633</ele>
        <time>2026-08-29T12:35:32.000Z</time>
      </trkpt>
      <trkpt lat="45.18045" lon="5.71814">
        <ele>246.578487</ele>
        <time>2026-08-29T12:35:33.000Z</time>
      </trkpt>
      <trkpt lat="45.18046" lon="5.7182">
        <ele>246.571875</ele>
        <time>2026-08-29T12:35:34.000Z</time>
      </trkpt>
      <trkpt lat="45.18046" lon="5.71828">
        <ele>246.564974</ele>
        <time>2026-08-29T12:35:35.000Z</time>
      </trkpt>
      <trkpt lat="45.18047" lon="5.71834">
        <ele>246.558526</ele>
        <time>2026-08-29T12:35:36.000Z</time>
      </trkpt>
      <trkpt lat="45.18047" lon="5.71841">
        <ele>246.552242</ele>
        <time>2026-08-29T12:35:37.000Z</time>
      </trkpt>
      <trkpt lat="45.18047" lon="5.71847">
        <ele>246.546334</ele>
        <time>2026-08-29T12:35:38.000Z</time>
      </trkpt>
      <trkpt lat="45.18047" lon="5.71853">
        <ele>246.540902</ele>
        <time>2026-08-29T12:35:39.000Z</time>
      </trkpt>
      <trkpt lat="45.18047" lon="5.71859">
        <ele>246.535271</ele>
        <time>2026-08-29T12:35:40.000Z</time>
      </trkpt>
      <trkpt lat="45.18046" lon="5.71865">
        <ele>246.529271</ele>
        <time>2026-08-29T12:35:41.000Z</time>
      </trkpt>
      <trkpt lat="45.18045" lon="5.71871">
        <ele>246.523339</ele>
        <time>2026-08-29T12:35:42.000Z</time>
      </trkpt>
      <trkpt lat="45.18044" lon="5.71877">
        <ele>246.517245</ele>
        <time>2026-08-29T12:35:43.000Z</time>
      </trkpt>
      <trkpt lat="45.18044" lon="5.71883">
        <ele>246.511245</ele>
        <time>2026-08-29T12:35:44.000Z</time>
      </trkpt>
      <trkpt lat="45.18043" lon="5.7189">
        <ele>246.50514</ele>
        <time>2026-08-29T12:35:45.000Z</time>
      </trkpt>
      <trkpt lat="45.18043" lon="5.71896">
        <ele>246.498939</ele>
        <time>2026-08-29T12:35:46.000Z</time>
      </trkpt>
      <trkpt lat="45.18043" lon="5.71903">
        <ele>246.492845</ele>
        <time>2026-08-29T12:35:47.000Z</time>
      </trkpt>
      <trkpt lat="45.18043" lon="5.71909">
        <ele>246.486752</ele>
        <time>2026-08-29T12:35:48.000Z</time>
      </trkpt>
      <trkpt lat="45.18043" lon="5.71916">
        <ele>246.480658</ele>
        <time>2026-08-29T12:35:49.000Z</time>
      </trkpt>
      <trkpt lat="45.18043" lon="5.71922">
        <ele>246.474755</ele>
        <time>2026-08-29T12:35:50.000Z</time>
      </trkpt>
      <trkpt lat="45.18043" lon="5.71928">
        <ele>246.468946</ele>
        <time>2026-08-29T12:35:51.000Z</time>
      </trkpt>
      <trkpt lat="45.18043" lon="5.71934">
        <ele>246.463235</ele>
        <time>2026-08-29T12:35:52.000Z</time>
      </trkpt>
      <trkpt lat="45.18042" lon="5.7194">
        <ele>246.45754</ele>
        <time>2026-08-29T12:35:53.000Z</time>
      </trkpt>
      <trkpt lat="45.18041" lon="5.71945">
        <ele>246.452098</ele>
        <time>2026-08-29T12:35:54.000Z</time>
      </trkpt>
      <trkpt lat="45.1804" lon="5.7195">
        <ele>246.447031</ele>
        <time>2026-08-29T12:35:55.000Z</time>
      </trkpt>
      <trkpt lat="45.1804" lon="5.71955">
        <ele>246.442365</ele>
        <time>2026-08-29T12:35:56.000Z</time>
      </trkpt>
      <trkpt lat="45.1804" lon="5.71961">
        <ele>246.437413</ele>
        <time>2026-08-29T12:35:57.000Z</time>
      </trkpt>
      <trkpt lat="45.18041" lon="5.71966">
        <ele>246.432512</ele>
        <time>2026-08-29T12:35:58.000Z</time>
      </trkpt>
      <trkpt lat="45.18042" lon="5.71971">
        <ele>246.427344</ele>
        <time>2026-08-29T12:35:59.000Z</time>
      </trkpt>
      <trkpt lat="45.18043" lon="5.71976">
        <ele>246.422029</ele>
        <time>2026-08-29T12:36:00.000Z</time>
      </trkpt>
      <trkpt lat="45.18044" lon="5.71982">
        <ele>246.416497</ele>
        <time>2026-08-29T12:36:01.000Z</time>
      </trkpt>
      <trkpt lat="45.18044" lon="5.71988">
        <ele>246.410844</ele>
        <time>2026-08-29T12:36:02.000Z</time>
      </trkpt>
      <trkpt lat="45.18045" lon="5.71994">
        <ele>246.405097</ele>
        <time>2026-08-29T12:36:03.000Z</time>
      </trkpt>
      <trkpt lat="45.18046" lon="5.72">
        <ele>246.399285</ele>
        <time>2026-08-29T12:36:04.000Z</time>
      </trkpt>
      <trkpt lat="45.18047" lon="5.72007">
        <ele>246.392324</ele>
        <time>2026-08-29T12:36:05.000Z</time>
      </trkpt>
      <trkpt lat="45.18048" lon="5.72014">
        <ele>246.385176</ele>
        <time>2026-08-29T12:36:06.000Z</time>
      </trkpt>
      <trkpt lat="45.18049" lon="5.72022">
        <ele>246.377502</ele>
        <time>2026-08-29T12:36:07.000Z</time>
      </trkpt>
      <trkpt lat="45.18049" lon="5.7203">
        <ele>246.369829</ele>
        <time>2026-08-29T12:36:08.000Z</time>
      </trkpt>
      <trkpt lat="45.1805" lon="5.72039">
        <ele>246.361871</ele>
        <time>2026-08-29T12:36:09.000Z</time>
      </trkpt>
      <trkpt lat="45.18051" lon="5.72047">
        <ele>246.353631</ele>
        <time>2026-08-29T12:36:10.000Z</time>
      </trkpt>
      <trkpt lat="45.18051" lon="5.72056">
        <ele>246.290269</ele>
        <time>2026-08-29T12:36:11.000Z</time>
      </trkpt>
      <trkpt lat="45.18052" lon="5.72065">
        <ele>246.143604</ele>
        <time>2026-08-29T12:36:12.000Z</time>
      </trkpt>
      <trkpt lat="45.18052" lon="5.72075">
        <ele>245.988869</ele>
        <time>2026-08-29T12:36:13.000Z</time>
      </trkpt>
      <trkpt lat="45.18052" lon="5.72085">
        <ele>245.835924</ele>
        <time>2026-08-29T12:36:14.000Z</time>
      </trkpt>
      <trkpt lat="45.18053" lon="5.72095">
        <ele>245.67642</ele>
        <time>2026-08-29T12:36:15.000Z</time>
      </trkpt>
      <trkpt lat="45.18054" lon="5.72104">
        <ele>245.523421</ele>
        <time>2026-08-29T12:36:16.000Z</time>
      </trkpt>
      <trkpt lat="45.18056" lon="5.72113">
        <ele>245.376856</ele>
        <time>2026-08-29T12:36:17.000Z</time>
      </trkpt>
      <trkpt lat="45.18057" lon="5.72122">
        <ele>245.234119</ele>
        <time>2026-08-29T12:36:18.000Z</time>
      </trkpt>
      <trkpt lat="45.18058" lon="5.72131">
        <ele>245.088902</ele>
        <time>2026-08-29T12:36:19.000Z</time>
      </trkpt>
      <trkpt lat="45.18059" lon="5.72139">
        <ele>244.945382</ele>
        <time>2026-08-29T12:36:20.000Z</time>
      </trkpt>
      <trkpt lat="45.1806" lon="5.72148">
        <ele>244.804354</ele>
        <time>2026-08-29T12:36:21.000Z</time>
      </trkpt>
      <trkpt lat="45.18061" lon="5.72157">
        <ele>244.661172</ele>
        <time>2026-08-29T12:36:22.000Z</time>
      </trkpt>
      <trkpt lat="45.18062" lon="5.72166">
        <ele>244.519225</ele>
        <time>2026-08-29T12:36:23.000Z</time>
      </trkpt>
      <trkpt lat="45.18064" lon="5.72175">
        <ele>244.375047</ele>
        <time>2026-08-29T12:36:24.000Z</time>
      </trkpt>
      <trkpt lat="45.18065" lon="5.72184">
        <ele>244.229321</ele>
        <time>2026-08-29T12:36:25.000Z</time>
      </trkpt>
      <trkpt lat="45.18066" lon="5.72193">
        <ele>244.081702</ele>
        <time>2026-08-29T12:36:26.000Z</time>
      </trkpt>
      <trkpt lat="45.18066" lon="5.72202">
        <ele>243.941564</ele>
        <time>2026-08-29T12:36:27.000Z</time>
      </trkpt>
      <trkpt lat="45.18067" lon="5.72211">
        <ele>243.797671</ele>
        <time>2026-08-29T12:36:28.000Z</time>
      </trkpt>
      <trkpt lat="45.18068" lon="5.72219">
        <ele>243.657296</ele>
        <time>2026-08-29T12:36:29.000Z</time>
      </trkpt>
      <trkpt lat="45.18069" lon="5.72228">
        <ele>243.513118</ele>
        <time>2026-08-29T12:36:30.000Z</time>
      </trkpt>
      <trkpt lat="45.1807" lon="5.72237">
        <ele>243.368926</ele>
        <time>2026-08-29T12:36:31.000Z</time>
      </trkpt>
      <trkpt lat="45.18072" lon="5.72246">
        <ele>243.219945</ele>
        <time>2026-08-29T12:36:32.000Z</time>
      </trkpt>
      <trkpt lat="45.18074" lon="5.72254">
        <ele>243.082302</ele>
        <time>2026-08-29T12:36:33.000Z</time>
      </trkpt>
      <trkpt lat="45.18076" lon="5.72263">
        <ele>242.94187</ele>
        <time>2026-08-29T12:36:34.000Z</time>
      </trkpt>
      <trkpt lat="45.18077" lon="5.72271">
        <ele>242.796564</ele>
        <time>2026-08-29T12:36:35.000Z</time>
      </trkpt>
      <trkpt lat="45.18079" lon="5.7228">
        <ele>242.648753</ele>
        <time>2026-08-29T12:36:36.000Z</time>
      </trkpt>
      <trkpt lat="45.18079" lon="5.7229">
        <ele>242.495725</ele>
        <time>2026-08-29T12:36:37.000Z</time>
      </trkpt>
      <trkpt lat="45.18079" lon="5.72299">
        <ele>242.357862</ele>
        <time>2026-08-29T12:36:38.000Z</time>
      </trkpt>
      <trkpt lat="45.1808" lon="5.72307">
        <ele>242.281861</ele>
        <time>2026-08-29T12:36:39.000Z</time>
      </trkpt>
      <trkpt lat="45.1808" lon="5.72314">
        <ele>242.275617</ele>
        <time>2026-08-29T12:36:40.000Z</time>
      </trkpt>
      <trkpt lat="45.1808" lon="5.72319">
        <ele>242.270509</ele>
        <time>2026-08-29T12:36:41.000Z</time>
      </trkpt>
      <trkpt lat="45.18081" lon="5.72325">
        <ele>242.265777</ele>
        <time>2026-08-29T12:36:42.000Z</time>
      </trkpt>
      <trkpt lat="45.18082" lon="5.7233">
        <ele>242.260884</ele>
        <time>2026-08-29T12:36:43.000Z</time>
      </trkpt>
      <trkpt lat="45.18082" lon="5.72335">
        <ele>242.256399</ele>
        <time>2026-08-29T12:36:44.000Z</time>
      </trkpt>
      <trkpt lat="45.18083" lon="5.7234">
        <ele>242.251524</ele>
        <time>2026-08-29T12:36:45.000Z</time>
      </trkpt>
      <trkpt lat="45.18083" lon="5.72346">
        <ele>242.246225</ele>
        <time>2026-08-29T12:36:46.000Z</time>
      </trkpt>
      <trkpt lat="45.18084" lon="5.72352">
        <ele>242.240755</ele>
        <time>2026-08-29T12:36:47.000Z</time>
      </trkpt>
      <trkpt lat="45.18086" lon="5.72358">
        <ele>242.234949</ele>
        <time>2026-08-29T12:36:48.000Z</time>
      </trkpt>
      <trkpt lat="45.18088" lon="5.72364">
        <ele>242.229083</ele>
        <time>2026-08-29T12:36:49.000Z</time>
      </trkpt>
      <trkpt lat="45.18089" lon="5.72371">
        <ele>242.222984</ele>
        <time>2026-08-29T12:36:50.000Z</time>
      </trkpt>
      <trkpt lat="45.1809" lon="5.72378">
        <ele>242.21679</ele>
        <time>2026-08-29T12:36:51.000Z</time>
      </trkpt>
      <trkpt lat="45.18091" lon="5.72385">
        <ele>242.210182</ele>
        <time>2026-08-29T12:36:52.000Z</time>
      </trkpt>
      <trkpt lat="45.18093" lon="5.72392">
        <ele>242.203326</ele>
        <time>2026-08-29T12:36:53.000Z</time>
      </trkpt>
      <trkpt lat="45.18094" lon="5.724">
        <ele>242.196301</ele>
        <time>2026-08-29T12:36:54.000Z</time>
      </trkpt>
      <trkpt lat="45.18096" lon="5.72408">
        <ele>242.188899</ele>
        <time>2026-08-29T12:36:55.000Z</time>
      </trkpt>
      <trkpt lat="45.18099" lon="5.72415">
        <ele>242.181277</ele>
        <time>2026-08-29T12:36:56.000Z</time>
      </trkpt>
      <trkpt lat="45.181" lon="5.72424">
        <ele>242.173782</ele>
        <time>2026-08-29T12:36:57.000Z</time>
      </trkpt>
      <trkpt lat="45.18101" lon="5.72432">
        <ele>242.165998</ele>
        <time>2026-08-29T12:36:58.000Z</time>
      </trkpt>
      <trkpt lat="45.18103" lon="5.72441">
        <ele>242.158301</ele>
        <time>2026-08-29T12:36:59.000Z</time>
      </trkpt>
      <trkpt lat="45.18105" lon="5.72449">
        <ele>242.150813</ele>
        <time>2026-08-29T12:37:00.000Z</time>
      </trkpt>
      <trkpt lat="45.18106" lon="5.72456">
        <ele>242.143517</ele>
        <time>2026-08-29T12:37:01.000Z</time>
      </trkpt>
      <trkpt lat="45.18108" lon="5.72465">
        <ele>242.135981</ele>
        <time>2026-08-29T12:37:02.000Z</time>
      </trkpt>
      <trkpt lat="45.1811" lon="5.72473">
        <ele>242.128201</ele>
        <time>2026-08-29T12:37:03.000Z</time>
      </trkpt>
      <trkpt lat="45.18112" lon="5.72481">
        <ele>242.120797</ele>
        <time>2026-08-29T12:37:04.000Z</time>
      </trkpt>
      <trkpt lat="45.18113" lon="5.72489">
        <ele>242.113415</ele>
        <time>2026-08-29T12:37:05.000Z</time>
      </trkpt>
      <trkpt lat="45.18115" lon="5.72497">
        <ele>242.10605</ele>
        <time>2026-08-29T12:37:06.000Z</time>
      </trkpt>
      <trkpt lat="45.18117" lon="5.72504">
        <ele>242.098646</ele>
        <time>2026-08-29T12:37:07.000Z</time>
      </trkpt>
      <trkpt lat="45.18119" lon="5.72512">
        <ele>242.091072</ele>
        <time>2026-08-29T12:37:08.000Z</time>
      </trkpt>
      <trkpt lat="45.18121" lon="5.7252">
        <ele>242.083663</ele>
        <time>2026-08-29T12:37:09.000Z</time>
      </trkpt>
      <trkpt lat="45.18123" lon="5.72528">
        <ele>242.076388</ele>
        <time>2026-08-29T12:37:10.000Z</time>
      </trkpt>
      <trkpt lat="45.18125" lon="5.72535">
        <ele>242.069197</ele>
        <time>2026-08-29T12:37:11.000Z</time>
      </trkpt>
      <trkpt lat="45.18128" lon="5.72543">
        <ele>242.061707</ele>
        <time>2026-08-29T12:37:12.000Z</time>
      </trkpt>
      <trkpt lat="45.18129" lon="5.7255">
        <ele>242.054102</ele>
        <time>2026-08-29T12:37:13.000Z</time>
      </trkpt>
      <trkpt lat="45.18133" lon="5.72557">
        <ele>242.044015</ele>
        <time>2026-08-29T12:37:14.000Z</time>
      </trkpt>
      <trkpt lat="45.18136" lon="5.72564">
        <ele>242.033833</ele>
        <time>2026-08-29T12:37:15.000Z</time>
      </trkpt>
      <trkpt lat="45.18138" lon="5.72572">
        <ele>242.023946</ele>
        <time>2026-08-29T12:37:16.000Z</time>
      </trkpt>
      <trkpt lat="45.1814" lon="5.72579">
        <ele>242.015214</ele>
        <time>2026-08-29T12:37:17.000Z</time>
      </trkpt>
      <trkpt lat="45.18142" lon="5.72586">
        <ele>242.006868</ele>
        <time>2026-08-29T12:37:18.000Z</time>
      </trkpt>
      <trkpt lat="45.18143" lon="5.72593">
        <ele>241.998574</ele>
        <time>2026-08-29T12:37:19.000Z</time>
      </trkpt>
      <trkpt lat="45.18145" lon="5.726">
        <ele>241.989955</ele>
        <time>2026-08-29T12:37:20.000Z</time>
      </trkpt>
      <trkpt lat="45.18147" lon="5.72607">
        <ele>241.981162</ele>
        <time>2026-08-29T12:37:21.000Z</time>
      </trkpt>
      <trkpt lat="45.18148" lon="5.72614">
        <ele>241.972101</ele>
        <time>2026-08-29T12:37:22.000Z</time>
      </trkpt>
      <trkpt lat="45.18151" lon="5.72622">
        <ele>241.962619</ele>
        <time>2026-08-29T12:37:23.000Z</time>
      </trkpt>
      <trkpt lat="45.18152" lon="5.72629">
        <ele>241.953431</ele>
        <time>2026-08-29T12:37:24.000Z</time>
      </trkpt>
      <trkpt lat="45.18154" lon="5.72637">
        <ele>241.944309</ele>
        <time>2026-08-29T12:37:25.000Z</time>
      </trkpt>
      <trkpt lat="45.18156" lon="5.72644">
        <ele>241.934861</ele>
        <time>2026-08-29T12:37:26.000Z</time>
      </trkpt>
      <trkpt lat="45.18158" lon="5.72652">
        <ele>241.925516</ele>
        <time>2026-08-29T12:37:27.000Z</time>
      </trkpt>
      <trkpt lat="45.1816" lon="5.7266">
        <ele>241.915951</ele>
        <time>2026-08-29T12:37:28.000Z</time>
      </trkpt>
      <trkpt lat="45.18163" lon="5.72667">
        <ele>241.905811</ele>
        <time>2026-08-29T12:37:29.000Z</time>
      </trkpt>
      <trkpt lat="45.18166" lon="5.72674">
        <ele>241.896468</ele>
        <time>2026-08-29T12:37:30.000Z</time>
      </trkpt>
      <trkpt lat="45.18169" lon="5.72681">
        <ele>241.88695</ele>
        <time>2026-08-29T12:37:31.000Z</time>
      </trkpt>
      <trkpt lat="45.18171" lon="5.72688">
        <ele>241.877891</ele>
        <time>2026-08-29T12:37:32.000Z</time>
      </trkpt>
      <trkpt lat="45.18173" lon="5.72696">
        <ele>241.86883</ele>
        <time>2026-08-29T12:37:33.000Z</time>
      </trkpt>
      <trkpt lat="45.18173" lon="5.72704">
        <ele>241.859744</ele>
        <time>2026-08-29T12:37:34.000Z</time>
      </trkpt>
      <trkpt lat="45.18175" lon="5.72711">
        <ele>241.85037</ele>
        <time>2026-08-29T12:37:35.000Z</time>
      </trkpt>
      <trkpt lat="45.18176" lon="5.72719">
        <ele>241.840982</ele>
        <time>2026-08-29T12:37:36.000Z</time>
      </trkpt>
      <trkpt lat="45.18179" lon="5.72727">
        <ele>241.831526</ele>
        <time>2026-08-29T12:37:37.000Z</time>
      </trkpt>
      <trkpt lat="45.18181" lon="5.72734">
        <ele>241.822248</ele>
        <time>2026-08-29T12:37:38.000Z</time>
      </trkpt>
      <trkpt lat="45.18182" lon="5.72742">
        <ele>241.812915</ele>
        <time>2026-08-29T12:37:39.000Z</time>
      </trkpt>
      <trkpt lat="45.18184" lon="5.72749">
        <ele>241.804122</ele>
        <time>2026-08-29T12:37:40.000Z</time>
      </trkpt>
      <trkpt lat="45.18186" lon="5.72756">
        <ele>241.795051</ele>
        <time>2026-08-29T12:37:41.000Z</time>
      </trkpt>
      <trkpt lat="45.18189" lon="5.72763">
        <ele>241.785397</ele>
        <time>2026-08-29T12:37:42.000Z</time>
      </trkpt>
      <trkpt lat="45.18192" lon="5.72771">
        <ele>241.775833</ele>
        <time>2026-08-29T12:37:43.000Z</time>
      </trkpt>
      <trkpt lat="45.18193" lon="5.72778">
        <ele>241.766772</ele>
        <time>2026-08-29T12:37:44.000Z</time>
      </trkpt>
      <trkpt lat="45.18195" lon="5.72785">
        <ele>241.756638</ele>
        <time>2026-08-29T12:37:45.000Z</time>
      </trkpt>
      <trkpt lat="45.18196" lon="5.72793">
        <ele>241.743126</ele>
        <time>2026-08-29T12:37:46.000Z</time>
      </trkpt>
      <trkpt lat="45.18197" lon="5.72801">
        <ele>241.729305</ele>
        <time>2026-08-29T12:37:47.000Z</time>
      </trkpt>
      <trkpt lat="45.18197" lon="5.72809">
        <ele>241.715747</ele>
        <time>2026-08-29T12:37:48.000Z</time>
      </trkpt>
      <trkpt lat="45.18198" lon="5.72816">
        <ele>241.702307</ele>
        <time>2026-08-29T12:37:49.000Z</time>
      </trkpt>
      <trkpt lat="45.18198" lon="5.72825">
        <ele>241.688103</ele>
        <time>2026-08-29T12:37:50.000Z</time>
      </trkpt>
      <trkpt lat="45.18198" lon="5.72833">
        <ele>241.673726</ele>
        <time>2026-08-29T12:37:51.000Z</time>
      </trkpt>
      <trkpt lat="45.18199" lon="5.72841">
        <ele>241.65915</ele>
        <time>2026-08-29T12:37:52.000Z</time>
      </trkpt>
      <trkpt lat="45.18201" lon="5.7285">
        <ele>241.643721</ele>
        <time>2026-08-29T12:37:53.000Z</time>
      </trkpt>
      <trkpt lat="45.18203" lon="5.72858">
        <ele>241.628664</ele>
        <time>2026-08-29T12:37:54.000Z</time>
      </trkpt>
      <trkpt lat="45.18204" lon="5.72866">
        <ele>241.614126</ele>
        <time>2026-08-29T12:37:55.000Z</time>
      </trkpt>
      <trkpt lat="45.18204" lon="5.72875">
        <ele>241.598546</ele>
        <time>2026-08-29T12:37:56.000Z</time>
      </trkpt>
      <trkpt lat="45.18204" lon="5.72884">
        <ele>241.583122</ele>
        <time>2026-08-29T12:37:57.000Z</time>
      </trkpt>
      <trkpt lat="45.18204" lon="5.72894">
        <ele>241.567148</ele>
        <time>2026-08-29T12:37:58.000Z</time>
      </trkpt>
      <trkpt lat="45.18205" lon="5.72902">
        <ele>241.551616</ele>
        <time>2026-08-29T12:37:59.000Z</time>
      </trkpt>
      <trkpt lat="45.18205" lon="5.72912">
        <ele>241.535515</ele>
        <time>2026-08-29T12:38:00.000Z</time>
      </trkpt>
      <trkpt lat="45.18205" lon="5.72921">
        <ele>241.519408</ele>
        <time>2026-08-29T12:38:01.000Z</time>
      </trkpt>
      <trkpt lat="45.18204" lon="5.72931">
        <ele>241.501805</ele>
        <time>2026-08-29T12:38:02.000Z</time>
      </trkpt>
      <trkpt lat="45.18204" lon="5.72941">
        <ele>241.485013</ele>
        <time>2026-08-29T12:38:03.000Z</time>
      </trkpt>
      <trkpt lat="45.18205" lon="5.7295">
        <ele>241.46951</ele>
        <time>2026-08-29T12:38:04.000Z</time>
      </trkpt>
      <trkpt lat="45.18206" lon="5.72958">
        <ele>241.455008</ele>
        <time>2026-08-29T12:38:05.000Z</time>
      </trkpt>
      <trkpt lat="45.18205" lon="5.72966">
        <ele>241.440506</ele>
        <time>2026-08-29T12:38:06.000Z</time>
      </trkpt>
      <trkpt lat="45.18204" lon="5.72975">
        <ele>241.425864</ele>
        <time>2026-08-29T12:38:07.000Z</time>
      </trkpt>
      <trkpt lat="45.18204" lon="5.72983">
        <ele>241.410976</ele>
        <time>2026-08-29T12:38:08.000Z</time>
      </trkpt>
      <trkpt lat="45.18204" lon="5.72991">
        <ele>241.397956</ele>
        <time>2026-08-29T12:38:09.000Z</time>
      </trkpt>
      <trkpt lat="45.18204" lon="5.72999">
        <ele>241.383313</ele>
        <time>2026-08-29T12:38:10.000Z</time>
      </trkpt>
      <trkpt lat="45.18203" lon="5.73008">
        <ele>241.367781</ele>
        <time>2026-08-29T12:38:11.000Z</time>
      </trkpt>
      <trkpt lat="45.18203" lon="5.73017">
        <ele>241.351492</ele>
        <time>2026-08-29T12:38:12.000Z</time>
      </trkpt>
      <trkpt lat="45.18203" lon="5.73027">
        <ele>241.335173</ele>
        <time>2026-08-29T12:38:13.000Z</time>
      </trkpt>
      <trkpt lat="45.18204" lon="5.73036">
        <ele>241.319372</ele>
        <time>2026-08-29T12:38:14.000Z</time>
      </trkpt>
      <trkpt lat="45.18203" lon="5.73045">
        <ele>241.303654</ele>
        <time>2026-08-29T12:38:15.000Z</time>
      </trkpt>
      <trkpt lat="45.18203" lon="5.73054">
        <ele>241.287624</ele>
        <time>2026-08-29T12:38:16.000Z</time>
      </trkpt>
      <trkpt lat="45.18204" lon="5.73063">
        <ele>241.272769</ele>
        <time>2026-08-29T12:38:17.000Z</time>
      </trkpt>
      <trkpt lat="45.18204" lon="5.73072">
        <ele>241.257209</ele>
        <time>2026-08-29T12:38:18.000Z</time>
      </trkpt>
      <trkpt lat="45.18204" lon="5.73081">
        <ele>241.241134</ele>
        <time>2026-08-29T12:38:19.000Z</time>
      </trkpt>
      <trkpt lat="45.18203" lon="5.7309">
        <ele>241.225959</ele>
        <time>2026-08-29T12:38:20.000Z</time>
      </trkpt>
      <trkpt lat="45.18203" lon="5.73099">
        <ele>241.210743</ele>
        <time>2026-08-29T12:38:21.000Z</time>
      </trkpt>
      <trkpt lat="45.18203" lon="5.73108">
        <ele>241.195402</ele>
        <time>2026-08-29T12:38:22.000Z</time>
      </trkpt>
      <trkpt lat="45.18202" lon="5.73117">
        <ele>241.179842</ele>
        <time>2026-08-29T12:38:23.000Z</time>
      </trkpt>
      <trkpt lat="45.18203" lon="5.73124">
        <ele>241.166707</ele>
        <time>2026-08-29T12:38:24.000Z</time>
      </trkpt>
      <trkpt lat="45.18204" lon="5.73131">
        <ele>241.155293</ele>
        <time>2026-08-29T12:38:25.000Z</time>
      </trkpt>
      <trkpt lat="45.18204" lon="5.73137">
        <ele>241.143681</ele>
        <time>2026-08-29T12:38:26.000Z</time>
      </trkpt>
      <trkpt lat="45.18203" lon="5.73143">
        <ele>241.133781</ele>
        <time>2026-08-29T12:38:27.000Z</time>
      </trkpt>
      <trkpt lat="45.18203" lon="5.73147">
        <ele>241.12627</ele>
        <time>2026-08-29T12:38:28.000Z</time>
      </trkpt>
      <trkpt lat="45.18201" lon="5.73151">
        <ele>241.11987</ele>
        <time>2026-08-29T12:38:29.000Z</time>
      </trkpt>
      <trkpt lat="45.18201" lon="5.73153">
        <ele>241.115554</ele>
        <time>2026-08-29T12:38:30.000Z</time>
      </trkpt>
      <trkpt lat="45.182" lon="5.73154">
        <ele>241.111641</ele>
        <time>2026-08-29T12:38:31.000Z</time>
      </trkpt>
      <trkpt lat="45.182" lon="5.73155">
        <ele>241.110014</ele>
        <time>2026-08-29T12:38:32.000Z</time>
      </trkpt>
      <trkpt lat="45.18195" lon="5.73167">
        <ele>241.087425</ele>
        <time>2026-08-29T12:38:46.000Z</time>
      </trkpt>
      <trkpt lat="45.18195" lon="5.73169">
        <ele>241.083282</ele>
        <time>2026-08-29T12:38:47.000Z</time>
      </trkpt>
      <trkpt lat="45.18195" lon="5.73171">
        <ele>241.080513</ele>
        <time>2026-08-29T12:38:48.000Z</time>
      </trkpt>
      <trkpt lat="45.18195" lon="5.73172">
        <ele>241.078156</ele>
        <time>2026-08-29T12:38:49.000Z</time>
      </trkpt>
      <trkpt lat="45.18195" lon="5.73178">
        <ele>241.067914</ele>
        <time>2026-08-29T12:39:03.000Z</time>
      </trkpt>
      <trkpt lat="45.18194" lon="5.73181">
        <ele>241.063269</ele>
        <time>2026-08-29T12:39:04.000Z</time>
      </trkpt>
      <trkpt lat="45.18194" lon="5.73185">
        <ele>241.056547</ele>
        <time>2026-08-29T12:39:05.000Z</time>
      </trkpt>
      <trkpt lat="45.18194" lon="5.73189">
        <ele>241.048959</ele>
        <time>2026-08-29T12:39:06.000Z</time>
      </trkpt>
      <trkpt lat="45.18193" lon="5.73194">
        <ele>241.039847</ele>
        <time>2026-08-29T12:39:07.000Z</time>
      </trkpt>
      <trkpt lat="45.18191" lon="5.73199">
        <ele>241.03058</ele>
        <time>2026-08-29T12:39:08.000Z</time>
      </trkpt>
      <trkpt lat="45.18191" lon="5.73204">
        <ele>241.021393</ele>
        <time>2026-08-29T12:39:09.000Z</time>
      </trkpt>
      <trkpt lat="45.18191" lon="5.73211">
        <ele>241.010524</ele>
        <time>2026-08-29T12:39:10.000Z</time>
      </trkpt>
      <trkpt lat="45.18192" lon="5.73217">
        <ele>240.998935</ele>
        <time>2026-08-29T12:39:11.000Z</time>
      </trkpt>
      <trkpt lat="45.18192" lon="5.73224">
        <ele>240.986637</ele>
        <time>2026-08-29T12:39:12.000Z</time>
      </trkpt>
      <trkpt lat="45.18192" lon="5.73231">
        <ele>240.974361</ele>
        <time>2026-08-29T12:39:13.000Z</time>
      </trkpt>
      <trkpt lat="45.18193" lon="5.73239">
        <ele>240.961569</ele>
        <time>2026-08-29T12:39:14.000Z</time>
      </trkpt>
      <trkpt lat="45.18194" lon="5.73246">
        <ele>240.948701</ele>
        <time>2026-08-29T12:39:15.000Z</time>
      </trkpt>
      <trkpt lat="45.18194" lon="5.73254">
        <ele>240.935249</ele>
        <time>2026-08-29T12:39:16.000Z</time>
      </trkpt>
      <trkpt lat="45.18194" lon="5.73262">
        <ele>240.921796</ele>
        <time>2026-08-29T12:39:17.000Z</time>
      </trkpt>
      <trkpt lat="45.18194" lon="5.7327">
        <ele>240.908523</ele>
        <time>2026-08-29T12:39:18.000Z</time>
      </trkpt>
      <trkpt lat="45.18194" lon="5.73278">
        <ele>240.894554</ele>
        <time>2026-08-29T12:39:19.000Z</time>
      </trkpt>
      <trkpt lat="45.18195" lon="5.73286">
        <ele>240.880215</ele>
        <time>2026-08-29T12:39:20.000Z</time>
      </trkpt>
      <trkpt lat="45.18195" lon="5.73294">
        <ele>240.871251</ele>
        <time>2026-08-29T12:39:21.000Z</time>
      </trkpt>
      <trkpt lat="45.18196" lon="5.73302">
        <ele>240.862769</ele>
        <time>2026-08-29T12:39:22.000Z</time>
      </trkpt>
      <trkpt lat="45.18197" lon="5.7331">
        <ele>240.854346</ele>
        <time>2026-08-29T12:39:23.000Z</time>
      </trkpt>
      <trkpt lat="45.18197" lon="5.73318">
        <ele>240.845989</ele>
        <time>2026-08-29T12:39:24.000Z</time>
      </trkpt>
      <trkpt lat="45.18198" lon="5.73326">
        <ele>240.837462</ele>
        <time>2026-08-29T12:39:25.000Z</time>
      </trkpt>
      <trkpt lat="45.18198" lon="5.73335">
        <ele>240.828453</ele>
        <time>2026-08-29T12:39:26.000Z</time>
      </trkpt>
      <trkpt lat="45.18198" lon="5.73344">
        <ele>240.819745</ele>
        <time>2026-08-29T12:39:27.000Z</time>
      </trkpt>
      <trkpt lat="45.18197" lon="5.73352">
        <ele>240.810511</ele>
        <time>2026-08-29T12:39:28.000Z</time>
      </trkpt>
      <trkpt lat="45.18197" lon="5.73361">
        <ele>240.80141</ele>
        <time>2026-08-29T12:39:29.000Z</time>
      </trkpt>
      <trkpt lat="45.18197" lon="5.7337">
        <ele>240.79241</ele>
        <time>2026-08-29T12:39:30.000Z</time>
      </trkpt>
      <trkpt lat="45.18197" lon="5.73378">
        <ele>240.783928</ele>
        <time>2026-08-29T12:39:31.000Z</time>
      </trkpt>
      <trkpt lat="45.18198" lon="5.73386">
        <ele>240.775498</ele>
        <time>2026-08-29T12:39:32.000Z</time>
      </trkpt>
      <trkpt lat="45.18199" lon="5.73394">
        <ele>240.767382</ele>
        <time>2026-08-29T12:39:33.000Z</time>
      </trkpt>
      <trkpt lat="45.18199" lon="5.73401">
        <ele>240.76024</ele>
        <time>2026-08-29T12:39:34.000Z</time>
      </trkpt>
      <trkpt lat="45.182" lon="5.73406">
        <ele>240.754607</ele>
        <time>2026-08-29T12:39:35.000Z</time>
      </trkpt>
      <trkpt lat="45.182" lon="5.7341">
        <ele>240.750652</ele>
        <time>2026-08-29T12:39:36.000Z</time>
      </trkpt>
      <trkpt lat="45.182" lon="5.73412">
        <ele>240.748554</ele>
        <time>2026-08-29T12:39:37.000Z</time>
      </trkpt>
      <trkpt lat="45.18201" lon="5.73413">
        <ele>240.747279</ele>
        <time>2026-08-29T12:39:38.000Z</time>
      </trkpt>
      <trkpt lat="45.18202" lon="5.73421">
        <ele>240.738538</ele>
        <time>2026-08-29T12:39:49.000Z</time>
      </trkpt>
      <trkpt lat="45.18202" lon="5.73425">
        <ele>240.734812</ele>
        <time>2026-08-29T12:39:50.000Z</time>
      </trkpt>
      <trkpt lat="45.18202" lon="5.73428">
        <ele>240.731085</ele>
        <time>2026-08-29T12:39:51.000Z</time>
      </trkpt>
      <trkpt lat="45.18201" lon="5.73432">
        <ele>240.727135</ele>
        <time>2026-08-29T12:39:52.000Z</time>
      </trkpt>
      <trkpt lat="45.18201" lon="5.73436">
        <ele>240.722804</ele>
        <time>2026-08-29T12:39:53.000Z</time>
      </trkpt>
      <trkpt lat="45.18201" lon="5.73441">
        <ele>240.718147</ele>
        <time>2026-08-29T12:39:54.000Z</time>
      </trkpt>
      <trkpt lat="45.18201" lon="5.73446">
        <ele>240.713003</ele>
        <time>2026-08-29T12:39:55.000Z</time>
      </trkpt>
      <trkpt lat="45.18202" lon="5.73451">
        <ele>240.707182</ele>
        <time>2026-08-29T12:39:56.000Z</time>
      </trkpt>
      <trkpt lat="45.18202" lon="5.73457">
        <ele>240.700933</ele>
        <time>2026-08-29T12:39:57.000Z</time>
      </trkpt>
      <trkpt lat="45.18203" lon="5.73464">
        <ele>240.69421</ele>
        <time>2026-08-29T12:39:58.000Z</time>
      </trkpt>
      <trkpt lat="45.18205" lon="5.73469">
        <ele>240.687561</ele>
        <time>2026-08-29T12:39:59.000Z</time>
      </trkpt>
      <trkpt lat="45.18206" lon="5.73476">
        <ele>240.680342</ele>
        <time>2026-08-29T12:40:00.000Z</time>
      </trkpt>
      <trkpt lat="45.18209" lon="5.73483">
        <ele>240.672698</ele>
        <time>2026-08-29T12:40:01.000Z</time>
      </trkpt>
      <trkpt lat="45.18211" lon="5.7349">
        <ele>240.664924</ele>
        <time>2026-08-29T12:40:02.000Z</time>
      </trkpt>
      <trkpt lat="45.18213" lon="5.73497">
        <ele>240.656654</ele>
        <time>2026-08-29T12:40:03.000Z</time>
      </trkpt>
      <trkpt lat="45.18216" lon="5.73504">
        <ele>240.648128</ele>
        <time>2026-08-29T12:40:04.000Z</time>
      </trkpt>
      <trkpt lat="45.18218" lon="5.73511">
        <ele>240.639852</ele>
        <time>2026-08-29T12:40:05.000Z</time>
      </trkpt>
      <trkpt lat="45.18221" lon="5.73518">
        <ele>240.631802</ele>
        <time>2026-08-29T12:40:06.000Z</time>
      </trkpt>
      <trkpt lat="45.18223" lon="5.73526">
        <ele>240.623314</ele>
        <time>2026-08-29T12:40:07.000Z</time>
      </trkpt>
      <trkpt lat="45.18226" lon="5.73533">
        <ele>240.615296</ele>
        <time>2026-08-29T12:40:08.000Z</time>
      </trkpt>
      <trkpt lat="45.18229" lon="5.7354">
        <ele>240.624942</ele>
        <time>2026-08-29T12:40:09.000Z</time>
      </trkpt>
      <trkpt lat="45.18232" lon="5.73547">
        <ele>240.634114</ele>
        <time>2026-08-29T12:40:10.000Z</time>
      </trkpt>
      <trkpt lat="45.18235" lon="5.73553">
        <ele>240.642601</ele>
        <time>2026-08-29T12:40:11.000Z</time>
      </trkpt>
      <trkpt lat="45.18237" lon="5.73558">
        <ele>240.64918</ele>
        <time>2026-08-29T12:40:12.000Z</time>
      </trkpt>
      <trkpt lat="45.18239" lon="5.73562">
        <ele>240.655476</ele>
        <time>2026-08-29T12:40:13.000Z</time>
      </trkpt>
      <trkpt lat="45.18241" lon="5.73567">
        <ele>240.661696</ele>
        <time>2026-08-29T12:40:14.000Z</time>
      </trkpt>
      <trkpt lat="45.18243" lon="5.73572">
        <ele>240.668102</ele>
        <time>2026-08-29T12:40:15.000Z</time>
      </trkpt>
      <trkpt lat="45.18244" lon="5.73577">
        <ele>240.675176</ele>
        <time>2026-08-29T12:40:16.000Z</time>
      </trkpt>
      <trkpt lat="45.18247" lon="5.73583">
        <ele>240.682251</ele>
        <time>2026-08-29T12:40:17.000Z</time>
      </trkpt>
      <trkpt lat="45.18249" lon="5.73587">
        <ele>240.688736</ele>
        <time>2026-08-29T12:40:18.000Z</time>
      </trkpt>
      <trkpt lat="45.18251" lon="5.7359">
        <ele>240.693604</ele>
        <time>2026-08-29T12:40:19.000Z</time>
      </trkpt>
      <trkpt lat="45.18252" lon="5.73593">
        <ele>240.697656</ele>
        <time>2026-08-29T12:40:20.000Z</time>
      </trkpt>
      <trkpt lat="45.18253" lon="5.73595">
        <ele>240.70072</ele>
        <time>2026-08-29T12:40:21.000Z</time>
      </trkpt>
      <trkpt lat="45.18255" lon="5.73598">
        <ele>240.705228</ele>
        <time>2026-08-29T12:40:22.000Z</time>
      </trkpt>
      <trkpt lat="45.18257" lon="5.73602">
        <ele>240.710292</ele>
        <time>2026-08-29T12:40:23.000Z</time>
      </trkpt>
      <trkpt lat="45.18259" lon="5.73606">
        <ele>240.716145</ele>
        <time>2026-08-29T12:40:24.000Z</time>
      </trkpt>
      <trkpt lat="45.18261" lon="5.73611">
        <ele>240.72255</ele>
        <time>2026-08-29T12:40:25.000Z</time>
      </trkpt>
      <trkpt lat="45.18262" lon="5.73616">
        <ele>240.729695</ele>
        <time>2026-08-29T12:40:26.000Z</time>
      </trkpt>
      <trkpt lat="45.18265" lon="5.73622">
        <ele>240.737743</ele>
        <time>2026-08-29T12:40:27.000Z</time>
      </trkpt>
      <trkpt lat="45.18267" lon="5.73629">
        <ele>240.746563</ele>
        <time>2026-08-29T12:40:28.000Z</time>
      </trkpt>
      <trkpt lat="45.1827" lon="5.73635">
        <ele>240.755186</ele>
        <time>2026-08-29T12:40:29.000Z</time>
      </trkpt>
      <trkpt lat="45.18272" lon="5.73643">
        <ele>240.76434</ele>
        <time>2026-08-29T12:40:30.000Z</time>
      </trkpt>
      <trkpt lat="45.18275" lon="5.7365">
        <ele>240.774483</ele>
        <time>2026-08-29T12:40:31.000Z</time>
      </trkpt>
      <trkpt lat="45.18278" lon="5.73658">
        <ele>240.784746</ele>
        <time>2026-08-29T12:40:32.000Z</time>
      </trkpt>
      <trkpt lat="45.18281" lon="5.73666">
        <ele>240.795034</ele>
        <time>2026-08-29T12:40:33.000Z</time>
      </trkpt>
      <trkpt lat="45.18284" lon="5.73673">
        <ele>240.805321</ele>
        <time>2026-08-29T12:40:34.000Z</time>
      </trkpt>
      <trkpt lat="45.18287" lon="5.73681">
        <ele>240.815609</ele>
        <time>2026-08-29T12:40:35.000Z</time>
      </trkpt>
      <trkpt lat="45.1829" lon="5.73689">
        <ele>240.825974</ele>
        <time>2026-08-29T12:40:36.000Z</time>
      </trkpt>
      <trkpt lat="45.18293" lon="5.73697">
        <ele>240.836402</ele>
        <time>2026-08-29T12:40:37.000Z</time>
      </trkpt>
      <trkpt lat="45.18296" lon="5.73704">
        <ele>240.847002</ele>
        <time>2026-08-29T12:40:38.000Z</time>
      </trkpt>
      <trkpt lat="45.18299" lon="5.73713">
        <ele>240.85756</ele>
        <time>2026-08-29T12:40:39.000Z</time>
      </trkpt>
      <trkpt lat="45.18302" lon="5.73721">
        <ele>240.868234</ele>
        <time>2026-08-29T12:40:40.000Z</time>
      </trkpt>
      <trkpt lat="45.18305" lon="5.73729">
        <ele>240.878762</ele>
        <time>2026-08-29T12:40:41.000Z</time>
      </trkpt>
      <trkpt lat="45.18308" lon="5.73736">
        <ele>240.889153</ele>
        <time>2026-08-29T12:40:42.000Z</time>
      </trkpt>
      <trkpt lat="45.18311" lon="5.73745">
        <ele>240.899992</ele>
        <time>2026-08-29T12:40:43.000Z</time>
      </trkpt>
      <trkpt lat="45.18314" lon="5.73753">
        <ele>240.911313</ele>
        <time>2026-08-29T12:40:44.000Z</time>
      </trkpt>
      <trkpt lat="45.18317" lon="5.73762">
        <ele>240.919467</ele>
        <time>2026-08-29T12:40:45.000Z</time>
      </trkpt>
      <trkpt lat="45.1832" lon="5.73771">
        <ele>240.927168</ele>
        <time>2026-08-29T12:40:46.000Z</time>
      </trkpt>
      <trkpt lat="45.18323" lon="5.73779">
        <ele>240.934842</ele>
        <time>2026-08-29T12:40:47.000Z</time>
      </trkpt>
      <trkpt lat="45.18326" lon="5.73788">
        <ele>240.942523</ele>
        <time>2026-08-29T12:40:48.000Z</time>
      </trkpt>
      <trkpt lat="45.18329" lon="5.73796">
        <ele>240.950172</ele>
        <time>2026-08-29T12:40:49.000Z</time>
      </trkpt>
      <trkpt lat="45.18333" lon="5.73804">
        <ele>240.957861</ele>
        <time>2026-08-29T12:40:50.000Z</time>
      </trkpt>
      <trkpt lat="45.18336" lon="5.73812">
        <ele>240.965429</ele>
        <time>2026-08-29T12:40:51.000Z</time>
      </trkpt>
      <trkpt lat="45.18339" lon="5.7382">
        <ele>240.973078</ele>
        <time>2026-08-29T12:40:52.000Z</time>
      </trkpt>
      <trkpt lat="45.18343" lon="5.73828">
        <ele>240.980829</ele>
        <time>2026-08-29T12:40:53.000Z</time>
      </trkpt>
      <trkpt lat="45.18347" lon="5.73835">
        <ele>240.988048</ele>
        <time>2026-08-29T12:40:54.000Z</time>
      </trkpt>
      <trkpt lat="45.1835" lon="5.73843">
        <ele>240.995302</ele>
        <time>2026-08-29T12:40:55.000Z</time>
      </trkpt>
      <trkpt lat="45.18353" lon="5.73851">
        <ele>241.002698</ele>
        <time>2026-08-29T12:40:56.000Z</time>
      </trkpt>
      <trkpt lat="45.18356" lon="5.73859">
        <ele>241.010291</ele>
        <time>2026-08-29T12:40:57.000Z</time>
      </trkpt>
      <trkpt lat="45.18359" lon="5.73868">
        <ele>241.017954</ele>
        <time>2026-08-29T12:40:58.000Z</time>
      </trkpt>
      <trkpt lat="45.18362" lon="5.73876">
        <ele>241.025477</ele>
        <time>2026-08-29T12:40:59.000Z</time>
      </trkpt>
      <trkpt lat="45.18366" lon="5.73884">
        <ele>241.033044</ele>
        <time>2026-08-29T12:41:00.000Z</time>
      </trkpt>
      <trkpt lat="45.18369" lon="5.73892">
        <ele>241.040779</ele>
        <time>2026-08-29T12:41:01.000Z</time>
      </trkpt>
      <trkpt lat="45.18372" lon="5.739">
        <ele>241.048372</ele>
        <time>2026-08-29T12:41:02.000Z</time>
      </trkpt>
      <trkpt lat="45.18375" lon="5.73909">
        <ele>241.055856</ele>
        <time>2026-08-29T12:41:03.000Z</time>
      </trkpt>
      <trkpt lat="45.18378" lon="5.73917">
        <ele>241.063125</ele>
        <time>2026-08-29T12:41:04.000Z</time>
      </trkpt>
      <trkpt lat="45.18381" lon="5.73924">
        <ele>241.070341</ele>
        <time>2026-08-29T12:41:05.000Z</time>
      </trkpt>
      <trkpt lat="45.18384" lon="5.73932">
        <ele>241.077557</ele>
        <time>2026-08-29T12:41:06.000Z</time>
      </trkpt>
      <trkpt lat="45.18387" lon="5.7394">
        <ele>241.084669</ele>
        <time>2026-08-29T12:41:07.000Z</time>
      </trkpt>
      <trkpt lat="45.1839" lon="5.73948">
        <ele>241.092108</ele>
        <time>2026-08-29T12:41:08.000Z</time>
      </trkpt>
      <trkpt lat="45.18393" lon="5.73956">
        <ele>241.099687</ele>
        <time>2026-08-29T12:41:09.000Z</time>
      </trkpt>
      <trkpt lat="45.18396" lon="5.73965">
        <ele>241.107296</ele>
        <time>2026-08-29T12:41:10.000Z</time>
      </trkpt>
      <trkpt lat="45.184" lon="5.73973">
        <ele>241.114889</ele>
        <time>2026-08-29T12:41:11.000Z</time>
      </trkpt>
      <trkpt lat="45.18403" lon="5.73981">
        <ele>241.106466</ele>
        <time>2026-08-29T12:41:12.000Z</time>
      </trkpt>
      <trkpt lat="45.18406" lon="5.73989">
        <ele>241.077155</ele>
        <time>2026-08-29T12:41:13.000Z</time>
      </trkpt>
      <trkpt lat="45.18409" lon="5.73998">
        <ele>241.047072</ele>
        <time>2026-08-29T12:41:14.000Z</time>
      </trkpt>
      <trkpt lat="45.18412" lon="5.74006">
        <ele>241.017592</ele>
        <time>2026-08-29T12:41:15.000Z</time>
      </trkpt>
      <trkpt lat="45.18414" lon="5.74014">
        <ele>240.988683</ele>
        <time>2026-08-29T12:41:16.000Z</time>
      </trkpt>
      <trkpt lat="45.18418" lon="5.74022">
        <ele>240.959719</ele>
        <time>2026-08-29T12:41:17.000Z</time>
      </trkpt>
      <trkpt lat="45.18421" lon="5.7403">
        <ele>240.930689</ele>
        <time>2026-08-29T12:41:18.000Z</time>
      </trkpt>
      <trkpt lat="45.18423" lon="5.74038">
        <ele>240.901865</ele>
        <time>2026-08-29T12:41:19.000Z</time>
      </trkpt>
      <trkpt lat="45.18426" lon="5.74046">
        <ele>240.873673</ele>
        <time>2026-08-29T12:41:20.000Z</time>
      </trkpt>
      <trkpt lat="45.18429" lon="5.74054">
        <ele>240.845482</ele>
        <time>2026-08-29T12:41:21.000Z</time>
      </trkpt>
      <trkpt lat="45.18432" lon="5.74062">
        <ele>240.816732</ele>
        <time>2026-08-29T12:41:22.000Z</time>
      </trkpt>
      <trkpt lat="45.18435" lon="5.7407">
        <ele>240.788261</ele>
        <time>2026-08-29T12:41:23.000Z</time>
      </trkpt>
      <trkpt lat="45.18439" lon="5.74078">
        <ele>240.759353</ele>
        <time>2026-08-29T12:41:24.000Z</time>
      </trkpt>
      <trkpt lat="45.18442" lon="5.74085">
        <ele>240.731079</ele>
        <time>2026-08-29T12:41:25.000Z</time>
      </trkpt>
      <trkpt lat="45.18446" lon="5.74092">
        <ele>240.703463</ele>
        <time>2026-08-29T12:41:26.000Z</time>
      </trkpt>
      <trkpt lat="45.1845" lon="5.74099">
        <ele>240.675606</ele>
        <time>2026-08-29T12:41:27.000Z</time>
      </trkpt>
      <trkpt lat="45.18454" lon="5.74105">
        <ele>240.647091</ele>
        <time>2026-08-29T12:41:28.000Z</time>
      </trkpt>
      <trkpt lat="45.18459" lon="5.74112">
        <ele>240.618184</ele>
        <time>2026-08-29T12:41:29.000Z</time>
      </trkpt>
      <trkpt lat="45.18463" lon="5.74118">
        <ele>240.589278</ele>
        <time>2026-08-29T12:41:30.000Z</time>
      </trkpt>
      <trkpt lat="45.18468" lon="5.74125">
        <ele>240.560597</ele>
        <time>2026-08-29T12:41:31.000Z</time>
      </trkpt>
      <trkpt lat="45.18472" lon="5.74131">
        <ele>240.531464</ele>
        <time>2026-08-29T12:41:32.000Z</time>
      </trkpt>
      <trkpt lat="45.18477" lon="5.74138">
        <ele>240.503073</ele>
        <time>2026-08-29T12:41:33.000Z</time>
      </trkpt>
      <trkpt lat="45.18481" lon="5.74145">
        <ele>240.47294</ele>
        <time>2026-08-29T12:41:34.000Z</time>
      </trkpt>
      <trkpt lat="45.18485" lon="5.74152">
        <ele>240.443533</ele>
        <time>2026-08-29T12:41:35.000Z</time>
      </trkpt>
      <trkpt lat="45.1849" lon="5.74159">
        <ele>240.413474</ele>
        <time>2026-08-29T12:41:36.000Z</time>
      </trkpt>
      <trkpt lat="45.18494" lon="5.74166">
        <ele>240.38324</ele>
        <time>2026-08-29T12:41:37.000Z</time>
      </trkpt>
      <trkpt lat="45.18499" lon="5.74173">
        <ele>240.354017</ele>
        <time>2026-08-29T12:41:38.000Z</time>
      </trkpt>
      <trkpt lat="45.18503" lon="5.7418">
        <ele>240.325092</ele>
        <time>2026-08-29T12:41:39.000Z</time>
      </trkpt>
      <trkpt lat="45.18508" lon="5.74187">
        <ele>240.321935</ele>
        <time>2026-08-29T12:41:40.000Z</time>
      </trkpt>
      <trkpt lat="45.18513" lon="5.74194">
        <ele>240.345588</ele>
        <time>2026-08-29T12:41:41.000Z</time>
      </trkpt>
      <trkpt lat="45.18518" lon="5.74201">
        <ele>240.369482</ele>
        <time>2026-08-29T12:41:42.000Z</time>
      </trkpt>
      <trkpt lat="45.18522" lon="5.74208">
        <ele>240.393073</ele>
        <time>2026-08-29T12:41:43.000Z</time>
      </trkpt>
      <trkpt lat="45.18527" lon="5.74215">
        <ele>240.416488</ele>
        <time>2026-08-29T12:41:44.000Z</time>
      </trkpt>
      <trkpt lat="45.18532" lon="5.74221">
        <ele>240.438903</ele>
        <time>2026-08-29T12:41:45.000Z</time>
      </trkpt>
      <trkpt lat="45.18536" lon="5.74228">
        <ele>240.460797</ele>
        <time>2026-08-29T12:41:46.000Z</time>
      </trkpt>
      <trkpt lat="45.1854" lon="5.74234">
        <ele>240.481864</ele>
        <time>2026-08-29T12:41:47.000Z</time>
      </trkpt>
      <trkpt lat="45.18544" lon="5.7424">
        <ele>240.501931</ele>
        <time>2026-08-29T12:41:48.000Z</time>
      </trkpt>
      <trkpt lat="45.18548" lon="5.74246">
        <ele>240.521933</ele>
        <time>2026-08-29T12:41:49.000Z</time>
      </trkpt>
      <trkpt lat="45.18552" lon="5.74252">
        <ele>240.541424</ele>
        <time>2026-08-29T12:41:50.000Z</time>
      </trkpt>
      <trkpt lat="45.18555" lon="5.74259">
        <ele>240.560707</ele>
        <time>2026-08-29T12:41:51.000Z</time>
      </trkpt>
      <trkpt lat="45.18558" lon="5.74266">
        <ele>240.580703</ele>
        <time>2026-08-29T12:41:52.000Z</time>
      </trkpt>
      <trkpt lat="45.18561" lon="5.74273">
        <ele>240.600734</ele>
        <time>2026-08-29T12:41:53.000Z</time>
      </trkpt>
      <trkpt lat="45.18563" lon="5.74282">
        <ele>240.622208</ele>
        <time>2026-08-29T12:41:54.000Z</time>
      </trkpt>
      <trkpt lat="45.18565" lon="5.7429">
        <ele>240.643764</ele>
        <time>2026-08-29T12:41:55.000Z</time>
      </trkpt>
      <trkpt lat="45.18569" lon="5.74297">
        <ele>240.664781</ele>
        <time>2026-08-29T12:41:56.000Z</time>
      </trkpt>
      <trkpt lat="45.18574" lon="5.74302">
        <ele>240.68629</ele>
        <time>2026-08-29T12:41:57.000Z</time>
      </trkpt>
      <trkpt lat="45.18579" lon="5.74308">
        <ele>240.708992</ele>
        <time>2026-08-29T12:41:58.000Z</time>
      </trkpt>
      <trkpt lat="45.18584" lon="5.74313">
        <ele>240.731135</ele>
        <time>2026-08-29T12:41:59.000Z</time>
      </trkpt>
      <trkpt lat="45.1859" lon="5.74319">
        <ele>240.754434</ele>
        <time>2026-08-29T12:42:00.000Z</time>
      </trkpt>
      <trkpt lat="45.18595" lon="5.74325">
        <ele>240.776739</ele>
        <time>2026-08-29T12:42:01.000Z</time>
      </trkpt>
      <trkpt lat="45.186" lon="5.74331">
        <ele>240.799505</ele>
        <time>2026-08-29T12:42:02.000Z</time>
      </trkpt>
      <trkpt lat="45.18605" lon="5.74337">
        <ele>240.821746</ele>
        <time>2026-08-29T12:42:03.000Z</time>
      </trkpt>
      <trkpt lat="45.1861" lon="5.74344">
        <ele>240.845243</ele>
        <time>2026-08-29T12:42:04.000Z</time>
      </trkpt>
      <trkpt lat="45.18615" lon="5.7435">
        <ele>240.868545</ele>
        <time>2026-08-29T12:42:05.000Z</time>
      </trkpt>
      <trkpt lat="45.1862" lon="5.74357">
        <ele>240.892846</ele>
        <time>2026-08-29T12:42:06.000Z</time>
      </trkpt>
      <trkpt lat="45.18625" lon="5.74363">
        <ele>240.916186</ele>
        <time>2026-08-29T12:42:07.000Z</time>
      </trkpt>
      <trkpt lat="45.1863" lon="5.7437">
        <ele>240.949085</ele>
        <time>2026-08-29T12:42:08.000Z</time>
      </trkpt>
      <trkpt lat="45.18635" lon="5.74376">
        <ele>240.991841</ele>
        <time>2026-08-29T12:42:09.000Z</time>
      </trkpt>
      <trkpt lat="45.1864" lon="5.74383">
        <ele>241.033529</ele>
        <time>2026-08-29T12:42:10.000Z</time>
      </trkpt>
      <trkpt lat="45.18645" lon="5.74389">
        <ele>241.073099</ele>
        <time>2026-08-29T12:42:11.000Z</time>
      </trkpt>
      <trkpt lat="45.1865" lon="5.74395">
        <ele>241.115098</ele>
        <time>2026-08-29T12:42:12.000Z</time>
      </trkpt>
      <trkpt lat="45.18654" lon="5.74401">
        <ele>241.155582</ele>
        <time>2026-08-29T12:42:13.000Z</time>
      </trkpt>
      <trkpt lat="45.1866" lon="5.74407">
        <ele>241.197383</ele>
        <time>2026-08-29T12:42:14.000Z</time>
      </trkpt>
      <trkpt lat="45.18665" lon="5.74414">
        <ele>241.23851</ele>
        <time>2026-08-29T12:42:15.000Z</time>
      </trkpt>
      <trkpt lat="45.18669" lon="5.7442">
        <ele>241.278237</ele>
        <time>2026-08-29T12:42:16.000Z</time>
      </trkpt>
      <trkpt lat="45.18674" lon="5.74426">
        <ele>241.319942</ele>
        <time>2026-08-29T12:42:17.000Z</time>
      </trkpt>
      <trkpt lat="45.18679" lon="5.74433">
        <ele>241.35945</ele>
        <time>2026-08-29T12:42:18.000Z</time>
      </trkpt>
      <trkpt lat="45.18683" lon="5.74439">
        <ele>241.398537</ele>
        <time>2026-08-29T12:42:19.000Z</time>
      </trkpt>
      <trkpt lat="45.18686" lon="5.74446">
        <ele>241.433036</ele>
        <time>2026-08-29T12:42:20.000Z</time>
      </trkpt>
      <trkpt lat="45.1869" lon="5.74452">
        <ele>241.472022</ele>
        <time>2026-08-29T12:42:21.000Z</time>
      </trkpt>
      <trkpt lat="45.18694" lon="5.74459">
        <ele>241.510168</ele>
        <time>2026-08-29T12:42:22.000Z</time>
      </trkpt>
      <trkpt lat="45.18699" lon="5.74466">
        <ele>241.552033</ele>
        <time>2026-08-29T12:42:23.000Z</time>
      </trkpt>
      <trkpt lat="45.18703" lon="5.74472">
        <ele>241.592398</ele>
        <time>2026-08-29T12:42:24.000Z</time>
      </trkpt>
      <trkpt lat="45.18708" lon="5.74479">
        <ele>241.631585</ele>
        <time>2026-08-29T12:42:25.000Z</time>
      </trkpt>
      <trkpt lat="45.18712" lon="5.74485">
        <ele>241.670771</ele>
        <time>2026-08-29T12:42:26.000Z</time>
      </trkpt>
      <trkpt lat="45.18715" lon="5.74492">
        <ele>241.706408</ele>
        <time>2026-08-29T12:42:27.000Z</time>
      </trkpt>
      <trkpt lat="45.18717" lon="5.74499">
        <ele>241.73897</ele>
        <time>2026-08-29T12:42:28.000Z</time>
      </trkpt>
      <trkpt lat="45.1872" lon="5.74505">
        <ele>241.770229</ele>
        <time>2026-08-29T12:42:29.000Z</time>
      </trkpt>
      <trkpt lat="45.18722" lon="5.7451">
        <ele>241.798975</ele>
        <time>2026-08-29T12:42:30.000Z</time>
      </trkpt>
      <trkpt lat="45.18726" lon="5.74514">
        <ele>241.828324</ele>
        <time>2026-08-29T12:42:31.000Z</time>
      </trkpt>
      <trkpt lat="45.18729" lon="5.74519">
        <ele>241.854756</ele>
        <time>2026-08-29T12:42:32.000Z</time>
      </trkpt>
      <trkpt lat="45.18733" lon="5.74522">
        <ele>241.88394</ele>
        <time>2026-08-29T12:42:33.000Z</time>
      </trkpt>
      <trkpt lat="45.18737" lon="5.74525">
        <ele>241.913482</ele>
        <time>2026-08-29T12:42:34.000Z</time>
      </trkpt>
      <trkpt lat="45.18741" lon="5.7453">
        <ele>241.943841</ele>
        <time>2026-08-29T12:42:35.000Z</time>
      </trkpt>
      <trkpt lat="45.18744" lon="5.74535">
        <ele>241.975344</ele>
        <time>2026-08-29T12:42:36.000Z</time>
      </trkpt>
      <trkpt lat="45.18747" lon="5.74541">
        <ele>242.007691</ele>
        <time>2026-08-29T12:42:37.000Z</time>
      </trkpt>
      <trkpt lat="45.1875" lon="5.74547">
        <ele>242.040765</ele>
        <time>2026-08-29T12:42:38.000Z</time>
      </trkpt>
      <trkpt lat="45.18754" lon="5.74553">
        <ele>242.050272</ele>
        <time>2026-08-29T12:42:39.000Z</time>
      </trkpt>
      <trkpt lat="45.18758" lon="5.74559">
        <ele>242.05135</ele>
        <time>2026-08-29T12:42:40.000Z</time>
      </trkpt>
      <trkpt lat="45.18761" lon="5.74565">
        <ele>242.052433</ele>
        <time>2026-08-29T12:42:41.000Z</time>
      </trkpt>
      <trkpt lat="45.18764" lon="5.74571">
        <ele>242.053493</ele>
        <time>2026-08-29T12:42:42.000Z</time>
      </trkpt>
      <trkpt lat="45.18767" lon="5.74577">
        <ele>242.054531</ele>
        <time>2026-08-29T12:42:43.000Z</time>
      </trkpt>
      <trkpt lat="45.1877" lon="5.74584">
        <ele>242.055603</ele>
        <time>2026-08-29T12:42:44.000Z</time>
      </trkpt>
      <trkpt lat="45.18772" lon="5.7459">
        <ele>242.056626</ele>
        <time>2026-08-29T12:42:45.000Z</time>
      </trkpt>
      <trkpt lat="45.18775" lon="5.74596">
        <ele>242.057663</ele>
        <time>2026-08-29T12:42:46.000Z</time>
      </trkpt>
      <trkpt lat="45.18778" lon="5.74602">
        <ele>242.058691</ele>
        <time>2026-08-29T12:42:47.000Z</time>
      </trkpt>
      <trkpt lat="45.18781" lon="5.74608">
        <ele>242.059717</ele>
        <time>2026-08-29T12:42:48.000Z</time>
      </trkpt>
      <trkpt lat="45.18785" lon="5.74614">
        <ele>242.060766</ele>
        <time>2026-08-29T12:42:49.000Z</time>
      </trkpt>
      <trkpt lat="45.18788" lon="5.7462">
        <ele>242.061826</ele>
        <time>2026-08-29T12:42:50.000Z</time>
      </trkpt>
      <trkpt lat="45.1879" lon="5.74627">
        <ele>242.062869</ele>
        <time>2026-08-29T12:42:51.000Z</time>
      </trkpt>
      <trkpt lat="45.1879" lon="5.74634">
        <ele>242.063852</ele>
        <time>2026-08-29T12:42:52.000Z</time>
      </trkpt>
      <trkpt lat="45.18791" lon="5.74641">
        <ele>242.064869</ele>
        <time>2026-08-29T12:42:53.000Z</time>
      </trkpt>
      <trkpt lat="45.18792" lon="5.74649">
        <ele>242.06589</ele>
        <time>2026-08-29T12:42:54.000Z</time>
      </trkpt>
      <trkpt lat="45.18792" lon="5.74656">
        <ele>242.066938</ele>
        <time>2026-08-29T12:42:55.000Z</time>
      </trkpt>
      <trkpt lat="45.18792" lon="5.74664">
        <ele>242.06804</ele>
        <time>2026-08-29T12:42:56.000Z</time>
      </trkpt>
      <trkpt lat="45.18793" lon="5.74671">
        <ele>242.069061</ele>
        <time>2026-08-29T12:42:57.000Z</time>
      </trkpt>
      <trkpt lat="45.18793" lon="5.7468">
        <ele>242.070193</ele>
        <time>2026-08-29T12:42:58.000Z</time>
      </trkpt>
      <trkpt lat="45.18793" lon="5.74688">
        <ele>242.07138</ele>
        <time>2026-08-29T12:42:59.000Z</time>
      </trkpt>
      <trkpt lat="45.18793" lon="5.74696">
        <ele>242.072551</ele>
        <time>2026-08-29T12:43:00.000Z</time>
      </trkpt>
      <trkpt lat="45.18793" lon="5.74705">
        <ele>242.073723</ele>
        <time>2026-08-29T12:43:01.000Z</time>
      </trkpt>
      <trkpt lat="45.18793" lon="5.74714">
        <ele>242.07495</ele>
        <time>2026-08-29T12:43:02.000Z</time>
      </trkpt>
      <trkpt lat="45.18793" lon="5.74723">
        <ele>242.076191</ele>
        <time>2026-08-29T12:43:03.000Z</time>
      </trkpt>
      <trkpt lat="45.18793" lon="5.74731">
        <ele>242.077377</ele>
        <time>2026-08-29T12:43:04.000Z</time>
      </trkpt>
      <trkpt lat="45.18792" lon="5.7474">
        <ele>242.078582</ele>
        <time>2026-08-29T12:43:05.000Z</time>
      </trkpt>
      <trkpt lat="45.18791" lon="5.74748">
        <ele>242.079764</ele>
        <time>2026-08-29T12:43:06.000Z</time>
      </trkpt>
      <trkpt lat="45.1879" lon="5.74756">
        <ele>242.0809</ele>
        <time>2026-08-29T12:43:07.000Z</time>
      </trkpt>
      <trkpt lat="45.1879" lon="5.74762">
        <ele>242.081782</ele>
        <time>2026-08-29T12:43:08.000Z</time>
      </trkpt>
      <trkpt lat="45.1879" lon="5.74766">
        <ele>242.082272</ele>
        <time>2026-08-29T12:43:09.000Z</time>
      </trkpt>
      <trkpt lat="45.18789" lon="5.74769">
        <ele>242.082664</ele>
        <time>2026-08-29T12:43:10.000Z</time>
      </trkpt>
      <trkpt lat="45.18789" lon="5.74772">
        <ele>242.083087</ele>
        <time>2026-08-29T12:43:11.000Z</time>
      </trkpt>
      <trkpt lat="45.18789" lon="5.74776">
        <ele>242.083634</ele>
        <time>2026-08-29T12:43:12.000Z</time>
      </trkpt>
      <trkpt lat="45.18788" lon="5.7478">
        <ele>242.084255</ele>
        <time>2026-08-29T12:43:13.000Z</time>
      </trkpt>
      <trkpt lat="45.18788" lon="5.74785">
        <ele>242.084898</ele>
        <time>2026-08-29T12:43:14.000Z</time>
      </trkpt>
      <trkpt lat="45.18788" lon="5.7479">
        <ele>242.083285</ele>
        <time>2026-08-29T12:43:15.000Z</time>
      </trkpt>
      <trkpt lat="45.18787" lon="5.74795">
        <ele>242.080809</ele>
        <time>2026-08-29T12:43:16.000Z</time>
      </trkpt>
      <trkpt lat="45.18787" lon="5.74801">
        <ele>242.078109</ele>
        <time>2026-08-29T12:43:17.000Z</time>
      </trkpt>
      <trkpt lat="45.18787" lon="5.74807">
        <ele>242.075504</ele>
        <time>2026-08-29T12:43:18.000Z</time>
      </trkpt>
      <trkpt lat="45.18786" lon="5.74813">
        <ele>242.07281</ele>
        <time>2026-08-29T12:43:19.000Z</time>
      </trkpt>
      <trkpt lat="45.18786" lon="5.74819">
        <ele>242.069918</ele>
        <time>2026-08-29T12:43:20.000Z</time>
      </trkpt>
      <trkpt lat="45.18785" lon="5.74826">
        <ele>242.066945</ele>
        <time>2026-08-29T12:43:21.000Z</time>
      </trkpt>
      <trkpt lat="45.18785" lon="5.74833">
        <ele>242.063852</ele>
        <time>2026-08-29T12:43:22.000Z</time>
      </trkpt>
      <trkpt lat="45.18785" lon="5.7484">
        <ele>242.060803</ele>
        <time>2026-08-29T12:43:23.000Z</time>
      </trkpt>
      <trkpt lat="45.18784" lon="5.74847">
        <ele>242.057556</ele>
        <time>2026-08-29T12:43:24.000Z</time>
      </trkpt>
      <trkpt lat="45.18785" lon="5.74855">
        <ele>242.05415</ele>
        <time>2026-08-29T12:43:25.000Z</time>
      </trkpt>
      <trkpt lat="45.18784" lon="5.74862">
        <ele>242.050647</ele>
        <time>2026-08-29T12:43:26.000Z</time>
      </trkpt>
      <trkpt lat="45.18783" lon="5.7487">
        <ele>242.047027</ele>
        <time>2026-08-29T12:43:27.000Z</time>
      </trkpt>
      <trkpt lat="45.18783" lon="5.74878">
        <ele>242.043497</ele>
        <time>2026-08-29T12:43:28.000Z</time>
      </trkpt>
      <trkpt lat="45.18782" lon="5.74886">
        <ele>242.040027</ele>
        <time>2026-08-29T12:43:29.000Z</time>
      </trkpt>
      <trkpt lat="45.18782" lon="5.74894">
        <ele>242.036394</ele>
        <time>2026-08-29T12:43:30.000Z</time>
      </trkpt>
      <trkpt lat="45.18781" lon="5.74902">
        <ele>242.032797</ele>
        <time>2026-08-29T12:43:31.000Z</time>
      </trkpt>
      <trkpt lat="45.1878" lon="5.7491">
        <ele>242.029141</ele>
        <time>2026-08-29T12:43:32.000Z</time>
      </trkpt>
      <trkpt lat="45.1878" lon="5.74918">
        <ele>242.025582</ele>
        <time>2026-08-29T12:43:33.000Z</time>
      </trkpt>
      <trkpt lat="45.18779" lon="5.74926">
        <ele>242.021945</ele>
        <time>2026-08-29T12:43:34.000Z</time>
      </trkpt>
      <trkpt lat="45.18779" lon="5.74934">
        <ele>242.018548</ele>
        <time>2026-08-29T12:43:35.000Z</time>
      </trkpt>
      <trkpt lat="45.18777" lon="5.74941">
        <ele>242.015103</ele>
        <time>2026-08-29T12:43:36.000Z</time>
      </trkpt>
      <trkpt lat="45.18776" lon="5.74948">
        <ele>242.011772</ele>
        <time>2026-08-29T12:43:37.000Z</time>
      </trkpt>
      <trkpt lat="45.18775" lon="5.74955">
        <ele>242.008625</ele>
        <time>2026-08-29T12:43:38.000Z</time>
      </trkpt>
      <trkpt lat="45.18773" lon="5.74962">
        <ele>242.005348</ele>
        <time>2026-08-29T12:43:39.000Z</time>
      </trkpt>
      <trkpt lat="45.18772" lon="5.74968">
        <ele>242.002321</ele>
        <time>2026-08-29T12:43:40.000Z</time>
      </trkpt>
      <trkpt lat="45.18771" lon="5.74975">
        <ele>241.999209</ele>
        <time>2026-08-29T12:43:41.000Z</time>
      </trkpt>
      <trkpt lat="45.1877" lon="5.74982">
        <ele>241.996253</ele>
        <time>2026-08-29T12:43:42.000Z</time>
      </trkpt>
      <trkpt lat="45.18769" lon="5.74988">
        <ele>241.993272</ele>
        <time>2026-08-29T12:43:43.000Z</time>
      </trkpt>
      <trkpt lat="45.18769" lon="5.74995">
        <ele>241.990439</ele>
        <time>2026-08-29T12:43:44.000Z</time>
      </trkpt>
      <trkpt lat="45.18768" lon="5.75001">
        <ele>241.98727</ele>
        <time>2026-08-29T12:43:45.000Z</time>
      </trkpt>
      <trkpt lat="45.18767" lon="5.75008">
        <ele>241.984334</ele>
        <time>2026-08-29T12:43:46.000Z</time>
      </trkpt>
      <trkpt lat="45.18766" lon="5.75015">
        <ele>241.981147</ele>
        <time>2026-08-29T12:43:47.000Z</time>
      </trkpt>
      <trkpt lat="45.18765" lon="5.75022">
        <ele>241.978048</ele>
        <time>2026-08-29T12:43:48.000Z</time>
      </trkpt>
      <trkpt lat="45.18764" lon="5.75028">
        <ele>241.975081</ele>
        <time>2026-08-29T12:43:49.000Z</time>
      </trkpt>
      <trkpt lat="45.18763" lon="5.75035">
        <ele>241.971949</ele>
        <time>2026-08-29T12:43:50.000Z</time>
      </trkpt>
      <trkpt lat="45.18763" lon="5.75042">
        <ele>241.97783</ele>
        <time>2026-08-29T12:43:51.000Z</time>
      </trkpt>
      <trkpt lat="45.18763" lon="5.7505">
        <ele>241.989366</ele>
        <time>2026-08-29T12:43:52.000Z</time>
      </trkpt>
      <trkpt lat="45.18763" lon="5.75058">
        <ele>242.001502</ele>
        <time>2026-08-29T12:43:53.000Z</time>
      </trkpt>
      <trkpt lat="45.18762" lon="5.75065">
        <ele>242.011747</ele>
        <time>2026-08-29T12:43:54.000Z</time>
      </trkpt>
      <trkpt lat="45.18761" lon="5.75072">
        <ele>242.023045</ele>
        <time>2026-08-29T12:43:55.000Z</time>
      </trkpt>
      <trkpt lat="45.1876" lon="5.75079">
        <ele>242.033499</ele>
        <time>2026-08-29T12:43:56.000Z</time>
      </trkpt>
      <trkpt lat="45.18759" lon="5.75085">
        <ele>242.044082</ele>
        <time>2026-08-29T12:43:57.000Z</time>
      </trkpt>
      <trkpt lat="45.18759" lon="5.75092">
        <ele>242.054568</ele>
        <time>2026-08-29T12:43:58.000Z</time>
      </trkpt>
      <trkpt lat="45.18758" lon="5.751">
        <ele>242.065893</ele>
        <time>2026-08-29T12:43:59.000Z</time>
      </trkpt>
      <trkpt lat="45.18757" lon="5.75107">
        <ele>242.077493</ele>
        <time>2026-08-29T12:44:00.000Z</time>
      </trkpt>
      <trkpt lat="45.18757" lon="5.75115">
        <ele>242.088942</ele>
        <time>2026-08-29T12:44:01.000Z</time>
      </trkpt>
      <trkpt lat="45.18757" lon="5.75123">
        <ele>242.100621</ele>
        <time>2026-08-29T12:44:02.000Z</time>
      </trkpt>
      <trkpt lat="45.18757" lon="5.7513">
        <ele>242.112005</ele>
        <time>2026-08-29T12:44:03.000Z</time>
      </trkpt>
      <trkpt lat="45.18756" lon="5.75138">
        <ele>242.123432</ele>
        <time>2026-08-29T12:44:04.000Z</time>
      </trkpt>
      <trkpt lat="45.18756" lon="5.75145">
        <ele>242.135161</ele>
        <time>2026-08-29T12:44:05.000Z</time>
      </trkpt>
      <trkpt lat="45.18755" lon="5.75152">
        <ele>242.146035</ele>
        <time>2026-08-29T12:44:06.000Z</time>
      </trkpt>
      <trkpt lat="45.18754" lon="5.75159">
        <ele>242.156536</ele>
        <time>2026-08-29T12:44:07.000Z</time>
      </trkpt>
      <trkpt lat="45.18754" lon="5.75167">
        <ele>242.167912</ele>
        <time>2026-08-29T12:44:08.000Z</time>
      </trkpt>
      <trkpt lat="45.18754" lon="5.75175">
        <ele>242.179901</ele>
        <time>2026-08-29T12:44:09.000Z</time>
      </trkpt>
      <trkpt lat="45.18752" lon="5.75182">
        <ele>242.19123</ele>
        <time>2026-08-29T12:44:10.000Z</time>
      </trkpt>
      <trkpt lat="45.18751" lon="5.75188">
        <ele>242.201576</ele>
        <time>2026-08-29T12:44:11.000Z</time>
      </trkpt>
      <trkpt lat="45.18751" lon="5.75195">
        <ele>242.21197</ele>
        <time>2026-08-29T12:44:12.000Z</time>
      </trkpt>
      <trkpt lat="45.1875" lon="5.75201">
        <ele>242.221463</ele>
        <time>2026-08-29T12:44:13.000Z</time>
      </trkpt>
      <trkpt lat="45.18749" lon="5.75206">
        <ele>242.228409</ele>
        <time>2026-08-29T12:44:14.000Z</time>
      </trkpt>
      <trkpt lat="45.18749" lon="5.75208">
        <ele>242.232003</ele>
        <time>2026-08-29T12:44:15.000Z</time>
      </trkpt>
      <trkpt lat="45.18748" lon="5.7521">
        <ele>242.235161</ele>
        <time>2026-08-29T12:44:16.000Z</time>
      </trkpt>
      <trkpt lat="45.18748" lon="5.75212">
        <ele>242.238237</ele>
        <time>2026-08-29T12:44:17.000Z</time>
      </trkpt>
      <trkpt lat="45.18747" lon="5.75215">
        <ele>242.242243</ele>
        <time>2026-08-29T12:44:18.000Z</time>
      </trkpt>
      <trkpt lat="45.18747" lon="5.75218">
        <ele>242.247172</ele>
        <time>2026-08-29T12:44:19.000Z</time>
      </trkpt>
      <trkpt lat="45.18747" lon="5.75222">
        <ele>242.252952</ele>
        <time>2026-08-29T12:44:20.000Z</time>
      </trkpt>
      <trkpt lat="45.18746" lon="5.75225">
        <ele>242.258752</ele>
        <time>2026-08-29T12:44:21.000Z</time>
      </trkpt>
      <trkpt lat="45.18746" lon="5.7523">
        <ele>242.265792</ele>
        <time>2026-08-29T12:44:22.000Z</time>
      </trkpt>
      <trkpt lat="45.18745" lon="5.75234">
        <ele>242.272253</ele>
        <time>2026-08-29T12:44:23.000Z</time>
      </trkpt>
      <trkpt lat="45.18744" lon="5.75239">
        <ele>242.279734</ele>
        <time>2026-08-29T12:44:24.000Z</time>
      </trkpt>
      <trkpt lat="45.18743" lon="5.75244">
        <ele>242.287709</ele>
        <time>2026-08-29T12:44:25.000Z</time>
      </trkpt>
      <trkpt lat="45.18743" lon="5.75249">
        <ele>242.295739</ele>
        <time>2026-08-29T12:44:26.000Z</time>
      </trkpt>
      <trkpt lat="45.18742" lon="5.75255">
        <ele>242.304427</ele>
        <time>2026-08-29T12:44:27.000Z</time>
      </trkpt>
      <trkpt lat="45.18742" lon="5.75261">
        <ele>242.3134</ele>
        <time>2026-08-29T12:44:28.000Z</time>
      </trkpt>
      <trkpt lat="45.18742" lon="5.75266">
        <ele>242.322112</ele>
        <time>2026-08-29T12:44:29.000Z</time>
      </trkpt>
      <trkpt lat="45.18741" lon="5.75272">
        <ele>242.331337</ele>
        <time>2026-08-29T12:44:30.000Z</time>
      </trkpt>
      <trkpt lat="45.1874" lon="5.75279">
        <ele>242.341182</ele>
        <time>2026-08-29T12:44:31.000Z</time>
      </trkpt>
      <trkpt lat="45.18739" lon="5.75285">
        <ele>242.35108</ele>
        <time>2026-08-29T12:44:32.000Z</time>
      </trkpt>
      <trkpt lat="45.18736" lon="5.75292">
        <ele>242.357855</ele>
        <time>2026-08-29T12:44:33.000Z</time>
      </trkpt>
      <trkpt lat="45.18734" lon="5.75298">
        <ele>242.357855</ele>
        <time>2026-08-29T12:44:34.000Z</time>
      </trkpt>
      <trkpt lat="45.18731" lon="5.75305">
        <ele>242.357855</ele>
        <time>2026-08-29T12:44:35.000Z</time>
      </trkpt>
      <trkpt lat="45.18729" lon="5.75312">
        <ele>242.357855</ele>
        <time>2026-08-29T12:44:36.000Z</time>
      </trkpt>
      <trkpt lat="45.18729" lon="5.75318">
        <ele>242.357855</ele>
        <time>2026-08-29T12:44:37.000Z</time>
      </trkpt>
      <trkpt lat="45.18729" lon="5.75325">
        <ele>242.357855</ele>
        <time>2026-08-29T12:44:38.000Z</time>
      </trkpt>
      <trkpt lat="45.18728" lon="5.75331">
        <ele>242.357855</ele>
        <time>2026-08-29T12:44:39.000Z</time>
      </trkpt>
      <trkpt lat="45.18727" lon="5.75337">
        <ele>242.357855</ele>
        <time>2026-08-29T12:44:40.000Z</time>
      </trkpt>
      <trkpt lat="45.18727" lon="5.75343">
        <ele>242.357855</ele>
        <time>2026-08-29T12:44:41.000Z</time>
      </trkpt>
      <trkpt lat="45.18729" lon="5.75345">
        <ele>242.357855</ele>
        <time>2026-08-29T12:44:42.000Z</time>
      </trkpt>
      <trkpt lat="45.18731" lon="5.75347">
        <ele>242.357855</ele>
        <time>2026-08-29T12:44:43.000Z</time>
      </trkpt>
      <trkpt lat="45.18734" lon="5.75348">
        <ele>242.357855</ele>
        <time>2026-08-29T12:44:44.000Z</time>
      </trkpt>
      <trkpt lat="45.18737" lon="5.75349">
        <ele>242.357855</ele>
        <time>2026-08-29T12:44:45.000Z</time>
      </trkpt>
      <trkpt lat="45.18739" lon="5.75351">
        <ele>242.357855</ele>
        <time>2026-08-29T12:44:46.000Z</time>
      </trkpt>
      <trkpt lat="45.18742" lon="5.75352">
        <ele>242.357855</ele>
        <time>2026-08-29T12:44:47.000Z</time>
      </trkpt>
      <trkpt lat="45.18745" lon="5.75353">
        <ele>242.357855</ele>
        <time>2026-08-29T12:44:48.000Z</time>
      </trkpt>
      <trkpt lat="45.18747" lon="5.75353">
        <ele>242.357855</ele>
        <time>2026-08-29T12:44:49.000Z</time>
      </trkpt>
      <trkpt lat="45.18748" lon="5.75353">
        <ele>242.357855</ele>
        <time>2026-08-29T12:44:50.000Z</time>
      </trkpt>
      <trkpt lat="45.18748" lon="5.75354">
        <ele>242.357855</ele>
        <time>2026-08-29T12:44:51.000Z</time>
      </trkpt>
      <trkpt lat="45.18754" lon="5.75357">
        <ele>242.357855</ele>
        <time>2026-08-29T12:45:04.000Z</time>
      </trkpt>
      <trkpt lat="45.18757" lon="5.75357">
        <ele>242.357855</ele>
        <time>2026-08-29T12:45:05.000Z</time>
      </trkpt>
      <trkpt lat="45.1876" lon="5.75355">
        <ele>242.357855</ele>
        <time>2026-08-29T12:45:06.000Z</time>
      </trkpt>
      <trkpt lat="45.18763" lon="5.75354">
        <ele>242.357855</ele>
        <time>2026-08-29T12:45:07.000Z</time>
      </trkpt>
      <trkpt lat="45.18765" lon="5.75356">
        <ele>242.357855</ele>
        <time>2026-08-29T12:45:08.000Z</time>
      </trkpt>
      <trkpt lat="45.18768" lon="5.7536">
        <ele>242.357855</ele>
        <time>2026-08-29T12:45:09.000Z</time>
      </trkpt>
      <trkpt lat="45.1877" lon="5.75365">
        <ele>242.357855</ele>
        <time>2026-08-29T12:45:10.000Z</time>
      </trkpt>
      <trkpt lat="45.18773" lon="5.75369">
        <ele>242.357855</ele>
        <time>2026-08-29T12:45:11.000Z</time>
      </trkpt>
      <trkpt lat="45.18776" lon="5.75374">
        <ele>242.357855</ele>
        <time>2026-08-29T12:45:12.000Z</time>
      </trkpt>
      <trkpt lat="45.18779" lon="5.75377">
        <ele>242.357855</ele>
        <time>2026-08-29T12:45:13.000Z</time>
      </trkpt>
      <trkpt lat="45.18782" lon="5.75381">
        <ele>242.357855</ele>
        <time>2026-08-29T12:45:14.000Z</time>
      </trkpt>
      <trkpt lat="45.18785" lon="5.75386">
        <ele>242.357855</ele>
        <time>2026-08-29T12:45:15.000Z</time>
      </trkpt>
      <trkpt lat="45.18788" lon="5.7539">
        <ele>242.357855</ele>
        <time>2026-08-29T12:45:16.000Z</time>
      </trkpt>
      <trkpt lat="45.18791" lon="5.75395">
        <ele>242.357855</ele>
        <time>2026-08-29T12:45:17.000Z</time>
      </trkpt>
      <trkpt lat="45.18794" lon="5.75399">
        <ele>242.357855</ele>
        <time>2026-08-29T12:45:18.000Z</time>
      </trkpt>
      <trkpt lat="45.18797" lon="5.75402">
        <ele>242.357855</ele>
        <time>2026-08-29T12:45:19.000Z</time>
      </trkpt>
      <trkpt lat="45.188" lon="5.75407">
        <ele>242.357855</ele>
        <time>2026-08-29T12:45:20.000Z</time>
      </trkpt>
      <trkpt lat="45.18801" lon="5.75411">
        <ele>242.357855</ele>
        <time>2026-08-29T12:45:21.000Z</time>
      </trkpt>
      <trkpt lat="45.188" lon="5.75415">
        <ele>242.357855</ele>
        <time>2026-08-29T12:45:22.000Z</time>
      </trkpt>
      <trkpt lat="45.18799" lon="5.75418">
        <ele>242.357855</ele>
        <time>2026-08-29T12:45:23.000Z</time>
      </trkpt>
      <trkpt lat="45.18796" lon="5.75422">
        <ele>242.357855</ele>
        <time>2026-08-29T12:45:24.000Z</time>
      </trkpt>
      <trkpt lat="45.18796" lon="5.75425">
        <ele>242.357855</ele>
        <time>2026-08-29T12:45:25.000Z</time>
      </trkpt>
      <trkpt lat="45.18797" lon="5.75428">
        <ele>242.357855</ele>
        <time>2026-08-29T12:45:26.000Z</time>
      </trkpt>
      <trkpt lat="45.18798" lon="5.7543">
        <ele>242.357855</ele>
        <time>2026-08-29T12:45:27.000Z</time>
      </trkpt>
      <trkpt lat="45.188" lon="5.75433">
        <ele>242.357855</ele>
        <time>2026-08-29T12:45:28.000Z</time>
      </trkpt>
      <trkpt lat="45.188" lon="5.75435">
        <ele>242.357855</ele>
        <time>2026-08-29T12:45:29.000Z</time>
      </trkpt>
      <trkpt lat="45.18801" lon="5.75436">
        <ele>242.357855</ele>
        <time>2026-08-29T12:45:30.000Z</time>
      </trkpt>
      <trkpt lat="45.18801" lon="5.75437">
        <ele>242.357855</ele>
        <time>2026-08-29T12:45:31.000Z</time>
      </trkpt>
      <trkpt lat="45.18801" lon="5.75437">
        <ele>242.357855</ele>
        <time>2026-08-29T12:45:32.000Z</time>
      </trkpt>
      <trkpt lat="45.18801" lon="5.75438">
        <ele>242.357855</ele>
        <time>2026-08-29T12:45:33.000Z</time>
      </trkpt>
    </trkseg>
  </trk>
</gpx>